<?xml version="1.0" encoding="UTF-8" standalone="no" ?>
<gpx xmlns="http://www.topografix.com/GPX/1/1" xmlns:xsi="http://www.w3.org/2001/XMLSchema-instance" xsi:schemaLocation="http://www.topografix.com/GPX/1/1 http://www.topografix.com/GPX/1/1/gpx.xsd" version="1.1" creator="VisuGPX - https://www.visugpx.com">
  <metadata>
    <name>2016-08-29 Bike ride-Amberieux en Dombes O via Toussieux</name>
    <desc><![CDATA[2016-08-29 Bike ride-Amberieux en Dombes O via Toussieux]]></desc>
  </metadata>
  <wpt lat="45.92453" lon="4.73709">
    <ele>174</ele>
    <name><![CDATA[2016-08-29 15:51 (Start)]]></name>
  </wpt>
  <wpt lat="45.92465" lon="4.73708">
    <ele>174</ele>
    <name><![CDATA[2016-08-29 15:51 (End)]]></name>
    <desc><![CDATA[Created by Google My Tracks on Android  Name: 2016-08-29 15:51 Activity type: biking Description: - Total distance: 39.81 km (24.7 mi) Total time: 1:53:34 Moving time: 1:52:49 Average speed: 21.03 km/h (13.1 mi/h) Average moving speed: 21.17 km/h (13.2 mi/h) Max speed: 46.72 km/h (29.0 mi/h) Average pace: 2:51 min/km (4:35 min/mi) Average moving pace: 2:50 min/km (4:34 min/mi) Fastest pace: 1:17 min/km (2:04 min/mi) Max elevation: 306 m (1004 ft) Min elevation: 162 m (532 ft) Elevation gain: 616 m (2020 ft) Max grade: 12 % Min grade: -46 % Recorded: 29/08/2016 15:51]]></desc>
  </wpt>
  <trk>
    <name><![CDATA[2016-08-29 15:51]]></name>
    <trkseg>
      <trkpt lat="45.92453" lon="4.73709">
        <ele>174</ele>
        <time>2016-08-29T13:51:46.571Z</time>
      </trkpt>
      <trkpt lat="45.92461" lon="4.73709">
        <ele>174</ele>
        <time>2016-08-29T13:53:11Z</time>
      </trkpt>
      <trkpt lat="45.92463" lon="4.73707">
        <ele>174</ele>
        <time>2016-08-29T13:53:12Z</time>
      </trkpt>
      <trkpt lat="45.92465" lon="4.73695">
        <ele>174</ele>
        <time>2016-08-29T13:53:16Z</time>
      </trkpt>
      <trkpt lat="45.92466" lon="4.73691">
        <ele>174</ele>
        <time>2016-08-29T13:53:17Z</time>
      </trkpt>
      <trkpt lat="45.92467" lon="4.73681">
        <ele>174</ele>
        <time>2016-08-29T13:53:19Z</time>
      </trkpt>
      <trkpt lat="45.92467" lon="4.73675">
        <ele>174</ele>
        <time>2016-08-29T13:53:20Z</time>
      </trkpt>
      <trkpt lat="45.92469" lon="4.73663">
        <ele>174</ele>
        <time>2016-08-29T13:53:22Z</time>
      </trkpt>
      <trkpt lat="45.9247" lon="4.73657">
        <ele>174</ele>
        <time>2016-08-29T13:53:23Z</time>
      </trkpt>
      <trkpt lat="45.92474" lon="4.73646">
        <ele>174</ele>
        <time>2016-08-29T13:53:25Z</time>
      </trkpt>
      <trkpt lat="45.92478" lon="4.73642">
        <ele>174</ele>
        <time>2016-08-29T13:53:26Z</time>
      </trkpt>
      <trkpt lat="45.92485" lon="4.7364">
        <ele>174</ele>
        <time>2016-08-29T13:53:28Z</time>
      </trkpt>
      <trkpt lat="45.9249" lon="4.73642">
        <ele>174</ele>
        <time>2016-08-29T13:53:29Z</time>
      </trkpt>
      <trkpt lat="45.92495" lon="4.73636">
        <ele>174</ele>
        <time>2016-08-29T13:53:31Z</time>
      </trkpt>
      <trkpt lat="45.92499" lon="4.73633">
        <ele>174</ele>
        <time>2016-08-29T13:53:32Z</time>
      </trkpt>
      <trkpt lat="45.92507" lon="4.73631">
        <ele>173</ele>
        <time>2016-08-29T13:53:34Z</time>
      </trkpt>
      <trkpt lat="45.92512" lon="4.73631">
        <ele>173</ele>
        <time>2016-08-29T13:53:35Z</time>
      </trkpt>
      <trkpt lat="45.92514" lon="4.73627">
        <ele>173</ele>
        <time>2016-08-29T13:53:36Z</time>
      </trkpt>
      <trkpt lat="45.92521" lon="4.73626">
        <ele>173</ele>
        <time>2016-08-29T13:53:37Z</time>
      </trkpt>
      <trkpt lat="45.92527" lon="4.73627">
        <ele>173</ele>
        <time>2016-08-29T13:53:38Z</time>
      </trkpt>
      <trkpt lat="45.92533" lon="4.73627">
        <ele>173</ele>
        <time>2016-08-29T13:53:39Z</time>
      </trkpt>
      <trkpt lat="45.92539" lon="4.73627">
        <ele>173</ele>
        <time>2016-08-29T13:53:40Z</time>
      </trkpt>
      <trkpt lat="45.92545" lon="4.73627">
        <ele>173</ele>
        <time>2016-08-29T13:53:41Z</time>
      </trkpt>
      <trkpt lat="45.92551" lon="4.73626">
        <ele>173</ele>
        <time>2016-08-29T13:53:42Z</time>
      </trkpt>
      <trkpt lat="45.92557" lon="4.73626">
        <ele>173</ele>
        <time>2016-08-29T13:53:43Z</time>
      </trkpt>
      <trkpt lat="45.92563" lon="4.73625">
        <ele>173</ele>
        <time>2016-08-29T13:53:44Z</time>
      </trkpt>
      <trkpt lat="45.92568" lon="4.73624">
        <ele>173</ele>
        <time>2016-08-29T13:53:45Z</time>
      </trkpt>
      <trkpt lat="45.92573" lon="4.73624">
        <ele>173</ele>
        <time>2016-08-29T13:53:46Z</time>
      </trkpt>
      <trkpt lat="45.92579" lon="4.73625">
        <ele>173</ele>
        <time>2016-08-29T13:53:47Z</time>
      </trkpt>
      <trkpt lat="45.92586" lon="4.73626">
        <ele>172</ele>
        <time>2016-08-29T13:53:48Z</time>
      </trkpt>
      <trkpt lat="45.92591" lon="4.73626">
        <ele>172</ele>
        <time>2016-08-29T13:53:49Z</time>
      </trkpt>
      <trkpt lat="45.92598" lon="4.73627">
        <ele>173</ele>
        <time>2016-08-29T13:53:50Z</time>
      </trkpt>
      <trkpt lat="45.92603" lon="4.73626">
        <ele>173</ele>
        <time>2016-08-29T13:53:51Z</time>
      </trkpt>
      <trkpt lat="45.92607" lon="4.73625">
        <ele>173</ele>
        <time>2016-08-29T13:53:52Z</time>
      </trkpt>
      <trkpt lat="45.92612" lon="4.73627">
        <ele>173</ele>
        <time>2016-08-29T13:53:53Z</time>
      </trkpt>
      <trkpt lat="45.92617" lon="4.73631">
        <ele>173</ele>
        <time>2016-08-29T13:53:54Z</time>
      </trkpt>
      <trkpt lat="45.92622" lon="4.73636">
        <ele>173</ele>
        <time>2016-08-29T13:53:55Z</time>
      </trkpt>
      <trkpt lat="45.92626" lon="4.73642">
        <ele>173</ele>
        <time>2016-08-29T13:53:56Z</time>
      </trkpt>
      <trkpt lat="45.92629" lon="4.73648">
        <ele>173</ele>
        <time>2016-08-29T13:53:57Z</time>
      </trkpt>
      <trkpt lat="45.9263" lon="4.73654">
        <ele>173</ele>
        <time>2016-08-29T13:53:58Z</time>
      </trkpt>
      <trkpt lat="45.92633" lon="4.73661">
        <ele>173</ele>
        <time>2016-08-29T13:53:59Z</time>
      </trkpt>
      <trkpt lat="45.92635" lon="4.73668">
        <ele>173</ele>
        <time>2016-08-29T13:54:00Z</time>
      </trkpt>
      <trkpt lat="45.92639" lon="4.73674">
        <ele>173</ele>
        <time>2016-08-29T13:54:01Z</time>
      </trkpt>
      <trkpt lat="45.92643" lon="4.73679">
        <ele>173</ele>
        <time>2016-08-29T13:54:02Z</time>
      </trkpt>
      <trkpt lat="45.92647" lon="4.73683">
        <ele>173</ele>
        <time>2016-08-29T13:54:03Z</time>
      </trkpt>
      <trkpt lat="45.92653" lon="4.73689">
        <ele>173</ele>
        <time>2016-08-29T13:54:04Z</time>
      </trkpt>
      <trkpt lat="45.92658" lon="4.73693">
        <ele>173</ele>
        <time>2016-08-29T13:54:05Z</time>
      </trkpt>
      <trkpt lat="45.92664" lon="4.73697">
        <ele>173</ele>
        <time>2016-08-29T13:54:06Z</time>
      </trkpt>
      <trkpt lat="45.9267" lon="4.73701">
        <ele>174</ele>
        <time>2016-08-29T13:54:07Z</time>
      </trkpt>
      <trkpt lat="45.92677" lon="4.73704">
        <ele>173</ele>
        <time>2016-08-29T13:54:08Z</time>
      </trkpt>
      <trkpt lat="45.92683" lon="4.73706">
        <ele>173</ele>
        <time>2016-08-29T13:54:09Z</time>
      </trkpt>
      <trkpt lat="45.92689" lon="4.73708">
        <ele>173</ele>
        <time>2016-08-29T13:54:10Z</time>
      </trkpt>
      <trkpt lat="45.92695" lon="4.7371">
        <ele>173</ele>
        <time>2016-08-29T13:54:11Z</time>
      </trkpt>
      <trkpt lat="45.927" lon="4.73711">
        <ele>173</ele>
        <time>2016-08-29T13:54:12Z</time>
      </trkpt>
      <trkpt lat="45.92706" lon="4.73713">
        <ele>173</ele>
        <time>2016-08-29T13:54:13Z</time>
      </trkpt>
      <trkpt lat="45.92712" lon="4.73714">
        <ele>173</ele>
        <time>2016-08-29T13:54:15Z</time>
      </trkpt>
      <trkpt lat="45.92717" lon="4.73715">
        <ele>173</ele>
        <time>2016-08-29T13:54:16Z</time>
      </trkpt>
      <trkpt lat="45.92722" lon="4.73715">
        <ele>173</ele>
        <time>2016-08-29T13:54:17Z</time>
      </trkpt>
      <trkpt lat="45.92727" lon="4.73716">
        <ele>173</ele>
        <time>2016-08-29T13:54:18Z</time>
      </trkpt>
      <trkpt lat="45.92732" lon="4.73717">
        <ele>173</ele>
        <time>2016-08-29T13:54:19Z</time>
      </trkpt>
      <trkpt lat="45.92738" lon="4.73719">
        <ele>173</ele>
        <time>2016-08-29T13:54:20Z</time>
      </trkpt>
      <trkpt lat="45.92744" lon="4.73721">
        <ele>173</ele>
        <time>2016-08-29T13:54:21Z</time>
      </trkpt>
      <trkpt lat="45.92748" lon="4.73722">
        <ele>173</ele>
        <time>2016-08-29T13:54:22Z</time>
      </trkpt>
      <trkpt lat="45.92753" lon="4.73723">
        <ele>172</ele>
        <time>2016-08-29T13:54:23Z</time>
      </trkpt>
      <trkpt lat="45.92757" lon="4.73725">
        <ele>172</ele>
        <time>2016-08-29T13:54:24Z</time>
      </trkpt>
      <trkpt lat="45.92766" lon="4.73728">
        <ele>172</ele>
        <time>2016-08-29T13:54:26Z</time>
      </trkpt>
      <trkpt lat="45.92769" lon="4.7373">
        <ele>172</ele>
        <time>2016-08-29T13:54:27Z</time>
      </trkpt>
      <trkpt lat="45.92775" lon="4.73727">
        <ele>172</ele>
        <time>2016-08-29T13:54:29Z</time>
      </trkpt>
      <trkpt lat="45.9278" lon="4.73724">
        <ele>172</ele>
        <time>2016-08-29T13:54:30Z</time>
      </trkpt>
      <trkpt lat="45.92783" lon="4.73713">
        <ele>172</ele>
        <time>2016-08-29T13:54:32Z</time>
      </trkpt>
      <trkpt lat="45.92785" lon="4.73708">
        <ele>172</ele>
        <time>2016-08-29T13:54:33Z</time>
      </trkpt>
      <trkpt lat="45.92787" lon="4.73701">
        <ele>172</ele>
        <time>2016-08-29T13:54:34Z</time>
      </trkpt>
      <trkpt lat="45.92789" lon="4.73693">
        <ele>172</ele>
        <time>2016-08-29T13:54:35Z</time>
      </trkpt>
      <trkpt lat="45.92791" lon="4.73686">
        <ele>172</ele>
        <time>2016-08-29T13:54:36Z</time>
      </trkpt>
      <trkpt lat="45.92793" lon="4.73679">
        <ele>172</ele>
        <time>2016-08-29T13:54:37Z</time>
      </trkpt>
      <trkpt lat="45.92795" lon="4.73673">
        <ele>172</ele>
        <time>2016-08-29T13:54:38Z</time>
      </trkpt>
      <trkpt lat="45.92796" lon="4.73667">
        <ele>172</ele>
        <time>2016-08-29T13:54:39Z</time>
      </trkpt>
      <trkpt lat="45.92798" lon="4.7366">
        <ele>172</ele>
        <time>2016-08-29T13:54:40Z</time>
      </trkpt>
      <trkpt lat="45.928" lon="4.73654">
        <ele>172</ele>
        <time>2016-08-29T13:54:41Z</time>
      </trkpt>
      <trkpt lat="45.92802" lon="4.73647">
        <ele>172</ele>
        <time>2016-08-29T13:54:42Z</time>
      </trkpt>
      <trkpt lat="45.92805" lon="4.73641">
        <ele>172</ele>
        <time>2016-08-29T13:54:43Z</time>
      </trkpt>
      <trkpt lat="45.9281" lon="4.73634">
        <ele>172</ele>
        <time>2016-08-29T13:54:45Z</time>
      </trkpt>
      <trkpt lat="45.92813" lon="4.73632">
        <ele>172</ele>
        <time>2016-08-29T13:54:46Z</time>
      </trkpt>
      <trkpt lat="45.92821" lon="4.73628">
        <ele>172</ele>
        <time>2016-08-29T13:54:50Z</time>
      </trkpt>
      <trkpt lat="45.92821" lon="4.73622">
        <ele>172</ele>
        <time>2016-08-29T13:54:51Z</time>
      </trkpt>
      <trkpt lat="45.92819" lon="4.73611">
        <ele>172</ele>
        <time>2016-08-29T13:54:53Z</time>
      </trkpt>
      <trkpt lat="45.92818" lon="4.73606">
        <ele>172</ele>
        <time>2016-08-29T13:54:54Z</time>
      </trkpt>
      <trkpt lat="45.92819" lon="4.73594">
        <ele>171</ele>
        <time>2016-08-29T13:54:56Z</time>
      </trkpt>
      <trkpt lat="45.92819" lon="4.73586">
        <ele>171</ele>
        <time>2016-08-29T13:54:57Z</time>
      </trkpt>
      <trkpt lat="45.9282" lon="4.73577">
        <ele>171</ele>
        <time>2016-08-29T13:54:58Z</time>
      </trkpt>
      <trkpt lat="45.9282" lon="4.73569">
        <ele>171</ele>
        <time>2016-08-29T13:54:59Z</time>
      </trkpt>
      <trkpt lat="45.92821" lon="4.73561">
        <ele>171</ele>
        <time>2016-08-29T13:55:00Z</time>
      </trkpt>
      <trkpt lat="45.92821" lon="4.73554">
        <ele>171</ele>
        <time>2016-08-29T13:55:01Z</time>
      </trkpt>
      <trkpt lat="45.92822" lon="4.73545">
        <ele>171</ele>
        <time>2016-08-29T13:55:02Z</time>
      </trkpt>
      <trkpt lat="45.92823" lon="4.73537">
        <ele>172</ele>
        <time>2016-08-29T13:55:03Z</time>
      </trkpt>
      <trkpt lat="45.92823" lon="4.73529">
        <ele>172</ele>
        <time>2016-08-29T13:55:04Z</time>
      </trkpt>
      <trkpt lat="45.92824" lon="4.7352">
        <ele>172</ele>
        <time>2016-08-29T13:55:05Z</time>
      </trkpt>
      <trkpt lat="45.92825" lon="4.73512">
        <ele>172</ele>
        <time>2016-08-29T13:55:06Z</time>
      </trkpt>
      <trkpt lat="45.92826" lon="4.73503">
        <ele>172</ele>
        <time>2016-08-29T13:55:07Z</time>
      </trkpt>
      <trkpt lat="45.92828" lon="4.73494">
        <ele>172</ele>
        <time>2016-08-29T13:55:08Z</time>
      </trkpt>
      <trkpt lat="45.92829" lon="4.73485">
        <ele>172</ele>
        <time>2016-08-29T13:55:09Z</time>
      </trkpt>
      <trkpt lat="45.9283" lon="4.73477">
        <ele>172</ele>
        <time>2016-08-29T13:55:10Z</time>
      </trkpt>
      <trkpt lat="45.92831" lon="4.73468">
        <ele>172</ele>
        <time>2016-08-29T13:55:11Z</time>
      </trkpt>
      <trkpt lat="45.92832" lon="4.73459">
        <ele>172</ele>
        <time>2016-08-29T13:55:12Z</time>
      </trkpt>
      <trkpt lat="45.92833" lon="4.7345">
        <ele>172</ele>
        <time>2016-08-29T13:55:13Z</time>
      </trkpt>
      <trkpt lat="45.92834" lon="4.73441">
        <ele>172</ele>
        <time>2016-08-29T13:55:14Z</time>
      </trkpt>
      <trkpt lat="45.92835" lon="4.73432">
        <ele>172</ele>
        <time>2016-08-29T13:55:15Z</time>
      </trkpt>
      <trkpt lat="45.92836" lon="4.73421">
        <ele>172</ele>
        <time>2016-08-29T13:55:16Z</time>
      </trkpt>
      <trkpt lat="45.92837" lon="4.7341">
        <ele>172</ele>
        <time>2016-08-29T13:55:17Z</time>
      </trkpt>
      <trkpt lat="45.92838" lon="4.73401">
        <ele>172</ele>
        <time>2016-08-29T13:55:18Z</time>
      </trkpt>
      <trkpt lat="45.9284" lon="4.73393">
        <ele>172</ele>
        <time>2016-08-29T13:55:19Z</time>
      </trkpt>
      <trkpt lat="45.92841" lon="4.73384">
        <ele>172</ele>
        <time>2016-08-29T13:55:20Z</time>
      </trkpt>
      <trkpt lat="45.92843" lon="4.73374">
        <ele>171</ele>
        <time>2016-08-29T13:55:21Z</time>
      </trkpt>
      <trkpt lat="45.92844" lon="4.73365">
        <ele>171</ele>
        <time>2016-08-29T13:55:22Z</time>
      </trkpt>
      <trkpt lat="45.92844" lon="4.73356">
        <ele>171</ele>
        <time>2016-08-29T13:55:23Z</time>
      </trkpt>
      <trkpt lat="45.92845" lon="4.73347">
        <ele>171</ele>
        <time>2016-08-29T13:55:24Z</time>
      </trkpt>
      <trkpt lat="45.92846" lon="4.73337">
        <ele>171</ele>
        <time>2016-08-29T13:55:25Z</time>
      </trkpt>
      <trkpt lat="45.92847" lon="4.73328">
        <ele>171</ele>
        <time>2016-08-29T13:55:26Z</time>
      </trkpt>
      <trkpt lat="45.92848" lon="4.73319">
        <ele>171</ele>
        <time>2016-08-29T13:55:27Z</time>
      </trkpt>
      <trkpt lat="45.92849" lon="4.73309">
        <ele>171</ele>
        <time>2016-08-29T13:55:28Z</time>
      </trkpt>
      <trkpt lat="45.9285" lon="4.73301">
        <ele>171</ele>
        <time>2016-08-29T13:55:29Z</time>
      </trkpt>
      <trkpt lat="45.92851" lon="4.73292">
        <ele>171</ele>
        <time>2016-08-29T13:55:30Z</time>
      </trkpt>
      <trkpt lat="45.92853" lon="4.73282">
        <ele>171</ele>
        <time>2016-08-29T13:55:31Z</time>
      </trkpt>
      <trkpt lat="45.92854" lon="4.73273">
        <ele>171</ele>
        <time>2016-08-29T13:55:32Z</time>
      </trkpt>
      <trkpt lat="45.92855" lon="4.73264">
        <ele>171</ele>
        <time>2016-08-29T13:55:33Z</time>
      </trkpt>
      <trkpt lat="45.92857" lon="4.73254">
        <ele>171</ele>
        <time>2016-08-29T13:55:34Z</time>
      </trkpt>
      <trkpt lat="45.92858" lon="4.73245">
        <ele>171</ele>
        <time>2016-08-29T13:55:35Z</time>
      </trkpt>
      <trkpt lat="45.92859" lon="4.73235">
        <ele>171</ele>
        <time>2016-08-29T13:55:36Z</time>
      </trkpt>
      <trkpt lat="45.9286" lon="4.73226">
        <ele>171</ele>
        <time>2016-08-29T13:55:37Z</time>
      </trkpt>
      <trkpt lat="45.92861" lon="4.73216">
        <ele>171</ele>
        <time>2016-08-29T13:55:38Z</time>
      </trkpt>
      <trkpt lat="45.92862" lon="4.73207">
        <ele>171</ele>
        <time>2016-08-29T13:55:39Z</time>
      </trkpt>
      <trkpt lat="45.92863" lon="4.73197">
        <ele>171</ele>
        <time>2016-08-29T13:55:40Z</time>
      </trkpt>
      <trkpt lat="45.92864" lon="4.73187">
        <ele>171</ele>
        <time>2016-08-29T13:55:41Z</time>
      </trkpt>
      <trkpt lat="45.92866" lon="4.73177">
        <ele>171</ele>
        <time>2016-08-29T13:55:42Z</time>
      </trkpt>
      <trkpt lat="45.92867" lon="4.73167">
        <ele>171</ele>
        <time>2016-08-29T13:55:43Z</time>
      </trkpt>
      <trkpt lat="45.92868" lon="4.73157">
        <ele>171</ele>
        <time>2016-08-29T13:55:44Z</time>
      </trkpt>
      <trkpt lat="45.92869" lon="4.73147">
        <ele>171</ele>
        <time>2016-08-29T13:55:45Z</time>
      </trkpt>
      <trkpt lat="45.92871" lon="4.73138">
        <ele>171</ele>
        <time>2016-08-29T13:55:46Z</time>
      </trkpt>
      <trkpt lat="45.92872" lon="4.73129">
        <ele>171</ele>
        <time>2016-08-29T13:55:47Z</time>
      </trkpt>
      <trkpt lat="45.92874" lon="4.7312">
        <ele>172</ele>
        <time>2016-08-29T13:55:48Z</time>
      </trkpt>
      <trkpt lat="45.92876" lon="4.73111">
        <ele>172</ele>
        <time>2016-08-29T13:55:49Z</time>
      </trkpt>
      <trkpt lat="45.92879" lon="4.73102">
        <ele>172</ele>
        <time>2016-08-29T13:55:50Z</time>
      </trkpt>
      <trkpt lat="45.92882" lon="4.73093">
        <ele>172</ele>
        <time>2016-08-29T13:55:51Z</time>
      </trkpt>
      <trkpt lat="45.92885" lon="4.73085">
        <ele>172</ele>
        <time>2016-08-29T13:55:52Z</time>
      </trkpt>
      <trkpt lat="45.92889" lon="4.73077">
        <ele>172</ele>
        <time>2016-08-29T13:55:53Z</time>
      </trkpt>
      <trkpt lat="45.92892" lon="4.7307">
        <ele>172</ele>
        <time>2016-08-29T13:55:54Z</time>
      </trkpt>
      <trkpt lat="45.92896" lon="4.73062">
        <ele>172</ele>
        <time>2016-08-29T13:55:55Z</time>
      </trkpt>
      <trkpt lat="45.929" lon="4.73055">
        <ele>172</ele>
        <time>2016-08-29T13:55:56Z</time>
      </trkpt>
      <trkpt lat="45.92904" lon="4.73048">
        <ele>172</ele>
        <time>2016-08-29T13:55:57Z</time>
      </trkpt>
      <trkpt lat="45.92908" lon="4.73042">
        <ele>172</ele>
        <time>2016-08-29T13:55:58Z</time>
      </trkpt>
      <trkpt lat="45.92913" lon="4.73035">
        <ele>172</ele>
        <time>2016-08-29T13:55:59Z</time>
      </trkpt>
      <trkpt lat="45.92917" lon="4.73028">
        <ele>172</ele>
        <time>2016-08-29T13:56:00Z</time>
      </trkpt>
      <trkpt lat="45.92922" lon="4.73022">
        <ele>172</ele>
        <time>2016-08-29T13:56:01Z</time>
      </trkpt>
      <trkpt lat="45.92927" lon="4.73014">
        <ele>172</ele>
        <time>2016-08-29T13:56:02Z</time>
      </trkpt>
      <trkpt lat="45.92931" lon="4.73009">
        <ele>171</ele>
        <time>2016-08-29T13:56:03Z</time>
      </trkpt>
      <trkpt lat="45.92936" lon="4.73003">
        <ele>171</ele>
        <time>2016-08-29T13:56:04Z</time>
      </trkpt>
      <trkpt lat="45.92941" lon="4.72997">
        <ele>171</ele>
        <time>2016-08-29T13:56:05Z</time>
      </trkpt>
      <trkpt lat="45.92946" lon="4.72991">
        <ele>171</ele>
        <time>2016-08-29T13:56:06Z</time>
      </trkpt>
      <trkpt lat="45.92951" lon="4.72985">
        <ele>171</ele>
        <time>2016-08-29T13:56:07Z</time>
      </trkpt>
      <trkpt lat="45.92956" lon="4.7298">
        <ele>171</ele>
        <time>2016-08-29T13:56:08Z</time>
      </trkpt>
      <trkpt lat="45.92961" lon="4.72974">
        <ele>171</ele>
        <time>2016-08-29T13:56:09Z</time>
      </trkpt>
      <trkpt lat="45.92965" lon="4.72969">
        <ele>171</ele>
        <time>2016-08-29T13:56:10Z</time>
      </trkpt>
      <trkpt lat="45.9297" lon="4.72964">
        <ele>171</ele>
        <time>2016-08-29T13:56:11Z</time>
      </trkpt>
      <trkpt lat="45.92974" lon="4.72959">
        <ele>171</ele>
        <time>2016-08-29T13:56:12Z</time>
      </trkpt>
      <trkpt lat="45.92979" lon="4.72953">
        <ele>171</ele>
        <time>2016-08-29T13:56:13Z</time>
      </trkpt>
      <trkpt lat="45.92984" lon="4.72947">
        <ele>171</ele>
        <time>2016-08-29T13:56:14Z</time>
      </trkpt>
      <trkpt lat="45.92989" lon="4.72941">
        <ele>171</ele>
        <time>2016-08-29T13:56:15Z</time>
      </trkpt>
      <trkpt lat="45.92993" lon="4.72934">
        <ele>171</ele>
        <time>2016-08-29T13:56:16Z</time>
      </trkpt>
      <trkpt lat="45.92998" lon="4.72928">
        <ele>171</ele>
        <time>2016-08-29T13:56:17Z</time>
      </trkpt>
      <trkpt lat="45.93003" lon="4.72921">
        <ele>171</ele>
        <time>2016-08-29T13:56:18Z</time>
      </trkpt>
      <trkpt lat="45.93009" lon="4.72916">
        <ele>171</ele>
        <time>2016-08-29T13:56:19Z</time>
      </trkpt>
      <trkpt lat="45.93014" lon="4.7291">
        <ele>171</ele>
        <time>2016-08-29T13:56:20Z</time>
      </trkpt>
      <trkpt lat="45.93019" lon="4.72904">
        <ele>172</ele>
        <time>2016-08-29T13:56:21Z</time>
      </trkpt>
      <trkpt lat="45.93025" lon="4.72898">
        <ele>172</ele>
        <time>2016-08-29T13:56:22Z</time>
      </trkpt>
      <trkpt lat="45.9303" lon="4.72893">
        <ele>172</ele>
        <time>2016-08-29T13:56:23Z</time>
      </trkpt>
      <trkpt lat="45.93035" lon="4.72887">
        <ele>172</ele>
        <time>2016-08-29T13:56:24Z</time>
      </trkpt>
      <trkpt lat="45.9304" lon="4.72881">
        <ele>172</ele>
        <time>2016-08-29T13:56:25Z</time>
      </trkpt>
      <trkpt lat="45.93046" lon="4.72875">
        <ele>172</ele>
        <time>2016-08-29T13:56:26Z</time>
      </trkpt>
      <trkpt lat="45.93051" lon="4.72869">
        <ele>172</ele>
        <time>2016-08-29T13:56:27Z</time>
      </trkpt>
      <trkpt lat="45.93056" lon="4.72863">
        <ele>172</ele>
        <time>2016-08-29T13:56:28Z</time>
      </trkpt>
      <trkpt lat="45.93061" lon="4.72858">
        <ele>172</ele>
        <time>2016-08-29T13:56:29Z</time>
      </trkpt>
      <trkpt lat="45.93065" lon="4.72853">
        <ele>172</ele>
        <time>2016-08-29T13:56:30Z</time>
      </trkpt>
      <trkpt lat="45.93069" lon="4.7285">
        <ele>172</ele>
        <time>2016-08-29T13:56:31Z</time>
      </trkpt>
      <trkpt lat="45.93074" lon="4.72845">
        <ele>173</ele>
        <time>2016-08-29T13:56:32Z</time>
      </trkpt>
      <trkpt lat="45.9308" lon="4.72839">
        <ele>173</ele>
        <time>2016-08-29T13:56:33Z</time>
      </trkpt>
      <trkpt lat="45.93085" lon="4.72833">
        <ele>173</ele>
        <time>2016-08-29T13:56:34Z</time>
      </trkpt>
      <trkpt lat="45.9309" lon="4.72828">
        <ele>172</ele>
        <time>2016-08-29T13:56:35Z</time>
      </trkpt>
      <trkpt lat="45.93095" lon="4.7282">
        <ele>172</ele>
        <time>2016-08-29T13:56:36Z</time>
      </trkpt>
      <trkpt lat="45.931" lon="4.72813">
        <ele>172</ele>
        <time>2016-08-29T13:56:37Z</time>
      </trkpt>
      <trkpt lat="45.93106" lon="4.72809">
        <ele>171</ele>
        <time>2016-08-29T13:56:38Z</time>
      </trkpt>
      <trkpt lat="45.9311" lon="4.72802">
        <ele>171</ele>
        <time>2016-08-29T13:56:39Z</time>
      </trkpt>
      <trkpt lat="45.93114" lon="4.72796">
        <ele>171</ele>
        <time>2016-08-29T13:56:40Z</time>
      </trkpt>
      <trkpt lat="45.93119" lon="4.7279">
        <ele>171</ele>
        <time>2016-08-29T13:56:41Z</time>
      </trkpt>
      <trkpt lat="45.93125" lon="4.72785">
        <ele>171</ele>
        <time>2016-08-29T13:56:42Z</time>
      </trkpt>
      <trkpt lat="45.9313" lon="4.72779">
        <ele>171</ele>
        <time>2016-08-29T13:56:43Z</time>
      </trkpt>
      <trkpt lat="45.93135" lon="4.72773">
        <ele>171</ele>
        <time>2016-08-29T13:56:44Z</time>
      </trkpt>
      <trkpt lat="45.9314" lon="4.72767">
        <ele>171</ele>
        <time>2016-08-29T13:56:45Z</time>
      </trkpt>
      <trkpt lat="45.93145" lon="4.72761">
        <ele>171</ele>
        <time>2016-08-29T13:56:46Z</time>
      </trkpt>
      <trkpt lat="45.9315" lon="4.72755">
        <ele>170</ele>
        <time>2016-08-29T13:56:47Z</time>
      </trkpt>
      <trkpt lat="45.93155" lon="4.72748">
        <ele>170</ele>
        <time>2016-08-29T13:56:48Z</time>
      </trkpt>
      <trkpt lat="45.93159" lon="4.72742">
        <ele>170</ele>
        <time>2016-08-29T13:56:49Z</time>
      </trkpt>
      <trkpt lat="45.93164" lon="4.72735">
        <ele>170</ele>
        <time>2016-08-29T13:56:50Z</time>
      </trkpt>
      <trkpt lat="45.93169" lon="4.72729">
        <ele>170</ele>
        <time>2016-08-29T13:56:51Z</time>
      </trkpt>
      <trkpt lat="45.93174" lon="4.72723">
        <ele>170</ele>
        <time>2016-08-29T13:56:52Z</time>
      </trkpt>
      <trkpt lat="45.93179" lon="4.72717">
        <ele>169</ele>
        <time>2016-08-29T13:56:53Z</time>
      </trkpt>
      <trkpt lat="45.93183" lon="4.72711">
        <ele>169</ele>
        <time>2016-08-29T13:56:54Z</time>
      </trkpt>
      <trkpt lat="45.93188" lon="4.72706">
        <ele>169</ele>
        <time>2016-08-29T13:56:55Z</time>
      </trkpt>
      <trkpt lat="45.93193" lon="4.72699">
        <ele>169</ele>
        <time>2016-08-29T13:56:56Z</time>
      </trkpt>
      <trkpt lat="45.93198" lon="4.72694">
        <ele>169</ele>
        <time>2016-08-29T13:56:57Z</time>
      </trkpt>
      <trkpt lat="45.93202" lon="4.72688">
        <ele>169</ele>
        <time>2016-08-29T13:56:58Z</time>
      </trkpt>
      <trkpt lat="45.93207" lon="4.72681">
        <ele>169</ele>
        <time>2016-08-29T13:56:59Z</time>
      </trkpt>
      <trkpt lat="45.93212" lon="4.72675">
        <ele>169</ele>
        <time>2016-08-29T13:57:00Z</time>
      </trkpt>
      <trkpt lat="45.93216" lon="4.7267">
        <ele>169</ele>
        <time>2016-08-29T13:57:01Z</time>
      </trkpt>
      <trkpt lat="45.93221" lon="4.72664">
        <ele>170</ele>
        <time>2016-08-29T13:57:02Z</time>
      </trkpt>
      <trkpt lat="45.93226" lon="4.72657">
        <ele>170</ele>
        <time>2016-08-29T13:57:03Z</time>
      </trkpt>
      <trkpt lat="45.93232" lon="4.72651">
        <ele>170</ele>
        <time>2016-08-29T13:57:04Z</time>
      </trkpt>
      <trkpt lat="45.93238" lon="4.72645">
        <ele>170</ele>
        <time>2016-08-29T13:57:05Z</time>
      </trkpt>
      <trkpt lat="45.93243" lon="4.72639">
        <ele>170</ele>
        <time>2016-08-29T13:57:06Z</time>
      </trkpt>
      <trkpt lat="45.93249" lon="4.72633">
        <ele>170</ele>
        <time>2016-08-29T13:57:07Z</time>
      </trkpt>
      <trkpt lat="45.93254" lon="4.72627">
        <ele>170</ele>
        <time>2016-08-29T13:57:08Z</time>
      </trkpt>
      <trkpt lat="45.93259" lon="4.72621">
        <ele>170</ele>
        <time>2016-08-29T13:57:09Z</time>
      </trkpt>
      <trkpt lat="45.93265" lon="4.72615">
        <ele>170</ele>
        <time>2016-08-29T13:57:10Z</time>
      </trkpt>
      <trkpt lat="45.9327" lon="4.72609">
        <ele>170</ele>
        <time>2016-08-29T13:57:11Z</time>
      </trkpt>
      <trkpt lat="45.93275" lon="4.72603">
        <ele>170</ele>
        <time>2016-08-29T13:57:12Z</time>
      </trkpt>
      <trkpt lat="45.9328" lon="4.72597">
        <ele>170</ele>
        <time>2016-08-29T13:57:13Z</time>
      </trkpt>
      <trkpt lat="45.93286" lon="4.72591">
        <ele>170</ele>
        <time>2016-08-29T13:57:14Z</time>
      </trkpt>
      <trkpt lat="45.93291" lon="4.72585">
        <ele>170</ele>
        <time>2016-08-29T13:57:15Z</time>
      </trkpt>
      <trkpt lat="45.93296" lon="4.72579">
        <ele>171</ele>
        <time>2016-08-29T13:57:16Z</time>
      </trkpt>
      <trkpt lat="45.933" lon="4.72574">
        <ele>171</ele>
        <time>2016-08-29T13:57:17Z</time>
      </trkpt>
      <trkpt lat="45.93304" lon="4.72569">
        <ele>171</ele>
        <time>2016-08-29T13:57:18Z</time>
      </trkpt>
      <trkpt lat="45.93309" lon="4.72563">
        <ele>171</ele>
        <time>2016-08-29T13:57:19Z</time>
      </trkpt>
      <trkpt lat="45.93315" lon="4.72559">
        <ele>171</ele>
        <time>2016-08-29T13:57:20Z</time>
      </trkpt>
      <trkpt lat="45.9332" lon="4.72553">
        <ele>172</ele>
        <time>2016-08-29T13:57:21Z</time>
      </trkpt>
      <trkpt lat="45.93325" lon="4.72549">
        <ele>172</ele>
        <time>2016-08-29T13:57:22Z</time>
      </trkpt>
      <trkpt lat="45.9333" lon="4.72543">
        <ele>172</ele>
        <time>2016-08-29T13:57:23Z</time>
      </trkpt>
      <trkpt lat="45.93334" lon="4.72538">
        <ele>171</ele>
        <time>2016-08-29T13:57:24Z</time>
      </trkpt>
      <trkpt lat="45.93339" lon="4.72532">
        <ele>172</ele>
        <time>2016-08-29T13:57:25Z</time>
      </trkpt>
      <trkpt lat="45.93344" lon="4.72526">
        <ele>172</ele>
        <time>2016-08-29T13:57:26Z</time>
      </trkpt>
      <trkpt lat="45.93349" lon="4.7252">
        <ele>172</ele>
        <time>2016-08-29T13:57:27Z</time>
      </trkpt>
      <trkpt lat="45.93354" lon="4.72514">
        <ele>172</ele>
        <time>2016-08-29T13:57:28Z</time>
      </trkpt>
      <trkpt lat="45.93359" lon="4.72507">
        <ele>172</ele>
        <time>2016-08-29T13:57:29Z</time>
      </trkpt>
      <trkpt lat="45.93364" lon="4.72502">
        <ele>172</ele>
        <time>2016-08-29T13:57:30Z</time>
      </trkpt>
      <trkpt lat="45.9337" lon="4.72495">
        <ele>173</ele>
        <time>2016-08-29T13:57:31Z</time>
      </trkpt>
      <trkpt lat="45.93374" lon="4.72489">
        <ele>173</ele>
        <time>2016-08-29T13:57:32Z</time>
      </trkpt>
      <trkpt lat="45.9338" lon="4.72483">
        <ele>173</ele>
        <time>2016-08-29T13:57:33Z</time>
      </trkpt>
      <trkpt lat="45.93384" lon="4.72477">
        <ele>173</ele>
        <time>2016-08-29T13:57:34Z</time>
      </trkpt>
      <trkpt lat="45.93389" lon="4.7247">
        <ele>173</ele>
        <time>2016-08-29T13:57:35Z</time>
      </trkpt>
      <trkpt lat="45.93393" lon="4.72463">
        <ele>173</ele>
        <time>2016-08-29T13:57:36Z</time>
      </trkpt>
      <trkpt lat="45.93396" lon="4.72454">
        <ele>173</ele>
        <time>2016-08-29T13:57:37Z</time>
      </trkpt>
      <trkpt lat="45.93398" lon="4.72444">
        <ele>173</ele>
        <time>2016-08-29T13:57:38Z</time>
      </trkpt>
      <trkpt lat="45.934" lon="4.72436">
        <ele>173</ele>
        <time>2016-08-29T13:57:39Z</time>
      </trkpt>
      <trkpt lat="45.93403" lon="4.72429">
        <ele>173</ele>
        <time>2016-08-29T13:57:40Z</time>
      </trkpt>
      <trkpt lat="45.93406" lon="4.72422">
        <ele>174</ele>
        <time>2016-08-29T13:57:41Z</time>
      </trkpt>
      <trkpt lat="45.93411" lon="4.72417">
        <ele>174</ele>
        <time>2016-08-29T13:57:42Z</time>
      </trkpt>
      <trkpt lat="45.93416" lon="4.72413">
        <ele>174</ele>
        <time>2016-08-29T13:57:43Z</time>
      </trkpt>
      <trkpt lat="45.93421" lon="4.72409">
        <ele>174</ele>
        <time>2016-08-29T13:57:44Z</time>
      </trkpt>
      <trkpt lat="45.93427" lon="4.72407">
        <ele>174</ele>
        <time>2016-08-29T13:57:45Z</time>
      </trkpt>
      <trkpt lat="45.93433" lon="4.72404">
        <ele>174</ele>
        <time>2016-08-29T13:57:46Z</time>
      </trkpt>
      <trkpt lat="45.93439" lon="4.72401">
        <ele>173</ele>
        <time>2016-08-29T13:57:47Z</time>
      </trkpt>
      <trkpt lat="45.93445" lon="4.72398">
        <ele>173</ele>
        <time>2016-08-29T13:57:48Z</time>
      </trkpt>
      <trkpt lat="45.9345" lon="4.72393">
        <ele>173</ele>
        <time>2016-08-29T13:57:49Z</time>
      </trkpt>
      <trkpt lat="45.93456" lon="4.72388">
        <ele>173</ele>
        <time>2016-08-29T13:57:50Z</time>
      </trkpt>
      <trkpt lat="45.93461" lon="4.72383">
        <ele>173</ele>
        <time>2016-08-29T13:57:51Z</time>
      </trkpt>
      <trkpt lat="45.93466" lon="4.72376">
        <ele>173</ele>
        <time>2016-08-29T13:57:52Z</time>
      </trkpt>
      <trkpt lat="45.93471" lon="4.7237">
        <ele>173</ele>
        <time>2016-08-29T13:57:53Z</time>
      </trkpt>
      <trkpt lat="45.93475" lon="4.72363">
        <ele>173</ele>
        <time>2016-08-29T13:57:54Z</time>
      </trkpt>
      <trkpt lat="45.9348" lon="4.72357">
        <ele>173</ele>
        <time>2016-08-29T13:57:55Z</time>
      </trkpt>
      <trkpt lat="45.93485" lon="4.7235">
        <ele>173</ele>
        <time>2016-08-29T13:57:56Z</time>
      </trkpt>
      <trkpt lat="45.9349" lon="4.72343">
        <ele>173</ele>
        <time>2016-08-29T13:57:57Z</time>
      </trkpt>
      <trkpt lat="45.93495" lon="4.72337">
        <ele>173</ele>
        <time>2016-08-29T13:57:58Z</time>
      </trkpt>
      <trkpt lat="45.93499" lon="4.72331">
        <ele>173</ele>
        <time>2016-08-29T13:57:59Z</time>
      </trkpt>
      <trkpt lat="45.93504" lon="4.72324">
        <ele>173</ele>
        <time>2016-08-29T13:58:00Z</time>
      </trkpt>
      <trkpt lat="45.93509" lon="4.72318">
        <ele>173</ele>
        <time>2016-08-29T13:58:01Z</time>
      </trkpt>
      <trkpt lat="45.93513" lon="4.72311">
        <ele>173</ele>
        <time>2016-08-29T13:58:02Z</time>
      </trkpt>
      <trkpt lat="45.93517" lon="4.72306">
        <ele>173</ele>
        <time>2016-08-29T13:58:03Z</time>
      </trkpt>
      <trkpt lat="45.93521" lon="4.72299">
        <ele>172</ele>
        <time>2016-08-29T13:58:04Z</time>
      </trkpt>
      <trkpt lat="45.93524" lon="4.72292">
        <ele>172</ele>
        <time>2016-08-29T13:58:05Z</time>
      </trkpt>
      <trkpt lat="45.93527" lon="4.72284">
        <ele>172</ele>
        <time>2016-08-29T13:58:06Z</time>
      </trkpt>
      <trkpt lat="45.9353" lon="4.72277">
        <ele>172</ele>
        <time>2016-08-29T13:58:07Z</time>
      </trkpt>
      <trkpt lat="45.93533" lon="4.72271">
        <ele>172</ele>
        <time>2016-08-29T13:58:08Z</time>
      </trkpt>
      <trkpt lat="45.93536" lon="4.72264">
        <ele>172</ele>
        <time>2016-08-29T13:58:09Z</time>
      </trkpt>
      <trkpt lat="45.93539" lon="4.72256">
        <ele>172</ele>
        <time>2016-08-29T13:58:10Z</time>
      </trkpt>
      <trkpt lat="45.93542" lon="4.72249">
        <ele>172</ele>
        <time>2016-08-29T13:58:11Z</time>
      </trkpt>
      <trkpt lat="45.93545" lon="4.72241">
        <ele>172</ele>
        <time>2016-08-29T13:58:12Z</time>
      </trkpt>
      <trkpt lat="45.93548" lon="4.72234">
        <ele>172</ele>
        <time>2016-08-29T13:58:13Z</time>
      </trkpt>
      <trkpt lat="45.93551" lon="4.72227">
        <ele>172</ele>
        <time>2016-08-29T13:58:14Z</time>
      </trkpt>
      <trkpt lat="45.93556" lon="4.72221">
        <ele>173</ele>
        <time>2016-08-29T13:58:15Z</time>
      </trkpt>
      <trkpt lat="45.93561" lon="4.7222">
        <ele>173</ele>
        <time>2016-08-29T13:58:16Z</time>
      </trkpt>
      <trkpt lat="45.93567" lon="4.72222">
        <ele>173</ele>
        <time>2016-08-29T13:58:17Z</time>
      </trkpt>
      <trkpt lat="45.93572" lon="4.72226">
        <ele>173</ele>
        <time>2016-08-29T13:58:18Z</time>
      </trkpt>
      <trkpt lat="45.93576" lon="4.72232">
        <ele>173</ele>
        <time>2016-08-29T13:58:19Z</time>
      </trkpt>
      <trkpt lat="45.9358" lon="4.72238">
        <ele>173</ele>
        <time>2016-08-29T13:58:20Z</time>
      </trkpt>
      <trkpt lat="45.93584" lon="4.72242">
        <ele>173</ele>
        <time>2016-08-29T13:58:21Z</time>
      </trkpt>
      <trkpt lat="45.93589" lon="4.72246">
        <ele>173</ele>
        <time>2016-08-29T13:58:22Z</time>
      </trkpt>
      <trkpt lat="45.93593" lon="4.7225">
        <ele>173</ele>
        <time>2016-08-29T13:58:23Z</time>
      </trkpt>
      <trkpt lat="45.93597" lon="4.72255">
        <ele>173</ele>
        <time>2016-08-29T13:58:24Z</time>
      </trkpt>
      <trkpt lat="45.93602" lon="4.7226">
        <ele>173</ele>
        <time>2016-08-29T13:58:25Z</time>
      </trkpt>
      <trkpt lat="45.93608" lon="4.72268">
        <ele>172</ele>
        <time>2016-08-29T13:58:27Z</time>
      </trkpt>
      <trkpt lat="45.93611" lon="4.72272">
        <ele>172</ele>
        <time>2016-08-29T13:58:28Z</time>
      </trkpt>
      <trkpt lat="45.93616" lon="4.72276">
        <ele>172</ele>
        <time>2016-08-29T13:58:29Z</time>
      </trkpt>
      <trkpt lat="45.93619" lon="4.72279">
        <ele>172</ele>
        <time>2016-08-29T13:58:30Z</time>
      </trkpt>
      <trkpt lat="45.93623" lon="4.72283">
        <ele>172</ele>
        <time>2016-08-29T13:58:31Z</time>
      </trkpt>
      <trkpt lat="45.93628" lon="4.72287">
        <ele>172</ele>
        <time>2016-08-29T13:58:32Z</time>
      </trkpt>
      <trkpt lat="45.93633" lon="4.7229">
        <ele>172</ele>
        <time>2016-08-29T13:58:33Z</time>
      </trkpt>
      <trkpt lat="45.93637" lon="4.72292">
        <ele>172</ele>
        <time>2016-08-29T13:58:34Z</time>
      </trkpt>
      <trkpt lat="45.93642" lon="4.72297">
        <ele>172</ele>
        <time>2016-08-29T13:58:35Z</time>
      </trkpt>
      <trkpt lat="45.93647" lon="4.72302">
        <ele>172</ele>
        <time>2016-08-29T13:58:36Z</time>
      </trkpt>
      <trkpt lat="45.93652" lon="4.72307">
        <ele>172</ele>
        <time>2016-08-29T13:58:37Z</time>
      </trkpt>
      <trkpt lat="45.93658" lon="4.72312">
        <ele>172</ele>
        <time>2016-08-29T13:58:38Z</time>
      </trkpt>
      <trkpt lat="45.93662" lon="4.72316">
        <ele>172</ele>
        <time>2016-08-29T13:58:39Z</time>
      </trkpt>
      <trkpt lat="45.93667" lon="4.72321">
        <ele>171</ele>
        <time>2016-08-29T13:58:40Z</time>
      </trkpt>
      <trkpt lat="45.93672" lon="4.72326">
        <ele>171</ele>
        <time>2016-08-29T13:58:41Z</time>
      </trkpt>
      <trkpt lat="45.93675" lon="4.72331">
        <ele>171</ele>
        <time>2016-08-29T13:58:42Z</time>
      </trkpt>
      <trkpt lat="45.93679" lon="4.72335">
        <ele>171</ele>
        <time>2016-08-29T13:58:43Z</time>
      </trkpt>
      <trkpt lat="45.93682" lon="4.72339">
        <ele>171</ele>
        <time>2016-08-29T13:58:44Z</time>
      </trkpt>
      <trkpt lat="45.93689" lon="4.72347">
        <ele>171</ele>
        <time>2016-08-29T13:58:46Z</time>
      </trkpt>
      <trkpt lat="45.93697" lon="4.72353">
        <ele>171</ele>
        <time>2016-08-29T13:58:47Z</time>
      </trkpt>
      <trkpt lat="45.93703" lon="4.72359">
        <ele>171</ele>
        <time>2016-08-29T13:58:48Z</time>
      </trkpt>
      <trkpt lat="45.93709" lon="4.72365">
        <ele>172</ele>
        <time>2016-08-29T13:58:49Z</time>
      </trkpt>
      <trkpt lat="45.93714" lon="4.72371">
        <ele>172</ele>
        <time>2016-08-29T13:58:50Z</time>
      </trkpt>
      <trkpt lat="45.93724" lon="4.72383">
        <ele>171</ele>
        <time>2016-08-29T13:58:51Z</time>
      </trkpt>
      <trkpt lat="45.93732" lon="4.72392">
        <ele>171</ele>
        <time>2016-08-29T13:58:52Z</time>
      </trkpt>
      <trkpt lat="45.93738" lon="4.72397">
        <ele>171</ele>
        <time>2016-08-29T13:58:53Z</time>
      </trkpt>
      <trkpt lat="45.93744" lon="4.72402">
        <ele>171</ele>
        <time>2016-08-29T13:58:54Z</time>
      </trkpt>
      <trkpt lat="45.93749" lon="4.72407">
        <ele>171</ele>
        <time>2016-08-29T13:58:55Z</time>
      </trkpt>
      <trkpt lat="45.93754" lon="4.7241">
        <ele>171</ele>
        <time>2016-08-29T13:58:56Z</time>
      </trkpt>
      <trkpt lat="45.9376" lon="4.72416">
        <ele>171</ele>
        <time>2016-08-29T13:58:57Z</time>
      </trkpt>
      <trkpt lat="45.93766" lon="4.72421">
        <ele>171</ele>
        <time>2016-08-29T13:58:58Z</time>
      </trkpt>
      <trkpt lat="45.93771" lon="4.72426">
        <ele>171</ele>
        <time>2016-08-29T13:58:59Z</time>
      </trkpt>
      <trkpt lat="45.93776" lon="4.7243">
        <ele>171</ele>
        <time>2016-08-29T13:59:00Z</time>
      </trkpt>
      <trkpt lat="45.93781" lon="4.72435">
        <ele>172</ele>
        <time>2016-08-29T13:59:01Z</time>
      </trkpt>
      <trkpt lat="45.93785" lon="4.72438">
        <ele>172</ele>
        <time>2016-08-29T13:59:02Z</time>
      </trkpt>
      <trkpt lat="45.93789" lon="4.72442">
        <ele>172</ele>
        <time>2016-08-29T13:59:03Z</time>
      </trkpt>
      <trkpt lat="45.93794" lon="4.72447">
        <ele>172</ele>
        <time>2016-08-29T13:59:04Z</time>
      </trkpt>
      <trkpt lat="45.93802" lon="4.72454">
        <ele>172</ele>
        <time>2016-08-29T13:59:06Z</time>
      </trkpt>
      <trkpt lat="45.93805" lon="4.72457">
        <ele>172</ele>
        <time>2016-08-29T13:59:07Z</time>
      </trkpt>
      <trkpt lat="45.9381" lon="4.72462">
        <ele>172</ele>
        <time>2016-08-29T13:59:08Z</time>
      </trkpt>
      <trkpt lat="45.93814" lon="4.72467">
        <ele>172</ele>
        <time>2016-08-29T13:59:09Z</time>
      </trkpt>
      <trkpt lat="45.93818" lon="4.72471">
        <ele>172</ele>
        <time>2016-08-29T13:59:10Z</time>
      </trkpt>
      <trkpt lat="45.93822" lon="4.72475">
        <ele>172</ele>
        <time>2016-08-29T13:59:11Z</time>
      </trkpt>
      <trkpt lat="45.93829" lon="4.7248">
        <ele>173</ele>
        <time>2016-08-29T13:59:13Z</time>
      </trkpt>
      <trkpt lat="45.93833" lon="4.72482">
        <ele>173</ele>
        <time>2016-08-29T13:59:14Z</time>
      </trkpt>
      <trkpt lat="45.9384" lon="4.72483">
        <ele>173</ele>
        <time>2016-08-29T13:59:16Z</time>
      </trkpt>
      <trkpt lat="45.93844" lon="4.72492">
        <ele>173</ele>
        <time>2016-08-29T13:59:17Z</time>
      </trkpt>
      <trkpt lat="45.93852" lon="4.72503">
        <ele>173</ele>
        <time>2016-08-29T13:59:18Z</time>
      </trkpt>
      <trkpt lat="45.93858" lon="4.72508">
        <ele>173</ele>
        <time>2016-08-29T13:59:19Z</time>
      </trkpt>
      <trkpt lat="45.93864" lon="4.72511">
        <ele>173</ele>
        <time>2016-08-29T13:59:20Z</time>
      </trkpt>
      <trkpt lat="45.93872" lon="4.7251">
        <ele>173</ele>
        <time>2016-08-29T13:59:21Z</time>
      </trkpt>
      <trkpt lat="45.9388" lon="4.72509">
        <ele>173</ele>
        <time>2016-08-29T13:59:22Z</time>
      </trkpt>
      <trkpt lat="45.93885" lon="4.72507">
        <ele>173</ele>
        <time>2016-08-29T13:59:23Z</time>
      </trkpt>
      <trkpt lat="45.9389" lon="4.72502">
        <ele>173</ele>
        <time>2016-08-29T13:59:24Z</time>
      </trkpt>
      <trkpt lat="45.93895" lon="4.72497">
        <ele>172</ele>
        <time>2016-08-29T13:59:25Z</time>
      </trkpt>
      <trkpt lat="45.93899" lon="4.72492">
        <ele>172</ele>
        <time>2016-08-29T13:59:26Z</time>
      </trkpt>
      <trkpt lat="45.93904" lon="4.72487">
        <ele>172</ele>
        <time>2016-08-29T13:59:27Z</time>
      </trkpt>
      <trkpt lat="45.93909" lon="4.72481">
        <ele>172</ele>
        <time>2016-08-29T13:59:28Z</time>
      </trkpt>
      <trkpt lat="45.93913" lon="4.72475">
        <ele>172</ele>
        <time>2016-08-29T13:59:29Z</time>
      </trkpt>
      <trkpt lat="45.93918" lon="4.72469">
        <ele>171</ele>
        <time>2016-08-29T13:59:30Z</time>
      </trkpt>
      <trkpt lat="45.93923" lon="4.72463">
        <ele>171</ele>
        <time>2016-08-29T13:59:31Z</time>
      </trkpt>
      <trkpt lat="45.93928" lon="4.72455">
        <ele>171</ele>
        <time>2016-08-29T13:59:32Z</time>
      </trkpt>
      <trkpt lat="45.93933" lon="4.72449">
        <ele>171</ele>
        <time>2016-08-29T13:59:33Z</time>
      </trkpt>
      <trkpt lat="45.93938" lon="4.72442">
        <ele>171</ele>
        <time>2016-08-29T13:59:34Z</time>
      </trkpt>
      <trkpt lat="45.93943" lon="4.72435">
        <ele>171</ele>
        <time>2016-08-29T13:59:35Z</time>
      </trkpt>
      <trkpt lat="45.93948" lon="4.72428">
        <ele>171</ele>
        <time>2016-08-29T13:59:36Z</time>
      </trkpt>
      <trkpt lat="45.93954" lon="4.72422">
        <ele>171</ele>
        <time>2016-08-29T13:59:37Z</time>
      </trkpt>
      <trkpt lat="45.93959" lon="4.72416">
        <ele>171</ele>
        <time>2016-08-29T13:59:38Z</time>
      </trkpt>
      <trkpt lat="45.93965" lon="4.72409">
        <ele>171</ele>
        <time>2016-08-29T13:59:39Z</time>
      </trkpt>
      <trkpt lat="45.93971" lon="4.72402">
        <ele>171</ele>
        <time>2016-08-29T13:59:40Z</time>
      </trkpt>
      <trkpt lat="45.93977" lon="4.72395">
        <ele>171</ele>
        <time>2016-08-29T13:59:41Z</time>
      </trkpt>
      <trkpt lat="45.93982" lon="4.72389">
        <ele>171</ele>
        <time>2016-08-29T13:59:42Z</time>
      </trkpt>
      <trkpt lat="45.93988" lon="4.72383">
        <ele>171</ele>
        <time>2016-08-29T13:59:43Z</time>
      </trkpt>
      <trkpt lat="45.93993" lon="4.72376">
        <ele>171</ele>
        <time>2016-08-29T13:59:44Z</time>
      </trkpt>
      <trkpt lat="45.93998" lon="4.7237">
        <ele>171</ele>
        <time>2016-08-29T13:59:45Z</time>
      </trkpt>
      <trkpt lat="45.94003" lon="4.72364">
        <ele>171</ele>
        <time>2016-08-29T13:59:46Z</time>
      </trkpt>
      <trkpt lat="45.94008" lon="4.72357">
        <ele>171</ele>
        <time>2016-08-29T13:59:47Z</time>
      </trkpt>
      <trkpt lat="45.94013" lon="4.72351">
        <ele>171</ele>
        <time>2016-08-29T13:59:48Z</time>
      </trkpt>
      <trkpt lat="45.94018" lon="4.72345">
        <ele>171</ele>
        <time>2016-08-29T13:59:49Z</time>
      </trkpt>
      <trkpt lat="45.94023" lon="4.72339">
        <ele>171</ele>
        <time>2016-08-29T13:59:50Z</time>
      </trkpt>
      <trkpt lat="45.94027" lon="4.72333">
        <ele>171</ele>
        <time>2016-08-29T13:59:51Z</time>
      </trkpt>
      <trkpt lat="45.9403" lon="4.72328">
        <ele>171</ele>
        <time>2016-08-29T13:59:52Z</time>
      </trkpt>
      <trkpt lat="45.94034" lon="4.72322">
        <ele>171</ele>
        <time>2016-08-29T13:59:53Z</time>
      </trkpt>
      <trkpt lat="45.94039" lon="4.72316">
        <ele>171</ele>
        <time>2016-08-29T13:59:54Z</time>
      </trkpt>
      <trkpt lat="45.94043" lon="4.7231">
        <ele>171</ele>
        <time>2016-08-29T13:59:55Z</time>
      </trkpt>
      <trkpt lat="45.94048" lon="4.72304">
        <ele>171</ele>
        <time>2016-08-29T13:59:56Z</time>
      </trkpt>
      <trkpt lat="45.94052" lon="4.72299">
        <ele>171</ele>
        <time>2016-08-29T13:59:57Z</time>
      </trkpt>
      <trkpt lat="45.94057" lon="4.72293">
        <ele>171</ele>
        <time>2016-08-29T13:59:58Z</time>
      </trkpt>
      <trkpt lat="45.94061" lon="4.72288">
        <ele>171</ele>
        <time>2016-08-29T13:59:59Z</time>
      </trkpt>
      <trkpt lat="45.94067" lon="4.72282">
        <ele>171</ele>
        <time>2016-08-29T14:00:00Z</time>
      </trkpt>
      <trkpt lat="45.94071" lon="4.72276">
        <ele>171</ele>
        <time>2016-08-29T14:00:01Z</time>
      </trkpt>
      <trkpt lat="45.94076" lon="4.72271">
        <ele>171</ele>
        <time>2016-08-29T14:00:02Z</time>
      </trkpt>
      <trkpt lat="45.94082" lon="4.72267">
        <ele>171</ele>
        <time>2016-08-29T14:00:03Z</time>
      </trkpt>
      <trkpt lat="45.94087" lon="4.72265">
        <ele>171</ele>
        <time>2016-08-29T14:00:04Z</time>
      </trkpt>
      <trkpt lat="45.94092" lon="4.72263">
        <ele>171</ele>
        <time>2016-08-29T14:00:05Z</time>
      </trkpt>
      <trkpt lat="45.94099" lon="4.72263">
        <ele>171</ele>
        <time>2016-08-29T14:00:06Z</time>
      </trkpt>
      <trkpt lat="45.94105" lon="4.72263">
        <ele>171</ele>
        <time>2016-08-29T14:00:07Z</time>
      </trkpt>
      <trkpt lat="45.94111" lon="4.72265">
        <ele>171</ele>
        <time>2016-08-29T14:00:08Z</time>
      </trkpt>
      <trkpt lat="45.94117" lon="4.72267">
        <ele>171</ele>
        <time>2016-08-29T14:00:09Z</time>
      </trkpt>
      <trkpt lat="45.94123" lon="4.72271">
        <ele>171</ele>
        <time>2016-08-29T14:00:10Z</time>
      </trkpt>
      <trkpt lat="45.94129" lon="4.72273">
        <ele>171</ele>
        <time>2016-08-29T14:00:11Z</time>
      </trkpt>
      <trkpt lat="45.94135" lon="4.72276">
        <ele>171</ele>
        <time>2016-08-29T14:00:12Z</time>
      </trkpt>
      <trkpt lat="45.94141" lon="4.72279">
        <ele>171</ele>
        <time>2016-08-29T14:00:13Z</time>
      </trkpt>
      <trkpt lat="45.94147" lon="4.72281">
        <ele>171</ele>
        <time>2016-08-29T14:00:14Z</time>
      </trkpt>
      <trkpt lat="45.94153" lon="4.72283">
        <ele>171</ele>
        <time>2016-08-29T14:00:15Z</time>
      </trkpt>
      <trkpt lat="45.94158" lon="4.72284">
        <ele>171</ele>
        <time>2016-08-29T14:00:16Z</time>
      </trkpt>
      <trkpt lat="45.94164" lon="4.72285">
        <ele>171</ele>
        <time>2016-08-29T14:00:17Z</time>
      </trkpt>
      <trkpt lat="45.9417" lon="4.72285">
        <ele>171</ele>
        <time>2016-08-29T14:00:18Z</time>
      </trkpt>
      <trkpt lat="45.94176" lon="4.72286">
        <ele>171</ele>
        <time>2016-08-29T14:00:19Z</time>
      </trkpt>
      <trkpt lat="45.94182" lon="4.72286">
        <ele>171</ele>
        <time>2016-08-29T14:00:20Z</time>
      </trkpt>
      <trkpt lat="45.94188" lon="4.72286">
        <ele>171</ele>
        <time>2016-08-29T14:00:21Z</time>
      </trkpt>
      <trkpt lat="45.94194" lon="4.72287">
        <ele>171</ele>
        <time>2016-08-29T14:00:22Z</time>
      </trkpt>
      <trkpt lat="45.942" lon="4.72286">
        <ele>171</ele>
        <time>2016-08-29T14:00:23Z</time>
      </trkpt>
      <trkpt lat="45.94206" lon="4.72286">
        <ele>171</ele>
        <time>2016-08-29T14:00:24Z</time>
      </trkpt>
      <trkpt lat="45.94211" lon="4.72286">
        <ele>171</ele>
        <time>2016-08-29T14:00:25Z</time>
      </trkpt>
      <trkpt lat="45.94217" lon="4.72286">
        <ele>171</ele>
        <time>2016-08-29T14:00:26Z</time>
      </trkpt>
      <trkpt lat="45.94221" lon="4.72284">
        <ele>171</ele>
        <time>2016-08-29T14:00:27Z</time>
      </trkpt>
      <trkpt lat="45.94227" lon="4.72284">
        <ele>171</ele>
        <time>2016-08-29T14:00:28Z</time>
      </trkpt>
      <trkpt lat="45.94232" lon="4.72282">
        <ele>171</ele>
        <time>2016-08-29T14:00:29Z</time>
      </trkpt>
      <trkpt lat="45.94237" lon="4.7228">
        <ele>171</ele>
        <time>2016-08-29T14:00:30Z</time>
      </trkpt>
      <trkpt lat="45.94241" lon="4.72278">
        <ele>171</ele>
        <time>2016-08-29T14:00:31Z</time>
      </trkpt>
      <trkpt lat="45.94247" lon="4.72276">
        <ele>171</ele>
        <time>2016-08-29T14:00:32Z</time>
      </trkpt>
      <trkpt lat="45.94251" lon="4.72274">
        <ele>171</ele>
        <time>2016-08-29T14:00:33Z</time>
      </trkpt>
      <trkpt lat="45.94256" lon="4.72272">
        <ele>171</ele>
        <time>2016-08-29T14:00:34Z</time>
      </trkpt>
      <trkpt lat="45.94261" lon="4.72271">
        <ele>171</ele>
        <time>2016-08-29T14:00:35Z</time>
      </trkpt>
      <trkpt lat="45.94265" lon="4.7227">
        <ele>171</ele>
        <time>2016-08-29T14:00:36Z</time>
      </trkpt>
      <trkpt lat="45.94273" lon="4.72273">
        <ele>171</ele>
        <time>2016-08-29T14:00:38Z</time>
      </trkpt>
      <trkpt lat="45.94277" lon="4.72276">
        <ele>171</ele>
        <time>2016-08-29T14:00:39Z</time>
      </trkpt>
      <trkpt lat="45.94279" lon="4.72282">
        <ele>171</ele>
        <time>2016-08-29T14:00:40Z</time>
      </trkpt>
      <trkpt lat="45.94281" lon="4.72288">
        <ele>171</ele>
        <time>2016-08-29T14:00:41Z</time>
      </trkpt>
      <trkpt lat="45.94284" lon="4.72295">
        <ele>171</ele>
        <time>2016-08-29T14:00:42Z</time>
      </trkpt>
      <trkpt lat="45.94287" lon="4.72302">
        <ele>171</ele>
        <time>2016-08-29T14:00:43Z</time>
      </trkpt>
      <trkpt lat="45.9429" lon="4.72309">
        <ele>171</ele>
        <time>2016-08-29T14:00:44Z</time>
      </trkpt>
      <trkpt lat="45.94293" lon="4.72316">
        <ele>171</ele>
        <time>2016-08-29T14:00:45Z</time>
      </trkpt>
      <trkpt lat="45.94296" lon="4.72322">
        <ele>171</ele>
        <time>2016-08-29T14:00:46Z</time>
      </trkpt>
      <trkpt lat="45.94299" lon="4.72329">
        <ele>171</ele>
        <time>2016-08-29T14:00:47Z</time>
      </trkpt>
      <trkpt lat="45.94302" lon="4.72336">
        <ele>172</ele>
        <time>2016-08-29T14:00:48Z</time>
      </trkpt>
      <trkpt lat="45.94305" lon="4.72343">
        <ele>172</ele>
        <time>2016-08-29T14:00:49Z</time>
      </trkpt>
      <trkpt lat="45.94308" lon="4.72349">
        <ele>172</ele>
        <time>2016-08-29T14:00:50Z</time>
      </trkpt>
      <trkpt lat="45.94311" lon="4.72356">
        <ele>172</ele>
        <time>2016-08-29T14:00:51Z</time>
      </trkpt>
      <trkpt lat="45.94314" lon="4.72362">
        <ele>172</ele>
        <time>2016-08-29T14:00:52Z</time>
      </trkpt>
      <trkpt lat="45.94317" lon="4.72369">
        <ele>172</ele>
        <time>2016-08-29T14:00:53Z</time>
      </trkpt>
      <trkpt lat="45.9432" lon="4.72375">
        <ele>172</ele>
        <time>2016-08-29T14:00:54Z</time>
      </trkpt>
      <trkpt lat="45.94322" lon="4.72381">
        <ele>172</ele>
        <time>2016-08-29T14:00:55Z</time>
      </trkpt>
      <trkpt lat="45.94324" lon="4.72388">
        <ele>172</ele>
        <time>2016-08-29T14:00:56Z</time>
      </trkpt>
      <trkpt lat="45.94325" lon="4.72394">
        <ele>172</ele>
        <time>2016-08-29T14:00:57Z</time>
      </trkpt>
      <trkpt lat="45.94327" lon="4.72402">
        <ele>173</ele>
        <time>2016-08-29T14:00:58Z</time>
      </trkpt>
      <trkpt lat="45.94329" lon="4.72409">
        <ele>173</ele>
        <time>2016-08-29T14:00:59Z</time>
      </trkpt>
      <trkpt lat="45.94333" lon="4.72417">
        <ele>173</ele>
        <time>2016-08-29T14:01:00Z</time>
      </trkpt>
      <trkpt lat="45.94337" lon="4.72424">
        <ele>173</ele>
        <time>2016-08-29T14:01:01Z</time>
      </trkpt>
      <trkpt lat="45.9434" lon="4.7243">
        <ele>173</ele>
        <time>2016-08-29T14:01:02Z</time>
      </trkpt>
      <trkpt lat="45.94344" lon="4.72437">
        <ele>173</ele>
        <time>2016-08-29T14:01:03Z</time>
      </trkpt>
      <trkpt lat="45.94347" lon="4.72444">
        <ele>173</ele>
        <time>2016-08-29T14:01:04Z</time>
      </trkpt>
      <trkpt lat="45.9435" lon="4.72451">
        <ele>173</ele>
        <time>2016-08-29T14:01:05Z</time>
      </trkpt>
      <trkpt lat="45.94353" lon="4.72458">
        <ele>173</ele>
        <time>2016-08-29T14:01:06Z</time>
      </trkpt>
      <trkpt lat="45.94356" lon="4.72465">
        <ele>173</ele>
        <time>2016-08-29T14:01:07Z</time>
      </trkpt>
      <trkpt lat="45.9436" lon="4.72472">
        <ele>173</ele>
        <time>2016-08-29T14:01:08Z</time>
      </trkpt>
      <trkpt lat="45.94363" lon="4.72479">
        <ele>173</ele>
        <time>2016-08-29T14:01:09Z</time>
      </trkpt>
      <trkpt lat="45.94366" lon="4.72486">
        <ele>173</ele>
        <time>2016-08-29T14:01:10Z</time>
      </trkpt>
      <trkpt lat="45.94369" lon="4.72493">
        <ele>173</ele>
        <time>2016-08-29T14:01:11Z</time>
      </trkpt>
      <trkpt lat="45.94372" lon="4.72499">
        <ele>173</ele>
        <time>2016-08-29T14:01:12Z</time>
      </trkpt>
      <trkpt lat="45.94374" lon="4.72507">
        <ele>173</ele>
        <time>2016-08-29T14:01:13Z</time>
      </trkpt>
      <trkpt lat="45.94377" lon="4.72515">
        <ele>174</ele>
        <time>2016-08-29T14:01:14Z</time>
      </trkpt>
      <trkpt lat="45.9438" lon="4.72524">
        <ele>174</ele>
        <time>2016-08-29T14:01:15Z</time>
      </trkpt>
      <trkpt lat="45.94382" lon="4.72532">
        <ele>174</ele>
        <time>2016-08-29T14:01:16Z</time>
      </trkpt>
      <trkpt lat="45.94384" lon="4.7254">
        <ele>174</ele>
        <time>2016-08-29T14:01:17Z</time>
      </trkpt>
      <trkpt lat="45.94386" lon="4.72548">
        <ele>173</ele>
        <time>2016-08-29T14:01:18Z</time>
      </trkpt>
      <trkpt lat="45.94388" lon="4.72556">
        <ele>173</ele>
        <time>2016-08-29T14:01:19Z</time>
      </trkpt>
      <trkpt lat="45.94389" lon="4.72564">
        <ele>173</ele>
        <time>2016-08-29T14:01:20Z</time>
      </trkpt>
      <trkpt lat="45.94391" lon="4.72572">
        <ele>173</ele>
        <time>2016-08-29T14:01:21Z</time>
      </trkpt>
      <trkpt lat="45.94392" lon="4.7258">
        <ele>173</ele>
        <time>2016-08-29T14:01:22Z</time>
      </trkpt>
      <trkpt lat="45.94393" lon="4.72588">
        <ele>173</ele>
        <time>2016-08-29T14:01:23Z</time>
      </trkpt>
      <trkpt lat="45.94394" lon="4.72595">
        <ele>173</ele>
        <time>2016-08-29T14:01:24Z</time>
      </trkpt>
      <trkpt lat="45.94395" lon="4.72603">
        <ele>173</ele>
        <time>2016-08-29T14:01:25Z</time>
      </trkpt>
      <trkpt lat="45.94395" lon="4.72611">
        <ele>173</ele>
        <time>2016-08-29T14:01:26Z</time>
      </trkpt>
      <trkpt lat="45.94395" lon="4.72617">
        <ele>173</ele>
        <time>2016-08-29T14:01:27Z</time>
      </trkpt>
      <trkpt lat="45.94396" lon="4.72625">
        <ele>174</ele>
        <time>2016-08-29T14:01:28Z</time>
      </trkpt>
      <trkpt lat="45.94397" lon="4.72634">
        <ele>174</ele>
        <time>2016-08-29T14:01:29Z</time>
      </trkpt>
      <trkpt lat="45.94399" lon="4.72642">
        <ele>174</ele>
        <time>2016-08-29T14:01:30Z</time>
      </trkpt>
      <trkpt lat="45.944" lon="4.7265">
        <ele>174</ele>
        <time>2016-08-29T14:01:31Z</time>
      </trkpt>
      <trkpt lat="45.94401" lon="4.72658">
        <ele>174</ele>
        <time>2016-08-29T14:01:32Z</time>
      </trkpt>
      <trkpt lat="45.94401" lon="4.72667">
        <ele>174</ele>
        <time>2016-08-29T14:01:33Z</time>
      </trkpt>
      <trkpt lat="45.94402" lon="4.72675">
        <ele>173</ele>
        <time>2016-08-29T14:01:34Z</time>
      </trkpt>
      <trkpt lat="45.94403" lon="4.72683">
        <ele>173</ele>
        <time>2016-08-29T14:01:35Z</time>
      </trkpt>
      <trkpt lat="45.94404" lon="4.72691">
        <ele>173</ele>
        <time>2016-08-29T14:01:36Z</time>
      </trkpt>
      <trkpt lat="45.94405" lon="4.72699">
        <ele>172</ele>
        <time>2016-08-29T14:01:37Z</time>
      </trkpt>
      <trkpt lat="45.94407" lon="4.72707">
        <ele>172</ele>
        <time>2016-08-29T14:01:38Z</time>
      </trkpt>
      <trkpt lat="45.94408" lon="4.72715">
        <ele>172</ele>
        <time>2016-08-29T14:01:39Z</time>
      </trkpt>
      <trkpt lat="45.94408" lon="4.72723">
        <ele>172</ele>
        <time>2016-08-29T14:01:40Z</time>
      </trkpt>
      <trkpt lat="45.94409" lon="4.72731">
        <ele>172</ele>
        <time>2016-08-29T14:01:41Z</time>
      </trkpt>
      <trkpt lat="45.9441" lon="4.72738">
        <ele>171</ele>
        <time>2016-08-29T14:01:42Z</time>
      </trkpt>
      <trkpt lat="45.94411" lon="4.72746">
        <ele>171</ele>
        <time>2016-08-29T14:01:43Z</time>
      </trkpt>
      <trkpt lat="45.94413" lon="4.72754">
        <ele>170</ele>
        <time>2016-08-29T14:01:44Z</time>
      </trkpt>
      <trkpt lat="45.94414" lon="4.72762">
        <ele>170</ele>
        <time>2016-08-29T14:01:45Z</time>
      </trkpt>
      <trkpt lat="45.94415" lon="4.72769">
        <ele>169</ele>
        <time>2016-08-29T14:01:46Z</time>
      </trkpt>
      <trkpt lat="45.94416" lon="4.72777">
        <ele>169</ele>
        <time>2016-08-29T14:01:47Z</time>
      </trkpt>
      <trkpt lat="45.94417" lon="4.72784">
        <ele>168</ele>
        <time>2016-08-29T14:01:48Z</time>
      </trkpt>
      <trkpt lat="45.94419" lon="4.7279">
        <ele>168</ele>
        <time>2016-08-29T14:01:49Z</time>
      </trkpt>
      <trkpt lat="45.9442" lon="4.72797">
        <ele>167</ele>
        <time>2016-08-29T14:01:50Z</time>
      </trkpt>
      <trkpt lat="45.94421" lon="4.72804">
        <ele>167</ele>
        <time>2016-08-29T14:01:51Z</time>
      </trkpt>
      <trkpt lat="45.94422" lon="4.72811">
        <ele>167</ele>
        <time>2016-08-29T14:01:52Z</time>
      </trkpt>
      <trkpt lat="45.94423" lon="4.72818">
        <ele>167</ele>
        <time>2016-08-29T14:01:53Z</time>
      </trkpt>
      <trkpt lat="45.94424" lon="4.72824">
        <ele>167</ele>
        <time>2016-08-29T14:01:54Z</time>
      </trkpt>
      <trkpt lat="45.94425" lon="4.72831">
        <ele>166</ele>
        <time>2016-08-29T14:01:55Z</time>
      </trkpt>
      <trkpt lat="45.94426" lon="4.72837">
        <ele>166</ele>
        <time>2016-08-29T14:01:56Z</time>
      </trkpt>
      <trkpt lat="45.94427" lon="4.72843">
        <ele>166</ele>
        <time>2016-08-29T14:01:57Z</time>
      </trkpt>
      <trkpt lat="45.94429" lon="4.72856">
        <ele>166</ele>
        <time>2016-08-29T14:01:59Z</time>
      </trkpt>
      <trkpt lat="45.9443" lon="4.72862">
        <ele>166</ele>
        <time>2016-08-29T14:02:00Z</time>
      </trkpt>
      <trkpt lat="45.94431" lon="4.72875">
        <ele>166</ele>
        <time>2016-08-29T14:02:02Z</time>
      </trkpt>
      <trkpt lat="45.94432" lon="4.7288">
        <ele>166</ele>
        <time>2016-08-29T14:02:03Z</time>
      </trkpt>
      <trkpt lat="45.94434" lon="4.72892">
        <ele>166</ele>
        <time>2016-08-29T14:02:05Z</time>
      </trkpt>
      <trkpt lat="45.94435" lon="4.72899">
        <ele>166</ele>
        <time>2016-08-29T14:02:06Z</time>
      </trkpt>
      <trkpt lat="45.94436" lon="4.72906">
        <ele>166</ele>
        <time>2016-08-29T14:02:07Z</time>
      </trkpt>
      <trkpt lat="45.94437" lon="4.72913">
        <ele>166</ele>
        <time>2016-08-29T14:02:08Z</time>
      </trkpt>
      <trkpt lat="45.94438" lon="4.7292">
        <ele>167</ele>
        <time>2016-08-29T14:02:09Z</time>
      </trkpt>
      <trkpt lat="45.94438" lon="4.72928">
        <ele>167</ele>
        <time>2016-08-29T14:02:10Z</time>
      </trkpt>
      <trkpt lat="45.94439" lon="4.72936">
        <ele>167</ele>
        <time>2016-08-29T14:02:11Z</time>
      </trkpt>
      <trkpt lat="45.94441" lon="4.72944">
        <ele>167</ele>
        <time>2016-08-29T14:02:12Z</time>
      </trkpt>
      <trkpt lat="45.94442" lon="4.72953">
        <ele>167</ele>
        <time>2016-08-29T14:02:13Z</time>
      </trkpt>
      <trkpt lat="45.94443" lon="4.72962">
        <ele>167</ele>
        <time>2016-08-29T14:02:14Z</time>
      </trkpt>
      <trkpt lat="45.94444" lon="4.72971">
        <ele>167</ele>
        <time>2016-08-29T14:02:15Z</time>
      </trkpt>
      <trkpt lat="45.94445" lon="4.7298">
        <ele>167</ele>
        <time>2016-08-29T14:02:16Z</time>
      </trkpt>
      <trkpt lat="45.94446" lon="4.7299">
        <ele>167</ele>
        <time>2016-08-29T14:02:17Z</time>
      </trkpt>
      <trkpt lat="45.94447" lon="4.73">
        <ele>169</ele>
        <time>2016-08-29T14:02:18Z</time>
      </trkpt>
      <trkpt lat="45.94449" lon="4.7301">
        <ele>169</ele>
        <time>2016-08-29T14:02:19Z</time>
      </trkpt>
      <trkpt lat="45.9445" lon="4.7302">
        <ele>169</ele>
        <time>2016-08-29T14:02:20Z</time>
      </trkpt>
      <trkpt lat="45.94451" lon="4.73031">
        <ele>169</ele>
        <time>2016-08-29T14:02:21Z</time>
      </trkpt>
      <trkpt lat="45.94453" lon="4.73041">
        <ele>169</ele>
        <time>2016-08-29T14:02:22Z</time>
      </trkpt>
      <trkpt lat="45.94454" lon="4.73052">
        <ele>170</ele>
        <time>2016-08-29T14:02:23Z</time>
      </trkpt>
      <trkpt lat="45.94455" lon="4.73063">
        <ele>170</ele>
        <time>2016-08-29T14:02:24Z</time>
      </trkpt>
      <trkpt lat="45.94456" lon="4.73074">
        <ele>170</ele>
        <time>2016-08-29T14:02:25Z</time>
      </trkpt>
      <trkpt lat="45.94458" lon="4.73085">
        <ele>171</ele>
        <time>2016-08-29T14:02:26Z</time>
      </trkpt>
      <trkpt lat="45.94459" lon="4.73095">
        <ele>171</ele>
        <time>2016-08-29T14:02:27Z</time>
      </trkpt>
      <trkpt lat="45.94459" lon="4.73104">
        <ele>171</ele>
        <time>2016-08-29T14:02:28Z</time>
      </trkpt>
      <trkpt lat="45.94461" lon="4.73114">
        <ele>172</ele>
        <time>2016-08-29T14:02:29Z</time>
      </trkpt>
      <trkpt lat="45.94462" lon="4.73124">
        <ele>172</ele>
        <time>2016-08-29T14:02:30Z</time>
      </trkpt>
      <trkpt lat="45.94464" lon="4.73134">
        <ele>172</ele>
        <time>2016-08-29T14:02:31Z</time>
      </trkpt>
      <trkpt lat="45.94466" lon="4.73144">
        <ele>172</ele>
        <time>2016-08-29T14:02:32Z</time>
      </trkpt>
      <trkpt lat="45.94467" lon="4.73153">
        <ele>172</ele>
        <time>2016-08-29T14:02:33Z</time>
      </trkpt>
      <trkpt lat="45.94468" lon="4.73162">
        <ele>172</ele>
        <time>2016-08-29T14:02:34Z</time>
      </trkpt>
      <trkpt lat="45.94469" lon="4.7317">
        <ele>174</ele>
        <time>2016-08-29T14:02:35Z</time>
      </trkpt>
      <trkpt lat="45.9447" lon="4.73179">
        <ele>174</ele>
        <time>2016-08-29T14:02:36Z</time>
      </trkpt>
      <trkpt lat="45.9447" lon="4.73187">
        <ele>174</ele>
        <time>2016-08-29T14:02:37Z</time>
      </trkpt>
      <trkpt lat="45.94471" lon="4.73196">
        <ele>174</ele>
        <time>2016-08-29T14:02:38Z</time>
      </trkpt>
      <trkpt lat="45.94472" lon="4.73204">
        <ele>175</ele>
        <time>2016-08-29T14:02:39Z</time>
      </trkpt>
      <trkpt lat="45.94473" lon="4.73212">
        <ele>175</ele>
        <time>2016-08-29T14:02:40Z</time>
      </trkpt>
      <trkpt lat="45.94474" lon="4.7322">
        <ele>175</ele>
        <time>2016-08-29T14:02:41Z</time>
      </trkpt>
      <trkpt lat="45.94476" lon="4.73228">
        <ele>175</ele>
        <time>2016-08-29T14:02:42Z</time>
      </trkpt>
      <trkpt lat="45.94478" lon="4.73235">
        <ele>175</ele>
        <time>2016-08-29T14:02:43Z</time>
      </trkpt>
      <trkpt lat="45.94479" lon="4.73243">
        <ele>175</ele>
        <time>2016-08-29T14:02:44Z</time>
      </trkpt>
      <trkpt lat="45.94481" lon="4.73251">
        <ele>176</ele>
        <time>2016-08-29T14:02:45Z</time>
      </trkpt>
      <trkpt lat="45.94482" lon="4.73259">
        <ele>176</ele>
        <time>2016-08-29T14:02:46Z</time>
      </trkpt>
      <trkpt lat="45.94484" lon="4.73266">
        <ele>177</ele>
        <time>2016-08-29T14:02:47Z</time>
      </trkpt>
      <trkpt lat="45.94485" lon="4.73273">
        <ele>177</ele>
        <time>2016-08-29T14:02:48Z</time>
      </trkpt>
      <trkpt lat="45.94486" lon="4.73281">
        <ele>177</ele>
        <time>2016-08-29T14:02:49Z</time>
      </trkpt>
      <trkpt lat="45.94487" lon="4.73288">
        <ele>177</ele>
        <time>2016-08-29T14:02:50Z</time>
      </trkpt>
      <trkpt lat="45.94488" lon="4.73295">
        <ele>177</ele>
        <time>2016-08-29T14:02:51Z</time>
      </trkpt>
      <trkpt lat="45.94489" lon="4.73302">
        <ele>177</ele>
        <time>2016-08-29T14:02:52Z</time>
      </trkpt>
      <trkpt lat="45.94489" lon="4.73309">
        <ele>177</ele>
        <time>2016-08-29T14:02:53Z</time>
      </trkpt>
      <trkpt lat="45.9449" lon="4.73316">
        <ele>177</ele>
        <time>2016-08-29T14:02:54Z</time>
      </trkpt>
      <trkpt lat="45.9449" lon="4.73323">
        <ele>177</ele>
        <time>2016-08-29T14:02:55Z</time>
      </trkpt>
      <trkpt lat="45.94491" lon="4.73329">
        <ele>177</ele>
        <time>2016-08-29T14:02:56Z</time>
      </trkpt>
      <trkpt lat="45.94491" lon="4.73336">
        <ele>178</ele>
        <time>2016-08-29T14:02:57Z</time>
      </trkpt>
      <trkpt lat="45.94492" lon="4.73342">
        <ele>178</ele>
        <time>2016-08-29T14:02:58Z</time>
      </trkpt>
      <trkpt lat="45.94492" lon="4.73354">
        <ele>178</ele>
        <time>2016-08-29T14:03:00Z</time>
      </trkpt>
      <trkpt lat="45.94493" lon="4.7336">
        <ele>179</ele>
        <time>2016-08-29T14:03:01Z</time>
      </trkpt>
      <trkpt lat="45.94495" lon="4.73371">
        <ele>179</ele>
        <time>2016-08-29T14:03:03Z</time>
      </trkpt>
      <trkpt lat="45.94495" lon="4.73378">
        <ele>179</ele>
        <time>2016-08-29T14:03:04Z</time>
      </trkpt>
      <trkpt lat="45.94495" lon="4.73389">
        <ele>179</ele>
        <time>2016-08-29T14:03:06Z</time>
      </trkpt>
      <trkpt lat="45.94496" lon="4.73394">
        <ele>179</ele>
        <time>2016-08-29T14:03:07Z</time>
      </trkpt>
      <trkpt lat="45.94496" lon="4.73406">
        <ele>180</ele>
        <time>2016-08-29T14:03:09Z</time>
      </trkpt>
      <trkpt lat="45.94497" lon="4.73412">
        <ele>180</ele>
        <time>2016-08-29T14:03:10Z</time>
      </trkpt>
      <trkpt lat="45.94496" lon="4.73423">
        <ele>181</ele>
        <time>2016-08-29T14:03:12Z</time>
      </trkpt>
      <trkpt lat="45.94497" lon="4.73429">
        <ele>181</ele>
        <time>2016-08-29T14:03:13Z</time>
      </trkpt>
      <trkpt lat="45.94497" lon="4.73441">
        <ele>181</ele>
        <time>2016-08-29T14:03:15Z</time>
      </trkpt>
      <trkpt lat="45.94497" lon="4.73447">
        <ele>181</ele>
        <time>2016-08-29T14:03:16Z</time>
      </trkpt>
      <trkpt lat="45.94498" lon="4.73458">
        <ele>182</ele>
        <time>2016-08-29T14:03:18Z</time>
      </trkpt>
      <trkpt lat="45.94498" lon="4.73464">
        <ele>182</ele>
        <time>2016-08-29T14:03:19Z</time>
      </trkpt>
      <trkpt lat="45.94499" lon="4.73475">
        <ele>182</ele>
        <time>2016-08-29T14:03:21Z</time>
      </trkpt>
      <trkpt lat="45.94499" lon="4.7348">
        <ele>182</ele>
        <time>2016-08-29T14:03:22Z</time>
      </trkpt>
      <trkpt lat="45.94499" lon="4.73492">
        <ele>183</ele>
        <time>2016-08-29T14:03:24Z</time>
      </trkpt>
      <trkpt lat="45.94498" lon="4.73498">
        <ele>183</ele>
        <time>2016-08-29T14:03:25Z</time>
      </trkpt>
      <trkpt lat="45.94498" lon="4.73511">
        <ele>184</ele>
        <time>2016-08-29T14:03:27Z</time>
      </trkpt>
      <trkpt lat="45.94497" lon="4.73517">
        <ele>184</ele>
        <time>2016-08-29T14:03:28Z</time>
      </trkpt>
      <trkpt lat="45.94497" lon="4.73525">
        <ele>184</ele>
        <time>2016-08-29T14:03:30Z</time>
      </trkpt>
      <trkpt lat="45.94498" lon="4.73532">
        <ele>184</ele>
        <time>2016-08-29T14:03:31Z</time>
      </trkpt>
      <trkpt lat="45.94498" lon="4.73539">
        <ele>184</ele>
        <time>2016-08-29T14:03:32Z</time>
      </trkpt>
      <trkpt lat="45.94498" lon="4.73545">
        <ele>185</ele>
        <time>2016-08-29T14:03:33Z</time>
      </trkpt>
      <trkpt lat="45.94498" lon="4.73558">
        <ele>185</ele>
        <time>2016-08-29T14:03:35Z</time>
      </trkpt>
      <trkpt lat="45.94498" lon="4.73564">
        <ele>185</ele>
        <time>2016-08-29T14:03:36Z</time>
      </trkpt>
      <trkpt lat="45.94498" lon="4.73576">
        <ele>185</ele>
        <time>2016-08-29T14:03:38Z</time>
      </trkpt>
      <trkpt lat="45.94498" lon="4.73582">
        <ele>185</ele>
        <time>2016-08-29T14:03:39Z</time>
      </trkpt>
      <trkpt lat="45.94497" lon="4.73594">
        <ele>185</ele>
        <time>2016-08-29T14:03:41Z</time>
      </trkpt>
      <trkpt lat="45.94496" lon="4.73601">
        <ele>185</ele>
        <time>2016-08-29T14:03:42Z</time>
      </trkpt>
      <trkpt lat="45.94496" lon="4.73611">
        <ele>186</ele>
        <time>2016-08-29T14:03:44Z</time>
      </trkpt>
      <trkpt lat="45.94495" lon="4.73618">
        <ele>186</ele>
        <time>2016-08-29T14:03:45Z</time>
      </trkpt>
      <trkpt lat="45.94494" lon="4.7363">
        <ele>186</ele>
        <time>2016-08-29T14:03:47Z</time>
      </trkpt>
      <trkpt lat="45.94494" lon="4.73636">
        <ele>186</ele>
        <time>2016-08-29T14:03:48Z</time>
      </trkpt>
      <trkpt lat="45.94492" lon="4.73648">
        <ele>186</ele>
        <time>2016-08-29T14:03:50Z</time>
      </trkpt>
      <trkpt lat="45.94492" lon="4.73654">
        <ele>185</ele>
        <time>2016-08-29T14:03:51Z</time>
      </trkpt>
      <trkpt lat="45.94491" lon="4.7366">
        <ele>185</ele>
        <time>2016-08-29T14:03:52Z</time>
      </trkpt>
      <trkpt lat="45.9449" lon="4.73667">
        <ele>185</ele>
        <time>2016-08-29T14:03:53Z</time>
      </trkpt>
      <trkpt lat="45.94489" lon="4.73673">
        <ele>185</ele>
        <time>2016-08-29T14:03:54Z</time>
      </trkpt>
      <trkpt lat="45.94488" lon="4.7368">
        <ele>186</ele>
        <time>2016-08-29T14:03:55Z</time>
      </trkpt>
      <trkpt lat="45.94487" lon="4.73686">
        <ele>186</ele>
        <time>2016-08-29T14:03:56Z</time>
      </trkpt>
      <trkpt lat="45.94486" lon="4.73693">
        <ele>186</ele>
        <time>2016-08-29T14:03:57Z</time>
      </trkpt>
      <trkpt lat="45.94485" lon="4.737">
        <ele>186</ele>
        <time>2016-08-29T14:03:58Z</time>
      </trkpt>
      <trkpt lat="45.94484" lon="4.73706">
        <ele>186</ele>
        <time>2016-08-29T14:03:59Z</time>
      </trkpt>
      <trkpt lat="45.94483" lon="4.73713">
        <ele>186</ele>
        <time>2016-08-29T14:04:00Z</time>
      </trkpt>
      <trkpt lat="45.94482" lon="4.7372">
        <ele>186</ele>
        <time>2016-08-29T14:04:01Z</time>
      </trkpt>
      <trkpt lat="45.94482" lon="4.73727">
        <ele>186</ele>
        <time>2016-08-29T14:04:02Z</time>
      </trkpt>
      <trkpt lat="45.9448" lon="4.73733">
        <ele>186</ele>
        <time>2016-08-29T14:04:03Z</time>
      </trkpt>
      <trkpt lat="45.94478" lon="4.73745">
        <ele>186</ele>
        <time>2016-08-29T14:04:05Z</time>
      </trkpt>
      <trkpt lat="45.94477" lon="4.73751">
        <ele>186</ele>
        <time>2016-08-29T14:04:06Z</time>
      </trkpt>
      <trkpt lat="45.94476" lon="4.73763">
        <ele>186</ele>
        <time>2016-08-29T14:04:08Z</time>
      </trkpt>
      <trkpt lat="45.94478" lon="4.73769">
        <ele>186</ele>
        <time>2016-08-29T14:04:09Z</time>
      </trkpt>
      <trkpt lat="45.94482" lon="4.73773">
        <ele>186</ele>
        <time>2016-08-29T14:04:10Z</time>
      </trkpt>
      <trkpt lat="45.94486" lon="4.73776">
        <ele>186</ele>
        <time>2016-08-29T14:04:11Z</time>
      </trkpt>
      <trkpt lat="45.94494" lon="4.73782">
        <ele>186</ele>
        <time>2016-08-29T14:04:13Z</time>
      </trkpt>
      <trkpt lat="45.94498" lon="4.73786">
        <ele>186</ele>
        <time>2016-08-29T14:04:14Z</time>
      </trkpt>
      <trkpt lat="45.94502" lon="4.73789">
        <ele>186</ele>
        <time>2016-08-29T14:04:15Z</time>
      </trkpt>
      <trkpt lat="45.94506" lon="4.73793">
        <ele>186</ele>
        <time>2016-08-29T14:04:16Z</time>
      </trkpt>
      <trkpt lat="45.9451" lon="4.73797">
        <ele>186</ele>
        <time>2016-08-29T14:04:17Z</time>
      </trkpt>
      <trkpt lat="45.94515" lon="4.73802">
        <ele>186</ele>
        <time>2016-08-29T14:04:18Z</time>
      </trkpt>
      <trkpt lat="45.94519" lon="4.73807">
        <ele>186</ele>
        <time>2016-08-29T14:04:19Z</time>
      </trkpt>
      <trkpt lat="45.94524" lon="4.73811">
        <ele>186</ele>
        <time>2016-08-29T14:04:20Z</time>
      </trkpt>
      <trkpt lat="45.94528" lon="4.73815">
        <ele>186</ele>
        <time>2016-08-29T14:04:21Z</time>
      </trkpt>
      <trkpt lat="45.94532" lon="4.73819">
        <ele>186</ele>
        <time>2016-08-29T14:04:22Z</time>
      </trkpt>
      <trkpt lat="45.94536" lon="4.73823">
        <ele>186</ele>
        <time>2016-08-29T14:04:23Z</time>
      </trkpt>
      <trkpt lat="45.9454" lon="4.73826">
        <ele>186</ele>
        <time>2016-08-29T14:04:24Z</time>
      </trkpt>
      <trkpt lat="45.94545" lon="4.7383">
        <ele>186</ele>
        <time>2016-08-29T14:04:25Z</time>
      </trkpt>
      <trkpt lat="45.94549" lon="4.73835">
        <ele>186</ele>
        <time>2016-08-29T14:04:26Z</time>
      </trkpt>
      <trkpt lat="45.94552" lon="4.73839">
        <ele>186</ele>
        <time>2016-08-29T14:04:27Z</time>
      </trkpt>
      <trkpt lat="45.94557" lon="4.73843">
        <ele>186</ele>
        <time>2016-08-29T14:04:28Z</time>
      </trkpt>
      <trkpt lat="45.94561" lon="4.73848">
        <ele>186</ele>
        <time>2016-08-29T14:04:29Z</time>
      </trkpt>
      <trkpt lat="45.94565" lon="4.73851">
        <ele>186</ele>
        <time>2016-08-29T14:04:30Z</time>
      </trkpt>
      <trkpt lat="45.94569" lon="4.73855">
        <ele>186</ele>
        <time>2016-08-29T14:04:31Z</time>
      </trkpt>
      <trkpt lat="45.94572" lon="4.73859">
        <ele>186</ele>
        <time>2016-08-29T14:04:32Z</time>
      </trkpt>
      <trkpt lat="45.94579" lon="4.73867">
        <ele>186</ele>
        <time>2016-08-29T14:04:34Z</time>
      </trkpt>
      <trkpt lat="45.94583" lon="4.73871">
        <ele>186</ele>
        <time>2016-08-29T14:04:35Z</time>
      </trkpt>
      <trkpt lat="45.94587" lon="4.73876">
        <ele>187</ele>
        <time>2016-08-29T14:04:36Z</time>
      </trkpt>
      <trkpt lat="45.9459" lon="4.7388">
        <ele>187</ele>
        <time>2016-08-29T14:04:37Z</time>
      </trkpt>
      <trkpt lat="45.94594" lon="4.73885">
        <ele>187</ele>
        <time>2016-08-29T14:04:38Z</time>
      </trkpt>
      <trkpt lat="45.94598" lon="4.73889">
        <ele>187</ele>
        <time>2016-08-29T14:04:39Z</time>
      </trkpt>
      <trkpt lat="45.94601" lon="4.73893">
        <ele>187</ele>
        <time>2016-08-29T14:04:40Z</time>
      </trkpt>
      <trkpt lat="45.94605" lon="4.73898">
        <ele>187</ele>
        <time>2016-08-29T14:04:41Z</time>
      </trkpt>
      <trkpt lat="45.94609" lon="4.73903">
        <ele>187</ele>
        <time>2016-08-29T14:04:42Z</time>
      </trkpt>
      <trkpt lat="45.94613" lon="4.73908">
        <ele>187</ele>
        <time>2016-08-29T14:04:43Z</time>
      </trkpt>
      <trkpt lat="45.94617" lon="4.73913">
        <ele>187</ele>
        <time>2016-08-29T14:04:44Z</time>
      </trkpt>
      <trkpt lat="45.94621" lon="4.73918">
        <ele>187</ele>
        <time>2016-08-29T14:04:45Z</time>
      </trkpt>
      <trkpt lat="45.94625" lon="4.73924">
        <ele>187</ele>
        <time>2016-08-29T14:04:46Z</time>
      </trkpt>
      <trkpt lat="45.94629" lon="4.73929">
        <ele>187</ele>
        <time>2016-08-29T14:04:47Z</time>
      </trkpt>
      <trkpt lat="45.94633" lon="4.73933">
        <ele>187</ele>
        <time>2016-08-29T14:04:48Z</time>
      </trkpt>
      <trkpt lat="45.94637" lon="4.73938">
        <ele>187</ele>
        <time>2016-08-29T14:04:49Z</time>
      </trkpt>
      <trkpt lat="45.9464" lon="4.73943">
        <ele>187</ele>
        <time>2016-08-29T14:04:50Z</time>
      </trkpt>
      <trkpt lat="45.94644" lon="4.73948">
        <ele>187</ele>
        <time>2016-08-29T14:04:51Z</time>
      </trkpt>
      <trkpt lat="45.94647" lon="4.73952">
        <ele>187</ele>
        <time>2016-08-29T14:04:52Z</time>
      </trkpt>
      <trkpt lat="45.94651" lon="4.73957">
        <ele>187</ele>
        <time>2016-08-29T14:04:53Z</time>
      </trkpt>
      <trkpt lat="45.94654" lon="4.73962">
        <ele>187</ele>
        <time>2016-08-29T14:04:54Z</time>
      </trkpt>
      <trkpt lat="45.94658" lon="4.73967">
        <ele>187</ele>
        <time>2016-08-29T14:04:55Z</time>
      </trkpt>
      <trkpt lat="45.94662" lon="4.73971">
        <ele>187</ele>
        <time>2016-08-29T14:04:56Z</time>
      </trkpt>
      <trkpt lat="45.94665" lon="4.73976">
        <ele>187</ele>
        <time>2016-08-29T14:04:57Z</time>
      </trkpt>
      <trkpt lat="45.94669" lon="4.73981">
        <ele>187</ele>
        <time>2016-08-29T14:04:58Z</time>
      </trkpt>
      <trkpt lat="45.94672" lon="4.73986">
        <ele>187</ele>
        <time>2016-08-29T14:04:59Z</time>
      </trkpt>
      <trkpt lat="45.94675" lon="4.7399">
        <ele>187</ele>
        <time>2016-08-29T14:05:00Z</time>
      </trkpt>
      <trkpt lat="45.94679" lon="4.73995">
        <ele>187</ele>
        <time>2016-08-29T14:05:01Z</time>
      </trkpt>
      <trkpt lat="45.94682" lon="4.74">
        <ele>187</ele>
        <time>2016-08-29T14:05:02Z</time>
      </trkpt>
      <trkpt lat="45.94686" lon="4.74005">
        <ele>187</ele>
        <time>2016-08-29T14:05:03Z</time>
      </trkpt>
      <trkpt lat="45.9469" lon="4.7401">
        <ele>187</ele>
        <time>2016-08-29T14:05:04Z</time>
      </trkpt>
      <trkpt lat="45.94694" lon="4.74015">
        <ele>187</ele>
        <time>2016-08-29T14:05:05Z</time>
      </trkpt>
      <trkpt lat="45.94698" lon="4.7402">
        <ele>187</ele>
        <time>2016-08-29T14:05:06Z</time>
      </trkpt>
      <trkpt lat="45.94704" lon="4.74025">
        <ele>187</ele>
        <time>2016-08-29T14:05:07Z</time>
      </trkpt>
      <trkpt lat="45.94708" lon="4.74029">
        <ele>187</ele>
        <time>2016-08-29T14:05:08Z</time>
      </trkpt>
      <trkpt lat="45.94711" lon="4.74034">
        <ele>187</ele>
        <time>2016-08-29T14:05:09Z</time>
      </trkpt>
      <trkpt lat="45.94717" lon="4.74043">
        <ele>187</ele>
        <time>2016-08-29T14:05:11Z</time>
      </trkpt>
      <trkpt lat="45.94721" lon="4.74048">
        <ele>187</ele>
        <time>2016-08-29T14:05:12Z</time>
      </trkpt>
      <trkpt lat="45.94725" lon="4.74052">
        <ele>188</ele>
        <time>2016-08-29T14:05:13Z</time>
      </trkpt>
      <trkpt lat="45.94729" lon="4.74057">
        <ele>188</ele>
        <time>2016-08-29T14:05:14Z</time>
      </trkpt>
      <trkpt lat="45.94733" lon="4.74062">
        <ele>188</ele>
        <time>2016-08-29T14:05:15Z</time>
      </trkpt>
      <trkpt lat="45.94736" lon="4.74067">
        <ele>188</ele>
        <time>2016-08-29T14:05:16Z</time>
      </trkpt>
      <trkpt lat="45.9474" lon="4.74072">
        <ele>188</ele>
        <time>2016-08-29T14:05:17Z</time>
      </trkpt>
      <trkpt lat="45.94743" lon="4.74077">
        <ele>188</ele>
        <time>2016-08-29T14:05:18Z</time>
      </trkpt>
      <trkpt lat="45.94746" lon="4.74082">
        <ele>189</ele>
        <time>2016-08-29T14:05:19Z</time>
      </trkpt>
      <trkpt lat="45.94749" lon="4.74087">
        <ele>189</ele>
        <time>2016-08-29T14:05:20Z</time>
      </trkpt>
      <trkpt lat="45.94753" lon="4.74092">
        <ele>189</ele>
        <time>2016-08-29T14:05:21Z</time>
      </trkpt>
      <trkpt lat="45.94756" lon="4.74097">
        <ele>189</ele>
        <time>2016-08-29T14:05:22Z</time>
      </trkpt>
      <trkpt lat="45.94759" lon="4.74102">
        <ele>189</ele>
        <time>2016-08-29T14:05:23Z</time>
      </trkpt>
      <trkpt lat="45.94763" lon="4.74106">
        <ele>189</ele>
        <time>2016-08-29T14:05:24Z</time>
      </trkpt>
      <trkpt lat="45.94766" lon="4.74111">
        <ele>189</ele>
        <time>2016-08-29T14:05:25Z</time>
      </trkpt>
      <trkpt lat="45.94769" lon="4.74116">
        <ele>189</ele>
        <time>2016-08-29T14:05:26Z</time>
      </trkpt>
      <trkpt lat="45.94772" lon="4.7412">
        <ele>189</ele>
        <time>2016-08-29T14:05:27Z</time>
      </trkpt>
      <trkpt lat="45.94776" lon="4.74125">
        <ele>189</ele>
        <time>2016-08-29T14:05:28Z</time>
      </trkpt>
      <trkpt lat="45.94779" lon="4.7413">
        <ele>189</ele>
        <time>2016-08-29T14:05:29Z</time>
      </trkpt>
      <trkpt lat="45.94782" lon="4.74134">
        <ele>189</ele>
        <time>2016-08-29T14:05:30Z</time>
      </trkpt>
      <trkpt lat="45.94788" lon="4.74143">
        <ele>189</ele>
        <time>2016-08-29T14:05:32Z</time>
      </trkpt>
      <trkpt lat="45.9479" lon="4.74147">
        <ele>189</ele>
        <time>2016-08-29T14:05:33Z</time>
      </trkpt>
      <trkpt lat="45.94797" lon="4.74156">
        <ele>189</ele>
        <time>2016-08-29T14:05:35Z</time>
      </trkpt>
      <trkpt lat="45.948" lon="4.74159">
        <ele>189</ele>
        <time>2016-08-29T14:05:36Z</time>
      </trkpt>
      <trkpt lat="45.94805" lon="4.74168">
        <ele>189</ele>
        <time>2016-08-29T14:05:38Z</time>
      </trkpt>
      <trkpt lat="45.94807" lon="4.74173">
        <ele>189</ele>
        <time>2016-08-29T14:05:39Z</time>
      </trkpt>
      <trkpt lat="45.9481" lon="4.74179">
        <ele>189</ele>
        <time>2016-08-29T14:05:40Z</time>
      </trkpt>
      <trkpt lat="45.94813" lon="4.74186">
        <ele>189</ele>
        <time>2016-08-29T14:05:41Z</time>
      </trkpt>
      <trkpt lat="45.94816" lon="4.74192">
        <ele>189</ele>
        <time>2016-08-29T14:05:42Z</time>
      </trkpt>
      <trkpt lat="45.9482" lon="4.74199">
        <ele>189</ele>
        <time>2016-08-29T14:05:43Z</time>
      </trkpt>
      <trkpt lat="45.94823" lon="4.74205">
        <ele>189</ele>
        <time>2016-08-29T14:05:44Z</time>
      </trkpt>
      <trkpt lat="45.94826" lon="4.74212">
        <ele>188</ele>
        <time>2016-08-29T14:05:45Z</time>
      </trkpt>
      <trkpt lat="45.9483" lon="4.74219">
        <ele>188</ele>
        <time>2016-08-29T14:05:46Z</time>
      </trkpt>
      <trkpt lat="45.94833" lon="4.74226">
        <ele>189</ele>
        <time>2016-08-29T14:05:47Z</time>
      </trkpt>
      <trkpt lat="45.94836" lon="4.74233">
        <ele>190</ele>
        <time>2016-08-29T14:05:48Z</time>
      </trkpt>
      <trkpt lat="45.94839" lon="4.74239">
        <ele>190</ele>
        <time>2016-08-29T14:05:49Z</time>
      </trkpt>
      <trkpt lat="45.94843" lon="4.74245">
        <ele>189</ele>
        <time>2016-08-29T14:05:50Z</time>
      </trkpt>
      <trkpt lat="45.94846" lon="4.74248">
        <ele>190</ele>
        <time>2016-08-29T14:05:51Z</time>
      </trkpt>
      <trkpt lat="45.94849" lon="4.74252">
        <ele>190</ele>
        <time>2016-08-29T14:05:52Z</time>
      </trkpt>
      <trkpt lat="45.94852" lon="4.74258">
        <ele>190</ele>
        <time>2016-08-29T14:05:53Z</time>
      </trkpt>
      <trkpt lat="45.94856" lon="4.74265">
        <ele>190</ele>
        <time>2016-08-29T14:05:54Z</time>
      </trkpt>
      <trkpt lat="45.94859" lon="4.74271">
        <ele>190</ele>
        <time>2016-08-29T14:05:55Z</time>
      </trkpt>
      <trkpt lat="45.94862" lon="4.74278">
        <ele>190</ele>
        <time>2016-08-29T14:05:56Z</time>
      </trkpt>
      <trkpt lat="45.94865" lon="4.74285">
        <ele>191</ele>
        <time>2016-08-29T14:05:57Z</time>
      </trkpt>
      <trkpt lat="45.94868" lon="4.74292">
        <ele>191</ele>
        <time>2016-08-29T14:05:58Z</time>
      </trkpt>
      <trkpt lat="45.94872" lon="4.74299">
        <ele>191</ele>
        <time>2016-08-29T14:05:59Z</time>
      </trkpt>
      <trkpt lat="45.94875" lon="4.74305">
        <ele>191</ele>
        <time>2016-08-29T14:06:00Z</time>
      </trkpt>
      <trkpt lat="45.94879" lon="4.74312">
        <ele>191</ele>
        <time>2016-08-29T14:06:01Z</time>
      </trkpt>
      <trkpt lat="45.94883" lon="4.74319">
        <ele>191</ele>
        <time>2016-08-29T14:06:02Z</time>
      </trkpt>
      <trkpt lat="45.94886" lon="4.74326">
        <ele>191</ele>
        <time>2016-08-29T14:06:03Z</time>
      </trkpt>
      <trkpt lat="45.94889" lon="4.74334">
        <ele>191</ele>
        <time>2016-08-29T14:06:04Z</time>
      </trkpt>
      <trkpt lat="45.94893" lon="4.74341">
        <ele>191</ele>
        <time>2016-08-29T14:06:05Z</time>
      </trkpt>
      <trkpt lat="45.94897" lon="4.74348">
        <ele>191</ele>
        <time>2016-08-29T14:06:06Z</time>
      </trkpt>
      <trkpt lat="45.949" lon="4.74355">
        <ele>191</ele>
        <time>2016-08-29T14:06:07Z</time>
      </trkpt>
      <trkpt lat="45.94904" lon="4.74362">
        <ele>191</ele>
        <time>2016-08-29T14:06:08Z</time>
      </trkpt>
      <trkpt lat="45.94908" lon="4.74369">
        <ele>191</ele>
        <time>2016-08-29T14:06:09Z</time>
      </trkpt>
      <trkpt lat="45.94912" lon="4.74376">
        <ele>191</ele>
        <time>2016-08-29T14:06:10Z</time>
      </trkpt>
      <trkpt lat="45.94915" lon="4.74383">
        <ele>191</ele>
        <time>2016-08-29T14:06:11Z</time>
      </trkpt>
      <trkpt lat="45.94917" lon="4.74388">
        <ele>192</ele>
        <time>2016-08-29T14:06:12Z</time>
      </trkpt>
      <trkpt lat="45.94921" lon="4.74395">
        <ele>192</ele>
        <time>2016-08-29T14:06:13Z</time>
      </trkpt>
      <trkpt lat="45.94924" lon="4.74401">
        <ele>192</ele>
        <time>2016-08-29T14:06:14Z</time>
      </trkpt>
      <trkpt lat="45.94927" lon="4.74407">
        <ele>192</ele>
        <time>2016-08-29T14:06:15Z</time>
      </trkpt>
      <trkpt lat="45.9493" lon="4.74414">
        <ele>192</ele>
        <time>2016-08-29T14:06:16Z</time>
      </trkpt>
      <trkpt lat="45.94933" lon="4.7442">
        <ele>192</ele>
        <time>2016-08-29T14:06:17Z</time>
      </trkpt>
      <trkpt lat="45.94937" lon="4.74427">
        <ele>192</ele>
        <time>2016-08-29T14:06:18Z</time>
      </trkpt>
      <trkpt lat="45.9494" lon="4.74433">
        <ele>192</ele>
        <time>2016-08-29T14:06:19Z</time>
      </trkpt>
      <trkpt lat="45.94944" lon="4.74439">
        <ele>192</ele>
        <time>2016-08-29T14:06:20Z</time>
      </trkpt>
      <trkpt lat="45.94947" lon="4.74445">
        <ele>192</ele>
        <time>2016-08-29T14:06:21Z</time>
      </trkpt>
      <trkpt lat="45.9495" lon="4.74451">
        <ele>192</ele>
        <time>2016-08-29T14:06:22Z</time>
      </trkpt>
      <trkpt lat="45.94953" lon="4.74458">
        <ele>192</ele>
        <time>2016-08-29T14:06:23Z</time>
      </trkpt>
      <trkpt lat="45.94957" lon="4.74464">
        <ele>193</ele>
        <time>2016-08-29T14:06:24Z</time>
      </trkpt>
      <trkpt lat="45.9496" lon="4.74471">
        <ele>193</ele>
        <time>2016-08-29T14:06:25Z</time>
      </trkpt>
      <trkpt lat="45.94964" lon="4.74477">
        <ele>193</ele>
        <time>2016-08-29T14:06:26Z</time>
      </trkpt>
      <trkpt lat="45.94966" lon="4.74482">
        <ele>193</ele>
        <time>2016-08-29T14:06:27Z</time>
      </trkpt>
      <trkpt lat="45.94969" lon="4.74489">
        <ele>193</ele>
        <time>2016-08-29T14:06:28Z</time>
      </trkpt>
      <trkpt lat="45.94972" lon="4.74495">
        <ele>193</ele>
        <time>2016-08-29T14:06:29Z</time>
      </trkpt>
      <trkpt lat="45.94976" lon="4.74502">
        <ele>193</ele>
        <time>2016-08-29T14:06:30Z</time>
      </trkpt>
      <trkpt lat="45.94979" lon="4.74508">
        <ele>193</ele>
        <time>2016-08-29T14:06:31Z</time>
      </trkpt>
      <trkpt lat="45.94982" lon="4.74514">
        <ele>193</ele>
        <time>2016-08-29T14:06:32Z</time>
      </trkpt>
      <trkpt lat="45.94985" lon="4.7452">
        <ele>193</ele>
        <time>2016-08-29T14:06:33Z</time>
      </trkpt>
      <trkpt lat="45.94988" lon="4.74526">
        <ele>193</ele>
        <time>2016-08-29T14:06:34Z</time>
      </trkpt>
      <trkpt lat="45.94991" lon="4.74531">
        <ele>193</ele>
        <time>2016-08-29T14:06:35Z</time>
      </trkpt>
      <trkpt lat="45.94994" lon="4.74537">
        <ele>193</ele>
        <time>2016-08-29T14:06:36Z</time>
      </trkpt>
      <trkpt lat="45.94997" lon="4.74543">
        <ele>193</ele>
        <time>2016-08-29T14:06:37Z</time>
      </trkpt>
      <trkpt lat="45.95" lon="4.74549">
        <ele>194</ele>
        <time>2016-08-29T14:06:38Z</time>
      </trkpt>
      <trkpt lat="45.95003" lon="4.74556">
        <ele>194</ele>
        <time>2016-08-29T14:06:39Z</time>
      </trkpt>
      <trkpt lat="45.95007" lon="4.74562">
        <ele>194</ele>
        <time>2016-08-29T14:06:40Z</time>
      </trkpt>
      <trkpt lat="45.95011" lon="4.74569">
        <ele>194</ele>
        <time>2016-08-29T14:06:41Z</time>
      </trkpt>
      <trkpt lat="45.95014" lon="4.74575">
        <ele>194</ele>
        <time>2016-08-29T14:06:42Z</time>
      </trkpt>
      <trkpt lat="45.95017" lon="4.74581">
        <ele>194</ele>
        <time>2016-08-29T14:06:43Z</time>
      </trkpt>
      <trkpt lat="45.9502" lon="4.74586">
        <ele>194</ele>
        <time>2016-08-29T14:06:44Z</time>
      </trkpt>
      <trkpt lat="45.95024" lon="4.74593">
        <ele>194</ele>
        <time>2016-08-29T14:06:45Z</time>
      </trkpt>
      <trkpt lat="45.95028" lon="4.746">
        <ele>194</ele>
        <time>2016-08-29T14:06:46Z</time>
      </trkpt>
      <trkpt lat="45.95032" lon="4.74607">
        <ele>194</ele>
        <time>2016-08-29T14:06:47Z</time>
      </trkpt>
      <trkpt lat="45.95037" lon="4.74612">
        <ele>194</ele>
        <time>2016-08-29T14:06:48Z</time>
      </trkpt>
      <trkpt lat="45.9504" lon="4.74619">
        <ele>194</ele>
        <time>2016-08-29T14:06:49Z</time>
      </trkpt>
      <trkpt lat="45.95044" lon="4.74626">
        <ele>194</ele>
        <time>2016-08-29T14:06:50Z</time>
      </trkpt>
      <trkpt lat="45.95047" lon="4.74633">
        <ele>194</ele>
        <time>2016-08-29T14:06:51Z</time>
      </trkpt>
      <trkpt lat="45.95051" lon="4.7464">
        <ele>194</ele>
        <time>2016-08-29T14:06:52Z</time>
      </trkpt>
      <trkpt lat="45.95055" lon="4.74646">
        <ele>194</ele>
        <time>2016-08-29T14:06:53Z</time>
      </trkpt>
      <trkpt lat="45.95058" lon="4.74653">
        <ele>194</ele>
        <time>2016-08-29T14:06:54Z</time>
      </trkpt>
      <trkpt lat="45.95062" lon="4.7466">
        <ele>195</ele>
        <time>2016-08-29T14:06:55Z</time>
      </trkpt>
      <trkpt lat="45.95065" lon="4.74666">
        <ele>195</ele>
        <time>2016-08-29T14:06:56Z</time>
      </trkpt>
      <trkpt lat="45.95068" lon="4.74672">
        <ele>194</ele>
        <time>2016-08-29T14:06:57Z</time>
      </trkpt>
      <trkpt lat="45.95072" lon="4.74679">
        <ele>194</ele>
        <time>2016-08-29T14:06:58Z</time>
      </trkpt>
      <trkpt lat="45.95075" lon="4.74686">
        <ele>194</ele>
        <time>2016-08-29T14:06:59Z</time>
      </trkpt>
      <trkpt lat="45.95079" lon="4.74692">
        <ele>194</ele>
        <time>2016-08-29T14:07:00Z</time>
      </trkpt>
      <trkpt lat="45.95081" lon="4.74698">
        <ele>194</ele>
        <time>2016-08-29T14:07:01Z</time>
      </trkpt>
      <trkpt lat="45.95084" lon="4.74704">
        <ele>194</ele>
        <time>2016-08-29T14:07:02Z</time>
      </trkpt>
      <trkpt lat="45.95087" lon="4.7471">
        <ele>194</ele>
        <time>2016-08-29T14:07:03Z</time>
      </trkpt>
      <trkpt lat="45.95091" lon="4.74717">
        <ele>194</ele>
        <time>2016-08-29T14:07:04Z</time>
      </trkpt>
      <trkpt lat="45.95095" lon="4.74722">
        <ele>194</ele>
        <time>2016-08-29T14:07:05Z</time>
      </trkpt>
      <trkpt lat="45.95098" lon="4.74728">
        <ele>194</ele>
        <time>2016-08-29T14:07:06Z</time>
      </trkpt>
      <trkpt lat="45.95102" lon="4.74735">
        <ele>194</ele>
        <time>2016-08-29T14:07:07Z</time>
      </trkpt>
      <trkpt lat="45.95106" lon="4.74741">
        <ele>194</ele>
        <time>2016-08-29T14:07:08Z</time>
      </trkpt>
      <trkpt lat="45.9511" lon="4.74748">
        <ele>194</ele>
        <time>2016-08-29T14:07:09Z</time>
      </trkpt>
      <trkpt lat="45.95114" lon="4.74754">
        <ele>194</ele>
        <time>2016-08-29T14:07:10Z</time>
      </trkpt>
      <trkpt lat="45.95118" lon="4.7476">
        <ele>194</ele>
        <time>2016-08-29T14:07:11Z</time>
      </trkpt>
      <trkpt lat="45.95122" lon="4.74766">
        <ele>194</ele>
        <time>2016-08-29T14:07:12Z</time>
      </trkpt>
      <trkpt lat="45.95126" lon="4.74772">
        <ele>194</ele>
        <time>2016-08-29T14:07:13Z</time>
      </trkpt>
      <trkpt lat="45.9513" lon="4.74778">
        <ele>194</ele>
        <time>2016-08-29T14:07:14Z</time>
      </trkpt>
      <trkpt lat="45.95134" lon="4.74784">
        <ele>194</ele>
        <time>2016-08-29T14:07:15Z</time>
      </trkpt>
      <trkpt lat="45.95137" lon="4.7479">
        <ele>194</ele>
        <time>2016-08-29T14:07:16Z</time>
      </trkpt>
      <trkpt lat="45.95141" lon="4.74796">
        <ele>194</ele>
        <time>2016-08-29T14:07:17Z</time>
      </trkpt>
      <trkpt lat="45.95145" lon="4.74802">
        <ele>194</ele>
        <time>2016-08-29T14:07:18Z</time>
      </trkpt>
      <trkpt lat="45.95148" lon="4.74807">
        <ele>194</ele>
        <time>2016-08-29T14:07:19Z</time>
      </trkpt>
      <trkpt lat="45.95151" lon="4.74813">
        <ele>194</ele>
        <time>2016-08-29T14:07:20Z</time>
      </trkpt>
      <trkpt lat="45.95155" lon="4.74819">
        <ele>194</ele>
        <time>2016-08-29T14:07:21Z</time>
      </trkpt>
      <trkpt lat="45.95159" lon="4.74825">
        <ele>194</ele>
        <time>2016-08-29T14:07:22Z</time>
      </trkpt>
      <trkpt lat="45.95163" lon="4.74831">
        <ele>194</ele>
        <time>2016-08-29T14:07:23Z</time>
      </trkpt>
      <trkpt lat="45.95167" lon="4.74837">
        <ele>194</ele>
        <time>2016-08-29T14:07:24Z</time>
      </trkpt>
      <trkpt lat="45.9517" lon="4.74844">
        <ele>194</ele>
        <time>2016-08-29T14:07:25Z</time>
      </trkpt>
      <trkpt lat="45.95174" lon="4.7485">
        <ele>194</ele>
        <time>2016-08-29T14:07:26Z</time>
      </trkpt>
      <trkpt lat="45.95178" lon="4.74856">
        <ele>194</ele>
        <time>2016-08-29T14:07:27Z</time>
      </trkpt>
      <trkpt lat="45.95182" lon="4.74862">
        <ele>194</ele>
        <time>2016-08-29T14:07:28Z</time>
      </trkpt>
      <trkpt lat="45.95186" lon="4.74868">
        <ele>194</ele>
        <time>2016-08-29T14:07:29Z</time>
      </trkpt>
      <trkpt lat="45.9519" lon="4.74874">
        <ele>194</ele>
        <time>2016-08-29T14:07:30Z</time>
      </trkpt>
      <trkpt lat="45.95194" lon="4.7488">
        <ele>194</ele>
        <time>2016-08-29T14:07:31Z</time>
      </trkpt>
      <trkpt lat="45.95198" lon="4.74886">
        <ele>194</ele>
        <time>2016-08-29T14:07:32Z</time>
      </trkpt>
      <trkpt lat="45.95202" lon="4.74891">
        <ele>194</ele>
        <time>2016-08-29T14:07:33Z</time>
      </trkpt>
      <trkpt lat="45.95206" lon="4.74898">
        <ele>194</ele>
        <time>2016-08-29T14:07:34Z</time>
      </trkpt>
      <trkpt lat="45.9521" lon="4.74904">
        <ele>193</ele>
        <time>2016-08-29T14:07:35Z</time>
      </trkpt>
      <trkpt lat="45.95214" lon="4.7491">
        <ele>193</ele>
        <time>2016-08-29T14:07:36Z</time>
      </trkpt>
      <trkpt lat="45.95218" lon="4.74917">
        <ele>193</ele>
        <time>2016-08-29T14:07:37Z</time>
      </trkpt>
      <trkpt lat="45.95222" lon="4.74923">
        <ele>192</ele>
        <time>2016-08-29T14:07:38Z</time>
      </trkpt>
      <trkpt lat="45.95227" lon="4.7493">
        <ele>192</ele>
        <time>2016-08-29T14:07:39Z</time>
      </trkpt>
      <trkpt lat="45.95231" lon="4.74937">
        <ele>192</ele>
        <time>2016-08-29T14:07:40Z</time>
      </trkpt>
      <trkpt lat="45.95235" lon="4.74944">
        <ele>192</ele>
        <time>2016-08-29T14:07:41Z</time>
      </trkpt>
      <trkpt lat="45.95239" lon="4.74951">
        <ele>192</ele>
        <time>2016-08-29T14:07:42Z</time>
      </trkpt>
      <trkpt lat="45.95243" lon="4.74957">
        <ele>192</ele>
        <time>2016-08-29T14:07:43Z</time>
      </trkpt>
      <trkpt lat="45.95247" lon="4.74963">
        <ele>191</ele>
        <time>2016-08-29T14:07:44Z</time>
      </trkpt>
      <trkpt lat="45.95251" lon="4.7497">
        <ele>192</ele>
        <time>2016-08-29T14:07:45Z</time>
      </trkpt>
      <trkpt lat="45.95255" lon="4.74976">
        <ele>192</ele>
        <time>2016-08-29T14:07:46Z</time>
      </trkpt>
      <trkpt lat="45.95259" lon="4.74983">
        <ele>192</ele>
        <time>2016-08-29T14:07:47Z</time>
      </trkpt>
      <trkpt lat="45.95264" lon="4.7499">
        <ele>192</ele>
        <time>2016-08-29T14:07:48Z</time>
      </trkpt>
      <trkpt lat="45.95268" lon="4.74996">
        <ele>192</ele>
        <time>2016-08-29T14:07:49Z</time>
      </trkpt>
      <trkpt lat="45.95272" lon="4.75003">
        <ele>191</ele>
        <time>2016-08-29T14:07:50Z</time>
      </trkpt>
      <trkpt lat="45.95276" lon="4.75009">
        <ele>191</ele>
        <time>2016-08-29T14:07:51Z</time>
      </trkpt>
      <trkpt lat="45.9528" lon="4.75015">
        <ele>191</ele>
        <time>2016-08-29T14:07:52Z</time>
      </trkpt>
      <trkpt lat="45.95284" lon="4.75022">
        <ele>191</ele>
        <time>2016-08-29T14:07:53Z</time>
      </trkpt>
      <trkpt lat="45.95288" lon="4.75028">
        <ele>191</ele>
        <time>2016-08-29T14:07:54Z</time>
      </trkpt>
      <trkpt lat="45.95293" lon="4.75035">
        <ele>191</ele>
        <time>2016-08-29T14:07:55Z</time>
      </trkpt>
      <trkpt lat="45.95297" lon="4.75042">
        <ele>191</ele>
        <time>2016-08-29T14:07:56Z</time>
      </trkpt>
      <trkpt lat="45.95302" lon="4.75048">
        <ele>191</ele>
        <time>2016-08-29T14:07:57Z</time>
      </trkpt>
      <trkpt lat="45.95306" lon="4.75055">
        <ele>192</ele>
        <time>2016-08-29T14:07:58Z</time>
      </trkpt>
      <trkpt lat="45.95311" lon="4.75062">
        <ele>192</ele>
        <time>2016-08-29T14:07:59Z</time>
      </trkpt>
      <trkpt lat="45.95315" lon="4.75069">
        <ele>192</ele>
        <time>2016-08-29T14:08:00Z</time>
      </trkpt>
      <trkpt lat="45.9532" lon="4.75076">
        <ele>192</ele>
        <time>2016-08-29T14:08:01Z</time>
      </trkpt>
      <trkpt lat="45.95324" lon="4.75082">
        <ele>192</ele>
        <time>2016-08-29T14:08:02Z</time>
      </trkpt>
      <trkpt lat="45.95328" lon="4.75089">
        <ele>192</ele>
        <time>2016-08-29T14:08:03Z</time>
      </trkpt>
      <trkpt lat="45.95333" lon="4.75096">
        <ele>191</ele>
        <time>2016-08-29T14:08:04Z</time>
      </trkpt>
      <trkpt lat="45.95337" lon="4.75102">
        <ele>192</ele>
        <time>2016-08-29T14:08:05Z</time>
      </trkpt>
      <trkpt lat="45.95342" lon="4.75109">
        <ele>192</ele>
        <time>2016-08-29T14:08:06Z</time>
      </trkpt>
      <trkpt lat="45.95346" lon="4.75116">
        <ele>192</ele>
        <time>2016-08-29T14:08:07Z</time>
      </trkpt>
      <trkpt lat="45.9535" lon="4.75123">
        <ele>191</ele>
        <time>2016-08-29T14:08:08Z</time>
      </trkpt>
      <trkpt lat="45.95354" lon="4.7513">
        <ele>191</ele>
        <time>2016-08-29T14:08:09Z</time>
      </trkpt>
      <trkpt lat="45.95358" lon="4.75137">
        <ele>191</ele>
        <time>2016-08-29T14:08:10Z</time>
      </trkpt>
      <trkpt lat="45.95362" lon="4.75143">
        <ele>191</ele>
        <time>2016-08-29T14:08:11Z</time>
      </trkpt>
      <trkpt lat="45.95367" lon="4.7515">
        <ele>191</ele>
        <time>2016-08-29T14:08:12Z</time>
      </trkpt>
      <trkpt lat="45.95371" lon="4.75156">
        <ele>191</ele>
        <time>2016-08-29T14:08:13Z</time>
      </trkpt>
      <trkpt lat="45.95375" lon="4.75163">
        <ele>191</ele>
        <time>2016-08-29T14:08:14Z</time>
      </trkpt>
      <trkpt lat="45.95379" lon="4.7517">
        <ele>189</ele>
        <time>2016-08-29T14:08:15Z</time>
      </trkpt>
      <trkpt lat="45.95382" lon="4.75177">
        <ele>189</ele>
        <time>2016-08-29T14:08:16Z</time>
      </trkpt>
      <trkpt lat="45.95386" lon="4.75183">
        <ele>189</ele>
        <time>2016-08-29T14:08:17Z</time>
      </trkpt>
      <trkpt lat="45.95388" lon="4.75189">
        <ele>189</ele>
        <time>2016-08-29T14:08:18Z</time>
      </trkpt>
      <trkpt lat="45.95392" lon="4.75195">
        <ele>189</ele>
        <time>2016-08-29T14:08:19Z</time>
      </trkpt>
      <trkpt lat="45.95396" lon="4.75203">
        <ele>189</ele>
        <time>2016-08-29T14:08:20Z</time>
      </trkpt>
      <trkpt lat="45.954" lon="4.75211">
        <ele>189</ele>
        <time>2016-08-29T14:08:21Z</time>
      </trkpt>
      <trkpt lat="45.95404" lon="4.75218">
        <ele>188</ele>
        <time>2016-08-29T14:08:22Z</time>
      </trkpt>
      <trkpt lat="45.95408" lon="4.75225">
        <ele>188</ele>
        <time>2016-08-29T14:08:23Z</time>
      </trkpt>
      <trkpt lat="45.95412" lon="4.75233">
        <ele>189</ele>
        <time>2016-08-29T14:08:24Z</time>
      </trkpt>
      <trkpt lat="45.95416" lon="4.75241">
        <ele>189</ele>
        <time>2016-08-29T14:08:25Z</time>
      </trkpt>
      <trkpt lat="45.9542" lon="4.75249">
        <ele>189</ele>
        <time>2016-08-29T14:08:26Z</time>
      </trkpt>
      <trkpt lat="45.95424" lon="4.75258">
        <ele>189</ele>
        <time>2016-08-29T14:08:27Z</time>
      </trkpt>
      <trkpt lat="45.95427" lon="4.75264">
        <ele>189</ele>
        <time>2016-08-29T14:08:28Z</time>
      </trkpt>
      <trkpt lat="45.95431" lon="4.75271">
        <ele>189</ele>
        <time>2016-08-29T14:08:29Z</time>
      </trkpt>
      <trkpt lat="45.95435" lon="4.75279">
        <ele>188</ele>
        <time>2016-08-29T14:08:30Z</time>
      </trkpt>
      <trkpt lat="45.95439" lon="4.75285">
        <ele>188</ele>
        <time>2016-08-29T14:08:31Z</time>
      </trkpt>
      <trkpt lat="45.95443" lon="4.75292">
        <ele>188</ele>
        <time>2016-08-29T14:08:32Z</time>
      </trkpt>
      <trkpt lat="45.95447" lon="4.75299">
        <ele>188</ele>
        <time>2016-08-29T14:08:33Z</time>
      </trkpt>
      <trkpt lat="45.95451" lon="4.75307">
        <ele>188</ele>
        <time>2016-08-29T14:08:34Z</time>
      </trkpt>
      <trkpt lat="45.95455" lon="4.75316">
        <ele>188</ele>
        <time>2016-08-29T14:08:35Z</time>
      </trkpt>
      <trkpt lat="45.9546" lon="4.75324">
        <ele>188</ele>
        <time>2016-08-29T14:08:36Z</time>
      </trkpt>
      <trkpt lat="45.95464" lon="4.75332">
        <ele>188</ele>
        <time>2016-08-29T14:08:37Z</time>
      </trkpt>
      <trkpt lat="45.95468" lon="4.75339">
        <ele>186</ele>
        <time>2016-08-29T14:08:38Z</time>
      </trkpt>
      <trkpt lat="45.95472" lon="4.75347">
        <ele>186</ele>
        <time>2016-08-29T14:08:39Z</time>
      </trkpt>
      <trkpt lat="45.95476" lon="4.75355">
        <ele>186</ele>
        <time>2016-08-29T14:08:40Z</time>
      </trkpt>
      <trkpt lat="45.9548" lon="4.75363">
        <ele>185</ele>
        <time>2016-08-29T14:08:41Z</time>
      </trkpt>
      <trkpt lat="45.95484" lon="4.75372">
        <ele>185</ele>
        <time>2016-08-29T14:08:42Z</time>
      </trkpt>
      <trkpt lat="45.95487" lon="4.75381">
        <ele>185</ele>
        <time>2016-08-29T14:08:43Z</time>
      </trkpt>
      <trkpt lat="45.95491" lon="4.7539">
        <ele>185</ele>
        <time>2016-08-29T14:08:44Z</time>
      </trkpt>
      <trkpt lat="45.95494" lon="4.75399">
        <ele>185</ele>
        <time>2016-08-29T14:08:45Z</time>
      </trkpt>
      <trkpt lat="45.95496" lon="4.75409">
        <ele>185</ele>
        <time>2016-08-29T14:08:46Z</time>
      </trkpt>
      <trkpt lat="45.95498" lon="4.75418">
        <ele>185</ele>
        <time>2016-08-29T14:08:47Z</time>
      </trkpt>
      <trkpt lat="45.95499" lon="4.75425">
        <ele>184</ele>
        <time>2016-08-29T14:08:48Z</time>
      </trkpt>
      <trkpt lat="45.95503" lon="4.75434">
        <ele>186</ele>
        <time>2016-08-29T14:08:49Z</time>
      </trkpt>
      <trkpt lat="45.95504" lon="4.75446">
        <ele>186</ele>
        <time>2016-08-29T14:08:51Z</time>
      </trkpt>
      <trkpt lat="45.95504" lon="4.75452">
        <ele>186</ele>
        <time>2016-08-29T14:08:52Z</time>
      </trkpt>
      <trkpt lat="45.95504" lon="4.75458">
        <ele>186</ele>
        <time>2016-08-29T14:08:53Z</time>
      </trkpt>
      <trkpt lat="45.95504" lon="4.75465">
        <ele>186</ele>
        <time>2016-08-29T14:08:54Z</time>
      </trkpt>
      <trkpt lat="45.95504" lon="4.75473">
        <ele>186</ele>
        <time>2016-08-29T14:08:55Z</time>
      </trkpt>
      <trkpt lat="45.95505" lon="4.7548">
        <ele>186</ele>
        <time>2016-08-29T14:08:56Z</time>
      </trkpt>
      <trkpt lat="45.95509" lon="4.75487">
        <ele>186</ele>
        <time>2016-08-29T14:08:57Z</time>
      </trkpt>
      <trkpt lat="45.95513" lon="4.75491">
        <ele>186</ele>
        <time>2016-08-29T14:08:58Z</time>
      </trkpt>
      <trkpt lat="45.95518" lon="4.75495">
        <ele>186</ele>
        <time>2016-08-29T14:08:59Z</time>
      </trkpt>
      <trkpt lat="45.95523" lon="4.75499">
        <ele>186</ele>
        <time>2016-08-29T14:09:00Z</time>
      </trkpt>
      <trkpt lat="45.95527" lon="4.75502">
        <ele>185</ele>
        <time>2016-08-29T14:09:01Z</time>
      </trkpt>
      <trkpt lat="45.95532" lon="4.75507">
        <ele>185</ele>
        <time>2016-08-29T14:09:02Z</time>
      </trkpt>
      <trkpt lat="45.95536" lon="4.75512">
        <ele>186</ele>
        <time>2016-08-29T14:09:03Z</time>
      </trkpt>
      <trkpt lat="45.95541" lon="4.75517">
        <ele>186</ele>
        <time>2016-08-29T14:09:04Z</time>
      </trkpt>
      <trkpt lat="45.95546" lon="4.75521">
        <ele>186</ele>
        <time>2016-08-29T14:09:05Z</time>
      </trkpt>
      <trkpt lat="45.95551" lon="4.75526">
        <ele>186</ele>
        <time>2016-08-29T14:09:06Z</time>
      </trkpt>
      <trkpt lat="45.95556" lon="4.7553">
        <ele>186</ele>
        <time>2016-08-29T14:09:07Z</time>
      </trkpt>
      <trkpt lat="45.95561" lon="4.75535">
        <ele>186</ele>
        <time>2016-08-29T14:09:08Z</time>
      </trkpt>
      <trkpt lat="45.95566" lon="4.7554">
        <ele>186</ele>
        <time>2016-08-29T14:09:09Z</time>
      </trkpt>
      <trkpt lat="45.95571" lon="4.75546">
        <ele>186</ele>
        <time>2016-08-29T14:09:10Z</time>
      </trkpt>
      <trkpt lat="45.95575" lon="4.75551">
        <ele>186</ele>
        <time>2016-08-29T14:09:11Z</time>
      </trkpt>
      <trkpt lat="45.9558" lon="4.75556">
        <ele>186</ele>
        <time>2016-08-29T14:09:12Z</time>
      </trkpt>
      <trkpt lat="45.95584" lon="4.75562">
        <ele>188</ele>
        <time>2016-08-29T14:09:13Z</time>
      </trkpt>
      <trkpt lat="45.95588" lon="4.75569">
        <ele>188</ele>
        <time>2016-08-29T14:09:14Z</time>
      </trkpt>
      <trkpt lat="45.95591" lon="4.75575">
        <ele>187</ele>
        <time>2016-08-29T14:09:15Z</time>
      </trkpt>
      <trkpt lat="45.95594" lon="4.75582">
        <ele>187</ele>
        <time>2016-08-29T14:09:16Z</time>
      </trkpt>
      <trkpt lat="45.95597" lon="4.75588">
        <ele>187</ele>
        <time>2016-08-29T14:09:17Z</time>
      </trkpt>
      <trkpt lat="45.956" lon="4.75595">
        <ele>187</ele>
        <time>2016-08-29T14:09:18Z</time>
      </trkpt>
      <trkpt lat="45.95604" lon="4.75606">
        <ele>187</ele>
        <time>2016-08-29T14:09:20Z</time>
      </trkpt>
      <trkpt lat="45.95606" lon="4.75612">
        <ele>188</ele>
        <time>2016-08-29T14:09:21Z</time>
      </trkpt>
      <trkpt lat="45.95608" lon="4.75619">
        <ele>188</ele>
        <time>2016-08-29T14:09:22Z</time>
      </trkpt>
      <trkpt lat="45.95609" lon="4.75625">
        <ele>188</ele>
        <time>2016-08-29T14:09:23Z</time>
      </trkpt>
      <trkpt lat="45.95611" lon="4.75631">
        <ele>188</ele>
        <time>2016-08-29T14:09:24Z</time>
      </trkpt>
      <trkpt lat="45.95613" lon="4.75638">
        <ele>188</ele>
        <time>2016-08-29T14:09:25Z</time>
      </trkpt>
      <trkpt lat="45.95614" lon="4.75646">
        <ele>188</ele>
        <time>2016-08-29T14:09:26Z</time>
      </trkpt>
      <trkpt lat="45.95615" lon="4.75653">
        <ele>188</ele>
        <time>2016-08-29T14:09:27Z</time>
      </trkpt>
      <trkpt lat="45.95617" lon="4.75661">
        <ele>188</ele>
        <time>2016-08-29T14:09:28Z</time>
      </trkpt>
      <trkpt lat="45.95618" lon="4.75668">
        <ele>187</ele>
        <time>2016-08-29T14:09:29Z</time>
      </trkpt>
      <trkpt lat="45.9562" lon="4.75676">
        <ele>187</ele>
        <time>2016-08-29T14:09:30Z</time>
      </trkpt>
      <trkpt lat="45.95621" lon="4.75684">
        <ele>187</ele>
        <time>2016-08-29T14:09:31Z</time>
      </trkpt>
      <trkpt lat="45.95622" lon="4.75692">
        <ele>187</ele>
        <time>2016-08-29T14:09:32Z</time>
      </trkpt>
      <trkpt lat="45.95624" lon="4.75699">
        <ele>187</ele>
        <time>2016-08-29T14:09:33Z</time>
      </trkpt>
      <trkpt lat="45.95625" lon="4.75706">
        <ele>187</ele>
        <time>2016-08-29T14:09:34Z</time>
      </trkpt>
      <trkpt lat="45.95626" lon="4.75714">
        <ele>187</ele>
        <time>2016-08-29T14:09:35Z</time>
      </trkpt>
      <trkpt lat="45.95627" lon="4.75722">
        <ele>187</ele>
        <time>2016-08-29T14:09:36Z</time>
      </trkpt>
      <trkpt lat="45.95628" lon="4.7573">
        <ele>187</ele>
        <time>2016-08-29T14:09:37Z</time>
      </trkpt>
      <trkpt lat="45.9563" lon="4.75738">
        <ele>187</ele>
        <time>2016-08-29T14:09:38Z</time>
      </trkpt>
      <trkpt lat="45.95631" lon="4.75746">
        <ele>187</ele>
        <time>2016-08-29T14:09:39Z</time>
      </trkpt>
      <trkpt lat="45.95632" lon="4.75754">
        <ele>186</ele>
        <time>2016-08-29T14:09:40Z</time>
      </trkpt>
      <trkpt lat="45.95633" lon="4.75762">
        <ele>186</ele>
        <time>2016-08-29T14:09:41Z</time>
      </trkpt>
      <trkpt lat="45.95634" lon="4.7577">
        <ele>186</ele>
        <time>2016-08-29T14:09:42Z</time>
      </trkpt>
      <trkpt lat="45.95636" lon="4.75779">
        <ele>185</ele>
        <time>2016-08-29T14:09:43Z</time>
      </trkpt>
      <trkpt lat="45.95637" lon="4.75787">
        <ele>185</ele>
        <time>2016-08-29T14:09:44Z</time>
      </trkpt>
      <trkpt lat="45.95638" lon="4.75796">
        <ele>185</ele>
        <time>2016-08-29T14:09:45Z</time>
      </trkpt>
      <trkpt lat="45.95639" lon="4.75804">
        <ele>185</ele>
        <time>2016-08-29T14:09:46Z</time>
      </trkpt>
      <trkpt lat="45.95641" lon="4.75812">
        <ele>185</ele>
        <time>2016-08-29T14:09:47Z</time>
      </trkpt>
      <trkpt lat="45.95643" lon="4.7582">
        <ele>185</ele>
        <time>2016-08-29T14:09:48Z</time>
      </trkpt>
      <trkpt lat="45.95644" lon="4.75827">
        <ele>185</ele>
        <time>2016-08-29T14:09:49Z</time>
      </trkpt>
      <trkpt lat="45.95646" lon="4.75835">
        <ele>185</ele>
        <time>2016-08-29T14:09:50Z</time>
      </trkpt>
      <trkpt lat="45.95648" lon="4.75843">
        <ele>185</ele>
        <time>2016-08-29T14:09:51Z</time>
      </trkpt>
      <trkpt lat="45.9565" lon="4.75852">
        <ele>184</ele>
        <time>2016-08-29T14:09:52Z</time>
      </trkpt>
      <trkpt lat="45.95653" lon="4.7586">
        <ele>184</ele>
        <time>2016-08-29T14:09:53Z</time>
      </trkpt>
      <trkpt lat="45.95655" lon="4.75868">
        <ele>184</ele>
        <time>2016-08-29T14:09:54Z</time>
      </trkpt>
      <trkpt lat="45.95658" lon="4.75876">
        <ele>184</ele>
        <time>2016-08-29T14:09:55Z</time>
      </trkpt>
      <trkpt lat="45.9566" lon="4.75885">
        <ele>184</ele>
        <time>2016-08-29T14:09:56Z</time>
      </trkpt>
      <trkpt lat="45.95663" lon="4.75892">
        <ele>184</ele>
        <time>2016-08-29T14:09:57Z</time>
      </trkpt>
      <trkpt lat="45.95666" lon="4.759">
        <ele>184</ele>
        <time>2016-08-29T14:09:58Z</time>
      </trkpt>
      <trkpt lat="45.9567" lon="4.75908">
        <ele>185</ele>
        <time>2016-08-29T14:09:59Z</time>
      </trkpt>
      <trkpt lat="45.95673" lon="4.75916">
        <ele>185</ele>
        <time>2016-08-29T14:10:00Z</time>
      </trkpt>
      <trkpt lat="45.95676" lon="4.75924">
        <ele>184</ele>
        <time>2016-08-29T14:10:01Z</time>
      </trkpt>
      <trkpt lat="45.95679" lon="4.75931">
        <ele>185</ele>
        <time>2016-08-29T14:10:02Z</time>
      </trkpt>
      <trkpt lat="45.95682" lon="4.75939">
        <ele>185</ele>
        <time>2016-08-29T14:10:03Z</time>
      </trkpt>
      <trkpt lat="45.95685" lon="4.75946">
        <ele>185</ele>
        <time>2016-08-29T14:10:04Z</time>
      </trkpt>
      <trkpt lat="45.95688" lon="4.75952">
        <ele>185</ele>
        <time>2016-08-29T14:10:05Z</time>
      </trkpt>
      <trkpt lat="45.95691" lon="4.75959">
        <ele>185</ele>
        <time>2016-08-29T14:10:06Z</time>
      </trkpt>
      <trkpt lat="45.95695" lon="4.75966">
        <ele>185</ele>
        <time>2016-08-29T14:10:07Z</time>
      </trkpt>
      <trkpt lat="45.95698" lon="4.75973">
        <ele>185</ele>
        <time>2016-08-29T14:10:08Z</time>
      </trkpt>
      <trkpt lat="45.95701" lon="4.75979">
        <ele>185</ele>
        <time>2016-08-29T14:10:09Z</time>
      </trkpt>
      <trkpt lat="45.95704" lon="4.75986">
        <ele>185</ele>
        <time>2016-08-29T14:10:10Z</time>
      </trkpt>
      <trkpt lat="45.95707" lon="4.75992">
        <ele>185</ele>
        <time>2016-08-29T14:10:11Z</time>
      </trkpt>
      <trkpt lat="45.9571" lon="4.75999">
        <ele>185</ele>
        <time>2016-08-29T14:10:12Z</time>
      </trkpt>
      <trkpt lat="45.95714" lon="4.76005">
        <ele>184</ele>
        <time>2016-08-29T14:10:13Z</time>
      </trkpt>
      <trkpt lat="45.95717" lon="4.76012">
        <ele>184</ele>
        <time>2016-08-29T14:10:14Z</time>
      </trkpt>
      <trkpt lat="45.95719" lon="4.76018">
        <ele>184</ele>
        <time>2016-08-29T14:10:15Z</time>
      </trkpt>
      <trkpt lat="45.95722" lon="4.76025">
        <ele>184</ele>
        <time>2016-08-29T14:10:16Z</time>
      </trkpt>
      <trkpt lat="45.95725" lon="4.76032">
        <ele>184</ele>
        <time>2016-08-29T14:10:17Z</time>
      </trkpt>
      <trkpt lat="45.95728" lon="4.76038">
        <ele>184</ele>
        <time>2016-08-29T14:10:18Z</time>
      </trkpt>
      <trkpt lat="45.95732" lon="4.76045">
        <ele>184</ele>
        <time>2016-08-29T14:10:19Z</time>
      </trkpt>
      <trkpt lat="45.95734" lon="4.76051">
        <ele>184</ele>
        <time>2016-08-29T14:10:20Z</time>
      </trkpt>
      <trkpt lat="45.95737" lon="4.76057">
        <ele>184</ele>
        <time>2016-08-29T14:10:21Z</time>
      </trkpt>
      <trkpt lat="45.9574" lon="4.76065">
        <ele>184</ele>
        <time>2016-08-29T14:10:22Z</time>
      </trkpt>
      <trkpt lat="45.95743" lon="4.76072">
        <ele>185</ele>
        <time>2016-08-29T14:10:23Z</time>
      </trkpt>
      <trkpt lat="45.95746" lon="4.76079">
        <ele>185</ele>
        <time>2016-08-29T14:10:24Z</time>
      </trkpt>
      <trkpt lat="45.95749" lon="4.76086">
        <ele>185</ele>
        <time>2016-08-29T14:10:25Z</time>
      </trkpt>
      <trkpt lat="45.95751" lon="4.76093">
        <ele>185</ele>
        <time>2016-08-29T14:10:26Z</time>
      </trkpt>
      <trkpt lat="45.95753" lon="4.76099">
        <ele>186</ele>
        <time>2016-08-29T14:10:27Z</time>
      </trkpt>
      <trkpt lat="45.95754" lon="4.76106">
        <ele>186</ele>
        <time>2016-08-29T14:10:28Z</time>
      </trkpt>
      <trkpt lat="45.95756" lon="4.76113">
        <ele>186</ele>
        <time>2016-08-29T14:10:29Z</time>
      </trkpt>
      <trkpt lat="45.95757" lon="4.76121">
        <ele>186</ele>
        <time>2016-08-29T14:10:30Z</time>
      </trkpt>
      <trkpt lat="45.95758" lon="4.76128">
        <ele>186</ele>
        <time>2016-08-29T14:10:31Z</time>
      </trkpt>
      <trkpt lat="45.95759" lon="4.76136">
        <ele>186</ele>
        <time>2016-08-29T14:10:32Z</time>
      </trkpt>
      <trkpt lat="45.95759" lon="4.76143">
        <ele>186</ele>
        <time>2016-08-29T14:10:33Z</time>
      </trkpt>
      <trkpt lat="45.9576" lon="4.76151">
        <ele>186</ele>
        <time>2016-08-29T14:10:34Z</time>
      </trkpt>
      <trkpt lat="45.95761" lon="4.76158">
        <ele>186</ele>
        <time>2016-08-29T14:10:35Z</time>
      </trkpt>
      <trkpt lat="45.95761" lon="4.76166">
        <ele>186</ele>
        <time>2016-08-29T14:10:36Z</time>
      </trkpt>
      <trkpt lat="45.95761" lon="4.76174">
        <ele>185</ele>
        <time>2016-08-29T14:10:37Z</time>
      </trkpt>
      <trkpt lat="45.95762" lon="4.76182">
        <ele>186</ele>
        <time>2016-08-29T14:10:38Z</time>
      </trkpt>
      <trkpt lat="45.95762" lon="4.7619">
        <ele>186</ele>
        <time>2016-08-29T14:10:39Z</time>
      </trkpt>
      <trkpt lat="45.95763" lon="4.76198">
        <ele>186</ele>
        <time>2016-08-29T14:10:40Z</time>
      </trkpt>
      <trkpt lat="45.95763" lon="4.76206">
        <ele>186</ele>
        <time>2016-08-29T14:10:41Z</time>
      </trkpt>
      <trkpt lat="45.95763" lon="4.76214">
        <ele>186</ele>
        <time>2016-08-29T14:10:42Z</time>
      </trkpt>
      <trkpt lat="45.95764" lon="4.76221">
        <ele>186</ele>
        <time>2016-08-29T14:10:43Z</time>
      </trkpt>
      <trkpt lat="45.95764" lon="4.76229">
        <ele>186</ele>
        <time>2016-08-29T14:10:44Z</time>
      </trkpt>
      <trkpt lat="45.95765" lon="4.76236">
        <ele>186</ele>
        <time>2016-08-29T14:10:45Z</time>
      </trkpt>
      <trkpt lat="45.95765" lon="4.76244">
        <ele>185</ele>
        <time>2016-08-29T14:10:46Z</time>
      </trkpt>
      <trkpt lat="45.95765" lon="4.76251">
        <ele>185</ele>
        <time>2016-08-29T14:10:47Z</time>
      </trkpt>
      <trkpt lat="45.95765" lon="4.76259">
        <ele>185</ele>
        <time>2016-08-29T14:10:48Z</time>
      </trkpt>
      <trkpt lat="45.95766" lon="4.76267">
        <ele>185</ele>
        <time>2016-08-29T14:10:49Z</time>
      </trkpt>
      <trkpt lat="45.95767" lon="4.76275">
        <ele>186</ele>
        <time>2016-08-29T14:10:50Z</time>
      </trkpt>
      <trkpt lat="45.95767" lon="4.76282">
        <ele>186</ele>
        <time>2016-08-29T14:10:51Z</time>
      </trkpt>
      <trkpt lat="45.95767" lon="4.7629">
        <ele>186</ele>
        <time>2016-08-29T14:10:52Z</time>
      </trkpt>
      <trkpt lat="45.95767" lon="4.76297">
        <ele>186</ele>
        <time>2016-08-29T14:10:53Z</time>
      </trkpt>
      <trkpt lat="45.95768" lon="4.76305">
        <ele>186</ele>
        <time>2016-08-29T14:10:54Z</time>
      </trkpt>
      <trkpt lat="45.95768" lon="4.76313">
        <ele>185</ele>
        <time>2016-08-29T14:10:55Z</time>
      </trkpt>
      <trkpt lat="45.95769" lon="4.7632">
        <ele>185</ele>
        <time>2016-08-29T14:10:56Z</time>
      </trkpt>
      <trkpt lat="45.95769" lon="4.76328">
        <ele>185</ele>
        <time>2016-08-29T14:10:57Z</time>
      </trkpt>
      <trkpt lat="45.9577" lon="4.76336">
        <ele>186</ele>
        <time>2016-08-29T14:10:58Z</time>
      </trkpt>
      <trkpt lat="45.9577" lon="4.76345">
        <ele>186</ele>
        <time>2016-08-29T14:10:59Z</time>
      </trkpt>
      <trkpt lat="45.95771" lon="4.76353">
        <ele>186</ele>
        <time>2016-08-29T14:11:00Z</time>
      </trkpt>
      <trkpt lat="45.95771" lon="4.7636">
        <ele>186</ele>
        <time>2016-08-29T14:11:01Z</time>
      </trkpt>
      <trkpt lat="45.95772" lon="4.76368">
        <ele>186</ele>
        <time>2016-08-29T14:11:02Z</time>
      </trkpt>
      <trkpt lat="45.95772" lon="4.76376">
        <ele>186</ele>
        <time>2016-08-29T14:11:03Z</time>
      </trkpt>
      <trkpt lat="45.95773" lon="4.76384">
        <ele>186</ele>
        <time>2016-08-29T14:11:04Z</time>
      </trkpt>
      <trkpt lat="45.95774" lon="4.76392">
        <ele>186</ele>
        <time>2016-08-29T14:11:05Z</time>
      </trkpt>
      <trkpt lat="45.95774" lon="4.764">
        <ele>186</ele>
        <time>2016-08-29T14:11:06Z</time>
      </trkpt>
      <trkpt lat="45.95775" lon="4.76408">
        <ele>186</ele>
        <time>2016-08-29T14:11:07Z</time>
      </trkpt>
      <trkpt lat="45.95776" lon="4.76415">
        <ele>186</ele>
        <time>2016-08-29T14:11:08Z</time>
      </trkpt>
      <trkpt lat="45.95777" lon="4.76424">
        <ele>186</ele>
        <time>2016-08-29T14:11:09Z</time>
      </trkpt>
      <trkpt lat="45.95778" lon="4.76432">
        <ele>186</ele>
        <time>2016-08-29T14:11:10Z</time>
      </trkpt>
      <trkpt lat="45.95779" lon="4.7644">
        <ele>186</ele>
        <time>2016-08-29T14:11:11Z</time>
      </trkpt>
      <trkpt lat="45.9578" lon="4.76447">
        <ele>186</ele>
        <time>2016-08-29T14:11:12Z</time>
      </trkpt>
      <trkpt lat="45.95782" lon="4.76456">
        <ele>186</ele>
        <time>2016-08-29T14:11:13Z</time>
      </trkpt>
      <trkpt lat="45.95783" lon="4.76464">
        <ele>186</ele>
        <time>2016-08-29T14:11:14Z</time>
      </trkpt>
      <trkpt lat="45.95784" lon="4.76472">
        <ele>186</ele>
        <time>2016-08-29T14:11:15Z</time>
      </trkpt>
      <trkpt lat="45.95785" lon="4.7648">
        <ele>186</ele>
        <time>2016-08-29T14:11:16Z</time>
      </trkpt>
      <trkpt lat="45.95786" lon="4.76487">
        <ele>186</ele>
        <time>2016-08-29T14:11:17Z</time>
      </trkpt>
      <trkpt lat="45.95788" lon="4.76497">
        <ele>186</ele>
        <time>2016-08-29T14:11:18Z</time>
      </trkpt>
      <trkpt lat="45.9579" lon="4.76507">
        <ele>187</ele>
        <time>2016-08-29T14:11:19Z</time>
      </trkpt>
      <trkpt lat="45.95792" lon="4.76516">
        <ele>187</ele>
        <time>2016-08-29T14:11:20Z</time>
      </trkpt>
      <trkpt lat="45.95794" lon="4.76525">
        <ele>187</ele>
        <time>2016-08-29T14:11:21Z</time>
      </trkpt>
      <trkpt lat="45.95795" lon="4.76533">
        <ele>187</ele>
        <time>2016-08-29T14:11:22Z</time>
      </trkpt>
      <trkpt lat="45.95796" lon="4.7654">
        <ele>187</ele>
        <time>2016-08-29T14:11:23Z</time>
      </trkpt>
      <trkpt lat="45.95797" lon="4.76548">
        <ele>187</ele>
        <time>2016-08-29T14:11:24Z</time>
      </trkpt>
      <trkpt lat="45.95798" lon="4.76556">
        <ele>187</ele>
        <time>2016-08-29T14:11:25Z</time>
      </trkpt>
      <trkpt lat="45.95799" lon="4.76565">
        <ele>187</ele>
        <time>2016-08-29T14:11:26Z</time>
      </trkpt>
      <trkpt lat="45.958" lon="4.76573">
        <ele>187</ele>
        <time>2016-08-29T14:11:27Z</time>
      </trkpt>
      <trkpt lat="45.95801" lon="4.76581">
        <ele>187</ele>
        <time>2016-08-29T14:11:28Z</time>
      </trkpt>
      <trkpt lat="45.95802" lon="4.76589">
        <ele>187</ele>
        <time>2016-08-29T14:11:29Z</time>
      </trkpt>
      <trkpt lat="45.95803" lon="4.76597">
        <ele>188</ele>
        <time>2016-08-29T14:11:30Z</time>
      </trkpt>
      <trkpt lat="45.95804" lon="4.76606">
        <ele>188</ele>
        <time>2016-08-29T14:11:31Z</time>
      </trkpt>
      <trkpt lat="45.95806" lon="4.76614">
        <ele>188</ele>
        <time>2016-08-29T14:11:32Z</time>
      </trkpt>
      <trkpt lat="45.95807" lon="4.76621">
        <ele>188</ele>
        <time>2016-08-29T14:11:33Z</time>
      </trkpt>
      <trkpt lat="45.95808" lon="4.7663">
        <ele>188</ele>
        <time>2016-08-29T14:11:34Z</time>
      </trkpt>
      <trkpt lat="45.95809" lon="4.76638">
        <ele>188</ele>
        <time>2016-08-29T14:11:35Z</time>
      </trkpt>
      <trkpt lat="45.9581" lon="4.76645">
        <ele>188</ele>
        <time>2016-08-29T14:11:36Z</time>
      </trkpt>
      <trkpt lat="45.95811" lon="4.76652">
        <ele>188</ele>
        <time>2016-08-29T14:11:37Z</time>
      </trkpt>
      <trkpt lat="45.95812" lon="4.7666">
        <ele>188</ele>
        <time>2016-08-29T14:11:38Z</time>
      </trkpt>
      <trkpt lat="45.95813" lon="4.76668">
        <ele>189</ele>
        <time>2016-08-29T14:11:39Z</time>
      </trkpt>
      <trkpt lat="45.95814" lon="4.76675">
        <ele>189</ele>
        <time>2016-08-29T14:11:40Z</time>
      </trkpt>
      <trkpt lat="45.95815" lon="4.76683">
        <ele>189</ele>
        <time>2016-08-29T14:11:41Z</time>
      </trkpt>
      <trkpt lat="45.95816" lon="4.76691">
        <ele>189</ele>
        <time>2016-08-29T14:11:42Z</time>
      </trkpt>
      <trkpt lat="45.95817" lon="4.76698">
        <ele>189</ele>
        <time>2016-08-29T14:11:43Z</time>
      </trkpt>
      <trkpt lat="45.95818" lon="4.76706">
        <ele>189</ele>
        <time>2016-08-29T14:11:44Z</time>
      </trkpt>
      <trkpt lat="45.95819" lon="4.76713">
        <ele>189</ele>
        <time>2016-08-29T14:11:45Z</time>
      </trkpt>
      <trkpt lat="45.9582" lon="4.76721">
        <ele>189</ele>
        <time>2016-08-29T14:11:46Z</time>
      </trkpt>
      <trkpt lat="45.95821" lon="4.76729">
        <ele>190</ele>
        <time>2016-08-29T14:11:47Z</time>
      </trkpt>
      <trkpt lat="45.95822" lon="4.76736">
        <ele>190</ele>
        <time>2016-08-29T14:11:48Z</time>
      </trkpt>
      <trkpt lat="45.95823" lon="4.76743">
        <ele>190</ele>
        <time>2016-08-29T14:11:49Z</time>
      </trkpt>
      <trkpt lat="45.95824" lon="4.76751">
        <ele>191</ele>
        <time>2016-08-29T14:11:50Z</time>
      </trkpt>
      <trkpt lat="45.95825" lon="4.76758">
        <ele>191</ele>
        <time>2016-08-29T14:11:51Z</time>
      </trkpt>
      <trkpt lat="45.95826" lon="4.76766">
        <ele>190</ele>
        <time>2016-08-29T14:11:52Z</time>
      </trkpt>
      <trkpt lat="45.95828" lon="4.76773">
        <ele>190</ele>
        <time>2016-08-29T14:11:53Z</time>
      </trkpt>
      <trkpt lat="45.95829" lon="4.7678">
        <ele>190</ele>
        <time>2016-08-29T14:11:54Z</time>
      </trkpt>
      <trkpt lat="45.95829" lon="4.76787">
        <ele>190</ele>
        <time>2016-08-29T14:11:55Z</time>
      </trkpt>
      <trkpt lat="45.95828" lon="4.76795">
        <ele>190</ele>
        <time>2016-08-29T14:11:56Z</time>
      </trkpt>
      <trkpt lat="45.95828" lon="4.76803">
        <ele>190</ele>
        <time>2016-08-29T14:11:57Z</time>
      </trkpt>
      <trkpt lat="45.95828" lon="4.76811">
        <ele>190</ele>
        <time>2016-08-29T14:11:58Z</time>
      </trkpt>
      <trkpt lat="45.95827" lon="4.7682">
        <ele>190</ele>
        <time>2016-08-29T14:11:59Z</time>
      </trkpt>
      <trkpt lat="45.95826" lon="4.76828">
        <ele>190</ele>
        <time>2016-08-29T14:12:00Z</time>
      </trkpt>
      <trkpt lat="45.95825" lon="4.76837">
        <ele>190</ele>
        <time>2016-08-29T14:12:01Z</time>
      </trkpt>
      <trkpt lat="45.95823" lon="4.76846">
        <ele>190</ele>
        <time>2016-08-29T14:12:02Z</time>
      </trkpt>
      <trkpt lat="45.95821" lon="4.76854">
        <ele>189</ele>
        <time>2016-08-29T14:12:03Z</time>
      </trkpt>
      <trkpt lat="45.9582" lon="4.76862">
        <ele>189</ele>
        <time>2016-08-29T14:12:04Z</time>
      </trkpt>
      <trkpt lat="45.95818" lon="4.76871">
        <ele>189</ele>
        <time>2016-08-29T14:12:05Z</time>
      </trkpt>
      <trkpt lat="45.95817" lon="4.7688">
        <ele>189</ele>
        <time>2016-08-29T14:12:06Z</time>
      </trkpt>
      <trkpt lat="45.95815" lon="4.76888">
        <ele>189</ele>
        <time>2016-08-29T14:12:07Z</time>
      </trkpt>
      <trkpt lat="45.95813" lon="4.76895">
        <ele>189</ele>
        <time>2016-08-29T14:12:08Z</time>
      </trkpt>
      <trkpt lat="45.95811" lon="4.76902">
        <ele>189</ele>
        <time>2016-08-29T14:12:09Z</time>
      </trkpt>
      <trkpt lat="45.9581" lon="4.7691">
        <ele>189</ele>
        <time>2016-08-29T14:12:10Z</time>
      </trkpt>
      <trkpt lat="45.95809" lon="4.76917">
        <ele>189</ele>
        <time>2016-08-29T14:12:11Z</time>
      </trkpt>
      <trkpt lat="45.95808" lon="4.76924">
        <ele>189</ele>
        <time>2016-08-29T14:12:12Z</time>
      </trkpt>
      <trkpt lat="45.95806" lon="4.76932">
        <ele>189</ele>
        <time>2016-08-29T14:12:13Z</time>
      </trkpt>
      <trkpt lat="45.95805" lon="4.76939">
        <ele>189</ele>
        <time>2016-08-29T14:12:14Z</time>
      </trkpt>
      <trkpt lat="45.95803" lon="4.76948">
        <ele>189</ele>
        <time>2016-08-29T14:12:15Z</time>
      </trkpt>
      <trkpt lat="45.95802" lon="4.76956">
        <ele>189</ele>
        <time>2016-08-29T14:12:16Z</time>
      </trkpt>
      <trkpt lat="45.95801" lon="4.76964">
        <ele>189</ele>
        <time>2016-08-29T14:12:17Z</time>
      </trkpt>
      <trkpt lat="45.958" lon="4.76972">
        <ele>189</ele>
        <time>2016-08-29T14:12:18Z</time>
      </trkpt>
      <trkpt lat="45.958" lon="4.7698">
        <ele>189</ele>
        <time>2016-08-29T14:12:19Z</time>
      </trkpt>
      <trkpt lat="45.958" lon="4.76987">
        <ele>189</ele>
        <time>2016-08-29T14:12:20Z</time>
      </trkpt>
      <trkpt lat="45.958" lon="4.76995">
        <ele>189</ele>
        <time>2016-08-29T14:12:21Z</time>
      </trkpt>
      <trkpt lat="45.95801" lon="4.77002">
        <ele>190</ele>
        <time>2016-08-29T14:12:22Z</time>
      </trkpt>
      <trkpt lat="45.95802" lon="4.77009">
        <ele>190</ele>
        <time>2016-08-29T14:12:23Z</time>
      </trkpt>
      <trkpt lat="45.95803" lon="4.77016">
        <ele>190</ele>
        <time>2016-08-29T14:12:24Z</time>
      </trkpt>
      <trkpt lat="45.95806" lon="4.77022">
        <ele>190</ele>
        <time>2016-08-29T14:12:25Z</time>
      </trkpt>
      <trkpt lat="45.95808" lon="4.7703">
        <ele>190</ele>
        <time>2016-08-29T14:12:26Z</time>
      </trkpt>
      <trkpt lat="45.95811" lon="4.77037">
        <ele>190</ele>
        <time>2016-08-29T14:12:27Z</time>
      </trkpt>
      <trkpt lat="45.95814" lon="4.77043">
        <ele>190</ele>
        <time>2016-08-29T14:12:28Z</time>
      </trkpt>
      <trkpt lat="45.95817" lon="4.77049">
        <ele>190</ele>
        <time>2016-08-29T14:12:29Z</time>
      </trkpt>
      <trkpt lat="45.9582" lon="4.77056">
        <ele>190</ele>
        <time>2016-08-29T14:12:30Z</time>
      </trkpt>
      <trkpt lat="45.95822" lon="4.77063">
        <ele>190</ele>
        <time>2016-08-29T14:12:31Z</time>
      </trkpt>
      <trkpt lat="45.95825" lon="4.77069">
        <ele>191</ele>
        <time>2016-08-29T14:12:32Z</time>
      </trkpt>
      <trkpt lat="45.95827" lon="4.77076">
        <ele>191</ele>
        <time>2016-08-29T14:12:33Z</time>
      </trkpt>
      <trkpt lat="45.95829" lon="4.77083">
        <ele>192</ele>
        <time>2016-08-29T14:12:34Z</time>
      </trkpt>
      <trkpt lat="45.95832" lon="4.7709">
        <ele>191</ele>
        <time>2016-08-29T14:12:35Z</time>
      </trkpt>
      <trkpt lat="45.95834" lon="4.77097">
        <ele>193</ele>
        <time>2016-08-29T14:12:36Z</time>
      </trkpt>
      <trkpt lat="45.95836" lon="4.77103">
        <ele>193</ele>
        <time>2016-08-29T14:12:37Z</time>
      </trkpt>
      <trkpt lat="45.95838" lon="4.7711">
        <ele>193</ele>
        <time>2016-08-29T14:12:38Z</time>
      </trkpt>
      <trkpt lat="45.9584" lon="4.77117">
        <ele>193</ele>
        <time>2016-08-29T14:12:39Z</time>
      </trkpt>
      <trkpt lat="45.95842" lon="4.77124">
        <ele>193</ele>
        <time>2016-08-29T14:12:40Z</time>
      </trkpt>
      <trkpt lat="45.95844" lon="4.7713">
        <ele>193</ele>
        <time>2016-08-29T14:12:41Z</time>
      </trkpt>
      <trkpt lat="45.95845" lon="4.77136">
        <ele>193</ele>
        <time>2016-08-29T14:12:42Z</time>
      </trkpt>
      <trkpt lat="45.95847" lon="4.77143">
        <ele>192</ele>
        <time>2016-08-29T14:12:43Z</time>
      </trkpt>
      <trkpt lat="45.95849" lon="4.7715">
        <ele>192</ele>
        <time>2016-08-29T14:12:44Z</time>
      </trkpt>
      <trkpt lat="45.95851" lon="4.77156">
        <ele>192</ele>
        <time>2016-08-29T14:12:45Z</time>
      </trkpt>
      <trkpt lat="45.95853" lon="4.77163">
        <ele>192</ele>
        <time>2016-08-29T14:12:46Z</time>
      </trkpt>
      <trkpt lat="45.95855" lon="4.7717">
        <ele>192</ele>
        <time>2016-08-29T14:12:47Z</time>
      </trkpt>
      <trkpt lat="45.95857" lon="4.77178">
        <ele>192</ele>
        <time>2016-08-29T14:12:48Z</time>
      </trkpt>
      <trkpt lat="45.95858" lon="4.77185">
        <ele>192</ele>
        <time>2016-08-29T14:12:49Z</time>
      </trkpt>
      <trkpt lat="45.9586" lon="4.77192">
        <ele>192</ele>
        <time>2016-08-29T14:12:50Z</time>
      </trkpt>
      <trkpt lat="45.95862" lon="4.77198">
        <ele>192</ele>
        <time>2016-08-29T14:12:51Z</time>
      </trkpt>
      <trkpt lat="45.95864" lon="4.77205">
        <ele>193</ele>
        <time>2016-08-29T14:12:52Z</time>
      </trkpt>
      <trkpt lat="45.95865" lon="4.77212">
        <ele>193</ele>
        <time>2016-08-29T14:12:53Z</time>
      </trkpt>
      <trkpt lat="45.95867" lon="4.77219">
        <ele>193</ele>
        <time>2016-08-29T14:12:54Z</time>
      </trkpt>
      <trkpt lat="45.95869" lon="4.77226">
        <ele>193</ele>
        <time>2016-08-29T14:12:55Z</time>
      </trkpt>
      <trkpt lat="45.9587" lon="4.77233">
        <ele>193</ele>
        <time>2016-08-29T14:12:56Z</time>
      </trkpt>
      <trkpt lat="45.95871" lon="4.77241">
        <ele>193</ele>
        <time>2016-08-29T14:12:57Z</time>
      </trkpt>
      <trkpt lat="45.95872" lon="4.77249">
        <ele>193</ele>
        <time>2016-08-29T14:12:58Z</time>
      </trkpt>
      <trkpt lat="45.95874" lon="4.77256">
        <ele>193</ele>
        <time>2016-08-29T14:12:59Z</time>
      </trkpt>
      <trkpt lat="45.95875" lon="4.77263">
        <ele>193</ele>
        <time>2016-08-29T14:13:00Z</time>
      </trkpt>
      <trkpt lat="45.95877" lon="4.77271">
        <ele>193</ele>
        <time>2016-08-29T14:13:01Z</time>
      </trkpt>
      <trkpt lat="45.95878" lon="4.77279">
        <ele>193</ele>
        <time>2016-08-29T14:13:02Z</time>
      </trkpt>
      <trkpt lat="45.9588" lon="4.77286">
        <ele>193</ele>
        <time>2016-08-29T14:13:03Z</time>
      </trkpt>
      <trkpt lat="45.95881" lon="4.77293">
        <ele>193</ele>
        <time>2016-08-29T14:13:04Z</time>
      </trkpt>
      <trkpt lat="45.95883" lon="4.77301">
        <ele>193</ele>
        <time>2016-08-29T14:13:05Z</time>
      </trkpt>
      <trkpt lat="45.95886" lon="4.77308">
        <ele>193</ele>
        <time>2016-08-29T14:13:06Z</time>
      </trkpt>
      <trkpt lat="45.95888" lon="4.77314">
        <ele>193</ele>
        <time>2016-08-29T14:13:07Z</time>
      </trkpt>
      <trkpt lat="45.95891" lon="4.77321">
        <ele>193</ele>
        <time>2016-08-29T14:13:08Z</time>
      </trkpt>
      <trkpt lat="45.95893" lon="4.77327">
        <ele>193</ele>
        <time>2016-08-29T14:13:09Z</time>
      </trkpt>
      <trkpt lat="45.95895" lon="4.77333">
        <ele>193</ele>
        <time>2016-08-29T14:13:10Z</time>
      </trkpt>
      <trkpt lat="45.95897" lon="4.77339">
        <ele>193</ele>
        <time>2016-08-29T14:13:11Z</time>
      </trkpt>
      <trkpt lat="45.95898" lon="4.77345">
        <ele>193</ele>
        <time>2016-08-29T14:13:12Z</time>
      </trkpt>
      <trkpt lat="45.959" lon="4.77351">
        <ele>193</ele>
        <time>2016-08-29T14:13:13Z</time>
      </trkpt>
      <trkpt lat="45.95902" lon="4.77357">
        <ele>193</ele>
        <time>2016-08-29T14:13:14Z</time>
      </trkpt>
      <trkpt lat="45.95905" lon="4.77364">
        <ele>193</ele>
        <time>2016-08-29T14:13:15Z</time>
      </trkpt>
      <trkpt lat="45.95908" lon="4.77371">
        <ele>193</ele>
        <time>2016-08-29T14:13:16Z</time>
      </trkpt>
      <trkpt lat="45.9591" lon="4.77378">
        <ele>193</ele>
        <time>2016-08-29T14:13:17Z</time>
      </trkpt>
      <trkpt lat="45.95913" lon="4.77384">
        <ele>193</ele>
        <time>2016-08-29T14:13:18Z</time>
      </trkpt>
      <trkpt lat="45.95915" lon="4.7739">
        <ele>193</ele>
        <time>2016-08-29T14:13:19Z</time>
      </trkpt>
      <trkpt lat="45.95918" lon="4.77397">
        <ele>196</ele>
        <time>2016-08-29T14:13:20Z</time>
      </trkpt>
      <trkpt lat="45.9592" lon="4.77404">
        <ele>195</ele>
        <time>2016-08-29T14:13:21Z</time>
      </trkpt>
      <trkpt lat="45.95922" lon="4.77411">
        <ele>195</ele>
        <time>2016-08-29T14:13:22Z</time>
      </trkpt>
      <trkpt lat="45.95924" lon="4.77417">
        <ele>195</ele>
        <time>2016-08-29T14:13:23Z</time>
      </trkpt>
      <trkpt lat="45.95926" lon="4.77423">
        <ele>195</ele>
        <time>2016-08-29T14:13:24Z</time>
      </trkpt>
      <trkpt lat="45.95928" lon="4.77429">
        <ele>195</ele>
        <time>2016-08-29T14:13:25Z</time>
      </trkpt>
      <trkpt lat="45.9593" lon="4.77435">
        <ele>195</ele>
        <time>2016-08-29T14:13:26Z</time>
      </trkpt>
      <trkpt lat="45.95932" lon="4.77441">
        <ele>195</ele>
        <time>2016-08-29T14:13:27Z</time>
      </trkpt>
      <trkpt lat="45.95934" lon="4.77448">
        <ele>195</ele>
        <time>2016-08-29T14:13:28Z</time>
      </trkpt>
      <trkpt lat="45.95936" lon="4.77454">
        <ele>195</ele>
        <time>2016-08-29T14:13:29Z</time>
      </trkpt>
      <trkpt lat="45.95939" lon="4.7746">
        <ele>195</ele>
        <time>2016-08-29T14:13:30Z</time>
      </trkpt>
      <trkpt lat="45.95941" lon="4.77467">
        <ele>195</ele>
        <time>2016-08-29T14:13:31Z</time>
      </trkpt>
      <trkpt lat="45.95944" lon="4.77473">
        <ele>195</ele>
        <time>2016-08-29T14:13:32Z</time>
      </trkpt>
      <trkpt lat="45.95947" lon="4.7748">
        <ele>195</ele>
        <time>2016-08-29T14:13:33Z</time>
      </trkpt>
      <trkpt lat="45.95949" lon="4.77487">
        <ele>195</ele>
        <time>2016-08-29T14:13:34Z</time>
      </trkpt>
      <trkpt lat="45.95951" lon="4.77493">
        <ele>195</ele>
        <time>2016-08-29T14:13:35Z</time>
      </trkpt>
      <trkpt lat="45.95954" lon="4.77499">
        <ele>196</ele>
        <time>2016-08-29T14:13:36Z</time>
      </trkpt>
      <trkpt lat="45.95956" lon="4.77505">
        <ele>195</ele>
        <time>2016-08-29T14:13:37Z</time>
      </trkpt>
      <trkpt lat="45.95958" lon="4.77511">
        <ele>195</ele>
        <time>2016-08-29T14:13:38Z</time>
      </trkpt>
      <trkpt lat="45.9596" lon="4.77517">
        <ele>195</ele>
        <time>2016-08-29T14:13:39Z</time>
      </trkpt>
      <trkpt lat="45.95965" lon="4.77528">
        <ele>195</ele>
        <time>2016-08-29T14:13:41Z</time>
      </trkpt>
      <trkpt lat="45.95967" lon="4.77532">
        <ele>195</ele>
        <time>2016-08-29T14:13:42Z</time>
      </trkpt>
      <trkpt lat="45.95971" lon="4.77541">
        <ele>195</ele>
        <time>2016-08-29T14:13:44Z</time>
      </trkpt>
      <trkpt lat="45.95973" lon="4.77546">
        <ele>195</ele>
        <time>2016-08-29T14:13:45Z</time>
      </trkpt>
      <trkpt lat="45.95978" lon="4.77556">
        <ele>195</ele>
        <time>2016-08-29T14:13:47Z</time>
      </trkpt>
      <trkpt lat="45.95981" lon="4.77561">
        <ele>196</ele>
        <time>2016-08-29T14:13:48Z</time>
      </trkpt>
      <trkpt lat="45.95981" lon="4.77576">
        <ele>196</ele>
        <time>2016-08-29T14:13:49Z</time>
      </trkpt>
      <trkpt lat="45.95985" lon="4.77585">
        <ele>195</ele>
        <time>2016-08-29T14:13:50Z</time>
      </trkpt>
      <trkpt lat="45.95988" lon="4.77591">
        <ele>195</ele>
        <time>2016-08-29T14:13:51Z</time>
      </trkpt>
      <trkpt lat="45.95993" lon="4.77601">
        <ele>195</ele>
        <time>2016-08-29T14:13:53Z</time>
      </trkpt>
      <trkpt lat="45.95996" lon="4.77604">
        <ele>195</ele>
        <time>2016-08-29T14:13:54Z</time>
      </trkpt>
      <trkpt lat="45.96" lon="4.77608">
        <ele>198</ele>
        <time>2016-08-29T14:13:55Z</time>
      </trkpt>
      <trkpt lat="45.96005" lon="4.77611">
        <ele>198</ele>
        <time>2016-08-29T14:13:56Z</time>
      </trkpt>
      <trkpt lat="45.96009" lon="4.77614">
        <ele>199</ele>
        <time>2016-08-29T14:13:57Z</time>
      </trkpt>
      <trkpt lat="45.96013" lon="4.77618">
        <ele>199</ele>
        <time>2016-08-29T14:13:58Z</time>
      </trkpt>
      <trkpt lat="45.9602" lon="4.77623">
        <ele>199</ele>
        <time>2016-08-29T14:14:00Z</time>
      </trkpt>
      <trkpt lat="45.96024" lon="4.77627">
        <ele>199</ele>
        <time>2016-08-29T14:14:01Z</time>
      </trkpt>
      <trkpt lat="45.96027" lon="4.77631">
        <ele>199</ele>
        <time>2016-08-29T14:14:02Z</time>
      </trkpt>
      <trkpt lat="45.96031" lon="4.77636">
        <ele>199</ele>
        <time>2016-08-29T14:14:03Z</time>
      </trkpt>
      <trkpt lat="45.96035" lon="4.7764">
        <ele>199</ele>
        <time>2016-08-29T14:14:04Z</time>
      </trkpt>
      <trkpt lat="45.96039" lon="4.77645">
        <ele>199</ele>
        <time>2016-08-29T14:14:05Z</time>
      </trkpt>
      <trkpt lat="45.96043" lon="4.7765">
        <ele>199</ele>
        <time>2016-08-29T14:14:06Z</time>
      </trkpt>
      <trkpt lat="45.96046" lon="4.77655">
        <ele>199</ele>
        <time>2016-08-29T14:14:07Z</time>
      </trkpt>
      <trkpt lat="45.9605" lon="4.7766">
        <ele>200</ele>
        <time>2016-08-29T14:14:08Z</time>
      </trkpt>
      <trkpt lat="45.96054" lon="4.77665">
        <ele>200</ele>
        <time>2016-08-29T14:14:09Z</time>
      </trkpt>
      <trkpt lat="45.96058" lon="4.77669">
        <ele>198</ele>
        <time>2016-08-29T14:14:10Z</time>
      </trkpt>
      <trkpt lat="45.96062" lon="4.77674">
        <ele>198</ele>
        <time>2016-08-29T14:14:11Z</time>
      </trkpt>
      <trkpt lat="45.96065" lon="4.77679">
        <ele>198</ele>
        <time>2016-08-29T14:14:12Z</time>
      </trkpt>
      <trkpt lat="45.96069" lon="4.77684">
        <ele>198</ele>
        <time>2016-08-29T14:14:13Z</time>
      </trkpt>
      <trkpt lat="45.96072" lon="4.77689">
        <ele>198</ele>
        <time>2016-08-29T14:14:14Z</time>
      </trkpt>
      <trkpt lat="45.96075" lon="4.77694">
        <ele>197</ele>
        <time>2016-08-29T14:14:15Z</time>
      </trkpt>
      <trkpt lat="45.96078" lon="4.77699">
        <ele>197</ele>
        <time>2016-08-29T14:14:16Z</time>
      </trkpt>
      <trkpt lat="45.96081" lon="4.77704">
        <ele>197</ele>
        <time>2016-08-29T14:14:17Z</time>
      </trkpt>
      <trkpt lat="45.96084" lon="4.77709">
        <ele>200</ele>
        <time>2016-08-29T14:14:18Z</time>
      </trkpt>
      <trkpt lat="45.96086" lon="4.77714">
        <ele>199</ele>
        <time>2016-08-29T14:14:19Z</time>
      </trkpt>
      <trkpt lat="45.96089" lon="4.77719">
        <ele>199</ele>
        <time>2016-08-29T14:14:20Z</time>
      </trkpt>
      <trkpt lat="45.96092" lon="4.77724">
        <ele>199</ele>
        <time>2016-08-29T14:14:21Z</time>
      </trkpt>
      <trkpt lat="45.96095" lon="4.77729">
        <ele>199</ele>
        <time>2016-08-29T14:14:22Z</time>
      </trkpt>
      <trkpt lat="45.96098" lon="4.77734">
        <ele>198</ele>
        <time>2016-08-29T14:14:23Z</time>
      </trkpt>
      <trkpt lat="45.96101" lon="4.77739">
        <ele>198</ele>
        <time>2016-08-29T14:14:24Z</time>
      </trkpt>
      <trkpt lat="45.96104" lon="4.77744">
        <ele>198</ele>
        <time>2016-08-29T14:14:25Z</time>
      </trkpt>
      <trkpt lat="45.96107" lon="4.77749">
        <ele>199</ele>
        <time>2016-08-29T14:14:26Z</time>
      </trkpt>
      <trkpt lat="45.96111" lon="4.77754">
        <ele>197</ele>
        <time>2016-08-29T14:14:27Z</time>
      </trkpt>
      <trkpt lat="45.96114" lon="4.7776">
        <ele>197</ele>
        <time>2016-08-29T14:14:28Z</time>
      </trkpt>
      <trkpt lat="45.96117" lon="4.77765">
        <ele>197</ele>
        <time>2016-08-29T14:14:29Z</time>
      </trkpt>
      <trkpt lat="45.9612" lon="4.77771">
        <ele>197</ele>
        <time>2016-08-29T14:14:30Z</time>
      </trkpt>
      <trkpt lat="45.96124" lon="4.77776">
        <ele>197</ele>
        <time>2016-08-29T14:14:31Z</time>
      </trkpt>
      <trkpt lat="45.9613" lon="4.77784">
        <ele>198</ele>
        <time>2016-08-29T14:14:33Z</time>
      </trkpt>
      <trkpt lat="45.96133" lon="4.77788">
        <ele>198</ele>
        <time>2016-08-29T14:14:34Z</time>
      </trkpt>
      <trkpt lat="45.96136" lon="4.77792">
        <ele>198</ele>
        <time>2016-08-29T14:14:35Z</time>
      </trkpt>
      <trkpt lat="45.9614" lon="4.77799">
        <ele>198</ele>
        <time>2016-08-29T14:14:36Z</time>
      </trkpt>
      <trkpt lat="45.96143" lon="4.77805">
        <ele>198</ele>
        <time>2016-08-29T14:14:37Z</time>
      </trkpt>
      <trkpt lat="45.96145" lon="4.77811">
        <ele>198</ele>
        <time>2016-08-29T14:14:38Z</time>
      </trkpt>
      <trkpt lat="45.9615" lon="4.77816">
        <ele>198</ele>
        <time>2016-08-29T14:14:40Z</time>
      </trkpt>
      <trkpt lat="45.96151" lon="4.7782">
        <ele>198</ele>
        <time>2016-08-29T14:14:41Z</time>
      </trkpt>
      <trkpt lat="45.96154" lon="4.77825">
        <ele>198</ele>
        <time>2016-08-29T14:14:42Z</time>
      </trkpt>
      <trkpt lat="45.96156" lon="4.77831">
        <ele>198</ele>
        <time>2016-08-29T14:14:43Z</time>
      </trkpt>
      <trkpt lat="45.9616" lon="4.77838">
        <ele>198</ele>
        <time>2016-08-29T14:14:44Z</time>
      </trkpt>
      <trkpt lat="45.96163" lon="4.77844">
        <ele>197</ele>
        <time>2016-08-29T14:14:45Z</time>
      </trkpt>
      <trkpt lat="45.96167" lon="4.7785">
        <ele>197</ele>
        <time>2016-08-29T14:14:46Z</time>
      </trkpt>
      <trkpt lat="45.96171" lon="4.77855">
        <ele>201</ele>
        <time>2016-08-29T14:14:47Z</time>
      </trkpt>
      <trkpt lat="45.96174" lon="4.77861">
        <ele>201</ele>
        <time>2016-08-29T14:14:48Z</time>
      </trkpt>
      <trkpt lat="45.96177" lon="4.77868">
        <ele>201</ele>
        <time>2016-08-29T14:14:49Z</time>
      </trkpt>
      <trkpt lat="45.9618" lon="4.77874">
        <ele>201</ele>
        <time>2016-08-29T14:14:50Z</time>
      </trkpt>
      <trkpt lat="45.96184" lon="4.7788">
        <ele>201</ele>
        <time>2016-08-29T14:14:51Z</time>
      </trkpt>
      <trkpt lat="45.96187" lon="4.77885">
        <ele>201</ele>
        <time>2016-08-29T14:14:52Z</time>
      </trkpt>
      <trkpt lat="45.96191" lon="4.77891">
        <ele>201</ele>
        <time>2016-08-29T14:14:53Z</time>
      </trkpt>
      <trkpt lat="45.96194" lon="4.77897">
        <ele>201</ele>
        <time>2016-08-29T14:14:54Z</time>
      </trkpt>
      <trkpt lat="45.96197" lon="4.77903">
        <ele>201</ele>
        <time>2016-08-29T14:14:55Z</time>
      </trkpt>
      <trkpt lat="45.962" lon="4.77909">
        <ele>201</ele>
        <time>2016-08-29T14:14:56Z</time>
      </trkpt>
      <trkpt lat="45.96204" lon="4.77915">
        <ele>202</ele>
        <time>2016-08-29T14:14:57Z</time>
      </trkpt>
      <trkpt lat="45.96208" lon="4.77921">
        <ele>199</ele>
        <time>2016-08-29T14:14:58Z</time>
      </trkpt>
      <trkpt lat="45.96211" lon="4.77927">
        <ele>199</ele>
        <time>2016-08-29T14:14:59Z</time>
      </trkpt>
      <trkpt lat="45.96216" lon="4.77937">
        <ele>199</ele>
        <time>2016-08-29T14:15:01Z</time>
      </trkpt>
      <trkpt lat="45.96219" lon="4.77942">
        <ele>199</ele>
        <time>2016-08-29T14:15:02Z</time>
      </trkpt>
      <trkpt lat="45.96223" lon="4.77946">
        <ele>199</ele>
        <time>2016-08-29T14:15:03Z</time>
      </trkpt>
      <trkpt lat="45.96228" lon="4.7795">
        <ele>199</ele>
        <time>2016-08-29T14:15:04Z</time>
      </trkpt>
      <trkpt lat="45.96235" lon="4.77957">
        <ele>199</ele>
        <time>2016-08-29T14:15:06Z</time>
      </trkpt>
      <trkpt lat="45.96239" lon="4.77962">
        <ele>199</ele>
        <time>2016-08-29T14:15:07Z</time>
      </trkpt>
      <trkpt lat="45.96243" lon="4.77967">
        <ele>198</ele>
        <time>2016-08-29T14:15:08Z</time>
      </trkpt>
      <trkpt lat="45.96248" lon="4.77971">
        <ele>198</ele>
        <time>2016-08-29T14:15:09Z</time>
      </trkpt>
      <trkpt lat="45.96254" lon="4.77975">
        <ele>203</ele>
        <time>2016-08-29T14:15:10Z</time>
      </trkpt>
      <trkpt lat="45.96259" lon="4.77979">
        <ele>202</ele>
        <time>2016-08-29T14:15:11Z</time>
      </trkpt>
      <trkpt lat="45.96264" lon="4.77983">
        <ele>202</ele>
        <time>2016-08-29T14:15:12Z</time>
      </trkpt>
      <trkpt lat="45.96269" lon="4.77987">
        <ele>202</ele>
        <time>2016-08-29T14:15:13Z</time>
      </trkpt>
      <trkpt lat="45.96273" lon="4.77992">
        <ele>202</ele>
        <time>2016-08-29T14:15:14Z</time>
      </trkpt>
      <trkpt lat="45.96278" lon="4.77996">
        <ele>203</ele>
        <time>2016-08-29T14:15:15Z</time>
      </trkpt>
      <trkpt lat="45.96284" lon="4.78">
        <ele>199</ele>
        <time>2016-08-29T14:15:16Z</time>
      </trkpt>
      <trkpt lat="45.96289" lon="4.78005">
        <ele>199</ele>
        <time>2016-08-29T14:15:17Z</time>
      </trkpt>
      <trkpt lat="45.96294" lon="4.78011">
        <ele>199</ele>
        <time>2016-08-29T14:15:18Z</time>
      </trkpt>
      <trkpt lat="45.963" lon="4.78016">
        <ele>199</ele>
        <time>2016-08-29T14:15:19Z</time>
      </trkpt>
      <trkpt lat="45.96305" lon="4.78025">
        <ele>199</ele>
        <time>2016-08-29T14:15:20Z</time>
      </trkpt>
      <trkpt lat="45.96308" lon="4.7803">
        <ele>199</ele>
        <time>2016-08-29T14:15:21Z</time>
      </trkpt>
      <trkpt lat="45.96312" lon="4.78035">
        <ele>199</ele>
        <time>2016-08-29T14:15:22Z</time>
      </trkpt>
      <trkpt lat="45.96316" lon="4.7804">
        <ele>199</ele>
        <time>2016-08-29T14:15:23Z</time>
      </trkpt>
      <trkpt lat="45.96321" lon="4.78046">
        <ele>199</ele>
        <time>2016-08-29T14:15:24Z</time>
      </trkpt>
      <trkpt lat="45.96326" lon="4.78052">
        <ele>199</ele>
        <time>2016-08-29T14:15:25Z</time>
      </trkpt>
      <trkpt lat="45.9633" lon="4.78058">
        <ele>199</ele>
        <time>2016-08-29T14:15:26Z</time>
      </trkpt>
      <trkpt lat="45.96335" lon="4.78064">
        <ele>201</ele>
        <time>2016-08-29T14:15:27Z</time>
      </trkpt>
      <trkpt lat="45.96339" lon="4.7807">
        <ele>201</ele>
        <time>2016-08-29T14:15:28Z</time>
      </trkpt>
      <trkpt lat="45.96344" lon="4.78075">
        <ele>201</ele>
        <time>2016-08-29T14:15:29Z</time>
      </trkpt>
      <trkpt lat="45.96349" lon="4.7808">
        <ele>201</ele>
        <time>2016-08-29T14:15:30Z</time>
      </trkpt>
      <trkpt lat="45.96353" lon="4.78085">
        <ele>199</ele>
        <time>2016-08-29T14:15:31Z</time>
      </trkpt>
      <trkpt lat="45.96358" lon="4.78089">
        <ele>199</ele>
        <time>2016-08-29T14:15:32Z</time>
      </trkpt>
      <trkpt lat="45.96363" lon="4.78092">
        <ele>199</ele>
        <time>2016-08-29T14:15:33Z</time>
      </trkpt>
      <trkpt lat="45.96368" lon="4.78096">
        <ele>199</ele>
        <time>2016-08-29T14:15:34Z</time>
      </trkpt>
      <trkpt lat="45.96373" lon="4.781">
        <ele>199</ele>
        <time>2016-08-29T14:15:35Z</time>
      </trkpt>
      <trkpt lat="45.96377" lon="4.78104">
        <ele>200</ele>
        <time>2016-08-29T14:15:36Z</time>
      </trkpt>
      <trkpt lat="45.96382" lon="4.78108">
        <ele>200</ele>
        <time>2016-08-29T14:15:37Z</time>
      </trkpt>
      <trkpt lat="45.96387" lon="4.78113">
        <ele>200</ele>
        <time>2016-08-29T14:15:38Z</time>
      </trkpt>
      <trkpt lat="45.96392" lon="4.78117">
        <ele>200</ele>
        <time>2016-08-29T14:15:39Z</time>
      </trkpt>
      <trkpt lat="45.96396" lon="4.78121">
        <ele>200</ele>
        <time>2016-08-29T14:15:40Z</time>
      </trkpt>
      <trkpt lat="45.96401" lon="4.78125">
        <ele>200</ele>
        <time>2016-08-29T14:15:41Z</time>
      </trkpt>
      <trkpt lat="45.96406" lon="4.7813">
        <ele>199</ele>
        <time>2016-08-29T14:15:42Z</time>
      </trkpt>
      <trkpt lat="45.9641" lon="4.78135">
        <ele>199</ele>
        <time>2016-08-29T14:15:43Z</time>
      </trkpt>
      <trkpt lat="45.96415" lon="4.7814">
        <ele>199</ele>
        <time>2016-08-29T14:15:44Z</time>
      </trkpt>
      <trkpt lat="45.9642" lon="4.78145">
        <ele>202</ele>
        <time>2016-08-29T14:15:45Z</time>
      </trkpt>
      <trkpt lat="45.96425" lon="4.7815">
        <ele>202</ele>
        <time>2016-08-29T14:15:46Z</time>
      </trkpt>
      <trkpt lat="45.9643" lon="4.78154">
        <ele>202</ele>
        <time>2016-08-29T14:15:47Z</time>
      </trkpt>
      <trkpt lat="45.96435" lon="4.78159">
        <ele>202</ele>
        <time>2016-08-29T14:15:48Z</time>
      </trkpt>
      <trkpt lat="45.9644" lon="4.78163">
        <ele>203</ele>
        <time>2016-08-29T14:15:49Z</time>
      </trkpt>
      <trkpt lat="45.96445" lon="4.78168">
        <ele>199</ele>
        <time>2016-08-29T14:15:50Z</time>
      </trkpt>
      <trkpt lat="45.9645" lon="4.78172">
        <ele>199</ele>
        <time>2016-08-29T14:15:51Z</time>
      </trkpt>
      <trkpt lat="45.96456" lon="4.78176">
        <ele>200</ele>
        <time>2016-08-29T14:15:52Z</time>
      </trkpt>
      <trkpt lat="45.9646" lon="4.7818">
        <ele>200</ele>
        <time>2016-08-29T14:15:53Z</time>
      </trkpt>
      <trkpt lat="45.96465" lon="4.78183">
        <ele>200</ele>
        <time>2016-08-29T14:15:54Z</time>
      </trkpt>
      <trkpt lat="45.96471" lon="4.78186">
        <ele>200</ele>
        <time>2016-08-29T14:15:55Z</time>
      </trkpt>
      <trkpt lat="45.96477" lon="4.78188">
        <ele>201</ele>
        <time>2016-08-29T14:15:56Z</time>
      </trkpt>
      <trkpt lat="45.96482" lon="4.7819">
        <ele>201</ele>
        <time>2016-08-29T14:15:57Z</time>
      </trkpt>
      <trkpt lat="45.96487" lon="4.78193">
        <ele>201</ele>
        <time>2016-08-29T14:15:58Z</time>
      </trkpt>
      <trkpt lat="45.96491" lon="4.78196">
        <ele>201</ele>
        <time>2016-08-29T14:15:59Z</time>
      </trkpt>
      <trkpt lat="45.96496" lon="4.78201">
        <ele>200</ele>
        <time>2016-08-29T14:16:00Z</time>
      </trkpt>
      <trkpt lat="45.965" lon="4.78205">
        <ele>200</ele>
        <time>2016-08-29T14:16:01Z</time>
      </trkpt>
      <trkpt lat="45.96504" lon="4.78209">
        <ele>205</ele>
        <time>2016-08-29T14:16:02Z</time>
      </trkpt>
      <trkpt lat="45.96507" lon="4.78214">
        <ele>205</ele>
        <time>2016-08-29T14:16:03Z</time>
      </trkpt>
      <trkpt lat="45.96511" lon="4.78219">
        <ele>204</ele>
        <time>2016-08-29T14:16:04Z</time>
      </trkpt>
      <trkpt lat="45.96515" lon="4.78224">
        <ele>204</ele>
        <time>2016-08-29T14:16:05Z</time>
      </trkpt>
      <trkpt lat="45.96518" lon="4.78229">
        <ele>204</ele>
        <time>2016-08-29T14:16:06Z</time>
      </trkpt>
      <trkpt lat="45.96521" lon="4.78235">
        <ele>204</ele>
        <time>2016-08-29T14:16:07Z</time>
      </trkpt>
      <trkpt lat="45.96524" lon="4.78241">
        <ele>204</ele>
        <time>2016-08-29T14:16:08Z</time>
      </trkpt>
      <trkpt lat="45.96528" lon="4.78246">
        <ele>204</ele>
        <time>2016-08-29T14:16:09Z</time>
      </trkpt>
      <trkpt lat="45.96532" lon="4.78252">
        <ele>200</ele>
        <time>2016-08-29T14:16:10Z</time>
      </trkpt>
      <trkpt lat="45.96534" lon="4.78259">
        <ele>200</ele>
        <time>2016-08-29T14:16:11Z</time>
      </trkpt>
      <trkpt lat="45.96538" lon="4.78265">
        <ele>200</ele>
        <time>2016-08-29T14:16:12Z</time>
      </trkpt>
      <trkpt lat="45.96543" lon="4.78271">
        <ele>200</ele>
        <time>2016-08-29T14:16:13Z</time>
      </trkpt>
      <trkpt lat="45.96548" lon="4.78278">
        <ele>200</ele>
        <time>2016-08-29T14:16:14Z</time>
      </trkpt>
      <trkpt lat="45.96552" lon="4.78283">
        <ele>200</ele>
        <time>2016-08-29T14:16:15Z</time>
      </trkpt>
      <trkpt lat="45.96557" lon="4.78289">
        <ele>200</ele>
        <time>2016-08-29T14:16:16Z</time>
      </trkpt>
      <trkpt lat="45.9656" lon="4.78293">
        <ele>200</ele>
        <time>2016-08-29T14:16:17Z</time>
      </trkpt>
      <trkpt lat="45.96563" lon="4.78299">
        <ele>200</ele>
        <time>2016-08-29T14:16:18Z</time>
      </trkpt>
      <trkpt lat="45.96567" lon="4.78303">
        <ele>200</ele>
        <time>2016-08-29T14:16:19Z</time>
      </trkpt>
      <trkpt lat="45.96573" lon="4.78308">
        <ele>200</ele>
        <time>2016-08-29T14:16:20Z</time>
      </trkpt>
      <trkpt lat="45.96577" lon="4.78313">
        <ele>199</ele>
        <time>2016-08-29T14:16:21Z</time>
      </trkpt>
      <trkpt lat="45.96582" lon="4.78318">
        <ele>199</ele>
        <time>2016-08-29T14:16:22Z</time>
      </trkpt>
      <trkpt lat="45.96588" lon="4.78323">
        <ele>201</ele>
        <time>2016-08-29T14:16:23Z</time>
      </trkpt>
      <trkpt lat="45.96593" lon="4.78328">
        <ele>201</ele>
        <time>2016-08-29T14:16:24Z</time>
      </trkpt>
      <trkpt lat="45.96598" lon="4.78333">
        <ele>202</ele>
        <time>2016-08-29T14:16:25Z</time>
      </trkpt>
      <trkpt lat="45.96602" lon="4.78337">
        <ele>200</ele>
        <time>2016-08-29T14:16:26Z</time>
      </trkpt>
      <trkpt lat="45.96606" lon="4.78341">
        <ele>200</ele>
        <time>2016-08-29T14:16:27Z</time>
      </trkpt>
      <trkpt lat="45.9661" lon="4.78346">
        <ele>200</ele>
        <time>2016-08-29T14:16:28Z</time>
      </trkpt>
      <trkpt lat="45.96614" lon="4.7835">
        <ele>201</ele>
        <time>2016-08-29T14:16:29Z</time>
      </trkpt>
      <trkpt lat="45.96618" lon="4.78354">
        <ele>201</ele>
        <time>2016-08-29T14:16:30Z</time>
      </trkpt>
      <trkpt lat="45.96622" lon="4.78358">
        <ele>201</ele>
        <time>2016-08-29T14:16:31Z</time>
      </trkpt>
      <trkpt lat="45.96626" lon="4.78362">
        <ele>201</ele>
        <time>2016-08-29T14:16:32Z</time>
      </trkpt>
      <trkpt lat="45.96631" lon="4.78366">
        <ele>201</ele>
        <time>2016-08-29T14:16:33Z</time>
      </trkpt>
      <trkpt lat="45.96635" lon="4.7837">
        <ele>201</ele>
        <time>2016-08-29T14:16:34Z</time>
      </trkpt>
      <trkpt lat="45.96639" lon="4.78374">
        <ele>201</ele>
        <time>2016-08-29T14:16:35Z</time>
      </trkpt>
      <trkpt lat="45.96644" lon="4.78378">
        <ele>201</ele>
        <time>2016-08-29T14:16:36Z</time>
      </trkpt>
      <trkpt lat="45.96649" lon="4.78383">
        <ele>201</ele>
        <time>2016-08-29T14:16:37Z</time>
      </trkpt>
      <trkpt lat="45.96653" lon="4.78388">
        <ele>201</ele>
        <time>2016-08-29T14:16:38Z</time>
      </trkpt>
      <trkpt lat="45.96658" lon="4.78392">
        <ele>201</ele>
        <time>2016-08-29T14:16:39Z</time>
      </trkpt>
      <trkpt lat="45.96663" lon="4.78397">
        <ele>201</ele>
        <time>2016-08-29T14:16:40Z</time>
      </trkpt>
      <trkpt lat="45.96667" lon="4.784">
        <ele>204</ele>
        <time>2016-08-29T14:16:41Z</time>
      </trkpt>
      <trkpt lat="45.96671" lon="4.78404">
        <ele>203</ele>
        <time>2016-08-29T14:16:42Z</time>
      </trkpt>
      <trkpt lat="45.96674" lon="4.78408">
        <ele>203</ele>
        <time>2016-08-29T14:16:43Z</time>
      </trkpt>
      <trkpt lat="45.96679" lon="4.78412">
        <ele>203</ele>
        <time>2016-08-29T14:16:44Z</time>
      </trkpt>
      <trkpt lat="45.96682" lon="4.78415">
        <ele>204</ele>
        <time>2016-08-29T14:16:45Z</time>
      </trkpt>
      <trkpt lat="45.96689" lon="4.78422">
        <ele>202</ele>
        <time>2016-08-29T14:16:47Z</time>
      </trkpt>
      <trkpt lat="45.96693" lon="4.78426">
        <ele>202</ele>
        <time>2016-08-29T14:16:48Z</time>
      </trkpt>
      <trkpt lat="45.96696" lon="4.78429">
        <ele>203</ele>
        <time>2016-08-29T14:16:49Z</time>
      </trkpt>
      <trkpt lat="45.967" lon="4.78434">
        <ele>203</ele>
        <time>2016-08-29T14:16:50Z</time>
      </trkpt>
      <trkpt lat="45.96704" lon="4.78437">
        <ele>203</ele>
        <time>2016-08-29T14:16:51Z</time>
      </trkpt>
      <trkpt lat="45.96709" lon="4.78443">
        <ele>203</ele>
        <time>2016-08-29T14:16:52Z</time>
      </trkpt>
      <trkpt lat="45.96713" lon="4.78446">
        <ele>203</ele>
        <time>2016-08-29T14:16:53Z</time>
      </trkpt>
      <trkpt lat="45.96718" lon="4.78452">
        <ele>203</ele>
        <time>2016-08-29T14:16:54Z</time>
      </trkpt>
      <trkpt lat="45.96722" lon="4.78457">
        <ele>203</ele>
        <time>2016-08-29T14:16:55Z</time>
      </trkpt>
      <trkpt lat="45.96727" lon="4.78463">
        <ele>203</ele>
        <time>2016-08-29T14:16:56Z</time>
      </trkpt>
      <trkpt lat="45.96731" lon="4.78468">
        <ele>203</ele>
        <time>2016-08-29T14:16:57Z</time>
      </trkpt>
      <trkpt lat="45.96734" lon="4.78473">
        <ele>203</ele>
        <time>2016-08-29T14:16:58Z</time>
      </trkpt>
      <trkpt lat="45.9674" lon="4.78477">
        <ele>203</ele>
        <time>2016-08-29T14:16:59Z</time>
      </trkpt>
      <trkpt lat="45.96745" lon="4.78481">
        <ele>203</ele>
        <time>2016-08-29T14:17:00Z</time>
      </trkpt>
      <trkpt lat="45.96749" lon="4.78485">
        <ele>203</ele>
        <time>2016-08-29T14:17:01Z</time>
      </trkpt>
      <trkpt lat="45.96754" lon="4.7849">
        <ele>204</ele>
        <time>2016-08-29T14:17:02Z</time>
      </trkpt>
      <trkpt lat="45.96758" lon="4.78495">
        <ele>204</ele>
        <time>2016-08-29T14:17:03Z</time>
      </trkpt>
      <trkpt lat="45.96762" lon="4.785">
        <ele>203</ele>
        <time>2016-08-29T14:17:04Z</time>
      </trkpt>
      <trkpt lat="45.96766" lon="4.78505">
        <ele>203</ele>
        <time>2016-08-29T14:17:05Z</time>
      </trkpt>
      <trkpt lat="45.9677" lon="4.78511">
        <ele>203</ele>
        <time>2016-08-29T14:17:06Z</time>
      </trkpt>
      <trkpt lat="45.96774" lon="4.78516">
        <ele>203</ele>
        <time>2016-08-29T14:17:07Z</time>
      </trkpt>
      <trkpt lat="45.96777" lon="4.78521">
        <ele>203</ele>
        <time>2016-08-29T14:17:08Z</time>
      </trkpt>
      <trkpt lat="45.96781" lon="4.78527">
        <ele>203</ele>
        <time>2016-08-29T14:17:09Z</time>
      </trkpt>
      <trkpt lat="45.96785" lon="4.78532">
        <ele>203</ele>
        <time>2016-08-29T14:17:10Z</time>
      </trkpt>
      <trkpt lat="45.96789" lon="4.78538">
        <ele>203</ele>
        <time>2016-08-29T14:17:11Z</time>
      </trkpt>
      <trkpt lat="45.96794" lon="4.78545">
        <ele>203</ele>
        <time>2016-08-29T14:17:12Z</time>
      </trkpt>
      <trkpt lat="45.96799" lon="4.78556">
        <ele>203</ele>
        <time>2016-08-29T14:17:14Z</time>
      </trkpt>
      <trkpt lat="45.96802" lon="4.78562">
        <ele>203</ele>
        <time>2016-08-29T14:17:15Z</time>
      </trkpt>
      <trkpt lat="45.96806" lon="4.78568">
        <ele>203</ele>
        <time>2016-08-29T14:17:16Z</time>
      </trkpt>
      <trkpt lat="45.96809" lon="4.78573">
        <ele>203</ele>
        <time>2016-08-29T14:17:17Z</time>
      </trkpt>
      <trkpt lat="45.96815" lon="4.78582">
        <ele>203</ele>
        <time>2016-08-29T14:17:19Z</time>
      </trkpt>
      <trkpt lat="45.96818" lon="4.78587">
        <ele>202</ele>
        <time>2016-08-29T14:17:20Z</time>
      </trkpt>
      <trkpt lat="45.96822" lon="4.78596">
        <ele>202</ele>
        <time>2016-08-29T14:17:22Z</time>
      </trkpt>
      <trkpt lat="45.96824" lon="4.78601">
        <ele>202</ele>
        <time>2016-08-29T14:17:23Z</time>
      </trkpt>
      <trkpt lat="45.96827" lon="4.78612">
        <ele>202</ele>
        <time>2016-08-29T14:17:25Z</time>
      </trkpt>
      <trkpt lat="45.96828" lon="4.78618">
        <ele>202</ele>
        <time>2016-08-29T14:17:26Z</time>
      </trkpt>
      <trkpt lat="45.96832" lon="4.78629">
        <ele>201</ele>
        <time>2016-08-29T14:17:28Z</time>
      </trkpt>
      <trkpt lat="45.96833" lon="4.78636">
        <ele>201</ele>
        <time>2016-08-29T14:17:29Z</time>
      </trkpt>
      <trkpt lat="45.96837" lon="4.78642">
        <ele>203</ele>
        <time>2016-08-29T14:17:30Z</time>
      </trkpt>
      <trkpt lat="45.9684" lon="4.78649">
        <ele>203</ele>
        <time>2016-08-29T14:17:31Z</time>
      </trkpt>
      <trkpt lat="45.96843" lon="4.78655">
        <ele>202</ele>
        <time>2016-08-29T14:17:32Z</time>
      </trkpt>
      <trkpt lat="45.96846" lon="4.7866">
        <ele>202</ele>
        <time>2016-08-29T14:17:33Z</time>
      </trkpt>
      <trkpt lat="45.9685" lon="4.78666">
        <ele>202</ele>
        <time>2016-08-29T14:17:34Z</time>
      </trkpt>
      <trkpt lat="45.96853" lon="4.78672">
        <ele>202</ele>
        <time>2016-08-29T14:17:35Z</time>
      </trkpt>
      <trkpt lat="45.96856" lon="4.78678">
        <ele>202</ele>
        <time>2016-08-29T14:17:36Z</time>
      </trkpt>
      <trkpt lat="45.96859" lon="4.78683">
        <ele>202</ele>
        <time>2016-08-29T14:17:37Z</time>
      </trkpt>
      <trkpt lat="45.96861" lon="4.78689">
        <ele>202</ele>
        <time>2016-08-29T14:17:38Z</time>
      </trkpt>
      <trkpt lat="45.96864" lon="4.78694">
        <ele>202</ele>
        <time>2016-08-29T14:17:39Z</time>
      </trkpt>
      <trkpt lat="45.96867" lon="4.78699">
        <ele>202</ele>
        <time>2016-08-29T14:17:40Z</time>
      </trkpt>
      <trkpt lat="45.9687" lon="4.78704">
        <ele>202</ele>
        <time>2016-08-29T14:17:41Z</time>
      </trkpt>
      <trkpt lat="45.96872" lon="4.78709">
        <ele>202</ele>
        <time>2016-08-29T14:17:42Z</time>
      </trkpt>
      <trkpt lat="45.96875" lon="4.78715">
        <ele>202</ele>
        <time>2016-08-29T14:17:43Z</time>
      </trkpt>
      <trkpt lat="45.96878" lon="4.78721">
        <ele>202</ele>
        <time>2016-08-29T14:17:44Z</time>
      </trkpt>
      <trkpt lat="45.96881" lon="4.7873">
        <ele>202</ele>
        <time>2016-08-29T14:17:45Z</time>
      </trkpt>
      <trkpt lat="45.96883" lon="4.78738">
        <ele>202</ele>
        <time>2016-08-29T14:17:46Z</time>
      </trkpt>
      <trkpt lat="45.96886" lon="4.78743">
        <ele>202</ele>
        <time>2016-08-29T14:17:47Z</time>
      </trkpt>
      <trkpt lat="45.9689" lon="4.78753">
        <ele>201</ele>
        <time>2016-08-29T14:17:49Z</time>
      </trkpt>
      <trkpt lat="45.96893" lon="4.78757">
        <ele>201</ele>
        <time>2016-08-29T14:17:50Z</time>
      </trkpt>
      <trkpt lat="45.96896" lon="4.78762">
        <ele>201</ele>
        <time>2016-08-29T14:17:51Z</time>
      </trkpt>
      <trkpt lat="45.96898" lon="4.78767">
        <ele>201</ele>
        <time>2016-08-29T14:17:52Z</time>
      </trkpt>
      <trkpt lat="45.96901" lon="4.78773">
        <ele>201</ele>
        <time>2016-08-29T14:17:53Z</time>
      </trkpt>
      <trkpt lat="45.96904" lon="4.78778">
        <ele>201</ele>
        <time>2016-08-29T14:17:54Z</time>
      </trkpt>
      <trkpt lat="45.96907" lon="4.78784">
        <ele>201</ele>
        <time>2016-08-29T14:17:55Z</time>
      </trkpt>
      <trkpt lat="45.9691" lon="4.7879">
        <ele>201</ele>
        <time>2016-08-29T14:17:56Z</time>
      </trkpt>
      <trkpt lat="45.96913" lon="4.78795">
        <ele>201</ele>
        <time>2016-08-29T14:17:57Z</time>
      </trkpt>
      <trkpt lat="45.96916" lon="4.788">
        <ele>201</ele>
        <time>2016-08-29T14:17:58Z</time>
      </trkpt>
      <trkpt lat="45.96919" lon="4.78806">
        <ele>203</ele>
        <time>2016-08-29T14:17:59Z</time>
      </trkpt>
      <trkpt lat="45.96922" lon="4.78811">
        <ele>202</ele>
        <time>2016-08-29T14:18:00Z</time>
      </trkpt>
      <trkpt lat="45.96926" lon="4.78816">
        <ele>202</ele>
        <time>2016-08-29T14:18:01Z</time>
      </trkpt>
      <trkpt lat="45.9693" lon="4.78822">
        <ele>202</ele>
        <time>2016-08-29T14:18:02Z</time>
      </trkpt>
      <trkpt lat="45.96934" lon="4.78827">
        <ele>202</ele>
        <time>2016-08-29T14:18:03Z</time>
      </trkpt>
      <trkpt lat="45.96939" lon="4.78832">
        <ele>202</ele>
        <time>2016-08-29T14:18:04Z</time>
      </trkpt>
      <trkpt lat="45.96943" lon="4.78837">
        <ele>202</ele>
        <time>2016-08-29T14:18:05Z</time>
      </trkpt>
      <trkpt lat="45.96947" lon="4.78842">
        <ele>202</ele>
        <time>2016-08-29T14:18:06Z</time>
      </trkpt>
      <trkpt lat="45.96951" lon="4.78847">
        <ele>202</ele>
        <time>2016-08-29T14:18:07Z</time>
      </trkpt>
      <trkpt lat="45.96955" lon="4.78851">
        <ele>203</ele>
        <time>2016-08-29T14:18:08Z</time>
      </trkpt>
      <trkpt lat="45.96959" lon="4.78856">
        <ele>203</ele>
        <time>2016-08-29T14:18:09Z</time>
      </trkpt>
      <trkpt lat="45.96963" lon="4.78861">
        <ele>203</ele>
        <time>2016-08-29T14:18:10Z</time>
      </trkpt>
      <trkpt lat="45.96966" lon="4.78865">
        <ele>203</ele>
        <time>2016-08-29T14:18:11Z</time>
      </trkpt>
      <trkpt lat="45.9697" lon="4.7887">
        <ele>203</ele>
        <time>2016-08-29T14:18:12Z</time>
      </trkpt>
      <trkpt lat="45.96973" lon="4.78874">
        <ele>203</ele>
        <time>2016-08-29T14:18:13Z</time>
      </trkpt>
      <trkpt lat="45.96977" lon="4.78879">
        <ele>203</ele>
        <time>2016-08-29T14:18:14Z</time>
      </trkpt>
      <trkpt lat="45.96981" lon="4.78883">
        <ele>203</ele>
        <time>2016-08-29T14:18:15Z</time>
      </trkpt>
      <trkpt lat="45.96985" lon="4.78888">
        <ele>203</ele>
        <time>2016-08-29T14:18:16Z</time>
      </trkpt>
      <trkpt lat="45.96989" lon="4.78893">
        <ele>203</ele>
        <time>2016-08-29T14:18:17Z</time>
      </trkpt>
      <trkpt lat="45.96993" lon="4.78898">
        <ele>203</ele>
        <time>2016-08-29T14:18:18Z</time>
      </trkpt>
      <trkpt lat="45.96997" lon="4.78903">
        <ele>204</ele>
        <time>2016-08-29T14:18:19Z</time>
      </trkpt>
      <trkpt lat="45.97" lon="4.78908">
        <ele>205</ele>
        <time>2016-08-29T14:18:20Z</time>
      </trkpt>
      <trkpt lat="45.97004" lon="4.78912">
        <ele>205</ele>
        <time>2016-08-29T14:18:21Z</time>
      </trkpt>
      <trkpt lat="45.97007" lon="4.78916">
        <ele>205</ele>
        <time>2016-08-29T14:18:22Z</time>
      </trkpt>
      <trkpt lat="45.97011" lon="4.78921">
        <ele>204</ele>
        <time>2016-08-29T14:18:23Z</time>
      </trkpt>
      <trkpt lat="45.97014" lon="4.78925">
        <ele>205</ele>
        <time>2016-08-29T14:18:24Z</time>
      </trkpt>
      <trkpt lat="45.9702" lon="4.78934">
        <ele>205</ele>
        <time>2016-08-29T14:18:26Z</time>
      </trkpt>
      <trkpt lat="45.97023" lon="4.78939">
        <ele>205</ele>
        <time>2016-08-29T14:18:27Z</time>
      </trkpt>
      <trkpt lat="45.97028" lon="4.78948">
        <ele>205</ele>
        <time>2016-08-29T14:18:29Z</time>
      </trkpt>
      <trkpt lat="45.97031" lon="4.7895">
        <ele>205</ele>
        <time>2016-08-29T14:18:30Z</time>
      </trkpt>
      <trkpt lat="45.97036" lon="4.78957">
        <ele>205</ele>
        <time>2016-08-29T14:18:32Z</time>
      </trkpt>
      <trkpt lat="45.97038" lon="4.78963">
        <ele>205</ele>
        <time>2016-08-29T14:18:33Z</time>
      </trkpt>
      <trkpt lat="45.97042" lon="4.78973">
        <ele>205</ele>
        <time>2016-08-29T14:18:35Z</time>
      </trkpt>
      <trkpt lat="45.97043" lon="4.78979">
        <ele>205</ele>
        <time>2016-08-29T14:18:36Z</time>
      </trkpt>
      <trkpt lat="45.97045" lon="4.78985">
        <ele>205</ele>
        <time>2016-08-29T14:18:37Z</time>
      </trkpt>
      <trkpt lat="45.97047" lon="4.78991">
        <ele>205</ele>
        <time>2016-08-29T14:18:38Z</time>
      </trkpt>
      <trkpt lat="45.9705" lon="4.79002">
        <ele>203</ele>
        <time>2016-08-29T14:18:40Z</time>
      </trkpt>
      <trkpt lat="45.97052" lon="4.79007">
        <ele>203</ele>
        <time>2016-08-29T14:18:41Z</time>
      </trkpt>
      <trkpt lat="45.97056" lon="4.79017">
        <ele>203</ele>
        <time>2016-08-29T14:18:43Z</time>
      </trkpt>
      <trkpt lat="45.97058" lon="4.79022">
        <ele>203</ele>
        <time>2016-08-29T14:18:44Z</time>
      </trkpt>
      <trkpt lat="45.97061" lon="4.79033">
        <ele>203</ele>
        <time>2016-08-29T14:18:46Z</time>
      </trkpt>
      <trkpt lat="45.97063" lon="4.79039">
        <ele>203</ele>
        <time>2016-08-29T14:18:47Z</time>
      </trkpt>
      <trkpt lat="45.97065" lon="4.79045">
        <ele>203</ele>
        <time>2016-08-29T14:18:48Z</time>
      </trkpt>
      <trkpt lat="45.97066" lon="4.79052">
        <ele>203</ele>
        <time>2016-08-29T14:18:49Z</time>
      </trkpt>
      <trkpt lat="45.97068" lon="4.79058">
        <ele>203</ele>
        <time>2016-08-29T14:18:50Z</time>
      </trkpt>
      <trkpt lat="45.9707" lon="4.79065">
        <ele>203</ele>
        <time>2016-08-29T14:18:51Z</time>
      </trkpt>
      <trkpt lat="45.97072" lon="4.79073">
        <ele>204</ele>
        <time>2016-08-29T14:18:52Z</time>
      </trkpt>
      <trkpt lat="45.97073" lon="4.7908">
        <ele>204</ele>
        <time>2016-08-29T14:18:53Z</time>
      </trkpt>
      <trkpt lat="45.97075" lon="4.79087">
        <ele>204</ele>
        <time>2016-08-29T14:18:54Z</time>
      </trkpt>
      <trkpt lat="45.97076" lon="4.79094">
        <ele>204</ele>
        <time>2016-08-29T14:18:55Z</time>
      </trkpt>
      <trkpt lat="45.97077" lon="4.79101">
        <ele>204</ele>
        <time>2016-08-29T14:18:56Z</time>
      </trkpt>
      <trkpt lat="45.9708" lon="4.79108">
        <ele>204</ele>
        <time>2016-08-29T14:18:57Z</time>
      </trkpt>
      <trkpt lat="45.97085" lon="4.79118">
        <ele>206</ele>
        <time>2016-08-29T14:18:59Z</time>
      </trkpt>
      <trkpt lat="45.97088" lon="4.79124">
        <ele>206</ele>
        <time>2016-08-29T14:19:00Z</time>
      </trkpt>
      <trkpt lat="45.97091" lon="4.7913">
        <ele>206</ele>
        <time>2016-08-29T14:19:01Z</time>
      </trkpt>
      <trkpt lat="45.97095" lon="4.79136">
        <ele>206</ele>
        <time>2016-08-29T14:19:02Z</time>
      </trkpt>
      <trkpt lat="45.97099" lon="4.79143">
        <ele>206</ele>
        <time>2016-08-29T14:19:03Z</time>
      </trkpt>
      <trkpt lat="45.97103" lon="4.79149">
        <ele>206</ele>
        <time>2016-08-29T14:19:04Z</time>
      </trkpt>
      <trkpt lat="45.97107" lon="4.79155">
        <ele>206</ele>
        <time>2016-08-29T14:19:05Z</time>
      </trkpt>
      <trkpt lat="45.9711" lon="4.79162">
        <ele>206</ele>
        <time>2016-08-29T14:19:06Z</time>
      </trkpt>
      <trkpt lat="45.97113" lon="4.79168">
        <ele>205</ele>
        <time>2016-08-29T14:19:07Z</time>
      </trkpt>
      <trkpt lat="45.97115" lon="4.79174">
        <ele>206</ele>
        <time>2016-08-29T14:19:08Z</time>
      </trkpt>
      <trkpt lat="45.97118" lon="4.7918">
        <ele>206</ele>
        <time>2016-08-29T14:19:09Z</time>
      </trkpt>
      <trkpt lat="45.9712" lon="4.79186">
        <ele>206</ele>
        <time>2016-08-29T14:19:10Z</time>
      </trkpt>
      <trkpt lat="45.97122" lon="4.79192">
        <ele>206</ele>
        <time>2016-08-29T14:19:11Z</time>
      </trkpt>
      <trkpt lat="45.97125" lon="4.79198">
        <ele>206</ele>
        <time>2016-08-29T14:19:12Z</time>
      </trkpt>
      <trkpt lat="45.97128" lon="4.79204">
        <ele>206</ele>
        <time>2016-08-29T14:19:13Z</time>
      </trkpt>
      <trkpt lat="45.9713" lon="4.7921">
        <ele>206</ele>
        <time>2016-08-29T14:19:14Z</time>
      </trkpt>
      <trkpt lat="45.97133" lon="4.79216">
        <ele>206</ele>
        <time>2016-08-29T14:19:15Z</time>
      </trkpt>
      <trkpt lat="45.97136" lon="4.79223">
        <ele>205</ele>
        <time>2016-08-29T14:19:16Z</time>
      </trkpt>
      <trkpt lat="45.97138" lon="4.79229">
        <ele>205</ele>
        <time>2016-08-29T14:19:17Z</time>
      </trkpt>
      <trkpt lat="45.9714" lon="4.79235">
        <ele>205</ele>
        <time>2016-08-29T14:19:18Z</time>
      </trkpt>
      <trkpt lat="45.97143" lon="4.79241">
        <ele>205</ele>
        <time>2016-08-29T14:19:19Z</time>
      </trkpt>
      <trkpt lat="45.97146" lon="4.79247">
        <ele>205</ele>
        <time>2016-08-29T14:19:20Z</time>
      </trkpt>
      <trkpt lat="45.97148" lon="4.79254">
        <ele>204</ele>
        <time>2016-08-29T14:19:21Z</time>
      </trkpt>
      <trkpt lat="45.97151" lon="4.79261">
        <ele>204</ele>
        <time>2016-08-29T14:19:22Z</time>
      </trkpt>
      <trkpt lat="45.97154" lon="4.79268">
        <ele>204</ele>
        <time>2016-08-29T14:19:23Z</time>
      </trkpt>
      <trkpt lat="45.97156" lon="4.79275">
        <ele>204</ele>
        <time>2016-08-29T14:19:24Z</time>
      </trkpt>
      <trkpt lat="45.97159" lon="4.79282">
        <ele>204</ele>
        <time>2016-08-29T14:19:25Z</time>
      </trkpt>
      <trkpt lat="45.97161" lon="4.7929">
        <ele>204</ele>
        <time>2016-08-29T14:19:26Z</time>
      </trkpt>
      <trkpt lat="45.97163" lon="4.79297">
        <ele>204</ele>
        <time>2016-08-29T14:19:27Z</time>
      </trkpt>
      <trkpt lat="45.97167" lon="4.79304">
        <ele>207</ele>
        <time>2016-08-29T14:19:28Z</time>
      </trkpt>
      <trkpt lat="45.97172" lon="4.79311">
        <ele>207</ele>
        <time>2016-08-29T14:19:29Z</time>
      </trkpt>
      <trkpt lat="45.97175" lon="4.79317">
        <ele>207</ele>
        <time>2016-08-29T14:19:30Z</time>
      </trkpt>
      <trkpt lat="45.9718" lon="4.79326">
        <ele>207</ele>
        <time>2016-08-29T14:19:32Z</time>
      </trkpt>
      <trkpt lat="45.97182" lon="4.79331">
        <ele>207</ele>
        <time>2016-08-29T14:19:33Z</time>
      </trkpt>
      <trkpt lat="45.97183" lon="4.79337">
        <ele>206</ele>
        <time>2016-08-29T14:19:34Z</time>
      </trkpt>
      <trkpt lat="45.97185" lon="4.79343">
        <ele>207</ele>
        <time>2016-08-29T14:19:35Z</time>
      </trkpt>
      <trkpt lat="45.97187" lon="4.79349">
        <ele>207</ele>
        <time>2016-08-29T14:19:36Z</time>
      </trkpt>
      <trkpt lat="45.97189" lon="4.79355">
        <ele>207</ele>
        <time>2016-08-29T14:19:37Z</time>
      </trkpt>
      <trkpt lat="45.97192" lon="4.79362">
        <ele>207</ele>
        <time>2016-08-29T14:19:38Z</time>
      </trkpt>
      <trkpt lat="45.97194" lon="4.79367">
        <ele>207</ele>
        <time>2016-08-29T14:19:39Z</time>
      </trkpt>
      <trkpt lat="45.97197" lon="4.79374">
        <ele>207</ele>
        <time>2016-08-29T14:19:40Z</time>
      </trkpt>
      <trkpt lat="45.97199" lon="4.7938">
        <ele>207</ele>
        <time>2016-08-29T14:19:41Z</time>
      </trkpt>
      <trkpt lat="45.97202" lon="4.79387">
        <ele>207</ele>
        <time>2016-08-29T14:19:42Z</time>
      </trkpt>
      <trkpt lat="45.97206" lon="4.79394">
        <ele>208</ele>
        <time>2016-08-29T14:19:43Z</time>
      </trkpt>
      <trkpt lat="45.9721" lon="4.79405">
        <ele>208</ele>
        <time>2016-08-29T14:19:45Z</time>
      </trkpt>
      <trkpt lat="45.97212" lon="4.79411">
        <ele>208</ele>
        <time>2016-08-29T14:19:46Z</time>
      </trkpt>
      <trkpt lat="45.97215" lon="4.79421">
        <ele>208</ele>
        <time>2016-08-29T14:19:48Z</time>
      </trkpt>
      <trkpt lat="45.97218" lon="4.79426">
        <ele>208</ele>
        <time>2016-08-29T14:19:49Z</time>
      </trkpt>
      <trkpt lat="45.97221" lon="4.79432">
        <ele>208</ele>
        <time>2016-08-29T14:19:50Z</time>
      </trkpt>
      <trkpt lat="45.97223" lon="4.79437">
        <ele>209</ele>
        <time>2016-08-29T14:19:51Z</time>
      </trkpt>
      <trkpt lat="45.97226" lon="4.79449">
        <ele>209</ele>
        <time>2016-08-29T14:19:53Z</time>
      </trkpt>
      <trkpt lat="45.97227" lon="4.79455">
        <ele>209</ele>
        <time>2016-08-29T14:19:54Z</time>
      </trkpt>
      <trkpt lat="45.9723" lon="4.79462">
        <ele>209</ele>
        <time>2016-08-29T14:19:55Z</time>
      </trkpt>
      <trkpt lat="45.97232" lon="4.79469">
        <ele>209</ele>
        <time>2016-08-29T14:19:56Z</time>
      </trkpt>
      <trkpt lat="45.97236" lon="4.7948">
        <ele>209</ele>
        <time>2016-08-29T14:19:58Z</time>
      </trkpt>
      <trkpt lat="45.97238" lon="4.79485">
        <ele>210</ele>
        <time>2016-08-29T14:19:59Z</time>
      </trkpt>
      <trkpt lat="45.9724" lon="4.79497">
        <ele>210</ele>
        <time>2016-08-29T14:20:01Z</time>
      </trkpt>
      <trkpt lat="45.97241" lon="4.79503">
        <ele>210</ele>
        <time>2016-08-29T14:20:02Z</time>
      </trkpt>
      <trkpt lat="45.97242" lon="4.79509">
        <ele>210</ele>
        <time>2016-08-29T14:20:03Z</time>
      </trkpt>
      <trkpt lat="45.97244" lon="4.79517">
        <ele>210</ele>
        <time>2016-08-29T14:20:04Z</time>
      </trkpt>
      <trkpt lat="45.97247" lon="4.79524">
        <ele>210</ele>
        <time>2016-08-29T14:20:05Z</time>
      </trkpt>
      <trkpt lat="45.97249" lon="4.79531">
        <ele>210</ele>
        <time>2016-08-29T14:20:06Z</time>
      </trkpt>
      <trkpt lat="45.97251" lon="4.79538">
        <ele>214</ele>
        <time>2016-08-29T14:20:07Z</time>
      </trkpt>
      <trkpt lat="45.97252" lon="4.79545">
        <ele>214</ele>
        <time>2016-08-29T14:20:08Z</time>
      </trkpt>
      <trkpt lat="45.97252" lon="4.79552">
        <ele>214</ele>
        <time>2016-08-29T14:20:09Z</time>
      </trkpt>
      <trkpt lat="45.97253" lon="4.79559">
        <ele>213</ele>
        <time>2016-08-29T14:20:10Z</time>
      </trkpt>
      <trkpt lat="45.97252" lon="4.79566">
        <ele>213</ele>
        <time>2016-08-29T14:20:11Z</time>
      </trkpt>
      <trkpt lat="45.97251" lon="4.79574">
        <ele>212</ele>
        <time>2016-08-29T14:20:12Z</time>
      </trkpt>
      <trkpt lat="45.97252" lon="4.79581">
        <ele>211</ele>
        <time>2016-08-29T14:20:13Z</time>
      </trkpt>
      <trkpt lat="45.97253" lon="4.79588">
        <ele>211</ele>
        <time>2016-08-29T14:20:14Z</time>
      </trkpt>
      <trkpt lat="45.97254" lon="4.79597">
        <ele>212</ele>
        <time>2016-08-29T14:20:15Z</time>
      </trkpt>
      <trkpt lat="45.97252" lon="4.79604">
        <ele>212</ele>
        <time>2016-08-29T14:20:16Z</time>
      </trkpt>
      <trkpt lat="45.97251" lon="4.79611">
        <ele>213</ele>
        <time>2016-08-29T14:20:17Z</time>
      </trkpt>
      <trkpt lat="45.97251" lon="4.79618">
        <ele>213</ele>
        <time>2016-08-29T14:20:18Z</time>
      </trkpt>
      <trkpt lat="45.97252" lon="4.79624">
        <ele>213</ele>
        <time>2016-08-29T14:20:19Z</time>
      </trkpt>
      <trkpt lat="45.97253" lon="4.79632">
        <ele>213</ele>
        <time>2016-08-29T14:20:20Z</time>
      </trkpt>
      <trkpt lat="45.97254" lon="4.79638">
        <ele>212</ele>
        <time>2016-08-29T14:20:21Z</time>
      </trkpt>
      <trkpt lat="45.97253" lon="4.79645">
        <ele>212</ele>
        <time>2016-08-29T14:20:22Z</time>
      </trkpt>
      <trkpt lat="45.97253" lon="4.79652">
        <ele>211</ele>
        <time>2016-08-29T14:20:23Z</time>
      </trkpt>
      <trkpt lat="45.97252" lon="4.79659">
        <ele>210</ele>
        <time>2016-08-29T14:20:24Z</time>
      </trkpt>
      <trkpt lat="45.97251" lon="4.79666">
        <ele>208</ele>
        <time>2016-08-29T14:20:25Z</time>
      </trkpt>
      <trkpt lat="45.9725" lon="4.79673">
        <ele>208</ele>
        <time>2016-08-29T14:20:26Z</time>
      </trkpt>
      <trkpt lat="45.97248" lon="4.79682">
        <ele>208</ele>
        <time>2016-08-29T14:20:27Z</time>
      </trkpt>
      <trkpt lat="45.97247" lon="4.7969">
        <ele>208</ele>
        <time>2016-08-29T14:20:28Z</time>
      </trkpt>
      <trkpt lat="45.97246" lon="4.79697">
        <ele>208</ele>
        <time>2016-08-29T14:20:29Z</time>
      </trkpt>
      <trkpt lat="45.97245" lon="4.79705">
        <ele>208</ele>
        <time>2016-08-29T14:20:30Z</time>
      </trkpt>
      <trkpt lat="45.97245" lon="4.79712">
        <ele>209</ele>
        <time>2016-08-29T14:20:31Z</time>
      </trkpt>
      <trkpt lat="45.97244" lon="4.79719">
        <ele>209</ele>
        <time>2016-08-29T14:20:32Z</time>
      </trkpt>
      <trkpt lat="45.97243" lon="4.79726">
        <ele>209</ele>
        <time>2016-08-29T14:20:33Z</time>
      </trkpt>
      <trkpt lat="45.97242" lon="4.79734">
        <ele>209</ele>
        <time>2016-08-29T14:20:34Z</time>
      </trkpt>
      <trkpt lat="45.97241" lon="4.79745">
        <ele>209</ele>
        <time>2016-08-29T14:20:36Z</time>
      </trkpt>
      <trkpt lat="45.9724" lon="4.79751">
        <ele>209</ele>
        <time>2016-08-29T14:20:37Z</time>
      </trkpt>
      <trkpt lat="45.9724" lon="4.79758">
        <ele>209</ele>
        <time>2016-08-29T14:20:38Z</time>
      </trkpt>
      <trkpt lat="45.97238" lon="4.79764">
        <ele>209</ele>
        <time>2016-08-29T14:20:39Z</time>
      </trkpt>
      <trkpt lat="45.97236" lon="4.79777">
        <ele>210</ele>
        <time>2016-08-29T14:20:41Z</time>
      </trkpt>
      <trkpt lat="45.97236" lon="4.79783">
        <ele>210</ele>
        <time>2016-08-29T14:20:42Z</time>
      </trkpt>
      <trkpt lat="45.97235" lon="4.79789">
        <ele>210</ele>
        <time>2016-08-29T14:20:43Z</time>
      </trkpt>
      <trkpt lat="45.97235" lon="4.79796">
        <ele>210</ele>
        <time>2016-08-29T14:20:44Z</time>
      </trkpt>
      <trkpt lat="45.97235" lon="4.79809">
        <ele>210</ele>
        <time>2016-08-29T14:20:46Z</time>
      </trkpt>
      <trkpt lat="45.97235" lon="4.79816">
        <ele>211</ele>
        <time>2016-08-29T14:20:47Z</time>
      </trkpt>
      <trkpt lat="45.97236" lon="4.79824">
        <ele>211</ele>
        <time>2016-08-29T14:20:49Z</time>
      </trkpt>
      <trkpt lat="45.97236" lon="4.79831">
        <ele>211</ele>
        <time>2016-08-29T14:20:50Z</time>
      </trkpt>
      <trkpt lat="45.97237" lon="4.79837">
        <ele>211</ele>
        <time>2016-08-29T14:20:51Z</time>
      </trkpt>
      <trkpt lat="45.97238" lon="4.79845">
        <ele>211</ele>
        <time>2016-08-29T14:20:52Z</time>
      </trkpt>
      <trkpt lat="45.97239" lon="4.79852">
        <ele>211</ele>
        <time>2016-08-29T14:20:53Z</time>
      </trkpt>
      <trkpt lat="45.9724" lon="4.79858">
        <ele>211</ele>
        <time>2016-08-29T14:20:54Z</time>
      </trkpt>
      <trkpt lat="45.97243" lon="4.7987">
        <ele>211</ele>
        <time>2016-08-29T14:20:56Z</time>
      </trkpt>
      <trkpt lat="45.97245" lon="4.79876">
        <ele>211</ele>
        <time>2016-08-29T14:20:57Z</time>
      </trkpt>
      <trkpt lat="45.97248" lon="4.79886">
        <ele>211</ele>
        <time>2016-08-29T14:20:59Z</time>
      </trkpt>
      <trkpt lat="45.97249" lon="4.79893">
        <ele>211</ele>
        <time>2016-08-29T14:21:00Z</time>
      </trkpt>
      <trkpt lat="45.97251" lon="4.79905">
        <ele>213</ele>
        <time>2016-08-29T14:21:02Z</time>
      </trkpt>
      <trkpt lat="45.97252" lon="4.79909">
        <ele>212</ele>
        <time>2016-08-29T14:21:03Z</time>
      </trkpt>
      <trkpt lat="45.97253" lon="4.79911">
        <ele>212</ele>
        <time>2016-08-29T14:21:05Z</time>
      </trkpt>
      <trkpt lat="45.97253" lon="4.79912">
        <ele>212</ele>
        <time>2016-08-29T14:21:06Z</time>
      </trkpt>
      <trkpt lat="45.97254" lon="4.79914">
        <ele>212</ele>
        <time>2016-08-29T14:21:08Z</time>
      </trkpt>
      <trkpt lat="45.97255" lon="4.79915">
        <ele>212</ele>
        <time>2016-08-29T14:21:09Z</time>
      </trkpt>
      <trkpt lat="45.97262" lon="4.79917">
        <ele>212</ele>
        <time>2016-08-29T14:21:12Z</time>
      </trkpt>
      <trkpt lat="45.97266" lon="4.79916">
        <ele>213</ele>
        <time>2016-08-29T14:21:13Z</time>
      </trkpt>
      <trkpt lat="45.97272" lon="4.79913">
        <ele>213</ele>
        <time>2016-08-29T14:21:15Z</time>
      </trkpt>
      <trkpt lat="45.97275" lon="4.79912">
        <ele>213</ele>
        <time>2016-08-29T14:21:16Z</time>
      </trkpt>
      <trkpt lat="45.97284" lon="4.79911">
        <ele>213</ele>
        <time>2016-08-29T14:21:18Z</time>
      </trkpt>
      <trkpt lat="45.97288" lon="4.7991">
        <ele>213</ele>
        <time>2016-08-29T14:21:19Z</time>
      </trkpt>
      <trkpt lat="45.97292" lon="4.79909">
        <ele>213</ele>
        <time>2016-08-29T14:21:20Z</time>
      </trkpt>
      <trkpt lat="45.97297" lon="4.79908">
        <ele>213</ele>
        <time>2016-08-29T14:21:21Z</time>
      </trkpt>
      <trkpt lat="45.97302" lon="4.79908">
        <ele>213</ele>
        <time>2016-08-29T14:21:22Z</time>
      </trkpt>
      <trkpt lat="45.97306" lon="4.79908">
        <ele>213</ele>
        <time>2016-08-29T14:21:23Z</time>
      </trkpt>
      <trkpt lat="45.97311" lon="4.79907">
        <ele>213</ele>
        <time>2016-08-29T14:21:24Z</time>
      </trkpt>
      <trkpt lat="45.97315" lon="4.79906">
        <ele>213</ele>
        <time>2016-08-29T14:21:25Z</time>
      </trkpt>
      <trkpt lat="45.97324" lon="4.79905">
        <ele>213</ele>
        <time>2016-08-29T14:21:27Z</time>
      </trkpt>
      <trkpt lat="45.97329" lon="4.79904">
        <ele>213</ele>
        <time>2016-08-29T14:21:28Z</time>
      </trkpt>
      <trkpt lat="45.97337" lon="4.79903">
        <ele>215</ele>
        <time>2016-08-29T14:21:30Z</time>
      </trkpt>
      <trkpt lat="45.97342" lon="4.79902">
        <ele>215</ele>
        <time>2016-08-29T14:21:31Z</time>
      </trkpt>
      <trkpt lat="45.9735" lon="4.799">
        <ele>216</ele>
        <time>2016-08-29T14:21:33Z</time>
      </trkpt>
      <trkpt lat="45.97354" lon="4.799">
        <ele>216</ele>
        <time>2016-08-29T14:21:34Z</time>
      </trkpt>
      <trkpt lat="45.97361" lon="4.799">
        <ele>216</ele>
        <time>2016-08-29T14:21:36Z</time>
      </trkpt>
      <trkpt lat="45.97365" lon="4.799">
        <ele>217</ele>
        <time>2016-08-29T14:21:37Z</time>
      </trkpt>
      <trkpt lat="45.97372" lon="4.79897">
        <ele>217</ele>
        <time>2016-08-29T14:21:39Z</time>
      </trkpt>
      <trkpt lat="45.97375" lon="4.79896">
        <ele>217</ele>
        <time>2016-08-29T14:21:40Z</time>
      </trkpt>
      <trkpt lat="45.97383" lon="4.79894">
        <ele>217</ele>
        <time>2016-08-29T14:21:42Z</time>
      </trkpt>
      <trkpt lat="45.97387" lon="4.79895">
        <ele>217</ele>
        <time>2016-08-29T14:21:43Z</time>
      </trkpt>
      <trkpt lat="45.97391" lon="4.79895">
        <ele>217</ele>
        <time>2016-08-29T14:21:44Z</time>
      </trkpt>
      <trkpt lat="45.97396" lon="4.79895">
        <ele>217</ele>
        <time>2016-08-29T14:21:45Z</time>
      </trkpt>
      <trkpt lat="45.97401" lon="4.79895">
        <ele>217</ele>
        <time>2016-08-29T14:21:46Z</time>
      </trkpt>
      <trkpt lat="45.97405" lon="4.79895">
        <ele>217</ele>
        <time>2016-08-29T14:21:47Z</time>
      </trkpt>
      <trkpt lat="45.97413" lon="4.79895">
        <ele>217</ele>
        <time>2016-08-29T14:21:49Z</time>
      </trkpt>
      <trkpt lat="45.97417" lon="4.79894">
        <ele>219</ele>
        <time>2016-08-29T14:21:50Z</time>
      </trkpt>
      <trkpt lat="45.97425" lon="4.79894">
        <ele>219</ele>
        <time>2016-08-29T14:21:52Z</time>
      </trkpt>
      <trkpt lat="45.97429" lon="4.79894">
        <ele>220</ele>
        <time>2016-08-29T14:21:53Z</time>
      </trkpt>
      <trkpt lat="45.97436" lon="4.79893">
        <ele>220</ele>
        <time>2016-08-29T14:21:55Z</time>
      </trkpt>
      <trkpt lat="45.9744" lon="4.79893">
        <ele>220</ele>
        <time>2016-08-29T14:21:56Z</time>
      </trkpt>
      <trkpt lat="45.97447" lon="4.79892">
        <ele>220</ele>
        <time>2016-08-29T14:21:58Z</time>
      </trkpt>
      <trkpt lat="45.97452" lon="4.79892">
        <ele>220</ele>
        <time>2016-08-29T14:21:59Z</time>
      </trkpt>
      <trkpt lat="45.97459" lon="4.7989">
        <ele>221</ele>
        <time>2016-08-29T14:22:01Z</time>
      </trkpt>
      <trkpt lat="45.97463" lon="4.7989">
        <ele>221</ele>
        <time>2016-08-29T14:22:02Z</time>
      </trkpt>
      <trkpt lat="45.97471" lon="4.79889">
        <ele>221</ele>
        <time>2016-08-29T14:22:04Z</time>
      </trkpt>
      <trkpt lat="45.97475" lon="4.79889">
        <ele>221</ele>
        <time>2016-08-29T14:22:05Z</time>
      </trkpt>
      <trkpt lat="45.97482" lon="4.79887">
        <ele>221</ele>
        <time>2016-08-29T14:22:07Z</time>
      </trkpt>
      <trkpt lat="45.97486" lon="4.79886">
        <ele>221</ele>
        <time>2016-08-29T14:22:08Z</time>
      </trkpt>
      <trkpt lat="45.97493" lon="4.79886">
        <ele>221</ele>
        <time>2016-08-29T14:22:10Z</time>
      </trkpt>
      <trkpt lat="45.97497" lon="4.79886">
        <ele>221</ele>
        <time>2016-08-29T14:22:11Z</time>
      </trkpt>
      <trkpt lat="45.97505" lon="4.79886">
        <ele>221</ele>
        <time>2016-08-29T14:22:13Z</time>
      </trkpt>
      <trkpt lat="45.97508" lon="4.79885">
        <ele>221</ele>
        <time>2016-08-29T14:22:14Z</time>
      </trkpt>
      <trkpt lat="45.97515" lon="4.79884">
        <ele>221</ele>
        <time>2016-08-29T14:22:16Z</time>
      </trkpt>
      <trkpt lat="45.97519" lon="4.79884">
        <ele>222</ele>
        <time>2016-08-29T14:22:17Z</time>
      </trkpt>
      <trkpt lat="45.97526" lon="4.79883">
        <ele>222</ele>
        <time>2016-08-29T14:22:19Z</time>
      </trkpt>
      <trkpt lat="45.97529" lon="4.79882">
        <ele>222</ele>
        <time>2016-08-29T14:22:20Z</time>
      </trkpt>
      <trkpt lat="45.97536" lon="4.79881">
        <ele>222</ele>
        <time>2016-08-29T14:22:22Z</time>
      </trkpt>
      <trkpt lat="45.9754" lon="4.79881">
        <ele>222</ele>
        <time>2016-08-29T14:22:23Z</time>
      </trkpt>
      <trkpt lat="45.97547" lon="4.79879">
        <ele>222</ele>
        <time>2016-08-29T14:22:25Z</time>
      </trkpt>
      <trkpt lat="45.97551" lon="4.79878">
        <ele>222</ele>
        <time>2016-08-29T14:22:26Z</time>
      </trkpt>
      <trkpt lat="45.97557" lon="4.79876">
        <ele>222</ele>
        <time>2016-08-29T14:22:28Z</time>
      </trkpt>
      <trkpt lat="45.9756" lon="4.79875">
        <ele>222</ele>
        <time>2016-08-29T14:22:29Z</time>
      </trkpt>
      <trkpt lat="45.97566" lon="4.79873">
        <ele>222</ele>
        <time>2016-08-29T14:22:31Z</time>
      </trkpt>
      <trkpt lat="45.9757" lon="4.79872">
        <ele>222</ele>
        <time>2016-08-29T14:22:32Z</time>
      </trkpt>
      <trkpt lat="45.97576" lon="4.7987">
        <ele>222</ele>
        <time>2016-08-29T14:22:34Z</time>
      </trkpt>
      <trkpt lat="45.97579" lon="4.79869">
        <ele>222</ele>
        <time>2016-08-29T14:22:35Z</time>
      </trkpt>
      <trkpt lat="45.97586" lon="4.79867">
        <ele>221</ele>
        <time>2016-08-29T14:22:37Z</time>
      </trkpt>
      <trkpt lat="45.97589" lon="4.79866">
        <ele>221</ele>
        <time>2016-08-29T14:22:38Z</time>
      </trkpt>
      <trkpt lat="45.97595" lon="4.79865">
        <ele>221</ele>
        <time>2016-08-29T14:22:40Z</time>
      </trkpt>
      <trkpt lat="45.97599" lon="4.79864">
        <ele>221</ele>
        <time>2016-08-29T14:22:41Z</time>
      </trkpt>
      <trkpt lat="45.97606" lon="4.79861">
        <ele>221</ele>
        <time>2016-08-29T14:22:43Z</time>
      </trkpt>
      <trkpt lat="45.97609" lon="4.7986">
        <ele>221</ele>
        <time>2016-08-29T14:22:44Z</time>
      </trkpt>
      <trkpt lat="45.97616" lon="4.79857">
        <ele>221</ele>
        <time>2016-08-29T14:22:46Z</time>
      </trkpt>
      <trkpt lat="45.9762" lon="4.79856">
        <ele>221</ele>
        <time>2016-08-29T14:22:47Z</time>
      </trkpt>
      <trkpt lat="45.97627" lon="4.79853">
        <ele>221</ele>
        <time>2016-08-29T14:22:49Z</time>
      </trkpt>
      <trkpt lat="45.97631" lon="4.79852">
        <ele>221</ele>
        <time>2016-08-29T14:22:50Z</time>
      </trkpt>
      <trkpt lat="45.97639" lon="4.79849">
        <ele>221</ele>
        <time>2016-08-29T14:22:52Z</time>
      </trkpt>
      <trkpt lat="45.97642" lon="4.79847">
        <ele>221</ele>
        <time>2016-08-29T14:22:53Z</time>
      </trkpt>
      <trkpt lat="45.9765" lon="4.79845">
        <ele>221</ele>
        <time>2016-08-29T14:22:55Z</time>
      </trkpt>
      <trkpt lat="45.97654" lon="4.79843">
        <ele>221</ele>
        <time>2016-08-29T14:22:56Z</time>
      </trkpt>
      <trkpt lat="45.97663" lon="4.7984">
        <ele>222</ele>
        <time>2016-08-29T14:22:58Z</time>
      </trkpt>
      <trkpt lat="45.97667" lon="4.79839">
        <ele>221</ele>
        <time>2016-08-29T14:22:59Z</time>
      </trkpt>
      <trkpt lat="45.97676" lon="4.79837">
        <ele>221</ele>
        <time>2016-08-29T14:23:01Z</time>
      </trkpt>
      <trkpt lat="45.9768" lon="4.79836">
        <ele>221</ele>
        <time>2016-08-29T14:23:02Z</time>
      </trkpt>
      <trkpt lat="45.97688" lon="4.79834">
        <ele>221</ele>
        <time>2016-08-29T14:23:04Z</time>
      </trkpt>
      <trkpt lat="45.97693" lon="4.79833">
        <ele>223</ele>
        <time>2016-08-29T14:23:05Z</time>
      </trkpt>
      <trkpt lat="45.97701" lon="4.79831">
        <ele>223</ele>
        <time>2016-08-29T14:23:07Z</time>
      </trkpt>
      <trkpt lat="45.97705" lon="4.79831">
        <ele>223</ele>
        <time>2016-08-29T14:23:08Z</time>
      </trkpt>
      <trkpt lat="45.97714" lon="4.79829">
        <ele>223</ele>
        <time>2016-08-29T14:23:10Z</time>
      </trkpt>
      <trkpt lat="45.97718" lon="4.79828">
        <ele>223</ele>
        <time>2016-08-29T14:23:11Z</time>
      </trkpt>
      <trkpt lat="45.97726" lon="4.79827">
        <ele>223</ele>
        <time>2016-08-29T14:23:13Z</time>
      </trkpt>
      <trkpt lat="45.9773" lon="4.79827">
        <ele>223</ele>
        <time>2016-08-29T14:23:14Z</time>
      </trkpt>
      <trkpt lat="45.97739" lon="4.79825">
        <ele>223</ele>
        <time>2016-08-29T14:23:16Z</time>
      </trkpt>
      <trkpt lat="45.97743" lon="4.79824">
        <ele>223</ele>
        <time>2016-08-29T14:23:17Z</time>
      </trkpt>
      <trkpt lat="45.97747" lon="4.79823">
        <ele>222</ele>
        <time>2016-08-29T14:23:18Z</time>
      </trkpt>
      <trkpt lat="45.97752" lon="4.79823">
        <ele>222</ele>
        <time>2016-08-29T14:23:19Z</time>
      </trkpt>
      <trkpt lat="45.97757" lon="4.79822">
        <ele>223</ele>
        <time>2016-08-29T14:23:20Z</time>
      </trkpt>
      <trkpt lat="45.97762" lon="4.79821">
        <ele>223</ele>
        <time>2016-08-29T14:23:21Z</time>
      </trkpt>
      <trkpt lat="45.97766" lon="4.7982">
        <ele>223</ele>
        <time>2016-08-29T14:23:22Z</time>
      </trkpt>
      <trkpt lat="45.97771" lon="4.79819">
        <ele>223</ele>
        <time>2016-08-29T14:23:23Z</time>
      </trkpt>
      <trkpt lat="45.97776" lon="4.79818">
        <ele>223</ele>
        <time>2016-08-29T14:23:24Z</time>
      </trkpt>
      <trkpt lat="45.97781" lon="4.79818">
        <ele>223</ele>
        <time>2016-08-29T14:23:25Z</time>
      </trkpt>
      <trkpt lat="45.97786" lon="4.79817">
        <ele>223</ele>
        <time>2016-08-29T14:23:26Z</time>
      </trkpt>
      <trkpt lat="45.9779" lon="4.79816">
        <ele>223</ele>
        <time>2016-08-29T14:23:27Z</time>
      </trkpt>
      <trkpt lat="45.97795" lon="4.79815">
        <ele>223</ele>
        <time>2016-08-29T14:23:28Z</time>
      </trkpt>
      <trkpt lat="45.97801" lon="4.79815">
        <ele>223</ele>
        <time>2016-08-29T14:23:29Z</time>
      </trkpt>
      <trkpt lat="45.97805" lon="4.79814">
        <ele>223</ele>
        <time>2016-08-29T14:23:30Z</time>
      </trkpt>
      <trkpt lat="45.9781" lon="4.79813">
        <ele>223</ele>
        <time>2016-08-29T14:23:31Z</time>
      </trkpt>
      <trkpt lat="45.97815" lon="4.79812">
        <ele>223</ele>
        <time>2016-08-29T14:23:32Z</time>
      </trkpt>
      <trkpt lat="45.9782" lon="4.79811">
        <ele>223</ele>
        <time>2016-08-29T14:23:33Z</time>
      </trkpt>
      <trkpt lat="45.97824" lon="4.7981">
        <ele>223</ele>
        <time>2016-08-29T14:23:34Z</time>
      </trkpt>
      <trkpt lat="45.97829" lon="4.79809">
        <ele>223</ele>
        <time>2016-08-29T14:23:35Z</time>
      </trkpt>
      <trkpt lat="45.97835" lon="4.79808">
        <ele>224</ele>
        <time>2016-08-29T14:23:36Z</time>
      </trkpt>
      <trkpt lat="45.9784" lon="4.79807">
        <ele>224</ele>
        <time>2016-08-29T14:23:37Z</time>
      </trkpt>
      <trkpt lat="45.97845" lon="4.79806">
        <ele>224</ele>
        <time>2016-08-29T14:23:38Z</time>
      </trkpt>
      <trkpt lat="45.97851" lon="4.79805">
        <ele>224</ele>
        <time>2016-08-29T14:23:39Z</time>
      </trkpt>
      <trkpt lat="45.97856" lon="4.79804">
        <ele>224</ele>
        <time>2016-08-29T14:23:40Z</time>
      </trkpt>
      <trkpt lat="45.97861" lon="4.79803">
        <ele>224</ele>
        <time>2016-08-29T14:23:41Z</time>
      </trkpt>
      <trkpt lat="45.97867" lon="4.79802">
        <ele>224</ele>
        <time>2016-08-29T14:23:42Z</time>
      </trkpt>
      <trkpt lat="45.97872" lon="4.79801">
        <ele>224</ele>
        <time>2016-08-29T14:23:43Z</time>
      </trkpt>
      <trkpt lat="45.97878" lon="4.798">
        <ele>224</ele>
        <time>2016-08-29T14:23:44Z</time>
      </trkpt>
      <trkpt lat="45.97883" lon="4.79799">
        <ele>224</ele>
        <time>2016-08-29T14:23:45Z</time>
      </trkpt>
      <trkpt lat="45.97888" lon="4.79798">
        <ele>224</ele>
        <time>2016-08-29T14:23:46Z</time>
      </trkpt>
      <trkpt lat="45.97893" lon="4.79797">
        <ele>224</ele>
        <time>2016-08-29T14:23:47Z</time>
      </trkpt>
      <trkpt lat="45.97898" lon="4.79796">
        <ele>224</ele>
        <time>2016-08-29T14:23:48Z</time>
      </trkpt>
      <trkpt lat="45.97903" lon="4.79795">
        <ele>224</ele>
        <time>2016-08-29T14:23:49Z</time>
      </trkpt>
      <trkpt lat="45.97908" lon="4.79794">
        <ele>224</ele>
        <time>2016-08-29T14:23:50Z</time>
      </trkpt>
      <trkpt lat="45.97913" lon="4.79793">
        <ele>224</ele>
        <time>2016-08-29T14:23:51Z</time>
      </trkpt>
      <trkpt lat="45.97921" lon="4.79792">
        <ele>224</ele>
        <time>2016-08-29T14:23:53Z</time>
      </trkpt>
      <trkpt lat="45.97925" lon="4.79793">
        <ele>224</ele>
        <time>2016-08-29T14:23:54Z</time>
      </trkpt>
      <trkpt lat="45.97933" lon="4.79792">
        <ele>224</ele>
        <time>2016-08-29T14:23:56Z</time>
      </trkpt>
      <trkpt lat="45.97938" lon="4.79791">
        <ele>224</ele>
        <time>2016-08-29T14:23:57Z</time>
      </trkpt>
      <trkpt lat="45.97943" lon="4.7979">
        <ele>224</ele>
        <time>2016-08-29T14:23:58Z</time>
      </trkpt>
      <trkpt lat="45.97948" lon="4.79789">
        <ele>224</ele>
        <time>2016-08-29T14:23:59Z</time>
      </trkpt>
      <trkpt lat="45.97952" lon="4.79788">
        <ele>224</ele>
        <time>2016-08-29T14:24:00Z</time>
      </trkpt>
      <trkpt lat="45.97958" lon="4.79787">
        <ele>224</ele>
        <time>2016-08-29T14:24:01Z</time>
      </trkpt>
      <trkpt lat="45.97963" lon="4.79786">
        <ele>224</ele>
        <time>2016-08-29T14:24:02Z</time>
      </trkpt>
      <trkpt lat="45.97968" lon="4.79785">
        <ele>224</ele>
        <time>2016-08-29T14:24:03Z</time>
      </trkpt>
      <trkpt lat="45.97972" lon="4.79784">
        <ele>224</ele>
        <time>2016-08-29T14:24:04Z</time>
      </trkpt>
      <trkpt lat="45.97977" lon="4.79781">
        <ele>224</ele>
        <time>2016-08-29T14:24:05Z</time>
      </trkpt>
      <trkpt lat="45.97982" lon="4.79779">
        <ele>224</ele>
        <time>2016-08-29T14:24:06Z</time>
      </trkpt>
      <trkpt lat="45.97987" lon="4.79778">
        <ele>224</ele>
        <time>2016-08-29T14:24:07Z</time>
      </trkpt>
      <trkpt lat="45.97993" lon="4.79777">
        <ele>224</ele>
        <time>2016-08-29T14:24:08Z</time>
      </trkpt>
      <trkpt lat="45.97998" lon="4.79777">
        <ele>224</ele>
        <time>2016-08-29T14:24:09Z</time>
      </trkpt>
      <trkpt lat="45.98003" lon="4.79777">
        <ele>223</ele>
        <time>2016-08-29T14:24:10Z</time>
      </trkpt>
      <trkpt lat="45.98008" lon="4.79777">
        <ele>223</ele>
        <time>2016-08-29T14:24:11Z</time>
      </trkpt>
      <trkpt lat="45.98013" lon="4.79776">
        <ele>223</ele>
        <time>2016-08-29T14:24:12Z</time>
      </trkpt>
      <trkpt lat="45.98018" lon="4.79776">
        <ele>223</ele>
        <time>2016-08-29T14:24:13Z</time>
      </trkpt>
      <trkpt lat="45.98023" lon="4.79775">
        <ele>223</ele>
        <time>2016-08-29T14:24:14Z</time>
      </trkpt>
      <trkpt lat="45.98028" lon="4.79775">
        <ele>223</ele>
        <time>2016-08-29T14:24:15Z</time>
      </trkpt>
      <trkpt lat="45.98034" lon="4.79774">
        <ele>223</ele>
        <time>2016-08-29T14:24:16Z</time>
      </trkpt>
      <trkpt lat="45.98039" lon="4.79774">
        <ele>223</ele>
        <time>2016-08-29T14:24:17Z</time>
      </trkpt>
      <trkpt lat="45.98044" lon="4.79773">
        <ele>223</ele>
        <time>2016-08-29T14:24:18Z</time>
      </trkpt>
      <trkpt lat="45.9805" lon="4.79773">
        <ele>223</ele>
        <time>2016-08-29T14:24:19Z</time>
      </trkpt>
      <trkpt lat="45.98055" lon="4.79773">
        <ele>223</ele>
        <time>2016-08-29T14:24:20Z</time>
      </trkpt>
      <trkpt lat="45.98059" lon="4.79773">
        <ele>223</ele>
        <time>2016-08-29T14:24:21Z</time>
      </trkpt>
      <trkpt lat="45.98064" lon="4.79772">
        <ele>223</ele>
        <time>2016-08-29T14:24:22Z</time>
      </trkpt>
      <trkpt lat="45.98069" lon="4.79771">
        <ele>223</ele>
        <time>2016-08-29T14:24:23Z</time>
      </trkpt>
      <trkpt lat="45.98074" lon="4.7977">
        <ele>223</ele>
        <time>2016-08-29T14:24:24Z</time>
      </trkpt>
      <trkpt lat="45.98079" lon="4.7977">
        <ele>223</ele>
        <time>2016-08-29T14:24:25Z</time>
      </trkpt>
      <trkpt lat="45.98084" lon="4.79769">
        <ele>223</ele>
        <time>2016-08-29T14:24:26Z</time>
      </trkpt>
      <trkpt lat="45.98089" lon="4.79768">
        <ele>223</ele>
        <time>2016-08-29T14:24:27Z</time>
      </trkpt>
      <trkpt lat="45.98094" lon="4.79767">
        <ele>223</ele>
        <time>2016-08-29T14:24:28Z</time>
      </trkpt>
      <trkpt lat="45.98099" lon="4.79767">
        <ele>223</ele>
        <time>2016-08-29T14:24:29Z</time>
      </trkpt>
      <trkpt lat="45.98104" lon="4.79765">
        <ele>224</ele>
        <time>2016-08-29T14:24:30Z</time>
      </trkpt>
      <trkpt lat="45.98108" lon="4.79764">
        <ele>224</ele>
        <time>2016-08-29T14:24:31Z</time>
      </trkpt>
      <trkpt lat="45.98113" lon="4.79763">
        <ele>224</ele>
        <time>2016-08-29T14:24:32Z</time>
      </trkpt>
      <trkpt lat="45.98117" lon="4.79763">
        <ele>224</ele>
        <time>2016-08-29T14:24:33Z</time>
      </trkpt>
      <trkpt lat="45.98126" lon="4.79762">
        <ele>224</ele>
        <time>2016-08-29T14:24:35Z</time>
      </trkpt>
      <trkpt lat="45.98131" lon="4.79762">
        <ele>224</ele>
        <time>2016-08-29T14:24:36Z</time>
      </trkpt>
      <trkpt lat="45.98139" lon="4.79761">
        <ele>224</ele>
        <time>2016-08-29T14:24:38Z</time>
      </trkpt>
      <trkpt lat="45.98144" lon="4.7976">
        <ele>225</ele>
        <time>2016-08-29T14:24:39Z</time>
      </trkpt>
      <trkpt lat="45.98153" lon="4.79761">
        <ele>225</ele>
        <time>2016-08-29T14:24:41Z</time>
      </trkpt>
      <trkpt lat="45.98157" lon="4.79762">
        <ele>225</ele>
        <time>2016-08-29T14:24:42Z</time>
      </trkpt>
      <trkpt lat="45.98165" lon="4.79768">
        <ele>225</ele>
        <time>2016-08-29T14:24:44Z</time>
      </trkpt>
      <trkpt lat="45.98168" lon="4.79771">
        <ele>226</ele>
        <time>2016-08-29T14:24:45Z</time>
      </trkpt>
      <trkpt lat="45.98174" lon="4.79781">
        <ele>226</ele>
        <time>2016-08-29T14:24:47Z</time>
      </trkpt>
      <trkpt lat="45.98176" lon="4.79787">
        <ele>226</ele>
        <time>2016-08-29T14:24:48Z</time>
      </trkpt>
      <trkpt lat="45.98178" lon="4.79793">
        <ele>226</ele>
        <time>2016-08-29T14:24:49Z</time>
      </trkpt>
      <trkpt lat="45.98181" lon="4.79801">
        <ele>226</ele>
        <time>2016-08-29T14:24:50Z</time>
      </trkpt>
      <trkpt lat="45.98183" lon="4.79807">
        <ele>225</ele>
        <time>2016-08-29T14:24:51Z</time>
      </trkpt>
      <trkpt lat="45.98186" lon="4.79815">
        <ele>225</ele>
        <time>2016-08-29T14:24:52Z</time>
      </trkpt>
      <trkpt lat="45.98188" lon="4.79823">
        <ele>225</ele>
        <time>2016-08-29T14:24:53Z</time>
      </trkpt>
      <trkpt lat="45.98191" lon="4.7983">
        <ele>225</ele>
        <time>2016-08-29T14:24:54Z</time>
      </trkpt>
      <trkpt lat="45.98194" lon="4.79838">
        <ele>225</ele>
        <time>2016-08-29T14:24:55Z</time>
      </trkpt>
      <trkpt lat="45.98197" lon="4.79847">
        <ele>225</ele>
        <time>2016-08-29T14:24:56Z</time>
      </trkpt>
      <trkpt lat="45.982" lon="4.79856">
        <ele>225</ele>
        <time>2016-08-29T14:24:57Z</time>
      </trkpt>
      <trkpt lat="45.98203" lon="4.79864">
        <ele>225</ele>
        <time>2016-08-29T14:24:58Z</time>
      </trkpt>
      <trkpt lat="45.98206" lon="4.79873">
        <ele>225</ele>
        <time>2016-08-29T14:24:59Z</time>
      </trkpt>
      <trkpt lat="45.98209" lon="4.79881">
        <ele>225</ele>
        <time>2016-08-29T14:25:00Z</time>
      </trkpt>
      <trkpt lat="45.98212" lon="4.79889">
        <ele>225</ele>
        <time>2016-08-29T14:25:01Z</time>
      </trkpt>
      <trkpt lat="45.98215" lon="4.79897">
        <ele>225</ele>
        <time>2016-08-29T14:25:02Z</time>
      </trkpt>
      <trkpt lat="45.98218" lon="4.79905">
        <ele>225</ele>
        <time>2016-08-29T14:25:03Z</time>
      </trkpt>
      <trkpt lat="45.98221" lon="4.79912">
        <ele>225</ele>
        <time>2016-08-29T14:25:04Z</time>
      </trkpt>
      <trkpt lat="45.98225" lon="4.79923">
        <ele>225</ele>
        <time>2016-08-29T14:25:06Z</time>
      </trkpt>
      <trkpt lat="45.98228" lon="4.79928">
        <ele>225</ele>
        <time>2016-08-29T14:25:07Z</time>
      </trkpt>
      <trkpt lat="45.98231" lon="4.79934">
        <ele>225</ele>
        <time>2016-08-29T14:25:08Z</time>
      </trkpt>
      <trkpt lat="45.98234" lon="4.7994">
        <ele>225</ele>
        <time>2016-08-29T14:25:09Z</time>
      </trkpt>
      <trkpt lat="45.98237" lon="4.79948">
        <ele>225</ele>
        <time>2016-08-29T14:25:10Z</time>
      </trkpt>
      <trkpt lat="45.98239" lon="4.79955">
        <ele>225</ele>
        <time>2016-08-29T14:25:11Z</time>
      </trkpt>
      <trkpt lat="45.9824" lon="4.79961">
        <ele>225</ele>
        <time>2016-08-29T14:25:12Z</time>
      </trkpt>
      <trkpt lat="45.98242" lon="4.79968">
        <ele>225</ele>
        <time>2016-08-29T14:25:13Z</time>
      </trkpt>
      <trkpt lat="45.98244" lon="4.79976">
        <ele>225</ele>
        <time>2016-08-29T14:25:14Z</time>
      </trkpt>
      <trkpt lat="45.98246" lon="4.79983">
        <ele>225</ele>
        <time>2016-08-29T14:25:15Z</time>
      </trkpt>
      <trkpt lat="45.98249" lon="4.79991">
        <ele>226</ele>
        <time>2016-08-29T14:25:16Z</time>
      </trkpt>
      <trkpt lat="45.98252" lon="4.8">
        <ele>226</ele>
        <time>2016-08-29T14:25:17Z</time>
      </trkpt>
      <trkpt lat="45.98254" lon="4.80008">
        <ele>227</ele>
        <time>2016-08-29T14:25:18Z</time>
      </trkpt>
      <trkpt lat="45.98257" lon="4.80017">
        <ele>228</ele>
        <time>2016-08-29T14:25:19Z</time>
      </trkpt>
      <trkpt lat="45.98261" lon="4.80025">
        <ele>228</ele>
        <time>2016-08-29T14:25:20Z</time>
      </trkpt>
      <trkpt lat="45.98262" lon="4.80032">
        <ele>228</ele>
        <time>2016-08-29T14:25:21Z</time>
      </trkpt>
      <trkpt lat="45.98268" lon="4.80039">
        <ele>229</ele>
        <time>2016-08-29T14:25:22Z</time>
      </trkpt>
      <trkpt lat="45.98272" lon="4.80047">
        <ele>229</ele>
        <time>2016-08-29T14:25:23Z</time>
      </trkpt>
      <trkpt lat="45.98275" lon="4.80053">
        <ele>229</ele>
        <time>2016-08-29T14:25:24Z</time>
      </trkpt>
      <trkpt lat="45.98278" lon="4.80059">
        <ele>229</ele>
        <time>2016-08-29T14:25:25Z</time>
      </trkpt>
      <trkpt lat="45.9828" lon="4.80066">
        <ele>229</ele>
        <time>2016-08-29T14:25:26Z</time>
      </trkpt>
      <trkpt lat="45.98281" lon="4.80072">
        <ele>229</ele>
        <time>2016-08-29T14:25:27Z</time>
      </trkpt>
      <trkpt lat="45.98283" lon="4.80079">
        <ele>229</ele>
        <time>2016-08-29T14:25:28Z</time>
      </trkpt>
      <trkpt lat="45.98285" lon="4.80086">
        <ele>228</ele>
        <time>2016-08-29T14:25:29Z</time>
      </trkpt>
      <trkpt lat="45.98288" lon="4.80094">
        <ele>228</ele>
        <time>2016-08-29T14:25:30Z</time>
      </trkpt>
      <trkpt lat="45.9829" lon="4.80101">
        <ele>228</ele>
        <time>2016-08-29T14:25:31Z</time>
      </trkpt>
      <trkpt lat="45.98293" lon="4.80107">
        <ele>228</ele>
        <time>2016-08-29T14:25:32Z</time>
      </trkpt>
      <trkpt lat="45.98295" lon="4.80114">
        <ele>228</ele>
        <time>2016-08-29T14:25:33Z</time>
      </trkpt>
      <trkpt lat="45.98297" lon="4.8012">
        <ele>228</ele>
        <time>2016-08-29T14:25:34Z</time>
      </trkpt>
      <trkpt lat="45.983" lon="4.80127">
        <ele>228</ele>
        <time>2016-08-29T14:25:35Z</time>
      </trkpt>
      <trkpt lat="45.98302" lon="4.80134">
        <ele>228</ele>
        <time>2016-08-29T14:25:36Z</time>
      </trkpt>
      <trkpt lat="45.98305" lon="4.80141">
        <ele>228</ele>
        <time>2016-08-29T14:25:37Z</time>
      </trkpt>
      <trkpt lat="45.98307" lon="4.80152">
        <ele>228</ele>
        <time>2016-08-29T14:25:39Z</time>
      </trkpt>
      <trkpt lat="45.9831" lon="4.80158">
        <ele>228</ele>
        <time>2016-08-29T14:25:40Z</time>
      </trkpt>
      <trkpt lat="45.98312" lon="4.80165">
        <ele>228</ele>
        <time>2016-08-29T14:25:41Z</time>
      </trkpt>
      <trkpt lat="45.98315" lon="4.8017">
        <ele>227</ele>
        <time>2016-08-29T14:25:42Z</time>
      </trkpt>
      <trkpt lat="45.98317" lon="4.80178">
        <ele>227</ele>
        <time>2016-08-29T14:25:43Z</time>
      </trkpt>
      <trkpt lat="45.9832" lon="4.80185">
        <ele>227</ele>
        <time>2016-08-29T14:25:44Z</time>
      </trkpt>
      <trkpt lat="45.98321" lon="4.80191">
        <ele>227</ele>
        <time>2016-08-29T14:25:45Z</time>
      </trkpt>
      <trkpt lat="45.98323" lon="4.80198">
        <ele>227</ele>
        <time>2016-08-29T14:25:46Z</time>
      </trkpt>
      <trkpt lat="45.98325" lon="4.80204">
        <ele>227</ele>
        <time>2016-08-29T14:25:47Z</time>
      </trkpt>
      <trkpt lat="45.98327" lon="4.8021">
        <ele>227</ele>
        <time>2016-08-29T14:25:48Z</time>
      </trkpt>
      <trkpt lat="45.98329" lon="4.80216">
        <ele>227</ele>
        <time>2016-08-29T14:25:49Z</time>
      </trkpt>
      <trkpt lat="45.98329" lon="4.80223">
        <ele>227</ele>
        <time>2016-08-29T14:25:50Z</time>
      </trkpt>
      <trkpt lat="45.98328" lon="4.8023">
        <ele>228</ele>
        <time>2016-08-29T14:25:51Z</time>
      </trkpt>
      <trkpt lat="45.98327" lon="4.80237">
        <ele>228</ele>
        <time>2016-08-29T14:25:52Z</time>
      </trkpt>
      <trkpt lat="45.98325" lon="4.80244">
        <ele>228</ele>
        <time>2016-08-29T14:25:53Z</time>
      </trkpt>
      <trkpt lat="45.98322" lon="4.80248">
        <ele>228</ele>
        <time>2016-08-29T14:25:54Z</time>
      </trkpt>
      <trkpt lat="45.98321" lon="4.80256">
        <ele>228</ele>
        <time>2016-08-29T14:25:55Z</time>
      </trkpt>
      <trkpt lat="45.9832" lon="4.80264">
        <ele>227</ele>
        <time>2016-08-29T14:25:56Z</time>
      </trkpt>
      <trkpt lat="45.98318" lon="4.80272">
        <ele>227</ele>
        <time>2016-08-29T14:25:57Z</time>
      </trkpt>
      <trkpt lat="45.98317" lon="4.80281">
        <ele>227</ele>
        <time>2016-08-29T14:25:58Z</time>
      </trkpt>
      <trkpt lat="45.98315" lon="4.8029">
        <ele>226</ele>
        <time>2016-08-29T14:25:59Z</time>
      </trkpt>
      <trkpt lat="45.98313" lon="4.80298">
        <ele>226</ele>
        <time>2016-08-29T14:26:00Z</time>
      </trkpt>
      <trkpt lat="45.9831" lon="4.80305">
        <ele>226</ele>
        <time>2016-08-29T14:26:01Z</time>
      </trkpt>
      <trkpt lat="45.98308" lon="4.80313">
        <ele>226</ele>
        <time>2016-08-29T14:26:02Z</time>
      </trkpt>
      <trkpt lat="45.98306" lon="4.80323">
        <ele>226</ele>
        <time>2016-08-29T14:26:03Z</time>
      </trkpt>
      <trkpt lat="45.98304" lon="4.80332">
        <ele>226</ele>
        <time>2016-08-29T14:26:04Z</time>
      </trkpt>
      <trkpt lat="45.98302" lon="4.80341">
        <ele>225</ele>
        <time>2016-08-29T14:26:05Z</time>
      </trkpt>
      <trkpt lat="45.983" lon="4.8035">
        <ele>225</ele>
        <time>2016-08-29T14:26:06Z</time>
      </trkpt>
      <trkpt lat="45.98298" lon="4.80359">
        <ele>225</ele>
        <time>2016-08-29T14:26:07Z</time>
      </trkpt>
      <trkpt lat="45.98296" lon="4.80369">
        <ele>225</ele>
        <time>2016-08-29T14:26:08Z</time>
      </trkpt>
      <trkpt lat="45.98293" lon="4.80378">
        <ele>224</ele>
        <time>2016-08-29T14:26:09Z</time>
      </trkpt>
      <trkpt lat="45.98291" lon="4.80386">
        <ele>224</ele>
        <time>2016-08-29T14:26:10Z</time>
      </trkpt>
      <trkpt lat="45.98288" lon="4.80397">
        <ele>224</ele>
        <time>2016-08-29T14:26:11Z</time>
      </trkpt>
      <trkpt lat="45.98285" lon="4.80407">
        <ele>224</ele>
        <time>2016-08-29T14:26:12Z</time>
      </trkpt>
      <trkpt lat="45.98284" lon="4.80417">
        <ele>223</ele>
        <time>2016-08-29T14:26:13Z</time>
      </trkpt>
      <trkpt lat="45.98282" lon="4.80427">
        <ele>223</ele>
        <time>2016-08-29T14:26:14Z</time>
      </trkpt>
      <trkpt lat="45.98281" lon="4.80438">
        <ele>223</ele>
        <time>2016-08-29T14:26:15Z</time>
      </trkpt>
      <trkpt lat="45.98278" lon="4.80447">
        <ele>223</ele>
        <time>2016-08-29T14:26:16Z</time>
      </trkpt>
      <trkpt lat="45.98276" lon="4.80456">
        <ele>223</ele>
        <time>2016-08-29T14:26:17Z</time>
      </trkpt>
      <trkpt lat="45.98274" lon="4.80465">
        <ele>223</ele>
        <time>2016-08-29T14:26:18Z</time>
      </trkpt>
      <trkpt lat="45.98272" lon="4.80475">
        <ele>223</ele>
        <time>2016-08-29T14:26:19Z</time>
      </trkpt>
      <trkpt lat="45.9827" lon="4.80485">
        <ele>223</ele>
        <time>2016-08-29T14:26:20Z</time>
      </trkpt>
      <trkpt lat="45.98269" lon="4.80495">
        <ele>223</ele>
        <time>2016-08-29T14:26:21Z</time>
      </trkpt>
      <trkpt lat="45.98267" lon="4.80503">
        <ele>223</ele>
        <time>2016-08-29T14:26:22Z</time>
      </trkpt>
      <trkpt lat="45.98265" lon="4.80511">
        <ele>223</ele>
        <time>2016-08-29T14:26:23Z</time>
      </trkpt>
      <trkpt lat="45.98264" lon="4.80518">
        <ele>223</ele>
        <time>2016-08-29T14:26:24Z</time>
      </trkpt>
      <trkpt lat="45.98261" lon="4.80528">
        <ele>224</ele>
        <time>2016-08-29T14:26:26Z</time>
      </trkpt>
      <trkpt lat="45.98259" lon="4.80535">
        <ele>224</ele>
        <time>2016-08-29T14:26:27Z</time>
      </trkpt>
      <trkpt lat="45.98257" lon="4.80542">
        <ele>224</ele>
        <time>2016-08-29T14:26:28Z</time>
      </trkpt>
      <trkpt lat="45.98255" lon="4.8055">
        <ele>224</ele>
        <time>2016-08-29T14:26:29Z</time>
      </trkpt>
      <trkpt lat="45.98253" lon="4.80559">
        <ele>224</ele>
        <time>2016-08-29T14:26:30Z</time>
      </trkpt>
      <trkpt lat="45.9825" lon="4.80566">
        <ele>224</ele>
        <time>2016-08-29T14:26:31Z</time>
      </trkpt>
      <trkpt lat="45.98248" lon="4.80574">
        <ele>224</ele>
        <time>2016-08-29T14:26:32Z</time>
      </trkpt>
      <trkpt lat="45.98246" lon="4.80581">
        <ele>224</ele>
        <time>2016-08-29T14:26:33Z</time>
      </trkpt>
      <trkpt lat="45.98244" lon="4.80589">
        <ele>224</ele>
        <time>2016-08-29T14:26:34Z</time>
      </trkpt>
      <trkpt lat="45.98242" lon="4.80597">
        <ele>224</ele>
        <time>2016-08-29T14:26:35Z</time>
      </trkpt>
      <trkpt lat="45.98239" lon="4.80604">
        <ele>224</ele>
        <time>2016-08-29T14:26:36Z</time>
      </trkpt>
      <trkpt lat="45.98237" lon="4.80611">
        <ele>224</ele>
        <time>2016-08-29T14:26:37Z</time>
      </trkpt>
      <trkpt lat="45.98235" lon="4.80618">
        <ele>224</ele>
        <time>2016-08-29T14:26:38Z</time>
      </trkpt>
      <trkpt lat="45.98233" lon="4.80626">
        <ele>224</ele>
        <time>2016-08-29T14:26:39Z</time>
      </trkpt>
      <trkpt lat="45.9823" lon="4.80632">
        <ele>224</ele>
        <time>2016-08-29T14:26:40Z</time>
      </trkpt>
      <trkpt lat="45.98228" lon="4.80639">
        <ele>224</ele>
        <time>2016-08-29T14:26:41Z</time>
      </trkpt>
      <trkpt lat="45.98226" lon="4.80646">
        <ele>224</ele>
        <time>2016-08-29T14:26:42Z</time>
      </trkpt>
      <trkpt lat="45.98224" lon="4.80652">
        <ele>224</ele>
        <time>2016-08-29T14:26:43Z</time>
      </trkpt>
      <trkpt lat="45.9822" lon="4.80663">
        <ele>224</ele>
        <time>2016-08-29T14:26:45Z</time>
      </trkpt>
      <trkpt lat="45.98217" lon="4.80667">
        <ele>224</ele>
        <time>2016-08-29T14:26:46Z</time>
      </trkpt>
      <trkpt lat="45.98209" lon="4.80672">
        <ele>224</ele>
        <time>2016-08-29T14:26:48Z</time>
      </trkpt>
      <trkpt lat="45.98205" lon="4.80674">
        <ele>224</ele>
        <time>2016-08-29T14:26:49Z</time>
      </trkpt>
      <trkpt lat="45.98197" lon="4.80677">
        <ele>225</ele>
        <time>2016-08-29T14:26:51Z</time>
      </trkpt>
      <trkpt lat="45.98193" lon="4.80679">
        <ele>225</ele>
        <time>2016-08-29T14:26:52Z</time>
      </trkpt>
      <trkpt lat="45.98188" lon="4.8068">
        <ele>225</ele>
        <time>2016-08-29T14:26:53Z</time>
      </trkpt>
      <trkpt lat="45.98184" lon="4.80681">
        <ele>225</ele>
        <time>2016-08-29T14:26:54Z</time>
      </trkpt>
      <trkpt lat="45.98178" lon="4.80682">
        <ele>225</ele>
        <time>2016-08-29T14:26:55Z</time>
      </trkpt>
      <trkpt lat="45.98174" lon="4.80684">
        <ele>225</ele>
        <time>2016-08-29T14:26:56Z</time>
      </trkpt>
      <trkpt lat="45.9817" lon="4.80685">
        <ele>225</ele>
        <time>2016-08-29T14:26:57Z</time>
      </trkpt>
      <trkpt lat="45.98165" lon="4.80686">
        <ele>227</ele>
        <time>2016-08-29T14:26:58Z</time>
      </trkpt>
      <trkpt lat="45.9816" lon="4.80686">
        <ele>227</ele>
        <time>2016-08-29T14:26:59Z</time>
      </trkpt>
      <trkpt lat="45.98156" lon="4.80687">
        <ele>227</ele>
        <time>2016-08-29T14:27:00Z</time>
      </trkpt>
      <trkpt lat="45.98149" lon="4.80689">
        <ele>228</ele>
        <time>2016-08-29T14:27:02Z</time>
      </trkpt>
      <trkpt lat="45.98145" lon="4.80688">
        <ele>228</ele>
        <time>2016-08-29T14:27:03Z</time>
      </trkpt>
      <trkpt lat="45.98136" lon="4.80687">
        <ele>228</ele>
        <time>2016-08-29T14:27:05Z</time>
      </trkpt>
      <trkpt lat="45.98132" lon="4.80688">
        <ele>228</ele>
        <time>2016-08-29T14:27:06Z</time>
      </trkpt>
      <trkpt lat="45.98124" lon="4.80689">
        <ele>228</ele>
        <time>2016-08-29T14:27:08Z</time>
      </trkpt>
      <trkpt lat="45.9812" lon="4.80689">
        <ele>228</ele>
        <time>2016-08-29T14:27:09Z</time>
      </trkpt>
      <trkpt lat="45.98111" lon="4.80689">
        <ele>228</ele>
        <time>2016-08-29T14:27:11Z</time>
      </trkpt>
      <trkpt lat="45.98107" lon="4.80689">
        <ele>228</ele>
        <time>2016-08-29T14:27:12Z</time>
      </trkpt>
      <trkpt lat="45.98099" lon="4.8069">
        <ele>228</ele>
        <time>2016-08-29T14:27:14Z</time>
      </trkpt>
      <trkpt lat="45.98094" lon="4.80691">
        <ele>228</ele>
        <time>2016-08-29T14:27:15Z</time>
      </trkpt>
      <trkpt lat="45.98086" lon="4.80691">
        <ele>228</ele>
        <time>2016-08-29T14:27:17Z</time>
      </trkpt>
      <trkpt lat="45.98082" lon="4.80691">
        <ele>230</ele>
        <time>2016-08-29T14:27:18Z</time>
      </trkpt>
      <trkpt lat="45.98074" lon="4.80691">
        <ele>230</ele>
        <time>2016-08-29T14:27:20Z</time>
      </trkpt>
      <trkpt lat="45.9807" lon="4.80691">
        <ele>230</ele>
        <time>2016-08-29T14:27:21Z</time>
      </trkpt>
      <trkpt lat="45.98063" lon="4.80692">
        <ele>230</ele>
        <time>2016-08-29T14:27:23Z</time>
      </trkpt>
      <trkpt lat="45.98059" lon="4.80692">
        <ele>230</ele>
        <time>2016-08-29T14:27:24Z</time>
      </trkpt>
      <trkpt lat="45.98052" lon="4.80694">
        <ele>230</ele>
        <time>2016-08-29T14:27:26Z</time>
      </trkpt>
      <trkpt lat="45.98048" lon="4.80695">
        <ele>230</ele>
        <time>2016-08-29T14:27:27Z</time>
      </trkpt>
      <trkpt lat="45.9804" lon="4.80696">
        <ele>230</ele>
        <time>2016-08-29T14:27:29Z</time>
      </trkpt>
      <trkpt lat="45.98036" lon="4.80698">
        <ele>230</ele>
        <time>2016-08-29T14:27:30Z</time>
      </trkpt>
      <trkpt lat="45.98031" lon="4.80704">
        <ele>231</ele>
        <time>2016-08-29T14:27:32Z</time>
      </trkpt>
      <trkpt lat="45.9803" lon="4.80708">
        <ele>231</ele>
        <time>2016-08-29T14:27:33Z</time>
      </trkpt>
      <trkpt lat="45.98032" lon="4.80721">
        <ele>231</ele>
        <time>2016-08-29T14:27:36Z</time>
      </trkpt>
      <trkpt lat="45.98032" lon="4.80724">
        <ele>231</ele>
        <time>2016-08-29T14:27:37Z</time>
      </trkpt>
      <trkpt lat="45.98033" lon="4.80734">
        <ele>231</ele>
        <time>2016-08-29T14:27:40Z</time>
      </trkpt>
      <trkpt lat="45.98034" lon="4.80737">
        <ele>231</ele>
        <time>2016-08-29T14:27:41Z</time>
      </trkpt>
      <trkpt lat="45.98037" lon="4.80748">
        <ele>231</ele>
        <time>2016-08-29T14:27:44Z</time>
      </trkpt>
      <trkpt lat="45.98038" lon="4.80752">
        <ele>233</ele>
        <time>2016-08-29T14:27:45Z</time>
      </trkpt>
      <trkpt lat="45.9804" lon="4.8076">
        <ele>233</ele>
        <time>2016-08-29T14:27:47Z</time>
      </trkpt>
      <trkpt lat="45.98041" lon="4.80764">
        <ele>233</ele>
        <time>2016-08-29T14:27:48Z</time>
      </trkpt>
      <trkpt lat="45.98045" lon="4.80775">
        <ele>233</ele>
        <time>2016-08-29T14:27:51Z</time>
      </trkpt>
      <trkpt lat="45.98046" lon="4.80779">
        <ele>233</ele>
        <time>2016-08-29T14:27:52Z</time>
      </trkpt>
      <trkpt lat="45.98049" lon="4.80791">
        <ele>233</ele>
        <time>2016-08-29T14:27:55Z</time>
      </trkpt>
      <trkpt lat="45.9805" lon="4.80794">
        <ele>233</ele>
        <time>2016-08-29T14:27:56Z</time>
      </trkpt>
      <trkpt lat="45.98051" lon="4.80804">
        <ele>234</ele>
        <time>2016-08-29T14:27:59Z</time>
      </trkpt>
      <trkpt lat="45.98052" lon="4.80808">
        <ele>234</ele>
        <time>2016-08-29T14:28:00Z</time>
      </trkpt>
      <trkpt lat="45.98056" lon="4.80818">
        <ele>234</ele>
        <time>2016-08-29T14:28:03Z</time>
      </trkpt>
      <trkpt lat="45.98057" lon="4.80821">
        <ele>234</ele>
        <time>2016-08-29T14:28:04Z</time>
      </trkpt>
      <trkpt lat="45.98059" lon="4.80831">
        <ele>234</ele>
        <time>2016-08-29T14:28:07Z</time>
      </trkpt>
      <trkpt lat="45.9806" lon="4.80835">
        <ele>236</ele>
        <time>2016-08-29T14:28:08Z</time>
      </trkpt>
      <trkpt lat="45.98062" lon="4.80846">
        <ele>236</ele>
        <time>2016-08-29T14:28:11Z</time>
      </trkpt>
      <trkpt lat="45.98063" lon="4.80849">
        <ele>236</ele>
        <time>2016-08-29T14:28:12Z</time>
      </trkpt>
      <trkpt lat="45.98065" lon="4.80858">
        <ele>236</ele>
        <time>2016-08-29T14:28:14Z</time>
      </trkpt>
      <trkpt lat="45.98065" lon="4.80862">
        <ele>237</ele>
        <time>2016-08-29T14:28:15Z</time>
      </trkpt>
      <trkpt lat="45.98067" lon="4.80872">
        <ele>237</ele>
        <time>2016-08-29T14:28:19Z</time>
      </trkpt>
      <trkpt lat="45.98068" lon="4.80875">
        <ele>237</ele>
        <time>2016-08-29T14:28:20Z</time>
      </trkpt>
      <trkpt lat="45.98071" lon="4.80884">
        <ele>237</ele>
        <time>2016-08-29T14:28:23Z</time>
      </trkpt>
      <trkpt lat="45.98071" lon="4.80887">
        <ele>237</ele>
        <time>2016-08-29T14:28:24Z</time>
      </trkpt>
      <trkpt lat="45.98073" lon="4.80897">
        <ele>238</ele>
        <time>2016-08-29T14:28:27Z</time>
      </trkpt>
      <trkpt lat="45.98073" lon="4.809">
        <ele>238</ele>
        <time>2016-08-29T14:28:28Z</time>
      </trkpt>
      <trkpt lat="45.98076" lon="4.80911">
        <ele>238</ele>
        <time>2016-08-29T14:28:31Z</time>
      </trkpt>
      <trkpt lat="45.98077" lon="4.80915">
        <ele>239</ele>
        <time>2016-08-29T14:28:32Z</time>
      </trkpt>
      <trkpt lat="45.9808" lon="4.80924">
        <ele>240</ele>
        <time>2016-08-29T14:28:35Z</time>
      </trkpt>
      <trkpt lat="45.98081" lon="4.80927">
        <ele>240</ele>
        <time>2016-08-29T14:28:36Z</time>
      </trkpt>
      <trkpt lat="45.98082" lon="4.80936">
        <ele>240</ele>
        <time>2016-08-29T14:28:39Z</time>
      </trkpt>
      <trkpt lat="45.98083" lon="4.8094">
        <ele>240</ele>
        <time>2016-08-29T14:28:40Z</time>
      </trkpt>
      <trkpt lat="45.98087" lon="4.80951">
        <ele>238</ele>
        <time>2016-08-29T14:28:43Z</time>
      </trkpt>
      <trkpt lat="45.98088" lon="4.80954">
        <ele>238</ele>
        <time>2016-08-29T14:28:44Z</time>
      </trkpt>
      <trkpt lat="45.9809" lon="4.80964">
        <ele>239</ele>
        <time>2016-08-29T14:28:47Z</time>
      </trkpt>
      <trkpt lat="45.98091" lon="4.80968">
        <ele>239</ele>
        <time>2016-08-29T14:28:48Z</time>
      </trkpt>
      <trkpt lat="45.98093" lon="4.80977">
        <ele>239</ele>
        <time>2016-08-29T14:28:50Z</time>
      </trkpt>
      <trkpt lat="45.98094" lon="4.8098">
        <ele>239</ele>
        <time>2016-08-29T14:28:51Z</time>
      </trkpt>
      <trkpt lat="45.98097" lon="4.80992">
        <ele>240</ele>
        <time>2016-08-29T14:28:54Z</time>
      </trkpt>
      <trkpt lat="45.98099" lon="4.80996">
        <ele>240</ele>
        <time>2016-08-29T14:28:55Z</time>
      </trkpt>
      <trkpt lat="45.98103" lon="4.81006">
        <ele>242</ele>
        <time>2016-08-29T14:28:57Z</time>
      </trkpt>
      <trkpt lat="45.98104" lon="4.81011">
        <ele>242</ele>
        <time>2016-08-29T14:28:58Z</time>
      </trkpt>
      <trkpt lat="45.98108" lon="4.81022">
        <ele>242</ele>
        <time>2016-08-29T14:29:00Z</time>
      </trkpt>
      <trkpt lat="45.98109" lon="4.81027">
        <ele>242</ele>
        <time>2016-08-29T14:29:01Z</time>
      </trkpt>
      <trkpt lat="45.98113" lon="4.81038">
        <ele>242</ele>
        <time>2016-08-29T14:29:03Z</time>
      </trkpt>
      <trkpt lat="45.98114" lon="4.81043">
        <ele>242</ele>
        <time>2016-08-29T14:29:04Z</time>
      </trkpt>
      <trkpt lat="45.98118" lon="4.81054">
        <ele>243</ele>
        <time>2016-08-29T14:29:06Z</time>
      </trkpt>
      <trkpt lat="45.9812" lon="4.81058">
        <ele>243</ele>
        <time>2016-08-29T14:29:07Z</time>
      </trkpt>
      <trkpt lat="45.98123" lon="4.81067">
        <ele>243</ele>
        <time>2016-08-29T14:29:09Z</time>
      </trkpt>
      <trkpt lat="45.98125" lon="4.81072">
        <ele>243</ele>
        <time>2016-08-29T14:29:10Z</time>
      </trkpt>
      <trkpt lat="45.98128" lon="4.81082">
        <ele>243</ele>
        <time>2016-08-29T14:29:12Z</time>
      </trkpt>
      <trkpt lat="45.98129" lon="4.81086">
        <ele>245</ele>
        <time>2016-08-29T14:29:13Z</time>
      </trkpt>
      <trkpt lat="45.98133" lon="4.81097">
        <ele>245</ele>
        <time>2016-08-29T14:29:15Z</time>
      </trkpt>
      <trkpt lat="45.98135" lon="4.81103">
        <ele>245</ele>
        <time>2016-08-29T14:29:16Z</time>
      </trkpt>
      <trkpt lat="45.98138" lon="4.81113">
        <ele>245</ele>
        <time>2016-08-29T14:29:18Z</time>
      </trkpt>
      <trkpt lat="45.9814" lon="4.81118">
        <ele>245</ele>
        <time>2016-08-29T14:29:19Z</time>
      </trkpt>
      <trkpt lat="45.98144" lon="4.81127">
        <ele>245</ele>
        <time>2016-08-29T14:29:21Z</time>
      </trkpt>
      <trkpt lat="45.98146" lon="4.81131">
        <ele>245</ele>
        <time>2016-08-29T14:29:22Z</time>
      </trkpt>
      <trkpt lat="45.98149" lon="4.81139">
        <ele>245</ele>
        <time>2016-08-29T14:29:24Z</time>
      </trkpt>
      <trkpt lat="45.9815" lon="4.81143">
        <ele>245</ele>
        <time>2016-08-29T14:29:25Z</time>
      </trkpt>
      <trkpt lat="45.98155" lon="4.81151">
        <ele>245</ele>
        <time>2016-08-29T14:29:27Z</time>
      </trkpt>
      <trkpt lat="45.98157" lon="4.81155">
        <ele>245</ele>
        <time>2016-08-29T14:29:28Z</time>
      </trkpt>
      <trkpt lat="45.98162" lon="4.81165">
        <ele>245</ele>
        <time>2016-08-29T14:29:30Z</time>
      </trkpt>
      <trkpt lat="45.98163" lon="4.8117">
        <ele>245</ele>
        <time>2016-08-29T14:29:31Z</time>
      </trkpt>
      <trkpt lat="45.98165" lon="4.8118">
        <ele>246</ele>
        <time>2016-08-29T14:29:33Z</time>
      </trkpt>
      <trkpt lat="45.98165" lon="4.81184">
        <ele>246</ele>
        <time>2016-08-29T14:29:34Z</time>
      </trkpt>
      <trkpt lat="45.98166" lon="4.81194">
        <ele>246</ele>
        <time>2016-08-29T14:29:36Z</time>
      </trkpt>
      <trkpt lat="45.98167" lon="4.81199">
        <ele>246</ele>
        <time>2016-08-29T14:29:37Z</time>
      </trkpt>
      <trkpt lat="45.98168" lon="4.81208">
        <ele>246</ele>
        <time>2016-08-29T14:29:39Z</time>
      </trkpt>
      <trkpt lat="45.9817" lon="4.81213">
        <ele>246</ele>
        <time>2016-08-29T14:29:40Z</time>
      </trkpt>
      <trkpt lat="45.98171" lon="4.81224">
        <ele>246</ele>
        <time>2016-08-29T14:29:42Z</time>
      </trkpt>
      <trkpt lat="45.98172" lon="4.81229">
        <ele>246</ele>
        <time>2016-08-29T14:29:43Z</time>
      </trkpt>
      <trkpt lat="45.98174" lon="4.8124">
        <ele>247</ele>
        <time>2016-08-29T14:29:45Z</time>
      </trkpt>
      <trkpt lat="45.98175" lon="4.81245">
        <ele>247</ele>
        <time>2016-08-29T14:29:46Z</time>
      </trkpt>
      <trkpt lat="45.98177" lon="4.81257">
        <ele>247</ele>
        <time>2016-08-29T14:29:48Z</time>
      </trkpt>
      <trkpt lat="45.98178" lon="4.81262">
        <ele>247</ele>
        <time>2016-08-29T14:29:49Z</time>
      </trkpt>
      <trkpt lat="45.98181" lon="4.81269">
        <ele>247</ele>
        <time>2016-08-29T14:29:50Z</time>
      </trkpt>
      <trkpt lat="45.98183" lon="4.81274">
        <ele>247</ele>
        <time>2016-08-29T14:29:51Z</time>
      </trkpt>
      <trkpt lat="45.98184" lon="4.81286">
        <ele>247</ele>
        <time>2016-08-29T14:29:53Z</time>
      </trkpt>
      <trkpt lat="45.98184" lon="4.81291">
        <ele>247</ele>
        <time>2016-08-29T14:29:54Z</time>
      </trkpt>
      <trkpt lat="45.98184" lon="4.81302">
        <ele>247</ele>
        <time>2016-08-29T14:29:56Z</time>
      </trkpt>
      <trkpt lat="45.98185" lon="4.81307">
        <ele>247</ele>
        <time>2016-08-29T14:29:57Z</time>
      </trkpt>
      <trkpt lat="45.98185" lon="4.81316">
        <ele>247</ele>
        <time>2016-08-29T14:29:59Z</time>
      </trkpt>
      <trkpt lat="45.98186" lon="4.81321">
        <ele>247</ele>
        <time>2016-08-29T14:30:00Z</time>
      </trkpt>
      <trkpt lat="45.98189" lon="4.8133">
        <ele>247</ele>
        <time>2016-08-29T14:30:02Z</time>
      </trkpt>
      <trkpt lat="45.9819" lon="4.81335">
        <ele>248</ele>
        <time>2016-08-29T14:30:03Z</time>
      </trkpt>
      <trkpt lat="45.98193" lon="4.81347">
        <ele>248</ele>
        <time>2016-08-29T14:30:05Z</time>
      </trkpt>
      <trkpt lat="45.98194" lon="4.81352">
        <ele>248</ele>
        <time>2016-08-29T14:30:06Z</time>
      </trkpt>
      <trkpt lat="45.98196" lon="4.81362">
        <ele>248</ele>
        <time>2016-08-29T14:30:08Z</time>
      </trkpt>
      <trkpt lat="45.98197" lon="4.81368">
        <ele>248</ele>
        <time>2016-08-29T14:30:09Z</time>
      </trkpt>
      <trkpt lat="45.982" lon="4.81378">
        <ele>248</ele>
        <time>2016-08-29T14:30:11Z</time>
      </trkpt>
      <trkpt lat="45.98201" lon="4.81383">
        <ele>248</ele>
        <time>2016-08-29T14:30:12Z</time>
      </trkpt>
      <trkpt lat="45.98204" lon="4.81393">
        <ele>248</ele>
        <time>2016-08-29T14:30:14Z</time>
      </trkpt>
      <trkpt lat="45.98206" lon="4.81397">
        <ele>248</ele>
        <time>2016-08-29T14:30:15Z</time>
      </trkpt>
      <trkpt lat="45.98209" lon="4.81406">
        <ele>248</ele>
        <time>2016-08-29T14:30:17Z</time>
      </trkpt>
      <trkpt lat="45.9821" lon="4.8141">
        <ele>248</ele>
        <time>2016-08-29T14:30:18Z</time>
      </trkpt>
      <trkpt lat="45.98214" lon="4.81421">
        <ele>249</ele>
        <time>2016-08-29T14:30:20Z</time>
      </trkpt>
      <trkpt lat="45.98217" lon="4.81427">
        <ele>249</ele>
        <time>2016-08-29T14:30:21Z</time>
      </trkpt>
      <trkpt lat="45.98219" lon="4.81432">
        <ele>249</ele>
        <time>2016-08-29T14:30:22Z</time>
      </trkpt>
      <trkpt lat="45.98221" lon="4.81438">
        <ele>249</ele>
        <time>2016-08-29T14:30:23Z</time>
      </trkpt>
      <trkpt lat="45.98225" lon="4.8145">
        <ele>249</ele>
        <time>2016-08-29T14:30:25Z</time>
      </trkpt>
      <trkpt lat="45.98226" lon="4.81455">
        <ele>249</ele>
        <time>2016-08-29T14:30:26Z</time>
      </trkpt>
      <trkpt lat="45.9823" lon="4.81466">
        <ele>249</ele>
        <time>2016-08-29T14:30:28Z</time>
      </trkpt>
      <trkpt lat="45.98231" lon="4.81472">
        <ele>249</ele>
        <time>2016-08-29T14:30:29Z</time>
      </trkpt>
      <trkpt lat="45.98233" lon="4.81478">
        <ele>249</ele>
        <time>2016-08-29T14:30:30Z</time>
      </trkpt>
      <trkpt lat="45.98235" lon="4.81484">
        <ele>249</ele>
        <time>2016-08-29T14:30:31Z</time>
      </trkpt>
      <trkpt lat="45.98238" lon="4.8149">
        <ele>249</ele>
        <time>2016-08-29T14:30:32Z</time>
      </trkpt>
      <trkpt lat="45.9824" lon="4.81496">
        <ele>249</ele>
        <time>2016-08-29T14:30:33Z</time>
      </trkpt>
      <trkpt lat="45.98242" lon="4.81503">
        <ele>249</ele>
        <time>2016-08-29T14:30:34Z</time>
      </trkpt>
      <trkpt lat="45.98245" lon="4.8151">
        <ele>249</ele>
        <time>2016-08-29T14:30:35Z</time>
      </trkpt>
      <trkpt lat="45.98247" lon="4.81517">
        <ele>249</ele>
        <time>2016-08-29T14:30:36Z</time>
      </trkpt>
      <trkpt lat="45.98249" lon="4.81524">
        <ele>249</ele>
        <time>2016-08-29T14:30:37Z</time>
      </trkpt>
      <trkpt lat="45.98251" lon="4.81531">
        <ele>247</ele>
        <time>2016-08-29T14:30:38Z</time>
      </trkpt>
      <trkpt lat="45.98253" lon="4.81538">
        <ele>247</ele>
        <time>2016-08-29T14:30:39Z</time>
      </trkpt>
      <trkpt lat="45.98256" lon="4.81544">
        <ele>247</ele>
        <time>2016-08-29T14:30:40Z</time>
      </trkpt>
      <trkpt lat="45.98258" lon="4.81551">
        <ele>247</ele>
        <time>2016-08-29T14:30:41Z</time>
      </trkpt>
      <trkpt lat="45.9826" lon="4.81558">
        <ele>247</ele>
        <time>2016-08-29T14:30:42Z</time>
      </trkpt>
      <trkpt lat="45.98262" lon="4.81564">
        <ele>247</ele>
        <time>2016-08-29T14:30:43Z</time>
      </trkpt>
      <trkpt lat="45.98264" lon="4.8157">
        <ele>247</ele>
        <time>2016-08-29T14:30:44Z</time>
      </trkpt>
      <trkpt lat="45.98267" lon="4.81577">
        <ele>247</ele>
        <time>2016-08-29T14:30:45Z</time>
      </trkpt>
      <trkpt lat="45.98269" lon="4.81583">
        <ele>247</ele>
        <time>2016-08-29T14:30:46Z</time>
      </trkpt>
      <trkpt lat="45.98271" lon="4.8159">
        <ele>247</ele>
        <time>2016-08-29T14:30:47Z</time>
      </trkpt>
      <trkpt lat="45.98273" lon="4.81596">
        <ele>247</ele>
        <time>2016-08-29T14:30:48Z</time>
      </trkpt>
      <trkpt lat="45.98276" lon="4.81602">
        <ele>247</ele>
        <time>2016-08-29T14:30:49Z</time>
      </trkpt>
      <trkpt lat="45.98278" lon="4.81608">
        <ele>247</ele>
        <time>2016-08-29T14:30:50Z</time>
      </trkpt>
      <trkpt lat="45.98281" lon="4.81614">
        <ele>247</ele>
        <time>2016-08-29T14:30:51Z</time>
      </trkpt>
      <trkpt lat="45.98285" lon="4.81621">
        <ele>247</ele>
        <time>2016-08-29T14:30:52Z</time>
      </trkpt>
      <trkpt lat="45.98288" lon="4.81626">
        <ele>247</ele>
        <time>2016-08-29T14:30:53Z</time>
      </trkpt>
      <trkpt lat="45.98292" lon="4.81632">
        <ele>247</ele>
        <time>2016-08-29T14:30:54Z</time>
      </trkpt>
      <trkpt lat="45.98296" lon="4.81636">
        <ele>247</ele>
        <time>2016-08-29T14:30:55Z</time>
      </trkpt>
      <trkpt lat="45.98301" lon="4.81641">
        <ele>246</ele>
        <time>2016-08-29T14:30:56Z</time>
      </trkpt>
      <trkpt lat="45.98306" lon="4.81645">
        <ele>246</ele>
        <time>2016-08-29T14:30:57Z</time>
      </trkpt>
      <trkpt lat="45.9831" lon="4.81649">
        <ele>246</ele>
        <time>2016-08-29T14:30:58Z</time>
      </trkpt>
      <trkpt lat="45.98315" lon="4.81653">
        <ele>246</ele>
        <time>2016-08-29T14:30:59Z</time>
      </trkpt>
      <trkpt lat="45.9832" lon="4.81657">
        <ele>246</ele>
        <time>2016-08-29T14:31:00Z</time>
      </trkpt>
      <trkpt lat="45.98324" lon="4.81661">
        <ele>246</ele>
        <time>2016-08-29T14:31:01Z</time>
      </trkpt>
      <trkpt lat="45.98329" lon="4.81664">
        <ele>246</ele>
        <time>2016-08-29T14:31:02Z</time>
      </trkpt>
      <trkpt lat="45.98334" lon="4.81668">
        <ele>246</ele>
        <time>2016-08-29T14:31:03Z</time>
      </trkpt>
      <trkpt lat="45.98339" lon="4.81671">
        <ele>245</ele>
        <time>2016-08-29T14:31:04Z</time>
      </trkpt>
      <trkpt lat="45.98345" lon="4.81673">
        <ele>245</ele>
        <time>2016-08-29T14:31:05Z</time>
      </trkpt>
      <trkpt lat="45.9835" lon="4.81674">
        <ele>245</ele>
        <time>2016-08-29T14:31:06Z</time>
      </trkpt>
      <trkpt lat="45.98355" lon="4.81674">
        <ele>245</ele>
        <time>2016-08-29T14:31:07Z</time>
      </trkpt>
      <trkpt lat="45.98361" lon="4.81674">
        <ele>244</ele>
        <time>2016-08-29T14:31:08Z</time>
      </trkpt>
      <trkpt lat="45.98366" lon="4.81673">
        <ele>244</ele>
        <time>2016-08-29T14:31:09Z</time>
      </trkpt>
      <trkpt lat="45.98371" lon="4.81672">
        <ele>244</ele>
        <time>2016-08-29T14:31:10Z</time>
      </trkpt>
      <trkpt lat="45.98377" lon="4.81671">
        <ele>244</ele>
        <time>2016-08-29T14:31:11Z</time>
      </trkpt>
      <trkpt lat="45.98382" lon="4.8167">
        <ele>244</ele>
        <time>2016-08-29T14:31:12Z</time>
      </trkpt>
      <trkpt lat="45.98387" lon="4.81669">
        <ele>243</ele>
        <time>2016-08-29T14:31:13Z</time>
      </trkpt>
      <trkpt lat="45.98392" lon="4.81668">
        <ele>243</ele>
        <time>2016-08-29T14:31:14Z</time>
      </trkpt>
      <trkpt lat="45.98397" lon="4.81667">
        <ele>243</ele>
        <time>2016-08-29T14:31:15Z</time>
      </trkpt>
      <trkpt lat="45.98402" lon="4.81666">
        <ele>242</ele>
        <time>2016-08-29T14:31:16Z</time>
      </trkpt>
      <trkpt lat="45.98407" lon="4.81665">
        <ele>241</ele>
        <time>2016-08-29T14:31:17Z</time>
      </trkpt>
      <trkpt lat="45.98411" lon="4.81664">
        <ele>241</ele>
        <time>2016-08-29T14:31:18Z</time>
      </trkpt>
      <trkpt lat="45.98416" lon="4.81664">
        <ele>241</ele>
        <time>2016-08-29T14:31:19Z</time>
      </trkpt>
      <trkpt lat="45.98422" lon="4.81664">
        <ele>240</ele>
        <time>2016-08-29T14:31:20Z</time>
      </trkpt>
      <trkpt lat="45.98427" lon="4.81666">
        <ele>240</ele>
        <time>2016-08-29T14:31:21Z</time>
      </trkpt>
      <trkpt lat="45.98432" lon="4.81668">
        <ele>240</ele>
        <time>2016-08-29T14:31:22Z</time>
      </trkpt>
      <trkpt lat="45.98437" lon="4.81672">
        <ele>240</ele>
        <time>2016-08-29T14:31:23Z</time>
      </trkpt>
      <trkpt lat="45.98441" lon="4.81676">
        <ele>240</ele>
        <time>2016-08-29T14:31:24Z</time>
      </trkpt>
      <trkpt lat="45.98445" lon="4.81682">
        <ele>239</ele>
        <time>2016-08-29T14:31:25Z</time>
      </trkpt>
      <trkpt lat="45.98449" lon="4.81687">
        <ele>239</ele>
        <time>2016-08-29T14:31:26Z</time>
      </trkpt>
      <trkpt lat="45.98452" lon="4.81694">
        <ele>239</ele>
        <time>2016-08-29T14:31:27Z</time>
      </trkpt>
      <trkpt lat="45.98455" lon="4.817">
        <ele>239</ele>
        <time>2016-08-29T14:31:28Z</time>
      </trkpt>
      <trkpt lat="45.98459" lon="4.81707">
        <ele>239</ele>
        <time>2016-08-29T14:31:29Z</time>
      </trkpt>
      <trkpt lat="45.98463" lon="4.81713">
        <ele>239</ele>
        <time>2016-08-29T14:31:30Z</time>
      </trkpt>
      <trkpt lat="45.98468" lon="4.81719">
        <ele>239</ele>
        <time>2016-08-29T14:31:31Z</time>
      </trkpt>
      <trkpt lat="45.98474" lon="4.81725">
        <ele>239</ele>
        <time>2016-08-29T14:31:32Z</time>
      </trkpt>
      <trkpt lat="45.98481" lon="4.81732">
        <ele>238</ele>
        <time>2016-08-29T14:31:33Z</time>
      </trkpt>
      <trkpt lat="45.98487" lon="4.81739">
        <ele>238</ele>
        <time>2016-08-29T14:31:34Z</time>
      </trkpt>
      <trkpt lat="45.98493" lon="4.81745">
        <ele>238</ele>
        <time>2016-08-29T14:31:35Z</time>
      </trkpt>
      <trkpt lat="45.985" lon="4.81752">
        <ele>237</ele>
        <time>2016-08-29T14:31:36Z</time>
      </trkpt>
      <trkpt lat="45.98506" lon="4.81759">
        <ele>237</ele>
        <time>2016-08-29T14:31:37Z</time>
      </trkpt>
      <trkpt lat="45.98512" lon="4.81768">
        <ele>237</ele>
        <time>2016-08-29T14:31:38Z</time>
      </trkpt>
      <trkpt lat="45.98518" lon="4.81776">
        <ele>238</ele>
        <time>2016-08-29T14:31:39Z</time>
      </trkpt>
      <trkpt lat="45.98523" lon="4.81784">
        <ele>238</ele>
        <time>2016-08-29T14:31:40Z</time>
      </trkpt>
      <trkpt lat="45.98529" lon="4.81792">
        <ele>238</ele>
        <time>2016-08-29T14:31:41Z</time>
      </trkpt>
      <trkpt lat="45.98535" lon="4.81799">
        <ele>238</ele>
        <time>2016-08-29T14:31:42Z</time>
      </trkpt>
      <trkpt lat="45.9854" lon="4.81805">
        <ele>238</ele>
        <time>2016-08-29T14:31:43Z</time>
      </trkpt>
      <trkpt lat="45.98545" lon="4.81808">
        <ele>238</ele>
        <time>2016-08-29T14:31:44Z</time>
      </trkpt>
      <trkpt lat="45.9855" lon="4.81809">
        <ele>238</ele>
        <time>2016-08-29T14:31:45Z</time>
      </trkpt>
      <trkpt lat="45.98555" lon="4.81808">
        <ele>238</ele>
        <time>2016-08-29T14:31:46Z</time>
      </trkpt>
      <trkpt lat="45.9856" lon="4.81804">
        <ele>238</ele>
        <time>2016-08-29T14:31:47Z</time>
      </trkpt>
      <trkpt lat="45.98564" lon="4.81798">
        <ele>238</ele>
        <time>2016-08-29T14:31:48Z</time>
      </trkpt>
      <trkpt lat="45.98568" lon="4.81794">
        <ele>238</ele>
        <time>2016-08-29T14:31:49Z</time>
      </trkpt>
      <trkpt lat="45.98571" lon="4.81789">
        <ele>238</ele>
        <time>2016-08-29T14:31:50Z</time>
      </trkpt>
      <trkpt lat="45.98575" lon="4.81784">
        <ele>238</ele>
        <time>2016-08-29T14:31:51Z</time>
      </trkpt>
      <trkpt lat="45.98579" lon="4.81779">
        <ele>238</ele>
        <time>2016-08-29T14:31:52Z</time>
      </trkpt>
      <trkpt lat="45.98583" lon="4.81775">
        <ele>237</ele>
        <time>2016-08-29T14:31:53Z</time>
      </trkpt>
      <trkpt lat="45.98588" lon="4.81769">
        <ele>238</ele>
        <time>2016-08-29T14:31:54Z</time>
      </trkpt>
      <trkpt lat="45.98593" lon="4.81766">
        <ele>238</ele>
        <time>2016-08-29T14:31:55Z</time>
      </trkpt>
      <trkpt lat="45.98598" lon="4.81762">
        <ele>238</ele>
        <time>2016-08-29T14:31:56Z</time>
      </trkpt>
      <trkpt lat="45.98603" lon="4.81759">
        <ele>238</ele>
        <time>2016-08-29T14:31:57Z</time>
      </trkpt>
      <trkpt lat="45.98608" lon="4.81757">
        <ele>238</ele>
        <time>2016-08-29T14:31:58Z</time>
      </trkpt>
      <trkpt lat="45.98613" lon="4.81755">
        <ele>238</ele>
        <time>2016-08-29T14:31:59Z</time>
      </trkpt>
      <trkpt lat="45.98617" lon="4.81754">
        <ele>238</ele>
        <time>2016-08-29T14:32:00Z</time>
      </trkpt>
      <trkpt lat="45.98622" lon="4.81753">
        <ele>238</ele>
        <time>2016-08-29T14:32:01Z</time>
      </trkpt>
      <trkpt lat="45.9863" lon="4.81749">
        <ele>237</ele>
        <time>2016-08-29T14:32:03Z</time>
      </trkpt>
      <trkpt lat="45.98634" lon="4.81748">
        <ele>237</ele>
        <time>2016-08-29T14:32:04Z</time>
      </trkpt>
      <trkpt lat="45.98638" lon="4.81747">
        <ele>237</ele>
        <time>2016-08-29T14:32:05Z</time>
      </trkpt>
      <trkpt lat="45.98643" lon="4.81746">
        <ele>237</ele>
        <time>2016-08-29T14:32:06Z</time>
      </trkpt>
      <trkpt lat="45.98647" lon="4.81745">
        <ele>237</ele>
        <time>2016-08-29T14:32:07Z</time>
      </trkpt>
      <trkpt lat="45.98652" lon="4.81744">
        <ele>237</ele>
        <time>2016-08-29T14:32:08Z</time>
      </trkpt>
      <trkpt lat="45.98656" lon="4.81743">
        <ele>237</ele>
        <time>2016-08-29T14:32:09Z</time>
      </trkpt>
      <trkpt lat="45.98661" lon="4.81742">
        <ele>237</ele>
        <time>2016-08-29T14:32:10Z</time>
      </trkpt>
      <trkpt lat="45.98666" lon="4.81741">
        <ele>238</ele>
        <time>2016-08-29T14:32:11Z</time>
      </trkpt>
      <trkpt lat="45.9867" lon="4.81739">
        <ele>238</ele>
        <time>2016-08-29T14:32:12Z</time>
      </trkpt>
      <trkpt lat="45.98675" lon="4.81738">
        <ele>238</ele>
        <time>2016-08-29T14:32:13Z</time>
      </trkpt>
      <trkpt lat="45.9868" lon="4.81736">
        <ele>238</ele>
        <time>2016-08-29T14:32:14Z</time>
      </trkpt>
      <trkpt lat="45.98684" lon="4.81735">
        <ele>238</ele>
        <time>2016-08-29T14:32:15Z</time>
      </trkpt>
      <trkpt lat="45.9869" lon="4.81733">
        <ele>238</ele>
        <time>2016-08-29T14:32:16Z</time>
      </trkpt>
      <trkpt lat="45.98694" lon="4.81732">
        <ele>238</ele>
        <time>2016-08-29T14:32:17Z</time>
      </trkpt>
      <trkpt lat="45.98699" lon="4.8173">
        <ele>239</ele>
        <time>2016-08-29T14:32:18Z</time>
      </trkpt>
      <trkpt lat="45.98704" lon="4.81729">
        <ele>239</ele>
        <time>2016-08-29T14:32:19Z</time>
      </trkpt>
      <trkpt lat="45.98708" lon="4.81728">
        <ele>239</ele>
        <time>2016-08-29T14:32:20Z</time>
      </trkpt>
      <trkpt lat="45.98713" lon="4.81727">
        <ele>239</ele>
        <time>2016-08-29T14:32:21Z</time>
      </trkpt>
      <trkpt lat="45.98718" lon="4.81727">
        <ele>239</ele>
        <time>2016-08-29T14:32:22Z</time>
      </trkpt>
      <trkpt lat="45.98727" lon="4.81731">
        <ele>239</ele>
        <time>2016-08-29T14:32:24Z</time>
      </trkpt>
      <trkpt lat="45.9873" lon="4.81735">
        <ele>239</ele>
        <time>2016-08-29T14:32:25Z</time>
      </trkpt>
      <trkpt lat="45.98734" lon="4.81741">
        <ele>240</ele>
        <time>2016-08-29T14:32:26Z</time>
      </trkpt>
      <trkpt lat="45.98737" lon="4.81747">
        <ele>240</ele>
        <time>2016-08-29T14:32:27Z</time>
      </trkpt>
      <trkpt lat="45.9874" lon="4.81753">
        <ele>240</ele>
        <time>2016-08-29T14:32:28Z</time>
      </trkpt>
      <trkpt lat="45.98744" lon="4.81759">
        <ele>240</ele>
        <time>2016-08-29T14:32:29Z</time>
      </trkpt>
      <trkpt lat="45.98747" lon="4.81765">
        <ele>240</ele>
        <time>2016-08-29T14:32:30Z</time>
      </trkpt>
      <trkpt lat="45.98749" lon="4.8177">
        <ele>240</ele>
        <time>2016-08-29T14:32:31Z</time>
      </trkpt>
      <trkpt lat="45.98752" lon="4.81776">
        <ele>241</ele>
        <time>2016-08-29T14:32:32Z</time>
      </trkpt>
      <trkpt lat="45.98754" lon="4.81781">
        <ele>241</ele>
        <time>2016-08-29T14:32:33Z</time>
      </trkpt>
      <trkpt lat="45.98758" lon="4.81793">
        <ele>240</ele>
        <time>2016-08-29T14:32:35Z</time>
      </trkpt>
      <trkpt lat="45.98761" lon="4.81799">
        <ele>240</ele>
        <time>2016-08-29T14:32:36Z</time>
      </trkpt>
      <trkpt lat="45.98763" lon="4.81805">
        <ele>240</ele>
        <time>2016-08-29T14:32:37Z</time>
      </trkpt>
      <trkpt lat="45.98767" lon="4.81812">
        <ele>240</ele>
        <time>2016-08-29T14:32:38Z</time>
      </trkpt>
      <trkpt lat="45.9877" lon="4.81819">
        <ele>240</ele>
        <time>2016-08-29T14:32:39Z</time>
      </trkpt>
      <trkpt lat="45.98774" lon="4.81826">
        <ele>240</ele>
        <time>2016-08-29T14:32:40Z</time>
      </trkpt>
      <trkpt lat="45.98777" lon="4.81833">
        <ele>240</ele>
        <time>2016-08-29T14:32:41Z</time>
      </trkpt>
      <trkpt lat="45.98781" lon="4.81841">
        <ele>239</ele>
        <time>2016-08-29T14:32:42Z</time>
      </trkpt>
      <trkpt lat="45.98784" lon="4.81848">
        <ele>239</ele>
        <time>2016-08-29T14:32:43Z</time>
      </trkpt>
      <trkpt lat="45.98788" lon="4.81856">
        <ele>239</ele>
        <time>2016-08-29T14:32:44Z</time>
      </trkpt>
      <trkpt lat="45.98791" lon="4.81864">
        <ele>239</ele>
        <time>2016-08-29T14:32:45Z</time>
      </trkpt>
      <trkpt lat="45.98794" lon="4.81872">
        <ele>239</ele>
        <time>2016-08-29T14:32:46Z</time>
      </trkpt>
      <trkpt lat="45.98796" lon="4.8188">
        <ele>239</ele>
        <time>2016-08-29T14:32:47Z</time>
      </trkpt>
      <trkpt lat="45.988" lon="4.81888">
        <ele>239</ele>
        <time>2016-08-29T14:32:48Z</time>
      </trkpt>
      <trkpt lat="45.98802" lon="4.81896">
        <ele>239</ele>
        <time>2016-08-29T14:32:49Z</time>
      </trkpt>
      <trkpt lat="45.98804" lon="4.81903">
        <ele>239</ele>
        <time>2016-08-29T14:32:50Z</time>
      </trkpt>
      <trkpt lat="45.98806" lon="4.81911">
        <ele>239</ele>
        <time>2016-08-29T14:32:51Z</time>
      </trkpt>
      <trkpt lat="45.98808" lon="4.81919">
        <ele>239</ele>
        <time>2016-08-29T14:32:52Z</time>
      </trkpt>
      <trkpt lat="45.98809" lon="4.81927">
        <ele>239</ele>
        <time>2016-08-29T14:32:53Z</time>
      </trkpt>
      <trkpt lat="45.98811" lon="4.81936">
        <ele>239</ele>
        <time>2016-08-29T14:32:54Z</time>
      </trkpt>
      <trkpt lat="45.98812" lon="4.81943">
        <ele>239</ele>
        <time>2016-08-29T14:32:55Z</time>
      </trkpt>
      <trkpt lat="45.98812" lon="4.81952">
        <ele>239</ele>
        <time>2016-08-29T14:32:56Z</time>
      </trkpt>
      <trkpt lat="45.98813" lon="4.8196">
        <ele>239</ele>
        <time>2016-08-29T14:32:57Z</time>
      </trkpt>
      <trkpt lat="45.98814" lon="4.81968">
        <ele>239</ele>
        <time>2016-08-29T14:32:58Z</time>
      </trkpt>
      <trkpt lat="45.98815" lon="4.81976">
        <ele>239</ele>
        <time>2016-08-29T14:32:59Z</time>
      </trkpt>
      <trkpt lat="45.98816" lon="4.81984">
        <ele>238</ele>
        <time>2016-08-29T14:33:00Z</time>
      </trkpt>
      <trkpt lat="45.98817" lon="4.81992">
        <ele>238</ele>
        <time>2016-08-29T14:33:01Z</time>
      </trkpt>
      <trkpt lat="45.98819" lon="4.82">
        <ele>238</ele>
        <time>2016-08-29T14:33:02Z</time>
      </trkpt>
      <trkpt lat="45.9882" lon="4.82009">
        <ele>238</ele>
        <time>2016-08-29T14:33:03Z</time>
      </trkpt>
      <trkpt lat="45.98821" lon="4.82017">
        <ele>238</ele>
        <time>2016-08-29T14:33:04Z</time>
      </trkpt>
      <trkpt lat="45.98822" lon="4.82025">
        <ele>238</ele>
        <time>2016-08-29T14:33:05Z</time>
      </trkpt>
      <trkpt lat="45.98823" lon="4.82033">
        <ele>238</ele>
        <time>2016-08-29T14:33:06Z</time>
      </trkpt>
      <trkpt lat="45.98825" lon="4.82041">
        <ele>238</ele>
        <time>2016-08-29T14:33:07Z</time>
      </trkpt>
      <trkpt lat="45.98826" lon="4.82049">
        <ele>238</ele>
        <time>2016-08-29T14:33:08Z</time>
      </trkpt>
      <trkpt lat="45.98827" lon="4.82056">
        <ele>237</ele>
        <time>2016-08-29T14:33:09Z</time>
      </trkpt>
      <trkpt lat="45.98828" lon="4.82064">
        <ele>237</ele>
        <time>2016-08-29T14:33:10Z</time>
      </trkpt>
      <trkpt lat="45.98829" lon="4.8207">
        <ele>237</ele>
        <time>2016-08-29T14:33:11Z</time>
      </trkpt>
      <trkpt lat="45.9883" lon="4.82077">
        <ele>236</ele>
        <time>2016-08-29T14:33:12Z</time>
      </trkpt>
      <trkpt lat="45.98832" lon="4.82084">
        <ele>236</ele>
        <time>2016-08-29T14:33:13Z</time>
      </trkpt>
      <trkpt lat="45.98833" lon="4.82092">
        <ele>236</ele>
        <time>2016-08-29T14:33:14Z</time>
      </trkpt>
      <trkpt lat="45.98835" lon="4.82099">
        <ele>236</ele>
        <time>2016-08-29T14:33:15Z</time>
      </trkpt>
      <trkpt lat="45.98836" lon="4.82107">
        <ele>236</ele>
        <time>2016-08-29T14:33:16Z</time>
      </trkpt>
      <trkpt lat="45.98838" lon="4.82115">
        <ele>235</ele>
        <time>2016-08-29T14:33:17Z</time>
      </trkpt>
      <trkpt lat="45.98839" lon="4.82123">
        <ele>236</ele>
        <time>2016-08-29T14:33:18Z</time>
      </trkpt>
      <trkpt lat="45.98841" lon="4.82131">
        <ele>236</ele>
        <time>2016-08-29T14:33:19Z</time>
      </trkpt>
      <trkpt lat="45.98842" lon="4.82136">
        <ele>236</ele>
        <time>2016-08-29T14:33:20Z</time>
      </trkpt>
      <trkpt lat="45.98844" lon="4.82143">
        <ele>236</ele>
        <time>2016-08-29T14:33:21Z</time>
      </trkpt>
      <trkpt lat="45.98845" lon="4.8215">
        <ele>236</ele>
        <time>2016-08-29T14:33:22Z</time>
      </trkpt>
      <trkpt lat="45.98848" lon="4.82158">
        <ele>236</ele>
        <time>2016-08-29T14:33:23Z</time>
      </trkpt>
      <trkpt lat="45.9885" lon="4.82167">
        <ele>236</ele>
        <time>2016-08-29T14:33:24Z</time>
      </trkpt>
      <trkpt lat="45.98852" lon="4.82175">
        <ele>236</ele>
        <time>2016-08-29T14:33:25Z</time>
      </trkpt>
      <trkpt lat="45.98854" lon="4.82183">
        <ele>236</ele>
        <time>2016-08-29T14:33:26Z</time>
      </trkpt>
      <trkpt lat="45.98857" lon="4.8219">
        <ele>236</ele>
        <time>2016-08-29T14:33:27Z</time>
      </trkpt>
      <trkpt lat="45.98861" lon="4.822">
        <ele>236</ele>
        <time>2016-08-29T14:33:28Z</time>
      </trkpt>
      <trkpt lat="45.98866" lon="4.82208">
        <ele>236</ele>
        <time>2016-08-29T14:33:29Z</time>
      </trkpt>
      <trkpt lat="45.98869" lon="4.82215">
        <ele>236</ele>
        <time>2016-08-29T14:33:30Z</time>
      </trkpt>
      <trkpt lat="45.98872" lon="4.82221">
        <ele>236</ele>
        <time>2016-08-29T14:33:31Z</time>
      </trkpt>
      <trkpt lat="45.98875" lon="4.82227">
        <ele>236</ele>
        <time>2016-08-29T14:33:32Z</time>
      </trkpt>
      <trkpt lat="45.98877" lon="4.82238">
        <ele>236</ele>
        <time>2016-08-29T14:33:34Z</time>
      </trkpt>
      <trkpt lat="45.9888" lon="4.82243">
        <ele>236</ele>
        <time>2016-08-29T14:33:35Z</time>
      </trkpt>
      <trkpt lat="45.98883" lon="4.82249">
        <ele>236</ele>
        <time>2016-08-29T14:33:36Z</time>
      </trkpt>
      <trkpt lat="45.98886" lon="4.82255">
        <ele>236</ele>
        <time>2016-08-29T14:33:37Z</time>
      </trkpt>
      <trkpt lat="45.98889" lon="4.82261">
        <ele>236</ele>
        <time>2016-08-29T14:33:38Z</time>
      </trkpt>
      <trkpt lat="45.98892" lon="4.82267">
        <ele>236</ele>
        <time>2016-08-29T14:33:39Z</time>
      </trkpt>
      <trkpt lat="45.98896" lon="4.82272">
        <ele>236</ele>
        <time>2016-08-29T14:33:40Z</time>
      </trkpt>
      <trkpt lat="45.98899" lon="4.82278">
        <ele>236</ele>
        <time>2016-08-29T14:33:41Z</time>
      </trkpt>
      <trkpt lat="45.98903" lon="4.82283">
        <ele>236</ele>
        <time>2016-08-29T14:33:42Z</time>
      </trkpt>
      <trkpt lat="45.98907" lon="4.82287">
        <ele>236</ele>
        <time>2016-08-29T14:33:43Z</time>
      </trkpt>
      <trkpt lat="45.98911" lon="4.82292">
        <ele>236</ele>
        <time>2016-08-29T14:33:44Z</time>
      </trkpt>
      <trkpt lat="45.98915" lon="4.82297">
        <ele>236</ele>
        <time>2016-08-29T14:33:45Z</time>
      </trkpt>
      <trkpt lat="45.98919" lon="4.82302">
        <ele>234</ele>
        <time>2016-08-29T14:33:46Z</time>
      </trkpt>
      <trkpt lat="45.98923" lon="4.82306">
        <ele>234</ele>
        <time>2016-08-29T14:33:47Z</time>
      </trkpt>
      <trkpt lat="45.98926" lon="4.8231">
        <ele>235</ele>
        <time>2016-08-29T14:33:48Z</time>
      </trkpt>
      <trkpt lat="45.9893" lon="4.82314">
        <ele>235</ele>
        <time>2016-08-29T14:33:49Z</time>
      </trkpt>
      <trkpt lat="45.98934" lon="4.82318">
        <ele>235</ele>
        <time>2016-08-29T14:33:50Z</time>
      </trkpt>
      <trkpt lat="45.98938" lon="4.82323">
        <ele>235</ele>
        <time>2016-08-29T14:33:51Z</time>
      </trkpt>
      <trkpt lat="45.98942" lon="4.82328">
        <ele>234</ele>
        <time>2016-08-29T14:33:52Z</time>
      </trkpt>
      <trkpt lat="45.98945" lon="4.82333">
        <ele>234</ele>
        <time>2016-08-29T14:33:53Z</time>
      </trkpt>
      <trkpt lat="45.98948" lon="4.82338">
        <ele>235</ele>
        <time>2016-08-29T14:33:54Z</time>
      </trkpt>
      <trkpt lat="45.98951" lon="4.82344">
        <ele>235</ele>
        <time>2016-08-29T14:33:55Z</time>
      </trkpt>
      <trkpt lat="45.98954" lon="4.8235">
        <ele>235</ele>
        <time>2016-08-29T14:33:56Z</time>
      </trkpt>
      <trkpt lat="45.98957" lon="4.82356">
        <ele>235</ele>
        <time>2016-08-29T14:33:57Z</time>
      </trkpt>
      <trkpt lat="45.98959" lon="4.82362">
        <ele>235</ele>
        <time>2016-08-29T14:33:58Z</time>
      </trkpt>
      <trkpt lat="45.98962" lon="4.82369">
        <ele>235</ele>
        <time>2016-08-29T14:33:59Z</time>
      </trkpt>
      <trkpt lat="45.98964" lon="4.82377">
        <ele>235</ele>
        <time>2016-08-29T14:34:00Z</time>
      </trkpt>
      <trkpt lat="45.98966" lon="4.82383">
        <ele>235</ele>
        <time>2016-08-29T14:34:01Z</time>
      </trkpt>
      <trkpt lat="45.98968" lon="4.82391">
        <ele>235</ele>
        <time>2016-08-29T14:34:02Z</time>
      </trkpt>
      <trkpt lat="45.9897" lon="4.82398">
        <ele>235</ele>
        <time>2016-08-29T14:34:03Z</time>
      </trkpt>
      <trkpt lat="45.98971" lon="4.82406">
        <ele>235</ele>
        <time>2016-08-29T14:34:04Z</time>
      </trkpt>
      <trkpt lat="45.98973" lon="4.82414">
        <ele>235</ele>
        <time>2016-08-29T14:34:05Z</time>
      </trkpt>
      <trkpt lat="45.98975" lon="4.82423">
        <ele>236</ele>
        <time>2016-08-29T14:34:06Z</time>
      </trkpt>
      <trkpt lat="45.98977" lon="4.82431">
        <ele>236</ele>
        <time>2016-08-29T14:34:07Z</time>
      </trkpt>
      <trkpt lat="45.9898" lon="4.82439">
        <ele>236</ele>
        <time>2016-08-29T14:34:08Z</time>
      </trkpt>
      <trkpt lat="45.98982" lon="4.82447">
        <ele>236</ele>
        <time>2016-08-29T14:34:09Z</time>
      </trkpt>
      <trkpt lat="45.98984" lon="4.82455">
        <ele>236</ele>
        <time>2016-08-29T14:34:10Z</time>
      </trkpt>
      <trkpt lat="45.98985" lon="4.82462">
        <ele>236</ele>
        <time>2016-08-29T14:34:11Z</time>
      </trkpt>
      <trkpt lat="45.98987" lon="4.82469">
        <ele>236</ele>
        <time>2016-08-29T14:34:12Z</time>
      </trkpt>
      <trkpt lat="45.9899" lon="4.82475">
        <ele>236</ele>
        <time>2016-08-29T14:34:13Z</time>
      </trkpt>
      <trkpt lat="45.98993" lon="4.82482">
        <ele>236</ele>
        <time>2016-08-29T14:34:14Z</time>
      </trkpt>
      <trkpt lat="45.98996" lon="4.82488">
        <ele>236</ele>
        <time>2016-08-29T14:34:15Z</time>
      </trkpt>
      <trkpt lat="45.98998" lon="4.82495">
        <ele>235</ele>
        <time>2016-08-29T14:34:16Z</time>
      </trkpt>
      <trkpt lat="45.99" lon="4.82501">
        <ele>235</ele>
        <time>2016-08-29T14:34:17Z</time>
      </trkpt>
      <trkpt lat="45.99002" lon="4.82508">
        <ele>235</ele>
        <time>2016-08-29T14:34:18Z</time>
      </trkpt>
      <trkpt lat="45.99005" lon="4.82515">
        <ele>235</ele>
        <time>2016-08-29T14:34:19Z</time>
      </trkpt>
      <trkpt lat="45.99009" lon="4.82521">
        <ele>235</ele>
        <time>2016-08-29T14:34:20Z</time>
      </trkpt>
      <trkpt lat="45.99012" lon="4.82528">
        <ele>235</ele>
        <time>2016-08-29T14:34:21Z</time>
      </trkpt>
      <trkpt lat="45.99016" lon="4.82533">
        <ele>235</ele>
        <time>2016-08-29T14:34:22Z</time>
      </trkpt>
      <trkpt lat="45.9902" lon="4.82539">
        <ele>235</ele>
        <time>2016-08-29T14:34:23Z</time>
      </trkpt>
      <trkpt lat="45.99024" lon="4.82544">
        <ele>235</ele>
        <time>2016-08-29T14:34:24Z</time>
      </trkpt>
      <trkpt lat="45.99028" lon="4.82548">
        <ele>235</ele>
        <time>2016-08-29T14:34:25Z</time>
      </trkpt>
      <trkpt lat="45.99033" lon="4.82552">
        <ele>235</ele>
        <time>2016-08-29T14:34:26Z</time>
      </trkpt>
      <trkpt lat="45.99037" lon="4.82556">
        <ele>235</ele>
        <time>2016-08-29T14:34:27Z</time>
      </trkpt>
      <trkpt lat="45.99042" lon="4.82559">
        <ele>235</ele>
        <time>2016-08-29T14:34:28Z</time>
      </trkpt>
      <trkpt lat="45.99046" lon="4.82562">
        <ele>235</ele>
        <time>2016-08-29T14:34:29Z</time>
      </trkpt>
      <trkpt lat="45.99055" lon="4.82567">
        <ele>235</ele>
        <time>2016-08-29T14:34:31Z</time>
      </trkpt>
      <trkpt lat="45.99059" lon="4.82569">
        <ele>235</ele>
        <time>2016-08-29T14:34:32Z</time>
      </trkpt>
      <trkpt lat="45.99066" lon="4.82572">
        <ele>235</ele>
        <time>2016-08-29T14:34:34Z</time>
      </trkpt>
      <trkpt lat="45.9907" lon="4.82574">
        <ele>235</ele>
        <time>2016-08-29T14:34:35Z</time>
      </trkpt>
      <trkpt lat="45.99074" lon="4.82585">
        <ele>235</ele>
        <time>2016-08-29T14:34:38Z</time>
      </trkpt>
      <trkpt lat="45.99073" lon="4.82589">
        <ele>235</ele>
        <time>2016-08-29T14:34:39Z</time>
      </trkpt>
      <trkpt lat="45.9907" lon="4.82598">
        <ele>235</ele>
        <time>2016-08-29T14:34:41Z</time>
      </trkpt>
      <trkpt lat="45.99067" lon="4.82601">
        <ele>236</ele>
        <time>2016-08-29T14:34:42Z</time>
      </trkpt>
      <trkpt lat="45.99062" lon="4.82611">
        <ele>236</ele>
        <time>2016-08-29T14:34:44Z</time>
      </trkpt>
      <trkpt lat="45.9906" lon="4.82616">
        <ele>236</ele>
        <time>2016-08-29T14:34:45Z</time>
      </trkpt>
      <trkpt lat="45.99056" lon="4.82627">
        <ele>236</ele>
        <time>2016-08-29T14:34:47Z</time>
      </trkpt>
      <trkpt lat="45.99054" lon="4.82632">
        <ele>236</ele>
        <time>2016-08-29T14:34:48Z</time>
      </trkpt>
      <trkpt lat="45.9905" lon="4.82642">
        <ele>236</ele>
        <time>2016-08-29T14:34:50Z</time>
      </trkpt>
      <trkpt lat="45.99048" lon="4.82647">
        <ele>236</ele>
        <time>2016-08-29T14:34:51Z</time>
      </trkpt>
      <trkpt lat="45.99044" lon="4.82655">
        <ele>236</ele>
        <time>2016-08-29T14:34:53Z</time>
      </trkpt>
      <trkpt lat="45.99042" lon="4.8266">
        <ele>236</ele>
        <time>2016-08-29T14:34:54Z</time>
      </trkpt>
      <trkpt lat="45.99038" lon="4.82668">
        <ele>238</ele>
        <time>2016-08-29T14:34:56Z</time>
      </trkpt>
      <trkpt lat="45.99036" lon="4.82672">
        <ele>238</ele>
        <time>2016-08-29T14:34:57Z</time>
      </trkpt>
      <trkpt lat="45.99033" lon="4.8268">
        <ele>238</ele>
        <time>2016-08-29T14:34:59Z</time>
      </trkpt>
      <trkpt lat="45.99031" lon="4.82685">
        <ele>238</ele>
        <time>2016-08-29T14:35:00Z</time>
      </trkpt>
      <trkpt lat="45.99028" lon="4.82694">
        <ele>238</ele>
        <time>2016-08-29T14:35:02Z</time>
      </trkpt>
      <trkpt lat="45.99027" lon="4.82698">
        <ele>238</ele>
        <time>2016-08-29T14:35:03Z</time>
      </trkpt>
      <trkpt lat="45.99022" lon="4.82709">
        <ele>238</ele>
        <time>2016-08-29T14:35:06Z</time>
      </trkpt>
      <trkpt lat="45.9902" lon="4.82712">
        <ele>239</ele>
        <time>2016-08-29T14:35:07Z</time>
      </trkpt>
      <trkpt lat="45.99017" lon="4.82719">
        <ele>239</ele>
        <time>2016-08-29T14:35:09Z</time>
      </trkpt>
      <trkpt lat="45.99015" lon="4.82723">
        <ele>239</ele>
        <time>2016-08-29T14:35:10Z</time>
      </trkpt>
      <trkpt lat="45.99011" lon="4.8273">
        <ele>239</ele>
        <time>2016-08-29T14:35:12Z</time>
      </trkpt>
      <trkpt lat="45.99009" lon="4.82733">
        <ele>239</ele>
        <time>2016-08-29T14:35:13Z</time>
      </trkpt>
      <trkpt lat="45.99004" lon="4.82743">
        <ele>240</ele>
        <time>2016-08-29T14:35:16Z</time>
      </trkpt>
      <trkpt lat="45.99003" lon="4.82747">
        <ele>241</ele>
        <time>2016-08-29T14:35:17Z</time>
      </trkpt>
      <trkpt lat="45.98998" lon="4.82758">
        <ele>243</ele>
        <time>2016-08-29T14:35:20Z</time>
      </trkpt>
      <trkpt lat="45.98997" lon="4.82762">
        <ele>244</ele>
        <time>2016-08-29T14:35:21Z</time>
      </trkpt>
      <trkpt lat="45.98992" lon="4.82772">
        <ele>246</ele>
        <time>2016-08-29T14:35:24Z</time>
      </trkpt>
      <trkpt lat="45.98991" lon="4.82776">
        <ele>246</ele>
        <time>2016-08-29T14:35:25Z</time>
      </trkpt>
      <trkpt lat="45.98986" lon="4.82786">
        <ele>247</ele>
        <time>2016-08-29T14:35:28Z</time>
      </trkpt>
      <trkpt lat="45.98985" lon="4.8279">
        <ele>247</ele>
        <time>2016-08-29T14:35:29Z</time>
      </trkpt>
      <trkpt lat="45.98982" lon="4.82798">
        <ele>248</ele>
        <time>2016-08-29T14:35:31Z</time>
      </trkpt>
      <trkpt lat="45.98981" lon="4.82801">
        <ele>248</ele>
        <time>2016-08-29T14:35:32Z</time>
      </trkpt>
      <trkpt lat="45.98977" lon="4.82811">
        <ele>248</ele>
        <time>2016-08-29T14:35:35Z</time>
      </trkpt>
      <trkpt lat="45.98975" lon="4.82814">
        <ele>248</ele>
        <time>2016-08-29T14:35:36Z</time>
      </trkpt>
      <trkpt lat="45.98971" lon="4.82824">
        <ele>249</ele>
        <time>2016-08-29T14:35:39Z</time>
      </trkpt>
      <trkpt lat="45.98969" lon="4.82827">
        <ele>249</ele>
        <time>2016-08-29T14:35:40Z</time>
      </trkpt>
      <trkpt lat="45.98964" lon="4.82837">
        <ele>252</ele>
        <time>2016-08-29T14:35:43Z</time>
      </trkpt>
      <trkpt lat="45.98963" lon="4.82841">
        <ele>252</ele>
        <time>2016-08-29T14:35:44Z</time>
      </trkpt>
      <trkpt lat="45.98958" lon="4.82851">
        <ele>252</ele>
        <time>2016-08-29T14:35:47Z</time>
      </trkpt>
      <trkpt lat="45.98957" lon="4.82853">
        <ele>252</ele>
        <time>2016-08-29T14:35:48Z</time>
      </trkpt>
      <trkpt lat="45.98952" lon="4.82864">
        <ele>253</ele>
        <time>2016-08-29T14:35:51Z</time>
      </trkpt>
      <trkpt lat="45.9895" lon="4.82867">
        <ele>253</ele>
        <time>2016-08-29T14:35:52Z</time>
      </trkpt>
      <trkpt lat="45.98946" lon="4.82877">
        <ele>253</ele>
        <time>2016-08-29T14:35:55Z</time>
      </trkpt>
      <trkpt lat="45.98945" lon="4.82881">
        <ele>253</ele>
        <time>2016-08-29T14:35:56Z</time>
      </trkpt>
      <trkpt lat="45.98941" lon="4.8289">
        <ele>253</ele>
        <time>2016-08-29T14:35:59Z</time>
      </trkpt>
      <trkpt lat="45.9894" lon="4.82894">
        <ele>253</ele>
        <time>2016-08-29T14:36:00Z</time>
      </trkpt>
      <trkpt lat="45.98935" lon="4.82903">
        <ele>254</ele>
        <time>2016-08-29T14:36:03Z</time>
      </trkpt>
      <trkpt lat="45.98934" lon="4.82907">
        <ele>254</ele>
        <time>2016-08-29T14:36:04Z</time>
      </trkpt>
      <trkpt lat="45.9893" lon="4.82918">
        <ele>255</ele>
        <time>2016-08-29T14:36:07Z</time>
      </trkpt>
      <trkpt lat="45.98928" lon="4.82922">
        <ele>255</ele>
        <time>2016-08-29T14:36:08Z</time>
      </trkpt>
      <trkpt lat="45.98923" lon="4.82932">
        <ele>255</ele>
        <time>2016-08-29T14:36:11Z</time>
      </trkpt>
      <trkpt lat="45.98922" lon="4.82935">
        <ele>255</ele>
        <time>2016-08-29T14:36:12Z</time>
      </trkpt>
      <trkpt lat="45.98918" lon="4.82946">
        <ele>255</ele>
        <time>2016-08-29T14:36:15Z</time>
      </trkpt>
      <trkpt lat="45.98916" lon="4.8295">
        <ele>258</ele>
        <time>2016-08-29T14:36:16Z</time>
      </trkpt>
      <trkpt lat="45.9891" lon="4.82959">
        <ele>258</ele>
        <time>2016-08-29T14:36:19Z</time>
      </trkpt>
      <trkpt lat="45.98908" lon="4.82962">
        <ele>259</ele>
        <time>2016-08-29T14:36:20Z</time>
      </trkpt>
      <trkpt lat="45.98902" lon="4.82971">
        <ele>259</ele>
        <time>2016-08-29T14:36:23Z</time>
      </trkpt>
      <trkpt lat="45.989" lon="4.82973">
        <ele>259</ele>
        <time>2016-08-29T14:36:24Z</time>
      </trkpt>
      <trkpt lat="45.98893" lon="4.82979">
        <ele>259</ele>
        <time>2016-08-29T14:36:27Z</time>
      </trkpt>
      <trkpt lat="45.98891" lon="4.82981">
        <ele>259</ele>
        <time>2016-08-29T14:36:28Z</time>
      </trkpt>
      <trkpt lat="45.98884" lon="4.82986">
        <ele>259</ele>
        <time>2016-08-29T14:36:31Z</time>
      </trkpt>
      <trkpt lat="45.98882" lon="4.82988">
        <ele>259</ele>
        <time>2016-08-29T14:36:32Z</time>
      </trkpt>
      <trkpt lat="45.98875" lon="4.82993">
        <ele>260</ele>
        <time>2016-08-29T14:36:35Z</time>
      </trkpt>
      <trkpt lat="45.98872" lon="4.82995">
        <ele>260</ele>
        <time>2016-08-29T14:36:36Z</time>
      </trkpt>
      <trkpt lat="45.98865" lon="4.82999">
        <ele>260</ele>
        <time>2016-08-29T14:36:39Z</time>
      </trkpt>
      <trkpt lat="45.98863" lon="4.83">
        <ele>260</ele>
        <time>2016-08-29T14:36:40Z</time>
      </trkpt>
      <trkpt lat="45.98857" lon="4.83007">
        <ele>261</ele>
        <time>2016-08-29T14:36:44Z</time>
      </trkpt>
      <trkpt lat="45.98856" lon="4.83009">
        <ele>261</ele>
        <time>2016-08-29T14:36:45Z</time>
      </trkpt>
      <trkpt lat="45.98849" lon="4.83014">
        <ele>261</ele>
        <time>2016-08-29T14:36:48Z</time>
      </trkpt>
      <trkpt lat="45.98847" lon="4.83015">
        <ele>261</ele>
        <time>2016-08-29T14:36:49Z</time>
      </trkpt>
      <trkpt lat="45.9884" lon="4.83021">
        <ele>261</ele>
        <time>2016-08-29T14:36:52Z</time>
      </trkpt>
      <trkpt lat="45.98837" lon="4.83023">
        <ele>261</ele>
        <time>2016-08-29T14:36:53Z</time>
      </trkpt>
      <trkpt lat="45.98832" lon="4.83027">
        <ele>264</ele>
        <time>2016-08-29T14:36:55Z</time>
      </trkpt>
      <trkpt lat="45.98829" lon="4.83029">
        <ele>264</ele>
        <time>2016-08-29T14:36:56Z</time>
      </trkpt>
      <trkpt lat="45.98823" lon="4.83032">
        <ele>264</ele>
        <time>2016-08-29T14:36:58Z</time>
      </trkpt>
      <trkpt lat="45.98819" lon="4.83033">
        <ele>264</ele>
        <time>2016-08-29T14:36:59Z</time>
      </trkpt>
      <trkpt lat="45.98813" lon="4.83037">
        <ele>264</ele>
        <time>2016-08-29T14:37:01Z</time>
      </trkpt>
      <trkpt lat="45.9881" lon="4.8304">
        <ele>264</ele>
        <time>2016-08-29T14:37:02Z</time>
      </trkpt>
      <trkpt lat="45.98803" lon="4.83044">
        <ele>264</ele>
        <time>2016-08-29T14:37:04Z</time>
      </trkpt>
      <trkpt lat="45.988" lon="4.83047">
        <ele>264</ele>
        <time>2016-08-29T14:37:05Z</time>
      </trkpt>
      <trkpt lat="45.98793" lon="4.83053">
        <ele>265</ele>
        <time>2016-08-29T14:37:08Z</time>
      </trkpt>
      <trkpt lat="45.98791" lon="4.83057">
        <ele>265</ele>
        <time>2016-08-29T14:37:09Z</time>
      </trkpt>
      <trkpt lat="45.98785" lon="4.83062">
        <ele>265</ele>
        <time>2016-08-29T14:37:11Z</time>
      </trkpt>
      <trkpt lat="45.98782" lon="4.83064">
        <ele>265</ele>
        <time>2016-08-29T14:37:12Z</time>
      </trkpt>
      <trkpt lat="45.98776" lon="4.83068">
        <ele>265</ele>
        <time>2016-08-29T14:37:14Z</time>
      </trkpt>
      <trkpt lat="45.98773" lon="4.8307">
        <ele>265</ele>
        <time>2016-08-29T14:37:15Z</time>
      </trkpt>
      <trkpt lat="45.98767" lon="4.83075">
        <ele>266</ele>
        <time>2016-08-29T14:37:17Z</time>
      </trkpt>
      <trkpt lat="45.98765" lon="4.83078">
        <ele>266</ele>
        <time>2016-08-29T14:37:18Z</time>
      </trkpt>
      <trkpt lat="45.98759" lon="4.83082">
        <ele>266</ele>
        <time>2016-08-29T14:37:20Z</time>
      </trkpt>
      <trkpt lat="45.98756" lon="4.83084">
        <ele>266</ele>
        <time>2016-08-29T14:37:21Z</time>
      </trkpt>
      <trkpt lat="45.9875" lon="4.83089">
        <ele>267</ele>
        <time>2016-08-29T14:37:23Z</time>
      </trkpt>
      <trkpt lat="45.98747" lon="4.83092">
        <ele>267</ele>
        <time>2016-08-29T14:37:24Z</time>
      </trkpt>
      <trkpt lat="45.98741" lon="4.83096">
        <ele>267</ele>
        <time>2016-08-29T14:37:26Z</time>
      </trkpt>
      <trkpt lat="45.98738" lon="4.83098">
        <ele>267</ele>
        <time>2016-08-29T14:37:27Z</time>
      </trkpt>
      <trkpt lat="45.98732" lon="4.83103">
        <ele>267</ele>
        <time>2016-08-29T14:37:29Z</time>
      </trkpt>
      <trkpt lat="45.98729" lon="4.83106">
        <ele>267</ele>
        <time>2016-08-29T14:37:30Z</time>
      </trkpt>
      <trkpt lat="45.98723" lon="4.83112">
        <ele>267</ele>
        <time>2016-08-29T14:37:32Z</time>
      </trkpt>
      <trkpt lat="45.9872" lon="4.83115">
        <ele>267</ele>
        <time>2016-08-29T14:37:33Z</time>
      </trkpt>
      <trkpt lat="45.98712" lon="4.83121">
        <ele>267</ele>
        <time>2016-08-29T14:37:35Z</time>
      </trkpt>
      <trkpt lat="45.98709" lon="4.83124">
        <ele>267</ele>
        <time>2016-08-29T14:37:36Z</time>
      </trkpt>
      <trkpt lat="45.98702" lon="4.83129">
        <ele>266</ele>
        <time>2016-08-29T14:37:38Z</time>
      </trkpt>
      <trkpt lat="45.98699" lon="4.83132">
        <ele>266</ele>
        <time>2016-08-29T14:37:39Z</time>
      </trkpt>
      <trkpt lat="45.98692" lon="4.83137">
        <ele>266</ele>
        <time>2016-08-29T14:37:41Z</time>
      </trkpt>
      <trkpt lat="45.98689" lon="4.83139">
        <ele>266</ele>
        <time>2016-08-29T14:37:42Z</time>
      </trkpt>
      <trkpt lat="45.98683" lon="4.83144">
        <ele>266</ele>
        <time>2016-08-29T14:37:44Z</time>
      </trkpt>
      <trkpt lat="45.9868" lon="4.83147">
        <ele>266</ele>
        <time>2016-08-29T14:37:45Z</time>
      </trkpt>
      <trkpt lat="45.98673" lon="4.83152">
        <ele>266</ele>
        <time>2016-08-29T14:37:47Z</time>
      </trkpt>
      <trkpt lat="45.98669" lon="4.83154">
        <ele>266</ele>
        <time>2016-08-29T14:37:48Z</time>
      </trkpt>
      <trkpt lat="45.98662" lon="4.8316">
        <ele>267</ele>
        <time>2016-08-29T14:37:50Z</time>
      </trkpt>
      <trkpt lat="45.98658" lon="4.83163">
        <ele>267</ele>
        <time>2016-08-29T14:37:51Z</time>
      </trkpt>
      <trkpt lat="45.98651" lon="4.83169">
        <ele>267</ele>
        <time>2016-08-29T14:37:53Z</time>
      </trkpt>
      <trkpt lat="45.98647" lon="4.83173">
        <ele>267</ele>
        <time>2016-08-29T14:37:54Z</time>
      </trkpt>
      <trkpt lat="45.9864" lon="4.83179">
        <ele>267</ele>
        <time>2016-08-29T14:37:56Z</time>
      </trkpt>
      <trkpt lat="45.98636" lon="4.83183">
        <ele>267</ele>
        <time>2016-08-29T14:37:57Z</time>
      </trkpt>
      <trkpt lat="45.98629" lon="4.8319">
        <ele>267</ele>
        <time>2016-08-29T14:37:59Z</time>
      </trkpt>
      <trkpt lat="45.98626" lon="4.83194">
        <ele>267</ele>
        <time>2016-08-29T14:38:00Z</time>
      </trkpt>
      <trkpt lat="45.98623" lon="4.83199">
        <ele>267</ele>
        <time>2016-08-29T14:38:01Z</time>
      </trkpt>
      <trkpt lat="45.98619" lon="4.83203">
        <ele>267</ele>
        <time>2016-08-29T14:38:02Z</time>
      </trkpt>
      <trkpt lat="45.98613" lon="4.83212">
        <ele>267</ele>
        <time>2016-08-29T14:38:04Z</time>
      </trkpt>
      <trkpt lat="45.98609" lon="4.83216">
        <ele>267</ele>
        <time>2016-08-29T14:38:05Z</time>
      </trkpt>
      <trkpt lat="45.98603" lon="4.83224">
        <ele>267</ele>
        <time>2016-08-29T14:38:07Z</time>
      </trkpt>
      <trkpt lat="45.986" lon="4.83229">
        <ele>268</ele>
        <time>2016-08-29T14:38:08Z</time>
      </trkpt>
      <trkpt lat="45.98596" lon="4.83233">
        <ele>268</ele>
        <time>2016-08-29T14:38:09Z</time>
      </trkpt>
      <trkpt lat="45.98593" lon="4.83238">
        <ele>268</ele>
        <time>2016-08-29T14:38:10Z</time>
      </trkpt>
      <trkpt lat="45.98586" lon="4.83246">
        <ele>268</ele>
        <time>2016-08-29T14:38:12Z</time>
      </trkpt>
      <trkpt lat="45.98582" lon="4.83251">
        <ele>268</ele>
        <time>2016-08-29T14:38:13Z</time>
      </trkpt>
      <trkpt lat="45.98579" lon="4.83255">
        <ele>268</ele>
        <time>2016-08-29T14:38:14Z</time>
      </trkpt>
      <trkpt lat="45.98575" lon="4.8326">
        <ele>269</ele>
        <time>2016-08-29T14:38:15Z</time>
      </trkpt>
      <trkpt lat="45.98572" lon="4.83265">
        <ele>269</ele>
        <time>2016-08-29T14:38:16Z</time>
      </trkpt>
      <trkpt lat="45.98568" lon="4.83271">
        <ele>269</ele>
        <time>2016-08-29T14:38:17Z</time>
      </trkpt>
      <trkpt lat="45.98564" lon="4.83276">
        <ele>269</ele>
        <time>2016-08-29T14:38:18Z</time>
      </trkpt>
      <trkpt lat="45.98561" lon="4.83281">
        <ele>269</ele>
        <time>2016-08-29T14:38:19Z</time>
      </trkpt>
      <trkpt lat="45.98557" lon="4.83286">
        <ele>269</ele>
        <time>2016-08-29T14:38:20Z</time>
      </trkpt>
      <trkpt lat="45.98553" lon="4.83291">
        <ele>269</ele>
        <time>2016-08-29T14:38:21Z</time>
      </trkpt>
      <trkpt lat="45.9855" lon="4.83296">
        <ele>269</ele>
        <time>2016-08-29T14:38:22Z</time>
      </trkpt>
      <trkpt lat="45.98546" lon="4.83301">
        <ele>269</ele>
        <time>2016-08-29T14:38:23Z</time>
      </trkpt>
      <trkpt lat="45.98543" lon="4.83306">
        <ele>269</ele>
        <time>2016-08-29T14:38:24Z</time>
      </trkpt>
      <trkpt lat="45.9854" lon="4.8331">
        <ele>269</ele>
        <time>2016-08-29T14:38:25Z</time>
      </trkpt>
      <trkpt lat="45.98533" lon="4.83318">
        <ele>269</ele>
        <time>2016-08-29T14:38:27Z</time>
      </trkpt>
      <trkpt lat="45.9853" lon="4.83322">
        <ele>269</ele>
        <time>2016-08-29T14:38:28Z</time>
      </trkpt>
      <trkpt lat="45.98527" lon="4.83327">
        <ele>269</ele>
        <time>2016-08-29T14:38:29Z</time>
      </trkpt>
      <trkpt lat="45.98524" lon="4.83332">
        <ele>270</ele>
        <time>2016-08-29T14:38:30Z</time>
      </trkpt>
      <trkpt lat="45.98517" lon="4.8334">
        <ele>270</ele>
        <time>2016-08-29T14:38:32Z</time>
      </trkpt>
      <trkpt lat="45.98514" lon="4.83344">
        <ele>270</ele>
        <time>2016-08-29T14:38:33Z</time>
      </trkpt>
      <trkpt lat="45.98507" lon="4.83353">
        <ele>270</ele>
        <time>2016-08-29T14:38:35Z</time>
      </trkpt>
      <trkpt lat="45.98504" lon="4.83357">
        <ele>270</ele>
        <time>2016-08-29T14:38:36Z</time>
      </trkpt>
      <trkpt lat="45.98501" lon="4.83362">
        <ele>269</ele>
        <time>2016-08-29T14:38:37Z</time>
      </trkpt>
      <trkpt lat="45.98497" lon="4.83367">
        <ele>270</ele>
        <time>2016-08-29T14:38:38Z</time>
      </trkpt>
      <trkpt lat="45.98494" lon="4.83371">
        <ele>270</ele>
        <time>2016-08-29T14:38:39Z</time>
      </trkpt>
      <trkpt lat="45.9849" lon="4.83376">
        <ele>269</ele>
        <time>2016-08-29T14:38:40Z</time>
      </trkpt>
      <trkpt lat="45.98487" lon="4.8338">
        <ele>269</ele>
        <time>2016-08-29T14:38:41Z</time>
      </trkpt>
      <trkpt lat="45.98483" lon="4.83385">
        <ele>269</ele>
        <time>2016-08-29T14:38:42Z</time>
      </trkpt>
      <trkpt lat="45.9848" lon="4.83391">
        <ele>269</ele>
        <time>2016-08-29T14:38:43Z</time>
      </trkpt>
      <trkpt lat="45.98476" lon="4.83396">
        <ele>269</ele>
        <time>2016-08-29T14:38:44Z</time>
      </trkpt>
      <trkpt lat="45.98472" lon="4.83401">
        <ele>269</ele>
        <time>2016-08-29T14:38:45Z</time>
      </trkpt>
      <trkpt lat="45.98468" lon="4.83406">
        <ele>269</ele>
        <time>2016-08-29T14:38:46Z</time>
      </trkpt>
      <trkpt lat="45.98464" lon="4.83411">
        <ele>269</ele>
        <time>2016-08-29T14:38:47Z</time>
      </trkpt>
      <trkpt lat="45.98461" lon="4.83417">
        <ele>269</ele>
        <time>2016-08-29T14:38:48Z</time>
      </trkpt>
      <trkpt lat="45.98457" lon="4.83423">
        <ele>269</ele>
        <time>2016-08-29T14:38:49Z</time>
      </trkpt>
      <trkpt lat="45.98453" lon="4.83428">
        <ele>268</ele>
        <time>2016-08-29T14:38:50Z</time>
      </trkpt>
      <trkpt lat="45.98448" lon="4.83434">
        <ele>268</ele>
        <time>2016-08-29T14:38:51Z</time>
      </trkpt>
      <trkpt lat="45.98444" lon="4.8344">
        <ele>268</ele>
        <time>2016-08-29T14:38:52Z</time>
      </trkpt>
      <trkpt lat="45.9844" lon="4.83445">
        <ele>268</ele>
        <time>2016-08-29T14:38:53Z</time>
      </trkpt>
      <trkpt lat="45.98435" lon="4.83451">
        <ele>268</ele>
        <time>2016-08-29T14:38:54Z</time>
      </trkpt>
      <trkpt lat="45.9843" lon="4.83457">
        <ele>268</ele>
        <time>2016-08-29T14:38:55Z</time>
      </trkpt>
      <trkpt lat="45.98426" lon="4.83464">
        <ele>268</ele>
        <time>2016-08-29T14:38:56Z</time>
      </trkpt>
      <trkpt lat="45.98421" lon="4.8347">
        <ele>268</ele>
        <time>2016-08-29T14:38:57Z</time>
      </trkpt>
      <trkpt lat="45.98417" lon="4.83476">
        <ele>269</ele>
        <time>2016-08-29T14:38:58Z</time>
      </trkpt>
      <trkpt lat="45.98412" lon="4.83483">
        <ele>269</ele>
        <time>2016-08-29T14:38:59Z</time>
      </trkpt>
      <trkpt lat="45.98408" lon="4.83489">
        <ele>269</ele>
        <time>2016-08-29T14:39:00Z</time>
      </trkpt>
      <trkpt lat="45.98403" lon="4.83495">
        <ele>269</ele>
        <time>2016-08-29T14:39:01Z</time>
      </trkpt>
      <trkpt lat="45.98399" lon="4.83501">
        <ele>269</ele>
        <time>2016-08-29T14:39:02Z</time>
      </trkpt>
      <trkpt lat="45.98395" lon="4.83506">
        <ele>269</ele>
        <time>2016-08-29T14:39:03Z</time>
      </trkpt>
      <trkpt lat="45.98391" lon="4.83512">
        <ele>269</ele>
        <time>2016-08-29T14:39:04Z</time>
      </trkpt>
      <trkpt lat="45.98387" lon="4.83518">
        <ele>269</ele>
        <time>2016-08-29T14:39:05Z</time>
      </trkpt>
      <trkpt lat="45.98383" lon="4.83523">
        <ele>269</ele>
        <time>2016-08-29T14:39:06Z</time>
      </trkpt>
      <trkpt lat="45.98378" lon="4.83529">
        <ele>269</ele>
        <time>2016-08-29T14:39:07Z</time>
      </trkpt>
      <trkpt lat="45.98374" lon="4.83535">
        <ele>269</ele>
        <time>2016-08-29T14:39:08Z</time>
      </trkpt>
      <trkpt lat="45.98369" lon="4.83542">
        <ele>269</ele>
        <time>2016-08-29T14:39:09Z</time>
      </trkpt>
      <trkpt lat="45.98365" lon="4.83547">
        <ele>269</ele>
        <time>2016-08-29T14:39:10Z</time>
      </trkpt>
      <trkpt lat="45.98361" lon="4.83553">
        <ele>269</ele>
        <time>2016-08-29T14:39:11Z</time>
      </trkpt>
      <trkpt lat="45.98357" lon="4.83558">
        <ele>269</ele>
        <time>2016-08-29T14:39:12Z</time>
      </trkpt>
      <trkpt lat="45.98353" lon="4.83563">
        <ele>269</ele>
        <time>2016-08-29T14:39:13Z</time>
      </trkpt>
      <trkpt lat="45.98349" lon="4.83568">
        <ele>269</ele>
        <time>2016-08-29T14:39:14Z</time>
      </trkpt>
      <trkpt lat="45.98345" lon="4.83573">
        <ele>270</ele>
        <time>2016-08-29T14:39:15Z</time>
      </trkpt>
      <trkpt lat="45.98342" lon="4.83578">
        <ele>270</ele>
        <time>2016-08-29T14:39:16Z</time>
      </trkpt>
      <trkpt lat="45.98338" lon="4.83584">
        <ele>270</ele>
        <time>2016-08-29T14:39:17Z</time>
      </trkpt>
      <trkpt lat="45.98334" lon="4.83589">
        <ele>270</ele>
        <time>2016-08-29T14:39:18Z</time>
      </trkpt>
      <trkpt lat="45.98331" lon="4.83595">
        <ele>270</ele>
        <time>2016-08-29T14:39:19Z</time>
      </trkpt>
      <trkpt lat="45.98327" lon="4.836">
        <ele>271</ele>
        <time>2016-08-29T14:39:20Z</time>
      </trkpt>
      <trkpt lat="45.98323" lon="4.83606">
        <ele>271</ele>
        <time>2016-08-29T14:39:21Z</time>
      </trkpt>
      <trkpt lat="45.98319" lon="4.83612">
        <ele>271</ele>
        <time>2016-08-29T14:39:22Z</time>
      </trkpt>
      <trkpt lat="45.98315" lon="4.83617">
        <ele>271</ele>
        <time>2016-08-29T14:39:23Z</time>
      </trkpt>
      <trkpt lat="45.98311" lon="4.83623">
        <ele>271</ele>
        <time>2016-08-29T14:39:24Z</time>
      </trkpt>
      <trkpt lat="45.98308" lon="4.83629">
        <ele>271</ele>
        <time>2016-08-29T14:39:25Z</time>
      </trkpt>
      <trkpt lat="45.98305" lon="4.83635">
        <ele>271</ele>
        <time>2016-08-29T14:39:26Z</time>
      </trkpt>
      <trkpt lat="45.98302" lon="4.8364">
        <ele>271</ele>
        <time>2016-08-29T14:39:27Z</time>
      </trkpt>
      <trkpt lat="45.983" lon="4.83646">
        <ele>271</ele>
        <time>2016-08-29T14:39:28Z</time>
      </trkpt>
      <trkpt lat="45.98297" lon="4.83653">
        <ele>271</ele>
        <time>2016-08-29T14:39:29Z</time>
      </trkpt>
      <trkpt lat="45.98295" lon="4.83659">
        <ele>271</ele>
        <time>2016-08-29T14:39:30Z</time>
      </trkpt>
      <trkpt lat="45.98293" lon="4.83666">
        <ele>272</ele>
        <time>2016-08-29T14:39:31Z</time>
      </trkpt>
      <trkpt lat="45.9829" lon="4.83673">
        <ele>272</ele>
        <time>2016-08-29T14:39:32Z</time>
      </trkpt>
      <trkpt lat="45.98288" lon="4.8368">
        <ele>272</ele>
        <time>2016-08-29T14:39:33Z</time>
      </trkpt>
      <trkpt lat="45.98285" lon="4.83687">
        <ele>272</ele>
        <time>2016-08-29T14:39:34Z</time>
      </trkpt>
      <trkpt lat="45.98283" lon="4.83695">
        <ele>272</ele>
        <time>2016-08-29T14:39:35Z</time>
      </trkpt>
      <trkpt lat="45.9828" lon="4.83702">
        <ele>272</ele>
        <time>2016-08-29T14:39:36Z</time>
      </trkpt>
      <trkpt lat="45.98277" lon="4.83709">
        <ele>272</ele>
        <time>2016-08-29T14:39:37Z</time>
      </trkpt>
      <trkpt lat="45.98274" lon="4.83717">
        <ele>272</ele>
        <time>2016-08-29T14:39:38Z</time>
      </trkpt>
      <trkpt lat="45.98271" lon="4.83724">
        <ele>272</ele>
        <time>2016-08-29T14:39:39Z</time>
      </trkpt>
      <trkpt lat="45.98268" lon="4.83732">
        <ele>272</ele>
        <time>2016-08-29T14:39:40Z</time>
      </trkpt>
      <trkpt lat="45.98265" lon="4.83739">
        <ele>272</ele>
        <time>2016-08-29T14:39:41Z</time>
      </trkpt>
      <trkpt lat="45.98262" lon="4.83746">
        <ele>272</ele>
        <time>2016-08-29T14:39:42Z</time>
      </trkpt>
      <trkpt lat="45.9826" lon="4.83753">
        <ele>272</ele>
        <time>2016-08-29T14:39:43Z</time>
      </trkpt>
      <trkpt lat="45.98257" lon="4.83761">
        <ele>272</ele>
        <time>2016-08-29T14:39:44Z</time>
      </trkpt>
      <trkpt lat="45.98255" lon="4.83768">
        <ele>272</ele>
        <time>2016-08-29T14:39:45Z</time>
      </trkpt>
      <trkpt lat="45.98252" lon="4.83776">
        <ele>272</ele>
        <time>2016-08-29T14:39:46Z</time>
      </trkpt>
      <trkpt lat="45.9825" lon="4.83783">
        <ele>272</ele>
        <time>2016-08-29T14:39:47Z</time>
      </trkpt>
      <trkpt lat="45.98247" lon="4.8379">
        <ele>272</ele>
        <time>2016-08-29T14:39:48Z</time>
      </trkpt>
      <trkpt lat="45.98244" lon="4.83798">
        <ele>272</ele>
        <time>2016-08-29T14:39:49Z</time>
      </trkpt>
      <trkpt lat="45.98241" lon="4.83806">
        <ele>272</ele>
        <time>2016-08-29T14:39:50Z</time>
      </trkpt>
      <trkpt lat="45.98239" lon="4.83814">
        <ele>272</ele>
        <time>2016-08-29T14:39:51Z</time>
      </trkpt>
      <trkpt lat="45.98236" lon="4.83822">
        <ele>272</ele>
        <time>2016-08-29T14:39:52Z</time>
      </trkpt>
      <trkpt lat="45.98234" lon="4.83829">
        <ele>272</ele>
        <time>2016-08-29T14:39:53Z</time>
      </trkpt>
      <trkpt lat="45.98231" lon="4.83836">
        <ele>272</ele>
        <time>2016-08-29T14:39:54Z</time>
      </trkpt>
      <trkpt lat="45.98229" lon="4.83843">
        <ele>272</ele>
        <time>2016-08-29T14:39:55Z</time>
      </trkpt>
      <trkpt lat="45.98227" lon="4.8385">
        <ele>272</ele>
        <time>2016-08-29T14:39:56Z</time>
      </trkpt>
      <trkpt lat="45.98224" lon="4.83857">
        <ele>272</ele>
        <time>2016-08-29T14:39:57Z</time>
      </trkpt>
      <trkpt lat="45.98222" lon="4.83864">
        <ele>272</ele>
        <time>2016-08-29T14:39:58Z</time>
      </trkpt>
      <trkpt lat="45.9822" lon="4.83871">
        <ele>272</ele>
        <time>2016-08-29T14:39:59Z</time>
      </trkpt>
      <trkpt lat="45.98217" lon="4.83878">
        <ele>272</ele>
        <time>2016-08-29T14:40:00Z</time>
      </trkpt>
      <trkpt lat="45.98215" lon="4.83885">
        <ele>273</ele>
        <time>2016-08-29T14:40:01Z</time>
      </trkpt>
      <trkpt lat="45.98213" lon="4.83891">
        <ele>273</ele>
        <time>2016-08-29T14:40:02Z</time>
      </trkpt>
      <trkpt lat="45.9821" lon="4.83898">
        <ele>273</ele>
        <time>2016-08-29T14:40:03Z</time>
      </trkpt>
      <trkpt lat="45.98208" lon="4.83906">
        <ele>273</ele>
        <time>2016-08-29T14:40:04Z</time>
      </trkpt>
      <trkpt lat="45.98206" lon="4.83913">
        <ele>273</ele>
        <time>2016-08-29T14:40:05Z</time>
      </trkpt>
      <trkpt lat="45.98204" lon="4.8392">
        <ele>273</ele>
        <time>2016-08-29T14:40:06Z</time>
      </trkpt>
      <trkpt lat="45.98201" lon="4.83927">
        <ele>273</ele>
        <time>2016-08-29T14:40:07Z</time>
      </trkpt>
      <trkpt lat="45.98199" lon="4.83935">
        <ele>273</ele>
        <time>2016-08-29T14:40:08Z</time>
      </trkpt>
      <trkpt lat="45.98196" lon="4.83942">
        <ele>273</ele>
        <time>2016-08-29T14:40:09Z</time>
      </trkpt>
      <trkpt lat="45.98193" lon="4.83949">
        <ele>273</ele>
        <time>2016-08-29T14:40:10Z</time>
      </trkpt>
      <trkpt lat="45.98191" lon="4.83956">
        <ele>273</ele>
        <time>2016-08-29T14:40:11Z</time>
      </trkpt>
      <trkpt lat="45.98188" lon="4.83963">
        <ele>273</ele>
        <time>2016-08-29T14:40:12Z</time>
      </trkpt>
      <trkpt lat="45.98185" lon="4.8397">
        <ele>273</ele>
        <time>2016-08-29T14:40:13Z</time>
      </trkpt>
      <trkpt lat="45.98183" lon="4.83976">
        <ele>273</ele>
        <time>2016-08-29T14:40:14Z</time>
      </trkpt>
      <trkpt lat="45.9818" lon="4.83983">
        <ele>273</ele>
        <time>2016-08-29T14:40:15Z</time>
      </trkpt>
      <trkpt lat="45.98177" lon="4.8399">
        <ele>273</ele>
        <time>2016-08-29T14:40:16Z</time>
      </trkpt>
      <trkpt lat="45.98174" lon="4.83997">
        <ele>273</ele>
        <time>2016-08-29T14:40:17Z</time>
      </trkpt>
      <trkpt lat="45.98171" lon="4.84004">
        <ele>273</ele>
        <time>2016-08-29T14:40:18Z</time>
      </trkpt>
      <trkpt lat="45.98168" lon="4.84011">
        <ele>273</ele>
        <time>2016-08-29T14:40:19Z</time>
      </trkpt>
      <trkpt lat="45.98164" lon="4.84018">
        <ele>273</ele>
        <time>2016-08-29T14:40:20Z</time>
      </trkpt>
      <trkpt lat="45.98161" lon="4.84025">
        <ele>273</ele>
        <time>2016-08-29T14:40:21Z</time>
      </trkpt>
      <trkpt lat="45.98157" lon="4.84031">
        <ele>273</ele>
        <time>2016-08-29T14:40:22Z</time>
      </trkpt>
      <trkpt lat="45.98153" lon="4.84037">
        <ele>273</ele>
        <time>2016-08-29T14:40:23Z</time>
      </trkpt>
      <trkpt lat="45.9815" lon="4.84043">
        <ele>273</ele>
        <time>2016-08-29T14:40:24Z</time>
      </trkpt>
      <trkpt lat="45.98146" lon="4.84048">
        <ele>273</ele>
        <time>2016-08-29T14:40:25Z</time>
      </trkpt>
      <trkpt lat="45.98142" lon="4.84053">
        <ele>273</ele>
        <time>2016-08-29T14:40:26Z</time>
      </trkpt>
      <trkpt lat="45.98139" lon="4.84058">
        <ele>273</ele>
        <time>2016-08-29T14:40:27Z</time>
      </trkpt>
      <trkpt lat="45.98135" lon="4.84063">
        <ele>273</ele>
        <time>2016-08-29T14:40:28Z</time>
      </trkpt>
      <trkpt lat="45.98131" lon="4.84068">
        <ele>273</ele>
        <time>2016-08-29T14:40:29Z</time>
      </trkpt>
      <trkpt lat="45.98127" lon="4.84072">
        <ele>273</ele>
        <time>2016-08-29T14:40:30Z</time>
      </trkpt>
      <trkpt lat="45.98123" lon="4.84077">
        <ele>273</ele>
        <time>2016-08-29T14:40:31Z</time>
      </trkpt>
      <trkpt lat="45.98119" lon="4.84081">
        <ele>273</ele>
        <time>2016-08-29T14:40:32Z</time>
      </trkpt>
      <trkpt lat="45.98115" lon="4.84086">
        <ele>273</ele>
        <time>2016-08-29T14:40:33Z</time>
      </trkpt>
      <trkpt lat="45.98111" lon="4.8409">
        <ele>273</ele>
        <time>2016-08-29T14:40:34Z</time>
      </trkpt>
      <trkpt lat="45.98107" lon="4.84094">
        <ele>273</ele>
        <time>2016-08-29T14:40:35Z</time>
      </trkpt>
      <trkpt lat="45.98102" lon="4.84099">
        <ele>273</ele>
        <time>2016-08-29T14:40:36Z</time>
      </trkpt>
      <trkpt lat="45.98098" lon="4.84103">
        <ele>273</ele>
        <time>2016-08-29T14:40:37Z</time>
      </trkpt>
      <trkpt lat="45.98093" lon="4.84107">
        <ele>273</ele>
        <time>2016-08-29T14:40:38Z</time>
      </trkpt>
      <trkpt lat="45.98088" lon="4.84112">
        <ele>273</ele>
        <time>2016-08-29T14:40:39Z</time>
      </trkpt>
      <trkpt lat="45.98083" lon="4.84117">
        <ele>273</ele>
        <time>2016-08-29T14:40:40Z</time>
      </trkpt>
      <trkpt lat="45.98078" lon="4.84121">
        <ele>273</ele>
        <time>2016-08-29T14:40:41Z</time>
      </trkpt>
      <trkpt lat="45.98073" lon="4.84127">
        <ele>273</ele>
        <time>2016-08-29T14:40:42Z</time>
      </trkpt>
      <trkpt lat="45.98069" lon="4.84131">
        <ele>273</ele>
        <time>2016-08-29T14:40:43Z</time>
      </trkpt>
      <trkpt lat="45.98065" lon="4.84134">
        <ele>273</ele>
        <time>2016-08-29T14:40:44Z</time>
      </trkpt>
      <trkpt lat="45.9806" lon="4.84138">
        <ele>273</ele>
        <time>2016-08-29T14:40:45Z</time>
      </trkpt>
      <trkpt lat="45.98056" lon="4.84143">
        <ele>273</ele>
        <time>2016-08-29T14:40:46Z</time>
      </trkpt>
      <trkpt lat="45.98051" lon="4.84147">
        <ele>273</ele>
        <time>2016-08-29T14:40:47Z</time>
      </trkpt>
      <trkpt lat="45.98047" lon="4.84151">
        <ele>273</ele>
        <time>2016-08-29T14:40:48Z</time>
      </trkpt>
      <trkpt lat="45.98042" lon="4.84155">
        <ele>273</ele>
        <time>2016-08-29T14:40:49Z</time>
      </trkpt>
      <trkpt lat="45.98037" lon="4.84159">
        <ele>273</ele>
        <time>2016-08-29T14:40:50Z</time>
      </trkpt>
      <trkpt lat="45.98033" lon="4.84164">
        <ele>273</ele>
        <time>2016-08-29T14:40:51Z</time>
      </trkpt>
      <trkpt lat="45.98028" lon="4.84168">
        <ele>274</ele>
        <time>2016-08-29T14:40:52Z</time>
      </trkpt>
      <trkpt lat="45.98024" lon="4.84172">
        <ele>274</ele>
        <time>2016-08-29T14:40:53Z</time>
      </trkpt>
      <trkpt lat="45.98019" lon="4.84177">
        <ele>274</ele>
        <time>2016-08-29T14:40:54Z</time>
      </trkpt>
      <trkpt lat="45.98014" lon="4.84181">
        <ele>274</ele>
        <time>2016-08-29T14:40:55Z</time>
      </trkpt>
      <trkpt lat="45.98009" lon="4.84186">
        <ele>274</ele>
        <time>2016-08-29T14:40:56Z</time>
      </trkpt>
      <trkpt lat="45.98004" lon="4.8419">
        <ele>274</ele>
        <time>2016-08-29T14:40:57Z</time>
      </trkpt>
      <trkpt lat="45.97999" lon="4.84194">
        <ele>274</ele>
        <time>2016-08-29T14:40:58Z</time>
      </trkpt>
      <trkpt lat="45.97995" lon="4.84199">
        <ele>274</ele>
        <time>2016-08-29T14:40:59Z</time>
      </trkpt>
      <trkpt lat="45.9799" lon="4.84204">
        <ele>274</ele>
        <time>2016-08-29T14:41:00Z</time>
      </trkpt>
      <trkpt lat="45.97985" lon="4.84209">
        <ele>274</ele>
        <time>2016-08-29T14:41:01Z</time>
      </trkpt>
      <trkpt lat="45.97981" lon="4.84213">
        <ele>274</ele>
        <time>2016-08-29T14:41:02Z</time>
      </trkpt>
      <trkpt lat="45.97976" lon="4.84217">
        <ele>274</ele>
        <time>2016-08-29T14:41:03Z</time>
      </trkpt>
      <trkpt lat="45.97972" lon="4.84222">
        <ele>274</ele>
        <time>2016-08-29T14:41:04Z</time>
      </trkpt>
      <trkpt lat="45.97967" lon="4.84227">
        <ele>274</ele>
        <time>2016-08-29T14:41:05Z</time>
      </trkpt>
      <trkpt lat="45.97963" lon="4.84232">
        <ele>274</ele>
        <time>2016-08-29T14:41:06Z</time>
      </trkpt>
      <trkpt lat="45.97958" lon="4.84237">
        <ele>275</ele>
        <time>2016-08-29T14:41:07Z</time>
      </trkpt>
      <trkpt lat="45.97953" lon="4.84241">
        <ele>275</ele>
        <time>2016-08-29T14:41:08Z</time>
      </trkpt>
      <trkpt lat="45.97948" lon="4.84245">
        <ele>275</ele>
        <time>2016-08-29T14:41:09Z</time>
      </trkpt>
      <trkpt lat="45.97943" lon="4.84249">
        <ele>275</ele>
        <time>2016-08-29T14:41:10Z</time>
      </trkpt>
      <trkpt lat="45.97939" lon="4.84253">
        <ele>275</ele>
        <time>2016-08-29T14:41:11Z</time>
      </trkpt>
      <trkpt lat="45.97934" lon="4.84257">
        <ele>275</ele>
        <time>2016-08-29T14:41:12Z</time>
      </trkpt>
      <trkpt lat="45.97928" lon="4.84266">
        <ele>275</ele>
        <time>2016-08-29T14:41:14Z</time>
      </trkpt>
      <trkpt lat="45.97926" lon="4.84272">
        <ele>275</ele>
        <time>2016-08-29T14:41:15Z</time>
      </trkpt>
      <trkpt lat="45.97924" lon="4.84279">
        <ele>275</ele>
        <time>2016-08-29T14:41:16Z</time>
      </trkpt>
      <trkpt lat="45.97923" lon="4.84286">
        <ele>275</ele>
        <time>2016-08-29T14:41:17Z</time>
      </trkpt>
      <trkpt lat="45.97923" lon="4.84293">
        <ele>275</ele>
        <time>2016-08-29T14:41:18Z</time>
      </trkpt>
      <trkpt lat="45.97924" lon="4.843">
        <ele>275</ele>
        <time>2016-08-29T14:41:19Z</time>
      </trkpt>
      <trkpt lat="45.97926" lon="4.84308">
        <ele>275</ele>
        <time>2016-08-29T14:41:20Z</time>
      </trkpt>
      <trkpt lat="45.97927" lon="4.84315">
        <ele>275</ele>
        <time>2016-08-29T14:41:21Z</time>
      </trkpt>
      <trkpt lat="45.97928" lon="4.84323">
        <ele>275</ele>
        <time>2016-08-29T14:41:22Z</time>
      </trkpt>
      <trkpt lat="45.9793" lon="4.84331">
        <ele>275</ele>
        <time>2016-08-29T14:41:23Z</time>
      </trkpt>
      <trkpt lat="45.97931" lon="4.8434">
        <ele>275</ele>
        <time>2016-08-29T14:41:24Z</time>
      </trkpt>
      <trkpt lat="45.97932" lon="4.84349">
        <ele>275</ele>
        <time>2016-08-29T14:41:25Z</time>
      </trkpt>
      <trkpt lat="45.97934" lon="4.84357">
        <ele>275</ele>
        <time>2016-08-29T14:41:26Z</time>
      </trkpt>
      <trkpt lat="45.97935" lon="4.84365">
        <ele>275</ele>
        <time>2016-08-29T14:41:27Z</time>
      </trkpt>
      <trkpt lat="45.97937" lon="4.84374">
        <ele>275</ele>
        <time>2016-08-29T14:41:28Z</time>
      </trkpt>
      <trkpt lat="45.97938" lon="4.84382">
        <ele>275</ele>
        <time>2016-08-29T14:41:29Z</time>
      </trkpt>
      <trkpt lat="45.97939" lon="4.8439">
        <ele>275</ele>
        <time>2016-08-29T14:41:30Z</time>
      </trkpt>
      <trkpt lat="45.9794" lon="4.84398">
        <ele>275</ele>
        <time>2016-08-29T14:41:31Z</time>
      </trkpt>
      <trkpt lat="45.97942" lon="4.84407">
        <ele>275</ele>
        <time>2016-08-29T14:41:32Z</time>
      </trkpt>
      <trkpt lat="45.97943" lon="4.84415">
        <ele>275</ele>
        <time>2016-08-29T14:41:33Z</time>
      </trkpt>
      <trkpt lat="45.97944" lon="4.84423">
        <ele>275</ele>
        <time>2016-08-29T14:41:34Z</time>
      </trkpt>
      <trkpt lat="45.97946" lon="4.84431">
        <ele>275</ele>
        <time>2016-08-29T14:41:35Z</time>
      </trkpt>
      <trkpt lat="45.97947" lon="4.84438">
        <ele>275</ele>
        <time>2016-08-29T14:41:36Z</time>
      </trkpt>
      <trkpt lat="45.97948" lon="4.84446">
        <ele>275</ele>
        <time>2016-08-29T14:41:37Z</time>
      </trkpt>
      <trkpt lat="45.97949" lon="4.84453">
        <ele>275</ele>
        <time>2016-08-29T14:41:38Z</time>
      </trkpt>
      <trkpt lat="45.9795" lon="4.8446">
        <ele>275</ele>
        <time>2016-08-29T14:41:39Z</time>
      </trkpt>
      <trkpt lat="45.97952" lon="4.84468">
        <ele>275</ele>
        <time>2016-08-29T14:41:40Z</time>
      </trkpt>
      <trkpt lat="45.97953" lon="4.84475">
        <ele>275</ele>
        <time>2016-08-29T14:41:41Z</time>
      </trkpt>
      <trkpt lat="45.97954" lon="4.84483">
        <ele>275</ele>
        <time>2016-08-29T14:41:42Z</time>
      </trkpt>
      <trkpt lat="45.97955" lon="4.8449">
        <ele>275</ele>
        <time>2016-08-29T14:41:43Z</time>
      </trkpt>
      <trkpt lat="45.97957" lon="4.84497">
        <ele>275</ele>
        <time>2016-08-29T14:41:44Z</time>
      </trkpt>
      <trkpt lat="45.97958" lon="4.84505">
        <ele>275</ele>
        <time>2016-08-29T14:41:45Z</time>
      </trkpt>
      <trkpt lat="45.9796" lon="4.84513">
        <ele>275</ele>
        <time>2016-08-29T14:41:46Z</time>
      </trkpt>
      <trkpt lat="45.97961" lon="4.84521">
        <ele>275</ele>
        <time>2016-08-29T14:41:47Z</time>
      </trkpt>
      <trkpt lat="45.97962" lon="4.8453">
        <ele>275</ele>
        <time>2016-08-29T14:41:48Z</time>
      </trkpt>
      <trkpt lat="45.97964" lon="4.84538">
        <ele>275</ele>
        <time>2016-08-29T14:41:49Z</time>
      </trkpt>
      <trkpt lat="45.97965" lon="4.84547">
        <ele>275</ele>
        <time>2016-08-29T14:41:50Z</time>
      </trkpt>
      <trkpt lat="45.97967" lon="4.84556">
        <ele>275</ele>
        <time>2016-08-29T14:41:51Z</time>
      </trkpt>
      <trkpt lat="45.97969" lon="4.84565">
        <ele>275</ele>
        <time>2016-08-29T14:41:52Z</time>
      </trkpt>
      <trkpt lat="45.9797" lon="4.84573">
        <ele>275</ele>
        <time>2016-08-29T14:41:53Z</time>
      </trkpt>
      <trkpt lat="45.97972" lon="4.84581">
        <ele>275</ele>
        <time>2016-08-29T14:41:54Z</time>
      </trkpt>
      <trkpt lat="45.97973" lon="4.8459">
        <ele>275</ele>
        <time>2016-08-29T14:41:55Z</time>
      </trkpt>
      <trkpt lat="45.97974" lon="4.84598">
        <ele>275</ele>
        <time>2016-08-29T14:41:56Z</time>
      </trkpt>
      <trkpt lat="45.97976" lon="4.84606">
        <ele>275</ele>
        <time>2016-08-29T14:41:57Z</time>
      </trkpt>
      <trkpt lat="45.97977" lon="4.84614">
        <ele>275</ele>
        <time>2016-08-29T14:41:58Z</time>
      </trkpt>
      <trkpt lat="45.97978" lon="4.84622">
        <ele>275</ele>
        <time>2016-08-29T14:41:59Z</time>
      </trkpt>
      <trkpt lat="45.9798" lon="4.84629">
        <ele>275</ele>
        <time>2016-08-29T14:42:00Z</time>
      </trkpt>
      <trkpt lat="45.97981" lon="4.84636">
        <ele>275</ele>
        <time>2016-08-29T14:42:01Z</time>
      </trkpt>
      <trkpt lat="45.97982" lon="4.84644">
        <ele>275</ele>
        <time>2016-08-29T14:42:02Z</time>
      </trkpt>
      <trkpt lat="45.97983" lon="4.84652">
        <ele>274</ele>
        <time>2016-08-29T14:42:03Z</time>
      </trkpt>
      <trkpt lat="45.97984" lon="4.84661">
        <ele>274</ele>
        <time>2016-08-29T14:42:04Z</time>
      </trkpt>
      <trkpt lat="45.97986" lon="4.84669">
        <ele>275</ele>
        <time>2016-08-29T14:42:05Z</time>
      </trkpt>
      <trkpt lat="45.97986" lon="4.84677">
        <ele>275</ele>
        <time>2016-08-29T14:42:06Z</time>
      </trkpt>
      <trkpt lat="45.97987" lon="4.84684">
        <ele>275</ele>
        <time>2016-08-29T14:42:07Z</time>
      </trkpt>
      <trkpt lat="45.97989" lon="4.84691">
        <ele>275</ele>
        <time>2016-08-29T14:42:08Z</time>
      </trkpt>
      <trkpt lat="45.97989" lon="4.84698">
        <ele>275</ele>
        <time>2016-08-29T14:42:09Z</time>
      </trkpt>
      <trkpt lat="45.9799" lon="4.8471">
        <ele>275</ele>
        <time>2016-08-29T14:42:11Z</time>
      </trkpt>
      <trkpt lat="45.97991" lon="4.84717">
        <ele>275</ele>
        <time>2016-08-29T14:42:12Z</time>
      </trkpt>
      <trkpt lat="45.97992" lon="4.84729">
        <ele>275</ele>
        <time>2016-08-29T14:42:14Z</time>
      </trkpt>
      <trkpt lat="45.97993" lon="4.84736">
        <ele>275</ele>
        <time>2016-08-29T14:42:15Z</time>
      </trkpt>
      <trkpt lat="45.97993" lon="4.84743">
        <ele>275</ele>
        <time>2016-08-29T14:42:16Z</time>
      </trkpt>
      <trkpt lat="45.97994" lon="4.84751">
        <ele>275</ele>
        <time>2016-08-29T14:42:17Z</time>
      </trkpt>
      <trkpt lat="45.97995" lon="4.84758">
        <ele>275</ele>
        <time>2016-08-29T14:42:18Z</time>
      </trkpt>
      <trkpt lat="45.97996" lon="4.84766">
        <ele>275</ele>
        <time>2016-08-29T14:42:19Z</time>
      </trkpt>
      <trkpt lat="45.97996" lon="4.84773">
        <ele>274</ele>
        <time>2016-08-29T14:42:20Z</time>
      </trkpt>
      <trkpt lat="45.97997" lon="4.84781">
        <ele>274</ele>
        <time>2016-08-29T14:42:21Z</time>
      </trkpt>
      <trkpt lat="45.97997" lon="4.84788">
        <ele>274</ele>
        <time>2016-08-29T14:42:22Z</time>
      </trkpt>
      <trkpt lat="45.97998" lon="4.84795">
        <ele>274</ele>
        <time>2016-08-29T14:42:23Z</time>
      </trkpt>
      <trkpt lat="45.97998" lon="4.84802">
        <ele>274</ele>
        <time>2016-08-29T14:42:24Z</time>
      </trkpt>
      <trkpt lat="45.97999" lon="4.84808">
        <ele>273</ele>
        <time>2016-08-29T14:42:25Z</time>
      </trkpt>
      <trkpt lat="45.98" lon="4.84816">
        <ele>273</ele>
        <time>2016-08-29T14:42:26Z</time>
      </trkpt>
      <trkpt lat="45.98001" lon="4.84824">
        <ele>272</ele>
        <time>2016-08-29T14:42:27Z</time>
      </trkpt>
      <trkpt lat="45.98002" lon="4.84832">
        <ele>272</ele>
        <time>2016-08-29T14:42:28Z</time>
      </trkpt>
      <trkpt lat="45.98003" lon="4.84839">
        <ele>272</ele>
        <time>2016-08-29T14:42:29Z</time>
      </trkpt>
      <trkpt lat="45.98004" lon="4.84847">
        <ele>272</ele>
        <time>2016-08-29T14:42:30Z</time>
      </trkpt>
      <trkpt lat="45.98005" lon="4.84854">
        <ele>272</ele>
        <time>2016-08-29T14:42:31Z</time>
      </trkpt>
      <trkpt lat="45.98006" lon="4.84863">
        <ele>272</ele>
        <time>2016-08-29T14:42:32Z</time>
      </trkpt>
      <trkpt lat="45.98006" lon="4.84871">
        <ele>272</ele>
        <time>2016-08-29T14:42:33Z</time>
      </trkpt>
      <trkpt lat="45.98007" lon="4.84878">
        <ele>272</ele>
        <time>2016-08-29T14:42:34Z</time>
      </trkpt>
      <trkpt lat="45.98008" lon="4.84885">
        <ele>272</ele>
        <time>2016-08-29T14:42:35Z</time>
      </trkpt>
      <trkpt lat="45.98009" lon="4.84891">
        <ele>272</ele>
        <time>2016-08-29T14:42:36Z</time>
      </trkpt>
      <trkpt lat="45.98009" lon="4.84898">
        <ele>272</ele>
        <time>2016-08-29T14:42:37Z</time>
      </trkpt>
      <trkpt lat="45.9801" lon="4.84904">
        <ele>272</ele>
        <time>2016-08-29T14:42:38Z</time>
      </trkpt>
      <trkpt lat="45.98011" lon="4.84911">
        <ele>272</ele>
        <time>2016-08-29T14:42:39Z</time>
      </trkpt>
      <trkpt lat="45.98012" lon="4.84919">
        <ele>272</ele>
        <time>2016-08-29T14:42:40Z</time>
      </trkpt>
      <trkpt lat="45.98012" lon="4.84927">
        <ele>272</ele>
        <time>2016-08-29T14:42:41Z</time>
      </trkpt>
      <trkpt lat="45.98013" lon="4.84934">
        <ele>272</ele>
        <time>2016-08-29T14:42:42Z</time>
      </trkpt>
      <trkpt lat="45.98014" lon="4.84941">
        <ele>272</ele>
        <time>2016-08-29T14:42:43Z</time>
      </trkpt>
      <trkpt lat="45.98014" lon="4.84954">
        <ele>272</ele>
        <time>2016-08-29T14:42:45Z</time>
      </trkpt>
      <trkpt lat="45.98014" lon="4.84961">
        <ele>272</ele>
        <time>2016-08-29T14:42:46Z</time>
      </trkpt>
      <trkpt lat="45.98015" lon="4.84969">
        <ele>272</ele>
        <time>2016-08-29T14:42:47Z</time>
      </trkpt>
      <trkpt lat="45.98015" lon="4.84976">
        <ele>272</ele>
        <time>2016-08-29T14:42:48Z</time>
      </trkpt>
      <trkpt lat="45.98016" lon="4.84984">
        <ele>272</ele>
        <time>2016-08-29T14:42:49Z</time>
      </trkpt>
      <trkpt lat="45.98016" lon="4.84991">
        <ele>272</ele>
        <time>2016-08-29T14:42:50Z</time>
      </trkpt>
      <trkpt lat="45.98017" lon="4.84998">
        <ele>272</ele>
        <time>2016-08-29T14:42:51Z</time>
      </trkpt>
      <trkpt lat="45.98018" lon="4.85005">
        <ele>272</ele>
        <time>2016-08-29T14:42:52Z</time>
      </trkpt>
      <trkpt lat="45.98019" lon="4.85013">
        <ele>273</ele>
        <time>2016-08-29T14:42:53Z</time>
      </trkpt>
      <trkpt lat="45.98019" lon="4.85021">
        <ele>273</ele>
        <time>2016-08-29T14:42:54Z</time>
      </trkpt>
      <trkpt lat="45.9802" lon="4.85029">
        <ele>273</ele>
        <time>2016-08-29T14:42:55Z</time>
      </trkpt>
      <trkpt lat="45.9802" lon="4.85036">
        <ele>273</ele>
        <time>2016-08-29T14:42:56Z</time>
      </trkpt>
      <trkpt lat="45.9802" lon="4.85043">
        <ele>273</ele>
        <time>2016-08-29T14:42:57Z</time>
      </trkpt>
      <trkpt lat="45.98019" lon="4.85049">
        <ele>273</ele>
        <time>2016-08-29T14:42:58Z</time>
      </trkpt>
      <trkpt lat="45.98019" lon="4.85057">
        <ele>273</ele>
        <time>2016-08-29T14:42:59Z</time>
      </trkpt>
      <trkpt lat="45.98019" lon="4.85064">
        <ele>273</ele>
        <time>2016-08-29T14:43:00Z</time>
      </trkpt>
      <trkpt lat="45.98019" lon="4.85071">
        <ele>273</ele>
        <time>2016-08-29T14:43:01Z</time>
      </trkpt>
      <trkpt lat="45.98019" lon="4.85078">
        <ele>273</ele>
        <time>2016-08-29T14:43:02Z</time>
      </trkpt>
      <trkpt lat="45.9802" lon="4.85085">
        <ele>274</ele>
        <time>2016-08-29T14:43:03Z</time>
      </trkpt>
      <trkpt lat="45.98021" lon="4.85092">
        <ele>274</ele>
        <time>2016-08-29T14:43:04Z</time>
      </trkpt>
      <trkpt lat="45.98022" lon="4.85098">
        <ele>274</ele>
        <time>2016-08-29T14:43:05Z</time>
      </trkpt>
      <trkpt lat="45.98023" lon="4.85105">
        <ele>274</ele>
        <time>2016-08-29T14:43:06Z</time>
      </trkpt>
      <trkpt lat="45.98024" lon="4.85117">
        <ele>274</ele>
        <time>2016-08-29T14:43:08Z</time>
      </trkpt>
      <trkpt lat="45.98026" lon="4.85123">
        <ele>274</ele>
        <time>2016-08-29T14:43:09Z</time>
      </trkpt>
      <trkpt lat="45.98028" lon="4.85129">
        <ele>274</ele>
        <time>2016-08-29T14:43:10Z</time>
      </trkpt>
      <trkpt lat="45.9803" lon="4.85135">
        <ele>275</ele>
        <time>2016-08-29T14:43:11Z</time>
      </trkpt>
      <trkpt lat="45.98032" lon="4.8514">
        <ele>275</ele>
        <time>2016-08-29T14:43:12Z</time>
      </trkpt>
      <trkpt lat="45.98034" lon="4.85146">
        <ele>275</ele>
        <time>2016-08-29T14:43:13Z</time>
      </trkpt>
      <trkpt lat="45.98036" lon="4.85153">
        <ele>275</ele>
        <time>2016-08-29T14:43:14Z</time>
      </trkpt>
      <trkpt lat="45.98037" lon="4.85159">
        <ele>275</ele>
        <time>2016-08-29T14:43:15Z</time>
      </trkpt>
      <trkpt lat="45.9804" lon="4.85171">
        <ele>275</ele>
        <time>2016-08-29T14:43:17Z</time>
      </trkpt>
      <trkpt lat="45.98042" lon="4.85176">
        <ele>276</ele>
        <time>2016-08-29T14:43:18Z</time>
      </trkpt>
      <trkpt lat="45.98045" lon="4.85186">
        <ele>276</ele>
        <time>2016-08-29T14:43:20Z</time>
      </trkpt>
      <trkpt lat="45.98047" lon="4.85191">
        <ele>276</ele>
        <time>2016-08-29T14:43:21Z</time>
      </trkpt>
      <trkpt lat="45.9805" lon="4.85202">
        <ele>276</ele>
        <time>2016-08-29T14:43:23Z</time>
      </trkpt>
      <trkpt lat="45.98052" lon="4.85206">
        <ele>276</ele>
        <time>2016-08-29T14:43:24Z</time>
      </trkpt>
      <trkpt lat="45.98055" lon="4.85215">
        <ele>276</ele>
        <time>2016-08-29T14:43:26Z</time>
      </trkpt>
      <trkpt lat="45.98057" lon="4.8522">
        <ele>276</ele>
        <time>2016-08-29T14:43:27Z</time>
      </trkpt>
      <trkpt lat="45.98061" lon="4.8523">
        <ele>276</ele>
        <time>2016-08-29T14:43:29Z</time>
      </trkpt>
      <trkpt lat="45.98063" lon="4.85236">
        <ele>276</ele>
        <time>2016-08-29T14:43:30Z</time>
      </trkpt>
      <trkpt lat="45.98066" lon="4.85241">
        <ele>276</ele>
        <time>2016-08-29T14:43:31Z</time>
      </trkpt>
      <trkpt lat="45.98069" lon="4.85247">
        <ele>276</ele>
        <time>2016-08-29T14:43:32Z</time>
      </trkpt>
      <trkpt lat="45.98072" lon="4.85252">
        <ele>276</ele>
        <time>2016-08-29T14:43:33Z</time>
      </trkpt>
      <trkpt lat="45.98075" lon="4.85258">
        <ele>276</ele>
        <time>2016-08-29T14:43:34Z</time>
      </trkpt>
      <trkpt lat="45.98078" lon="4.85263">
        <ele>276</ele>
        <time>2016-08-29T14:43:35Z</time>
      </trkpt>
      <trkpt lat="45.98081" lon="4.85269">
        <ele>276</ele>
        <time>2016-08-29T14:43:36Z</time>
      </trkpt>
      <trkpt lat="45.98084" lon="4.85275">
        <ele>276</ele>
        <time>2016-08-29T14:43:37Z</time>
      </trkpt>
      <trkpt lat="45.98087" lon="4.85281">
        <ele>276</ele>
        <time>2016-08-29T14:43:38Z</time>
      </trkpt>
      <trkpt lat="45.9809" lon="4.85288">
        <ele>276</ele>
        <time>2016-08-29T14:43:39Z</time>
      </trkpt>
      <trkpt lat="45.98093" lon="4.85294">
        <ele>276</ele>
        <time>2016-08-29T14:43:40Z</time>
      </trkpt>
      <trkpt lat="45.98096" lon="4.85301">
        <ele>276</ele>
        <time>2016-08-29T14:43:41Z</time>
      </trkpt>
      <trkpt lat="45.98099" lon="4.85307">
        <ele>276</ele>
        <time>2016-08-29T14:43:42Z</time>
      </trkpt>
      <trkpt lat="45.98101" lon="4.85314">
        <ele>276</ele>
        <time>2016-08-29T14:43:43Z</time>
      </trkpt>
      <trkpt lat="45.98104" lon="4.85319">
        <ele>276</ele>
        <time>2016-08-29T14:43:44Z</time>
      </trkpt>
      <trkpt lat="45.98106" lon="4.85326">
        <ele>276</ele>
        <time>2016-08-29T14:43:45Z</time>
      </trkpt>
      <trkpt lat="45.98108" lon="4.85331">
        <ele>276</ele>
        <time>2016-08-29T14:43:46Z</time>
      </trkpt>
      <trkpt lat="45.98111" lon="4.85338">
        <ele>276</ele>
        <time>2016-08-29T14:43:47Z</time>
      </trkpt>
      <trkpt lat="45.98113" lon="4.85344">
        <ele>276</ele>
        <time>2016-08-29T14:43:48Z</time>
      </trkpt>
      <trkpt lat="45.98116" lon="4.85351">
        <ele>276</ele>
        <time>2016-08-29T14:43:49Z</time>
      </trkpt>
      <trkpt lat="45.98119" lon="4.85357">
        <ele>276</ele>
        <time>2016-08-29T14:43:50Z</time>
      </trkpt>
      <trkpt lat="45.98122" lon="4.85363">
        <ele>276</ele>
        <time>2016-08-29T14:43:51Z</time>
      </trkpt>
      <trkpt lat="45.98124" lon="4.8537">
        <ele>276</ele>
        <time>2016-08-29T14:43:52Z</time>
      </trkpt>
      <trkpt lat="45.98127" lon="4.85377">
        <ele>276</ele>
        <time>2016-08-29T14:43:53Z</time>
      </trkpt>
      <trkpt lat="45.98129" lon="4.85385">
        <ele>276</ele>
        <time>2016-08-29T14:43:54Z</time>
      </trkpt>
      <trkpt lat="45.98132" lon="4.85392">
        <ele>276</ele>
        <time>2016-08-29T14:43:55Z</time>
      </trkpt>
      <trkpt lat="45.98135" lon="4.85399">
        <ele>276</ele>
        <time>2016-08-29T14:43:56Z</time>
      </trkpt>
      <trkpt lat="45.98138" lon="4.85406">
        <ele>276</ele>
        <time>2016-08-29T14:43:57Z</time>
      </trkpt>
      <trkpt lat="45.98141" lon="4.85414">
        <ele>276</ele>
        <time>2016-08-29T14:43:58Z</time>
      </trkpt>
      <trkpt lat="45.98144" lon="4.85421">
        <ele>276</ele>
        <time>2016-08-29T14:43:59Z</time>
      </trkpt>
      <trkpt lat="45.98147" lon="4.85428">
        <ele>276</ele>
        <time>2016-08-29T14:44:00Z</time>
      </trkpt>
      <trkpt lat="45.9815" lon="4.85435">
        <ele>276</ele>
        <time>2016-08-29T14:44:01Z</time>
      </trkpt>
      <trkpt lat="45.98153" lon="4.85442">
        <ele>276</ele>
        <time>2016-08-29T14:44:02Z</time>
      </trkpt>
      <trkpt lat="45.98156" lon="4.85449">
        <ele>276</ele>
        <time>2016-08-29T14:44:03Z</time>
      </trkpt>
      <trkpt lat="45.98159" lon="4.85457">
        <ele>276</ele>
        <time>2016-08-29T14:44:04Z</time>
      </trkpt>
      <trkpt lat="45.98163" lon="4.85464">
        <ele>275</ele>
        <time>2016-08-29T14:44:05Z</time>
      </trkpt>
      <trkpt lat="45.98166" lon="4.85471">
        <ele>275</ele>
        <time>2016-08-29T14:44:06Z</time>
      </trkpt>
      <trkpt lat="45.98169" lon="4.85478">
        <ele>275</ele>
        <time>2016-08-29T14:44:07Z</time>
      </trkpt>
      <trkpt lat="45.98172" lon="4.85485">
        <ele>275</ele>
        <time>2016-08-29T14:44:08Z</time>
      </trkpt>
      <trkpt lat="45.98175" lon="4.85492">
        <ele>275</ele>
        <time>2016-08-29T14:44:09Z</time>
      </trkpt>
      <trkpt lat="45.98177" lon="4.85499">
        <ele>275</ele>
        <time>2016-08-29T14:44:10Z</time>
      </trkpt>
      <trkpt lat="45.9818" lon="4.85505">
        <ele>275</ele>
        <time>2016-08-29T14:44:11Z</time>
      </trkpt>
      <trkpt lat="45.98182" lon="4.85512">
        <ele>275</ele>
        <time>2016-08-29T14:44:12Z</time>
      </trkpt>
      <trkpt lat="45.98185" lon="4.85519">
        <ele>275</ele>
        <time>2016-08-29T14:44:13Z</time>
      </trkpt>
      <trkpt lat="45.98188" lon="4.85526">
        <ele>276</ele>
        <time>2016-08-29T14:44:14Z</time>
      </trkpt>
      <trkpt lat="45.98191" lon="4.85534">
        <ele>276</ele>
        <time>2016-08-29T14:44:15Z</time>
      </trkpt>
      <trkpt lat="45.98194" lon="4.8554">
        <ele>276</ele>
        <time>2016-08-29T14:44:16Z</time>
      </trkpt>
      <trkpt lat="45.98197" lon="4.85547">
        <ele>276</ele>
        <time>2016-08-29T14:44:17Z</time>
      </trkpt>
      <trkpt lat="45.982" lon="4.85555">
        <ele>276</ele>
        <time>2016-08-29T14:44:18Z</time>
      </trkpt>
      <trkpt lat="45.98202" lon="4.85562">
        <ele>276</ele>
        <time>2016-08-29T14:44:19Z</time>
      </trkpt>
      <trkpt lat="45.98205" lon="4.85568">
        <ele>276</ele>
        <time>2016-08-29T14:44:20Z</time>
      </trkpt>
      <trkpt lat="45.98207" lon="4.85575">
        <ele>276</ele>
        <time>2016-08-29T14:44:21Z</time>
      </trkpt>
      <trkpt lat="45.9821" lon="4.85581">
        <ele>276</ele>
        <time>2016-08-29T14:44:22Z</time>
      </trkpt>
      <trkpt lat="45.98213" lon="4.85588">
        <ele>277</ele>
        <time>2016-08-29T14:44:23Z</time>
      </trkpt>
      <trkpt lat="45.98216" lon="4.85594">
        <ele>277</ele>
        <time>2016-08-29T14:44:24Z</time>
      </trkpt>
      <trkpt lat="45.98218" lon="4.856">
        <ele>277</ele>
        <time>2016-08-29T14:44:25Z</time>
      </trkpt>
      <trkpt lat="45.98221" lon="4.85607">
        <ele>277</ele>
        <time>2016-08-29T14:44:26Z</time>
      </trkpt>
      <trkpt lat="45.98223" lon="4.85613">
        <ele>277</ele>
        <time>2016-08-29T14:44:27Z</time>
      </trkpt>
      <trkpt lat="45.98225" lon="4.85619">
        <ele>277</ele>
        <time>2016-08-29T14:44:28Z</time>
      </trkpt>
      <trkpt lat="45.98228" lon="4.85625">
        <ele>277</ele>
        <time>2016-08-29T14:44:29Z</time>
      </trkpt>
      <trkpt lat="45.9823" lon="4.85632">
        <ele>277</ele>
        <time>2016-08-29T14:44:30Z</time>
      </trkpt>
      <trkpt lat="45.98233" lon="4.85638">
        <ele>277</ele>
        <time>2016-08-29T14:44:31Z</time>
      </trkpt>
      <trkpt lat="45.98236" lon="4.85645">
        <ele>277</ele>
        <time>2016-08-29T14:44:32Z</time>
      </trkpt>
      <trkpt lat="45.98239" lon="4.85651">
        <ele>276</ele>
        <time>2016-08-29T14:44:33Z</time>
      </trkpt>
      <trkpt lat="45.98241" lon="4.85658">
        <ele>276</ele>
        <time>2016-08-29T14:44:34Z</time>
      </trkpt>
      <trkpt lat="45.98243" lon="4.85664">
        <ele>276</ele>
        <time>2016-08-29T14:44:35Z</time>
      </trkpt>
      <trkpt lat="45.98245" lon="4.8567">
        <ele>276</ele>
        <time>2016-08-29T14:44:36Z</time>
      </trkpt>
      <trkpt lat="45.98247" lon="4.85676">
        <ele>276</ele>
        <time>2016-08-29T14:44:37Z</time>
      </trkpt>
      <trkpt lat="45.9825" lon="4.85682">
        <ele>276</ele>
        <time>2016-08-29T14:44:38Z</time>
      </trkpt>
      <trkpt lat="45.98252" lon="4.85688">
        <ele>275</ele>
        <time>2016-08-29T14:44:39Z</time>
      </trkpt>
      <trkpt lat="45.98255" lon="4.85694">
        <ele>275</ele>
        <time>2016-08-29T14:44:40Z</time>
      </trkpt>
      <trkpt lat="45.98258" lon="4.857">
        <ele>275</ele>
        <time>2016-08-29T14:44:41Z</time>
      </trkpt>
      <trkpt lat="45.9826" lon="4.85707">
        <ele>275</ele>
        <time>2016-08-29T14:44:42Z</time>
      </trkpt>
      <trkpt lat="45.98262" lon="4.85713">
        <ele>275</ele>
        <time>2016-08-29T14:44:43Z</time>
      </trkpt>
      <trkpt lat="45.98265" lon="4.8572">
        <ele>275</ele>
        <time>2016-08-29T14:44:44Z</time>
      </trkpt>
      <trkpt lat="45.98267" lon="4.85726">
        <ele>275</ele>
        <time>2016-08-29T14:44:45Z</time>
      </trkpt>
      <trkpt lat="45.9827" lon="4.85732">
        <ele>275</ele>
        <time>2016-08-29T14:44:46Z</time>
      </trkpt>
      <trkpt lat="45.98272" lon="4.85738">
        <ele>275</ele>
        <time>2016-08-29T14:44:47Z</time>
      </trkpt>
      <trkpt lat="45.98275" lon="4.85744">
        <ele>274</ele>
        <time>2016-08-29T14:44:48Z</time>
      </trkpt>
      <trkpt lat="45.98277" lon="4.8575">
        <ele>274</ele>
        <time>2016-08-29T14:44:49Z</time>
      </trkpt>
      <trkpt lat="45.9828" lon="4.85756">
        <ele>275</ele>
        <time>2016-08-29T14:44:50Z</time>
      </trkpt>
      <trkpt lat="45.98283" lon="4.85763">
        <ele>275</ele>
        <time>2016-08-29T14:44:51Z</time>
      </trkpt>
      <trkpt lat="45.98286" lon="4.8577">
        <ele>275</ele>
        <time>2016-08-29T14:44:52Z</time>
      </trkpt>
      <trkpt lat="45.98288" lon="4.85776">
        <ele>275</ele>
        <time>2016-08-29T14:44:53Z</time>
      </trkpt>
      <trkpt lat="45.98291" lon="4.85783">
        <ele>275</ele>
        <time>2016-08-29T14:44:54Z</time>
      </trkpt>
      <trkpt lat="45.98293" lon="4.85791">
        <ele>275</ele>
        <time>2016-08-29T14:44:55Z</time>
      </trkpt>
      <trkpt lat="45.98296" lon="4.85798">
        <ele>275</ele>
        <time>2016-08-29T14:44:56Z</time>
      </trkpt>
      <trkpt lat="45.98299" lon="4.85805">
        <ele>275</ele>
        <time>2016-08-29T14:44:57Z</time>
      </trkpt>
      <trkpt lat="45.98302" lon="4.85812">
        <ele>275</ele>
        <time>2016-08-29T14:44:58Z</time>
      </trkpt>
      <trkpt lat="45.98305" lon="4.85819">
        <ele>275</ele>
        <time>2016-08-29T14:44:59Z</time>
      </trkpt>
      <trkpt lat="45.98308" lon="4.85825">
        <ele>275</ele>
        <time>2016-08-29T14:45:00Z</time>
      </trkpt>
      <trkpt lat="45.9831" lon="4.85833">
        <ele>275</ele>
        <time>2016-08-29T14:45:01Z</time>
      </trkpt>
      <trkpt lat="45.98312" lon="4.85839">
        <ele>276</ele>
        <time>2016-08-29T14:45:02Z</time>
      </trkpt>
      <trkpt lat="45.98314" lon="4.85846">
        <ele>276</ele>
        <time>2016-08-29T14:45:03Z</time>
      </trkpt>
      <trkpt lat="45.98317" lon="4.85852">
        <ele>276</ele>
        <time>2016-08-29T14:45:04Z</time>
      </trkpt>
      <trkpt lat="45.9832" lon="4.85859">
        <ele>276</ele>
        <time>2016-08-29T14:45:05Z</time>
      </trkpt>
      <trkpt lat="45.98323" lon="4.85865">
        <ele>276</ele>
        <time>2016-08-29T14:45:06Z</time>
      </trkpt>
      <trkpt lat="45.98326" lon="4.85872">
        <ele>276</ele>
        <time>2016-08-29T14:45:07Z</time>
      </trkpt>
      <trkpt lat="45.98328" lon="4.85879">
        <ele>276</ele>
        <time>2016-08-29T14:45:08Z</time>
      </trkpt>
      <trkpt lat="45.98331" lon="4.85885">
        <ele>276</ele>
        <time>2016-08-29T14:45:09Z</time>
      </trkpt>
      <trkpt lat="45.98333" lon="4.85892">
        <ele>276</ele>
        <time>2016-08-29T14:45:10Z</time>
      </trkpt>
      <trkpt lat="45.98336" lon="4.85897">
        <ele>276</ele>
        <time>2016-08-29T14:45:11Z</time>
      </trkpt>
      <trkpt lat="45.98338" lon="4.85903">
        <ele>276</ele>
        <time>2016-08-29T14:45:12Z</time>
      </trkpt>
      <trkpt lat="45.98343" lon="4.85913">
        <ele>276</ele>
        <time>2016-08-29T14:45:14Z</time>
      </trkpt>
      <trkpt lat="45.98346" lon="4.85919">
        <ele>276</ele>
        <time>2016-08-29T14:45:15Z</time>
      </trkpt>
      <trkpt lat="45.98349" lon="4.85929">
        <ele>276</ele>
        <time>2016-08-29T14:45:17Z</time>
      </trkpt>
      <trkpt lat="45.98351" lon="4.85934">
        <ele>276</ele>
        <time>2016-08-29T14:45:18Z</time>
      </trkpt>
      <trkpt lat="45.98354" lon="4.8594">
        <ele>276</ele>
        <time>2016-08-29T14:45:19Z</time>
      </trkpt>
      <trkpt lat="45.98357" lon="4.85948">
        <ele>276</ele>
        <time>2016-08-29T14:45:20Z</time>
      </trkpt>
      <trkpt lat="45.98361" lon="4.85956">
        <ele>276</ele>
        <time>2016-08-29T14:45:21Z</time>
      </trkpt>
      <trkpt lat="45.98363" lon="4.85962">
        <ele>276</ele>
        <time>2016-08-29T14:45:22Z</time>
      </trkpt>
      <trkpt lat="45.98365" lon="4.85969">
        <ele>276</ele>
        <time>2016-08-29T14:45:23Z</time>
      </trkpt>
      <trkpt lat="45.98368" lon="4.85977">
        <ele>276</ele>
        <time>2016-08-29T14:45:24Z</time>
      </trkpt>
      <trkpt lat="45.9837" lon="4.85983">
        <ele>276</ele>
        <time>2016-08-29T14:45:25Z</time>
      </trkpt>
      <trkpt lat="45.98373" lon="4.8599">
        <ele>276</ele>
        <time>2016-08-29T14:45:26Z</time>
      </trkpt>
      <trkpt lat="45.98377" lon="4.85997">
        <ele>277</ele>
        <time>2016-08-29T14:45:27Z</time>
      </trkpt>
      <trkpt lat="45.98379" lon="4.86005">
        <ele>277</ele>
        <time>2016-08-29T14:45:28Z</time>
      </trkpt>
      <trkpt lat="45.98382" lon="4.86012">
        <ele>277</ele>
        <time>2016-08-29T14:45:29Z</time>
      </trkpt>
      <trkpt lat="45.98385" lon="4.86019">
        <ele>277</ele>
        <time>2016-08-29T14:45:30Z</time>
      </trkpt>
      <trkpt lat="45.98387" lon="4.86028">
        <ele>277</ele>
        <time>2016-08-29T14:45:31Z</time>
      </trkpt>
      <trkpt lat="45.9839" lon="4.86036">
        <ele>277</ele>
        <time>2016-08-29T14:45:32Z</time>
      </trkpt>
      <trkpt lat="45.98392" lon="4.86043">
        <ele>277</ele>
        <time>2016-08-29T14:45:33Z</time>
      </trkpt>
      <trkpt lat="45.98395" lon="4.86049">
        <ele>277</ele>
        <time>2016-08-29T14:45:34Z</time>
      </trkpt>
      <trkpt lat="45.98397" lon="4.86056">
        <ele>277</ele>
        <time>2016-08-29T14:45:35Z</time>
      </trkpt>
      <trkpt lat="45.984" lon="4.86063">
        <ele>277</ele>
        <time>2016-08-29T14:45:36Z</time>
      </trkpt>
      <trkpt lat="45.98401" lon="4.8607">
        <ele>277</ele>
        <time>2016-08-29T14:45:37Z</time>
      </trkpt>
      <trkpt lat="45.98403" lon="4.86076">
        <ele>277</ele>
        <time>2016-08-29T14:45:38Z</time>
      </trkpt>
      <trkpt lat="45.98404" lon="4.86083">
        <ele>277</ele>
        <time>2016-08-29T14:45:39Z</time>
      </trkpt>
      <trkpt lat="45.98405" lon="4.86089">
        <ele>277</ele>
        <time>2016-08-29T14:45:40Z</time>
      </trkpt>
      <trkpt lat="45.98408" lon="4.861">
        <ele>277</ele>
        <time>2016-08-29T14:45:42Z</time>
      </trkpt>
      <trkpt lat="45.98409" lon="4.86106">
        <ele>277</ele>
        <time>2016-08-29T14:45:43Z</time>
      </trkpt>
      <trkpt lat="45.98411" lon="4.86116">
        <ele>277</ele>
        <time>2016-08-29T14:45:45Z</time>
      </trkpt>
      <trkpt lat="45.98412" lon="4.86121">
        <ele>277</ele>
        <time>2016-08-29T14:45:46Z</time>
      </trkpt>
      <trkpt lat="45.98413" lon="4.86131">
        <ele>276</ele>
        <time>2016-08-29T14:45:48Z</time>
      </trkpt>
      <trkpt lat="45.98413" lon="4.86136">
        <ele>276</ele>
        <time>2016-08-29T14:45:49Z</time>
      </trkpt>
      <trkpt lat="45.98416" lon="4.86147">
        <ele>276</ele>
        <time>2016-08-29T14:45:51Z</time>
      </trkpt>
      <trkpt lat="45.98417" lon="4.86152">
        <ele>276</ele>
        <time>2016-08-29T14:45:52Z</time>
      </trkpt>
      <trkpt lat="45.98419" lon="4.86164">
        <ele>276</ele>
        <time>2016-08-29T14:45:54Z</time>
      </trkpt>
      <trkpt lat="45.9842" lon="4.8617">
        <ele>276</ele>
        <time>2016-08-29T14:45:55Z</time>
      </trkpt>
      <trkpt lat="45.98421" lon="4.86182">
        <ele>275</ele>
        <time>2016-08-29T14:45:57Z</time>
      </trkpt>
      <trkpt lat="45.98422" lon="4.86188">
        <ele>275</ele>
        <time>2016-08-29T14:45:58Z</time>
      </trkpt>
      <trkpt lat="45.98424" lon="4.862">
        <ele>275</ele>
        <time>2016-08-29T14:46:00Z</time>
      </trkpt>
      <trkpt lat="45.98424" lon="4.86206">
        <ele>275</ele>
        <time>2016-08-29T14:46:01Z</time>
      </trkpt>
      <trkpt lat="45.98426" lon="4.86213">
        <ele>275</ele>
        <time>2016-08-29T14:46:02Z</time>
      </trkpt>
      <trkpt lat="45.98427" lon="4.8622">
        <ele>275</ele>
        <time>2016-08-29T14:46:03Z</time>
      </trkpt>
      <trkpt lat="45.98428" lon="4.86227">
        <ele>275</ele>
        <time>2016-08-29T14:46:04Z</time>
      </trkpt>
      <trkpt lat="45.98429" lon="4.86234">
        <ele>275</ele>
        <time>2016-08-29T14:46:05Z</time>
      </trkpt>
      <trkpt lat="45.9843" lon="4.86242">
        <ele>275</ele>
        <time>2016-08-29T14:46:06Z</time>
      </trkpt>
      <trkpt lat="45.98431" lon="4.8625">
        <ele>275</ele>
        <time>2016-08-29T14:46:07Z</time>
      </trkpt>
      <trkpt lat="45.98433" lon="4.86259">
        <ele>275</ele>
        <time>2016-08-29T14:46:08Z</time>
      </trkpt>
      <trkpt lat="45.98435" lon="4.86268">
        <ele>275</ele>
        <time>2016-08-29T14:46:09Z</time>
      </trkpt>
      <trkpt lat="45.98436" lon="4.86278">
        <ele>276</ele>
        <time>2016-08-29T14:46:10Z</time>
      </trkpt>
      <trkpt lat="45.98438" lon="4.86288">
        <ele>276</ele>
        <time>2016-08-29T14:46:11Z</time>
      </trkpt>
      <trkpt lat="45.98439" lon="4.86298">
        <ele>276</ele>
        <time>2016-08-29T14:46:12Z</time>
      </trkpt>
      <trkpt lat="45.98441" lon="4.86309">
        <ele>276</ele>
        <time>2016-08-29T14:46:13Z</time>
      </trkpt>
      <trkpt lat="45.98444" lon="4.86319">
        <ele>276</ele>
        <time>2016-08-29T14:46:14Z</time>
      </trkpt>
      <trkpt lat="45.98447" lon="4.86329">
        <ele>276</ele>
        <time>2016-08-29T14:46:15Z</time>
      </trkpt>
      <trkpt lat="45.98449" lon="4.86339">
        <ele>277</ele>
        <time>2016-08-29T14:46:16Z</time>
      </trkpt>
      <trkpt lat="45.98452" lon="4.86348">
        <ele>277</ele>
        <time>2016-08-29T14:46:17Z</time>
      </trkpt>
      <trkpt lat="45.98455" lon="4.86358">
        <ele>277</ele>
        <time>2016-08-29T14:46:18Z</time>
      </trkpt>
      <trkpt lat="45.98458" lon="4.86366">
        <ele>277</ele>
        <time>2016-08-29T14:46:19Z</time>
      </trkpt>
      <trkpt lat="45.98461" lon="4.86375">
        <ele>277</ele>
        <time>2016-08-29T14:46:20Z</time>
      </trkpt>
      <trkpt lat="45.98464" lon="4.86382">
        <ele>277</ele>
        <time>2016-08-29T14:46:21Z</time>
      </trkpt>
      <trkpt lat="45.98467" lon="4.8639">
        <ele>277</ele>
        <time>2016-08-29T14:46:22Z</time>
      </trkpt>
      <trkpt lat="45.9847" lon="4.86398">
        <ele>277</ele>
        <time>2016-08-29T14:46:23Z</time>
      </trkpt>
      <trkpt lat="45.98473" lon="4.86405">
        <ele>277</ele>
        <time>2016-08-29T14:46:24Z</time>
      </trkpt>
      <trkpt lat="45.98477" lon="4.86413">
        <ele>277</ele>
        <time>2016-08-29T14:46:25Z</time>
      </trkpt>
      <trkpt lat="45.9848" lon="4.86421">
        <ele>278</ele>
        <time>2016-08-29T14:46:26Z</time>
      </trkpt>
      <trkpt lat="45.98483" lon="4.86428">
        <ele>278</ele>
        <time>2016-08-29T14:46:27Z</time>
      </trkpt>
      <trkpt lat="45.98486" lon="4.86435">
        <ele>278</ele>
        <time>2016-08-29T14:46:28Z</time>
      </trkpt>
      <trkpt lat="45.9849" lon="4.86443">
        <ele>278</ele>
        <time>2016-08-29T14:46:29Z</time>
      </trkpt>
      <trkpt lat="45.98493" lon="4.8645">
        <ele>278</ele>
        <time>2016-08-29T14:46:30Z</time>
      </trkpt>
      <trkpt lat="45.98495" lon="4.86457">
        <ele>278</ele>
        <time>2016-08-29T14:46:31Z</time>
      </trkpt>
      <trkpt lat="45.98498" lon="4.86464">
        <ele>278</ele>
        <time>2016-08-29T14:46:32Z</time>
      </trkpt>
      <trkpt lat="45.98501" lon="4.86472">
        <ele>278</ele>
        <time>2016-08-29T14:46:33Z</time>
      </trkpt>
      <trkpt lat="45.98504" lon="4.86479">
        <ele>278</ele>
        <time>2016-08-29T14:46:34Z</time>
      </trkpt>
      <trkpt lat="45.98508" lon="4.86485">
        <ele>279</ele>
        <time>2016-08-29T14:46:35Z</time>
      </trkpt>
      <trkpt lat="45.98511" lon="4.86492">
        <ele>279</ele>
        <time>2016-08-29T14:46:36Z</time>
      </trkpt>
      <trkpt lat="45.98515" lon="4.865">
        <ele>279</ele>
        <time>2016-08-29T14:46:37Z</time>
      </trkpt>
      <trkpt lat="45.98518" lon="4.86507">
        <ele>279</ele>
        <time>2016-08-29T14:46:38Z</time>
      </trkpt>
      <trkpt lat="45.98522" lon="4.86514">
        <ele>279</ele>
        <time>2016-08-29T14:46:39Z</time>
      </trkpt>
      <trkpt lat="45.98526" lon="4.8652">
        <ele>279</ele>
        <time>2016-08-29T14:46:40Z</time>
      </trkpt>
      <trkpt lat="45.9853" lon="4.86526">
        <ele>279</ele>
        <time>2016-08-29T14:46:41Z</time>
      </trkpt>
      <trkpt lat="45.98533" lon="4.86533">
        <ele>278</ele>
        <time>2016-08-29T14:46:42Z</time>
      </trkpt>
      <trkpt lat="45.98537" lon="4.8654">
        <ele>278</ele>
        <time>2016-08-29T14:46:43Z</time>
      </trkpt>
      <trkpt lat="45.98541" lon="4.86547">
        <ele>278</ele>
        <time>2016-08-29T14:46:44Z</time>
      </trkpt>
      <trkpt lat="45.98543" lon="4.86553">
        <ele>278</ele>
        <time>2016-08-29T14:46:45Z</time>
      </trkpt>
      <trkpt lat="45.98546" lon="4.86558">
        <ele>278</ele>
        <time>2016-08-29T14:46:46Z</time>
      </trkpt>
      <trkpt lat="45.98548" lon="4.86566">
        <ele>278</ele>
        <time>2016-08-29T14:46:47Z</time>
      </trkpt>
      <trkpt lat="45.9855" lon="4.86574">
        <ele>278</ele>
        <time>2016-08-29T14:46:48Z</time>
      </trkpt>
      <trkpt lat="45.98552" lon="4.86582">
        <ele>278</ele>
        <time>2016-08-29T14:46:49Z</time>
      </trkpt>
      <trkpt lat="45.98554" lon="4.86589">
        <ele>278</ele>
        <time>2016-08-29T14:46:50Z</time>
      </trkpt>
      <trkpt lat="45.98555" lon="4.86596">
        <ele>278</ele>
        <time>2016-08-29T14:46:51Z</time>
      </trkpt>
      <trkpt lat="45.98557" lon="4.86603">
        <ele>278</ele>
        <time>2016-08-29T14:46:52Z</time>
      </trkpt>
      <trkpt lat="45.98559" lon="4.8661">
        <ele>278</ele>
        <time>2016-08-29T14:46:53Z</time>
      </trkpt>
      <trkpt lat="45.98561" lon="4.86617">
        <ele>278</ele>
        <time>2016-08-29T14:46:54Z</time>
      </trkpt>
      <trkpt lat="45.98562" lon="4.86624">
        <ele>278</ele>
        <time>2016-08-29T14:46:55Z</time>
      </trkpt>
      <trkpt lat="45.98562" lon="4.86632">
        <ele>278</ele>
        <time>2016-08-29T14:46:56Z</time>
      </trkpt>
      <trkpt lat="45.98563" lon="4.86639">
        <ele>277</ele>
        <time>2016-08-29T14:46:57Z</time>
      </trkpt>
      <trkpt lat="45.98564" lon="4.86646">
        <ele>277</ele>
        <time>2016-08-29T14:46:58Z</time>
      </trkpt>
      <trkpt lat="45.98566" lon="4.86654">
        <ele>277</ele>
        <time>2016-08-29T14:46:59Z</time>
      </trkpt>
      <trkpt lat="45.98567" lon="4.86661">
        <ele>277</ele>
        <time>2016-08-29T14:47:00Z</time>
      </trkpt>
      <trkpt lat="45.98567" lon="4.86669">
        <ele>276</ele>
        <time>2016-08-29T14:47:01Z</time>
      </trkpt>
      <trkpt lat="45.98568" lon="4.86677">
        <ele>276</ele>
        <time>2016-08-29T14:47:02Z</time>
      </trkpt>
      <trkpt lat="45.98568" lon="4.86687">
        <ele>277</ele>
        <time>2016-08-29T14:47:03Z</time>
      </trkpt>
      <trkpt lat="45.98568" lon="4.86696">
        <ele>277</ele>
        <time>2016-08-29T14:47:04Z</time>
      </trkpt>
      <trkpt lat="45.98569" lon="4.86705">
        <ele>277</ele>
        <time>2016-08-29T14:47:05Z</time>
      </trkpt>
      <trkpt lat="45.98569" lon="4.86713">
        <ele>277</ele>
        <time>2016-08-29T14:47:06Z</time>
      </trkpt>
      <trkpt lat="45.9857" lon="4.86722">
        <ele>277</ele>
        <time>2016-08-29T14:47:07Z</time>
      </trkpt>
      <trkpt lat="45.98571" lon="4.8673">
        <ele>277</ele>
        <time>2016-08-29T14:47:08Z</time>
      </trkpt>
      <trkpt lat="45.98572" lon="4.86738">
        <ele>277</ele>
        <time>2016-08-29T14:47:09Z</time>
      </trkpt>
      <trkpt lat="45.98573" lon="4.86746">
        <ele>277</ele>
        <time>2016-08-29T14:47:10Z</time>
      </trkpt>
      <trkpt lat="45.98574" lon="4.86754">
        <ele>277</ele>
        <time>2016-08-29T14:47:11Z</time>
      </trkpt>
      <trkpt lat="45.98575" lon="4.86761">
        <ele>277</ele>
        <time>2016-08-29T14:47:12Z</time>
      </trkpt>
      <trkpt lat="45.98577" lon="4.86769">
        <ele>277</ele>
        <time>2016-08-29T14:47:13Z</time>
      </trkpt>
      <trkpt lat="45.98578" lon="4.86776">
        <ele>277</ele>
        <time>2016-08-29T14:47:14Z</time>
      </trkpt>
      <trkpt lat="45.98579" lon="4.86786">
        <ele>277</ele>
        <time>2016-08-29T14:47:15Z</time>
      </trkpt>
      <trkpt lat="45.9858" lon="4.86794">
        <ele>277</ele>
        <time>2016-08-29T14:47:16Z</time>
      </trkpt>
      <trkpt lat="45.98581" lon="4.86802">
        <ele>277</ele>
        <time>2016-08-29T14:47:17Z</time>
      </trkpt>
      <trkpt lat="45.98582" lon="4.86811">
        <ele>277</ele>
        <time>2016-08-29T14:47:18Z</time>
      </trkpt>
      <trkpt lat="45.98584" lon="4.86819">
        <ele>276</ele>
        <time>2016-08-29T14:47:19Z</time>
      </trkpt>
      <trkpt lat="45.98585" lon="4.86828">
        <ele>277</ele>
        <time>2016-08-29T14:47:20Z</time>
      </trkpt>
      <trkpt lat="45.98585" lon="4.86836">
        <ele>277</ele>
        <time>2016-08-29T14:47:21Z</time>
      </trkpt>
      <trkpt lat="45.98586" lon="4.86844">
        <ele>277</ele>
        <time>2016-08-29T14:47:22Z</time>
      </trkpt>
      <trkpt lat="45.98585" lon="4.86852">
        <ele>277</ele>
        <time>2016-08-29T14:47:23Z</time>
      </trkpt>
      <trkpt lat="45.98585" lon="4.86862">
        <ele>277</ele>
        <time>2016-08-29T14:47:24Z</time>
      </trkpt>
      <trkpt lat="45.98585" lon="4.86871">
        <ele>277</ele>
        <time>2016-08-29T14:47:25Z</time>
      </trkpt>
      <trkpt lat="45.98586" lon="4.8688">
        <ele>277</ele>
        <time>2016-08-29T14:47:26Z</time>
      </trkpt>
      <trkpt lat="45.98586" lon="4.86889">
        <ele>278</ele>
        <time>2016-08-29T14:47:27Z</time>
      </trkpt>
      <trkpt lat="45.98585" lon="4.86898">
        <ele>278</ele>
        <time>2016-08-29T14:47:28Z</time>
      </trkpt>
      <trkpt lat="45.98586" lon="4.86908">
        <ele>278</ele>
        <time>2016-08-29T14:47:29Z</time>
      </trkpt>
      <trkpt lat="45.98586" lon="4.86918">
        <ele>279</ele>
        <time>2016-08-29T14:47:30Z</time>
      </trkpt>
      <trkpt lat="45.98586" lon="4.86927">
        <ele>279</ele>
        <time>2016-08-29T14:47:31Z</time>
      </trkpt>
      <trkpt lat="45.98586" lon="4.86937">
        <ele>279</ele>
        <time>2016-08-29T14:47:32Z</time>
      </trkpt>
      <trkpt lat="45.98586" lon="4.86946">
        <ele>279</ele>
        <time>2016-08-29T14:47:33Z</time>
      </trkpt>
      <trkpt lat="45.98586" lon="4.86956">
        <ele>279</ele>
        <time>2016-08-29T14:47:34Z</time>
      </trkpt>
      <trkpt lat="45.98586" lon="4.86967">
        <ele>279</ele>
        <time>2016-08-29T14:47:35Z</time>
      </trkpt>
      <trkpt lat="45.98587" lon="4.86978">
        <ele>279</ele>
        <time>2016-08-29T14:47:36Z</time>
      </trkpt>
      <trkpt lat="45.98588" lon="4.86989">
        <ele>279</ele>
        <time>2016-08-29T14:47:37Z</time>
      </trkpt>
      <trkpt lat="45.9859" lon="4.86999">
        <ele>280</ele>
        <time>2016-08-29T14:47:38Z</time>
      </trkpt>
      <trkpt lat="45.98591" lon="4.8701">
        <ele>279</ele>
        <time>2016-08-29T14:47:39Z</time>
      </trkpt>
      <trkpt lat="45.98593" lon="4.8702">
        <ele>279</ele>
        <time>2016-08-29T14:47:40Z</time>
      </trkpt>
      <trkpt lat="45.98595" lon="4.8703">
        <ele>279</ele>
        <time>2016-08-29T14:47:41Z</time>
      </trkpt>
      <trkpt lat="45.98597" lon="4.8704">
        <ele>279</ele>
        <time>2016-08-29T14:47:42Z</time>
      </trkpt>
      <trkpt lat="45.98598" lon="4.87049">
        <ele>279</ele>
        <time>2016-08-29T14:47:43Z</time>
      </trkpt>
      <trkpt lat="45.986" lon="4.87058">
        <ele>279</ele>
        <time>2016-08-29T14:47:44Z</time>
      </trkpt>
      <trkpt lat="45.98601" lon="4.87066">
        <ele>279</ele>
        <time>2016-08-29T14:47:45Z</time>
      </trkpt>
      <trkpt lat="45.98603" lon="4.87075">
        <ele>279</ele>
        <time>2016-08-29T14:47:46Z</time>
      </trkpt>
      <trkpt lat="45.98604" lon="4.87082">
        <ele>279</ele>
        <time>2016-08-29T14:47:47Z</time>
      </trkpt>
      <trkpt lat="45.98605" lon="4.8709">
        <ele>279</ele>
        <time>2016-08-29T14:47:48Z</time>
      </trkpt>
      <trkpt lat="45.98606" lon="4.87099">
        <ele>279</ele>
        <time>2016-08-29T14:47:49Z</time>
      </trkpt>
      <trkpt lat="45.98607" lon="4.87107">
        <ele>279</ele>
        <time>2016-08-29T14:47:50Z</time>
      </trkpt>
      <trkpt lat="45.98608" lon="4.87115">
        <ele>279</ele>
        <time>2016-08-29T14:47:51Z</time>
      </trkpt>
      <trkpt lat="45.98608" lon="4.87122">
        <ele>279</ele>
        <time>2016-08-29T14:47:52Z</time>
      </trkpt>
      <trkpt lat="45.98607" lon="4.87131">
        <ele>279</ele>
        <time>2016-08-29T14:47:53Z</time>
      </trkpt>
      <trkpt lat="45.98607" lon="4.8714">
        <ele>278</ele>
        <time>2016-08-29T14:47:54Z</time>
      </trkpt>
      <trkpt lat="45.98606" lon="4.8715">
        <ele>278</ele>
        <time>2016-08-29T14:47:55Z</time>
      </trkpt>
      <trkpt lat="45.98606" lon="4.87159">
        <ele>278</ele>
        <time>2016-08-29T14:47:56Z</time>
      </trkpt>
      <trkpt lat="45.98605" lon="4.87167">
        <ele>277</ele>
        <time>2016-08-29T14:47:57Z</time>
      </trkpt>
      <trkpt lat="45.98605" lon="4.87175">
        <ele>277</ele>
        <time>2016-08-29T14:47:58Z</time>
      </trkpt>
      <trkpt lat="45.98604" lon="4.87184">
        <ele>277</ele>
        <time>2016-08-29T14:47:59Z</time>
      </trkpt>
      <trkpt lat="45.98603" lon="4.87194">
        <ele>277</ele>
        <time>2016-08-29T14:48:00Z</time>
      </trkpt>
      <trkpt lat="45.98602" lon="4.87204">
        <ele>277</ele>
        <time>2016-08-29T14:48:01Z</time>
      </trkpt>
      <trkpt lat="45.98602" lon="4.87213">
        <ele>277</ele>
        <time>2016-08-29T14:48:02Z</time>
      </trkpt>
      <trkpt lat="45.98601" lon="4.87223">
        <ele>277</ele>
        <time>2016-08-29T14:48:03Z</time>
      </trkpt>
      <trkpt lat="45.986" lon="4.87233">
        <ele>277</ele>
        <time>2016-08-29T14:48:04Z</time>
      </trkpt>
      <trkpt lat="45.98598" lon="4.87243">
        <ele>277</ele>
        <time>2016-08-29T14:48:05Z</time>
      </trkpt>
      <trkpt lat="45.98597" lon="4.87254">
        <ele>275</ele>
        <time>2016-08-29T14:48:06Z</time>
      </trkpt>
      <trkpt lat="45.98596" lon="4.87264">
        <ele>275</ele>
        <time>2016-08-29T14:48:07Z</time>
      </trkpt>
      <trkpt lat="45.98595" lon="4.87274">
        <ele>275</ele>
        <time>2016-08-29T14:48:08Z</time>
      </trkpt>
      <trkpt lat="45.98595" lon="4.87284">
        <ele>275</ele>
        <time>2016-08-29T14:48:09Z</time>
      </trkpt>
      <trkpt lat="45.98595" lon="4.87294">
        <ele>275</ele>
        <time>2016-08-29T14:48:10Z</time>
      </trkpt>
      <trkpt lat="45.98595" lon="4.87304">
        <ele>274</ele>
        <time>2016-08-29T14:48:11Z</time>
      </trkpt>
      <trkpt lat="45.98596" lon="4.87314">
        <ele>274</ele>
        <time>2016-08-29T14:48:12Z</time>
      </trkpt>
      <trkpt lat="45.98598" lon="4.87324">
        <ele>274</ele>
        <time>2016-08-29T14:48:13Z</time>
      </trkpt>
      <trkpt lat="45.986" lon="4.87334">
        <ele>273</ele>
        <time>2016-08-29T14:48:14Z</time>
      </trkpt>
      <trkpt lat="45.98602" lon="4.87345">
        <ele>272</ele>
        <time>2016-08-29T14:48:15Z</time>
      </trkpt>
      <trkpt lat="45.98605" lon="4.87355">
        <ele>272</ele>
        <time>2016-08-29T14:48:16Z</time>
      </trkpt>
      <trkpt lat="45.98607" lon="4.87366">
        <ele>272</ele>
        <time>2016-08-29T14:48:17Z</time>
      </trkpt>
      <trkpt lat="45.98609" lon="4.87376">
        <ele>271</ele>
        <time>2016-08-29T14:48:18Z</time>
      </trkpt>
      <trkpt lat="45.98611" lon="4.87387">
        <ele>271</ele>
        <time>2016-08-29T14:48:19Z</time>
      </trkpt>
      <trkpt lat="45.98613" lon="4.87398">
        <ele>271</ele>
        <time>2016-08-29T14:48:20Z</time>
      </trkpt>
      <trkpt lat="45.98616" lon="4.87409">
        <ele>271</ele>
        <time>2016-08-29T14:48:21Z</time>
      </trkpt>
      <trkpt lat="45.98618" lon="4.87421">
        <ele>269</ele>
        <time>2016-08-29T14:48:22Z</time>
      </trkpt>
      <trkpt lat="45.9862" lon="4.87432">
        <ele>269</ele>
        <time>2016-08-29T14:48:23Z</time>
      </trkpt>
      <trkpt lat="45.98622" lon="4.87443">
        <ele>269</ele>
        <time>2016-08-29T14:48:24Z</time>
      </trkpt>
      <trkpt lat="45.98625" lon="4.87454">
        <ele>268</ele>
        <time>2016-08-29T14:48:25Z</time>
      </trkpt>
      <trkpt lat="45.98628" lon="4.87467">
        <ele>268</ele>
        <time>2016-08-29T14:48:26Z</time>
      </trkpt>
      <trkpt lat="45.9863" lon="4.87478">
        <ele>268</ele>
        <time>2016-08-29T14:48:27Z</time>
      </trkpt>
      <trkpt lat="45.98633" lon="4.8749">
        <ele>268</ele>
        <time>2016-08-29T14:48:28Z</time>
      </trkpt>
      <trkpt lat="45.98635" lon="4.87501">
        <ele>267</ele>
        <time>2016-08-29T14:48:29Z</time>
      </trkpt>
      <trkpt lat="45.98637" lon="4.87512">
        <ele>267</ele>
        <time>2016-08-29T14:48:30Z</time>
      </trkpt>
      <trkpt lat="45.98639" lon="4.87522">
        <ele>267</ele>
        <time>2016-08-29T14:48:31Z</time>
      </trkpt>
      <trkpt lat="45.98641" lon="4.87532">
        <ele>267</ele>
        <time>2016-08-29T14:48:32Z</time>
      </trkpt>
      <trkpt lat="45.98643" lon="4.87543">
        <ele>267</ele>
        <time>2016-08-29T14:48:33Z</time>
      </trkpt>
      <trkpt lat="45.98647" lon="4.87552">
        <ele>267</ele>
        <time>2016-08-29T14:48:34Z</time>
      </trkpt>
      <trkpt lat="45.98652" lon="4.8756">
        <ele>267</ele>
        <time>2016-08-29T14:48:35Z</time>
      </trkpt>
      <trkpt lat="45.98657" lon="4.87566">
        <ele>267</ele>
        <time>2016-08-29T14:48:36Z</time>
      </trkpt>
      <trkpt lat="45.98664" lon="4.87568">
        <ele>267</ele>
        <time>2016-08-29T14:48:37Z</time>
      </trkpt>
      <trkpt lat="45.9867" lon="4.87569">
        <ele>267</ele>
        <time>2016-08-29T14:48:38Z</time>
      </trkpt>
      <trkpt lat="45.98676" lon="4.87568">
        <ele>267</ele>
        <time>2016-08-29T14:48:39Z</time>
      </trkpt>
      <trkpt lat="45.98682" lon="4.87566">
        <ele>267</ele>
        <time>2016-08-29T14:48:40Z</time>
      </trkpt>
      <trkpt lat="45.98687" lon="4.87565">
        <ele>267</ele>
        <time>2016-08-29T14:48:41Z</time>
      </trkpt>
      <trkpt lat="45.98692" lon="4.87563">
        <ele>267</ele>
        <time>2016-08-29T14:48:42Z</time>
      </trkpt>
      <trkpt lat="45.98697" lon="4.87561">
        <ele>267</ele>
        <time>2016-08-29T14:48:43Z</time>
      </trkpt>
      <trkpt lat="45.98702" lon="4.8756">
        <ele>267</ele>
        <time>2016-08-29T14:48:44Z</time>
      </trkpt>
      <trkpt lat="45.98708" lon="4.87558">
        <ele>267</ele>
        <time>2016-08-29T14:48:45Z</time>
      </trkpt>
      <trkpt lat="45.98714" lon="4.87556">
        <ele>267</ele>
        <time>2016-08-29T14:48:46Z</time>
      </trkpt>
      <trkpt lat="45.98719" lon="4.87554">
        <ele>267</ele>
        <time>2016-08-29T14:48:47Z</time>
      </trkpt>
      <trkpt lat="45.98725" lon="4.87554">
        <ele>267</ele>
        <time>2016-08-29T14:48:48Z</time>
      </trkpt>
      <trkpt lat="45.9873" lon="4.87554">
        <ele>267</ele>
        <time>2016-08-29T14:48:49Z</time>
      </trkpt>
      <trkpt lat="45.98735" lon="4.87554">
        <ele>267</ele>
        <time>2016-08-29T14:48:50Z</time>
      </trkpt>
      <trkpt lat="45.9874" lon="4.87555">
        <ele>267</ele>
        <time>2016-08-29T14:48:51Z</time>
      </trkpt>
      <trkpt lat="45.98745" lon="4.87558">
        <ele>267</ele>
        <time>2016-08-29T14:48:52Z</time>
      </trkpt>
      <trkpt lat="45.9875" lon="4.8756">
        <ele>269</ele>
        <time>2016-08-29T14:48:53Z</time>
      </trkpt>
      <trkpt lat="45.98756" lon="4.87562">
        <ele>269</ele>
        <time>2016-08-29T14:48:54Z</time>
      </trkpt>
      <trkpt lat="45.98761" lon="4.87564">
        <ele>269</ele>
        <time>2016-08-29T14:48:55Z</time>
      </trkpt>
      <trkpt lat="45.98766" lon="4.87567">
        <ele>269</ele>
        <time>2016-08-29T14:48:56Z</time>
      </trkpt>
      <trkpt lat="45.98771" lon="4.8757">
        <ele>269</ele>
        <time>2016-08-29T14:48:57Z</time>
      </trkpt>
      <trkpt lat="45.98776" lon="4.87574">
        <ele>269</ele>
        <time>2016-08-29T14:48:58Z</time>
      </trkpt>
      <trkpt lat="45.9878" lon="4.87579">
        <ele>269</ele>
        <time>2016-08-29T14:48:59Z</time>
      </trkpt>
      <trkpt lat="45.98785" lon="4.87584">
        <ele>271</ele>
        <time>2016-08-29T14:49:00Z</time>
      </trkpt>
      <trkpt lat="45.98789" lon="4.87588">
        <ele>271</ele>
        <time>2016-08-29T14:49:01Z</time>
      </trkpt>
      <trkpt lat="45.98793" lon="4.87592">
        <ele>271</ele>
        <time>2016-08-29T14:49:02Z</time>
      </trkpt>
      <trkpt lat="45.98799" lon="4.876">
        <ele>271</ele>
        <time>2016-08-29T14:49:04Z</time>
      </trkpt>
      <trkpt lat="45.98802" lon="4.87606">
        <ele>271</ele>
        <time>2016-08-29T14:49:05Z</time>
      </trkpt>
      <trkpt lat="45.98805" lon="4.87613">
        <ele>271</ele>
        <time>2016-08-29T14:49:06Z</time>
      </trkpt>
      <trkpt lat="45.98807" lon="4.8762">
        <ele>271</ele>
        <time>2016-08-29T14:49:07Z</time>
      </trkpt>
      <trkpt lat="45.98808" lon="4.87627">
        <ele>271</ele>
        <time>2016-08-29T14:49:08Z</time>
      </trkpt>
      <trkpt lat="45.9881" lon="4.87633">
        <ele>271</ele>
        <time>2016-08-29T14:49:09Z</time>
      </trkpt>
      <trkpt lat="45.98811" lon="4.87639">
        <ele>272</ele>
        <time>2016-08-29T14:49:10Z</time>
      </trkpt>
      <trkpt lat="45.98814" lon="4.87646">
        <ele>272</ele>
        <time>2016-08-29T14:49:11Z</time>
      </trkpt>
      <trkpt lat="45.98817" lon="4.87654">
        <ele>272</ele>
        <time>2016-08-29T14:49:12Z</time>
      </trkpt>
      <trkpt lat="45.98819" lon="4.87662">
        <ele>272</ele>
        <time>2016-08-29T14:49:13Z</time>
      </trkpt>
      <trkpt lat="45.98821" lon="4.8767">
        <ele>273</ele>
        <time>2016-08-29T14:49:14Z</time>
      </trkpt>
      <trkpt lat="45.98823" lon="4.87678">
        <ele>273</ele>
        <time>2016-08-29T14:49:15Z</time>
      </trkpt>
      <trkpt lat="45.98825" lon="4.87686">
        <ele>273</ele>
        <time>2016-08-29T14:49:16Z</time>
      </trkpt>
      <trkpt lat="45.98827" lon="4.87693">
        <ele>273</ele>
        <time>2016-08-29T14:49:17Z</time>
      </trkpt>
      <trkpt lat="45.98829" lon="4.87699">
        <ele>273</ele>
        <time>2016-08-29T14:49:18Z</time>
      </trkpt>
      <trkpt lat="45.98831" lon="4.87705">
        <ele>273</ele>
        <time>2016-08-29T14:49:19Z</time>
      </trkpt>
      <trkpt lat="45.98832" lon="4.87713">
        <ele>273</ele>
        <time>2016-08-29T14:49:20Z</time>
      </trkpt>
      <trkpt lat="45.98834" lon="4.8772">
        <ele>273</ele>
        <time>2016-08-29T14:49:21Z</time>
      </trkpt>
      <trkpt lat="45.98835" lon="4.87728">
        <ele>273</ele>
        <time>2016-08-29T14:49:22Z</time>
      </trkpt>
      <trkpt lat="45.98837" lon="4.87737">
        <ele>273</ele>
        <time>2016-08-29T14:49:23Z</time>
      </trkpt>
      <trkpt lat="45.98839" lon="4.87746">
        <ele>273</ele>
        <time>2016-08-29T14:49:24Z</time>
      </trkpt>
      <trkpt lat="45.98841" lon="4.87754">
        <ele>273</ele>
        <time>2016-08-29T14:49:25Z</time>
      </trkpt>
      <trkpt lat="45.98843" lon="4.87761">
        <ele>273</ele>
        <time>2016-08-29T14:49:26Z</time>
      </trkpt>
      <trkpt lat="45.98845" lon="4.87768">
        <ele>273</ele>
        <time>2016-08-29T14:49:27Z</time>
      </trkpt>
      <trkpt lat="45.98847" lon="4.87775">
        <ele>273</ele>
        <time>2016-08-29T14:49:28Z</time>
      </trkpt>
      <trkpt lat="45.9885" lon="4.87782">
        <ele>273</ele>
        <time>2016-08-29T14:49:29Z</time>
      </trkpt>
      <trkpt lat="45.98852" lon="4.87789">
        <ele>273</ele>
        <time>2016-08-29T14:49:30Z</time>
      </trkpt>
      <trkpt lat="45.98855" lon="4.87797">
        <ele>273</ele>
        <time>2016-08-29T14:49:31Z</time>
      </trkpt>
      <trkpt lat="45.98856" lon="4.87805">
        <ele>273</ele>
        <time>2016-08-29T14:49:32Z</time>
      </trkpt>
      <trkpt lat="45.98858" lon="4.87811">
        <ele>273</ele>
        <time>2016-08-29T14:49:33Z</time>
      </trkpt>
      <trkpt lat="45.98861" lon="4.87818">
        <ele>273</ele>
        <time>2016-08-29T14:49:34Z</time>
      </trkpt>
      <trkpt lat="45.98864" lon="4.87825">
        <ele>273</ele>
        <time>2016-08-29T14:49:35Z</time>
      </trkpt>
      <trkpt lat="45.98867" lon="4.87832">
        <ele>273</ele>
        <time>2016-08-29T14:49:36Z</time>
      </trkpt>
      <trkpt lat="45.98871" lon="4.87838">
        <ele>273</ele>
        <time>2016-08-29T14:49:37Z</time>
      </trkpt>
      <trkpt lat="45.98874" lon="4.87844">
        <ele>273</ele>
        <time>2016-08-29T14:49:38Z</time>
      </trkpt>
      <trkpt lat="45.98877" lon="4.8785">
        <ele>272</ele>
        <time>2016-08-29T14:49:39Z</time>
      </trkpt>
      <trkpt lat="45.98881" lon="4.87857">
        <ele>272</ele>
        <time>2016-08-29T14:49:40Z</time>
      </trkpt>
      <trkpt lat="45.98884" lon="4.87862">
        <ele>272</ele>
        <time>2016-08-29T14:49:41Z</time>
      </trkpt>
      <trkpt lat="45.98888" lon="4.87867">
        <ele>272</ele>
        <time>2016-08-29T14:49:42Z</time>
      </trkpt>
      <trkpt lat="45.98892" lon="4.87872">
        <ele>272</ele>
        <time>2016-08-29T14:49:43Z</time>
      </trkpt>
      <trkpt lat="45.98896" lon="4.87877">
        <ele>272</ele>
        <time>2016-08-29T14:49:44Z</time>
      </trkpt>
      <trkpt lat="45.989" lon="4.87882">
        <ele>272</ele>
        <time>2016-08-29T14:49:45Z</time>
      </trkpt>
      <trkpt lat="45.98904" lon="4.87887">
        <ele>272</ele>
        <time>2016-08-29T14:49:46Z</time>
      </trkpt>
      <trkpt lat="45.98908" lon="4.87892">
        <ele>272</ele>
        <time>2016-08-29T14:49:47Z</time>
      </trkpt>
      <trkpt lat="45.98912" lon="4.87897">
        <ele>272</ele>
        <time>2016-08-29T14:49:48Z</time>
      </trkpt>
      <trkpt lat="45.98916" lon="4.87902">
        <ele>272</ele>
        <time>2016-08-29T14:49:49Z</time>
      </trkpt>
      <trkpt lat="45.9892" lon="4.87906">
        <ele>272</ele>
        <time>2016-08-29T14:49:50Z</time>
      </trkpt>
      <trkpt lat="45.98924" lon="4.87909">
        <ele>272</ele>
        <time>2016-08-29T14:49:51Z</time>
      </trkpt>
      <trkpt lat="45.98931" lon="4.87915">
        <ele>273</ele>
        <time>2016-08-29T14:49:53Z</time>
      </trkpt>
      <trkpt lat="45.98935" lon="4.87918">
        <ele>272</ele>
        <time>2016-08-29T14:49:54Z</time>
      </trkpt>
      <trkpt lat="45.98942" lon="4.87922">
        <ele>273</ele>
        <time>2016-08-29T14:49:56Z</time>
      </trkpt>
      <trkpt lat="45.98946" lon="4.87924">
        <ele>273</ele>
        <time>2016-08-29T14:49:57Z</time>
      </trkpt>
      <trkpt lat="45.98954" lon="4.8793">
        <ele>273</ele>
        <time>2016-08-29T14:49:59Z</time>
      </trkpt>
      <trkpt lat="45.98958" lon="4.87933">
        <ele>273</ele>
        <time>2016-08-29T14:50:00Z</time>
      </trkpt>
      <trkpt lat="45.98965" lon="4.87937">
        <ele>274</ele>
        <time>2016-08-29T14:50:02Z</time>
      </trkpt>
      <trkpt lat="45.98968" lon="4.87939">
        <ele>274</ele>
        <time>2016-08-29T14:50:03Z</time>
      </trkpt>
      <trkpt lat="45.98975" lon="4.87943">
        <ele>274</ele>
        <time>2016-08-29T14:50:05Z</time>
      </trkpt>
      <trkpt lat="45.98979" lon="4.87945">
        <ele>274</ele>
        <time>2016-08-29T14:50:06Z</time>
      </trkpt>
      <trkpt lat="45.98987" lon="4.87949">
        <ele>274</ele>
        <time>2016-08-29T14:50:08Z</time>
      </trkpt>
      <trkpt lat="45.9899" lon="4.87951">
        <ele>274</ele>
        <time>2016-08-29T14:50:09Z</time>
      </trkpt>
      <trkpt lat="45.98997" lon="4.87955">
        <ele>274</ele>
        <time>2016-08-29T14:50:11Z</time>
      </trkpt>
      <trkpt lat="45.99001" lon="4.87957">
        <ele>276</ele>
        <time>2016-08-29T14:50:12Z</time>
      </trkpt>
      <trkpt lat="45.99008" lon="4.8796">
        <ele>276</ele>
        <time>2016-08-29T14:50:14Z</time>
      </trkpt>
      <trkpt lat="45.99012" lon="4.87962">
        <ele>276</ele>
        <time>2016-08-29T14:50:15Z</time>
      </trkpt>
      <trkpt lat="45.99019" lon="4.87965">
        <ele>276</ele>
        <time>2016-08-29T14:50:17Z</time>
      </trkpt>
      <trkpt lat="45.99023" lon="4.87967">
        <ele>276</ele>
        <time>2016-08-29T14:50:18Z</time>
      </trkpt>
      <trkpt lat="45.99029" lon="4.8797">
        <ele>276</ele>
        <time>2016-08-29T14:50:20Z</time>
      </trkpt>
      <trkpt lat="45.99031" lon="4.87972">
        <ele>276</ele>
        <time>2016-08-29T14:50:21Z</time>
      </trkpt>
      <trkpt lat="45.99037" lon="4.87974">
        <ele>276</ele>
        <time>2016-08-29T14:50:23Z</time>
      </trkpt>
      <trkpt lat="45.9904" lon="4.87976">
        <ele>276</ele>
        <time>2016-08-29T14:50:24Z</time>
      </trkpt>
      <trkpt lat="45.99047" lon="4.8798">
        <ele>277</ele>
        <time>2016-08-29T14:50:26Z</time>
      </trkpt>
      <trkpt lat="45.9905" lon="4.87983">
        <ele>277</ele>
        <time>2016-08-29T14:50:27Z</time>
      </trkpt>
      <trkpt lat="45.99056" lon="4.87988">
        <ele>277</ele>
        <time>2016-08-29T14:50:29Z</time>
      </trkpt>
      <trkpt lat="45.9906" lon="4.87991">
        <ele>277</ele>
        <time>2016-08-29T14:50:30Z</time>
      </trkpt>
      <trkpt lat="45.99068" lon="4.87995">
        <ele>277</ele>
        <time>2016-08-29T14:50:32Z</time>
      </trkpt>
      <trkpt lat="45.99071" lon="4.87997">
        <ele>277</ele>
        <time>2016-08-29T14:50:33Z</time>
      </trkpt>
      <trkpt lat="45.99078" lon="4.88001">
        <ele>278</ele>
        <time>2016-08-29T14:50:35Z</time>
      </trkpt>
      <trkpt lat="45.99082" lon="4.88004">
        <ele>278</ele>
        <time>2016-08-29T14:50:36Z</time>
      </trkpt>
      <trkpt lat="45.99089" lon="4.88008">
        <ele>278</ele>
        <time>2016-08-29T14:50:38Z</time>
      </trkpt>
      <trkpt lat="45.99093" lon="4.8801">
        <ele>278</ele>
        <time>2016-08-29T14:50:39Z</time>
      </trkpt>
      <trkpt lat="45.991" lon="4.88014">
        <ele>278</ele>
        <time>2016-08-29T14:50:41Z</time>
      </trkpt>
      <trkpt lat="45.99104" lon="4.88016">
        <ele>278</ele>
        <time>2016-08-29T14:50:42Z</time>
      </trkpt>
      <trkpt lat="45.99112" lon="4.88021">
        <ele>278</ele>
        <time>2016-08-29T14:50:44Z</time>
      </trkpt>
      <trkpt lat="45.99116" lon="4.88023">
        <ele>278</ele>
        <time>2016-08-29T14:50:45Z</time>
      </trkpt>
      <trkpt lat="45.9912" lon="4.88026">
        <ele>278</ele>
        <time>2016-08-29T14:50:46Z</time>
      </trkpt>
      <trkpt lat="45.99125" lon="4.88028">
        <ele>278</ele>
        <time>2016-08-29T14:50:47Z</time>
      </trkpt>
      <trkpt lat="45.99129" lon="4.88031">
        <ele>279</ele>
        <time>2016-08-29T14:50:48Z</time>
      </trkpt>
      <trkpt lat="45.99133" lon="4.88034">
        <ele>279</ele>
        <time>2016-08-29T14:50:49Z</time>
      </trkpt>
      <trkpt lat="45.99141" lon="4.88038">
        <ele>279</ele>
        <time>2016-08-29T14:50:51Z</time>
      </trkpt>
      <trkpt lat="45.99145" lon="4.8804">
        <ele>279</ele>
        <time>2016-08-29T14:50:52Z</time>
      </trkpt>
      <trkpt lat="45.99152" lon="4.88045">
        <ele>279</ele>
        <time>2016-08-29T14:50:54Z</time>
      </trkpt>
      <trkpt lat="45.99155" lon="4.88048">
        <ele>279</ele>
        <time>2016-08-29T14:50:55Z</time>
      </trkpt>
      <trkpt lat="45.99162" lon="4.88053">
        <ele>279</ele>
        <time>2016-08-29T14:50:57Z</time>
      </trkpt>
      <trkpt lat="45.99166" lon="4.88056">
        <ele>279</ele>
        <time>2016-08-29T14:50:58Z</time>
      </trkpt>
      <trkpt lat="45.99173" lon="4.88062">
        <ele>279</ele>
        <time>2016-08-29T14:51:00Z</time>
      </trkpt>
      <trkpt lat="45.99177" lon="4.88065">
        <ele>279</ele>
        <time>2016-08-29T14:51:01Z</time>
      </trkpt>
      <trkpt lat="45.99184" lon="4.88071">
        <ele>279</ele>
        <time>2016-08-29T14:51:03Z</time>
      </trkpt>
      <trkpt lat="45.99187" lon="4.88074">
        <ele>279</ele>
        <time>2016-08-29T14:51:04Z</time>
      </trkpt>
      <trkpt lat="45.99194" lon="4.8808">
        <ele>280</ele>
        <time>2016-08-29T14:51:06Z</time>
      </trkpt>
      <trkpt lat="45.99198" lon="4.88083">
        <ele>280</ele>
        <time>2016-08-29T14:51:07Z</time>
      </trkpt>
      <trkpt lat="45.99205" lon="4.88089">
        <ele>280</ele>
        <time>2016-08-29T14:51:09Z</time>
      </trkpt>
      <trkpt lat="45.99208" lon="4.88091">
        <ele>280</ele>
        <time>2016-08-29T14:51:10Z</time>
      </trkpt>
      <trkpt lat="45.99215" lon="4.88098">
        <ele>280</ele>
        <time>2016-08-29T14:51:12Z</time>
      </trkpt>
      <trkpt lat="45.99219" lon="4.88101">
        <ele>280</ele>
        <time>2016-08-29T14:51:13Z</time>
      </trkpt>
      <trkpt lat="45.99226" lon="4.88108">
        <ele>280</ele>
        <time>2016-08-29T14:51:15Z</time>
      </trkpt>
      <trkpt lat="45.99229" lon="4.88111">
        <ele>280</ele>
        <time>2016-08-29T14:51:16Z</time>
      </trkpt>
      <trkpt lat="45.99237" lon="4.88118">
        <ele>280</ele>
        <time>2016-08-29T14:51:18Z</time>
      </trkpt>
      <trkpt lat="45.99241" lon="4.88121">
        <ele>280</ele>
        <time>2016-08-29T14:51:19Z</time>
      </trkpt>
      <trkpt lat="45.99248" lon="4.88127">
        <ele>280</ele>
        <time>2016-08-29T14:51:21Z</time>
      </trkpt>
      <trkpt lat="45.99251" lon="4.88131">
        <ele>283</ele>
        <time>2016-08-29T14:51:22Z</time>
      </trkpt>
      <trkpt lat="45.99259" lon="4.88137">
        <ele>283</ele>
        <time>2016-08-29T14:51:24Z</time>
      </trkpt>
      <trkpt lat="45.99262" lon="4.88141">
        <ele>283</ele>
        <time>2016-08-29T14:51:25Z</time>
      </trkpt>
      <trkpt lat="45.9927" lon="4.88147">
        <ele>283</ele>
        <time>2016-08-29T14:51:27Z</time>
      </trkpt>
      <trkpt lat="45.99274" lon="4.88151">
        <ele>283</ele>
        <time>2016-08-29T14:51:28Z</time>
      </trkpt>
      <trkpt lat="45.99281" lon="4.88158">
        <ele>284</ele>
        <time>2016-08-29T14:51:30Z</time>
      </trkpt>
      <trkpt lat="45.99284" lon="4.88161">
        <ele>284</ele>
        <time>2016-08-29T14:51:31Z</time>
      </trkpt>
      <trkpt lat="45.99292" lon="4.88168">
        <ele>284</ele>
        <time>2016-08-29T14:51:33Z</time>
      </trkpt>
      <trkpt lat="45.99296" lon="4.88171">
        <ele>284</ele>
        <time>2016-08-29T14:51:34Z</time>
      </trkpt>
      <trkpt lat="45.99304" lon="4.88177">
        <ele>285</ele>
        <time>2016-08-29T14:51:36Z</time>
      </trkpt>
      <trkpt lat="45.99307" lon="4.8818">
        <ele>285</ele>
        <time>2016-08-29T14:51:37Z</time>
      </trkpt>
      <trkpt lat="45.99312" lon="4.88182">
        <ele>285</ele>
        <time>2016-08-29T14:51:38Z</time>
      </trkpt>
      <trkpt lat="45.99316" lon="4.88185">
        <ele>285</ele>
        <time>2016-08-29T14:51:39Z</time>
      </trkpt>
      <trkpt lat="45.9932" lon="4.88188">
        <ele>285</ele>
        <time>2016-08-29T14:51:40Z</time>
      </trkpt>
      <trkpt lat="45.99324" lon="4.88192">
        <ele>285</ele>
        <time>2016-08-29T14:51:41Z</time>
      </trkpt>
      <trkpt lat="45.99328" lon="4.88196">
        <ele>285</ele>
        <time>2016-08-29T14:51:42Z</time>
      </trkpt>
      <trkpt lat="45.99332" lon="4.882">
        <ele>285</ele>
        <time>2016-08-29T14:51:43Z</time>
      </trkpt>
      <trkpt lat="45.99335" lon="4.88204">
        <ele>288</ele>
        <time>2016-08-29T14:51:44Z</time>
      </trkpt>
      <trkpt lat="45.99339" lon="4.88208">
        <ele>287</ele>
        <time>2016-08-29T14:51:45Z</time>
      </trkpt>
      <trkpt lat="45.99347" lon="4.88215">
        <ele>287</ele>
        <time>2016-08-29T14:51:47Z</time>
      </trkpt>
      <trkpt lat="45.9935" lon="4.88218">
        <ele>287</ele>
        <time>2016-08-29T14:51:48Z</time>
      </trkpt>
      <trkpt lat="45.99357" lon="4.88225">
        <ele>287</ele>
        <time>2016-08-29T14:51:50Z</time>
      </trkpt>
      <trkpt lat="45.99361" lon="4.88229">
        <ele>287</ele>
        <time>2016-08-29T14:51:51Z</time>
      </trkpt>
      <trkpt lat="45.99365" lon="4.88233">
        <ele>287</ele>
        <time>2016-08-29T14:51:52Z</time>
      </trkpt>
      <trkpt lat="45.99369" lon="4.88238">
        <ele>287</ele>
        <time>2016-08-29T14:51:53Z</time>
      </trkpt>
      <trkpt lat="45.99372" lon="4.88242">
        <ele>287</ele>
        <time>2016-08-29T14:51:54Z</time>
      </trkpt>
      <trkpt lat="45.99375" lon="4.88247">
        <ele>287</ele>
        <time>2016-08-29T14:51:55Z</time>
      </trkpt>
      <trkpt lat="45.99378" lon="4.88252">
        <ele>285</ele>
        <time>2016-08-29T14:51:56Z</time>
      </trkpt>
      <trkpt lat="45.9938" lon="4.88258">
        <ele>285</ele>
        <time>2016-08-29T14:51:57Z</time>
      </trkpt>
      <trkpt lat="45.99385" lon="4.88269">
        <ele>285</ele>
        <time>2016-08-29T14:51:59Z</time>
      </trkpt>
      <trkpt lat="45.99387" lon="4.88275">
        <ele>284</ele>
        <time>2016-08-29T14:52:00Z</time>
      </trkpt>
      <trkpt lat="45.99389" lon="4.88281">
        <ele>284</ele>
        <time>2016-08-29T14:52:01Z</time>
      </trkpt>
      <trkpt lat="45.99392" lon="4.88286">
        <ele>284</ele>
        <time>2016-08-29T14:52:02Z</time>
      </trkpt>
      <trkpt lat="45.99397" lon="4.88295">
        <ele>284</ele>
        <time>2016-08-29T14:52:04Z</time>
      </trkpt>
      <trkpt lat="45.99399" lon="4.883">
        <ele>284</ele>
        <time>2016-08-29T14:52:05Z</time>
      </trkpt>
      <trkpt lat="45.99401" lon="4.88306">
        <ele>284</ele>
        <time>2016-08-29T14:52:06Z</time>
      </trkpt>
      <trkpt lat="45.99403" lon="4.88312">
        <ele>283</ele>
        <time>2016-08-29T14:52:07Z</time>
      </trkpt>
      <trkpt lat="45.99406" lon="4.88318">
        <ele>283</ele>
        <time>2016-08-29T14:52:08Z</time>
      </trkpt>
      <trkpt lat="45.99408" lon="4.88323">
        <ele>283</ele>
        <time>2016-08-29T14:52:09Z</time>
      </trkpt>
      <trkpt lat="45.99413" lon="4.88334">
        <ele>282</ele>
        <time>2016-08-29T14:52:11Z</time>
      </trkpt>
      <trkpt lat="45.99414" lon="4.8834">
        <ele>282</ele>
        <time>2016-08-29T14:52:12Z</time>
      </trkpt>
      <trkpt lat="45.99418" lon="4.88351">
        <ele>282</ele>
        <time>2016-08-29T14:52:14Z</time>
      </trkpt>
      <trkpt lat="45.9942" lon="4.88356">
        <ele>283</ele>
        <time>2016-08-29T14:52:15Z</time>
      </trkpt>
      <trkpt lat="45.99423" lon="4.88362">
        <ele>283</ele>
        <time>2016-08-29T14:52:16Z</time>
      </trkpt>
      <trkpt lat="45.99425" lon="4.88368">
        <ele>283</ele>
        <time>2016-08-29T14:52:17Z</time>
      </trkpt>
      <trkpt lat="45.99427" lon="4.88374">
        <ele>283</ele>
        <time>2016-08-29T14:52:18Z</time>
      </trkpt>
      <trkpt lat="45.9943" lon="4.88379">
        <ele>283</ele>
        <time>2016-08-29T14:52:19Z</time>
      </trkpt>
      <trkpt lat="45.99433" lon="4.88385">
        <ele>283</ele>
        <time>2016-08-29T14:52:20Z</time>
      </trkpt>
      <trkpt lat="45.99436" lon="4.8839">
        <ele>283</ele>
        <time>2016-08-29T14:52:21Z</time>
      </trkpt>
      <trkpt lat="45.9944" lon="4.88395">
        <ele>283</ele>
        <time>2016-08-29T14:52:22Z</time>
      </trkpt>
      <trkpt lat="45.99443" lon="4.884">
        <ele>283</ele>
        <time>2016-08-29T14:52:23Z</time>
      </trkpt>
      <trkpt lat="45.99447" lon="4.88405">
        <ele>283</ele>
        <time>2016-08-29T14:52:24Z</time>
      </trkpt>
      <trkpt lat="45.99451" lon="4.8841">
        <ele>283</ele>
        <time>2016-08-29T14:52:25Z</time>
      </trkpt>
      <trkpt lat="45.99455" lon="4.88413">
        <ele>283</ele>
        <time>2016-08-29T14:52:26Z</time>
      </trkpt>
      <trkpt lat="45.99459" lon="4.88417">
        <ele>284</ele>
        <time>2016-08-29T14:52:27Z</time>
      </trkpt>
      <trkpt lat="45.99463" lon="4.88421">
        <ele>284</ele>
        <time>2016-08-29T14:52:28Z</time>
      </trkpt>
      <trkpt lat="45.99467" lon="4.88425">
        <ele>284</ele>
        <time>2016-08-29T14:52:29Z</time>
      </trkpt>
      <trkpt lat="45.99471" lon="4.88429">
        <ele>284</ele>
        <time>2016-08-29T14:52:30Z</time>
      </trkpt>
      <trkpt lat="45.99475" lon="4.88434">
        <ele>284</ele>
        <time>2016-08-29T14:52:31Z</time>
      </trkpt>
      <trkpt lat="45.99479" lon="4.88439">
        <ele>284</ele>
        <time>2016-08-29T14:52:32Z</time>
      </trkpt>
      <trkpt lat="45.99483" lon="4.88444">
        <ele>284</ele>
        <time>2016-08-29T14:52:33Z</time>
      </trkpt>
      <trkpt lat="45.99486" lon="4.8845">
        <ele>284</ele>
        <time>2016-08-29T14:52:34Z</time>
      </trkpt>
      <trkpt lat="45.99489" lon="4.88455">
        <ele>284</ele>
        <time>2016-08-29T14:52:35Z</time>
      </trkpt>
      <trkpt lat="45.99492" lon="4.88461">
        <ele>284</ele>
        <time>2016-08-29T14:52:36Z</time>
      </trkpt>
      <trkpt lat="45.99495" lon="4.88466">
        <ele>284</ele>
        <time>2016-08-29T14:52:37Z</time>
      </trkpt>
      <trkpt lat="45.99498" lon="4.88472">
        <ele>284</ele>
        <time>2016-08-29T14:52:38Z</time>
      </trkpt>
      <trkpt lat="45.995" lon="4.88477">
        <ele>284</ele>
        <time>2016-08-29T14:52:39Z</time>
      </trkpt>
      <trkpt lat="45.99503" lon="4.88482">
        <ele>284</ele>
        <time>2016-08-29T14:52:40Z</time>
      </trkpt>
      <trkpt lat="45.99506" lon="4.88487">
        <ele>284</ele>
        <time>2016-08-29T14:52:41Z</time>
      </trkpt>
      <trkpt lat="45.99509" lon="4.88493">
        <ele>284</ele>
        <time>2016-08-29T14:52:42Z</time>
      </trkpt>
      <trkpt lat="45.99512" lon="4.88498">
        <ele>284</ele>
        <time>2016-08-29T14:52:43Z</time>
      </trkpt>
      <trkpt lat="45.99515" lon="4.88503">
        <ele>285</ele>
        <time>2016-08-29T14:52:44Z</time>
      </trkpt>
      <trkpt lat="45.99517" lon="4.88508">
        <ele>285</ele>
        <time>2016-08-29T14:52:45Z</time>
      </trkpt>
      <trkpt lat="45.9952" lon="4.88514">
        <ele>285</ele>
        <time>2016-08-29T14:52:46Z</time>
      </trkpt>
      <trkpt lat="45.99523" lon="4.88519">
        <ele>285</ele>
        <time>2016-08-29T14:52:47Z</time>
      </trkpt>
      <trkpt lat="45.99526" lon="4.88525">
        <ele>285</ele>
        <time>2016-08-29T14:52:48Z</time>
      </trkpt>
      <trkpt lat="45.99528" lon="4.8853">
        <ele>285</ele>
        <time>2016-08-29T14:52:49Z</time>
      </trkpt>
      <trkpt lat="45.99531" lon="4.88536">
        <ele>285</ele>
        <time>2016-08-29T14:52:50Z</time>
      </trkpt>
      <trkpt lat="45.99533" lon="4.88542">
        <ele>285</ele>
        <time>2016-08-29T14:52:51Z</time>
      </trkpt>
      <trkpt lat="45.99536" lon="4.88548">
        <ele>285</ele>
        <time>2016-08-29T14:52:52Z</time>
      </trkpt>
      <trkpt lat="45.99538" lon="4.88555">
        <ele>285</ele>
        <time>2016-08-29T14:52:53Z</time>
      </trkpt>
      <trkpt lat="45.99541" lon="4.88561">
        <ele>285</ele>
        <time>2016-08-29T14:52:54Z</time>
      </trkpt>
      <trkpt lat="45.99543" lon="4.88568">
        <ele>285</ele>
        <time>2016-08-29T14:52:55Z</time>
      </trkpt>
      <trkpt lat="45.99544" lon="4.88575">
        <ele>286</ele>
        <time>2016-08-29T14:52:56Z</time>
      </trkpt>
      <trkpt lat="45.99546" lon="4.88581">
        <ele>286</ele>
        <time>2016-08-29T14:52:57Z</time>
      </trkpt>
      <trkpt lat="45.99548" lon="4.88588">
        <ele>286</ele>
        <time>2016-08-29T14:52:58Z</time>
      </trkpt>
      <trkpt lat="45.99549" lon="4.88595">
        <ele>286</ele>
        <time>2016-08-29T14:52:59Z</time>
      </trkpt>
      <trkpt lat="45.9955" lon="4.88602">
        <ele>286</ele>
        <time>2016-08-29T14:53:00Z</time>
      </trkpt>
      <trkpt lat="45.99551" lon="4.88609">
        <ele>286</ele>
        <time>2016-08-29T14:53:01Z</time>
      </trkpt>
      <trkpt lat="45.99551" lon="4.88616">
        <ele>286</ele>
        <time>2016-08-29T14:53:02Z</time>
      </trkpt>
      <trkpt lat="45.99552" lon="4.88623">
        <ele>286</ele>
        <time>2016-08-29T14:53:03Z</time>
      </trkpt>
      <trkpt lat="45.99553" lon="4.8863">
        <ele>286</ele>
        <time>2016-08-29T14:53:04Z</time>
      </trkpt>
      <trkpt lat="45.99554" lon="4.88636">
        <ele>286</ele>
        <time>2016-08-29T14:53:05Z</time>
      </trkpt>
      <trkpt lat="45.99554" lon="4.88643">
        <ele>286</ele>
        <time>2016-08-29T14:53:06Z</time>
      </trkpt>
      <trkpt lat="45.99555" lon="4.88649">
        <ele>286</ele>
        <time>2016-08-29T14:53:07Z</time>
      </trkpt>
      <trkpt lat="45.99556" lon="4.88656">
        <ele>286</ele>
        <time>2016-08-29T14:53:08Z</time>
      </trkpt>
      <trkpt lat="45.99557" lon="4.88663">
        <ele>286</ele>
        <time>2016-08-29T14:53:09Z</time>
      </trkpt>
      <trkpt lat="45.99557" lon="4.8867">
        <ele>286</ele>
        <time>2016-08-29T14:53:10Z</time>
      </trkpt>
      <trkpt lat="45.99558" lon="4.88676">
        <ele>286</ele>
        <time>2016-08-29T14:53:11Z</time>
      </trkpt>
      <trkpt lat="45.99558" lon="4.88683">
        <ele>286</ele>
        <time>2016-08-29T14:53:12Z</time>
      </trkpt>
      <trkpt lat="45.99559" lon="4.8869">
        <ele>286</ele>
        <time>2016-08-29T14:53:13Z</time>
      </trkpt>
      <trkpt lat="45.9956" lon="4.88698">
        <ele>286</ele>
        <time>2016-08-29T14:53:14Z</time>
      </trkpt>
      <trkpt lat="45.99561" lon="4.88705">
        <ele>286</ele>
        <time>2016-08-29T14:53:15Z</time>
      </trkpt>
      <trkpt lat="45.99561" lon="4.88712">
        <ele>286</ele>
        <time>2016-08-29T14:53:16Z</time>
      </trkpt>
      <trkpt lat="45.99562" lon="4.88719">
        <ele>286</ele>
        <time>2016-08-29T14:53:17Z</time>
      </trkpt>
      <trkpt lat="45.99562" lon="4.88726">
        <ele>286</ele>
        <time>2016-08-29T14:53:18Z</time>
      </trkpt>
      <trkpt lat="45.99563" lon="4.88733">
        <ele>287</ele>
        <time>2016-08-29T14:53:19Z</time>
      </trkpt>
      <trkpt lat="45.99563" lon="4.8874">
        <ele>287</ele>
        <time>2016-08-29T14:53:20Z</time>
      </trkpt>
      <trkpt lat="45.99562" lon="4.88746">
        <ele>287</ele>
        <time>2016-08-29T14:53:21Z</time>
      </trkpt>
      <trkpt lat="45.99563" lon="4.88753">
        <ele>287</ele>
        <time>2016-08-29T14:53:22Z</time>
      </trkpt>
      <trkpt lat="45.99564" lon="4.8876">
        <ele>287</ele>
        <time>2016-08-29T14:53:23Z</time>
      </trkpt>
      <trkpt lat="45.99564" lon="4.88766">
        <ele>287</ele>
        <time>2016-08-29T14:53:24Z</time>
      </trkpt>
      <trkpt lat="45.99565" lon="4.88773">
        <ele>287</ele>
        <time>2016-08-29T14:53:25Z</time>
      </trkpt>
      <trkpt lat="45.99566" lon="4.8878">
        <ele>287</ele>
        <time>2016-08-29T14:53:26Z</time>
      </trkpt>
      <trkpt lat="45.99567" lon="4.88787">
        <ele>287</ele>
        <time>2016-08-29T14:53:27Z</time>
      </trkpt>
      <trkpt lat="45.99567" lon="4.88793">
        <ele>287</ele>
        <time>2016-08-29T14:53:28Z</time>
      </trkpt>
      <trkpt lat="45.99568" lon="4.888">
        <ele>287</ele>
        <time>2016-08-29T14:53:29Z</time>
      </trkpt>
      <trkpt lat="45.99569" lon="4.88807">
        <ele>287</ele>
        <time>2016-08-29T14:53:30Z</time>
      </trkpt>
      <trkpt lat="45.99569" lon="4.88814">
        <ele>287</ele>
        <time>2016-08-29T14:53:31Z</time>
      </trkpt>
      <trkpt lat="45.9957" lon="4.8882">
        <ele>287</ele>
        <time>2016-08-29T14:53:32Z</time>
      </trkpt>
      <trkpt lat="45.99571" lon="4.88827">
        <ele>287</ele>
        <time>2016-08-29T14:53:33Z</time>
      </trkpt>
      <trkpt lat="45.99572" lon="4.88835">
        <ele>287</ele>
        <time>2016-08-29T14:53:34Z</time>
      </trkpt>
      <trkpt lat="45.99573" lon="4.88842">
        <ele>287</ele>
        <time>2016-08-29T14:53:35Z</time>
      </trkpt>
      <trkpt lat="45.99574" lon="4.8885">
        <ele>287</ele>
        <time>2016-08-29T14:53:36Z</time>
      </trkpt>
      <trkpt lat="45.99575" lon="4.88858">
        <ele>287</ele>
        <time>2016-08-29T14:53:37Z</time>
      </trkpt>
      <trkpt lat="45.99576" lon="4.88865">
        <ele>287</ele>
        <time>2016-08-29T14:53:38Z</time>
      </trkpt>
      <trkpt lat="45.99576" lon="4.88872">
        <ele>287</ele>
        <time>2016-08-29T14:53:39Z</time>
      </trkpt>
      <trkpt lat="45.99577" lon="4.88879">
        <ele>287</ele>
        <time>2016-08-29T14:53:40Z</time>
      </trkpt>
      <trkpt lat="45.99578" lon="4.88886">
        <ele>287</ele>
        <time>2016-08-29T14:53:41Z</time>
      </trkpt>
      <trkpt lat="45.99578" lon="4.88893">
        <ele>287</ele>
        <time>2016-08-29T14:53:42Z</time>
      </trkpt>
      <trkpt lat="45.99579" lon="4.88899">
        <ele>287</ele>
        <time>2016-08-29T14:53:43Z</time>
      </trkpt>
      <trkpt lat="45.99579" lon="4.88906">
        <ele>287</ele>
        <time>2016-08-29T14:53:44Z</time>
      </trkpt>
      <trkpt lat="45.9958" lon="4.88913">
        <ele>287</ele>
        <time>2016-08-29T14:53:45Z</time>
      </trkpt>
      <trkpt lat="45.9958" lon="4.88921">
        <ele>287</ele>
        <time>2016-08-29T14:53:46Z</time>
      </trkpt>
      <trkpt lat="45.99581" lon="4.88928">
        <ele>287</ele>
        <time>2016-08-29T14:53:47Z</time>
      </trkpt>
      <trkpt lat="45.99581" lon="4.88935">
        <ele>287</ele>
        <time>2016-08-29T14:53:48Z</time>
      </trkpt>
      <trkpt lat="45.99582" lon="4.88943">
        <ele>287</ele>
        <time>2016-08-29T14:53:49Z</time>
      </trkpt>
      <trkpt lat="45.99582" lon="4.88951">
        <ele>287</ele>
        <time>2016-08-29T14:53:50Z</time>
      </trkpt>
      <trkpt lat="45.99583" lon="4.88958">
        <ele>287</ele>
        <time>2016-08-29T14:53:51Z</time>
      </trkpt>
      <trkpt lat="45.99583" lon="4.88966">
        <ele>287</ele>
        <time>2016-08-29T14:53:52Z</time>
      </trkpt>
      <trkpt lat="45.99583" lon="4.88973">
        <ele>287</ele>
        <time>2016-08-29T14:53:53Z</time>
      </trkpt>
      <trkpt lat="45.99584" lon="4.8898">
        <ele>288</ele>
        <time>2016-08-29T14:53:54Z</time>
      </trkpt>
      <trkpt lat="45.99584" lon="4.88987">
        <ele>288</ele>
        <time>2016-08-29T14:53:55Z</time>
      </trkpt>
      <trkpt lat="45.99584" lon="4.88994">
        <ele>288</ele>
        <time>2016-08-29T14:53:56Z</time>
      </trkpt>
      <trkpt lat="45.99584" lon="4.89">
        <ele>288</ele>
        <time>2016-08-29T14:53:57Z</time>
      </trkpt>
      <trkpt lat="45.99584" lon="4.89007">
        <ele>288</ele>
        <time>2016-08-29T14:53:58Z</time>
      </trkpt>
      <trkpt lat="45.99584" lon="4.89014">
        <ele>288</ele>
        <time>2016-08-29T14:53:59Z</time>
      </trkpt>
      <trkpt lat="45.99583" lon="4.89021">
        <ele>288</ele>
        <time>2016-08-29T14:54:00Z</time>
      </trkpt>
      <trkpt lat="45.99582" lon="4.89028">
        <ele>288</ele>
        <time>2016-08-29T14:54:01Z</time>
      </trkpt>
      <trkpt lat="45.99582" lon="4.89035">
        <ele>288</ele>
        <time>2016-08-29T14:54:02Z</time>
      </trkpt>
      <trkpt lat="45.99581" lon="4.89042">
        <ele>288</ele>
        <time>2016-08-29T14:54:03Z</time>
      </trkpt>
      <trkpt lat="45.9958" lon="4.89049">
        <ele>288</ele>
        <time>2016-08-29T14:54:04Z</time>
      </trkpt>
      <trkpt lat="45.99579" lon="4.89057">
        <ele>289</ele>
        <time>2016-08-29T14:54:05Z</time>
      </trkpt>
      <trkpt lat="45.99579" lon="4.89065">
        <ele>289</ele>
        <time>2016-08-29T14:54:06Z</time>
      </trkpt>
      <trkpt lat="45.99579" lon="4.89072">
        <ele>289</ele>
        <time>2016-08-29T14:54:07Z</time>
      </trkpt>
      <trkpt lat="45.99578" lon="4.89081">
        <ele>289</ele>
        <time>2016-08-29T14:54:08Z</time>
      </trkpt>
      <trkpt lat="45.99578" lon="4.89088">
        <ele>289</ele>
        <time>2016-08-29T14:54:09Z</time>
      </trkpt>
      <trkpt lat="45.99578" lon="4.89096">
        <ele>289</ele>
        <time>2016-08-29T14:54:10Z</time>
      </trkpt>
      <trkpt lat="45.99578" lon="4.89103">
        <ele>289</ele>
        <time>2016-08-29T14:54:11Z</time>
      </trkpt>
      <trkpt lat="45.99577" lon="4.8911">
        <ele>289</ele>
        <time>2016-08-29T14:54:12Z</time>
      </trkpt>
      <trkpt lat="45.99577" lon="4.89117">
        <ele>289</ele>
        <time>2016-08-29T14:54:13Z</time>
      </trkpt>
      <trkpt lat="45.99577" lon="4.89124">
        <ele>289</ele>
        <time>2016-08-29T14:54:14Z</time>
      </trkpt>
      <trkpt lat="45.99577" lon="4.89131">
        <ele>289</ele>
        <time>2016-08-29T14:54:15Z</time>
      </trkpt>
      <trkpt lat="45.99577" lon="4.89139">
        <ele>289</ele>
        <time>2016-08-29T14:54:16Z</time>
      </trkpt>
      <trkpt lat="45.99577" lon="4.89147">
        <ele>289</ele>
        <time>2016-08-29T14:54:17Z</time>
      </trkpt>
      <trkpt lat="45.99577" lon="4.89154">
        <ele>288</ele>
        <time>2016-08-29T14:54:18Z</time>
      </trkpt>
      <trkpt lat="45.99577" lon="4.89162">
        <ele>288</ele>
        <time>2016-08-29T14:54:19Z</time>
      </trkpt>
      <trkpt lat="45.99578" lon="4.89169">
        <ele>288</ele>
        <time>2016-08-29T14:54:20Z</time>
      </trkpt>
      <trkpt lat="45.99579" lon="4.89177">
        <ele>288</ele>
        <time>2016-08-29T14:54:21Z</time>
      </trkpt>
      <trkpt lat="45.99579" lon="4.89183">
        <ele>288</ele>
        <time>2016-08-29T14:54:22Z</time>
      </trkpt>
      <trkpt lat="45.99579" lon="4.89191">
        <ele>288</ele>
        <time>2016-08-29T14:54:23Z</time>
      </trkpt>
      <trkpt lat="45.9958" lon="4.89198">
        <ele>288</ele>
        <time>2016-08-29T14:54:24Z</time>
      </trkpt>
      <trkpt lat="45.9958" lon="4.89205">
        <ele>288</ele>
        <time>2016-08-29T14:54:25Z</time>
      </trkpt>
      <trkpt lat="45.99581" lon="4.89212">
        <ele>288</ele>
        <time>2016-08-29T14:54:26Z</time>
      </trkpt>
      <trkpt lat="45.99581" lon="4.89219">
        <ele>288</ele>
        <time>2016-08-29T14:54:27Z</time>
      </trkpt>
      <trkpt lat="45.99582" lon="4.89226">
        <ele>288</ele>
        <time>2016-08-29T14:54:28Z</time>
      </trkpt>
      <trkpt lat="45.99582" lon="4.89234">
        <ele>288</ele>
        <time>2016-08-29T14:54:29Z</time>
      </trkpt>
      <trkpt lat="45.99583" lon="4.89242">
        <ele>288</ele>
        <time>2016-08-29T14:54:30Z</time>
      </trkpt>
      <trkpt lat="45.99583" lon="4.89249">
        <ele>288</ele>
        <time>2016-08-29T14:54:31Z</time>
      </trkpt>
      <trkpt lat="45.99584" lon="4.89257">
        <ele>288</ele>
        <time>2016-08-29T14:54:32Z</time>
      </trkpt>
      <trkpt lat="45.99584" lon="4.89264">
        <ele>288</ele>
        <time>2016-08-29T14:54:33Z</time>
      </trkpt>
      <trkpt lat="45.99584" lon="4.89271">
        <ele>288</ele>
        <time>2016-08-29T14:54:34Z</time>
      </trkpt>
      <trkpt lat="45.99585" lon="4.89279">
        <ele>289</ele>
        <time>2016-08-29T14:54:35Z</time>
      </trkpt>
      <trkpt lat="45.99585" lon="4.89286">
        <ele>289</ele>
        <time>2016-08-29T14:54:36Z</time>
      </trkpt>
      <trkpt lat="45.99585" lon="4.89292">
        <ele>289</ele>
        <time>2016-08-29T14:54:37Z</time>
      </trkpt>
      <trkpt lat="45.99586" lon="4.893">
        <ele>289</ele>
        <time>2016-08-29T14:54:38Z</time>
      </trkpt>
      <trkpt lat="45.99586" lon="4.89307">
        <ele>289</ele>
        <time>2016-08-29T14:54:39Z</time>
      </trkpt>
      <trkpt lat="45.99587" lon="4.89315">
        <ele>289</ele>
        <time>2016-08-29T14:54:40Z</time>
      </trkpt>
      <trkpt lat="45.99587" lon="4.89322">
        <ele>289</ele>
        <time>2016-08-29T14:54:41Z</time>
      </trkpt>
      <trkpt lat="45.99588" lon="4.89329">
        <ele>289</ele>
        <time>2016-08-29T14:54:42Z</time>
      </trkpt>
      <trkpt lat="45.99588" lon="4.89336">
        <ele>289</ele>
        <time>2016-08-29T14:54:43Z</time>
      </trkpt>
      <trkpt lat="45.99589" lon="4.89343">
        <ele>289</ele>
        <time>2016-08-29T14:54:44Z</time>
      </trkpt>
      <trkpt lat="45.9959" lon="4.8935">
        <ele>289</ele>
        <time>2016-08-29T14:54:45Z</time>
      </trkpt>
      <trkpt lat="45.9959" lon="4.89363">
        <ele>289</ele>
        <time>2016-08-29T14:54:47Z</time>
      </trkpt>
      <trkpt lat="45.99591" lon="4.89369">
        <ele>289</ele>
        <time>2016-08-29T14:54:48Z</time>
      </trkpt>
      <trkpt lat="45.99591" lon="4.89376">
        <ele>290</ele>
        <time>2016-08-29T14:54:49Z</time>
      </trkpt>
      <trkpt lat="45.99591" lon="4.89382">
        <ele>290</ele>
        <time>2016-08-29T14:54:50Z</time>
      </trkpt>
      <trkpt lat="45.99591" lon="4.89389">
        <ele>290</ele>
        <time>2016-08-29T14:54:51Z</time>
      </trkpt>
      <trkpt lat="45.99591" lon="4.89396">
        <ele>290</ele>
        <time>2016-08-29T14:54:52Z</time>
      </trkpt>
      <trkpt lat="45.99592" lon="4.89403">
        <ele>290</ele>
        <time>2016-08-29T14:54:53Z</time>
      </trkpt>
      <trkpt lat="45.99592" lon="4.8941">
        <ele>290</ele>
        <time>2016-08-29T14:54:54Z</time>
      </trkpt>
      <trkpt lat="45.99592" lon="4.89417">
        <ele>290</ele>
        <time>2016-08-29T14:54:55Z</time>
      </trkpt>
      <trkpt lat="45.99593" lon="4.89424">
        <ele>290</ele>
        <time>2016-08-29T14:54:56Z</time>
      </trkpt>
      <trkpt lat="45.99593" lon="4.89431">
        <ele>290</ele>
        <time>2016-08-29T14:54:57Z</time>
      </trkpt>
      <trkpt lat="45.99594" lon="4.89439">
        <ele>290</ele>
        <time>2016-08-29T14:54:58Z</time>
      </trkpt>
      <trkpt lat="45.99594" lon="4.89446">
        <ele>290</ele>
        <time>2016-08-29T14:54:59Z</time>
      </trkpt>
      <trkpt lat="45.99594" lon="4.89453">
        <ele>290</ele>
        <time>2016-08-29T14:55:00Z</time>
      </trkpt>
      <trkpt lat="45.99595" lon="4.8946">
        <ele>290</ele>
        <time>2016-08-29T14:55:01Z</time>
      </trkpt>
      <trkpt lat="45.99595" lon="4.89468">
        <ele>290</ele>
        <time>2016-08-29T14:55:02Z</time>
      </trkpt>
      <trkpt lat="45.99595" lon="4.89475">
        <ele>290</ele>
        <time>2016-08-29T14:55:03Z</time>
      </trkpt>
      <trkpt lat="45.99596" lon="4.89482">
        <ele>290</ele>
        <time>2016-08-29T14:55:04Z</time>
      </trkpt>
      <trkpt lat="45.99596" lon="4.89489">
        <ele>290</ele>
        <time>2016-08-29T14:55:05Z</time>
      </trkpt>
      <trkpt lat="45.99597" lon="4.89496">
        <ele>290</ele>
        <time>2016-08-29T14:55:06Z</time>
      </trkpt>
      <trkpt lat="45.99597" lon="4.89503">
        <ele>290</ele>
        <time>2016-08-29T14:55:07Z</time>
      </trkpt>
      <trkpt lat="45.99597" lon="4.8951">
        <ele>290</ele>
        <time>2016-08-29T14:55:08Z</time>
      </trkpt>
      <trkpt lat="45.99598" lon="4.89518">
        <ele>290</ele>
        <time>2016-08-29T14:55:09Z</time>
      </trkpt>
      <trkpt lat="45.99598" lon="4.89526">
        <ele>291</ele>
        <time>2016-08-29T14:55:10Z</time>
      </trkpt>
      <trkpt lat="45.99598" lon="4.89534">
        <ele>291</ele>
        <time>2016-08-29T14:55:11Z</time>
      </trkpt>
      <trkpt lat="45.99599" lon="4.89541">
        <ele>291</ele>
        <time>2016-08-29T14:55:12Z</time>
      </trkpt>
      <trkpt lat="45.99599" lon="4.89548">
        <ele>291</ele>
        <time>2016-08-29T14:55:13Z</time>
      </trkpt>
      <trkpt lat="45.996" lon="4.89555">
        <ele>291</ele>
        <time>2016-08-29T14:55:14Z</time>
      </trkpt>
      <trkpt lat="45.996" lon="4.89562">
        <ele>291</ele>
        <time>2016-08-29T14:55:15Z</time>
      </trkpt>
      <trkpt lat="45.99601" lon="4.89569">
        <ele>291</ele>
        <time>2016-08-29T14:55:16Z</time>
      </trkpt>
      <trkpt lat="45.99601" lon="4.89575">
        <ele>291</ele>
        <time>2016-08-29T14:55:17Z</time>
      </trkpt>
      <trkpt lat="45.99602" lon="4.89582">
        <ele>291</ele>
        <time>2016-08-29T14:55:18Z</time>
      </trkpt>
      <trkpt lat="45.99602" lon="4.89588">
        <ele>292</ele>
        <time>2016-08-29T14:55:19Z</time>
      </trkpt>
      <trkpt lat="45.99603" lon="4.89595">
        <ele>292</ele>
        <time>2016-08-29T14:55:20Z</time>
      </trkpt>
      <trkpt lat="45.99603" lon="4.89602">
        <ele>292</ele>
        <time>2016-08-29T14:55:21Z</time>
      </trkpt>
      <trkpt lat="45.99604" lon="4.8961">
        <ele>291</ele>
        <time>2016-08-29T14:55:22Z</time>
      </trkpt>
      <trkpt lat="45.99604" lon="4.89617">
        <ele>291</ele>
        <time>2016-08-29T14:55:23Z</time>
      </trkpt>
      <trkpt lat="45.99605" lon="4.89624">
        <ele>291</ele>
        <time>2016-08-29T14:55:24Z</time>
      </trkpt>
      <trkpt lat="45.99604" lon="4.89631">
        <ele>291</ele>
        <time>2016-08-29T14:55:25Z</time>
      </trkpt>
      <trkpt lat="45.99605" lon="4.89638">
        <ele>291</ele>
        <time>2016-08-29T14:55:26Z</time>
      </trkpt>
      <trkpt lat="45.99605" lon="4.89645">
        <ele>291</ele>
        <time>2016-08-29T14:55:27Z</time>
      </trkpt>
      <trkpt lat="45.99605" lon="4.89652">
        <ele>291</ele>
        <time>2016-08-29T14:55:28Z</time>
      </trkpt>
      <trkpt lat="45.99605" lon="4.89659">
        <ele>291</ele>
        <time>2016-08-29T14:55:29Z</time>
      </trkpt>
      <trkpt lat="45.99605" lon="4.89665">
        <ele>291</ele>
        <time>2016-08-29T14:55:30Z</time>
      </trkpt>
      <trkpt lat="45.99605" lon="4.89672">
        <ele>292</ele>
        <time>2016-08-29T14:55:31Z</time>
      </trkpt>
      <trkpt lat="45.99605" lon="4.89679">
        <ele>292</ele>
        <time>2016-08-29T14:55:32Z</time>
      </trkpt>
      <trkpt lat="45.99605" lon="4.89686">
        <ele>291</ele>
        <time>2016-08-29T14:55:33Z</time>
      </trkpt>
      <trkpt lat="45.99605" lon="4.89692">
        <ele>291</ele>
        <time>2016-08-29T14:55:34Z</time>
      </trkpt>
      <trkpt lat="45.99605" lon="4.89699">
        <ele>291</ele>
        <time>2016-08-29T14:55:35Z</time>
      </trkpt>
      <trkpt lat="45.99605" lon="4.89705">
        <ele>292</ele>
        <time>2016-08-29T14:55:36Z</time>
      </trkpt>
      <trkpt lat="45.99604" lon="4.89713">
        <ele>292</ele>
        <time>2016-08-29T14:55:37Z</time>
      </trkpt>
      <trkpt lat="45.99604" lon="4.89719">
        <ele>292</ele>
        <time>2016-08-29T14:55:38Z</time>
      </trkpt>
      <trkpt lat="45.99604" lon="4.89725">
        <ele>292</ele>
        <time>2016-08-29T14:55:39Z</time>
      </trkpt>
      <trkpt lat="45.99603" lon="4.89732">
        <ele>292</ele>
        <time>2016-08-29T14:55:40Z</time>
      </trkpt>
      <trkpt lat="45.99603" lon="4.89739">
        <ele>292</ele>
        <time>2016-08-29T14:55:41Z</time>
      </trkpt>
      <trkpt lat="45.99603" lon="4.89746">
        <ele>292</ele>
        <time>2016-08-29T14:55:42Z</time>
      </trkpt>
      <trkpt lat="45.99602" lon="4.89758">
        <ele>292</ele>
        <time>2016-08-29T14:55:44Z</time>
      </trkpt>
      <trkpt lat="45.99602" lon="4.89764">
        <ele>292</ele>
        <time>2016-08-29T14:55:45Z</time>
      </trkpt>
      <trkpt lat="45.99602" lon="4.89771">
        <ele>292</ele>
        <time>2016-08-29T14:55:46Z</time>
      </trkpt>
      <trkpt lat="45.99602" lon="4.89778">
        <ele>292</ele>
        <time>2016-08-29T14:55:47Z</time>
      </trkpt>
      <trkpt lat="45.99602" lon="4.89786">
        <ele>292</ele>
        <time>2016-08-29T14:55:48Z</time>
      </trkpt>
      <trkpt lat="45.99601" lon="4.89794">
        <ele>292</ele>
        <time>2016-08-29T14:55:49Z</time>
      </trkpt>
      <trkpt lat="45.99601" lon="4.89801">
        <ele>292</ele>
        <time>2016-08-29T14:55:50Z</time>
      </trkpt>
      <trkpt lat="45.99601" lon="4.89807">
        <ele>292</ele>
        <time>2016-08-29T14:55:51Z</time>
      </trkpt>
      <trkpt lat="45.99601" lon="4.89818">
        <ele>292</ele>
        <time>2016-08-29T14:55:53Z</time>
      </trkpt>
      <trkpt lat="45.99601" lon="4.89825">
        <ele>292</ele>
        <time>2016-08-29T14:55:54Z</time>
      </trkpt>
      <trkpt lat="45.99601" lon="4.89833">
        <ele>293</ele>
        <time>2016-08-29T14:55:55Z</time>
      </trkpt>
      <trkpt lat="45.996" lon="4.8984">
        <ele>293</ele>
        <time>2016-08-29T14:55:56Z</time>
      </trkpt>
      <trkpt lat="45.996" lon="4.89848">
        <ele>293</ele>
        <time>2016-08-29T14:55:57Z</time>
      </trkpt>
      <trkpt lat="45.996" lon="4.89856">
        <ele>293</ele>
        <time>2016-08-29T14:55:58Z</time>
      </trkpt>
      <trkpt lat="45.99599" lon="4.89864">
        <ele>293</ele>
        <time>2016-08-29T14:55:59Z</time>
      </trkpt>
      <trkpt lat="45.996" lon="4.89872">
        <ele>293</ele>
        <time>2016-08-29T14:56:00Z</time>
      </trkpt>
      <trkpt lat="45.996" lon="4.8988">
        <ele>292</ele>
        <time>2016-08-29T14:56:01Z</time>
      </trkpt>
      <trkpt lat="45.996" lon="4.89888">
        <ele>292</ele>
        <time>2016-08-29T14:56:02Z</time>
      </trkpt>
      <trkpt lat="45.996" lon="4.89895">
        <ele>292</ele>
        <time>2016-08-29T14:56:03Z</time>
      </trkpt>
      <trkpt lat="45.996" lon="4.89902">
        <ele>292</ele>
        <time>2016-08-29T14:56:04Z</time>
      </trkpt>
      <trkpt lat="45.996" lon="4.89909">
        <ele>292</ele>
        <time>2016-08-29T14:56:05Z</time>
      </trkpt>
      <trkpt lat="45.99601" lon="4.89916">
        <ele>292</ele>
        <time>2016-08-29T14:56:06Z</time>
      </trkpt>
      <trkpt lat="45.99601" lon="4.89924">
        <ele>293</ele>
        <time>2016-08-29T14:56:07Z</time>
      </trkpt>
      <trkpt lat="45.99602" lon="4.8993">
        <ele>293</ele>
        <time>2016-08-29T14:56:08Z</time>
      </trkpt>
      <trkpt lat="45.99602" lon="4.89937">
        <ele>293</ele>
        <time>2016-08-29T14:56:09Z</time>
      </trkpt>
      <trkpt lat="45.99602" lon="4.89943">
        <ele>294</ele>
        <time>2016-08-29T14:56:10Z</time>
      </trkpt>
      <trkpt lat="45.99603" lon="4.8995">
        <ele>294</ele>
        <time>2016-08-29T14:56:11Z</time>
      </trkpt>
      <trkpt lat="45.99603" lon="4.89956">
        <ele>294</ele>
        <time>2016-08-29T14:56:12Z</time>
      </trkpt>
      <trkpt lat="45.99604" lon="4.89962">
        <ele>294</ele>
        <time>2016-08-29T14:56:13Z</time>
      </trkpt>
      <trkpt lat="45.99604" lon="4.89969">
        <ele>294</ele>
        <time>2016-08-29T14:56:14Z</time>
      </trkpt>
      <trkpt lat="45.99605" lon="4.89976">
        <ele>294</ele>
        <time>2016-08-29T14:56:15Z</time>
      </trkpt>
      <trkpt lat="45.99606" lon="4.89983">
        <ele>294</ele>
        <time>2016-08-29T14:56:16Z</time>
      </trkpt>
      <trkpt lat="45.99607" lon="4.89989">
        <ele>294</ele>
        <time>2016-08-29T14:56:17Z</time>
      </trkpt>
      <trkpt lat="45.99608" lon="4.89997">
        <ele>295</ele>
        <time>2016-08-29T14:56:18Z</time>
      </trkpt>
      <trkpt lat="45.99609" lon="4.90004">
        <ele>296</ele>
        <time>2016-08-29T14:56:19Z</time>
      </trkpt>
      <trkpt lat="45.99611" lon="4.9001">
        <ele>296</ele>
        <time>2016-08-29T14:56:20Z</time>
      </trkpt>
      <trkpt lat="45.99613" lon="4.90017">
        <ele>296</ele>
        <time>2016-08-29T14:56:21Z</time>
      </trkpt>
      <trkpt lat="45.99615" lon="4.90023">
        <ele>296</ele>
        <time>2016-08-29T14:56:22Z</time>
      </trkpt>
      <trkpt lat="45.99618" lon="4.90034">
        <ele>296</ele>
        <time>2016-08-29T14:56:24Z</time>
      </trkpt>
      <trkpt lat="45.9962" lon="4.9004">
        <ele>296</ele>
        <time>2016-08-29T14:56:25Z</time>
      </trkpt>
      <trkpt lat="45.99623" lon="4.90052">
        <ele>297</ele>
        <time>2016-08-29T14:56:27Z</time>
      </trkpt>
      <trkpt lat="45.99625" lon="4.90058">
        <ele>297</ele>
        <time>2016-08-29T14:56:28Z</time>
      </trkpt>
      <trkpt lat="45.9963" lon="4.90068">
        <ele>297</ele>
        <time>2016-08-29T14:56:30Z</time>
      </trkpt>
      <trkpt lat="45.99631" lon="4.90073">
        <ele>297</ele>
        <time>2016-08-29T14:56:31Z</time>
      </trkpt>
      <trkpt lat="45.99634" lon="4.90083">
        <ele>297</ele>
        <time>2016-08-29T14:56:33Z</time>
      </trkpt>
      <trkpt lat="45.99635" lon="4.90087">
        <ele>299</ele>
        <time>2016-08-29T14:56:34Z</time>
      </trkpt>
      <trkpt lat="45.99638" lon="4.90096">
        <ele>299</ele>
        <time>2016-08-29T14:56:36Z</time>
      </trkpt>
      <trkpt lat="45.9964" lon="4.90102">
        <ele>299</ele>
        <time>2016-08-29T14:56:37Z</time>
      </trkpt>
      <trkpt lat="45.99643" lon="4.90113">
        <ele>299</ele>
        <time>2016-08-29T14:56:39Z</time>
      </trkpt>
      <trkpt lat="45.99645" lon="4.90118">
        <ele>299</ele>
        <time>2016-08-29T14:56:40Z</time>
      </trkpt>
      <trkpt lat="45.99648" lon="4.90129">
        <ele>299</ele>
        <time>2016-08-29T14:56:42Z</time>
      </trkpt>
      <trkpt lat="45.9965" lon="4.90133">
        <ele>299</ele>
        <time>2016-08-29T14:56:43Z</time>
      </trkpt>
      <trkpt lat="45.99653" lon="4.90143">
        <ele>300</ele>
        <time>2016-08-29T14:56:45Z</time>
      </trkpt>
      <trkpt lat="45.99654" lon="4.90147">
        <ele>300</ele>
        <time>2016-08-29T14:56:46Z</time>
      </trkpt>
      <trkpt lat="45.99656" lon="4.90157">
        <ele>300</ele>
        <time>2016-08-29T14:56:48Z</time>
      </trkpt>
      <trkpt lat="45.99657" lon="4.90162">
        <ele>300</ele>
        <time>2016-08-29T14:56:49Z</time>
      </trkpt>
      <trkpt lat="45.99659" lon="4.90172">
        <ele>301</ele>
        <time>2016-08-29T14:56:51Z</time>
      </trkpt>
      <trkpt lat="45.9966" lon="4.90177">
        <ele>301</ele>
        <time>2016-08-29T14:56:52Z</time>
      </trkpt>
      <trkpt lat="45.99662" lon="4.90189">
        <ele>301</ele>
        <time>2016-08-29T14:56:55Z</time>
      </trkpt>
      <trkpt lat="45.99662" lon="4.90194">
        <ele>301</ele>
        <time>2016-08-29T14:56:56Z</time>
      </trkpt>
      <trkpt lat="45.99666" lon="4.90203">
        <ele>302</ele>
        <time>2016-08-29T14:56:58Z</time>
      </trkpt>
      <trkpt lat="45.99667" lon="4.90208">
        <ele>303</ele>
        <time>2016-08-29T14:56:59Z</time>
      </trkpt>
      <trkpt lat="45.9967" lon="4.90217">
        <ele>303</ele>
        <time>2016-08-29T14:57:01Z</time>
      </trkpt>
      <trkpt lat="45.99671" lon="4.90221">
        <ele>303</ele>
        <time>2016-08-29T14:57:02Z</time>
      </trkpt>
      <trkpt lat="45.99673" lon="4.90231">
        <ele>304</ele>
        <time>2016-08-29T14:57:04Z</time>
      </trkpt>
      <trkpt lat="45.99674" lon="4.90235">
        <ele>304</ele>
        <time>2016-08-29T14:57:05Z</time>
      </trkpt>
      <trkpt lat="45.99676" lon="4.90246">
        <ele>304</ele>
        <time>2016-08-29T14:57:07Z</time>
      </trkpt>
      <trkpt lat="45.99677" lon="4.90251">
        <ele>304</ele>
        <time>2016-08-29T14:57:08Z</time>
      </trkpt>
      <trkpt lat="45.99677" lon="4.90262">
        <ele>304</ele>
        <time>2016-08-29T14:57:10Z</time>
      </trkpt>
      <trkpt lat="45.99677" lon="4.90267">
        <ele>304</ele>
        <time>2016-08-29T14:57:11Z</time>
      </trkpt>
      <trkpt lat="45.99676" lon="4.90278">
        <ele>304</ele>
        <time>2016-08-29T14:57:13Z</time>
      </trkpt>
      <trkpt lat="45.99675" lon="4.90284">
        <ele>304</ele>
        <time>2016-08-29T14:57:14Z</time>
      </trkpt>
      <trkpt lat="45.99672" lon="4.90295">
        <ele>304</ele>
        <time>2016-08-29T14:57:16Z</time>
      </trkpt>
      <trkpt lat="45.99671" lon="4.903">
        <ele>304</ele>
        <time>2016-08-29T14:57:17Z</time>
      </trkpt>
      <trkpt lat="45.99671" lon="4.9031">
        <ele>304</ele>
        <time>2016-08-29T14:57:19Z</time>
      </trkpt>
      <trkpt lat="45.99669" lon="4.90314">
        <ele>304</ele>
        <time>2016-08-29T14:57:20Z</time>
      </trkpt>
      <trkpt lat="45.99665" lon="4.9032">
        <ele>302</ele>
        <time>2016-08-29T14:57:22Z</time>
      </trkpt>
      <trkpt lat="45.99661" lon="4.90321">
        <ele>302</ele>
        <time>2016-08-29T14:57:23Z</time>
      </trkpt>
      <trkpt lat="45.99654" lon="4.9032">
        <ele>302</ele>
        <time>2016-08-29T14:57:25Z</time>
      </trkpt>
      <trkpt lat="45.9965" lon="4.9032">
        <ele>302</ele>
        <time>2016-08-29T14:57:26Z</time>
      </trkpt>
      <trkpt lat="45.99641" lon="4.90322">
        <ele>302</ele>
        <time>2016-08-29T14:57:28Z</time>
      </trkpt>
      <trkpt lat="45.99637" lon="4.90323">
        <ele>302</ele>
        <time>2016-08-29T14:57:29Z</time>
      </trkpt>
      <trkpt lat="45.99632" lon="4.90323">
        <ele>302</ele>
        <time>2016-08-29T14:57:30Z</time>
      </trkpt>
      <trkpt lat="45.99628" lon="4.90322">
        <ele>302</ele>
        <time>2016-08-29T14:57:31Z</time>
      </trkpt>
      <trkpt lat="45.99623" lon="4.90321">
        <ele>302</ele>
        <time>2016-08-29T14:57:32Z</time>
      </trkpt>
      <trkpt lat="45.99618" lon="4.90319">
        <ele>302</ele>
        <time>2016-08-29T14:57:33Z</time>
      </trkpt>
      <trkpt lat="45.99613" lon="4.90318">
        <ele>302</ele>
        <time>2016-08-29T14:57:34Z</time>
      </trkpt>
      <trkpt lat="45.99607" lon="4.90318">
        <ele>301</ele>
        <time>2016-08-29T14:57:35Z</time>
      </trkpt>
      <trkpt lat="45.99601" lon="4.90319">
        <ele>301</ele>
        <time>2016-08-29T14:57:36Z</time>
      </trkpt>
      <trkpt lat="45.99594" lon="4.90318">
        <ele>301</ele>
        <time>2016-08-29T14:57:37Z</time>
      </trkpt>
      <trkpt lat="45.99589" lon="4.90316">
        <ele>301</ele>
        <time>2016-08-29T14:57:38Z</time>
      </trkpt>
      <trkpt lat="45.99583" lon="4.90315">
        <ele>301</ele>
        <time>2016-08-29T14:57:39Z</time>
      </trkpt>
      <trkpt lat="45.99578" lon="4.90315">
        <ele>301</ele>
        <time>2016-08-29T14:57:40Z</time>
      </trkpt>
      <trkpt lat="45.99573" lon="4.90315">
        <ele>301</ele>
        <time>2016-08-29T14:57:41Z</time>
      </trkpt>
      <trkpt lat="45.99568" lon="4.90314">
        <ele>301</ele>
        <time>2016-08-29T14:57:42Z</time>
      </trkpt>
      <trkpt lat="45.99564" lon="4.90314">
        <ele>301</ele>
        <time>2016-08-29T14:57:43Z</time>
      </trkpt>
      <trkpt lat="45.99555" lon="4.90313">
        <ele>300</ele>
        <time>2016-08-29T14:57:45Z</time>
      </trkpt>
      <trkpt lat="45.9955" lon="4.90312">
        <ele>300</ele>
        <time>2016-08-29T14:57:46Z</time>
      </trkpt>
      <trkpt lat="45.99546" lon="4.90312">
        <ele>300</ele>
        <time>2016-08-29T14:57:47Z</time>
      </trkpt>
      <trkpt lat="45.99541" lon="4.90312">
        <ele>300</ele>
        <time>2016-08-29T14:57:48Z</time>
      </trkpt>
      <trkpt lat="45.99536" lon="4.90311">
        <ele>300</ele>
        <time>2016-08-29T14:57:49Z</time>
      </trkpt>
      <trkpt lat="45.99531" lon="4.90311">
        <ele>300</ele>
        <time>2016-08-29T14:57:50Z</time>
      </trkpt>
      <trkpt lat="45.99526" lon="4.90311">
        <ele>300</ele>
        <time>2016-08-29T14:57:51Z</time>
      </trkpt>
      <trkpt lat="45.99521" lon="4.90311">
        <ele>300</ele>
        <time>2016-08-29T14:57:52Z</time>
      </trkpt>
      <trkpt lat="45.99515" lon="4.90311">
        <ele>300</ele>
        <time>2016-08-29T14:57:53Z</time>
      </trkpt>
      <trkpt lat="45.99509" lon="4.9031">
        <ele>300</ele>
        <time>2016-08-29T14:57:54Z</time>
      </trkpt>
      <trkpt lat="45.99503" lon="4.9031">
        <ele>300</ele>
        <time>2016-08-29T14:57:55Z</time>
      </trkpt>
      <trkpt lat="45.99497" lon="4.90309">
        <ele>300</ele>
        <time>2016-08-29T14:57:56Z</time>
      </trkpt>
      <trkpt lat="45.99492" lon="4.90308">
        <ele>300</ele>
        <time>2016-08-29T14:57:57Z</time>
      </trkpt>
      <trkpt lat="45.99487" lon="4.90308">
        <ele>300</ele>
        <time>2016-08-29T14:57:58Z</time>
      </trkpt>
      <trkpt lat="45.99482" lon="4.90307">
        <ele>300</ele>
        <time>2016-08-29T14:57:59Z</time>
      </trkpt>
      <trkpt lat="45.99477" lon="4.90306">
        <ele>300</ele>
        <time>2016-08-29T14:58:00Z</time>
      </trkpt>
      <trkpt lat="45.99471" lon="4.90305">
        <ele>300</ele>
        <time>2016-08-29T14:58:01Z</time>
      </trkpt>
      <trkpt lat="45.99466" lon="4.90304">
        <ele>300</ele>
        <time>2016-08-29T14:58:02Z</time>
      </trkpt>
      <trkpt lat="45.99461" lon="4.90304">
        <ele>300</ele>
        <time>2016-08-29T14:58:03Z</time>
      </trkpt>
      <trkpt lat="45.99456" lon="4.90303">
        <ele>300</ele>
        <time>2016-08-29T14:58:04Z</time>
      </trkpt>
      <trkpt lat="45.99451" lon="4.90302">
        <ele>300</ele>
        <time>2016-08-29T14:58:05Z</time>
      </trkpt>
      <trkpt lat="45.99446" lon="4.90301">
        <ele>300</ele>
        <time>2016-08-29T14:58:06Z</time>
      </trkpt>
      <trkpt lat="45.9944" lon="4.90299">
        <ele>300</ele>
        <time>2016-08-29T14:58:07Z</time>
      </trkpt>
      <trkpt lat="45.99435" lon="4.90298">
        <ele>300</ele>
        <time>2016-08-29T14:58:08Z</time>
      </trkpt>
      <trkpt lat="45.99429" lon="4.90297">
        <ele>300</ele>
        <time>2016-08-29T14:58:09Z</time>
      </trkpt>
      <trkpt lat="45.99423" lon="4.90296">
        <ele>300</ele>
        <time>2016-08-29T14:58:10Z</time>
      </trkpt>
      <trkpt lat="45.99417" lon="4.90296">
        <ele>300</ele>
        <time>2016-08-29T14:58:11Z</time>
      </trkpt>
      <trkpt lat="45.99412" lon="4.90295">
        <ele>300</ele>
        <time>2016-08-29T14:58:12Z</time>
      </trkpt>
      <trkpt lat="45.99406" lon="4.90295">
        <ele>300</ele>
        <time>2016-08-29T14:58:13Z</time>
      </trkpt>
      <trkpt lat="45.994" lon="4.90294">
        <ele>300</ele>
        <time>2016-08-29T14:58:14Z</time>
      </trkpt>
      <trkpt lat="45.99395" lon="4.90293">
        <ele>300</ele>
        <time>2016-08-29T14:58:15Z</time>
      </trkpt>
      <trkpt lat="45.99391" lon="4.90292">
        <ele>300</ele>
        <time>2016-08-29T14:58:16Z</time>
      </trkpt>
      <trkpt lat="45.99385" lon="4.90291">
        <ele>299</ele>
        <time>2016-08-29T14:58:17Z</time>
      </trkpt>
      <trkpt lat="45.9938" lon="4.90291">
        <ele>299</ele>
        <time>2016-08-29T14:58:18Z</time>
      </trkpt>
      <trkpt lat="45.99375" lon="4.9029">
        <ele>299</ele>
        <time>2016-08-29T14:58:19Z</time>
      </trkpt>
      <trkpt lat="45.99368" lon="4.9029">
        <ele>299</ele>
        <time>2016-08-29T14:58:20Z</time>
      </trkpt>
      <trkpt lat="45.99362" lon="4.90289">
        <ele>299</ele>
        <time>2016-08-29T14:58:21Z</time>
      </trkpt>
      <trkpt lat="45.99355" lon="4.90289">
        <ele>299</ele>
        <time>2016-08-29T14:58:22Z</time>
      </trkpt>
      <trkpt lat="45.9935" lon="4.90288">
        <ele>299</ele>
        <time>2016-08-29T14:58:23Z</time>
      </trkpt>
      <trkpt lat="45.99345" lon="4.90286">
        <ele>299</ele>
        <time>2016-08-29T14:58:24Z</time>
      </trkpt>
      <trkpt lat="45.99337" lon="4.90289">
        <ele>299</ele>
        <time>2016-08-29T14:58:26Z</time>
      </trkpt>
      <trkpt lat="45.99333" lon="4.90289">
        <ele>299</ele>
        <time>2016-08-29T14:58:27Z</time>
      </trkpt>
      <trkpt lat="45.99328" lon="4.90289">
        <ele>299</ele>
        <time>2016-08-29T14:58:28Z</time>
      </trkpt>
      <trkpt lat="45.99323" lon="4.90285">
        <ele>299</ele>
        <time>2016-08-29T14:58:29Z</time>
      </trkpt>
      <trkpt lat="45.99319" lon="4.90281">
        <ele>299</ele>
        <time>2016-08-29T14:58:30Z</time>
      </trkpt>
      <trkpt lat="45.99316" lon="4.90273">
        <ele>299</ele>
        <time>2016-08-29T14:58:31Z</time>
      </trkpt>
      <trkpt lat="45.99314" lon="4.90266">
        <ele>299</ele>
        <time>2016-08-29T14:58:32Z</time>
      </trkpt>
      <trkpt lat="45.99311" lon="4.90259">
        <ele>299</ele>
        <time>2016-08-29T14:58:33Z</time>
      </trkpt>
      <trkpt lat="45.99307" lon="4.90254">
        <ele>299</ele>
        <time>2016-08-29T14:58:34Z</time>
      </trkpt>
      <trkpt lat="45.99303" lon="4.90249">
        <ele>298</ele>
        <time>2016-08-29T14:58:35Z</time>
      </trkpt>
      <trkpt lat="45.99299" lon="4.90243">
        <ele>298</ele>
        <time>2016-08-29T14:58:36Z</time>
      </trkpt>
      <trkpt lat="45.99295" lon="4.90237">
        <ele>298</ele>
        <time>2016-08-29T14:58:37Z</time>
      </trkpt>
      <trkpt lat="45.9929" lon="4.90231">
        <ele>298</ele>
        <time>2016-08-29T14:58:38Z</time>
      </trkpt>
      <trkpt lat="45.99287" lon="4.90225">
        <ele>298</ele>
        <time>2016-08-29T14:58:39Z</time>
      </trkpt>
      <trkpt lat="45.99283" lon="4.9022">
        <ele>298</ele>
        <time>2016-08-29T14:58:40Z</time>
      </trkpt>
      <trkpt lat="45.99279" lon="4.90214">
        <ele>298</ele>
        <time>2016-08-29T14:58:41Z</time>
      </trkpt>
      <trkpt lat="45.99276" lon="4.90209">
        <ele>298</ele>
        <time>2016-08-29T14:58:42Z</time>
      </trkpt>
      <trkpt lat="45.99273" lon="4.90202">
        <ele>298</ele>
        <time>2016-08-29T14:58:43Z</time>
      </trkpt>
      <trkpt lat="45.99269" lon="4.90195">
        <ele>298</ele>
        <time>2016-08-29T14:58:44Z</time>
      </trkpt>
      <trkpt lat="45.99264" lon="4.90189">
        <ele>298</ele>
        <time>2016-08-29T14:58:45Z</time>
      </trkpt>
      <trkpt lat="45.9926" lon="4.90184">
        <ele>298</ele>
        <time>2016-08-29T14:58:46Z</time>
      </trkpt>
      <trkpt lat="45.99256" lon="4.90179">
        <ele>297</ele>
        <time>2016-08-29T14:58:47Z</time>
      </trkpt>
      <trkpt lat="45.99252" lon="4.90174">
        <ele>297</ele>
        <time>2016-08-29T14:58:48Z</time>
      </trkpt>
      <trkpt lat="45.99248" lon="4.9017">
        <ele>297</ele>
        <time>2016-08-29T14:58:49Z</time>
      </trkpt>
      <trkpt lat="45.99245" lon="4.90165">
        <ele>297</ele>
        <time>2016-08-29T14:58:50Z</time>
      </trkpt>
      <trkpt lat="45.99241" lon="4.9016">
        <ele>297</ele>
        <time>2016-08-29T14:58:51Z</time>
      </trkpt>
      <trkpt lat="45.99236" lon="4.90155">
        <ele>297</ele>
        <time>2016-08-29T14:58:52Z</time>
      </trkpt>
      <trkpt lat="45.99232" lon="4.90149">
        <ele>297</ele>
        <time>2016-08-29T14:58:53Z</time>
      </trkpt>
      <trkpt lat="45.99228" lon="4.90143">
        <ele>297</ele>
        <time>2016-08-29T14:58:54Z</time>
      </trkpt>
      <trkpt lat="45.99223" lon="4.90137">
        <ele>297</ele>
        <time>2016-08-29T14:58:55Z</time>
      </trkpt>
      <trkpt lat="45.99219" lon="4.90131">
        <ele>297</ele>
        <time>2016-08-29T14:58:56Z</time>
      </trkpt>
      <trkpt lat="45.99214" lon="4.90125">
        <ele>297</ele>
        <time>2016-08-29T14:58:57Z</time>
      </trkpt>
      <trkpt lat="45.9921" lon="4.90119">
        <ele>297</ele>
        <time>2016-08-29T14:58:58Z</time>
      </trkpt>
      <trkpt lat="45.99206" lon="4.90113">
        <ele>297</ele>
        <time>2016-08-29T14:58:59Z</time>
      </trkpt>
      <trkpt lat="45.99202" lon="4.90105">
        <ele>297</ele>
        <time>2016-08-29T14:59:00Z</time>
      </trkpt>
      <trkpt lat="45.99198" lon="4.90098">
        <ele>297</ele>
        <time>2016-08-29T14:59:01Z</time>
      </trkpt>
      <trkpt lat="45.99193" lon="4.90092">
        <ele>297</ele>
        <time>2016-08-29T14:59:02Z</time>
      </trkpt>
      <trkpt lat="45.99188" lon="4.90086">
        <ele>297</ele>
        <time>2016-08-29T14:59:03Z</time>
      </trkpt>
      <trkpt lat="45.99183" lon="4.9008">
        <ele>297</ele>
        <time>2016-08-29T14:59:04Z</time>
      </trkpt>
      <trkpt lat="45.99178" lon="4.90074">
        <ele>297</ele>
        <time>2016-08-29T14:59:05Z</time>
      </trkpt>
      <trkpt lat="45.99174" lon="4.90069">
        <ele>297</ele>
        <time>2016-08-29T14:59:06Z</time>
      </trkpt>
      <trkpt lat="45.99169" lon="4.90063">
        <ele>297</ele>
        <time>2016-08-29T14:59:07Z</time>
      </trkpt>
      <trkpt lat="45.99164" lon="4.90057">
        <ele>297</ele>
        <time>2016-08-29T14:59:08Z</time>
      </trkpt>
      <trkpt lat="45.9916" lon="4.90052">
        <ele>297</ele>
        <time>2016-08-29T14:59:09Z</time>
      </trkpt>
      <trkpt lat="45.99156" lon="4.90046">
        <ele>297</ele>
        <time>2016-08-29T14:59:10Z</time>
      </trkpt>
      <trkpt lat="45.99152" lon="4.90041">
        <ele>297</ele>
        <time>2016-08-29T14:59:11Z</time>
      </trkpt>
      <trkpt lat="45.99147" lon="4.90035">
        <ele>297</ele>
        <time>2016-08-29T14:59:12Z</time>
      </trkpt>
      <trkpt lat="45.99143" lon="4.90031">
        <ele>297</ele>
        <time>2016-08-29T14:59:13Z</time>
      </trkpt>
      <trkpt lat="45.99139" lon="4.90027">
        <ele>297</ele>
        <time>2016-08-29T14:59:14Z</time>
      </trkpt>
      <trkpt lat="45.99135" lon="4.9002">
        <ele>297</ele>
        <time>2016-08-29T14:59:15Z</time>
      </trkpt>
      <trkpt lat="45.99131" lon="4.90015">
        <ele>296</ele>
        <time>2016-08-29T14:59:16Z</time>
      </trkpt>
      <trkpt lat="45.99127" lon="4.9001">
        <ele>296</ele>
        <time>2016-08-29T14:59:17Z</time>
      </trkpt>
      <trkpt lat="45.99122" lon="4.90005">
        <ele>296</ele>
        <time>2016-08-29T14:59:18Z</time>
      </trkpt>
      <trkpt lat="45.99118" lon="4.89999">
        <ele>295</ele>
        <time>2016-08-29T14:59:19Z</time>
      </trkpt>
      <trkpt lat="45.99113" lon="4.89993">
        <ele>295</ele>
        <time>2016-08-29T14:59:20Z</time>
      </trkpt>
      <trkpt lat="45.99108" lon="4.89987">
        <ele>295</ele>
        <time>2016-08-29T14:59:21Z</time>
      </trkpt>
      <trkpt lat="45.99103" lon="4.89981">
        <ele>295</ele>
        <time>2016-08-29T14:59:22Z</time>
      </trkpt>
      <trkpt lat="45.99098" lon="4.89974">
        <ele>295</ele>
        <time>2016-08-29T14:59:23Z</time>
      </trkpt>
      <trkpt lat="45.99093" lon="4.89967">
        <ele>295</ele>
        <time>2016-08-29T14:59:24Z</time>
      </trkpt>
      <trkpt lat="45.99089" lon="4.8996">
        <ele>295</ele>
        <time>2016-08-29T14:59:25Z</time>
      </trkpt>
      <trkpt lat="45.99084" lon="4.89954">
        <ele>295</ele>
        <time>2016-08-29T14:59:26Z</time>
      </trkpt>
      <trkpt lat="45.99079" lon="4.89948">
        <ele>294</ele>
        <time>2016-08-29T14:59:27Z</time>
      </trkpt>
      <trkpt lat="45.99075" lon="4.89941">
        <ele>294</ele>
        <time>2016-08-29T14:59:28Z</time>
      </trkpt>
      <trkpt lat="45.99071" lon="4.89936">
        <ele>294</ele>
        <time>2016-08-29T14:59:29Z</time>
      </trkpt>
      <trkpt lat="45.99066" lon="4.8993">
        <ele>294</ele>
        <time>2016-08-29T14:59:30Z</time>
      </trkpt>
      <trkpt lat="45.99062" lon="4.89924">
        <ele>294</ele>
        <time>2016-08-29T14:59:31Z</time>
      </trkpt>
      <trkpt lat="45.99058" lon="4.89918">
        <ele>294</ele>
        <time>2016-08-29T14:59:32Z</time>
      </trkpt>
      <trkpt lat="45.99054" lon="4.89912">
        <ele>293</ele>
        <time>2016-08-29T14:59:33Z</time>
      </trkpt>
      <trkpt lat="45.99049" lon="4.89906">
        <ele>293</ele>
        <time>2016-08-29T14:59:34Z</time>
      </trkpt>
      <trkpt lat="45.99045" lon="4.899">
        <ele>293</ele>
        <time>2016-08-29T14:59:35Z</time>
      </trkpt>
      <trkpt lat="45.9904" lon="4.89894">
        <ele>293</ele>
        <time>2016-08-29T14:59:36Z</time>
      </trkpt>
      <trkpt lat="45.99036" lon="4.89887">
        <ele>293</ele>
        <time>2016-08-29T14:59:37Z</time>
      </trkpt>
      <trkpt lat="45.99031" lon="4.89881">
        <ele>293</ele>
        <time>2016-08-29T14:59:38Z</time>
      </trkpt>
      <trkpt lat="45.99027" lon="4.89875">
        <ele>293</ele>
        <time>2016-08-29T14:59:39Z</time>
      </trkpt>
      <trkpt lat="45.99022" lon="4.8987">
        <ele>293</ele>
        <time>2016-08-29T14:59:40Z</time>
      </trkpt>
      <trkpt lat="45.99018" lon="4.89864">
        <ele>293</ele>
        <time>2016-08-29T14:59:41Z</time>
      </trkpt>
      <trkpt lat="45.99014" lon="4.89858">
        <ele>293</ele>
        <time>2016-08-29T14:59:42Z</time>
      </trkpt>
      <trkpt lat="45.9901" lon="4.89852">
        <ele>293</ele>
        <time>2016-08-29T14:59:43Z</time>
      </trkpt>
      <trkpt lat="45.99006" lon="4.89847">
        <ele>293</ele>
        <time>2016-08-29T14:59:44Z</time>
      </trkpt>
      <trkpt lat="45.99001" lon="4.89841">
        <ele>293</ele>
        <time>2016-08-29T14:59:45Z</time>
      </trkpt>
      <trkpt lat="45.98997" lon="4.89836">
        <ele>293</ele>
        <time>2016-08-29T14:59:46Z</time>
      </trkpt>
      <trkpt lat="45.98992" lon="4.89831">
        <ele>293</ele>
        <time>2016-08-29T14:59:47Z</time>
      </trkpt>
      <trkpt lat="45.98988" lon="4.89825">
        <ele>293</ele>
        <time>2016-08-29T14:59:48Z</time>
      </trkpt>
      <trkpt lat="45.98983" lon="4.89819">
        <ele>293</ele>
        <time>2016-08-29T14:59:49Z</time>
      </trkpt>
      <trkpt lat="45.98978" lon="4.89813">
        <ele>293</ele>
        <time>2016-08-29T14:59:50Z</time>
      </trkpt>
      <trkpt lat="45.98973" lon="4.89807">
        <ele>293</ele>
        <time>2016-08-29T14:59:51Z</time>
      </trkpt>
      <trkpt lat="45.98968" lon="4.89802">
        <ele>293</ele>
        <time>2016-08-29T14:59:52Z</time>
      </trkpt>
      <trkpt lat="45.98963" lon="4.89796">
        <ele>293</ele>
        <time>2016-08-29T14:59:53Z</time>
      </trkpt>
      <trkpt lat="45.98958" lon="4.89791">
        <ele>293</ele>
        <time>2016-08-29T14:59:54Z</time>
      </trkpt>
      <trkpt lat="45.98953" lon="4.89787">
        <ele>293</ele>
        <time>2016-08-29T14:59:55Z</time>
      </trkpt>
      <trkpt lat="45.98948" lon="4.89782">
        <ele>293</ele>
        <time>2016-08-29T14:59:56Z</time>
      </trkpt>
      <trkpt lat="45.98943" lon="4.89779">
        <ele>293</ele>
        <time>2016-08-29T14:59:57Z</time>
      </trkpt>
      <trkpt lat="45.98938" lon="4.89775">
        <ele>293</ele>
        <time>2016-08-29T14:59:58Z</time>
      </trkpt>
      <trkpt lat="45.98934" lon="4.89773">
        <ele>293</ele>
        <time>2016-08-29T14:59:59Z</time>
      </trkpt>
      <trkpt lat="45.98929" lon="4.89769">
        <ele>293</ele>
        <time>2016-08-29T15:00:00Z</time>
      </trkpt>
      <trkpt lat="45.98923" lon="4.89765">
        <ele>293</ele>
        <time>2016-08-29T15:00:01Z</time>
      </trkpt>
      <trkpt lat="45.98918" lon="4.89761">
        <ele>293</ele>
        <time>2016-08-29T15:00:02Z</time>
      </trkpt>
      <trkpt lat="45.98913" lon="4.89757">
        <ele>293</ele>
        <time>2016-08-29T15:00:03Z</time>
      </trkpt>
      <trkpt lat="45.98907" lon="4.89754">
        <ele>293</ele>
        <time>2016-08-29T15:00:04Z</time>
      </trkpt>
      <trkpt lat="45.98901" lon="4.8975">
        <ele>293</ele>
        <time>2016-08-29T15:00:05Z</time>
      </trkpt>
      <trkpt lat="45.98896" lon="4.89747">
        <ele>293</ele>
        <time>2016-08-29T15:00:06Z</time>
      </trkpt>
      <trkpt lat="45.9889" lon="4.89743">
        <ele>293</ele>
        <time>2016-08-29T15:00:07Z</time>
      </trkpt>
      <trkpt lat="45.98884" lon="4.89739">
        <ele>293</ele>
        <time>2016-08-29T15:00:08Z</time>
      </trkpt>
      <trkpt lat="45.98879" lon="4.89734">
        <ele>293</ele>
        <time>2016-08-29T15:00:09Z</time>
      </trkpt>
      <trkpt lat="45.98873" lon="4.8973">
        <ele>293</ele>
        <time>2016-08-29T15:00:10Z</time>
      </trkpt>
      <trkpt lat="45.98867" lon="4.89725">
        <ele>293</ele>
        <time>2016-08-29T15:00:11Z</time>
      </trkpt>
      <trkpt lat="45.98861" lon="4.8972">
        <ele>293</ele>
        <time>2016-08-29T15:00:12Z</time>
      </trkpt>
      <trkpt lat="45.98854" lon="4.89715">
        <ele>293</ele>
        <time>2016-08-29T15:00:13Z</time>
      </trkpt>
      <trkpt lat="45.98847" lon="4.8971">
        <ele>293</ele>
        <time>2016-08-29T15:00:14Z</time>
      </trkpt>
      <trkpt lat="45.98842" lon="4.89705">
        <ele>292</ele>
        <time>2016-08-29T15:00:15Z</time>
      </trkpt>
      <trkpt lat="45.98836" lon="4.89699">
        <ele>292</ele>
        <time>2016-08-29T15:00:16Z</time>
      </trkpt>
      <trkpt lat="45.9883" lon="4.89692">
        <ele>292</ele>
        <time>2016-08-29T15:00:17Z</time>
      </trkpt>
      <trkpt lat="45.98823" lon="4.89686">
        <ele>292</ele>
        <time>2016-08-29T15:00:18Z</time>
      </trkpt>
      <trkpt lat="45.98817" lon="4.8968">
        <ele>292</ele>
        <time>2016-08-29T15:00:19Z</time>
      </trkpt>
      <trkpt lat="45.98811" lon="4.89674">
        <ele>292</ele>
        <time>2016-08-29T15:00:20Z</time>
      </trkpt>
      <trkpt lat="45.98805" lon="4.89667">
        <ele>292</ele>
        <time>2016-08-29T15:00:21Z</time>
      </trkpt>
      <trkpt lat="45.988" lon="4.89661">
        <ele>291</ele>
        <time>2016-08-29T15:00:22Z</time>
      </trkpt>
      <trkpt lat="45.98794" lon="4.89654">
        <ele>291</ele>
        <time>2016-08-29T15:00:23Z</time>
      </trkpt>
      <trkpt lat="45.98789" lon="4.89646">
        <ele>291</ele>
        <time>2016-08-29T15:00:24Z</time>
      </trkpt>
      <trkpt lat="45.98783" lon="4.89639">
        <ele>291</ele>
        <time>2016-08-29T15:00:25Z</time>
      </trkpt>
      <trkpt lat="45.98777" lon="4.89631">
        <ele>291</ele>
        <time>2016-08-29T15:00:26Z</time>
      </trkpt>
      <trkpt lat="45.98772" lon="4.89624">
        <ele>291</ele>
        <time>2016-08-29T15:00:27Z</time>
      </trkpt>
      <trkpt lat="45.98766" lon="4.89616">
        <ele>291</ele>
        <time>2016-08-29T15:00:28Z</time>
      </trkpt>
      <trkpt lat="45.98761" lon="4.89608">
        <ele>291</ele>
        <time>2016-08-29T15:00:29Z</time>
      </trkpt>
      <trkpt lat="45.98756" lon="4.896">
        <ele>291</ele>
        <time>2016-08-29T15:00:30Z</time>
      </trkpt>
      <trkpt lat="45.9875" lon="4.89592">
        <ele>291</ele>
        <time>2016-08-29T15:00:31Z</time>
      </trkpt>
      <trkpt lat="45.98745" lon="4.89584">
        <ele>291</ele>
        <time>2016-08-29T15:00:32Z</time>
      </trkpt>
      <trkpt lat="45.98739" lon="4.89576">
        <ele>290</ele>
        <time>2016-08-29T15:00:33Z</time>
      </trkpt>
      <trkpt lat="45.98734" lon="4.89569">
        <ele>290</ele>
        <time>2016-08-29T15:00:34Z</time>
      </trkpt>
      <trkpt lat="45.98728" lon="4.89561">
        <ele>290</ele>
        <time>2016-08-29T15:00:35Z</time>
      </trkpt>
      <trkpt lat="45.98723" lon="4.89554">
        <ele>290</ele>
        <time>2016-08-29T15:00:36Z</time>
      </trkpt>
      <trkpt lat="45.98718" lon="4.89546">
        <ele>290</ele>
        <time>2016-08-29T15:00:37Z</time>
      </trkpt>
      <trkpt lat="45.98712" lon="4.89539">
        <ele>290</ele>
        <time>2016-08-29T15:00:38Z</time>
      </trkpt>
      <trkpt lat="45.98707" lon="4.89532">
        <ele>289</ele>
        <time>2016-08-29T15:00:39Z</time>
      </trkpt>
      <trkpt lat="45.98701" lon="4.89525">
        <ele>289</ele>
        <time>2016-08-29T15:00:40Z</time>
      </trkpt>
      <trkpt lat="45.98696" lon="4.89517">
        <ele>289</ele>
        <time>2016-08-29T15:00:41Z</time>
      </trkpt>
      <trkpt lat="45.98691" lon="4.8951">
        <ele>289</ele>
        <time>2016-08-29T15:00:42Z</time>
      </trkpt>
      <trkpt lat="45.98686" lon="4.89503">
        <ele>289</ele>
        <time>2016-08-29T15:00:43Z</time>
      </trkpt>
      <trkpt lat="45.98681" lon="4.89495">
        <ele>289</ele>
        <time>2016-08-29T15:00:44Z</time>
      </trkpt>
      <trkpt lat="45.98676" lon="4.89488">
        <ele>289</ele>
        <time>2016-08-29T15:00:45Z</time>
      </trkpt>
      <trkpt lat="45.9867" lon="4.8948">
        <ele>289</ele>
        <time>2016-08-29T15:00:46Z</time>
      </trkpt>
      <trkpt lat="45.98665" lon="4.89473">
        <ele>290</ele>
        <time>2016-08-29T15:00:47Z</time>
      </trkpt>
      <trkpt lat="45.98659" lon="4.89466">
        <ele>290</ele>
        <time>2016-08-29T15:00:48Z</time>
      </trkpt>
      <trkpt lat="45.98653" lon="4.89459">
        <ele>290</ele>
        <time>2016-08-29T15:00:49Z</time>
      </trkpt>
      <trkpt lat="45.98647" lon="4.89452">
        <ele>291</ele>
        <time>2016-08-29T15:00:50Z</time>
      </trkpt>
      <trkpt lat="45.9864" lon="4.89446">
        <ele>291</ele>
        <time>2016-08-29T15:00:51Z</time>
      </trkpt>
      <trkpt lat="45.98634" lon="4.89439">
        <ele>291</ele>
        <time>2016-08-29T15:00:52Z</time>
      </trkpt>
      <trkpt lat="45.98627" lon="4.89433">
        <ele>291</ele>
        <time>2016-08-29T15:00:53Z</time>
      </trkpt>
      <trkpt lat="45.9862" lon="4.89426">
        <ele>291</ele>
        <time>2016-08-29T15:00:54Z</time>
      </trkpt>
      <trkpt lat="45.98614" lon="4.89419">
        <ele>292</ele>
        <time>2016-08-29T15:00:55Z</time>
      </trkpt>
      <trkpt lat="45.98607" lon="4.89412">
        <ele>292</ele>
        <time>2016-08-29T15:00:56Z</time>
      </trkpt>
      <trkpt lat="45.98601" lon="4.89405">
        <ele>292</ele>
        <time>2016-08-29T15:00:57Z</time>
      </trkpt>
      <trkpt lat="45.98595" lon="4.89399">
        <ele>292</ele>
        <time>2016-08-29T15:00:58Z</time>
      </trkpt>
      <trkpt lat="45.98588" lon="4.89392">
        <ele>292</ele>
        <time>2016-08-29T15:00:59Z</time>
      </trkpt>
      <trkpt lat="45.98582" lon="4.89385">
        <ele>295</ele>
        <time>2016-08-29T15:01:00Z</time>
      </trkpt>
      <trkpt lat="45.98576" lon="4.89378">
        <ele>295</ele>
        <time>2016-08-29T15:01:01Z</time>
      </trkpt>
      <trkpt lat="45.98569" lon="4.89371">
        <ele>295</ele>
        <time>2016-08-29T15:01:02Z</time>
      </trkpt>
      <trkpt lat="45.98563" lon="4.89364">
        <ele>295</ele>
        <time>2016-08-29T15:01:03Z</time>
      </trkpt>
      <trkpt lat="45.98557" lon="4.89357">
        <ele>295</ele>
        <time>2016-08-29T15:01:04Z</time>
      </trkpt>
      <trkpt lat="45.98551" lon="4.89349">
        <ele>295</ele>
        <time>2016-08-29T15:01:05Z</time>
      </trkpt>
      <trkpt lat="45.98545" lon="4.89341">
        <ele>295</ele>
        <time>2016-08-29T15:01:06Z</time>
      </trkpt>
      <trkpt lat="45.9854" lon="4.89333">
        <ele>293</ele>
        <time>2016-08-29T15:01:07Z</time>
      </trkpt>
      <trkpt lat="45.98534" lon="4.89326">
        <ele>293</ele>
        <time>2016-08-29T15:01:08Z</time>
      </trkpt>
      <trkpt lat="45.98528" lon="4.89319">
        <ele>293</ele>
        <time>2016-08-29T15:01:09Z</time>
      </trkpt>
      <trkpt lat="45.98523" lon="4.89312">
        <ele>293</ele>
        <time>2016-08-29T15:01:10Z</time>
      </trkpt>
      <trkpt lat="45.98518" lon="4.89305">
        <ele>293</ele>
        <time>2016-08-29T15:01:11Z</time>
      </trkpt>
      <trkpt lat="45.98513" lon="4.89297">
        <ele>293</ele>
        <time>2016-08-29T15:01:12Z</time>
      </trkpt>
      <trkpt lat="45.98509" lon="4.8929">
        <ele>292</ele>
        <time>2016-08-29T15:01:13Z</time>
      </trkpt>
      <trkpt lat="45.98504" lon="4.89283">
        <ele>292</ele>
        <time>2016-08-29T15:01:14Z</time>
      </trkpt>
      <trkpt lat="45.985" lon="4.89275">
        <ele>292</ele>
        <time>2016-08-29T15:01:15Z</time>
      </trkpt>
      <trkpt lat="45.98495" lon="4.89268">
        <ele>291</ele>
        <time>2016-08-29T15:01:16Z</time>
      </trkpt>
      <trkpt lat="45.98491" lon="4.8926">
        <ele>291</ele>
        <time>2016-08-29T15:01:17Z</time>
      </trkpt>
      <trkpt lat="45.98486" lon="4.89252">
        <ele>291</ele>
        <time>2016-08-29T15:01:18Z</time>
      </trkpt>
      <trkpt lat="45.98481" lon="4.89243">
        <ele>289</ele>
        <time>2016-08-29T15:01:19Z</time>
      </trkpt>
      <trkpt lat="45.98476" lon="4.89234">
        <ele>289</ele>
        <time>2016-08-29T15:01:20Z</time>
      </trkpt>
      <trkpt lat="45.9847" lon="4.89225">
        <ele>289</ele>
        <time>2016-08-29T15:01:21Z</time>
      </trkpt>
      <trkpt lat="45.98464" lon="4.89216">
        <ele>289</ele>
        <time>2016-08-29T15:01:22Z</time>
      </trkpt>
      <trkpt lat="45.98459" lon="4.89207">
        <ele>289</ele>
        <time>2016-08-29T15:01:23Z</time>
      </trkpt>
      <trkpt lat="45.98455" lon="4.89197">
        <ele>289</ele>
        <time>2016-08-29T15:01:24Z</time>
      </trkpt>
      <trkpt lat="45.9845" lon="4.89188">
        <ele>289</ele>
        <time>2016-08-29T15:01:25Z</time>
      </trkpt>
      <trkpt lat="45.98445" lon="4.89178">
        <ele>288</ele>
        <time>2016-08-29T15:01:26Z</time>
      </trkpt>
      <trkpt lat="45.9844" lon="4.89169">
        <ele>288</ele>
        <time>2016-08-29T15:01:27Z</time>
      </trkpt>
      <trkpt lat="45.98435" lon="4.8916">
        <ele>288</ele>
        <time>2016-08-29T15:01:28Z</time>
      </trkpt>
      <trkpt lat="45.9843" lon="4.89151">
        <ele>288</ele>
        <time>2016-08-29T15:01:29Z</time>
      </trkpt>
      <trkpt lat="45.98424" lon="4.89143">
        <ele>288</ele>
        <time>2016-08-29T15:01:30Z</time>
      </trkpt>
      <trkpt lat="45.98418" lon="4.89135">
        <ele>288</ele>
        <time>2016-08-29T15:01:31Z</time>
      </trkpt>
      <trkpt lat="45.98413" lon="4.89126">
        <ele>285</ele>
        <time>2016-08-29T15:01:32Z</time>
      </trkpt>
      <trkpt lat="45.98408" lon="4.89117">
        <ele>285</ele>
        <time>2016-08-29T15:01:33Z</time>
      </trkpt>
      <trkpt lat="45.98402" lon="4.89109">
        <ele>285</ele>
        <time>2016-08-29T15:01:34Z</time>
      </trkpt>
      <trkpt lat="45.98397" lon="4.891">
        <ele>285</ele>
        <time>2016-08-29T15:01:35Z</time>
      </trkpt>
      <trkpt lat="45.98392" lon="4.89091">
        <ele>285</ele>
        <time>2016-08-29T15:01:36Z</time>
      </trkpt>
      <trkpt lat="45.98387" lon="4.89082">
        <ele>285</ele>
        <time>2016-08-29T15:01:37Z</time>
      </trkpt>
      <trkpt lat="45.98383" lon="4.89072">
        <ele>285</ele>
        <time>2016-08-29T15:01:38Z</time>
      </trkpt>
      <trkpt lat="45.98379" lon="4.89061">
        <ele>284</ele>
        <time>2016-08-29T15:01:39Z</time>
      </trkpt>
      <trkpt lat="45.98376" lon="4.8905">
        <ele>284</ele>
        <time>2016-08-29T15:01:40Z</time>
      </trkpt>
      <trkpt lat="45.98373" lon="4.89039">
        <ele>284</ele>
        <time>2016-08-29T15:01:41Z</time>
      </trkpt>
      <trkpt lat="45.9837" lon="4.89027">
        <ele>284</ele>
        <time>2016-08-29T15:01:42Z</time>
      </trkpt>
      <trkpt lat="45.98367" lon="4.89016">
        <ele>283</ele>
        <time>2016-08-29T15:01:43Z</time>
      </trkpt>
      <trkpt lat="45.98364" lon="4.89003">
        <ele>283</ele>
        <time>2016-08-29T15:01:44Z</time>
      </trkpt>
      <trkpt lat="45.98363" lon="4.8899">
        <ele>282</ele>
        <time>2016-08-29T15:01:45Z</time>
      </trkpt>
      <trkpt lat="45.98361" lon="4.88977">
        <ele>282</ele>
        <time>2016-08-29T15:01:46Z</time>
      </trkpt>
      <trkpt lat="45.98359" lon="4.88965">
        <ele>282</ele>
        <time>2016-08-29T15:01:47Z</time>
      </trkpt>
      <trkpt lat="45.98356" lon="4.88954">
        <ele>282</ele>
        <time>2016-08-29T15:01:48Z</time>
      </trkpt>
      <trkpt lat="45.98354" lon="4.88942">
        <ele>282</ele>
        <time>2016-08-29T15:01:49Z</time>
      </trkpt>
      <trkpt lat="45.98351" lon="4.8893">
        <ele>281</ele>
        <time>2016-08-29T15:01:50Z</time>
      </trkpt>
      <trkpt lat="45.98348" lon="4.88919">
        <ele>281</ele>
        <time>2016-08-29T15:01:51Z</time>
      </trkpt>
      <trkpt lat="45.98345" lon="4.88907">
        <ele>280</ele>
        <time>2016-08-29T15:01:52Z</time>
      </trkpt>
      <trkpt lat="45.98342" lon="4.88896">
        <ele>280</ele>
        <time>2016-08-29T15:01:53Z</time>
      </trkpt>
      <trkpt lat="45.98339" lon="4.88884">
        <ele>280</ele>
        <time>2016-08-29T15:01:54Z</time>
      </trkpt>
      <trkpt lat="45.98336" lon="4.88873">
        <ele>280</ele>
        <time>2016-08-29T15:01:55Z</time>
      </trkpt>
      <trkpt lat="45.98333" lon="4.88861">
        <ele>278</ele>
        <time>2016-08-29T15:01:56Z</time>
      </trkpt>
      <trkpt lat="45.9833" lon="4.8885">
        <ele>278</ele>
        <time>2016-08-29T15:01:57Z</time>
      </trkpt>
      <trkpt lat="45.98328" lon="4.88838">
        <ele>278</ele>
        <time>2016-08-29T15:01:58Z</time>
      </trkpt>
      <trkpt lat="45.98325" lon="4.88827">
        <ele>278</ele>
        <time>2016-08-29T15:01:59Z</time>
      </trkpt>
      <trkpt lat="45.98322" lon="4.88815">
        <ele>277</ele>
        <time>2016-08-29T15:02:00Z</time>
      </trkpt>
      <trkpt lat="45.98319" lon="4.88804">
        <ele>277</ele>
        <time>2016-08-29T15:02:01Z</time>
      </trkpt>
      <trkpt lat="45.98316" lon="4.88792">
        <ele>277</ele>
        <time>2016-08-29T15:02:02Z</time>
      </trkpt>
      <trkpt lat="45.98313" lon="4.8878">
        <ele>277</ele>
        <time>2016-08-29T15:02:03Z</time>
      </trkpt>
      <trkpt lat="45.9831" lon="4.88769">
        <ele>277</ele>
        <time>2016-08-29T15:02:04Z</time>
      </trkpt>
      <trkpt lat="45.98308" lon="4.88758">
        <ele>276</ele>
        <time>2016-08-29T15:02:05Z</time>
      </trkpt>
      <trkpt lat="45.98305" lon="4.88747">
        <ele>276</ele>
        <time>2016-08-29T15:02:06Z</time>
      </trkpt>
      <trkpt lat="45.98302" lon="4.88736">
        <ele>276</ele>
        <time>2016-08-29T15:02:07Z</time>
      </trkpt>
      <trkpt lat="45.983" lon="4.88725">
        <ele>276</ele>
        <time>2016-08-29T15:02:08Z</time>
      </trkpt>
      <trkpt lat="45.98297" lon="4.88715">
        <ele>276</ele>
        <time>2016-08-29T15:02:09Z</time>
      </trkpt>
      <trkpt lat="45.98295" lon="4.88705">
        <ele>276</ele>
        <time>2016-08-29T15:02:10Z</time>
      </trkpt>
      <trkpt lat="45.98292" lon="4.88694">
        <ele>276</ele>
        <time>2016-08-29T15:02:11Z</time>
      </trkpt>
      <trkpt lat="45.9829" lon="4.88684">
        <ele>276</ele>
        <time>2016-08-29T15:02:12Z</time>
      </trkpt>
      <trkpt lat="45.98287" lon="4.88674">
        <ele>276</ele>
        <time>2016-08-29T15:02:13Z</time>
      </trkpt>
      <trkpt lat="45.98285" lon="4.88663">
        <ele>276</ele>
        <time>2016-08-29T15:02:14Z</time>
      </trkpt>
      <trkpt lat="45.98282" lon="4.88653">
        <ele>276</ele>
        <time>2016-08-29T15:02:15Z</time>
      </trkpt>
      <trkpt lat="45.98279" lon="4.88644">
        <ele>276</ele>
        <time>2016-08-29T15:02:16Z</time>
      </trkpt>
      <trkpt lat="45.98276" lon="4.88633">
        <ele>276</ele>
        <time>2016-08-29T15:02:17Z</time>
      </trkpt>
      <trkpt lat="45.98274" lon="4.88622">
        <ele>276</ele>
        <time>2016-08-29T15:02:18Z</time>
      </trkpt>
      <trkpt lat="45.98271" lon="4.88612">
        <ele>276</ele>
        <time>2016-08-29T15:02:19Z</time>
      </trkpt>
      <trkpt lat="45.98268" lon="4.88601">
        <ele>276</ele>
        <time>2016-08-29T15:02:20Z</time>
      </trkpt>
      <trkpt lat="45.98266" lon="4.88591">
        <ele>275</ele>
        <time>2016-08-29T15:02:21Z</time>
      </trkpt>
      <trkpt lat="45.98264" lon="4.88582">
        <ele>276</ele>
        <time>2016-08-29T15:02:22Z</time>
      </trkpt>
      <trkpt lat="45.98261" lon="4.88572">
        <ele>276</ele>
        <time>2016-08-29T15:02:23Z</time>
      </trkpt>
      <trkpt lat="45.98259" lon="4.88563">
        <ele>276</ele>
        <time>2016-08-29T15:02:24Z</time>
      </trkpt>
      <trkpt lat="45.98257" lon="4.88554">
        <ele>276</ele>
        <time>2016-08-29T15:02:25Z</time>
      </trkpt>
      <trkpt lat="45.98255" lon="4.88546">
        <ele>276</ele>
        <time>2016-08-29T15:02:26Z</time>
      </trkpt>
      <trkpt lat="45.98252" lon="4.88538">
        <ele>276</ele>
        <time>2016-08-29T15:02:27Z</time>
      </trkpt>
      <trkpt lat="45.9825" lon="4.88529">
        <ele>277</ele>
        <time>2016-08-29T15:02:28Z</time>
      </trkpt>
      <trkpt lat="45.98248" lon="4.88521">
        <ele>276</ele>
        <time>2016-08-29T15:02:29Z</time>
      </trkpt>
      <trkpt lat="45.98246" lon="4.88513">
        <ele>276</ele>
        <time>2016-08-29T15:02:30Z</time>
      </trkpt>
      <trkpt lat="45.98243" lon="4.88505">
        <ele>277</ele>
        <time>2016-08-29T15:02:31Z</time>
      </trkpt>
      <trkpt lat="45.98241" lon="4.88496">
        <ele>277</ele>
        <time>2016-08-29T15:02:32Z</time>
      </trkpt>
      <trkpt lat="45.98239" lon="4.88487">
        <ele>276</ele>
        <time>2016-08-29T15:02:33Z</time>
      </trkpt>
      <trkpt lat="45.98237" lon="4.88477">
        <ele>276</ele>
        <time>2016-08-29T15:02:34Z</time>
      </trkpt>
      <trkpt lat="45.98235" lon="4.88468">
        <ele>276</ele>
        <time>2016-08-29T15:02:35Z</time>
      </trkpt>
      <trkpt lat="45.98234" lon="4.88459">
        <ele>276</ele>
        <time>2016-08-29T15:02:36Z</time>
      </trkpt>
      <trkpt lat="45.98232" lon="4.8845">
        <ele>276</ele>
        <time>2016-08-29T15:02:37Z</time>
      </trkpt>
      <trkpt lat="45.9823" lon="4.88441">
        <ele>276</ele>
        <time>2016-08-29T15:02:38Z</time>
      </trkpt>
      <trkpt lat="45.98228" lon="4.88432">
        <ele>276</ele>
        <time>2016-08-29T15:02:39Z</time>
      </trkpt>
      <trkpt lat="45.98226" lon="4.88424">
        <ele>276</ele>
        <time>2016-08-29T15:02:40Z</time>
      </trkpt>
      <trkpt lat="45.98224" lon="4.88415">
        <ele>275</ele>
        <time>2016-08-29T15:02:41Z</time>
      </trkpt>
      <trkpt lat="45.98222" lon="4.88407">
        <ele>275</ele>
        <time>2016-08-29T15:02:42Z</time>
      </trkpt>
      <trkpt lat="45.9822" lon="4.88398">
        <ele>275</ele>
        <time>2016-08-29T15:02:43Z</time>
      </trkpt>
      <trkpt lat="45.98218" lon="4.88389">
        <ele>275</ele>
        <time>2016-08-29T15:02:44Z</time>
      </trkpt>
      <trkpt lat="45.98216" lon="4.8838">
        <ele>275</ele>
        <time>2016-08-29T15:02:45Z</time>
      </trkpt>
      <trkpt lat="45.98215" lon="4.8837">
        <ele>275</ele>
        <time>2016-08-29T15:02:46Z</time>
      </trkpt>
      <trkpt lat="45.98214" lon="4.88361">
        <ele>275</ele>
        <time>2016-08-29T15:02:47Z</time>
      </trkpt>
      <trkpt lat="45.98214" lon="4.88351">
        <ele>275</ele>
        <time>2016-08-29T15:02:48Z</time>
      </trkpt>
      <trkpt lat="45.98214" lon="4.88342">
        <ele>275</ele>
        <time>2016-08-29T15:02:49Z</time>
      </trkpt>
      <trkpt lat="45.98214" lon="4.88332">
        <ele>274</ele>
        <time>2016-08-29T15:02:50Z</time>
      </trkpt>
      <trkpt lat="45.98214" lon="4.88323">
        <ele>274</ele>
        <time>2016-08-29T15:02:51Z</time>
      </trkpt>
      <trkpt lat="45.98213" lon="4.88314">
        <ele>274</ele>
        <time>2016-08-29T15:02:52Z</time>
      </trkpt>
      <trkpt lat="45.98212" lon="4.88305">
        <ele>274</ele>
        <time>2016-08-29T15:02:53Z</time>
      </trkpt>
      <trkpt lat="45.9821" lon="4.88296">
        <ele>274</ele>
        <time>2016-08-29T15:02:54Z</time>
      </trkpt>
      <trkpt lat="45.98209" lon="4.88286">
        <ele>274</ele>
        <time>2016-08-29T15:02:55Z</time>
      </trkpt>
      <trkpt lat="45.98207" lon="4.88277">
        <ele>274</ele>
        <time>2016-08-29T15:02:56Z</time>
      </trkpt>
      <trkpt lat="45.98205" lon="4.88267">
        <ele>274</ele>
        <time>2016-08-29T15:02:57Z</time>
      </trkpt>
      <trkpt lat="45.98203" lon="4.88258">
        <ele>274</ele>
        <time>2016-08-29T15:02:58Z</time>
      </trkpt>
      <trkpt lat="45.982" lon="4.88248">
        <ele>273</ele>
        <time>2016-08-29T15:02:59Z</time>
      </trkpt>
      <trkpt lat="45.98197" lon="4.88238">
        <ele>273</ele>
        <time>2016-08-29T15:03:00Z</time>
      </trkpt>
      <trkpt lat="45.98194" lon="4.88228">
        <ele>273</ele>
        <time>2016-08-29T15:03:01Z</time>
      </trkpt>
      <trkpt lat="45.98192" lon="4.88219">
        <ele>273</ele>
        <time>2016-08-29T15:03:02Z</time>
      </trkpt>
      <trkpt lat="45.98189" lon="4.88209">
        <ele>273</ele>
        <time>2016-08-29T15:03:03Z</time>
      </trkpt>
      <trkpt lat="45.98185" lon="4.88199">
        <ele>273</ele>
        <time>2016-08-29T15:03:04Z</time>
      </trkpt>
      <trkpt lat="45.98182" lon="4.88189">
        <ele>273</ele>
        <time>2016-08-29T15:03:05Z</time>
      </trkpt>
      <trkpt lat="45.98179" lon="4.8818">
        <ele>273</ele>
        <time>2016-08-29T15:03:06Z</time>
      </trkpt>
      <trkpt lat="45.98176" lon="4.8817">
        <ele>273</ele>
        <time>2016-08-29T15:03:07Z</time>
      </trkpt>
      <trkpt lat="45.98173" lon="4.8816">
        <ele>273</ele>
        <time>2016-08-29T15:03:08Z</time>
      </trkpt>
      <trkpt lat="45.9817" lon="4.88151">
        <ele>273</ele>
        <time>2016-08-29T15:03:09Z</time>
      </trkpt>
      <trkpt lat="45.98168" lon="4.88142">
        <ele>273</ele>
        <time>2016-08-29T15:03:10Z</time>
      </trkpt>
      <trkpt lat="45.98165" lon="4.88134">
        <ele>274</ele>
        <time>2016-08-29T15:03:11Z</time>
      </trkpt>
      <trkpt lat="45.98162" lon="4.88125">
        <ele>274</ele>
        <time>2016-08-29T15:03:12Z</time>
      </trkpt>
      <trkpt lat="45.98159" lon="4.88117">
        <ele>274</ele>
        <time>2016-08-29T15:03:13Z</time>
      </trkpt>
      <trkpt lat="45.98157" lon="4.88109">
        <ele>274</ele>
        <time>2016-08-29T15:03:14Z</time>
      </trkpt>
      <trkpt lat="45.98154" lon="4.88101">
        <ele>274</ele>
        <time>2016-08-29T15:03:15Z</time>
      </trkpt>
      <trkpt lat="45.98152" lon="4.88093">
        <ele>274</ele>
        <time>2016-08-29T15:03:16Z</time>
      </trkpt>
      <trkpt lat="45.9815" lon="4.88086">
        <ele>274</ele>
        <time>2016-08-29T15:03:17Z</time>
      </trkpt>
      <trkpt lat="45.98147" lon="4.88078">
        <ele>275</ele>
        <time>2016-08-29T15:03:18Z</time>
      </trkpt>
      <trkpt lat="45.98145" lon="4.8807">
        <ele>275</ele>
        <time>2016-08-29T15:03:19Z</time>
      </trkpt>
      <trkpt lat="45.98142" lon="4.88063">
        <ele>275</ele>
        <time>2016-08-29T15:03:20Z</time>
      </trkpt>
      <trkpt lat="45.9814" lon="4.88055">
        <ele>275</ele>
        <time>2016-08-29T15:03:21Z</time>
      </trkpt>
      <trkpt lat="45.98138" lon="4.88047">
        <ele>275</ele>
        <time>2016-08-29T15:03:22Z</time>
      </trkpt>
      <trkpt lat="45.98136" lon="4.8804">
        <ele>276</ele>
        <time>2016-08-29T15:03:23Z</time>
      </trkpt>
      <trkpt lat="45.98134" lon="4.88032">
        <ele>276</ele>
        <time>2016-08-29T15:03:24Z</time>
      </trkpt>
      <trkpt lat="45.98132" lon="4.88024">
        <ele>276</ele>
        <time>2016-08-29T15:03:25Z</time>
      </trkpt>
      <trkpt lat="45.9813" lon="4.88018">
        <ele>276</ele>
        <time>2016-08-29T15:03:26Z</time>
      </trkpt>
      <trkpt lat="45.98128" lon="4.88011">
        <ele>276</ele>
        <time>2016-08-29T15:03:27Z</time>
      </trkpt>
      <trkpt lat="45.98126" lon="4.88005">
        <ele>276</ele>
        <time>2016-08-29T15:03:28Z</time>
      </trkpt>
      <trkpt lat="45.98124" lon="4.87998">
        <ele>277</ele>
        <time>2016-08-29T15:03:29Z</time>
      </trkpt>
      <trkpt lat="45.98122" lon="4.87992">
        <ele>277</ele>
        <time>2016-08-29T15:03:30Z</time>
      </trkpt>
      <trkpt lat="45.9812" lon="4.87986">
        <ele>277</ele>
        <time>2016-08-29T15:03:31Z</time>
      </trkpt>
      <trkpt lat="45.98118" lon="4.8798">
        <ele>277</ele>
        <time>2016-08-29T15:03:32Z</time>
      </trkpt>
      <trkpt lat="45.98116" lon="4.87974">
        <ele>277</ele>
        <time>2016-08-29T15:03:33Z</time>
      </trkpt>
      <trkpt lat="45.98115" lon="4.87967">
        <ele>277</ele>
        <time>2016-08-29T15:03:34Z</time>
      </trkpt>
      <trkpt lat="45.98113" lon="4.87961">
        <ele>277</ele>
        <time>2016-08-29T15:03:35Z</time>
      </trkpt>
      <trkpt lat="45.98111" lon="4.87955">
        <ele>277</ele>
        <time>2016-08-29T15:03:36Z</time>
      </trkpt>
      <trkpt lat="45.98109" lon="4.87949">
        <ele>277</ele>
        <time>2016-08-29T15:03:37Z</time>
      </trkpt>
      <trkpt lat="45.98107" lon="4.87942">
        <ele>277</ele>
        <time>2016-08-29T15:03:38Z</time>
      </trkpt>
      <trkpt lat="45.98105" lon="4.87935">
        <ele>277</ele>
        <time>2016-08-29T15:03:39Z</time>
      </trkpt>
      <trkpt lat="45.98103" lon="4.87929">
        <ele>277</ele>
        <time>2016-08-29T15:03:40Z</time>
      </trkpt>
      <trkpt lat="45.98101" lon="4.87922">
        <ele>278</ele>
        <time>2016-08-29T15:03:41Z</time>
      </trkpt>
      <trkpt lat="45.98099" lon="4.87916">
        <ele>278</ele>
        <time>2016-08-29T15:03:42Z</time>
      </trkpt>
      <trkpt lat="45.98097" lon="4.8791">
        <ele>278</ele>
        <time>2016-08-29T15:03:43Z</time>
      </trkpt>
      <trkpt lat="45.98094" lon="4.87897">
        <ele>278</ele>
        <time>2016-08-29T15:03:45Z</time>
      </trkpt>
      <trkpt lat="45.98093" lon="4.87891">
        <ele>278</ele>
        <time>2016-08-29T15:03:46Z</time>
      </trkpt>
      <trkpt lat="45.98089" lon="4.8788">
        <ele>278</ele>
        <time>2016-08-29T15:03:48Z</time>
      </trkpt>
      <trkpt lat="45.98087" lon="4.87874">
        <ele>278</ele>
        <time>2016-08-29T15:03:49Z</time>
      </trkpt>
      <trkpt lat="45.98085" lon="4.87867">
        <ele>278</ele>
        <time>2016-08-29T15:03:50Z</time>
      </trkpt>
      <trkpt lat="45.98083" lon="4.8786">
        <ele>280</ele>
        <time>2016-08-29T15:03:51Z</time>
      </trkpt>
      <trkpt lat="45.98082" lon="4.87853">
        <ele>280</ele>
        <time>2016-08-29T15:03:52Z</time>
      </trkpt>
      <trkpt lat="45.9808" lon="4.87846">
        <ele>279</ele>
        <time>2016-08-29T15:03:53Z</time>
      </trkpt>
      <trkpt lat="45.98078" lon="4.87839">
        <ele>279</ele>
        <time>2016-08-29T15:03:54Z</time>
      </trkpt>
      <trkpt lat="45.98076" lon="4.87832">
        <ele>279</ele>
        <time>2016-08-29T15:03:55Z</time>
      </trkpt>
      <trkpt lat="45.98074" lon="4.87826">
        <ele>279</ele>
        <time>2016-08-29T15:03:56Z</time>
      </trkpt>
      <trkpt lat="45.98072" lon="4.87819">
        <ele>279</ele>
        <time>2016-08-29T15:03:57Z</time>
      </trkpt>
      <trkpt lat="45.9807" lon="4.87813">
        <ele>280</ele>
        <time>2016-08-29T15:03:58Z</time>
      </trkpt>
      <trkpt lat="45.98068" lon="4.87807">
        <ele>280</ele>
        <time>2016-08-29T15:03:59Z</time>
      </trkpt>
      <trkpt lat="45.98066" lon="4.878">
        <ele>280</ele>
        <time>2016-08-29T15:04:00Z</time>
      </trkpt>
      <trkpt lat="45.98064" lon="4.87794">
        <ele>280</ele>
        <time>2016-08-29T15:04:01Z</time>
      </trkpt>
      <trkpt lat="45.98063" lon="4.87787">
        <ele>280</ele>
        <time>2016-08-29T15:04:02Z</time>
      </trkpt>
      <trkpt lat="45.98061" lon="4.87782">
        <ele>280</ele>
        <time>2016-08-29T15:04:03Z</time>
      </trkpt>
      <trkpt lat="45.98058" lon="4.87776">
        <ele>280</ele>
        <time>2016-08-29T15:04:04Z</time>
      </trkpt>
      <trkpt lat="45.98056" lon="4.8777">
        <ele>280</ele>
        <time>2016-08-29T15:04:05Z</time>
      </trkpt>
      <trkpt lat="45.98053" lon="4.87764">
        <ele>280</ele>
        <time>2016-08-29T15:04:06Z</time>
      </trkpt>
      <trkpt lat="45.98051" lon="4.87757">
        <ele>280</ele>
        <time>2016-08-29T15:04:07Z</time>
      </trkpt>
      <trkpt lat="45.98049" lon="4.87751">
        <ele>280</ele>
        <time>2016-08-29T15:04:08Z</time>
      </trkpt>
      <trkpt lat="45.98047" lon="4.87744">
        <ele>280</ele>
        <time>2016-08-29T15:04:09Z</time>
      </trkpt>
      <trkpt lat="45.98044" lon="4.87736">
        <ele>280</ele>
        <time>2016-08-29T15:04:10Z</time>
      </trkpt>
      <trkpt lat="45.98042" lon="4.87729">
        <ele>280</ele>
        <time>2016-08-29T15:04:11Z</time>
      </trkpt>
      <trkpt lat="45.9804" lon="4.87722">
        <ele>279</ele>
        <time>2016-08-29T15:04:12Z</time>
      </trkpt>
      <trkpt lat="45.98039" lon="4.87715">
        <ele>279</ele>
        <time>2016-08-29T15:04:13Z</time>
      </trkpt>
      <trkpt lat="45.98037" lon="4.87709">
        <ele>279</ele>
        <time>2016-08-29T15:04:14Z</time>
      </trkpt>
      <trkpt lat="45.98035" lon="4.87703">
        <ele>280</ele>
        <time>2016-08-29T15:04:15Z</time>
      </trkpt>
      <trkpt lat="45.98031" lon="4.87692">
        <ele>280</ele>
        <time>2016-08-29T15:04:17Z</time>
      </trkpt>
      <trkpt lat="45.98029" lon="4.87686">
        <ele>280</ele>
        <time>2016-08-29T15:04:18Z</time>
      </trkpt>
      <trkpt lat="45.98026" lon="4.87674">
        <ele>280</ele>
        <time>2016-08-29T15:04:20Z</time>
      </trkpt>
      <trkpt lat="45.98025" lon="4.87669">
        <ele>280</ele>
        <time>2016-08-29T15:04:21Z</time>
      </trkpt>
      <trkpt lat="45.98023" lon="4.87658">
        <ele>280</ele>
        <time>2016-08-29T15:04:23Z</time>
      </trkpt>
      <trkpt lat="45.98022" lon="4.87654">
        <ele>280</ele>
        <time>2016-08-29T15:04:24Z</time>
      </trkpt>
      <trkpt lat="45.98018" lon="4.87643">
        <ele>280</ele>
        <time>2016-08-29T15:04:26Z</time>
      </trkpt>
      <trkpt lat="45.98016" lon="4.87638">
        <ele>280</ele>
        <time>2016-08-29T15:04:27Z</time>
      </trkpt>
      <trkpt lat="45.98014" lon="4.87632">
        <ele>280</ele>
        <time>2016-08-29T15:04:28Z</time>
      </trkpt>
      <trkpt lat="45.98012" lon="4.87626">
        <ele>280</ele>
        <time>2016-08-29T15:04:29Z</time>
      </trkpt>
      <trkpt lat="45.9801" lon="4.87619">
        <ele>280</ele>
        <time>2016-08-29T15:04:30Z</time>
      </trkpt>
      <trkpt lat="45.98008" lon="4.87613">
        <ele>280</ele>
        <time>2016-08-29T15:04:31Z</time>
      </trkpt>
      <trkpt lat="45.98006" lon="4.87605">
        <ele>280</ele>
        <time>2016-08-29T15:04:32Z</time>
      </trkpt>
      <trkpt lat="45.98003" lon="4.87597">
        <ele>280</ele>
        <time>2016-08-29T15:04:33Z</time>
      </trkpt>
      <trkpt lat="45.98" lon="4.87591">
        <ele>280</ele>
        <time>2016-08-29T15:04:34Z</time>
      </trkpt>
      <trkpt lat="45.97997" lon="4.87584">
        <ele>280</ele>
        <time>2016-08-29T15:04:35Z</time>
      </trkpt>
      <trkpt lat="45.97993" lon="4.87577">
        <ele>280</ele>
        <time>2016-08-29T15:04:36Z</time>
      </trkpt>
      <trkpt lat="45.97989" lon="4.87572">
        <ele>280</ele>
        <time>2016-08-29T15:04:37Z</time>
      </trkpt>
      <trkpt lat="45.97984" lon="4.87565">
        <ele>279</ele>
        <time>2016-08-29T15:04:38Z</time>
      </trkpt>
      <trkpt lat="45.9798" lon="4.87559">
        <ele>279</ele>
        <time>2016-08-29T15:04:39Z</time>
      </trkpt>
      <trkpt lat="45.97975" lon="4.87554">
        <ele>279</ele>
        <time>2016-08-29T15:04:40Z</time>
      </trkpt>
      <trkpt lat="45.97971" lon="4.8755">
        <ele>279</ele>
        <time>2016-08-29T15:04:41Z</time>
      </trkpt>
      <trkpt lat="45.97966" lon="4.87546">
        <ele>279</ele>
        <time>2016-08-29T15:04:42Z</time>
      </trkpt>
      <trkpt lat="45.97961" lon="4.87544">
        <ele>279</ele>
        <time>2016-08-29T15:04:43Z</time>
      </trkpt>
      <trkpt lat="45.97955" lon="4.8754">
        <ele>279</ele>
        <time>2016-08-29T15:04:44Z</time>
      </trkpt>
      <trkpt lat="45.9795" lon="4.87538">
        <ele>279</ele>
        <time>2016-08-29T15:04:45Z</time>
      </trkpt>
      <trkpt lat="45.97945" lon="4.87535">
        <ele>279</ele>
        <time>2016-08-29T15:04:46Z</time>
      </trkpt>
      <trkpt lat="45.9794" lon="4.87532">
        <ele>279</ele>
        <time>2016-08-29T15:04:47Z</time>
      </trkpt>
      <trkpt lat="45.97936" lon="4.8753">
        <ele>279</ele>
        <time>2016-08-29T15:04:48Z</time>
      </trkpt>
      <trkpt lat="45.97931" lon="4.87528">
        <ele>279</ele>
        <time>2016-08-29T15:04:49Z</time>
      </trkpt>
      <trkpt lat="45.97925" lon="4.87525">
        <ele>279</ele>
        <time>2016-08-29T15:04:50Z</time>
      </trkpt>
      <trkpt lat="45.9792" lon="4.87523">
        <ele>280</ele>
        <time>2016-08-29T15:04:51Z</time>
      </trkpt>
      <trkpt lat="45.97914" lon="4.87521">
        <ele>280</ele>
        <time>2016-08-29T15:04:52Z</time>
      </trkpt>
      <trkpt lat="45.97909" lon="4.87519">
        <ele>280</ele>
        <time>2016-08-29T15:04:53Z</time>
      </trkpt>
      <trkpt lat="45.97904" lon="4.87516">
        <ele>280</ele>
        <time>2016-08-29T15:04:54Z</time>
      </trkpt>
      <trkpt lat="45.97898" lon="4.87513">
        <ele>280</ele>
        <time>2016-08-29T15:04:55Z</time>
      </trkpt>
      <trkpt lat="45.97892" lon="4.8751">
        <ele>280</ele>
        <time>2016-08-29T15:04:56Z</time>
      </trkpt>
      <trkpt lat="45.97887" lon="4.87508">
        <ele>281</ele>
        <time>2016-08-29T15:04:57Z</time>
      </trkpt>
      <trkpt lat="45.97881" lon="4.87505">
        <ele>281</ele>
        <time>2016-08-29T15:04:58Z</time>
      </trkpt>
      <trkpt lat="45.97876" lon="4.87501">
        <ele>281</ele>
        <time>2016-08-29T15:04:59Z</time>
      </trkpt>
      <trkpt lat="45.97871" lon="4.87497">
        <ele>280</ele>
        <time>2016-08-29T15:05:00Z</time>
      </trkpt>
      <trkpt lat="45.97865" lon="4.87493">
        <ele>280</ele>
        <time>2016-08-29T15:05:01Z</time>
      </trkpt>
      <trkpt lat="45.9786" lon="4.87489">
        <ele>281</ele>
        <time>2016-08-29T15:05:02Z</time>
      </trkpt>
      <trkpt lat="45.97855" lon="4.87484">
        <ele>281</ele>
        <time>2016-08-29T15:05:03Z</time>
      </trkpt>
      <trkpt lat="45.9785" lon="4.87479">
        <ele>281</ele>
        <time>2016-08-29T15:05:04Z</time>
      </trkpt>
      <trkpt lat="45.97846" lon="4.87474">
        <ele>281</ele>
        <time>2016-08-29T15:05:05Z</time>
      </trkpt>
      <trkpt lat="45.97841" lon="4.87469">
        <ele>281</ele>
        <time>2016-08-29T15:05:06Z</time>
      </trkpt>
      <trkpt lat="45.97837" lon="4.87464">
        <ele>281</ele>
        <time>2016-08-29T15:05:07Z</time>
      </trkpt>
      <trkpt lat="45.97833" lon="4.8746">
        <ele>282</ele>
        <time>2016-08-29T15:05:08Z</time>
      </trkpt>
      <trkpt lat="45.97829" lon="4.87457">
        <ele>282</ele>
        <time>2016-08-29T15:05:09Z</time>
      </trkpt>
      <trkpt lat="45.97822" lon="4.8745">
        <ele>282</ele>
        <time>2016-08-29T15:05:11Z</time>
      </trkpt>
      <trkpt lat="45.97818" lon="4.87447">
        <ele>282</ele>
        <time>2016-08-29T15:05:12Z</time>
      </trkpt>
      <trkpt lat="45.97812" lon="4.87438">
        <ele>282</ele>
        <time>2016-08-29T15:05:14Z</time>
      </trkpt>
      <trkpt lat="45.97808" lon="4.87434">
        <ele>282</ele>
        <time>2016-08-29T15:05:15Z</time>
      </trkpt>
      <trkpt lat="45.97805" lon="4.8743">
        <ele>283</ele>
        <time>2016-08-29T15:05:16Z</time>
      </trkpt>
      <trkpt lat="45.97801" lon="4.87426">
        <ele>283</ele>
        <time>2016-08-29T15:05:17Z</time>
      </trkpt>
      <trkpt lat="45.97797" lon="4.87422">
        <ele>283</ele>
        <time>2016-08-29T15:05:18Z</time>
      </trkpt>
      <trkpt lat="45.97793" lon="4.87417">
        <ele>283</ele>
        <time>2016-08-29T15:05:19Z</time>
      </trkpt>
      <trkpt lat="45.97789" lon="4.87413">
        <ele>284</ele>
        <time>2016-08-29T15:05:20Z</time>
      </trkpt>
      <trkpt lat="45.97784" lon="4.87408">
        <ele>284</ele>
        <time>2016-08-29T15:05:21Z</time>
      </trkpt>
      <trkpt lat="45.9778" lon="4.87404">
        <ele>284</ele>
        <time>2016-08-29T15:05:22Z</time>
      </trkpt>
      <trkpt lat="45.97776" lon="4.87399">
        <ele>284</ele>
        <time>2016-08-29T15:05:23Z</time>
      </trkpt>
      <trkpt lat="45.97772" lon="4.87395">
        <ele>284</ele>
        <time>2016-08-29T15:05:24Z</time>
      </trkpt>
      <trkpt lat="45.97768" lon="4.8739">
        <ele>284</ele>
        <time>2016-08-29T15:05:25Z</time>
      </trkpt>
      <trkpt lat="45.97764" lon="4.87385">
        <ele>284</ele>
        <time>2016-08-29T15:05:26Z</time>
      </trkpt>
      <trkpt lat="45.97761" lon="4.8738">
        <ele>284</ele>
        <time>2016-08-29T15:05:27Z</time>
      </trkpt>
      <trkpt lat="45.97754" lon="4.87371">
        <ele>285</ele>
        <time>2016-08-29T15:05:29Z</time>
      </trkpt>
      <trkpt lat="45.97751" lon="4.87367">
        <ele>285</ele>
        <time>2016-08-29T15:05:30Z</time>
      </trkpt>
      <trkpt lat="45.97747" lon="4.87363">
        <ele>285</ele>
        <time>2016-08-29T15:05:31Z</time>
      </trkpt>
      <trkpt lat="45.97744" lon="4.87359">
        <ele>285</ele>
        <time>2016-08-29T15:05:32Z</time>
      </trkpt>
      <trkpt lat="45.97738" lon="4.8735">
        <ele>286</ele>
        <time>2016-08-29T15:05:34Z</time>
      </trkpt>
      <trkpt lat="45.97735" lon="4.87346">
        <ele>286</ele>
        <time>2016-08-29T15:05:35Z</time>
      </trkpt>
      <trkpt lat="45.97731" lon="4.87341">
        <ele>286</ele>
        <time>2016-08-29T15:05:36Z</time>
      </trkpt>
      <trkpt lat="45.97727" lon="4.87335">
        <ele>286</ele>
        <time>2016-08-29T15:05:37Z</time>
      </trkpt>
      <trkpt lat="45.97723" lon="4.8733">
        <ele>286</ele>
        <time>2016-08-29T15:05:38Z</time>
      </trkpt>
      <trkpt lat="45.97719" lon="4.87325">
        <ele>286</ele>
        <time>2016-08-29T15:05:39Z</time>
      </trkpt>
      <trkpt lat="45.97714" lon="4.87319">
        <ele>286</ele>
        <time>2016-08-29T15:05:40Z</time>
      </trkpt>
      <trkpt lat="45.97709" lon="4.87314">
        <ele>286</ele>
        <time>2016-08-29T15:05:41Z</time>
      </trkpt>
      <trkpt lat="45.97706" lon="4.87308">
        <ele>286</ele>
        <time>2016-08-29T15:05:42Z</time>
      </trkpt>
      <trkpt lat="45.97701" lon="4.87303">
        <ele>286</ele>
        <time>2016-08-29T15:05:43Z</time>
      </trkpt>
      <trkpt lat="45.97696" lon="4.87299">
        <ele>286</ele>
        <time>2016-08-29T15:05:44Z</time>
      </trkpt>
      <trkpt lat="45.97692" lon="4.87295">
        <ele>286</ele>
        <time>2016-08-29T15:05:45Z</time>
      </trkpt>
      <trkpt lat="45.97687" lon="4.87291">
        <ele>286</ele>
        <time>2016-08-29T15:05:46Z</time>
      </trkpt>
      <trkpt lat="45.97684" lon="4.87287">
        <ele>286</ele>
        <time>2016-08-29T15:05:47Z</time>
      </trkpt>
      <trkpt lat="45.9768" lon="4.87283">
        <ele>286</ele>
        <time>2016-08-29T15:05:48Z</time>
      </trkpt>
      <trkpt lat="45.97676" lon="4.87279">
        <ele>286</ele>
        <time>2016-08-29T15:05:49Z</time>
      </trkpt>
      <trkpt lat="45.97672" lon="4.87275">
        <ele>286</ele>
        <time>2016-08-29T15:05:50Z</time>
      </trkpt>
      <trkpt lat="45.97668" lon="4.87272">
        <ele>286</ele>
        <time>2016-08-29T15:05:51Z</time>
      </trkpt>
      <trkpt lat="45.97663" lon="4.87268">
        <ele>285</ele>
        <time>2016-08-29T15:05:52Z</time>
      </trkpt>
      <trkpt lat="45.97659" lon="4.87264">
        <ele>285</ele>
        <time>2016-08-29T15:05:53Z</time>
      </trkpt>
      <trkpt lat="45.97654" lon="4.8726">
        <ele>285</ele>
        <time>2016-08-29T15:05:54Z</time>
      </trkpt>
      <trkpt lat="45.9765" lon="4.87257">
        <ele>285</ele>
        <time>2016-08-29T15:05:55Z</time>
      </trkpt>
      <trkpt lat="45.97645" lon="4.87253">
        <ele>285</ele>
        <time>2016-08-29T15:05:56Z</time>
      </trkpt>
      <trkpt lat="45.9764" lon="4.87248">
        <ele>284</ele>
        <time>2016-08-29T15:05:57Z</time>
      </trkpt>
      <trkpt lat="45.97636" lon="4.87243">
        <ele>284</ele>
        <time>2016-08-29T15:05:58Z</time>
      </trkpt>
      <trkpt lat="45.97631" lon="4.87238">
        <ele>284</ele>
        <time>2016-08-29T15:05:59Z</time>
      </trkpt>
      <trkpt lat="45.97626" lon="4.87233">
        <ele>284</ele>
        <time>2016-08-29T15:06:00Z</time>
      </trkpt>
      <trkpt lat="45.97622" lon="4.87229">
        <ele>284</ele>
        <time>2016-08-29T15:06:01Z</time>
      </trkpt>
      <trkpt lat="45.97617" lon="4.87224">
        <ele>284</ele>
        <time>2016-08-29T15:06:02Z</time>
      </trkpt>
      <trkpt lat="45.97613" lon="4.8722">
        <ele>284</ele>
        <time>2016-08-29T15:06:03Z</time>
      </trkpt>
      <trkpt lat="45.97609" lon="4.87215">
        <ele>284</ele>
        <time>2016-08-29T15:06:04Z</time>
      </trkpt>
      <trkpt lat="45.97604" lon="4.8721">
        <ele>284</ele>
        <time>2016-08-29T15:06:05Z</time>
      </trkpt>
      <trkpt lat="45.976" lon="4.87206">
        <ele>284</ele>
        <time>2016-08-29T15:06:06Z</time>
      </trkpt>
      <trkpt lat="45.97596" lon="4.87202">
        <ele>283</ele>
        <time>2016-08-29T15:06:07Z</time>
      </trkpt>
      <trkpt lat="45.97592" lon="4.87198">
        <ele>283</ele>
        <time>2016-08-29T15:06:08Z</time>
      </trkpt>
      <trkpt lat="45.97589" lon="4.87194">
        <ele>283</ele>
        <time>2016-08-29T15:06:09Z</time>
      </trkpt>
      <trkpt lat="45.97584" lon="4.8719">
        <ele>283</ele>
        <time>2016-08-29T15:06:10Z</time>
      </trkpt>
      <trkpt lat="45.97579" lon="4.87185">
        <ele>283</ele>
        <time>2016-08-29T15:06:11Z</time>
      </trkpt>
      <trkpt lat="45.97574" lon="4.8718">
        <ele>283</ele>
        <time>2016-08-29T15:06:12Z</time>
      </trkpt>
      <trkpt lat="45.9757" lon="4.87176">
        <ele>283</ele>
        <time>2016-08-29T15:06:13Z</time>
      </trkpt>
      <trkpt lat="45.97566" lon="4.87173">
        <ele>283</ele>
        <time>2016-08-29T15:06:14Z</time>
      </trkpt>
      <trkpt lat="45.97561" lon="4.87169">
        <ele>283</ele>
        <time>2016-08-29T15:06:15Z</time>
      </trkpt>
      <trkpt lat="45.97557" lon="4.87165">
        <ele>283</ele>
        <time>2016-08-29T15:06:16Z</time>
      </trkpt>
      <trkpt lat="45.97553" lon="4.87161">
        <ele>283</ele>
        <time>2016-08-29T15:06:17Z</time>
      </trkpt>
      <trkpt lat="45.97549" lon="4.87157">
        <ele>283</ele>
        <time>2016-08-29T15:06:18Z</time>
      </trkpt>
      <trkpt lat="45.97544" lon="4.87153">
        <ele>283</ele>
        <time>2016-08-29T15:06:19Z</time>
      </trkpt>
      <trkpt lat="45.97539" lon="4.87149">
        <ele>283</ele>
        <time>2016-08-29T15:06:20Z</time>
      </trkpt>
      <trkpt lat="45.97535" lon="4.87143">
        <ele>283</ele>
        <time>2016-08-29T15:06:21Z</time>
      </trkpt>
      <trkpt lat="45.9753" lon="4.87138">
        <ele>283</ele>
        <time>2016-08-29T15:06:22Z</time>
      </trkpt>
      <trkpt lat="45.97525" lon="4.87133">
        <ele>283</ele>
        <time>2016-08-29T15:06:23Z</time>
      </trkpt>
      <trkpt lat="45.9752" lon="4.87129">
        <ele>283</ele>
        <time>2016-08-29T15:06:24Z</time>
      </trkpt>
      <trkpt lat="45.97515" lon="4.87124">
        <ele>283</ele>
        <time>2016-08-29T15:06:25Z</time>
      </trkpt>
      <trkpt lat="45.97511" lon="4.87119">
        <ele>283</ele>
        <time>2016-08-29T15:06:26Z</time>
      </trkpt>
      <trkpt lat="45.97507" lon="4.87114">
        <ele>283</ele>
        <time>2016-08-29T15:06:27Z</time>
      </trkpt>
      <trkpt lat="45.97502" lon="4.8711">
        <ele>283</ele>
        <time>2016-08-29T15:06:28Z</time>
      </trkpt>
      <trkpt lat="45.97498" lon="4.87105">
        <ele>283</ele>
        <time>2016-08-29T15:06:29Z</time>
      </trkpt>
      <trkpt lat="45.97493" lon="4.871">
        <ele>283</ele>
        <time>2016-08-29T15:06:30Z</time>
      </trkpt>
      <trkpt lat="45.97488" lon="4.87096">
        <ele>283</ele>
        <time>2016-08-29T15:06:31Z</time>
      </trkpt>
      <trkpt lat="45.97483" lon="4.87091">
        <ele>283</ele>
        <time>2016-08-29T15:06:32Z</time>
      </trkpt>
      <trkpt lat="45.97479" lon="4.87085">
        <ele>283</ele>
        <time>2016-08-29T15:06:33Z</time>
      </trkpt>
      <trkpt lat="45.97474" lon="4.8708">
        <ele>284</ele>
        <time>2016-08-29T15:06:34Z</time>
      </trkpt>
      <trkpt lat="45.97469" lon="4.87075">
        <ele>284</ele>
        <time>2016-08-29T15:06:35Z</time>
      </trkpt>
      <trkpt lat="45.97465" lon="4.87071">
        <ele>284</ele>
        <time>2016-08-29T15:06:36Z</time>
      </trkpt>
      <trkpt lat="45.9746" lon="4.87066">
        <ele>284</ele>
        <time>2016-08-29T15:06:37Z</time>
      </trkpt>
      <trkpt lat="45.97455" lon="4.87061">
        <ele>284</ele>
        <time>2016-08-29T15:06:38Z</time>
      </trkpt>
      <trkpt lat="45.97451" lon="4.87056">
        <ele>284</ele>
        <time>2016-08-29T15:06:39Z</time>
      </trkpt>
      <trkpt lat="45.97447" lon="4.87051">
        <ele>284</ele>
        <time>2016-08-29T15:06:40Z</time>
      </trkpt>
      <trkpt lat="45.97443" lon="4.87046">
        <ele>284</ele>
        <time>2016-08-29T15:06:41Z</time>
      </trkpt>
      <trkpt lat="45.97438" lon="4.87042">
        <ele>284</ele>
        <time>2016-08-29T15:06:42Z</time>
      </trkpt>
      <trkpt lat="45.97434" lon="4.87036">
        <ele>284</ele>
        <time>2016-08-29T15:06:43Z</time>
      </trkpt>
      <trkpt lat="45.9743" lon="4.87031">
        <ele>284</ele>
        <time>2016-08-29T15:06:44Z</time>
      </trkpt>
      <trkpt lat="45.97426" lon="4.87027">
        <ele>284</ele>
        <time>2016-08-29T15:06:45Z</time>
      </trkpt>
      <trkpt lat="45.97421" lon="4.87022">
        <ele>284</ele>
        <time>2016-08-29T15:06:46Z</time>
      </trkpt>
      <trkpt lat="45.97416" lon="4.87018">
        <ele>285</ele>
        <time>2016-08-29T15:06:47Z</time>
      </trkpt>
      <trkpt lat="45.97411" lon="4.87013">
        <ele>285</ele>
        <time>2016-08-29T15:06:48Z</time>
      </trkpt>
      <trkpt lat="45.97406" lon="4.87008">
        <ele>285</ele>
        <time>2016-08-29T15:06:49Z</time>
      </trkpt>
      <trkpt lat="45.97401" lon="4.87004">
        <ele>285</ele>
        <time>2016-08-29T15:06:50Z</time>
      </trkpt>
      <trkpt lat="45.97396" lon="4.86999">
        <ele>285</ele>
        <time>2016-08-29T15:06:51Z</time>
      </trkpt>
      <trkpt lat="45.97392" lon="4.86994">
        <ele>285</ele>
        <time>2016-08-29T15:06:52Z</time>
      </trkpt>
      <trkpt lat="45.97388" lon="4.8699">
        <ele>285</ele>
        <time>2016-08-29T15:06:53Z</time>
      </trkpt>
      <trkpt lat="45.97381" lon="4.86985">
        <ele>285</ele>
        <time>2016-08-29T15:06:55Z</time>
      </trkpt>
      <trkpt lat="45.97377" lon="4.86981">
        <ele>285</ele>
        <time>2016-08-29T15:06:56Z</time>
      </trkpt>
      <trkpt lat="45.97373" lon="4.86976">
        <ele>285</ele>
        <time>2016-08-29T15:06:57Z</time>
      </trkpt>
      <trkpt lat="45.97369" lon="4.86971">
        <ele>285</ele>
        <time>2016-08-29T15:06:58Z</time>
      </trkpt>
      <trkpt lat="45.97365" lon="4.86965">
        <ele>285</ele>
        <time>2016-08-29T15:06:59Z</time>
      </trkpt>
      <trkpt lat="45.97361" lon="4.8696">
        <ele>285</ele>
        <time>2016-08-29T15:07:00Z</time>
      </trkpt>
      <trkpt lat="45.97357" lon="4.86955">
        <ele>284</ele>
        <time>2016-08-29T15:07:01Z</time>
      </trkpt>
      <trkpt lat="45.97353" lon="4.86949">
        <ele>284</ele>
        <time>2016-08-29T15:07:02Z</time>
      </trkpt>
      <trkpt lat="45.9735" lon="4.86944">
        <ele>284</ele>
        <time>2016-08-29T15:07:03Z</time>
      </trkpt>
      <trkpt lat="45.97346" lon="4.86938">
        <ele>284</ele>
        <time>2016-08-29T15:07:04Z</time>
      </trkpt>
      <trkpt lat="45.97341" lon="4.86933">
        <ele>284</ele>
        <time>2016-08-29T15:07:05Z</time>
      </trkpt>
      <trkpt lat="45.97338" lon="4.86929">
        <ele>284</ele>
        <time>2016-08-29T15:07:06Z</time>
      </trkpt>
      <trkpt lat="45.97333" lon="4.86923">
        <ele>284</ele>
        <time>2016-08-29T15:07:07Z</time>
      </trkpt>
      <trkpt lat="45.97328" lon="4.86918">
        <ele>284</ele>
        <time>2016-08-29T15:07:08Z</time>
      </trkpt>
      <trkpt lat="45.97323" lon="4.86912">
        <ele>284</ele>
        <time>2016-08-29T15:07:09Z</time>
      </trkpt>
      <trkpt lat="45.97318" lon="4.86907">
        <ele>284</ele>
        <time>2016-08-29T15:07:10Z</time>
      </trkpt>
      <trkpt lat="45.97314" lon="4.86902">
        <ele>284</ele>
        <time>2016-08-29T15:07:11Z</time>
      </trkpt>
      <trkpt lat="45.97309" lon="4.86896">
        <ele>284</ele>
        <time>2016-08-29T15:07:12Z</time>
      </trkpt>
      <trkpt lat="45.97305" lon="4.8689">
        <ele>284</ele>
        <time>2016-08-29T15:07:13Z</time>
      </trkpt>
      <trkpt lat="45.973" lon="4.86884">
        <ele>284</ele>
        <time>2016-08-29T15:07:14Z</time>
      </trkpt>
      <trkpt lat="45.97296" lon="4.86878">
        <ele>284</ele>
        <time>2016-08-29T15:07:15Z</time>
      </trkpt>
      <trkpt lat="45.97292" lon="4.86872">
        <ele>284</ele>
        <time>2016-08-29T15:07:16Z</time>
      </trkpt>
      <trkpt lat="45.97288" lon="4.86867">
        <ele>285</ele>
        <time>2016-08-29T15:07:17Z</time>
      </trkpt>
      <trkpt lat="45.97284" lon="4.86858">
        <ele>285</ele>
        <time>2016-08-29T15:07:18Z</time>
      </trkpt>
      <trkpt lat="45.9728" lon="4.86851">
        <ele>285</ele>
        <time>2016-08-29T15:07:19Z</time>
      </trkpt>
      <trkpt lat="45.97276" lon="4.86844">
        <ele>285</ele>
        <time>2016-08-29T15:07:20Z</time>
      </trkpt>
      <trkpt lat="45.97273" lon="4.86839">
        <ele>285</ele>
        <time>2016-08-29T15:07:21Z</time>
      </trkpt>
      <trkpt lat="45.9727" lon="4.86833">
        <ele>285</ele>
        <time>2016-08-29T15:07:22Z</time>
      </trkpt>
      <trkpt lat="45.97266" lon="4.86827">
        <ele>285</ele>
        <time>2016-08-29T15:07:23Z</time>
      </trkpt>
      <trkpt lat="45.97263" lon="4.86821">
        <ele>285</ele>
        <time>2016-08-29T15:07:24Z</time>
      </trkpt>
      <trkpt lat="45.97259" lon="4.86815">
        <ele>285</ele>
        <time>2016-08-29T15:07:25Z</time>
      </trkpt>
      <trkpt lat="45.97255" lon="4.86809">
        <ele>285</ele>
        <time>2016-08-29T15:07:26Z</time>
      </trkpt>
      <trkpt lat="45.97251" lon="4.86803">
        <ele>285</ele>
        <time>2016-08-29T15:07:27Z</time>
      </trkpt>
      <trkpt lat="45.97246" lon="4.86799">
        <ele>284</ele>
        <time>2016-08-29T15:07:28Z</time>
      </trkpt>
      <trkpt lat="45.9724" lon="4.86794">
        <ele>284</ele>
        <time>2016-08-29T15:07:29Z</time>
      </trkpt>
      <trkpt lat="45.97235" lon="4.8679">
        <ele>284</ele>
        <time>2016-08-29T15:07:30Z</time>
      </trkpt>
      <trkpt lat="45.97229" lon="4.86788">
        <ele>284</ele>
        <time>2016-08-29T15:07:31Z</time>
      </trkpt>
      <trkpt lat="45.97223" lon="4.86786">
        <ele>284</ele>
        <time>2016-08-29T15:07:32Z</time>
      </trkpt>
      <trkpt lat="45.97217" lon="4.86785">
        <ele>284</ele>
        <time>2016-08-29T15:07:33Z</time>
      </trkpt>
      <trkpt lat="45.97211" lon="4.86786">
        <ele>284</ele>
        <time>2016-08-29T15:07:34Z</time>
      </trkpt>
      <trkpt lat="45.97206" lon="4.86787">
        <ele>284</ele>
        <time>2016-08-29T15:07:35Z</time>
      </trkpt>
      <trkpt lat="45.97201" lon="4.86789">
        <ele>284</ele>
        <time>2016-08-29T15:07:36Z</time>
      </trkpt>
      <trkpt lat="45.97196" lon="4.86792">
        <ele>284</ele>
        <time>2016-08-29T15:07:37Z</time>
      </trkpt>
      <trkpt lat="45.97191" lon="4.86794">
        <ele>284</ele>
        <time>2016-08-29T15:07:38Z</time>
      </trkpt>
      <trkpt lat="45.97185" lon="4.86796">
        <ele>284</ele>
        <time>2016-08-29T15:07:39Z</time>
      </trkpt>
      <trkpt lat="45.9718" lon="4.86799">
        <ele>284</ele>
        <time>2016-08-29T15:07:40Z</time>
      </trkpt>
      <trkpt lat="45.97174" lon="4.86801">
        <ele>283</ele>
        <time>2016-08-29T15:07:41Z</time>
      </trkpt>
      <trkpt lat="45.97168" lon="4.86804">
        <ele>283</ele>
        <time>2016-08-29T15:07:42Z</time>
      </trkpt>
      <trkpt lat="45.97163" lon="4.86806">
        <ele>283</ele>
        <time>2016-08-29T15:07:43Z</time>
      </trkpt>
      <trkpt lat="45.97158" lon="4.86808">
        <ele>283</ele>
        <time>2016-08-29T15:07:44Z</time>
      </trkpt>
      <trkpt lat="45.97153" lon="4.86811">
        <ele>283</ele>
        <time>2016-08-29T15:07:45Z</time>
      </trkpt>
      <trkpt lat="45.97148" lon="4.86813">
        <ele>283</ele>
        <time>2016-08-29T15:07:46Z</time>
      </trkpt>
      <trkpt lat="45.97143" lon="4.86815">
        <ele>283</ele>
        <time>2016-08-29T15:07:47Z</time>
      </trkpt>
      <trkpt lat="45.97138" lon="4.86817">
        <ele>283</ele>
        <time>2016-08-29T15:07:48Z</time>
      </trkpt>
      <trkpt lat="45.97133" lon="4.86819">
        <ele>283</ele>
        <time>2016-08-29T15:07:49Z</time>
      </trkpt>
      <trkpt lat="45.97128" lon="4.86821">
        <ele>283</ele>
        <time>2016-08-29T15:07:50Z</time>
      </trkpt>
      <trkpt lat="45.97123" lon="4.86823">
        <ele>283</ele>
        <time>2016-08-29T15:07:51Z</time>
      </trkpt>
      <trkpt lat="45.97118" lon="4.86825">
        <ele>283</ele>
        <time>2016-08-29T15:07:52Z</time>
      </trkpt>
      <trkpt lat="45.97113" lon="4.86826">
        <ele>283</ele>
        <time>2016-08-29T15:07:53Z</time>
      </trkpt>
      <trkpt lat="45.97108" lon="4.86828">
        <ele>283</ele>
        <time>2016-08-29T15:07:54Z</time>
      </trkpt>
      <trkpt lat="45.97103" lon="4.86829">
        <ele>284</ele>
        <time>2016-08-29T15:07:55Z</time>
      </trkpt>
      <trkpt lat="45.97098" lon="4.86831">
        <ele>284</ele>
        <time>2016-08-29T15:07:56Z</time>
      </trkpt>
      <trkpt lat="45.97093" lon="4.86831">
        <ele>284</ele>
        <time>2016-08-29T15:07:57Z</time>
      </trkpt>
      <trkpt lat="45.97087" lon="4.86832">
        <ele>284</ele>
        <time>2016-08-29T15:07:58Z</time>
      </trkpt>
      <trkpt lat="45.97082" lon="4.86833">
        <ele>284</ele>
        <time>2016-08-29T15:07:59Z</time>
      </trkpt>
      <trkpt lat="45.97076" lon="4.86834">
        <ele>284</ele>
        <time>2016-08-29T15:08:00Z</time>
      </trkpt>
      <trkpt lat="45.9707" lon="4.86835">
        <ele>284</ele>
        <time>2016-08-29T15:08:01Z</time>
      </trkpt>
      <trkpt lat="45.97065" lon="4.86836">
        <ele>284</ele>
        <time>2016-08-29T15:08:02Z</time>
      </trkpt>
      <trkpt lat="45.9706" lon="4.86836">
        <ele>284</ele>
        <time>2016-08-29T15:08:03Z</time>
      </trkpt>
      <trkpt lat="45.97055" lon="4.86837">
        <ele>285</ele>
        <time>2016-08-29T15:08:04Z</time>
      </trkpt>
      <trkpt lat="45.9705" lon="4.86838">
        <ele>285</ele>
        <time>2016-08-29T15:08:05Z</time>
      </trkpt>
      <trkpt lat="45.97046" lon="4.86839">
        <ele>285</ele>
        <time>2016-08-29T15:08:06Z</time>
      </trkpt>
      <trkpt lat="45.97037" lon="4.8684">
        <ele>285</ele>
        <time>2016-08-29T15:08:08Z</time>
      </trkpt>
      <trkpt lat="45.97032" lon="4.8684">
        <ele>285</ele>
        <time>2016-08-29T15:08:09Z</time>
      </trkpt>
      <trkpt lat="45.97028" lon="4.8684">
        <ele>285</ele>
        <time>2016-08-29T15:08:10Z</time>
      </trkpt>
      <trkpt lat="45.97023" lon="4.86841">
        <ele>285</ele>
        <time>2016-08-29T15:08:11Z</time>
      </trkpt>
      <trkpt lat="45.97018" lon="4.86841">
        <ele>285</ele>
        <time>2016-08-29T15:08:12Z</time>
      </trkpt>
      <trkpt lat="45.97012" lon="4.86842">
        <ele>285</ele>
        <time>2016-08-29T15:08:13Z</time>
      </trkpt>
      <trkpt lat="45.97007" lon="4.86842">
        <ele>285</ele>
        <time>2016-08-29T15:08:14Z</time>
      </trkpt>
      <trkpt lat="45.97001" lon="4.86843">
        <ele>285</ele>
        <time>2016-08-29T15:08:15Z</time>
      </trkpt>
      <trkpt lat="45.96995" lon="4.86843">
        <ele>286</ele>
        <time>2016-08-29T15:08:16Z</time>
      </trkpt>
      <trkpt lat="45.96989" lon="4.86842">
        <ele>286</ele>
        <time>2016-08-29T15:08:17Z</time>
      </trkpt>
      <trkpt lat="45.96984" lon="4.86841">
        <ele>286</ele>
        <time>2016-08-29T15:08:18Z</time>
      </trkpt>
      <trkpt lat="45.96978" lon="4.86839">
        <ele>286</ele>
        <time>2016-08-29T15:08:19Z</time>
      </trkpt>
      <trkpt lat="45.96973" lon="4.86838">
        <ele>286</ele>
        <time>2016-08-29T15:08:20Z</time>
      </trkpt>
      <trkpt lat="45.96968" lon="4.86836">
        <ele>286</ele>
        <time>2016-08-29T15:08:21Z</time>
      </trkpt>
      <trkpt lat="45.96964" lon="4.86834">
        <ele>287</ele>
        <time>2016-08-29T15:08:22Z</time>
      </trkpt>
      <trkpt lat="45.96959" lon="4.86832">
        <ele>286</ele>
        <time>2016-08-29T15:08:23Z</time>
      </trkpt>
      <trkpt lat="45.96954" lon="4.8683">
        <ele>286</ele>
        <time>2016-08-29T15:08:24Z</time>
      </trkpt>
      <trkpt lat="45.9695" lon="4.86827">
        <ele>287</ele>
        <time>2016-08-29T15:08:25Z</time>
      </trkpt>
      <trkpt lat="45.96945" lon="4.86825">
        <ele>287</ele>
        <time>2016-08-29T15:08:26Z</time>
      </trkpt>
      <trkpt lat="45.9694" lon="4.86822">
        <ele>287</ele>
        <time>2016-08-29T15:08:27Z</time>
      </trkpt>
      <trkpt lat="45.96932" lon="4.86816">
        <ele>287</ele>
        <time>2016-08-29T15:08:29Z</time>
      </trkpt>
      <trkpt lat="45.96928" lon="4.86813">
        <ele>287</ele>
        <time>2016-08-29T15:08:30Z</time>
      </trkpt>
      <trkpt lat="45.96923" lon="4.8681">
        <ele>287</ele>
        <time>2016-08-29T15:08:31Z</time>
      </trkpt>
      <trkpt lat="45.96918" lon="4.86806">
        <ele>287</ele>
        <time>2016-08-29T15:08:32Z</time>
      </trkpt>
      <trkpt lat="45.96914" lon="4.86803">
        <ele>288</ele>
        <time>2016-08-29T15:08:33Z</time>
      </trkpt>
      <trkpt lat="45.9691" lon="4.86799">
        <ele>288</ele>
        <time>2016-08-29T15:08:34Z</time>
      </trkpt>
      <trkpt lat="45.96905" lon="4.86795">
        <ele>289</ele>
        <time>2016-08-29T15:08:35Z</time>
      </trkpt>
      <trkpt lat="45.96901" lon="4.86792">
        <ele>289</ele>
        <time>2016-08-29T15:08:36Z</time>
      </trkpt>
      <trkpt lat="45.96897" lon="4.86788">
        <ele>289</ele>
        <time>2016-08-29T15:08:37Z</time>
      </trkpt>
      <trkpt lat="45.96893" lon="4.86785">
        <ele>289</ele>
        <time>2016-08-29T15:08:38Z</time>
      </trkpt>
      <trkpt lat="45.96886" lon="4.86778">
        <ele>289</ele>
        <time>2016-08-29T15:08:40Z</time>
      </trkpt>
      <trkpt lat="45.96882" lon="4.86774">
        <ele>289</ele>
        <time>2016-08-29T15:08:41Z</time>
      </trkpt>
      <trkpt lat="45.96875" lon="4.86767">
        <ele>289</ele>
        <time>2016-08-29T15:08:43Z</time>
      </trkpt>
      <trkpt lat="45.96871" lon="4.86764">
        <ele>289</ele>
        <time>2016-08-29T15:08:44Z</time>
      </trkpt>
      <trkpt lat="45.96863" lon="4.86757">
        <ele>289</ele>
        <time>2016-08-29T15:08:46Z</time>
      </trkpt>
      <trkpt lat="45.9686" lon="4.86754">
        <ele>289</ele>
        <time>2016-08-29T15:08:47Z</time>
      </trkpt>
      <trkpt lat="45.96853" lon="4.86746">
        <ele>288</ele>
        <time>2016-08-29T15:08:49Z</time>
      </trkpt>
      <trkpt lat="45.96849" lon="4.86743">
        <ele>289</ele>
        <time>2016-08-29T15:08:50Z</time>
      </trkpt>
      <trkpt lat="45.96845" lon="4.86739">
        <ele>289</ele>
        <time>2016-08-29T15:08:51Z</time>
      </trkpt>
      <trkpt lat="45.96841" lon="4.86735">
        <ele>289</ele>
        <time>2016-08-29T15:08:52Z</time>
      </trkpt>
      <trkpt lat="45.96836" lon="4.86731">
        <ele>288</ele>
        <time>2016-08-29T15:08:53Z</time>
      </trkpt>
      <trkpt lat="45.96832" lon="4.86727">
        <ele>289</ele>
        <time>2016-08-29T15:08:54Z</time>
      </trkpt>
      <trkpt lat="45.96827" lon="4.86723">
        <ele>289</ele>
        <time>2016-08-29T15:08:55Z</time>
      </trkpt>
      <trkpt lat="45.96823" lon="4.86719">
        <ele>289</ele>
        <time>2016-08-29T15:08:56Z</time>
      </trkpt>
      <trkpt lat="45.96818" lon="4.86715">
        <ele>289</ele>
        <time>2016-08-29T15:08:57Z</time>
      </trkpt>
      <trkpt lat="45.96814" lon="4.86711">
        <ele>289</ele>
        <time>2016-08-29T15:08:58Z</time>
      </trkpt>
      <trkpt lat="45.9681" lon="4.86707">
        <ele>289</ele>
        <time>2016-08-29T15:08:59Z</time>
      </trkpt>
      <trkpt lat="45.96807" lon="4.86702">
        <ele>289</ele>
        <time>2016-08-29T15:09:00Z</time>
      </trkpt>
      <trkpt lat="45.96799" lon="4.86695">
        <ele>289</ele>
        <time>2016-08-29T15:09:02Z</time>
      </trkpt>
      <trkpt lat="45.96796" lon="4.86691">
        <ele>289</ele>
        <time>2016-08-29T15:09:03Z</time>
      </trkpt>
      <trkpt lat="45.96788" lon="4.86684">
        <ele>289</ele>
        <time>2016-08-29T15:09:05Z</time>
      </trkpt>
      <trkpt lat="45.96784" lon="4.8668">
        <ele>289</ele>
        <time>2016-08-29T15:09:06Z</time>
      </trkpt>
      <trkpt lat="45.9678" lon="4.86676">
        <ele>289</ele>
        <time>2016-08-29T15:09:07Z</time>
      </trkpt>
      <trkpt lat="45.96777" lon="4.86672">
        <ele>289</ele>
        <time>2016-08-29T15:09:08Z</time>
      </trkpt>
      <trkpt lat="45.96771" lon="4.86663">
        <ele>290</ele>
        <time>2016-08-29T15:09:10Z</time>
      </trkpt>
      <trkpt lat="45.96768" lon="4.86658">
        <ele>290</ele>
        <time>2016-08-29T15:09:11Z</time>
      </trkpt>
      <trkpt lat="45.96764" lon="4.86648">
        <ele>290</ele>
        <time>2016-08-29T15:09:13Z</time>
      </trkpt>
      <trkpt lat="45.96762" lon="4.86644">
        <ele>290</ele>
        <time>2016-08-29T15:09:14Z</time>
      </trkpt>
      <trkpt lat="45.96757" lon="4.86635">
        <ele>290</ele>
        <time>2016-08-29T15:09:24Z</time>
      </trkpt>
      <trkpt lat="45.96756" lon="4.86633">
        <ele>290</ele>
        <time>2016-08-29T15:09:25Z</time>
      </trkpt>
      <trkpt lat="45.96749" lon="4.86625">
        <ele>290</ele>
        <time>2016-08-29T15:09:28Z</time>
      </trkpt>
      <trkpt lat="45.96745" lon="4.86623">
        <ele>290</ele>
        <time>2016-08-29T15:09:29Z</time>
      </trkpt>
      <trkpt lat="45.96738" lon="4.8662">
        <ele>290</ele>
        <time>2016-08-29T15:09:31Z</time>
      </trkpt>
      <trkpt lat="45.96733" lon="4.8662">
        <ele>290</ele>
        <time>2016-08-29T15:09:32Z</time>
      </trkpt>
      <trkpt lat="45.96725" lon="4.86618">
        <ele>290</ele>
        <time>2016-08-29T15:09:34Z</time>
      </trkpt>
      <trkpt lat="45.96722" lon="4.86617">
        <ele>290</ele>
        <time>2016-08-29T15:09:35Z</time>
      </trkpt>
      <trkpt lat="45.96715" lon="4.86613">
        <ele>290</ele>
        <time>2016-08-29T15:09:37Z</time>
      </trkpt>
      <trkpt lat="45.96711" lon="4.86611">
        <ele>290</ele>
        <time>2016-08-29T15:09:38Z</time>
      </trkpt>
      <trkpt lat="45.96703" lon="4.86606">
        <ele>290</ele>
        <time>2016-08-29T15:09:40Z</time>
      </trkpt>
      <trkpt lat="45.96699" lon="4.86602">
        <ele>290</ele>
        <time>2016-08-29T15:09:41Z</time>
      </trkpt>
      <trkpt lat="45.96695" lon="4.86599">
        <ele>290</ele>
        <time>2016-08-29T15:09:42Z</time>
      </trkpt>
      <trkpt lat="45.96692" lon="4.86595">
        <ele>290</ele>
        <time>2016-08-29T15:09:43Z</time>
      </trkpt>
      <trkpt lat="45.96684" lon="4.86588">
        <ele>290</ele>
        <time>2016-08-29T15:09:45Z</time>
      </trkpt>
      <trkpt lat="45.96681" lon="4.86584">
        <ele>290</ele>
        <time>2016-08-29T15:09:46Z</time>
      </trkpt>
      <trkpt lat="45.96674" lon="4.86577">
        <ele>290</ele>
        <time>2016-08-29T15:09:48Z</time>
      </trkpt>
      <trkpt lat="45.96671" lon="4.86574">
        <ele>290</ele>
        <time>2016-08-29T15:09:49Z</time>
      </trkpt>
      <trkpt lat="45.96664" lon="4.86567">
        <ele>290</ele>
        <time>2016-08-29T15:09:51Z</time>
      </trkpt>
      <trkpt lat="45.9666" lon="4.86564">
        <ele>290</ele>
        <time>2016-08-29T15:09:52Z</time>
      </trkpt>
      <trkpt lat="45.96653" lon="4.86557">
        <ele>291</ele>
        <time>2016-08-29T15:09:54Z</time>
      </trkpt>
      <trkpt lat="45.96649" lon="4.86553">
        <ele>291</ele>
        <time>2016-08-29T15:09:55Z</time>
      </trkpt>
      <trkpt lat="45.96645" lon="4.86549">
        <ele>291</ele>
        <time>2016-08-29T15:09:56Z</time>
      </trkpt>
      <trkpt lat="45.96641" lon="4.86545">
        <ele>291</ele>
        <time>2016-08-29T15:09:57Z</time>
      </trkpt>
      <trkpt lat="45.96637" lon="4.86542">
        <ele>291</ele>
        <time>2016-08-29T15:09:58Z</time>
      </trkpt>
      <trkpt lat="45.96633" lon="4.86538">
        <ele>291</ele>
        <time>2016-08-29T15:09:59Z</time>
      </trkpt>
      <trkpt lat="45.96626" lon="4.86531">
        <ele>291</ele>
        <time>2016-08-29T15:10:01Z</time>
      </trkpt>
      <trkpt lat="45.96622" lon="4.86528">
        <ele>291</ele>
        <time>2016-08-29T15:10:02Z</time>
      </trkpt>
      <trkpt lat="45.96615" lon="4.86521">
        <ele>291</ele>
        <time>2016-08-29T15:10:04Z</time>
      </trkpt>
      <trkpt lat="45.9661" lon="4.86518">
        <ele>291</ele>
        <time>2016-08-29T15:10:05Z</time>
      </trkpt>
      <trkpt lat="45.96606" lon="4.86514">
        <ele>291</ele>
        <time>2016-08-29T15:10:06Z</time>
      </trkpt>
      <trkpt lat="45.96602" lon="4.8651">
        <ele>291</ele>
        <time>2016-08-29T15:10:07Z</time>
      </trkpt>
      <trkpt lat="45.96598" lon="4.86505">
        <ele>291</ele>
        <time>2016-08-29T15:10:08Z</time>
      </trkpt>
      <trkpt lat="45.96595" lon="4.865">
        <ele>292</ele>
        <time>2016-08-29T15:10:09Z</time>
      </trkpt>
      <trkpt lat="45.96591" lon="4.86495">
        <ele>292</ele>
        <time>2016-08-29T15:10:10Z</time>
      </trkpt>
      <trkpt lat="45.96588" lon="4.86489">
        <ele>292</ele>
        <time>2016-08-29T15:10:11Z</time>
      </trkpt>
      <trkpt lat="45.96586" lon="4.86481">
        <ele>292</ele>
        <time>2016-08-29T15:10:12Z</time>
      </trkpt>
      <trkpt lat="45.96584" lon="4.86474">
        <ele>291</ele>
        <time>2016-08-29T15:10:13Z</time>
      </trkpt>
      <trkpt lat="45.96582" lon="4.86466">
        <ele>289</ele>
        <time>2016-08-29T15:10:14Z</time>
      </trkpt>
      <trkpt lat="45.96581" lon="4.86458">
        <ele>289</ele>
        <time>2016-08-29T15:10:15Z</time>
      </trkpt>
      <trkpt lat="45.9658" lon="4.8645">
        <ele>289</ele>
        <time>2016-08-29T15:10:16Z</time>
      </trkpt>
      <trkpt lat="45.9658" lon="4.86442">
        <ele>289</ele>
        <time>2016-08-29T15:10:17Z</time>
      </trkpt>
      <trkpt lat="45.96579" lon="4.86434">
        <ele>289</ele>
        <time>2016-08-29T15:10:18Z</time>
      </trkpt>
      <trkpt lat="45.96579" lon="4.86425">
        <ele>289</ele>
        <time>2016-08-29T15:10:19Z</time>
      </trkpt>
      <trkpt lat="45.96579" lon="4.86417">
        <ele>289</ele>
        <time>2016-08-29T15:10:20Z</time>
      </trkpt>
      <trkpt lat="45.96579" lon="4.86408">
        <ele>288</ele>
        <time>2016-08-29T15:10:21Z</time>
      </trkpt>
      <trkpt lat="45.96578" lon="4.86399">
        <ele>287</ele>
        <time>2016-08-29T15:10:22Z</time>
      </trkpt>
      <trkpt lat="45.96578" lon="4.8639">
        <ele>287</ele>
        <time>2016-08-29T15:10:23Z</time>
      </trkpt>
      <trkpt lat="45.96578" lon="4.8638">
        <ele>286</ele>
        <time>2016-08-29T15:10:24Z</time>
      </trkpt>
      <trkpt lat="45.96578" lon="4.86371">
        <ele>286</ele>
        <time>2016-08-29T15:10:25Z</time>
      </trkpt>
      <trkpt lat="45.96578" lon="4.86362">
        <ele>286</ele>
        <time>2016-08-29T15:10:26Z</time>
      </trkpt>
      <trkpt lat="45.96578" lon="4.86353">
        <ele>285</ele>
        <time>2016-08-29T15:10:27Z</time>
      </trkpt>
      <trkpt lat="45.96578" lon="4.86343">
        <ele>285</ele>
        <time>2016-08-29T15:10:28Z</time>
      </trkpt>
      <trkpt lat="45.96578" lon="4.86335">
        <ele>285</ele>
        <time>2016-08-29T15:10:29Z</time>
      </trkpt>
      <trkpt lat="45.96578" lon="4.86326">
        <ele>284</ele>
        <time>2016-08-29T15:10:30Z</time>
      </trkpt>
      <trkpt lat="45.96579" lon="4.86317">
        <ele>283</ele>
        <time>2016-08-29T15:10:31Z</time>
      </trkpt>
      <trkpt lat="45.96579" lon="4.86308">
        <ele>283</ele>
        <time>2016-08-29T15:10:32Z</time>
      </trkpt>
      <trkpt lat="45.96579" lon="4.86299">
        <ele>282</ele>
        <time>2016-08-29T15:10:33Z</time>
      </trkpt>
      <trkpt lat="45.96579" lon="4.8629">
        <ele>282</ele>
        <time>2016-08-29T15:10:34Z</time>
      </trkpt>
      <trkpt lat="45.9658" lon="4.8628">
        <ele>282</ele>
        <time>2016-08-29T15:10:35Z</time>
      </trkpt>
      <trkpt lat="45.96581" lon="4.8627">
        <ele>282</ele>
        <time>2016-08-29T15:10:36Z</time>
      </trkpt>
      <trkpt lat="45.96582" lon="4.8626">
        <ele>281</ele>
        <time>2016-08-29T15:10:37Z</time>
      </trkpt>
      <trkpt lat="45.96583" lon="4.86249">
        <ele>281</ele>
        <time>2016-08-29T15:10:38Z</time>
      </trkpt>
      <trkpt lat="45.96584" lon="4.86238">
        <ele>282</ele>
        <time>2016-08-29T15:10:39Z</time>
      </trkpt>
      <trkpt lat="45.96585" lon="4.86227">
        <ele>282</ele>
        <time>2016-08-29T15:10:40Z</time>
      </trkpt>
      <trkpt lat="45.96586" lon="4.86215">
        <ele>282</ele>
        <time>2016-08-29T15:10:41Z</time>
      </trkpt>
      <trkpt lat="45.96588" lon="4.86202">
        <ele>282</ele>
        <time>2016-08-29T15:10:42Z</time>
      </trkpt>
      <trkpt lat="45.96589" lon="4.8619">
        <ele>282</ele>
        <time>2016-08-29T15:10:43Z</time>
      </trkpt>
      <trkpt lat="45.9659" lon="4.86178">
        <ele>281</ele>
        <time>2016-08-29T15:10:44Z</time>
      </trkpt>
      <trkpt lat="45.96592" lon="4.86165">
        <ele>281</ele>
        <time>2016-08-29T15:10:45Z</time>
      </trkpt>
      <trkpt lat="45.96593" lon="4.86152">
        <ele>281</ele>
        <time>2016-08-29T15:10:46Z</time>
      </trkpt>
      <trkpt lat="45.96594" lon="4.8614">
        <ele>281</ele>
        <time>2016-08-29T15:10:47Z</time>
      </trkpt>
      <trkpt lat="45.96595" lon="4.86127">
        <ele>281</ele>
        <time>2016-08-29T15:10:48Z</time>
      </trkpt>
      <trkpt lat="45.96596" lon="4.86115">
        <ele>281</ele>
        <time>2016-08-29T15:10:49Z</time>
      </trkpt>
      <trkpt lat="45.96595" lon="4.86103">
        <ele>280</ele>
        <time>2016-08-29T15:10:50Z</time>
      </trkpt>
      <trkpt lat="45.96593" lon="4.86091">
        <ele>280</ele>
        <time>2016-08-29T15:10:51Z</time>
      </trkpt>
      <trkpt lat="45.96591" lon="4.86079">
        <ele>279</ele>
        <time>2016-08-29T15:10:52Z</time>
      </trkpt>
      <trkpt lat="45.96587" lon="4.86067">
        <ele>279</ele>
        <time>2016-08-29T15:10:53Z</time>
      </trkpt>
      <trkpt lat="45.96582" lon="4.86057">
        <ele>277</ele>
        <time>2016-08-29T15:10:54Z</time>
      </trkpt>
      <trkpt lat="45.96577" lon="4.86046">
        <ele>276</ele>
        <time>2016-08-29T15:10:55Z</time>
      </trkpt>
      <trkpt lat="45.96572" lon="4.86035">
        <ele>276</ele>
        <time>2016-08-29T15:10:56Z</time>
      </trkpt>
      <trkpt lat="45.96566" lon="4.86025">
        <ele>276</ele>
        <time>2016-08-29T15:10:57Z</time>
      </trkpt>
      <trkpt lat="45.96561" lon="4.86014">
        <ele>276</ele>
        <time>2016-08-29T15:10:58Z</time>
      </trkpt>
      <trkpt lat="45.96556" lon="4.86004">
        <ele>276</ele>
        <time>2016-08-29T15:10:59Z</time>
      </trkpt>
      <trkpt lat="45.9655" lon="4.85994">
        <ele>276</ele>
        <time>2016-08-29T15:11:00Z</time>
      </trkpt>
      <trkpt lat="45.96545" lon="4.85984">
        <ele>275</ele>
        <time>2016-08-29T15:11:01Z</time>
      </trkpt>
      <trkpt lat="45.96539" lon="4.85973">
        <ele>275</ele>
        <time>2016-08-29T15:11:02Z</time>
      </trkpt>
      <trkpt lat="45.96534" lon="4.85963">
        <ele>275</ele>
        <time>2016-08-29T15:11:03Z</time>
      </trkpt>
      <trkpt lat="45.96529" lon="4.85952">
        <ele>275</ele>
        <time>2016-08-29T15:11:04Z</time>
      </trkpt>
      <trkpt lat="45.96525" lon="4.85941">
        <ele>275</ele>
        <time>2016-08-29T15:11:05Z</time>
      </trkpt>
      <trkpt lat="45.96521" lon="4.8593">
        <ele>275</ele>
        <time>2016-08-29T15:11:06Z</time>
      </trkpt>
      <trkpt lat="45.96517" lon="4.85919">
        <ele>275</ele>
        <time>2016-08-29T15:11:07Z</time>
      </trkpt>
      <trkpt lat="45.96514" lon="4.85909">
        <ele>275</ele>
        <time>2016-08-29T15:11:08Z</time>
      </trkpt>
      <trkpt lat="45.96511" lon="4.85898">
        <ele>275</ele>
        <time>2016-08-29T15:11:09Z</time>
      </trkpt>
      <trkpt lat="45.96509" lon="4.85887">
        <ele>275</ele>
        <time>2016-08-29T15:11:10Z</time>
      </trkpt>
      <trkpt lat="45.96507" lon="4.85876">
        <ele>275</ele>
        <time>2016-08-29T15:11:11Z</time>
      </trkpt>
      <trkpt lat="45.96505" lon="4.85865">
        <ele>275</ele>
        <time>2016-08-29T15:11:12Z</time>
      </trkpt>
      <trkpt lat="45.96504" lon="4.85853">
        <ele>275</ele>
        <time>2016-08-29T15:11:13Z</time>
      </trkpt>
      <trkpt lat="45.96502" lon="4.85844">
        <ele>275</ele>
        <time>2016-08-29T15:11:14Z</time>
      </trkpt>
      <trkpt lat="45.96501" lon="4.85833">
        <ele>275</ele>
        <time>2016-08-29T15:11:15Z</time>
      </trkpt>
      <trkpt lat="45.965" lon="4.85822">
        <ele>274</ele>
        <time>2016-08-29T15:11:16Z</time>
      </trkpt>
      <trkpt lat="45.96498" lon="4.85811">
        <ele>274</ele>
        <time>2016-08-29T15:11:17Z</time>
      </trkpt>
      <trkpt lat="45.96497" lon="4.85801">
        <ele>274</ele>
        <time>2016-08-29T15:11:18Z</time>
      </trkpt>
      <trkpt lat="45.96495" lon="4.8579">
        <ele>274</ele>
        <time>2016-08-29T15:11:19Z</time>
      </trkpt>
      <trkpt lat="45.96493" lon="4.8578">
        <ele>274</ele>
        <time>2016-08-29T15:11:20Z</time>
      </trkpt>
      <trkpt lat="45.96492" lon="4.8577">
        <ele>274</ele>
        <time>2016-08-29T15:11:21Z</time>
      </trkpt>
      <trkpt lat="45.96491" lon="4.85761">
        <ele>274</ele>
        <time>2016-08-29T15:11:22Z</time>
      </trkpt>
      <trkpt lat="45.9649" lon="4.85751">
        <ele>274</ele>
        <time>2016-08-29T15:11:23Z</time>
      </trkpt>
      <trkpt lat="45.96488" lon="4.85742">
        <ele>273</ele>
        <time>2016-08-29T15:11:24Z</time>
      </trkpt>
      <trkpt lat="45.96487" lon="4.85734">
        <ele>273</ele>
        <time>2016-08-29T15:11:25Z</time>
      </trkpt>
      <trkpt lat="45.96486" lon="4.85725">
        <ele>273</ele>
        <time>2016-08-29T15:11:26Z</time>
      </trkpt>
      <trkpt lat="45.96485" lon="4.85715">
        <ele>272</ele>
        <time>2016-08-29T15:11:27Z</time>
      </trkpt>
      <trkpt lat="45.96483" lon="4.85706">
        <ele>272</ele>
        <time>2016-08-29T15:11:28Z</time>
      </trkpt>
      <trkpt lat="45.96482" lon="4.85697">
        <ele>272</ele>
        <time>2016-08-29T15:11:29Z</time>
      </trkpt>
      <trkpt lat="45.96481" lon="4.8569">
        <ele>272</ele>
        <time>2016-08-29T15:11:30Z</time>
      </trkpt>
      <trkpt lat="45.9648" lon="4.85681">
        <ele>272</ele>
        <time>2016-08-29T15:11:31Z</time>
      </trkpt>
      <trkpt lat="45.9648" lon="4.85671">
        <ele>272</ele>
        <time>2016-08-29T15:11:32Z</time>
      </trkpt>
      <trkpt lat="45.96479" lon="4.85661">
        <ele>271</ele>
        <time>2016-08-29T15:11:33Z</time>
      </trkpt>
      <trkpt lat="45.96478" lon="4.85651">
        <ele>271</ele>
        <time>2016-08-29T15:11:34Z</time>
      </trkpt>
      <trkpt lat="45.96476" lon="4.85642">
        <ele>271</ele>
        <time>2016-08-29T15:11:35Z</time>
      </trkpt>
      <trkpt lat="45.96475" lon="4.85632">
        <ele>271</ele>
        <time>2016-08-29T15:11:36Z</time>
      </trkpt>
      <trkpt lat="45.96474" lon="4.85622">
        <ele>271</ele>
        <time>2016-08-29T15:11:37Z</time>
      </trkpt>
      <trkpt lat="45.96472" lon="4.85612">
        <ele>271</ele>
        <time>2016-08-29T15:11:38Z</time>
      </trkpt>
      <trkpt lat="45.96471" lon="4.85602">
        <ele>271</ele>
        <time>2016-08-29T15:11:39Z</time>
      </trkpt>
      <trkpt lat="45.96471" lon="4.85594">
        <ele>271</ele>
        <time>2016-08-29T15:11:40Z</time>
      </trkpt>
      <trkpt lat="45.9647" lon="4.85585">
        <ele>271</ele>
        <time>2016-08-29T15:11:41Z</time>
      </trkpt>
      <trkpt lat="45.9647" lon="4.85578">
        <ele>272</ele>
        <time>2016-08-29T15:11:42Z</time>
      </trkpt>
      <trkpt lat="45.9647" lon="4.85569">
        <ele>272</ele>
        <time>2016-08-29T15:11:43Z</time>
      </trkpt>
      <trkpt lat="45.96469" lon="4.85559">
        <ele>272</ele>
        <time>2016-08-29T15:11:44Z</time>
      </trkpt>
      <trkpt lat="45.96468" lon="4.8555">
        <ele>272</ele>
        <time>2016-08-29T15:11:45Z</time>
      </trkpt>
      <trkpt lat="45.96467" lon="4.85541">
        <ele>272</ele>
        <time>2016-08-29T15:11:46Z</time>
      </trkpt>
      <trkpt lat="45.96467" lon="4.85531">
        <ele>272</ele>
        <time>2016-08-29T15:11:47Z</time>
      </trkpt>
      <trkpt lat="45.96467" lon="4.85521">
        <ele>272</ele>
        <time>2016-08-29T15:11:48Z</time>
      </trkpt>
      <trkpt lat="45.96467" lon="4.85512">
        <ele>272</ele>
        <time>2016-08-29T15:11:49Z</time>
      </trkpt>
      <trkpt lat="45.96466" lon="4.85502">
        <ele>272</ele>
        <time>2016-08-29T15:11:50Z</time>
      </trkpt>
      <trkpt lat="45.96466" lon="4.85494">
        <ele>272</ele>
        <time>2016-08-29T15:11:51Z</time>
      </trkpt>
      <trkpt lat="45.96466" lon="4.85483">
        <ele>272</ele>
        <time>2016-08-29T15:11:52Z</time>
      </trkpt>
      <trkpt lat="45.96465" lon="4.85474">
        <ele>272</ele>
        <time>2016-08-29T15:11:53Z</time>
      </trkpt>
      <trkpt lat="45.96465" lon="4.85464">
        <ele>272</ele>
        <time>2016-08-29T15:11:54Z</time>
      </trkpt>
      <trkpt lat="45.96464" lon="4.85454">
        <ele>272</ele>
        <time>2016-08-29T15:11:55Z</time>
      </trkpt>
      <trkpt lat="45.96464" lon="4.85444">
        <ele>272</ele>
        <time>2016-08-29T15:11:56Z</time>
      </trkpt>
      <trkpt lat="45.96463" lon="4.85434">
        <ele>272</ele>
        <time>2016-08-29T15:11:57Z</time>
      </trkpt>
      <trkpt lat="45.96463" lon="4.85424">
        <ele>272</ele>
        <time>2016-08-29T15:11:58Z</time>
      </trkpt>
      <trkpt lat="45.96463" lon="4.85415">
        <ele>272</ele>
        <time>2016-08-29T15:11:59Z</time>
      </trkpt>
      <trkpt lat="45.96463" lon="4.85405">
        <ele>272</ele>
        <time>2016-08-29T15:12:00Z</time>
      </trkpt>
      <trkpt lat="45.96462" lon="4.85397">
        <ele>272</ele>
        <time>2016-08-29T15:12:01Z</time>
      </trkpt>
      <trkpt lat="45.96462" lon="4.85388">
        <ele>272</ele>
        <time>2016-08-29T15:12:02Z</time>
      </trkpt>
      <trkpt lat="45.96461" lon="4.85378">
        <ele>272</ele>
        <time>2016-08-29T15:12:03Z</time>
      </trkpt>
      <trkpt lat="45.96461" lon="4.85368">
        <ele>272</ele>
        <time>2016-08-29T15:12:04Z</time>
      </trkpt>
      <trkpt lat="45.9646" lon="4.85359">
        <ele>272</ele>
        <time>2016-08-29T15:12:05Z</time>
      </trkpt>
      <trkpt lat="45.96459" lon="4.85351">
        <ele>272</ele>
        <time>2016-08-29T15:12:06Z</time>
      </trkpt>
      <trkpt lat="45.96459" lon="4.85343">
        <ele>272</ele>
        <time>2016-08-29T15:12:07Z</time>
      </trkpt>
      <trkpt lat="45.96458" lon="4.85334">
        <ele>272</ele>
        <time>2016-08-29T15:12:08Z</time>
      </trkpt>
      <trkpt lat="45.96457" lon="4.85326">
        <ele>271</ele>
        <time>2016-08-29T15:12:09Z</time>
      </trkpt>
      <trkpt lat="45.96456" lon="4.85318">
        <ele>271</ele>
        <time>2016-08-29T15:12:10Z</time>
      </trkpt>
      <trkpt lat="45.96455" lon="4.85309">
        <ele>271</ele>
        <time>2016-08-29T15:12:11Z</time>
      </trkpt>
      <trkpt lat="45.96454" lon="4.853">
        <ele>271</ele>
        <time>2016-08-29T15:12:12Z</time>
      </trkpt>
      <trkpt lat="45.96452" lon="4.85291">
        <ele>270</ele>
        <time>2016-08-29T15:12:13Z</time>
      </trkpt>
      <trkpt lat="45.96451" lon="4.85281">
        <ele>270</ele>
        <time>2016-08-29T15:12:14Z</time>
      </trkpt>
      <trkpt lat="45.96451" lon="4.85272">
        <ele>270</ele>
        <time>2016-08-29T15:12:15Z</time>
      </trkpt>
      <trkpt lat="45.96451" lon="4.85263">
        <ele>270</ele>
        <time>2016-08-29T15:12:16Z</time>
      </trkpt>
      <trkpt lat="45.96451" lon="4.85254">
        <ele>270</ele>
        <time>2016-08-29T15:12:17Z</time>
      </trkpt>
      <trkpt lat="45.96451" lon="4.85245">
        <ele>269</ele>
        <time>2016-08-29T15:12:18Z</time>
      </trkpt>
      <trkpt lat="45.96451" lon="4.85236">
        <ele>269</ele>
        <time>2016-08-29T15:12:19Z</time>
      </trkpt>
      <trkpt lat="45.96451" lon="4.85226">
        <ele>269</ele>
        <time>2016-08-29T15:12:20Z</time>
      </trkpt>
      <trkpt lat="45.96451" lon="4.85216">
        <ele>269</ele>
        <time>2016-08-29T15:12:21Z</time>
      </trkpt>
      <trkpt lat="45.96452" lon="4.85206">
        <ele>269</ele>
        <time>2016-08-29T15:12:22Z</time>
      </trkpt>
      <trkpt lat="45.96453" lon="4.85196">
        <ele>269</ele>
        <time>2016-08-29T15:12:23Z</time>
      </trkpt>
      <trkpt lat="45.96453" lon="4.85186">
        <ele>269</ele>
        <time>2016-08-29T15:12:24Z</time>
      </trkpt>
      <trkpt lat="45.96455" lon="4.85176">
        <ele>269</ele>
        <time>2016-08-29T15:12:25Z</time>
      </trkpt>
      <trkpt lat="45.96456" lon="4.85165">
        <ele>268</ele>
        <time>2016-08-29T15:12:26Z</time>
      </trkpt>
      <trkpt lat="45.96458" lon="4.85155">
        <ele>268</ele>
        <time>2016-08-29T15:12:27Z</time>
      </trkpt>
      <trkpt lat="45.96461" lon="4.85145">
        <ele>268</ele>
        <time>2016-08-29T15:12:28Z</time>
      </trkpt>
      <trkpt lat="45.96463" lon="4.85135">
        <ele>268</ele>
        <time>2016-08-29T15:12:29Z</time>
      </trkpt>
      <trkpt lat="45.96465" lon="4.85124">
        <ele>268</ele>
        <time>2016-08-29T15:12:30Z</time>
      </trkpt>
      <trkpt lat="45.96467" lon="4.85113">
        <ele>268</ele>
        <time>2016-08-29T15:12:31Z</time>
      </trkpt>
      <trkpt lat="45.96468" lon="4.85102">
        <ele>268</ele>
        <time>2016-08-29T15:12:32Z</time>
      </trkpt>
      <trkpt lat="45.96469" lon="4.8509">
        <ele>268</ele>
        <time>2016-08-29T15:12:33Z</time>
      </trkpt>
      <trkpt lat="45.96469" lon="4.85079">
        <ele>267</ele>
        <time>2016-08-29T15:12:34Z</time>
      </trkpt>
      <trkpt lat="45.96469" lon="4.85068">
        <ele>266</ele>
        <time>2016-08-29T15:12:35Z</time>
      </trkpt>
      <trkpt lat="45.9647" lon="4.85055">
        <ele>266</ele>
        <time>2016-08-29T15:12:36Z</time>
      </trkpt>
      <trkpt lat="45.9647" lon="4.85042">
        <ele>266</ele>
        <time>2016-08-29T15:12:37Z</time>
      </trkpt>
      <trkpt lat="45.9647" lon="4.8503">
        <ele>266</ele>
        <time>2016-08-29T15:12:38Z</time>
      </trkpt>
      <trkpt lat="45.96471" lon="4.85017">
        <ele>266</ele>
        <time>2016-08-29T15:12:39Z</time>
      </trkpt>
      <trkpt lat="45.96471" lon="4.85005">
        <ele>266</ele>
        <time>2016-08-29T15:12:40Z</time>
      </trkpt>
      <trkpt lat="45.96472" lon="4.84992">
        <ele>263</ele>
        <time>2016-08-29T15:12:41Z</time>
      </trkpt>
      <trkpt lat="45.96474" lon="4.84979">
        <ele>262</ele>
        <time>2016-08-29T15:12:42Z</time>
      </trkpt>
      <trkpt lat="45.96476" lon="4.84966">
        <ele>261</ele>
        <time>2016-08-29T15:12:43Z</time>
      </trkpt>
      <trkpt lat="45.96479" lon="4.84954">
        <ele>261</ele>
        <time>2016-08-29T15:12:44Z</time>
      </trkpt>
      <trkpt lat="45.96481" lon="4.84941">
        <ele>260</ele>
        <time>2016-08-29T15:12:45Z</time>
      </trkpt>
      <trkpt lat="45.96484" lon="4.84928">
        <ele>259</ele>
        <time>2016-08-29T15:12:46Z</time>
      </trkpt>
      <trkpt lat="45.96487" lon="4.84914">
        <ele>256</ele>
        <time>2016-08-29T15:12:47Z</time>
      </trkpt>
      <trkpt lat="45.9649" lon="4.84901">
        <ele>256</ele>
        <time>2016-08-29T15:12:48Z</time>
      </trkpt>
      <trkpt lat="45.96493" lon="4.84889">
        <ele>255</ele>
        <time>2016-08-29T15:12:49Z</time>
      </trkpt>
      <trkpt lat="45.96496" lon="4.84877">
        <ele>255</ele>
        <time>2016-08-29T15:12:50Z</time>
      </trkpt>
      <trkpt lat="45.96499" lon="4.84864">
        <ele>255</ele>
        <time>2016-08-29T15:12:51Z</time>
      </trkpt>
      <trkpt lat="45.96502" lon="4.84851">
        <ele>256</ele>
        <time>2016-08-29T15:12:52Z</time>
      </trkpt>
      <trkpt lat="45.96505" lon="4.84838">
        <ele>254</ele>
        <time>2016-08-29T15:12:53Z</time>
      </trkpt>
      <trkpt lat="45.96509" lon="4.84825">
        <ele>254</ele>
        <time>2016-08-29T15:12:54Z</time>
      </trkpt>
      <trkpt lat="45.96512" lon="4.84813">
        <ele>254</ele>
        <time>2016-08-29T15:12:55Z</time>
      </trkpt>
      <trkpt lat="45.96515" lon="4.848">
        <ele>254</ele>
        <time>2016-08-29T15:12:56Z</time>
      </trkpt>
      <trkpt lat="45.96518" lon="4.84787">
        <ele>254</ele>
        <time>2016-08-29T15:12:57Z</time>
      </trkpt>
      <trkpt lat="45.96521" lon="4.84774">
        <ele>254</ele>
        <time>2016-08-29T15:12:58Z</time>
      </trkpt>
      <trkpt lat="45.96524" lon="4.84761">
        <ele>253</ele>
        <time>2016-08-29T15:12:59Z</time>
      </trkpt>
      <trkpt lat="45.96526" lon="4.84749">
        <ele>253</ele>
        <time>2016-08-29T15:13:00Z</time>
      </trkpt>
      <trkpt lat="45.96529" lon="4.84736">
        <ele>253</ele>
        <time>2016-08-29T15:13:01Z</time>
      </trkpt>
      <trkpt lat="45.96531" lon="4.84724">
        <ele>253</ele>
        <time>2016-08-29T15:13:02Z</time>
      </trkpt>
      <trkpt lat="45.96531" lon="4.84711">
        <ele>253</ele>
        <time>2016-08-29T15:13:03Z</time>
      </trkpt>
      <trkpt lat="45.9653" lon="4.84698">
        <ele>253</ele>
        <time>2016-08-29T15:13:04Z</time>
      </trkpt>
      <trkpt lat="45.96528" lon="4.84687">
        <ele>253</ele>
        <time>2016-08-29T15:13:05Z</time>
      </trkpt>
      <trkpt lat="45.96525" lon="4.84677">
        <ele>252</ele>
        <time>2016-08-29T15:13:06Z</time>
      </trkpt>
      <trkpt lat="45.96523" lon="4.84665">
        <ele>252</ele>
        <time>2016-08-29T15:13:07Z</time>
      </trkpt>
      <trkpt lat="45.96521" lon="4.84653">
        <ele>252</ele>
        <time>2016-08-29T15:13:08Z</time>
      </trkpt>
      <trkpt lat="45.9652" lon="4.84642">
        <ele>252</ele>
        <time>2016-08-29T15:13:09Z</time>
      </trkpt>
      <trkpt lat="45.9652" lon="4.84631">
        <ele>252</ele>
        <time>2016-08-29T15:13:10Z</time>
      </trkpt>
      <trkpt lat="45.96521" lon="4.84621">
        <ele>252</ele>
        <time>2016-08-29T15:13:11Z</time>
      </trkpt>
      <trkpt lat="45.96521" lon="4.84611">
        <ele>252</ele>
        <time>2016-08-29T15:13:12Z</time>
      </trkpt>
      <trkpt lat="45.96522" lon="4.84602">
        <ele>252</ele>
        <time>2016-08-29T15:13:13Z</time>
      </trkpt>
      <trkpt lat="45.96522" lon="4.84592">
        <ele>252</ele>
        <time>2016-08-29T15:13:14Z</time>
      </trkpt>
      <trkpt lat="45.96522" lon="4.84583">
        <ele>253</ele>
        <time>2016-08-29T15:13:15Z</time>
      </trkpt>
      <trkpt lat="45.96523" lon="4.84574">
        <ele>253</ele>
        <time>2016-08-29T15:13:16Z</time>
      </trkpt>
      <trkpt lat="45.96523" lon="4.84565">
        <ele>253</ele>
        <time>2016-08-29T15:13:17Z</time>
      </trkpt>
      <trkpt lat="45.96523" lon="4.84556">
        <ele>253</ele>
        <time>2016-08-29T15:13:18Z</time>
      </trkpt>
      <trkpt lat="45.96524" lon="4.84547">
        <ele>253</ele>
        <time>2016-08-29T15:13:19Z</time>
      </trkpt>
      <trkpt lat="45.96524" lon="4.84539">
        <ele>253</ele>
        <time>2016-08-29T15:13:20Z</time>
      </trkpt>
      <trkpt lat="45.96525" lon="4.84531">
        <ele>253</ele>
        <time>2016-08-29T15:13:21Z</time>
      </trkpt>
      <trkpt lat="45.96526" lon="4.84522">
        <ele>253</ele>
        <time>2016-08-29T15:13:22Z</time>
      </trkpt>
      <trkpt lat="45.96527" lon="4.84513">
        <ele>253</ele>
        <time>2016-08-29T15:13:23Z</time>
      </trkpt>
      <trkpt lat="45.96527" lon="4.84504">
        <ele>253</ele>
        <time>2016-08-29T15:13:24Z</time>
      </trkpt>
      <trkpt lat="45.96528" lon="4.84495">
        <ele>253</ele>
        <time>2016-08-29T15:13:25Z</time>
      </trkpt>
      <trkpt lat="45.96528" lon="4.84485">
        <ele>253</ele>
        <time>2016-08-29T15:13:26Z</time>
      </trkpt>
      <trkpt lat="45.96529" lon="4.84476">
        <ele>253</ele>
        <time>2016-08-29T15:13:27Z</time>
      </trkpt>
      <trkpt lat="45.96529" lon="4.84467">
        <ele>253</ele>
        <time>2016-08-29T15:13:28Z</time>
      </trkpt>
      <trkpt lat="45.96529" lon="4.84458">
        <ele>253</ele>
        <time>2016-08-29T15:13:29Z</time>
      </trkpt>
      <trkpt lat="45.96529" lon="4.84449">
        <ele>253</ele>
        <time>2016-08-29T15:13:30Z</time>
      </trkpt>
      <trkpt lat="45.9653" lon="4.84441">
        <ele>253</ele>
        <time>2016-08-29T15:13:31Z</time>
      </trkpt>
      <trkpt lat="45.96531" lon="4.84432">
        <ele>253</ele>
        <time>2016-08-29T15:13:32Z</time>
      </trkpt>
      <trkpt lat="45.96532" lon="4.84424">
        <ele>253</ele>
        <time>2016-08-29T15:13:33Z</time>
      </trkpt>
      <trkpt lat="45.96532" lon="4.84416">
        <ele>252</ele>
        <time>2016-08-29T15:13:34Z</time>
      </trkpt>
      <trkpt lat="45.96532" lon="4.84408">
        <ele>252</ele>
        <time>2016-08-29T15:13:35Z</time>
      </trkpt>
      <trkpt lat="45.96532" lon="4.84399">
        <ele>252</ele>
        <time>2016-08-29T15:13:36Z</time>
      </trkpt>
      <trkpt lat="45.96532" lon="4.8439">
        <ele>252</ele>
        <time>2016-08-29T15:13:37Z</time>
      </trkpt>
      <trkpt lat="45.96532" lon="4.84381">
        <ele>251</ele>
        <time>2016-08-29T15:13:38Z</time>
      </trkpt>
      <trkpt lat="45.96531" lon="4.84372">
        <ele>251</ele>
        <time>2016-08-29T15:13:39Z</time>
      </trkpt>
      <trkpt lat="45.96529" lon="4.84363">
        <ele>251</ele>
        <time>2016-08-29T15:13:40Z</time>
      </trkpt>
      <trkpt lat="45.96528" lon="4.84354">
        <ele>251</ele>
        <time>2016-08-29T15:13:41Z</time>
      </trkpt>
      <trkpt lat="45.96526" lon="4.84345">
        <ele>251</ele>
        <time>2016-08-29T15:13:42Z</time>
      </trkpt>
      <trkpt lat="45.96524" lon="4.84336">
        <ele>251</ele>
        <time>2016-08-29T15:13:43Z</time>
      </trkpt>
      <trkpt lat="45.96522" lon="4.84328">
        <ele>250</ele>
        <time>2016-08-29T15:13:44Z</time>
      </trkpt>
      <trkpt lat="45.9652" lon="4.8432">
        <ele>250</ele>
        <time>2016-08-29T15:13:45Z</time>
      </trkpt>
      <trkpt lat="45.96518" lon="4.84312">
        <ele>250</ele>
        <time>2016-08-29T15:13:46Z</time>
      </trkpt>
      <trkpt lat="45.96517" lon="4.84305">
        <ele>250</ele>
        <time>2016-08-29T15:13:47Z</time>
      </trkpt>
      <trkpt lat="45.96515" lon="4.84298">
        <ele>250</ele>
        <time>2016-08-29T15:13:48Z</time>
      </trkpt>
      <trkpt lat="45.96514" lon="4.84292">
        <ele>250</ele>
        <time>2016-08-29T15:13:49Z</time>
      </trkpt>
      <trkpt lat="45.96513" lon="4.84285">
        <ele>250</ele>
        <time>2016-08-29T15:13:50Z</time>
      </trkpt>
      <trkpt lat="45.96512" lon="4.84278">
        <ele>250</ele>
        <time>2016-08-29T15:13:51Z</time>
      </trkpt>
      <trkpt lat="45.9651" lon="4.84271">
        <ele>250</ele>
        <time>2016-08-29T15:13:52Z</time>
      </trkpt>
      <trkpt lat="45.96508" lon="4.84264">
        <ele>251</ele>
        <time>2016-08-29T15:13:53Z</time>
      </trkpt>
      <trkpt lat="45.96506" lon="4.84256">
        <ele>251</ele>
        <time>2016-08-29T15:13:54Z</time>
      </trkpt>
      <trkpt lat="45.96505" lon="4.84249">
        <ele>251</ele>
        <time>2016-08-29T15:13:55Z</time>
      </trkpt>
      <trkpt lat="45.96504" lon="4.84242">
        <ele>250</ele>
        <time>2016-08-29T15:13:56Z</time>
      </trkpt>
      <trkpt lat="45.96502" lon="4.84234">
        <ele>250</ele>
        <time>2016-08-29T15:13:57Z</time>
      </trkpt>
      <trkpt lat="45.96501" lon="4.84227">
        <ele>250</ele>
        <time>2016-08-29T15:13:58Z</time>
      </trkpt>
      <trkpt lat="45.96499" lon="4.8422">
        <ele>252</ele>
        <time>2016-08-29T15:13:59Z</time>
      </trkpt>
      <trkpt lat="45.96498" lon="4.84213">
        <ele>251</ele>
        <time>2016-08-29T15:14:00Z</time>
      </trkpt>
      <trkpt lat="45.96496" lon="4.84206">
        <ele>251</ele>
        <time>2016-08-29T15:14:01Z</time>
      </trkpt>
      <trkpt lat="45.96495" lon="4.84199">
        <ele>251</ele>
        <time>2016-08-29T15:14:02Z</time>
      </trkpt>
      <trkpt lat="45.96494" lon="4.84193">
        <ele>251</ele>
        <time>2016-08-29T15:14:03Z</time>
      </trkpt>
      <trkpt lat="45.96493" lon="4.84187">
        <ele>251</ele>
        <time>2016-08-29T15:14:04Z</time>
      </trkpt>
      <trkpt lat="45.96491" lon="4.8418">
        <ele>251</ele>
        <time>2016-08-29T15:14:05Z</time>
      </trkpt>
      <trkpt lat="45.9649" lon="4.84174">
        <ele>250</ele>
        <time>2016-08-29T15:14:06Z</time>
      </trkpt>
      <trkpt lat="45.96488" lon="4.84167">
        <ele>250</ele>
        <time>2016-08-29T15:14:07Z</time>
      </trkpt>
      <trkpt lat="45.96486" lon="4.84159">
        <ele>250</ele>
        <time>2016-08-29T15:14:08Z</time>
      </trkpt>
      <trkpt lat="45.96485" lon="4.84152">
        <ele>251</ele>
        <time>2016-08-29T15:14:09Z</time>
      </trkpt>
      <trkpt lat="45.96483" lon="4.84144">
        <ele>251</ele>
        <time>2016-08-29T15:14:10Z</time>
      </trkpt>
      <trkpt lat="45.96481" lon="4.84136">
        <ele>251</ele>
        <time>2016-08-29T15:14:11Z</time>
      </trkpt>
      <trkpt lat="45.96478" lon="4.84127">
        <ele>251</ele>
        <time>2016-08-29T15:14:12Z</time>
      </trkpt>
      <trkpt lat="45.96476" lon="4.84119">
        <ele>251</ele>
        <time>2016-08-29T15:14:13Z</time>
      </trkpt>
      <trkpt lat="45.96473" lon="4.84111">
        <ele>251</ele>
        <time>2016-08-29T15:14:14Z</time>
      </trkpt>
      <trkpt lat="45.9647" lon="4.84103">
        <ele>251</ele>
        <time>2016-08-29T15:14:15Z</time>
      </trkpt>
      <trkpt lat="45.96468" lon="4.84094">
        <ele>251</ele>
        <time>2016-08-29T15:14:16Z</time>
      </trkpt>
      <trkpt lat="45.96465" lon="4.84086">
        <ele>251</ele>
        <time>2016-08-29T15:14:17Z</time>
      </trkpt>
      <trkpt lat="45.96461" lon="4.84076">
        <ele>251</ele>
        <time>2016-08-29T15:14:18Z</time>
      </trkpt>
      <trkpt lat="45.96458" lon="4.84067">
        <ele>251</ele>
        <time>2016-08-29T15:14:19Z</time>
      </trkpt>
      <trkpt lat="45.96455" lon="4.84059">
        <ele>251</ele>
        <time>2016-08-29T15:14:20Z</time>
      </trkpt>
      <trkpt lat="45.96452" lon="4.84049">
        <ele>251</ele>
        <time>2016-08-29T15:14:21Z</time>
      </trkpt>
      <trkpt lat="45.96448" lon="4.8404">
        <ele>251</ele>
        <time>2016-08-29T15:14:22Z</time>
      </trkpt>
      <trkpt lat="45.96444" lon="4.84031">
        <ele>251</ele>
        <time>2016-08-29T15:14:23Z</time>
      </trkpt>
      <trkpt lat="45.96441" lon="4.84021">
        <ele>251</ele>
        <time>2016-08-29T15:14:24Z</time>
      </trkpt>
      <trkpt lat="45.96437" lon="4.84012">
        <ele>251</ele>
        <time>2016-08-29T15:14:25Z</time>
      </trkpt>
      <trkpt lat="45.96433" lon="4.84002">
        <ele>252</ele>
        <time>2016-08-29T15:14:26Z</time>
      </trkpt>
      <trkpt lat="45.96429" lon="4.83993">
        <ele>251</ele>
        <time>2016-08-29T15:14:27Z</time>
      </trkpt>
      <trkpt lat="45.96425" lon="4.83983">
        <ele>251</ele>
        <time>2016-08-29T15:14:28Z</time>
      </trkpt>
      <trkpt lat="45.96421" lon="4.83973">
        <ele>250</ele>
        <time>2016-08-29T15:14:29Z</time>
      </trkpt>
      <trkpt lat="45.96416" lon="4.83963">
        <ele>252</ele>
        <time>2016-08-29T15:14:30Z</time>
      </trkpt>
      <trkpt lat="45.96411" lon="4.83952">
        <ele>252</ele>
        <time>2016-08-29T15:14:31Z</time>
      </trkpt>
      <trkpt lat="45.96407" lon="4.83941">
        <ele>251</ele>
        <time>2016-08-29T15:14:32Z</time>
      </trkpt>
      <trkpt lat="45.96402" lon="4.83931">
        <ele>250</ele>
        <time>2016-08-29T15:14:33Z</time>
      </trkpt>
      <trkpt lat="45.96397" lon="4.8392">
        <ele>250</ele>
        <time>2016-08-29T15:14:34Z</time>
      </trkpt>
      <trkpt lat="45.96392" lon="4.83909">
        <ele>248</ele>
        <time>2016-08-29T15:14:35Z</time>
      </trkpt>
      <trkpt lat="45.96388" lon="4.83898">
        <ele>248</ele>
        <time>2016-08-29T15:14:36Z</time>
      </trkpt>
      <trkpt lat="45.96384" lon="4.83887">
        <ele>247</ele>
        <time>2016-08-29T15:14:37Z</time>
      </trkpt>
      <trkpt lat="45.96378" lon="4.83876">
        <ele>247</ele>
        <time>2016-08-29T15:14:38Z</time>
      </trkpt>
      <trkpt lat="45.96372" lon="4.83865">
        <ele>247</ele>
        <time>2016-08-29T15:14:39Z</time>
      </trkpt>
      <trkpt lat="45.96367" lon="4.83855">
        <ele>247</ele>
        <time>2016-08-29T15:14:40Z</time>
      </trkpt>
      <trkpt lat="45.96361" lon="4.83845">
        <ele>246</ele>
        <time>2016-08-29T15:14:41Z</time>
      </trkpt>
      <trkpt lat="45.96354" lon="4.83836">
        <ele>245</ele>
        <time>2016-08-29T15:14:42Z</time>
      </trkpt>
      <trkpt lat="45.96348" lon="4.83828">
        <ele>245</ele>
        <time>2016-08-29T15:14:43Z</time>
      </trkpt>
      <trkpt lat="45.96341" lon="4.8382">
        <ele>245</ele>
        <time>2016-08-29T15:14:44Z</time>
      </trkpt>
      <trkpt lat="45.96334" lon="4.83813">
        <ele>246</ele>
        <time>2016-08-29T15:14:45Z</time>
      </trkpt>
      <trkpt lat="45.96327" lon="4.83807">
        <ele>245</ele>
        <time>2016-08-29T15:14:46Z</time>
      </trkpt>
      <trkpt lat="45.96321" lon="4.83801">
        <ele>245</ele>
        <time>2016-08-29T15:14:47Z</time>
      </trkpt>
      <trkpt lat="45.96314" lon="4.83794">
        <ele>245</ele>
        <time>2016-08-29T15:14:48Z</time>
      </trkpt>
      <trkpt lat="45.96307" lon="4.83789">
        <ele>245</ele>
        <time>2016-08-29T15:14:49Z</time>
      </trkpt>
      <trkpt lat="45.963" lon="4.83783">
        <ele>245</ele>
        <time>2016-08-29T15:14:50Z</time>
      </trkpt>
      <trkpt lat="45.96294" lon="4.83778">
        <ele>245</ele>
        <time>2016-08-29T15:14:51Z</time>
      </trkpt>
      <trkpt lat="45.96289" lon="4.83773">
        <ele>245</ele>
        <time>2016-08-29T15:14:52Z</time>
      </trkpt>
      <trkpt lat="45.96283" lon="4.83767">
        <ele>245</ele>
        <time>2016-08-29T15:14:53Z</time>
      </trkpt>
      <trkpt lat="45.96277" lon="4.83762">
        <ele>245</ele>
        <time>2016-08-29T15:14:54Z</time>
      </trkpt>
      <trkpt lat="45.96271" lon="4.83757">
        <ele>245</ele>
        <time>2016-08-29T15:14:55Z</time>
      </trkpt>
      <trkpt lat="45.96265" lon="4.83752">
        <ele>245</ele>
        <time>2016-08-29T15:14:56Z</time>
      </trkpt>
      <trkpt lat="45.96259" lon="4.83746">
        <ele>245</ele>
        <time>2016-08-29T15:14:57Z</time>
      </trkpt>
      <trkpt lat="45.96253" lon="4.8374">
        <ele>245</ele>
        <time>2016-08-29T15:14:58Z</time>
      </trkpt>
      <trkpt lat="45.96248" lon="4.83733">
        <ele>244</ele>
        <time>2016-08-29T15:14:59Z</time>
      </trkpt>
      <trkpt lat="45.96242" lon="4.83728">
        <ele>244</ele>
        <time>2016-08-29T15:15:00Z</time>
      </trkpt>
      <trkpt lat="45.96237" lon="4.83722">
        <ele>244</ele>
        <time>2016-08-29T15:15:01Z</time>
      </trkpt>
      <trkpt lat="45.96232" lon="4.83716">
        <ele>244</ele>
        <time>2016-08-29T15:15:02Z</time>
      </trkpt>
      <trkpt lat="45.96227" lon="4.83711">
        <ele>244</ele>
        <time>2016-08-29T15:15:03Z</time>
      </trkpt>
      <trkpt lat="45.96223" lon="4.83705">
        <ele>244</ele>
        <time>2016-08-29T15:15:04Z</time>
      </trkpt>
      <trkpt lat="45.96219" lon="4.837">
        <ele>244</ele>
        <time>2016-08-29T15:15:05Z</time>
      </trkpt>
      <trkpt lat="45.96213" lon="4.83694">
        <ele>243</ele>
        <time>2016-08-29T15:15:06Z</time>
      </trkpt>
      <trkpt lat="45.9621" lon="4.83689">
        <ele>243</ele>
        <time>2016-08-29T15:15:07Z</time>
      </trkpt>
      <trkpt lat="45.96205" lon="4.83684">
        <ele>243</ele>
        <time>2016-08-29T15:15:08Z</time>
      </trkpt>
      <trkpt lat="45.962" lon="4.83679">
        <ele>243</ele>
        <time>2016-08-29T15:15:09Z</time>
      </trkpt>
      <trkpt lat="45.96196" lon="4.83674">
        <ele>243</ele>
        <time>2016-08-29T15:15:10Z</time>
      </trkpt>
      <trkpt lat="45.96191" lon="4.83668">
        <ele>243</ele>
        <time>2016-08-29T15:15:11Z</time>
      </trkpt>
      <trkpt lat="45.96187" lon="4.83662">
        <ele>242</ele>
        <time>2016-08-29T15:15:12Z</time>
      </trkpt>
      <trkpt lat="45.96182" lon="4.83656">
        <ele>242</ele>
        <time>2016-08-29T15:15:13Z</time>
      </trkpt>
      <trkpt lat="45.96177" lon="4.8365">
        <ele>242</ele>
        <time>2016-08-29T15:15:14Z</time>
      </trkpt>
      <trkpt lat="45.96173" lon="4.83643">
        <ele>242</ele>
        <time>2016-08-29T15:15:15Z</time>
      </trkpt>
      <trkpt lat="45.96169" lon="4.83635">
        <ele>241</ele>
        <time>2016-08-29T15:15:16Z</time>
      </trkpt>
      <trkpt lat="45.96165" lon="4.83627">
        <ele>242</ele>
        <time>2016-08-29T15:15:17Z</time>
      </trkpt>
      <trkpt lat="45.96163" lon="4.83618">
        <ele>242</ele>
        <time>2016-08-29T15:15:18Z</time>
      </trkpt>
      <trkpt lat="45.9616" lon="4.83609">
        <ele>242</ele>
        <time>2016-08-29T15:15:19Z</time>
      </trkpt>
      <trkpt lat="45.96158" lon="4.836">
        <ele>242</ele>
        <time>2016-08-29T15:15:20Z</time>
      </trkpt>
      <trkpt lat="45.96156" lon="4.8359">
        <ele>241</ele>
        <time>2016-08-29T15:15:21Z</time>
      </trkpt>
      <trkpt lat="45.96154" lon="4.83582">
        <ele>241</ele>
        <time>2016-08-29T15:15:22Z</time>
      </trkpt>
      <trkpt lat="45.96152" lon="4.83574">
        <ele>241</ele>
        <time>2016-08-29T15:15:23Z</time>
      </trkpt>
      <trkpt lat="45.96149" lon="4.83564">
        <ele>241</ele>
        <time>2016-08-29T15:15:24Z</time>
      </trkpt>
      <trkpt lat="45.96147" lon="4.83556">
        <ele>241</ele>
        <time>2016-08-29T15:15:25Z</time>
      </trkpt>
      <trkpt lat="45.96146" lon="4.83547">
        <ele>242</ele>
        <time>2016-08-29T15:15:26Z</time>
      </trkpt>
      <trkpt lat="45.96144" lon="4.83539">
        <ele>242</ele>
        <time>2016-08-29T15:15:27Z</time>
      </trkpt>
      <trkpt lat="45.96142" lon="4.83531">
        <ele>242</ele>
        <time>2016-08-29T15:15:28Z</time>
      </trkpt>
      <trkpt lat="45.9614" lon="4.83523">
        <ele>242</ele>
        <time>2016-08-29T15:15:29Z</time>
      </trkpt>
      <trkpt lat="45.96138" lon="4.83514">
        <ele>241</ele>
        <time>2016-08-29T15:15:30Z</time>
      </trkpt>
      <trkpt lat="45.96137" lon="4.83506">
        <ele>241</ele>
        <time>2016-08-29T15:15:31Z</time>
      </trkpt>
      <trkpt lat="45.96135" lon="4.83497">
        <ele>242</ele>
        <time>2016-08-29T15:15:32Z</time>
      </trkpt>
      <trkpt lat="45.96133" lon="4.83488">
        <ele>242</ele>
        <time>2016-08-29T15:15:33Z</time>
      </trkpt>
      <trkpt lat="45.96131" lon="4.8348">
        <ele>242</ele>
        <time>2016-08-29T15:15:34Z</time>
      </trkpt>
      <trkpt lat="45.96129" lon="4.83471">
        <ele>242</ele>
        <time>2016-08-29T15:15:35Z</time>
      </trkpt>
      <trkpt lat="45.96127" lon="4.83461">
        <ele>242</ele>
        <time>2016-08-29T15:15:36Z</time>
      </trkpt>
      <trkpt lat="45.96125" lon="4.83452">
        <ele>242</ele>
        <time>2016-08-29T15:15:37Z</time>
      </trkpt>
      <trkpt lat="45.96123" lon="4.83443">
        <ele>242</ele>
        <time>2016-08-29T15:15:38Z</time>
      </trkpt>
      <trkpt lat="45.96121" lon="4.83434">
        <ele>242</ele>
        <time>2016-08-29T15:15:39Z</time>
      </trkpt>
      <trkpt lat="45.96118" lon="4.83425">
        <ele>243</ele>
        <time>2016-08-29T15:15:40Z</time>
      </trkpt>
      <trkpt lat="45.96117" lon="4.83416">
        <ele>243</ele>
        <time>2016-08-29T15:15:41Z</time>
      </trkpt>
      <trkpt lat="45.96114" lon="4.83406">
        <ele>243</ele>
        <time>2016-08-29T15:15:42Z</time>
      </trkpt>
      <trkpt lat="45.96112" lon="4.83397">
        <ele>243</ele>
        <time>2016-08-29T15:15:43Z</time>
      </trkpt>
      <trkpt lat="45.96111" lon="4.83388">
        <ele>243</ele>
        <time>2016-08-29T15:15:44Z</time>
      </trkpt>
      <trkpt lat="45.9611" lon="4.83378">
        <ele>242</ele>
        <time>2016-08-29T15:15:45Z</time>
      </trkpt>
      <trkpt lat="45.96108" lon="4.83369">
        <ele>242</ele>
        <time>2016-08-29T15:15:46Z</time>
      </trkpt>
      <trkpt lat="45.96106" lon="4.8336">
        <ele>242</ele>
        <time>2016-08-29T15:15:47Z</time>
      </trkpt>
      <trkpt lat="45.96105" lon="4.83351">
        <ele>242</ele>
        <time>2016-08-29T15:15:48Z</time>
      </trkpt>
      <trkpt lat="45.96103" lon="4.83342">
        <ele>242</ele>
        <time>2016-08-29T15:15:49Z</time>
      </trkpt>
      <trkpt lat="45.96101" lon="4.83334">
        <ele>242</ele>
        <time>2016-08-29T15:15:50Z</time>
      </trkpt>
      <trkpt lat="45.961" lon="4.83325">
        <ele>241</ele>
        <time>2016-08-29T15:15:51Z</time>
      </trkpt>
      <trkpt lat="45.96098" lon="4.83317">
        <ele>241</ele>
        <time>2016-08-29T15:15:52Z</time>
      </trkpt>
      <trkpt lat="45.96096" lon="4.83308">
        <ele>241</ele>
        <time>2016-08-29T15:15:53Z</time>
      </trkpt>
      <trkpt lat="45.96096" lon="4.83297">
        <ele>241</ele>
        <time>2016-08-29T15:15:54Z</time>
      </trkpt>
      <trkpt lat="45.96095" lon="4.83287">
        <ele>241</ele>
        <time>2016-08-29T15:15:55Z</time>
      </trkpt>
      <trkpt lat="45.96094" lon="4.83277">
        <ele>241</ele>
        <time>2016-08-29T15:15:56Z</time>
      </trkpt>
      <trkpt lat="45.96094" lon="4.83267">
        <ele>241</ele>
        <time>2016-08-29T15:15:57Z</time>
      </trkpt>
      <trkpt lat="45.96093" lon="4.83256">
        <ele>241</ele>
        <time>2016-08-29T15:15:58Z</time>
      </trkpt>
      <trkpt lat="45.96093" lon="4.83247">
        <ele>240</ele>
        <time>2016-08-29T15:15:59Z</time>
      </trkpt>
      <trkpt lat="45.96092" lon="4.83237">
        <ele>240</ele>
        <time>2016-08-29T15:16:00Z</time>
      </trkpt>
      <trkpt lat="45.96092" lon="4.83227">
        <ele>240</ele>
        <time>2016-08-29T15:16:01Z</time>
      </trkpt>
      <trkpt lat="45.96092" lon="4.83218">
        <ele>240</ele>
        <time>2016-08-29T15:16:02Z</time>
      </trkpt>
      <trkpt lat="45.96092" lon="4.83208">
        <ele>240</ele>
        <time>2016-08-29T15:16:03Z</time>
      </trkpt>
      <trkpt lat="45.96092" lon="4.83199">
        <ele>240</ele>
        <time>2016-08-29T15:16:04Z</time>
      </trkpt>
      <trkpt lat="45.96092" lon="4.8319">
        <ele>240</ele>
        <time>2016-08-29T15:16:05Z</time>
      </trkpt>
      <trkpt lat="45.96092" lon="4.8318">
        <ele>240</ele>
        <time>2016-08-29T15:16:06Z</time>
      </trkpt>
      <trkpt lat="45.96092" lon="4.83171">
        <ele>240</ele>
        <time>2016-08-29T15:16:07Z</time>
      </trkpt>
      <trkpt lat="45.96091" lon="4.83162">
        <ele>240</ele>
        <time>2016-08-29T15:16:08Z</time>
      </trkpt>
      <trkpt lat="45.96091" lon="4.83154">
        <ele>240</ele>
        <time>2016-08-29T15:16:09Z</time>
      </trkpt>
      <trkpt lat="45.9609" lon="4.83145">
        <ele>240</ele>
        <time>2016-08-29T15:16:10Z</time>
      </trkpt>
      <trkpt lat="45.9609" lon="4.83136">
        <ele>240</ele>
        <time>2016-08-29T15:16:11Z</time>
      </trkpt>
      <trkpt lat="45.9609" lon="4.83126">
        <ele>240</ele>
        <time>2016-08-29T15:16:12Z</time>
      </trkpt>
      <trkpt lat="45.96088" lon="4.83117">
        <ele>240</ele>
        <time>2016-08-29T15:16:13Z</time>
      </trkpt>
      <trkpt lat="45.96087" lon="4.83109">
        <ele>240</ele>
        <time>2016-08-29T15:16:14Z</time>
      </trkpt>
      <trkpt lat="45.96085" lon="4.831">
        <ele>240</ele>
        <time>2016-08-29T15:16:15Z</time>
      </trkpt>
      <trkpt lat="45.96084" lon="4.83092">
        <ele>240</ele>
        <time>2016-08-29T15:16:16Z</time>
      </trkpt>
      <trkpt lat="45.96082" lon="4.83083">
        <ele>240</ele>
        <time>2016-08-29T15:16:17Z</time>
      </trkpt>
      <trkpt lat="45.9608" lon="4.83075">
        <ele>241</ele>
        <time>2016-08-29T15:16:18Z</time>
      </trkpt>
      <trkpt lat="45.96078" lon="4.83068">
        <ele>242</ele>
        <time>2016-08-29T15:16:19Z</time>
      </trkpt>
      <trkpt lat="45.96075" lon="4.83061">
        <ele>242</ele>
        <time>2016-08-29T15:16:20Z</time>
      </trkpt>
      <trkpt lat="45.96074" lon="4.83052">
        <ele>243</ele>
        <time>2016-08-29T15:16:21Z</time>
      </trkpt>
      <trkpt lat="45.96071" lon="4.83041">
        <ele>243</ele>
        <time>2016-08-29T15:16:22Z</time>
      </trkpt>
      <trkpt lat="45.96069" lon="4.83032">
        <ele>243</ele>
        <time>2016-08-29T15:16:23Z</time>
      </trkpt>
      <trkpt lat="45.96068" lon="4.83023">
        <ele>242</ele>
        <time>2016-08-29T15:16:24Z</time>
      </trkpt>
      <trkpt lat="45.96067" lon="4.83014">
        <ele>242</ele>
        <time>2016-08-29T15:16:25Z</time>
      </trkpt>
      <trkpt lat="45.96067" lon="4.83006">
        <ele>242</ele>
        <time>2016-08-29T15:16:26Z</time>
      </trkpt>
      <trkpt lat="45.96066" lon="4.82999">
        <ele>241</ele>
        <time>2016-08-29T15:16:27Z</time>
      </trkpt>
      <trkpt lat="45.96066" lon="4.82991">
        <ele>241</ele>
        <time>2016-08-29T15:16:28Z</time>
      </trkpt>
      <trkpt lat="45.96066" lon="4.82982">
        <ele>241</ele>
        <time>2016-08-29T15:16:29Z</time>
      </trkpt>
      <trkpt lat="45.96069" lon="4.82974">
        <ele>241</ele>
        <time>2016-08-29T15:16:30Z</time>
      </trkpt>
      <trkpt lat="45.96071" lon="4.82966">
        <ele>241</ele>
        <time>2016-08-29T15:16:31Z</time>
      </trkpt>
      <trkpt lat="45.96074" lon="4.82958">
        <ele>241</ele>
        <time>2016-08-29T15:16:32Z</time>
      </trkpt>
      <trkpt lat="45.96077" lon="4.82949">
        <ele>241</ele>
        <time>2016-08-29T15:16:33Z</time>
      </trkpt>
      <trkpt lat="45.96079" lon="4.82941">
        <ele>240</ele>
        <time>2016-08-29T15:16:34Z</time>
      </trkpt>
      <trkpt lat="45.96081" lon="4.82933">
        <ele>240</ele>
        <time>2016-08-29T15:16:35Z</time>
      </trkpt>
      <trkpt lat="45.96083" lon="4.82924">
        <ele>239</ele>
        <time>2016-08-29T15:16:36Z</time>
      </trkpt>
      <trkpt lat="45.96084" lon="4.82918">
        <ele>238</ele>
        <time>2016-08-29T15:16:37Z</time>
      </trkpt>
      <trkpt lat="45.96086" lon="4.82911">
        <ele>238</ele>
        <time>2016-08-29T15:16:38Z</time>
      </trkpt>
      <trkpt lat="45.96088" lon="4.82903">
        <ele>238</ele>
        <time>2016-08-29T15:16:39Z</time>
      </trkpt>
      <trkpt lat="45.96089" lon="4.82895">
        <ele>238</ele>
        <time>2016-08-29T15:16:40Z</time>
      </trkpt>
      <trkpt lat="45.96092" lon="4.82888">
        <ele>237</ele>
        <time>2016-08-29T15:16:41Z</time>
      </trkpt>
      <trkpt lat="45.96093" lon="4.8288">
        <ele>237</ele>
        <time>2016-08-29T15:16:42Z</time>
      </trkpt>
      <trkpt lat="45.96095" lon="4.82873">
        <ele>237</ele>
        <time>2016-08-29T15:16:43Z</time>
      </trkpt>
      <trkpt lat="45.96096" lon="4.82866">
        <ele>237</ele>
        <time>2016-08-29T15:16:44Z</time>
      </trkpt>
      <trkpt lat="45.96098" lon="4.82859">
        <ele>237</ele>
        <time>2016-08-29T15:16:45Z</time>
      </trkpt>
      <trkpt lat="45.96098" lon="4.82852">
        <ele>237</ele>
        <time>2016-08-29T15:16:46Z</time>
      </trkpt>
      <trkpt lat="45.96098" lon="4.82844">
        <ele>237</ele>
        <time>2016-08-29T15:16:47Z</time>
      </trkpt>
      <trkpt lat="45.96097" lon="4.82836">
        <ele>237</ele>
        <time>2016-08-29T15:16:48Z</time>
      </trkpt>
      <trkpt lat="45.96097" lon="4.82828">
        <ele>237</ele>
        <time>2016-08-29T15:16:49Z</time>
      </trkpt>
      <trkpt lat="45.96096" lon="4.8282">
        <ele>237</ele>
        <time>2016-08-29T15:16:50Z</time>
      </trkpt>
      <trkpt lat="45.96095" lon="4.82812">
        <ele>237</ele>
        <time>2016-08-29T15:16:51Z</time>
      </trkpt>
      <trkpt lat="45.96093" lon="4.82804">
        <ele>237</ele>
        <time>2016-08-29T15:16:52Z</time>
      </trkpt>
      <trkpt lat="45.96092" lon="4.82796">
        <ele>237</ele>
        <time>2016-08-29T15:16:53Z</time>
      </trkpt>
      <trkpt lat="45.9609" lon="4.82787">
        <ele>237</ele>
        <time>2016-08-29T15:16:54Z</time>
      </trkpt>
      <trkpt lat="45.96088" lon="4.82779">
        <ele>237</ele>
        <time>2016-08-29T15:16:55Z</time>
      </trkpt>
      <trkpt lat="45.96085" lon="4.82771">
        <ele>237</ele>
        <time>2016-08-29T15:16:56Z</time>
      </trkpt>
      <trkpt lat="45.96083" lon="4.82763">
        <ele>238</ele>
        <time>2016-08-29T15:16:57Z</time>
      </trkpt>
      <trkpt lat="45.96081" lon="4.82755">
        <ele>237</ele>
        <time>2016-08-29T15:16:58Z</time>
      </trkpt>
      <trkpt lat="45.96078" lon="4.82748">
        <ele>237</ele>
        <time>2016-08-29T15:16:59Z</time>
      </trkpt>
      <trkpt lat="45.96075" lon="4.82741">
        <ele>237</ele>
        <time>2016-08-29T15:17:00Z</time>
      </trkpt>
      <trkpt lat="45.96073" lon="4.82734">
        <ele>237</ele>
        <time>2016-08-29T15:17:01Z</time>
      </trkpt>
      <trkpt lat="45.96071" lon="4.82727">
        <ele>237</ele>
        <time>2016-08-29T15:17:02Z</time>
      </trkpt>
      <trkpt lat="45.96069" lon="4.8272">
        <ele>237</ele>
        <time>2016-08-29T15:17:03Z</time>
      </trkpt>
      <trkpt lat="45.96066" lon="4.82714">
        <ele>237</ele>
        <time>2016-08-29T15:17:04Z</time>
      </trkpt>
      <trkpt lat="45.96064" lon="4.82708">
        <ele>237</ele>
        <time>2016-08-29T15:17:05Z</time>
      </trkpt>
      <trkpt lat="45.96062" lon="4.82701">
        <ele>237</ele>
        <time>2016-08-29T15:17:06Z</time>
      </trkpt>
      <trkpt lat="45.9606" lon="4.82695">
        <ele>237</ele>
        <time>2016-08-29T15:17:07Z</time>
      </trkpt>
      <trkpt lat="45.96057" lon="4.82688">
        <ele>236</ele>
        <time>2016-08-29T15:17:08Z</time>
      </trkpt>
      <trkpt lat="45.96055" lon="4.82681">
        <ele>236</ele>
        <time>2016-08-29T15:17:09Z</time>
      </trkpt>
      <trkpt lat="45.96052" lon="4.82675">
        <ele>236</ele>
        <time>2016-08-29T15:17:10Z</time>
      </trkpt>
      <trkpt lat="45.96049" lon="4.82668">
        <ele>236</ele>
        <time>2016-08-29T15:17:11Z</time>
      </trkpt>
      <trkpt lat="45.96046" lon="4.8266">
        <ele>235</ele>
        <time>2016-08-29T15:17:12Z</time>
      </trkpt>
      <trkpt lat="45.96044" lon="4.82652">
        <ele>235</ele>
        <time>2016-08-29T15:17:13Z</time>
      </trkpt>
      <trkpt lat="45.96041" lon="4.82646">
        <ele>235</ele>
        <time>2016-08-29T15:17:14Z</time>
      </trkpt>
      <trkpt lat="45.96037" lon="4.82638">
        <ele>235</ele>
        <time>2016-08-29T15:17:15Z</time>
      </trkpt>
      <trkpt lat="45.96033" lon="4.82631">
        <ele>235</ele>
        <time>2016-08-29T15:17:16Z</time>
      </trkpt>
      <trkpt lat="45.96031" lon="4.82624">
        <ele>235</ele>
        <time>2016-08-29T15:17:17Z</time>
      </trkpt>
      <trkpt lat="45.96029" lon="4.82618">
        <ele>235</ele>
        <time>2016-08-29T15:17:18Z</time>
      </trkpt>
      <trkpt lat="45.96026" lon="4.82612">
        <ele>235</ele>
        <time>2016-08-29T15:17:19Z</time>
      </trkpt>
      <trkpt lat="45.96023" lon="4.82605">
        <ele>235</ele>
        <time>2016-08-29T15:17:20Z</time>
      </trkpt>
      <trkpt lat="45.96021" lon="4.82599">
        <ele>235</ele>
        <time>2016-08-29T15:17:21Z</time>
      </trkpt>
      <trkpt lat="45.96018" lon="4.82593">
        <ele>235</ele>
        <time>2016-08-29T15:17:22Z</time>
      </trkpt>
      <trkpt lat="45.96016" lon="4.82585">
        <ele>235</ele>
        <time>2016-08-29T15:17:23Z</time>
      </trkpt>
      <trkpt lat="45.96014" lon="4.82578">
        <ele>234</ele>
        <time>2016-08-29T15:17:24Z</time>
      </trkpt>
      <trkpt lat="45.96012" lon="4.8257">
        <ele>234</ele>
        <time>2016-08-29T15:17:25Z</time>
      </trkpt>
      <trkpt lat="45.9601" lon="4.82562">
        <ele>235</ele>
        <time>2016-08-29T15:17:26Z</time>
      </trkpt>
      <trkpt lat="45.96009" lon="4.82553">
        <ele>235</ele>
        <time>2016-08-29T15:17:27Z</time>
      </trkpt>
      <trkpt lat="45.96009" lon="4.82545">
        <ele>235</ele>
        <time>2016-08-29T15:17:28Z</time>
      </trkpt>
      <trkpt lat="45.96009" lon="4.82536">
        <ele>235</ele>
        <time>2016-08-29T15:17:29Z</time>
      </trkpt>
      <trkpt lat="45.9601" lon="4.82529">
        <ele>235</ele>
        <time>2016-08-29T15:17:30Z</time>
      </trkpt>
      <trkpt lat="45.9601" lon="4.82521">
        <ele>235</ele>
        <time>2016-08-29T15:17:31Z</time>
      </trkpt>
      <trkpt lat="45.96011" lon="4.82513">
        <ele>235</ele>
        <time>2016-08-29T15:17:32Z</time>
      </trkpt>
      <trkpt lat="45.96012" lon="4.82505">
        <ele>235</ele>
        <time>2016-08-29T15:17:33Z</time>
      </trkpt>
      <trkpt lat="45.96013" lon="4.82496">
        <ele>235</ele>
        <time>2016-08-29T15:17:34Z</time>
      </trkpt>
      <trkpt lat="45.96014" lon="4.82487">
        <ele>235</ele>
        <time>2016-08-29T15:17:35Z</time>
      </trkpt>
      <trkpt lat="45.96015" lon="4.82478">
        <ele>235</ele>
        <time>2016-08-29T15:17:36Z</time>
      </trkpt>
      <trkpt lat="45.96016" lon="4.82469">
        <ele>235</ele>
        <time>2016-08-29T15:17:37Z</time>
      </trkpt>
      <trkpt lat="45.96017" lon="4.82459">
        <ele>235</ele>
        <time>2016-08-29T15:17:38Z</time>
      </trkpt>
      <trkpt lat="45.96018" lon="4.82451">
        <ele>235</ele>
        <time>2016-08-29T15:17:39Z</time>
      </trkpt>
      <trkpt lat="45.9602" lon="4.82442">
        <ele>235</ele>
        <time>2016-08-29T15:17:40Z</time>
      </trkpt>
      <trkpt lat="45.96021" lon="4.82434">
        <ele>235</ele>
        <time>2016-08-29T15:17:41Z</time>
      </trkpt>
      <trkpt lat="45.96022" lon="4.82425">
        <ele>235</ele>
        <time>2016-08-29T15:17:42Z</time>
      </trkpt>
      <trkpt lat="45.96023" lon="4.82417">
        <ele>235</ele>
        <time>2016-08-29T15:17:43Z</time>
      </trkpt>
      <trkpt lat="45.96024" lon="4.82412">
        <ele>235</ele>
        <time>2016-08-29T15:17:44Z</time>
      </trkpt>
      <trkpt lat="45.96026" lon="4.82402">
        <ele>235</ele>
        <time>2016-08-29T15:17:46Z</time>
      </trkpt>
      <trkpt lat="45.96027" lon="4.82394">
        <ele>235</ele>
        <time>2016-08-29T15:17:47Z</time>
      </trkpt>
      <trkpt lat="45.96029" lon="4.82387">
        <ele>235</ele>
        <time>2016-08-29T15:17:48Z</time>
      </trkpt>
      <trkpt lat="45.96031" lon="4.82379">
        <ele>235</ele>
        <time>2016-08-29T15:17:49Z</time>
      </trkpt>
      <trkpt lat="45.96032" lon="4.82373">
        <ele>235</ele>
        <time>2016-08-29T15:17:50Z</time>
      </trkpt>
      <trkpt lat="45.96033" lon="4.82366">
        <ele>235</ele>
        <time>2016-08-29T15:17:51Z</time>
      </trkpt>
      <trkpt lat="45.96028" lon="4.82358">
        <ele>235</ele>
        <time>2016-08-29T15:17:53Z</time>
      </trkpt>
      <trkpt lat="45.96025" lon="4.82358">
        <ele>235</ele>
        <time>2016-08-29T15:17:54Z</time>
      </trkpt>
      <trkpt lat="45.96018" lon="4.82357">
        <ele>235</ele>
        <time>2016-08-29T15:17:56Z</time>
      </trkpt>
      <trkpt lat="45.96014" lon="4.82357">
        <ele>235</ele>
        <time>2016-08-29T15:17:57Z</time>
      </trkpt>
      <trkpt lat="45.96006" lon="4.82354">
        <ele>235</ele>
        <time>2016-08-29T15:17:59Z</time>
      </trkpt>
      <trkpt lat="45.96001" lon="4.82353">
        <ele>235</ele>
        <time>2016-08-29T15:18:00Z</time>
      </trkpt>
      <trkpt lat="45.95993" lon="4.82354">
        <ele>236</ele>
        <time>2016-08-29T15:18:02Z</time>
      </trkpt>
      <trkpt lat="45.95989" lon="4.82354">
        <ele>236</ele>
        <time>2016-08-29T15:18:03Z</time>
      </trkpt>
      <trkpt lat="45.95982" lon="4.82356">
        <ele>237</ele>
        <time>2016-08-29T15:18:05Z</time>
      </trkpt>
      <trkpt lat="45.95978" lon="4.82356">
        <ele>237</ele>
        <time>2016-08-29T15:18:06Z</time>
      </trkpt>
      <trkpt lat="45.95972" lon="4.82356">
        <ele>237</ele>
        <time>2016-08-29T15:18:08Z</time>
      </trkpt>
      <trkpt lat="45.95969" lon="4.82356">
        <ele>237</ele>
        <time>2016-08-29T15:18:09Z</time>
      </trkpt>
      <trkpt lat="45.95961" lon="4.82358">
        <ele>237</ele>
        <time>2016-08-29T15:18:11Z</time>
      </trkpt>
      <trkpt lat="45.95958" lon="4.82358">
        <ele>237</ele>
        <time>2016-08-29T15:18:12Z</time>
      </trkpt>
      <trkpt lat="45.95952" lon="4.82359">
        <ele>237</ele>
        <time>2016-08-29T15:18:14Z</time>
      </trkpt>
      <trkpt lat="45.95949" lon="4.82359">
        <ele>237</ele>
        <time>2016-08-29T15:18:15Z</time>
      </trkpt>
      <trkpt lat="45.95942" lon="4.82359">
        <ele>237</ele>
        <time>2016-08-29T15:18:17Z</time>
      </trkpt>
      <trkpt lat="45.95939" lon="4.8236">
        <ele>237</ele>
        <time>2016-08-29T15:18:18Z</time>
      </trkpt>
      <trkpt lat="45.95931" lon="4.82362">
        <ele>238</ele>
        <time>2016-08-29T15:18:21Z</time>
      </trkpt>
      <trkpt lat="45.95928" lon="4.82362">
        <ele>238</ele>
        <time>2016-08-29T15:18:22Z</time>
      </trkpt>
      <trkpt lat="45.9592" lon="4.82363">
        <ele>238</ele>
        <time>2016-08-29T15:18:25Z</time>
      </trkpt>
      <trkpt lat="45.95917" lon="4.82364">
        <ele>238</ele>
        <time>2016-08-29T15:18:26Z</time>
      </trkpt>
      <trkpt lat="45.9591" lon="4.82366">
        <ele>242</ele>
        <time>2016-08-29T15:18:29Z</time>
      </trkpt>
      <trkpt lat="45.95907" lon="4.82367">
        <ele>242</ele>
        <time>2016-08-29T15:18:30Z</time>
      </trkpt>
      <trkpt lat="45.959" lon="4.82368">
        <ele>243</ele>
        <time>2016-08-29T15:18:33Z</time>
      </trkpt>
      <trkpt lat="45.95897" lon="4.82368">
        <ele>243</ele>
        <time>2016-08-29T15:18:34Z</time>
      </trkpt>
      <trkpt lat="45.9589" lon="4.82368">
        <ele>243</ele>
        <time>2016-08-29T15:18:37Z</time>
      </trkpt>
      <trkpt lat="45.95888" lon="4.82368">
        <ele>243</ele>
        <time>2016-08-29T15:18:38Z</time>
      </trkpt>
      <trkpt lat="45.9588" lon="4.82369">
        <ele>244</ele>
        <time>2016-08-29T15:18:42Z</time>
      </trkpt>
      <trkpt lat="45.95878" lon="4.82369">
        <ele>244</ele>
        <time>2016-08-29T15:18:43Z</time>
      </trkpt>
      <trkpt lat="45.95871" lon="4.82369">
        <ele>244</ele>
        <time>2016-08-29T15:18:45Z</time>
      </trkpt>
      <trkpt lat="45.95868" lon="4.8237">
        <ele>245</ele>
        <time>2016-08-29T15:18:46Z</time>
      </trkpt>
      <trkpt lat="45.95861" lon="4.82368">
        <ele>245</ele>
        <time>2016-08-29T15:18:49Z</time>
      </trkpt>
      <trkpt lat="45.95859" lon="4.82368">
        <ele>245</ele>
        <time>2016-08-29T15:18:50Z</time>
      </trkpt>
      <trkpt lat="45.95852" lon="4.82367">
        <ele>245</ele>
        <time>2016-08-29T15:18:53Z</time>
      </trkpt>
      <trkpt lat="45.95849" lon="4.82367">
        <ele>246</ele>
        <time>2016-08-29T15:18:54Z</time>
      </trkpt>
      <trkpt lat="45.95842" lon="4.82366">
        <ele>246</ele>
        <time>2016-08-29T15:18:57Z</time>
      </trkpt>
      <trkpt lat="45.95839" lon="4.82366">
        <ele>246</ele>
        <time>2016-08-29T15:18:58Z</time>
      </trkpt>
      <trkpt lat="45.95831" lon="4.82366">
        <ele>251</ele>
        <time>2016-08-29T15:19:02Z</time>
      </trkpt>
      <trkpt lat="45.95828" lon="4.82365">
        <ele>251</ele>
        <time>2016-08-29T15:19:03Z</time>
      </trkpt>
      <trkpt lat="45.95821" lon="4.82364">
        <ele>251</ele>
        <time>2016-08-29T15:19:06Z</time>
      </trkpt>
      <trkpt lat="45.95819" lon="4.82364">
        <ele>251</ele>
        <time>2016-08-29T15:19:07Z</time>
      </trkpt>
      <trkpt lat="45.95811" lon="4.82361">
        <ele>252</ele>
        <time>2016-08-29T15:19:10Z</time>
      </trkpt>
      <trkpt lat="45.95809" lon="4.82361">
        <ele>252</ele>
        <time>2016-08-29T15:19:11Z</time>
      </trkpt>
      <trkpt lat="45.95803" lon="4.82359">
        <ele>252</ele>
        <time>2016-08-29T15:19:14Z</time>
      </trkpt>
      <trkpt lat="45.958" lon="4.82358">
        <ele>252</ele>
        <time>2016-08-29T15:19:15Z</time>
      </trkpt>
      <trkpt lat="45.95792" lon="4.82352">
        <ele>252</ele>
        <time>2016-08-29T15:19:18Z</time>
      </trkpt>
      <trkpt lat="45.9579" lon="4.8235">
        <ele>253</ele>
        <time>2016-08-29T15:19:19Z</time>
      </trkpt>
      <trkpt lat="45.95783" lon="4.82344">
        <ele>253</ele>
        <time>2016-08-29T15:19:22Z</time>
      </trkpt>
      <trkpt lat="45.95781" lon="4.82341">
        <ele>253</ele>
        <time>2016-08-29T15:19:23Z</time>
      </trkpt>
      <trkpt lat="45.95775" lon="4.82333">
        <ele>252</ele>
        <time>2016-08-29T15:19:26Z</time>
      </trkpt>
      <trkpt lat="45.95773" lon="4.8233">
        <ele>252</ele>
        <time>2016-08-29T15:19:27Z</time>
      </trkpt>
      <trkpt lat="45.95767" lon="4.82325">
        <ele>252</ele>
        <time>2016-08-29T15:19:29Z</time>
      </trkpt>
      <trkpt lat="45.95765" lon="4.82322">
        <ele>253</ele>
        <time>2016-08-29T15:19:30Z</time>
      </trkpt>
      <trkpt lat="45.95759" lon="4.82315">
        <ele>253</ele>
        <time>2016-08-29T15:19:33Z</time>
      </trkpt>
      <trkpt lat="45.95757" lon="4.82313">
        <ele>252</ele>
        <time>2016-08-29T15:19:34Z</time>
      </trkpt>
      <trkpt lat="45.95749" lon="4.82306">
        <ele>255</ele>
        <time>2016-08-29T15:19:37Z</time>
      </trkpt>
      <trkpt lat="45.95747" lon="4.82304">
        <ele>255</ele>
        <time>2016-08-29T15:19:38Z</time>
      </trkpt>
      <trkpt lat="45.95741" lon="4.823">
        <ele>255</ele>
        <time>2016-08-29T15:19:40Z</time>
      </trkpt>
      <trkpt lat="45.95739" lon="4.82297">
        <ele>255</ele>
        <time>2016-08-29T15:19:41Z</time>
      </trkpt>
      <trkpt lat="45.95732" lon="4.82288">
        <ele>255</ele>
        <time>2016-08-29T15:19:44Z</time>
      </trkpt>
      <trkpt lat="45.95729" lon="4.82286">
        <ele>255</ele>
        <time>2016-08-29T15:19:45Z</time>
      </trkpt>
      <trkpt lat="45.95724" lon="4.8228">
        <ele>255</ele>
        <time>2016-08-29T15:19:47Z</time>
      </trkpt>
      <trkpt lat="45.95721" lon="4.82277">
        <ele>255</ele>
        <time>2016-08-29T15:19:48Z</time>
      </trkpt>
      <trkpt lat="45.95715" lon="4.82273">
        <ele>255</ele>
        <time>2016-08-29T15:19:50Z</time>
      </trkpt>
      <trkpt lat="45.95713" lon="4.82271">
        <ele>255</ele>
        <time>2016-08-29T15:19:51Z</time>
      </trkpt>
      <trkpt lat="45.95706" lon="4.82262">
        <ele>255</ele>
        <time>2016-08-29T15:19:54Z</time>
      </trkpt>
      <trkpt lat="45.95704" lon="4.8226">
        <ele>255</ele>
        <time>2016-08-29T15:19:55Z</time>
      </trkpt>
      <trkpt lat="45.95699" lon="4.82253">
        <ele>255</ele>
        <time>2016-08-29T15:19:57Z</time>
      </trkpt>
      <trkpt lat="45.95694" lon="4.82252">
        <ele>255</ele>
        <time>2016-08-29T15:19:58Z</time>
      </trkpt>
      <trkpt lat="45.95687" lon="4.82245">
        <ele>255</ele>
        <time>2016-08-29T15:20:00Z</time>
      </trkpt>
      <trkpt lat="45.95684" lon="4.82243">
        <ele>255</ele>
        <time>2016-08-29T15:20:01Z</time>
      </trkpt>
      <trkpt lat="45.95678" lon="4.82238">
        <ele>255</ele>
        <time>2016-08-29T15:20:03Z</time>
      </trkpt>
      <trkpt lat="45.95675" lon="4.82236">
        <ele>255</ele>
        <time>2016-08-29T15:20:04Z</time>
      </trkpt>
      <trkpt lat="45.95669" lon="4.82231">
        <ele>255</ele>
        <time>2016-08-29T15:20:07Z</time>
      </trkpt>
      <trkpt lat="45.95666" lon="4.82229">
        <ele>257</ele>
        <time>2016-08-29T15:20:08Z</time>
      </trkpt>
      <trkpt lat="45.95658" lon="4.82227">
        <ele>257</ele>
        <time>2016-08-29T15:20:11Z</time>
      </trkpt>
      <trkpt lat="45.95655" lon="4.82227">
        <ele>257</ele>
        <time>2016-08-29T15:20:12Z</time>
      </trkpt>
      <trkpt lat="45.95649" lon="4.82226">
        <ele>257</ele>
        <time>2016-08-29T15:20:14Z</time>
      </trkpt>
      <trkpt lat="45.95645" lon="4.82226">
        <ele>257</ele>
        <time>2016-08-29T15:20:15Z</time>
      </trkpt>
      <trkpt lat="45.95639" lon="4.82225">
        <ele>257</ele>
        <time>2016-08-29T15:20:17Z</time>
      </trkpt>
      <trkpt lat="45.95635" lon="4.82224">
        <ele>257</ele>
        <time>2016-08-29T15:20:18Z</time>
      </trkpt>
      <trkpt lat="45.95628" lon="4.82224">
        <ele>257</ele>
        <time>2016-08-29T15:20:20Z</time>
      </trkpt>
      <trkpt lat="45.95625" lon="4.82225">
        <ele>257</ele>
        <time>2016-08-29T15:20:21Z</time>
      </trkpt>
      <trkpt lat="45.95617" lon="4.82225">
        <ele>257</ele>
        <time>2016-08-29T15:20:23Z</time>
      </trkpt>
      <trkpt lat="45.95613" lon="4.82225">
        <ele>257</ele>
        <time>2016-08-29T15:20:24Z</time>
      </trkpt>
      <trkpt lat="45.95605" lon="4.82224">
        <ele>257</ele>
        <time>2016-08-29T15:20:26Z</time>
      </trkpt>
      <trkpt lat="45.95601" lon="4.82224">
        <ele>257</ele>
        <time>2016-08-29T15:20:27Z</time>
      </trkpt>
      <trkpt lat="45.95594" lon="4.82224">
        <ele>257</ele>
        <time>2016-08-29T15:20:29Z</time>
      </trkpt>
      <trkpt lat="45.9559" lon="4.82222">
        <ele>257</ele>
        <time>2016-08-29T15:20:30Z</time>
      </trkpt>
      <trkpt lat="45.95584" lon="4.82216">
        <ele>257</ele>
        <time>2016-08-29T15:20:32Z</time>
      </trkpt>
      <trkpt lat="45.95581" lon="4.82213">
        <ele>258</ele>
        <time>2016-08-29T15:20:33Z</time>
      </trkpt>
      <trkpt lat="45.95574" lon="4.82207">
        <ele>258</ele>
        <time>2016-08-29T15:20:35Z</time>
      </trkpt>
      <trkpt lat="45.9557" lon="4.82204">
        <ele>258</ele>
        <time>2016-08-29T15:20:36Z</time>
      </trkpt>
      <trkpt lat="45.95564" lon="4.82198">
        <ele>258</ele>
        <time>2016-08-29T15:20:38Z</time>
      </trkpt>
      <trkpt lat="45.95561" lon="4.82196">
        <ele>259</ele>
        <time>2016-08-29T15:20:39Z</time>
      </trkpt>
      <trkpt lat="45.95556" lon="4.8219">
        <ele>259</ele>
        <time>2016-08-29T15:20:41Z</time>
      </trkpt>
      <trkpt lat="45.95552" lon="4.82188">
        <ele>259</ele>
        <time>2016-08-29T15:20:42Z</time>
      </trkpt>
      <trkpt lat="45.95546" lon="4.82183">
        <ele>259</ele>
        <time>2016-08-29T15:20:44Z</time>
      </trkpt>
      <trkpt lat="45.95543" lon="4.82181">
        <ele>259</ele>
        <time>2016-08-29T15:20:45Z</time>
      </trkpt>
      <trkpt lat="45.95537" lon="4.82174">
        <ele>259</ele>
        <time>2016-08-29T15:20:47Z</time>
      </trkpt>
      <trkpt lat="45.95534" lon="4.8217">
        <ele>259</ele>
        <time>2016-08-29T15:20:48Z</time>
      </trkpt>
      <trkpt lat="45.95529" lon="4.82164">
        <ele>259</ele>
        <time>2016-08-29T15:20:50Z</time>
      </trkpt>
      <trkpt lat="45.95524" lon="4.8216">
        <ele>259</ele>
        <time>2016-08-29T15:20:51Z</time>
      </trkpt>
      <trkpt lat="45.95518" lon="4.82152">
        <ele>259</ele>
        <time>2016-08-29T15:20:53Z</time>
      </trkpt>
      <trkpt lat="45.95514" lon="4.8215">
        <ele>259</ele>
        <time>2016-08-29T15:20:54Z</time>
      </trkpt>
      <trkpt lat="45.95507" lon="4.82145">
        <ele>259</ele>
        <time>2016-08-29T15:20:56Z</time>
      </trkpt>
      <trkpt lat="45.95503" lon="4.82141">
        <ele>259</ele>
        <time>2016-08-29T15:20:57Z</time>
      </trkpt>
      <trkpt lat="45.95496" lon="4.82134">
        <ele>260</ele>
        <time>2016-08-29T15:20:59Z</time>
      </trkpt>
      <trkpt lat="45.95493" lon="4.8213">
        <ele>260</ele>
        <time>2016-08-29T15:21:00Z</time>
      </trkpt>
      <trkpt lat="45.95486" lon="4.82124">
        <ele>260</ele>
        <time>2016-08-29T15:21:02Z</time>
      </trkpt>
      <trkpt lat="45.95483" lon="4.82121">
        <ele>260</ele>
        <time>2016-08-29T15:21:03Z</time>
      </trkpt>
      <trkpt lat="45.95476" lon="4.82113">
        <ele>260</ele>
        <time>2016-08-29T15:21:05Z</time>
      </trkpt>
      <trkpt lat="45.95472" lon="4.82109">
        <ele>260</ele>
        <time>2016-08-29T15:21:06Z</time>
      </trkpt>
      <trkpt lat="45.95468" lon="4.82105">
        <ele>260</ele>
        <time>2016-08-29T15:21:07Z</time>
      </trkpt>
      <trkpt lat="45.95465" lon="4.82101">
        <ele>260</ele>
        <time>2016-08-29T15:21:08Z</time>
      </trkpt>
      <trkpt lat="45.95461" lon="4.82097">
        <ele>260</ele>
        <time>2016-08-29T15:21:09Z</time>
      </trkpt>
      <trkpt lat="45.95457" lon="4.82093">
        <ele>260</ele>
        <time>2016-08-29T15:21:10Z</time>
      </trkpt>
      <trkpt lat="45.9545" lon="4.82086">
        <ele>260</ele>
        <time>2016-08-29T15:21:12Z</time>
      </trkpt>
      <trkpt lat="45.95446" lon="4.82083">
        <ele>260</ele>
        <time>2016-08-29T15:21:13Z</time>
      </trkpt>
      <trkpt lat="45.9544" lon="4.82076">
        <ele>260</ele>
        <time>2016-08-29T15:21:15Z</time>
      </trkpt>
      <trkpt lat="45.95436" lon="4.82073">
        <ele>260</ele>
        <time>2016-08-29T15:21:16Z</time>
      </trkpt>
      <trkpt lat="45.95429" lon="4.82066">
        <ele>260</ele>
        <time>2016-08-29T15:21:18Z</time>
      </trkpt>
      <trkpt lat="45.95426" lon="4.82063">
        <ele>260</ele>
        <time>2016-08-29T15:21:19Z</time>
      </trkpt>
      <trkpt lat="45.95422" lon="4.8206">
        <ele>260</ele>
        <time>2016-08-29T15:21:20Z</time>
      </trkpt>
      <trkpt lat="45.95418" lon="4.82055">
        <ele>260</ele>
        <time>2016-08-29T15:21:21Z</time>
      </trkpt>
      <trkpt lat="45.95414" lon="4.8205">
        <ele>261</ele>
        <time>2016-08-29T15:21:22Z</time>
      </trkpt>
      <trkpt lat="45.9541" lon="4.82045">
        <ele>261</ele>
        <time>2016-08-29T15:21:23Z</time>
      </trkpt>
      <trkpt lat="45.95406" lon="4.82041">
        <ele>261</ele>
        <time>2016-08-29T15:21:24Z</time>
      </trkpt>
      <trkpt lat="45.95402" lon="4.82036">
        <ele>261</ele>
        <time>2016-08-29T15:21:25Z</time>
      </trkpt>
      <trkpt lat="45.95395" lon="4.82029">
        <ele>261</ele>
        <time>2016-08-29T15:21:27Z</time>
      </trkpt>
      <trkpt lat="45.95392" lon="4.82025">
        <ele>261</ele>
        <time>2016-08-29T15:21:28Z</time>
      </trkpt>
      <trkpt lat="45.95388" lon="4.82021">
        <ele>261</ele>
        <time>2016-08-29T15:21:29Z</time>
      </trkpt>
      <trkpt lat="45.95384" lon="4.82016">
        <ele>261</ele>
        <time>2016-08-29T15:21:30Z</time>
      </trkpt>
      <trkpt lat="45.95379" lon="4.82012">
        <ele>262</ele>
        <time>2016-08-29T15:21:31Z</time>
      </trkpt>
      <trkpt lat="45.95375" lon="4.82008">
        <ele>262</ele>
        <time>2016-08-29T15:21:32Z</time>
      </trkpt>
      <trkpt lat="45.9537" lon="4.82004">
        <ele>262</ele>
        <time>2016-08-29T15:21:33Z</time>
      </trkpt>
      <trkpt lat="45.95367" lon="4.82">
        <ele>261</ele>
        <time>2016-08-29T15:21:34Z</time>
      </trkpt>
      <trkpt lat="45.9536" lon="4.81993">
        <ele>261</ele>
        <time>2016-08-29T15:21:36Z</time>
      </trkpt>
      <trkpt lat="45.95356" lon="4.81989">
        <ele>262</ele>
        <time>2016-08-29T15:21:37Z</time>
      </trkpt>
      <trkpt lat="45.95353" lon="4.81985">
        <ele>262</ele>
        <time>2016-08-29T15:21:38Z</time>
      </trkpt>
      <trkpt lat="45.95349" lon="4.8198">
        <ele>262</ele>
        <time>2016-08-29T15:21:39Z</time>
      </trkpt>
      <trkpt lat="45.95345" lon="4.81976">
        <ele>262</ele>
        <time>2016-08-29T15:21:40Z</time>
      </trkpt>
      <trkpt lat="45.95341" lon="4.81972">
        <ele>261</ele>
        <time>2016-08-29T15:21:41Z</time>
      </trkpt>
      <trkpt lat="45.95337" lon="4.81968">
        <ele>261</ele>
        <time>2016-08-29T15:21:42Z</time>
      </trkpt>
      <trkpt lat="45.95333" lon="4.81964">
        <ele>262</ele>
        <time>2016-08-29T15:21:43Z</time>
      </trkpt>
      <trkpt lat="45.95329" lon="4.8196">
        <ele>262</ele>
        <time>2016-08-29T15:21:44Z</time>
      </trkpt>
      <trkpt lat="45.95324" lon="4.81956">
        <ele>262</ele>
        <time>2016-08-29T15:21:45Z</time>
      </trkpt>
      <trkpt lat="45.9532" lon="4.81951">
        <ele>262</ele>
        <time>2016-08-29T15:21:46Z</time>
      </trkpt>
      <trkpt lat="45.95315" lon="4.81946">
        <ele>261</ele>
        <time>2016-08-29T15:21:47Z</time>
      </trkpt>
      <trkpt lat="45.95311" lon="4.81941">
        <ele>261</ele>
        <time>2016-08-29T15:21:48Z</time>
      </trkpt>
      <trkpt lat="45.95307" lon="4.81936">
        <ele>261</ele>
        <time>2016-08-29T15:21:49Z</time>
      </trkpt>
      <trkpt lat="45.95303" lon="4.81931">
        <ele>261</ele>
        <time>2016-08-29T15:21:50Z</time>
      </trkpt>
      <trkpt lat="45.95299" lon="4.81925">
        <ele>261</ele>
        <time>2016-08-29T15:21:51Z</time>
      </trkpt>
      <trkpt lat="45.95296" lon="4.8192">
        <ele>261</ele>
        <time>2016-08-29T15:21:52Z</time>
      </trkpt>
      <trkpt lat="45.95292" lon="4.81914">
        <ele>260</ele>
        <time>2016-08-29T15:21:53Z</time>
      </trkpt>
      <trkpt lat="45.95289" lon="4.81909">
        <ele>260</ele>
        <time>2016-08-29T15:21:54Z</time>
      </trkpt>
      <trkpt lat="45.95285" lon="4.81904">
        <ele>260</ele>
        <time>2016-08-29T15:21:55Z</time>
      </trkpt>
      <trkpt lat="45.95281" lon="4.81899">
        <ele>260</ele>
        <time>2016-08-29T15:21:56Z</time>
      </trkpt>
      <trkpt lat="45.95277" lon="4.81894">
        <ele>260</ele>
        <time>2016-08-29T15:21:57Z</time>
      </trkpt>
      <trkpt lat="45.95273" lon="4.81889">
        <ele>260</ele>
        <time>2016-08-29T15:21:58Z</time>
      </trkpt>
      <trkpt lat="45.95269" lon="4.81884">
        <ele>260</ele>
        <time>2016-08-29T15:21:59Z</time>
      </trkpt>
      <trkpt lat="45.95266" lon="4.81878">
        <ele>260</ele>
        <time>2016-08-29T15:22:00Z</time>
      </trkpt>
      <trkpt lat="45.95262" lon="4.81871">
        <ele>260</ele>
        <time>2016-08-29T15:22:01Z</time>
      </trkpt>
      <trkpt lat="45.95258" lon="4.81865">
        <ele>260</ele>
        <time>2016-08-29T15:22:02Z</time>
      </trkpt>
      <trkpt lat="45.95254" lon="4.81858">
        <ele>260</ele>
        <time>2016-08-29T15:22:03Z</time>
      </trkpt>
      <trkpt lat="45.9525" lon="4.81852">
        <ele>260</ele>
        <time>2016-08-29T15:22:04Z</time>
      </trkpt>
      <trkpt lat="45.95246" lon="4.81845">
        <ele>260</ele>
        <time>2016-08-29T15:22:05Z</time>
      </trkpt>
      <trkpt lat="45.95241" lon="4.81839">
        <ele>259</ele>
        <time>2016-08-29T15:22:06Z</time>
      </trkpt>
      <trkpt lat="45.95237" lon="4.81833">
        <ele>259</ele>
        <time>2016-08-29T15:22:07Z</time>
      </trkpt>
      <trkpt lat="45.95233" lon="4.81827">
        <ele>259</ele>
        <time>2016-08-29T15:22:08Z</time>
      </trkpt>
      <trkpt lat="45.95228" lon="4.81821">
        <ele>259</ele>
        <time>2016-08-29T15:22:09Z</time>
      </trkpt>
      <trkpt lat="45.95223" lon="4.81815">
        <ele>259</ele>
        <time>2016-08-29T15:22:10Z</time>
      </trkpt>
      <trkpt lat="45.95219" lon="4.81808">
        <ele>259</ele>
        <time>2016-08-29T15:22:11Z</time>
      </trkpt>
      <trkpt lat="45.95214" lon="4.81801">
        <ele>259</ele>
        <time>2016-08-29T15:22:12Z</time>
      </trkpt>
      <trkpt lat="45.9521" lon="4.81793">
        <ele>259</ele>
        <time>2016-08-29T15:22:13Z</time>
      </trkpt>
      <trkpt lat="45.95206" lon="4.81787">
        <ele>258</ele>
        <time>2016-08-29T15:22:14Z</time>
      </trkpt>
      <trkpt lat="45.95202" lon="4.81779">
        <ele>258</ele>
        <time>2016-08-29T15:22:15Z</time>
      </trkpt>
      <trkpt lat="45.95196" lon="4.81772">
        <ele>258</ele>
        <time>2016-08-29T15:22:16Z</time>
      </trkpt>
      <trkpt lat="45.95191" lon="4.81764">
        <ele>258</ele>
        <time>2016-08-29T15:22:17Z</time>
      </trkpt>
      <trkpt lat="45.95186" lon="4.81756">
        <ele>258</ele>
        <time>2016-08-29T15:22:18Z</time>
      </trkpt>
      <trkpt lat="45.95181" lon="4.81748">
        <ele>257</ele>
        <time>2016-08-29T15:22:19Z</time>
      </trkpt>
      <trkpt lat="45.95176" lon="4.81739">
        <ele>257</ele>
        <time>2016-08-29T15:22:20Z</time>
      </trkpt>
      <trkpt lat="45.95171" lon="4.8173">
        <ele>257</ele>
        <time>2016-08-29T15:22:21Z</time>
      </trkpt>
      <trkpt lat="45.95166" lon="4.81719">
        <ele>256</ele>
        <time>2016-08-29T15:22:22Z</time>
      </trkpt>
      <trkpt lat="45.95162" lon="4.81709">
        <ele>256</ele>
        <time>2016-08-29T15:22:23Z</time>
      </trkpt>
      <trkpt lat="45.95158" lon="4.81697">
        <ele>255</ele>
        <time>2016-08-29T15:22:24Z</time>
      </trkpt>
      <trkpt lat="45.95153" lon="4.81685">
        <ele>255</ele>
        <time>2016-08-29T15:22:25Z</time>
      </trkpt>
      <trkpt lat="45.95149" lon="4.81673">
        <ele>255</ele>
        <time>2016-08-29T15:22:26Z</time>
      </trkpt>
      <trkpt lat="45.95145" lon="4.81661">
        <ele>253</ele>
        <time>2016-08-29T15:22:27Z</time>
      </trkpt>
      <trkpt lat="45.95141" lon="4.81647">
        <ele>253</ele>
        <time>2016-08-29T15:22:28Z</time>
      </trkpt>
      <trkpt lat="45.95137" lon="4.81634">
        <ele>253</ele>
        <time>2016-08-29T15:22:29Z</time>
      </trkpt>
      <trkpt lat="45.95134" lon="4.81621">
        <ele>252</ele>
        <time>2016-08-29T15:22:30Z</time>
      </trkpt>
      <trkpt lat="45.95129" lon="4.81608">
        <ele>252</ele>
        <time>2016-08-29T15:22:31Z</time>
      </trkpt>
      <trkpt lat="45.95125" lon="4.81595">
        <ele>252</ele>
        <time>2016-08-29T15:22:32Z</time>
      </trkpt>
      <trkpt lat="45.95121" lon="4.81583">
        <ele>251</ele>
        <time>2016-08-29T15:22:33Z</time>
      </trkpt>
      <trkpt lat="45.95116" lon="4.81571">
        <ele>251</ele>
        <time>2016-08-29T15:22:34Z</time>
      </trkpt>
      <trkpt lat="45.95113" lon="4.8156">
        <ele>251</ele>
        <time>2016-08-29T15:22:35Z</time>
      </trkpt>
      <trkpt lat="45.95109" lon="4.81549">
        <ele>251</ele>
        <time>2016-08-29T15:22:36Z</time>
      </trkpt>
      <trkpt lat="45.95105" lon="4.81538">
        <ele>251</ele>
        <time>2016-08-29T15:22:37Z</time>
      </trkpt>
      <trkpt lat="45.95102" lon="4.81528">
        <ele>251</ele>
        <time>2016-08-29T15:22:38Z</time>
      </trkpt>
      <trkpt lat="45.95098" lon="4.81519">
        <ele>251</ele>
        <time>2016-08-29T15:22:39Z</time>
      </trkpt>
      <trkpt lat="45.95094" lon="4.8151">
        <ele>252</ele>
        <time>2016-08-29T15:22:40Z</time>
      </trkpt>
      <trkpt lat="45.95091" lon="4.81503">
        <ele>252</ele>
        <time>2016-08-29T15:22:41Z</time>
      </trkpt>
      <trkpt lat="45.95089" lon="4.81495">
        <ele>251</ele>
        <time>2016-08-29T15:22:42Z</time>
      </trkpt>
      <trkpt lat="45.95086" lon="4.81487">
        <ele>251</ele>
        <time>2016-08-29T15:22:43Z</time>
      </trkpt>
      <trkpt lat="45.95084" lon="4.81479">
        <ele>251</ele>
        <time>2016-08-29T15:22:44Z</time>
      </trkpt>
      <trkpt lat="45.95082" lon="4.81474">
        <ele>253</ele>
        <time>2016-08-29T15:22:45Z</time>
      </trkpt>
      <trkpt lat="45.95079" lon="4.81467">
        <ele>253</ele>
        <time>2016-08-29T15:22:46Z</time>
      </trkpt>
      <trkpt lat="45.95076" lon="4.8146">
        <ele>253</ele>
        <time>2016-08-29T15:22:47Z</time>
      </trkpt>
      <trkpt lat="45.95074" lon="4.81454">
        <ele>253</ele>
        <time>2016-08-29T15:22:48Z</time>
      </trkpt>
      <trkpt lat="45.95071" lon="4.81447">
        <ele>253</ele>
        <time>2016-08-29T15:22:49Z</time>
      </trkpt>
      <trkpt lat="45.95069" lon="4.8144">
        <ele>252</ele>
        <time>2016-08-29T15:22:50Z</time>
      </trkpt>
      <trkpt lat="45.95067" lon="4.81432">
        <ele>252</ele>
        <time>2016-08-29T15:22:51Z</time>
      </trkpt>
      <trkpt lat="45.95064" lon="4.81425">
        <ele>252</ele>
        <time>2016-08-29T15:22:52Z</time>
      </trkpt>
      <trkpt lat="45.95061" lon="4.81419">
        <ele>252</ele>
        <time>2016-08-29T15:22:53Z</time>
      </trkpt>
      <trkpt lat="45.95059" lon="4.81414">
        <ele>253</ele>
        <time>2016-08-29T15:22:54Z</time>
      </trkpt>
      <trkpt lat="45.95054" lon="4.81403">
        <ele>253</ele>
        <time>2016-08-29T15:22:56Z</time>
      </trkpt>
      <trkpt lat="45.95053" lon="4.81398">
        <ele>253</ele>
        <time>2016-08-29T15:22:57Z</time>
      </trkpt>
      <trkpt lat="45.95049" lon="4.81387">
        <ele>253</ele>
        <time>2016-08-29T15:22:59Z</time>
      </trkpt>
      <trkpt lat="45.95048" lon="4.81383">
        <ele>254</ele>
        <time>2016-08-29T15:23:00Z</time>
      </trkpt>
      <trkpt lat="45.95045" lon="4.81373">
        <ele>254</ele>
        <time>2016-08-29T15:23:02Z</time>
      </trkpt>
      <trkpt lat="45.95043" lon="4.81368">
        <ele>254</ele>
        <time>2016-08-29T15:23:03Z</time>
      </trkpt>
      <trkpt lat="45.9504" lon="4.81357">
        <ele>254</ele>
        <time>2016-08-29T15:23:05Z</time>
      </trkpt>
      <trkpt lat="45.95039" lon="4.81352">
        <ele>254</ele>
        <time>2016-08-29T15:23:06Z</time>
      </trkpt>
      <trkpt lat="45.95035" lon="4.81342">
        <ele>254</ele>
        <time>2016-08-29T15:23:08Z</time>
      </trkpt>
      <trkpt lat="45.95034" lon="4.81337">
        <ele>254</ele>
        <time>2016-08-29T15:23:09Z</time>
      </trkpt>
      <trkpt lat="45.95031" lon="4.81326">
        <ele>255</ele>
        <time>2016-08-29T15:23:11Z</time>
      </trkpt>
      <trkpt lat="45.95029" lon="4.8132">
        <ele>255</ele>
        <time>2016-08-29T15:23:12Z</time>
      </trkpt>
      <trkpt lat="45.95026" lon="4.81308">
        <ele>255</ele>
        <time>2016-08-29T15:23:14Z</time>
      </trkpt>
      <trkpt lat="45.95025" lon="4.81302">
        <ele>255</ele>
        <time>2016-08-29T15:23:15Z</time>
      </trkpt>
      <trkpt lat="45.95023" lon="4.81295">
        <ele>255</ele>
        <time>2016-08-29T15:23:16Z</time>
      </trkpt>
      <trkpt lat="45.95022" lon="4.81289">
        <ele>255</ele>
        <time>2016-08-29T15:23:17Z</time>
      </trkpt>
      <trkpt lat="45.9502" lon="4.81282">
        <ele>255</ele>
        <time>2016-08-29T15:23:18Z</time>
      </trkpt>
      <trkpt lat="45.95019" lon="4.81275">
        <ele>255</ele>
        <time>2016-08-29T15:23:19Z</time>
      </trkpt>
      <trkpt lat="45.95017" lon="4.81268">
        <ele>255</ele>
        <time>2016-08-29T15:23:20Z</time>
      </trkpt>
      <trkpt lat="45.95016" lon="4.81261">
        <ele>256</ele>
        <time>2016-08-29T15:23:21Z</time>
      </trkpt>
      <trkpt lat="45.95013" lon="4.81248">
        <ele>256</ele>
        <time>2016-08-29T15:23:23Z</time>
      </trkpt>
      <trkpt lat="45.95013" lon="4.81241">
        <ele>256</ele>
        <time>2016-08-29T15:23:24Z</time>
      </trkpt>
      <trkpt lat="45.95011" lon="4.81228">
        <ele>256</ele>
        <time>2016-08-29T15:23:26Z</time>
      </trkpt>
      <trkpt lat="45.9501" lon="4.81223">
        <ele>256</ele>
        <time>2016-08-29T15:23:27Z</time>
      </trkpt>
      <trkpt lat="45.95008" lon="4.81211">
        <ele>256</ele>
        <time>2016-08-29T15:23:29Z</time>
      </trkpt>
      <trkpt lat="45.95008" lon="4.81205">
        <ele>256</ele>
        <time>2016-08-29T15:23:30Z</time>
      </trkpt>
      <trkpt lat="45.95006" lon="4.81194">
        <ele>256</ele>
        <time>2016-08-29T15:23:32Z</time>
      </trkpt>
      <trkpt lat="45.95006" lon="4.81187">
        <ele>256</ele>
        <time>2016-08-29T15:23:33Z</time>
      </trkpt>
      <trkpt lat="45.95004" lon="4.81181">
        <ele>256</ele>
        <time>2016-08-29T15:23:34Z</time>
      </trkpt>
      <trkpt lat="45.95003" lon="4.81172">
        <ele>256</ele>
        <time>2016-08-29T15:23:35Z</time>
      </trkpt>
      <trkpt lat="45.95003" lon="4.81162">
        <ele>256</ele>
        <time>2016-08-29T15:23:36Z</time>
      </trkpt>
      <trkpt lat="45.95003" lon="4.81154">
        <ele>256</ele>
        <time>2016-08-29T15:23:37Z</time>
      </trkpt>
      <trkpt lat="45.95002" lon="4.81147">
        <ele>256</ele>
        <time>2016-08-29T15:23:38Z</time>
      </trkpt>
      <trkpt lat="45.95002" lon="4.8114">
        <ele>256</ele>
        <time>2016-08-29T15:23:39Z</time>
      </trkpt>
      <trkpt lat="45.95001" lon="4.81129">
        <ele>256</ele>
        <time>2016-08-29T15:23:41Z</time>
      </trkpt>
      <trkpt lat="45.95" lon="4.81124">
        <ele>256</ele>
        <time>2016-08-29T15:23:42Z</time>
      </trkpt>
      <trkpt lat="45.94998" lon="4.81113">
        <ele>257</ele>
        <time>2016-08-29T15:23:44Z</time>
      </trkpt>
      <trkpt lat="45.94997" lon="4.81107">
        <ele>257</ele>
        <time>2016-08-29T15:23:45Z</time>
      </trkpt>
      <trkpt lat="45.94996" lon="4.81096">
        <ele>257</ele>
        <time>2016-08-29T15:23:47Z</time>
      </trkpt>
      <trkpt lat="45.94995" lon="4.8109">
        <ele>257</ele>
        <time>2016-08-29T15:23:48Z</time>
      </trkpt>
      <trkpt lat="45.94994" lon="4.81077">
        <ele>257</ele>
        <time>2016-08-29T15:23:50Z</time>
      </trkpt>
      <trkpt lat="45.94993" lon="4.8107">
        <ele>257</ele>
        <time>2016-08-29T15:23:51Z</time>
      </trkpt>
      <trkpt lat="45.94992" lon="4.81058">
        <ele>257</ele>
        <time>2016-08-29T15:23:53Z</time>
      </trkpt>
      <trkpt lat="45.94992" lon="4.81052">
        <ele>257</ele>
        <time>2016-08-29T15:23:54Z</time>
      </trkpt>
      <trkpt lat="45.94991" lon="4.81039">
        <ele>257</ele>
        <time>2016-08-29T15:23:56Z</time>
      </trkpt>
      <trkpt lat="45.94991" lon="4.81033">
        <ele>257</ele>
        <time>2016-08-29T15:23:57Z</time>
      </trkpt>
      <trkpt lat="45.94991" lon="4.81021">
        <ele>257</ele>
        <time>2016-08-29T15:23:59Z</time>
      </trkpt>
      <trkpt lat="45.9499" lon="4.81015">
        <ele>257</ele>
        <time>2016-08-29T15:24:00Z</time>
      </trkpt>
      <trkpt lat="45.9499" lon="4.81009">
        <ele>257</ele>
        <time>2016-08-29T15:24:01Z</time>
      </trkpt>
      <trkpt lat="45.94989" lon="4.81002">
        <ele>257</ele>
        <time>2016-08-29T15:24:02Z</time>
      </trkpt>
      <trkpt lat="45.94989" lon="4.80995">
        <ele>257</ele>
        <time>2016-08-29T15:24:03Z</time>
      </trkpt>
      <trkpt lat="45.94988" lon="4.80988">
        <ele>257</ele>
        <time>2016-08-29T15:24:04Z</time>
      </trkpt>
      <trkpt lat="45.94983" lon="4.80979">
        <ele>258</ele>
        <time>2016-08-29T15:24:07Z</time>
      </trkpt>
      <trkpt lat="45.94982" lon="4.80973">
        <ele>258</ele>
        <time>2016-08-29T15:24:08Z</time>
      </trkpt>
      <trkpt lat="45.94982" lon="4.80966">
        <ele>258</ele>
        <time>2016-08-29T15:24:09Z</time>
      </trkpt>
      <trkpt lat="45.94982" lon="4.80959">
        <ele>258</ele>
        <time>2016-08-29T15:24:10Z</time>
      </trkpt>
      <trkpt lat="45.9498" lon="4.80946">
        <ele>258</ele>
        <time>2016-08-29T15:24:12Z</time>
      </trkpt>
      <trkpt lat="45.94979" lon="4.8094">
        <ele>258</ele>
        <time>2016-08-29T15:24:13Z</time>
      </trkpt>
      <trkpt lat="45.94977" lon="4.80934">
        <ele>258</ele>
        <time>2016-08-29T15:24:14Z</time>
      </trkpt>
      <trkpt lat="45.94976" lon="4.80927">
        <ele>258</ele>
        <time>2016-08-29T15:24:15Z</time>
      </trkpt>
      <trkpt lat="45.94975" lon="4.80918">
        <ele>258</ele>
        <time>2016-08-29T15:24:16Z</time>
      </trkpt>
      <trkpt lat="45.94974" lon="4.80912">
        <ele>258</ele>
        <time>2016-08-29T15:24:17Z</time>
      </trkpt>
      <trkpt lat="45.94973" lon="4.80905">
        <ele>258</ele>
        <time>2016-08-29T15:24:18Z</time>
      </trkpt>
      <trkpt lat="45.94972" lon="4.80899">
        <ele>258</ele>
        <time>2016-08-29T15:24:19Z</time>
      </trkpt>
      <trkpt lat="45.94971" lon="4.80892">
        <ele>258</ele>
        <time>2016-08-29T15:24:20Z</time>
      </trkpt>
      <trkpt lat="45.9497" lon="4.80885">
        <ele>258</ele>
        <time>2016-08-29T15:24:21Z</time>
      </trkpt>
      <trkpt lat="45.94969" lon="4.80878">
        <ele>258</ele>
        <time>2016-08-29T15:24:22Z</time>
      </trkpt>
      <trkpt lat="45.94968" lon="4.80872">
        <ele>259</ele>
        <time>2016-08-29T15:24:23Z</time>
      </trkpt>
      <trkpt lat="45.94966" lon="4.80861">
        <ele>259</ele>
        <time>2016-08-29T15:24:25Z</time>
      </trkpt>
      <trkpt lat="45.94964" lon="4.80855">
        <ele>259</ele>
        <time>2016-08-29T15:24:26Z</time>
      </trkpt>
      <trkpt lat="45.94962" lon="4.80843">
        <ele>259</ele>
        <time>2016-08-29T15:24:28Z</time>
      </trkpt>
      <trkpt lat="45.9496" lon="4.80837">
        <ele>259</ele>
        <time>2016-08-29T15:24:29Z</time>
      </trkpt>
      <trkpt lat="45.94958" lon="4.80826">
        <ele>258</ele>
        <time>2016-08-29T15:24:31Z</time>
      </trkpt>
      <trkpt lat="45.94957" lon="4.80821">
        <ele>258</ele>
        <time>2016-08-29T15:24:32Z</time>
      </trkpt>
      <trkpt lat="45.94956" lon="4.80808">
        <ele>258</ele>
        <time>2016-08-29T15:24:35Z</time>
      </trkpt>
      <trkpt lat="45.94957" lon="4.80805">
        <ele>259</ele>
        <time>2016-08-29T15:24:36Z</time>
      </trkpt>
      <trkpt lat="45.94957" lon="4.80803">
        <ele>259</ele>
        <time>2016-08-29T15:24:37Z</time>
      </trkpt>
      <trkpt lat="45.94957" lon="4.80795">
        <ele>259</ele>
        <time>2016-08-29T15:24:43Z</time>
      </trkpt>
      <trkpt lat="45.94956" lon="4.80792">
        <ele>259</ele>
        <time>2016-08-29T15:24:44Z</time>
      </trkpt>
      <trkpt lat="45.94954" lon="4.8078">
        <ele>259</ele>
        <time>2016-08-29T15:24:47Z</time>
      </trkpt>
      <trkpt lat="45.94954" lon="4.80775">
        <ele>259</ele>
        <time>2016-08-29T15:24:48Z</time>
      </trkpt>
      <trkpt lat="45.94954" lon="4.80763">
        <ele>259</ele>
        <time>2016-08-29T15:24:50Z</time>
      </trkpt>
      <trkpt lat="45.94954" lon="4.80756">
        <ele>259</ele>
        <time>2016-08-29T15:24:51Z</time>
      </trkpt>
      <trkpt lat="45.94955" lon="4.80744">
        <ele>259</ele>
        <time>2016-08-29T15:24:53Z</time>
      </trkpt>
      <trkpt lat="45.94956" lon="4.80737">
        <ele>259</ele>
        <time>2016-08-29T15:24:54Z</time>
      </trkpt>
      <trkpt lat="45.94957" lon="4.8073">
        <ele>259</ele>
        <time>2016-08-29T15:24:55Z</time>
      </trkpt>
      <trkpt lat="45.94957" lon="4.80723">
        <ele>259</ele>
        <time>2016-08-29T15:24:56Z</time>
      </trkpt>
      <trkpt lat="45.94956" lon="4.80716">
        <ele>259</ele>
        <time>2016-08-29T15:24:57Z</time>
      </trkpt>
      <trkpt lat="45.94956" lon="4.80709">
        <ele>259</ele>
        <time>2016-08-29T15:24:58Z</time>
      </trkpt>
      <trkpt lat="45.94956" lon="4.80702">
        <ele>259</ele>
        <time>2016-08-29T15:24:59Z</time>
      </trkpt>
      <trkpt lat="45.94956" lon="4.80695">
        <ele>259</ele>
        <time>2016-08-29T15:25:00Z</time>
      </trkpt>
      <trkpt lat="45.94956" lon="4.80689">
        <ele>259</ele>
        <time>2016-08-29T15:25:01Z</time>
      </trkpt>
      <trkpt lat="45.94956" lon="4.80682">
        <ele>259</ele>
        <time>2016-08-29T15:25:02Z</time>
      </trkpt>
      <trkpt lat="45.94956" lon="4.80675">
        <ele>259</ele>
        <time>2016-08-29T15:25:03Z</time>
      </trkpt>
      <trkpt lat="45.94955" lon="4.80667">
        <ele>259</ele>
        <time>2016-08-29T15:25:04Z</time>
      </trkpt>
      <trkpt lat="45.94955" lon="4.8066">
        <ele>259</ele>
        <time>2016-08-29T15:25:05Z</time>
      </trkpt>
      <trkpt lat="45.94954" lon="4.80652">
        <ele>259</ele>
        <time>2016-08-29T15:25:06Z</time>
      </trkpt>
      <trkpt lat="45.94954" lon="4.80645">
        <ele>258</ele>
        <time>2016-08-29T15:25:07Z</time>
      </trkpt>
      <trkpt lat="45.94953" lon="4.80637">
        <ele>258</ele>
        <time>2016-08-29T15:25:08Z</time>
      </trkpt>
      <trkpt lat="45.94953" lon="4.80629">
        <ele>258</ele>
        <time>2016-08-29T15:25:09Z</time>
      </trkpt>
      <trkpt lat="45.94953" lon="4.80621">
        <ele>258</ele>
        <time>2016-08-29T15:25:10Z</time>
      </trkpt>
      <trkpt lat="45.94953" lon="4.80612">
        <ele>258</ele>
        <time>2016-08-29T15:25:11Z</time>
      </trkpt>
      <trkpt lat="45.94953" lon="4.80603">
        <ele>258</ele>
        <time>2016-08-29T15:25:12Z</time>
      </trkpt>
      <trkpt lat="45.94952" lon="4.80595">
        <ele>258</ele>
        <time>2016-08-29T15:25:13Z</time>
      </trkpt>
      <trkpt lat="45.94952" lon="4.80586">
        <ele>258</ele>
        <time>2016-08-29T15:25:14Z</time>
      </trkpt>
      <trkpt lat="45.94951" lon="4.8057">
        <ele>257</ele>
        <time>2016-08-29T15:25:16Z</time>
      </trkpt>
      <trkpt lat="45.94951" lon="4.80562">
        <ele>257</ele>
        <time>2016-08-29T15:25:17Z</time>
      </trkpt>
      <trkpt lat="45.94951" lon="4.80553">
        <ele>258</ele>
        <time>2016-08-29T15:25:18Z</time>
      </trkpt>
      <trkpt lat="45.9495" lon="4.80546">
        <ele>258</ele>
        <time>2016-08-29T15:25:19Z</time>
      </trkpt>
      <trkpt lat="45.9495" lon="4.80538">
        <ele>258</ele>
        <time>2016-08-29T15:25:20Z</time>
      </trkpt>
      <trkpt lat="45.94949" lon="4.8053">
        <ele>258</ele>
        <time>2016-08-29T15:25:21Z</time>
      </trkpt>
      <trkpt lat="45.94949" lon="4.80521">
        <ele>258</ele>
        <time>2016-08-29T15:25:22Z</time>
      </trkpt>
      <trkpt lat="45.94949" lon="4.80512">
        <ele>258</ele>
        <time>2016-08-29T15:25:23Z</time>
      </trkpt>
      <trkpt lat="45.94949" lon="4.80502">
        <ele>258</ele>
        <time>2016-08-29T15:25:24Z</time>
      </trkpt>
      <trkpt lat="45.94949" lon="4.80493">
        <ele>258</ele>
        <time>2016-08-29T15:25:25Z</time>
      </trkpt>
      <trkpt lat="45.94949" lon="4.80484">
        <ele>258</ele>
        <time>2016-08-29T15:25:26Z</time>
      </trkpt>
      <trkpt lat="45.94949" lon="4.80475">
        <ele>258</ele>
        <time>2016-08-29T15:25:27Z</time>
      </trkpt>
      <trkpt lat="45.94948" lon="4.80466">
        <ele>258</ele>
        <time>2016-08-29T15:25:28Z</time>
      </trkpt>
      <trkpt lat="45.94948" lon="4.80458">
        <ele>258</ele>
        <time>2016-08-29T15:25:29Z</time>
      </trkpt>
      <trkpt lat="45.94949" lon="4.8045">
        <ele>258</ele>
        <time>2016-08-29T15:25:30Z</time>
      </trkpt>
      <trkpt lat="45.94949" lon="4.80442">
        <ele>259</ele>
        <time>2016-08-29T15:25:31Z</time>
      </trkpt>
      <trkpt lat="45.94949" lon="4.80434">
        <ele>259</ele>
        <time>2016-08-29T15:25:32Z</time>
      </trkpt>
      <trkpt lat="45.94949" lon="4.80425">
        <ele>259</ele>
        <time>2016-08-29T15:25:33Z</time>
      </trkpt>
      <trkpt lat="45.94948" lon="4.80417">
        <ele>258</ele>
        <time>2016-08-29T15:25:34Z</time>
      </trkpt>
      <trkpt lat="45.94948" lon="4.80407">
        <ele>258</ele>
        <time>2016-08-29T15:25:35Z</time>
      </trkpt>
      <trkpt lat="45.94948" lon="4.80399">
        <ele>258</ele>
        <time>2016-08-29T15:25:36Z</time>
      </trkpt>
      <trkpt lat="45.94948" lon="4.8039">
        <ele>258</ele>
        <time>2016-08-29T15:25:37Z</time>
      </trkpt>
      <trkpt lat="45.94947" lon="4.80381">
        <ele>258</ele>
        <time>2016-08-29T15:25:38Z</time>
      </trkpt>
      <trkpt lat="45.94947" lon="4.80373">
        <ele>258</ele>
        <time>2016-08-29T15:25:39Z</time>
      </trkpt>
      <trkpt lat="45.94947" lon="4.80365">
        <ele>258</ele>
        <time>2016-08-29T15:25:40Z</time>
      </trkpt>
      <trkpt lat="45.94947" lon="4.80356">
        <ele>258</ele>
        <time>2016-08-29T15:25:41Z</time>
      </trkpt>
      <trkpt lat="45.94946" lon="4.80348">
        <ele>258</ele>
        <time>2016-08-29T15:25:42Z</time>
      </trkpt>
      <trkpt lat="45.94946" lon="4.8034">
        <ele>258</ele>
        <time>2016-08-29T15:25:43Z</time>
      </trkpt>
      <trkpt lat="45.94946" lon="4.80332">
        <ele>257</ele>
        <time>2016-08-29T15:25:44Z</time>
      </trkpt>
      <trkpt lat="45.94945" lon="4.80323">
        <ele>257</ele>
        <time>2016-08-29T15:25:45Z</time>
      </trkpt>
      <trkpt lat="45.94944" lon="4.80315">
        <ele>257</ele>
        <time>2016-08-29T15:25:46Z</time>
      </trkpt>
      <trkpt lat="45.94944" lon="4.80308">
        <ele>257</ele>
        <time>2016-08-29T15:25:47Z</time>
      </trkpt>
      <trkpt lat="45.94944" lon="4.80299">
        <ele>257</ele>
        <time>2016-08-29T15:25:48Z</time>
      </trkpt>
      <trkpt lat="45.94945" lon="4.8029">
        <ele>257</ele>
        <time>2016-08-29T15:25:49Z</time>
      </trkpt>
      <trkpt lat="45.94944" lon="4.80281">
        <ele>257</ele>
        <time>2016-08-29T15:25:50Z</time>
      </trkpt>
      <trkpt lat="45.94944" lon="4.80272">
        <ele>257</ele>
        <time>2016-08-29T15:25:51Z</time>
      </trkpt>
      <trkpt lat="45.94944" lon="4.80263">
        <ele>257</ele>
        <time>2016-08-29T15:25:52Z</time>
      </trkpt>
      <trkpt lat="45.94943" lon="4.80253">
        <ele>257</ele>
        <time>2016-08-29T15:25:53Z</time>
      </trkpt>
      <trkpt lat="45.94942" lon="4.80244">
        <ele>256</ele>
        <time>2016-08-29T15:25:54Z</time>
      </trkpt>
      <trkpt lat="45.94941" lon="4.80234">
        <ele>256</ele>
        <time>2016-08-29T15:25:55Z</time>
      </trkpt>
      <trkpt lat="45.9494" lon="4.80225">
        <ele>256</ele>
        <time>2016-08-29T15:25:56Z</time>
      </trkpt>
      <trkpt lat="45.94939" lon="4.80216">
        <ele>256</ele>
        <time>2016-08-29T15:25:57Z</time>
      </trkpt>
      <trkpt lat="45.94938" lon="4.80207">
        <ele>256</ele>
        <time>2016-08-29T15:25:58Z</time>
      </trkpt>
      <trkpt lat="45.94936" lon="4.80199">
        <ele>256</ele>
        <time>2016-08-29T15:25:59Z</time>
      </trkpt>
      <trkpt lat="45.94935" lon="4.8019">
        <ele>256</ele>
        <time>2016-08-29T15:26:00Z</time>
      </trkpt>
      <trkpt lat="45.94934" lon="4.80182">
        <ele>256</ele>
        <time>2016-08-29T15:26:01Z</time>
      </trkpt>
      <trkpt lat="45.94932" lon="4.80174">
        <ele>256</ele>
        <time>2016-08-29T15:26:02Z</time>
      </trkpt>
      <trkpt lat="45.9493" lon="4.80166">
        <ele>255</ele>
        <time>2016-08-29T15:26:03Z</time>
      </trkpt>
      <trkpt lat="45.94928" lon="4.80158">
        <ele>255</ele>
        <time>2016-08-29T15:26:04Z</time>
      </trkpt>
      <trkpt lat="45.94927" lon="4.8015">
        <ele>255</ele>
        <time>2016-08-29T15:26:05Z</time>
      </trkpt>
      <trkpt lat="45.94925" lon="4.80142">
        <ele>256</ele>
        <time>2016-08-29T15:26:06Z</time>
      </trkpt>
      <trkpt lat="45.94923" lon="4.80133">
        <ele>256</ele>
        <time>2016-08-29T15:26:07Z</time>
      </trkpt>
      <trkpt lat="45.94921" lon="4.80124">
        <ele>256</ele>
        <time>2016-08-29T15:26:08Z</time>
      </trkpt>
      <trkpt lat="45.94919" lon="4.80115">
        <ele>256</ele>
        <time>2016-08-29T15:26:09Z</time>
      </trkpt>
      <trkpt lat="45.94917" lon="4.80107">
        <ele>256</ele>
        <time>2016-08-29T15:26:10Z</time>
      </trkpt>
      <trkpt lat="45.94915" lon="4.80098">
        <ele>256</ele>
        <time>2016-08-29T15:26:11Z</time>
      </trkpt>
      <trkpt lat="45.94913" lon="4.80089">
        <ele>257</ele>
        <time>2016-08-29T15:26:12Z</time>
      </trkpt>
      <trkpt lat="45.94911" lon="4.80081">
        <ele>257</ele>
        <time>2016-08-29T15:26:13Z</time>
      </trkpt>
      <trkpt lat="45.94909" lon="4.80073">
        <ele>257</ele>
        <time>2016-08-29T15:26:14Z</time>
      </trkpt>
      <trkpt lat="45.94907" lon="4.80065">
        <ele>256</ele>
        <time>2016-08-29T15:26:15Z</time>
      </trkpt>
      <trkpt lat="45.94905" lon="4.80057">
        <ele>256</ele>
        <time>2016-08-29T15:26:16Z</time>
      </trkpt>
      <trkpt lat="45.94903" lon="4.80049">
        <ele>256</ele>
        <time>2016-08-29T15:26:17Z</time>
      </trkpt>
      <trkpt lat="45.949" lon="4.80041">
        <ele>256</ele>
        <time>2016-08-29T15:26:18Z</time>
      </trkpt>
      <trkpt lat="45.94898" lon="4.80033">
        <ele>256</ele>
        <time>2016-08-29T15:26:19Z</time>
      </trkpt>
      <trkpt lat="45.94896" lon="4.80024">
        <ele>256</ele>
        <time>2016-08-29T15:26:20Z</time>
      </trkpt>
      <trkpt lat="45.94893" lon="4.80016">
        <ele>256</ele>
        <time>2016-08-29T15:26:21Z</time>
      </trkpt>
      <trkpt lat="45.9489" lon="4.80008">
        <ele>256</ele>
        <time>2016-08-29T15:26:22Z</time>
      </trkpt>
      <trkpt lat="45.94888" lon="4.8">
        <ele>256</ele>
        <time>2016-08-29T15:26:23Z</time>
      </trkpt>
      <trkpt lat="45.94885" lon="4.79992">
        <ele>256</ele>
        <time>2016-08-29T15:26:24Z</time>
      </trkpt>
      <trkpt lat="45.94882" lon="4.79984">
        <ele>256</ele>
        <time>2016-08-29T15:26:25Z</time>
      </trkpt>
      <trkpt lat="45.94879" lon="4.79976">
        <ele>256</ele>
        <time>2016-08-29T15:26:26Z</time>
      </trkpt>
      <trkpt lat="45.94877" lon="4.79969">
        <ele>256</ele>
        <time>2016-08-29T15:26:27Z</time>
      </trkpt>
      <trkpt lat="45.94874" lon="4.79961">
        <ele>256</ele>
        <time>2016-08-29T15:26:28Z</time>
      </trkpt>
      <trkpt lat="45.9487" lon="4.79954">
        <ele>256</ele>
        <time>2016-08-29T15:26:29Z</time>
      </trkpt>
      <trkpt lat="45.94868" lon="4.79947">
        <ele>256</ele>
        <time>2016-08-29T15:26:30Z</time>
      </trkpt>
      <trkpt lat="45.94865" lon="4.79939">
        <ele>256</ele>
        <time>2016-08-29T15:26:31Z</time>
      </trkpt>
      <trkpt lat="45.94862" lon="4.79932">
        <ele>256</ele>
        <time>2016-08-29T15:26:32Z</time>
      </trkpt>
      <trkpt lat="45.94859" lon="4.79926">
        <ele>256</ele>
        <time>2016-08-29T15:26:33Z</time>
      </trkpt>
      <trkpt lat="45.94855" lon="4.79919">
        <ele>256</ele>
        <time>2016-08-29T15:26:34Z</time>
      </trkpt>
      <trkpt lat="45.94852" lon="4.79912">
        <ele>256</ele>
        <time>2016-08-29T15:26:35Z</time>
      </trkpt>
      <trkpt lat="45.94849" lon="4.79904">
        <ele>255</ele>
        <time>2016-08-29T15:26:36Z</time>
      </trkpt>
      <trkpt lat="45.94846" lon="4.79897">
        <ele>255</ele>
        <time>2016-08-29T15:26:37Z</time>
      </trkpt>
      <trkpt lat="45.94843" lon="4.79889">
        <ele>255</ele>
        <time>2016-08-29T15:26:38Z</time>
      </trkpt>
      <trkpt lat="45.9484" lon="4.79881">
        <ele>255</ele>
        <time>2016-08-29T15:26:39Z</time>
      </trkpt>
      <trkpt lat="45.94838" lon="4.79872">
        <ele>255</ele>
        <time>2016-08-29T15:26:40Z</time>
      </trkpt>
      <trkpt lat="45.94836" lon="4.79862">
        <ele>255</ele>
        <time>2016-08-29T15:26:41Z</time>
      </trkpt>
      <trkpt lat="45.94833" lon="4.79852">
        <ele>254</ele>
        <time>2016-08-29T15:26:42Z</time>
      </trkpt>
      <trkpt lat="45.94831" lon="4.79842">
        <ele>254</ele>
        <time>2016-08-29T15:26:43Z</time>
      </trkpt>
      <trkpt lat="45.94829" lon="4.79832">
        <ele>254</ele>
        <time>2016-08-29T15:26:44Z</time>
      </trkpt>
      <trkpt lat="45.94826" lon="4.79822">
        <ele>254</ele>
        <time>2016-08-29T15:26:45Z</time>
      </trkpt>
      <trkpt lat="45.94823" lon="4.79812">
        <ele>254</ele>
        <time>2016-08-29T15:26:46Z</time>
      </trkpt>
      <trkpt lat="45.94821" lon="4.79802">
        <ele>254</ele>
        <time>2016-08-29T15:26:47Z</time>
      </trkpt>
      <trkpt lat="45.94818" lon="4.79793">
        <ele>254</ele>
        <time>2016-08-29T15:26:48Z</time>
      </trkpt>
      <trkpt lat="45.94816" lon="4.79784">
        <ele>254</ele>
        <time>2016-08-29T15:26:49Z</time>
      </trkpt>
      <trkpt lat="45.94814" lon="4.79775">
        <ele>254</ele>
        <time>2016-08-29T15:26:50Z</time>
      </trkpt>
      <trkpt lat="45.94812" lon="4.79767">
        <ele>254</ele>
        <time>2016-08-29T15:26:51Z</time>
      </trkpt>
      <trkpt lat="45.94809" lon="4.7976">
        <ele>254</ele>
        <time>2016-08-29T15:26:52Z</time>
      </trkpt>
      <trkpt lat="45.94807" lon="4.79752">
        <ele>254</ele>
        <time>2016-08-29T15:26:53Z</time>
      </trkpt>
      <trkpt lat="45.94805" lon="4.79745">
        <ele>254</ele>
        <time>2016-08-29T15:26:54Z</time>
      </trkpt>
      <trkpt lat="45.94803" lon="4.79737">
        <ele>254</ele>
        <time>2016-08-29T15:26:55Z</time>
      </trkpt>
      <trkpt lat="45.94801" lon="4.7973">
        <ele>254</ele>
        <time>2016-08-29T15:26:56Z</time>
      </trkpt>
      <trkpt lat="45.94798" lon="4.79723">
        <ele>254</ele>
        <time>2016-08-29T15:26:57Z</time>
      </trkpt>
      <trkpt lat="45.94795" lon="4.79715">
        <ele>254</ele>
        <time>2016-08-29T15:26:58Z</time>
      </trkpt>
      <trkpt lat="45.94792" lon="4.79709">
        <ele>254</ele>
        <time>2016-08-29T15:26:59Z</time>
      </trkpt>
      <trkpt lat="45.9479" lon="4.79703">
        <ele>254</ele>
        <time>2016-08-29T15:27:00Z</time>
      </trkpt>
      <trkpt lat="45.94788" lon="4.79695">
        <ele>254</ele>
        <time>2016-08-29T15:27:01Z</time>
      </trkpt>
      <trkpt lat="45.94786" lon="4.79687">
        <ele>254</ele>
        <time>2016-08-29T15:27:02Z</time>
      </trkpt>
      <trkpt lat="45.94783" lon="4.7968">
        <ele>254</ele>
        <time>2016-08-29T15:27:03Z</time>
      </trkpt>
      <trkpt lat="45.94781" lon="4.79673">
        <ele>254</ele>
        <time>2016-08-29T15:27:04Z</time>
      </trkpt>
      <trkpt lat="45.94779" lon="4.79666">
        <ele>254</ele>
        <time>2016-08-29T15:27:05Z</time>
      </trkpt>
      <trkpt lat="45.94777" lon="4.79658">
        <ele>254</ele>
        <time>2016-08-29T15:27:06Z</time>
      </trkpt>
      <trkpt lat="45.94775" lon="4.79651">
        <ele>254</ele>
        <time>2016-08-29T15:27:07Z</time>
      </trkpt>
      <trkpt lat="45.94774" lon="4.79643">
        <ele>254</ele>
        <time>2016-08-29T15:27:08Z</time>
      </trkpt>
      <trkpt lat="45.94772" lon="4.79636">
        <ele>253</ele>
        <time>2016-08-29T15:27:09Z</time>
      </trkpt>
      <trkpt lat="45.9477" lon="4.79627">
        <ele>253</ele>
        <time>2016-08-29T15:27:10Z</time>
      </trkpt>
      <trkpt lat="45.94768" lon="4.79618">
        <ele>253</ele>
        <time>2016-08-29T15:27:11Z</time>
      </trkpt>
      <trkpt lat="45.94766" lon="4.79611">
        <ele>253</ele>
        <time>2016-08-29T15:27:12Z</time>
      </trkpt>
      <trkpt lat="45.94766" lon="4.796">
        <ele>253</ele>
        <time>2016-08-29T15:27:14Z</time>
      </trkpt>
      <trkpt lat="45.94767" lon="4.79594">
        <ele>253</ele>
        <time>2016-08-29T15:27:15Z</time>
      </trkpt>
      <trkpt lat="45.94771" lon="4.79587">
        <ele>253</ele>
        <time>2016-08-29T15:27:17Z</time>
      </trkpt>
      <trkpt lat="45.94772" lon="4.79583">
        <ele>252</ele>
        <time>2016-08-29T15:27:18Z</time>
      </trkpt>
      <trkpt lat="45.94773" lon="4.79573">
        <ele>252</ele>
        <time>2016-08-29T15:27:20Z</time>
      </trkpt>
      <trkpt lat="45.9477" lon="4.79566">
        <ele>252</ele>
        <time>2016-08-29T15:27:21Z</time>
      </trkpt>
      <trkpt lat="45.94767" lon="4.7956">
        <ele>252</ele>
        <time>2016-08-29T15:27:22Z</time>
      </trkpt>
      <trkpt lat="45.94764" lon="4.79552">
        <ele>252</ele>
        <time>2016-08-29T15:27:23Z</time>
      </trkpt>
      <trkpt lat="45.94761" lon="4.79545">
        <ele>252</ele>
        <time>2016-08-29T15:27:24Z</time>
      </trkpt>
      <trkpt lat="45.94758" lon="4.79537">
        <ele>252</ele>
        <time>2016-08-29T15:27:25Z</time>
      </trkpt>
      <trkpt lat="45.94755" lon="4.79529">
        <ele>252</ele>
        <time>2016-08-29T15:27:26Z</time>
      </trkpt>
      <trkpt lat="45.94752" lon="4.79521">
        <ele>252</ele>
        <time>2016-08-29T15:27:27Z</time>
      </trkpt>
      <trkpt lat="45.94749" lon="4.79514">
        <ele>252</ele>
        <time>2016-08-29T15:27:28Z</time>
      </trkpt>
      <trkpt lat="45.94747" lon="4.79508">
        <ele>252</ele>
        <time>2016-08-29T15:27:29Z</time>
      </trkpt>
      <trkpt lat="45.94744" lon="4.79501">
        <ele>252</ele>
        <time>2016-08-29T15:27:30Z</time>
      </trkpt>
      <trkpt lat="45.94741" lon="4.79493">
        <ele>252</ele>
        <time>2016-08-29T15:27:31Z</time>
      </trkpt>
      <trkpt lat="45.94738" lon="4.79486">
        <ele>253</ele>
        <time>2016-08-29T15:27:32Z</time>
      </trkpt>
      <trkpt lat="45.94735" lon="4.79479">
        <ele>253</ele>
        <time>2016-08-29T15:27:33Z</time>
      </trkpt>
      <trkpt lat="45.94732" lon="4.79472">
        <ele>253</ele>
        <time>2016-08-29T15:27:34Z</time>
      </trkpt>
      <trkpt lat="45.94729" lon="4.79465">
        <ele>253</ele>
        <time>2016-08-29T15:27:35Z</time>
      </trkpt>
      <trkpt lat="45.94726" lon="4.79458">
        <ele>253</ele>
        <time>2016-08-29T15:27:36Z</time>
      </trkpt>
      <trkpt lat="45.94723" lon="4.79451">
        <ele>253</ele>
        <time>2016-08-29T15:27:37Z</time>
      </trkpt>
      <trkpt lat="45.9472" lon="4.79445">
        <ele>253</ele>
        <time>2016-08-29T15:27:38Z</time>
      </trkpt>
      <trkpt lat="45.94717" lon="4.79438">
        <ele>253</ele>
        <time>2016-08-29T15:27:39Z</time>
      </trkpt>
      <trkpt lat="45.94713" lon="4.79431">
        <ele>253</ele>
        <time>2016-08-29T15:27:40Z</time>
      </trkpt>
      <trkpt lat="45.9471" lon="4.79424">
        <ele>253</ele>
        <time>2016-08-29T15:27:41Z</time>
      </trkpt>
      <trkpt lat="45.94707" lon="4.79417">
        <ele>253</ele>
        <time>2016-08-29T15:27:42Z</time>
      </trkpt>
      <trkpt lat="45.94704" lon="4.79411">
        <ele>253</ele>
        <time>2016-08-29T15:27:43Z</time>
      </trkpt>
      <trkpt lat="45.947" lon="4.79405">
        <ele>253</ele>
        <time>2016-08-29T15:27:44Z</time>
      </trkpt>
      <trkpt lat="45.94697" lon="4.79398">
        <ele>253</ele>
        <time>2016-08-29T15:27:45Z</time>
      </trkpt>
      <trkpt lat="45.94695" lon="4.79392">
        <ele>253</ele>
        <time>2016-08-29T15:27:46Z</time>
      </trkpt>
      <trkpt lat="45.94692" lon="4.79387">
        <ele>253</ele>
        <time>2016-08-29T15:27:47Z</time>
      </trkpt>
      <trkpt lat="45.94686" lon="4.79377">
        <ele>253</ele>
        <time>2016-08-29T15:27:49Z</time>
      </trkpt>
      <trkpt lat="45.94684" lon="4.79372">
        <ele>253</ele>
        <time>2016-08-29T15:27:50Z</time>
      </trkpt>
      <trkpt lat="45.94681" lon="4.79366">
        <ele>253</ele>
        <time>2016-08-29T15:27:51Z</time>
      </trkpt>
      <trkpt lat="45.94678" lon="4.79361">
        <ele>253</ele>
        <time>2016-08-29T15:27:52Z</time>
      </trkpt>
      <trkpt lat="45.94676" lon="4.79355">
        <ele>253</ele>
        <time>2016-08-29T15:27:53Z</time>
      </trkpt>
      <trkpt lat="45.94673" lon="4.79349">
        <ele>253</ele>
        <time>2016-08-29T15:27:54Z</time>
      </trkpt>
      <trkpt lat="45.9467" lon="4.79344">
        <ele>254</ele>
        <time>2016-08-29T15:27:55Z</time>
      </trkpt>
      <trkpt lat="45.94667" lon="4.79339">
        <ele>254</ele>
        <time>2016-08-29T15:27:56Z</time>
      </trkpt>
      <trkpt lat="45.94665" lon="4.79333">
        <ele>254</ele>
        <time>2016-08-29T15:27:57Z</time>
      </trkpt>
      <trkpt lat="45.94662" lon="4.79328">
        <ele>254</ele>
        <time>2016-08-29T15:27:58Z</time>
      </trkpt>
      <trkpt lat="45.94659" lon="4.79322">
        <ele>254</ele>
        <time>2016-08-29T15:27:59Z</time>
      </trkpt>
      <trkpt lat="45.94657" lon="4.79316">
        <ele>254</ele>
        <time>2016-08-29T15:28:00Z</time>
      </trkpt>
      <trkpt lat="45.94654" lon="4.7931">
        <ele>254</ele>
        <time>2016-08-29T15:28:01Z</time>
      </trkpt>
      <trkpt lat="45.94651" lon="4.79304">
        <ele>254</ele>
        <time>2016-08-29T15:28:02Z</time>
      </trkpt>
      <trkpt lat="45.94648" lon="4.79298">
        <ele>254</ele>
        <time>2016-08-29T15:28:03Z</time>
      </trkpt>
      <trkpt lat="45.94644" lon="4.79291">
        <ele>254</ele>
        <time>2016-08-29T15:28:04Z</time>
      </trkpt>
      <trkpt lat="45.94641" lon="4.79285">
        <ele>254</ele>
        <time>2016-08-29T15:28:05Z</time>
      </trkpt>
      <trkpt lat="45.94638" lon="4.79278">
        <ele>254</ele>
        <time>2016-08-29T15:28:06Z</time>
      </trkpt>
      <trkpt lat="45.94636" lon="4.79271">
        <ele>254</ele>
        <time>2016-08-29T15:28:07Z</time>
      </trkpt>
      <trkpt lat="45.94633" lon="4.79262">
        <ele>254</ele>
        <time>2016-08-29T15:28:08Z</time>
      </trkpt>
      <trkpt lat="45.9463" lon="4.79253">
        <ele>254</ele>
        <time>2016-08-29T15:28:09Z</time>
      </trkpt>
      <trkpt lat="45.94627" lon="4.79247">
        <ele>256</ele>
        <time>2016-08-29T15:28:10Z</time>
      </trkpt>
      <trkpt lat="45.94623" lon="4.79241">
        <ele>256</ele>
        <time>2016-08-29T15:28:11Z</time>
      </trkpt>
      <trkpt lat="45.94619" lon="4.79236">
        <ele>256</ele>
        <time>2016-08-29T15:28:12Z</time>
      </trkpt>
      <trkpt lat="45.94615" lon="4.79231">
        <ele>256</ele>
        <time>2016-08-29T15:28:13Z</time>
      </trkpt>
      <trkpt lat="45.94611" lon="4.79225">
        <ele>256</ele>
        <time>2016-08-29T15:28:14Z</time>
      </trkpt>
      <trkpt lat="45.94608" lon="4.79219">
        <ele>257</ele>
        <time>2016-08-29T15:28:15Z</time>
      </trkpt>
      <trkpt lat="45.94604" lon="4.79213">
        <ele>257</ele>
        <time>2016-08-29T15:28:16Z</time>
      </trkpt>
      <trkpt lat="45.946" lon="4.79207">
        <ele>257</ele>
        <time>2016-08-29T15:28:17Z</time>
      </trkpt>
      <trkpt lat="45.94596" lon="4.792">
        <ele>257</ele>
        <time>2016-08-29T15:28:18Z</time>
      </trkpt>
      <trkpt lat="45.94592" lon="4.79193">
        <ele>257</ele>
        <time>2016-08-29T15:28:19Z</time>
      </trkpt>
      <trkpt lat="45.94588" lon="4.79186">
        <ele>258</ele>
        <time>2016-08-29T15:28:20Z</time>
      </trkpt>
      <trkpt lat="45.94584" lon="4.79179">
        <ele>258</ele>
        <time>2016-08-29T15:28:21Z</time>
      </trkpt>
      <trkpt lat="45.94581" lon="4.79174">
        <ele>258</ele>
        <time>2016-08-29T15:28:22Z</time>
      </trkpt>
      <trkpt lat="45.94577" lon="4.79169">
        <ele>258</ele>
        <time>2016-08-29T15:28:23Z</time>
      </trkpt>
      <trkpt lat="45.94573" lon="4.79163">
        <ele>258</ele>
        <time>2016-08-29T15:28:24Z</time>
      </trkpt>
      <trkpt lat="45.94569" lon="4.79156">
        <ele>258</ele>
        <time>2016-08-29T15:28:25Z</time>
      </trkpt>
      <trkpt lat="45.94565" lon="4.79148">
        <ele>257</ele>
        <time>2016-08-29T15:28:26Z</time>
      </trkpt>
      <trkpt lat="45.94561" lon="4.7914">
        <ele>257</ele>
        <time>2016-08-29T15:28:27Z</time>
      </trkpt>
      <trkpt lat="45.94558" lon="4.79132">
        <ele>257</ele>
        <time>2016-08-29T15:28:28Z</time>
      </trkpt>
      <trkpt lat="45.94553" lon="4.79126">
        <ele>257</ele>
        <time>2016-08-29T15:28:29Z</time>
      </trkpt>
      <trkpt lat="45.94549" lon="4.79117">
        <ele>256</ele>
        <time>2016-08-29T15:28:30Z</time>
      </trkpt>
      <trkpt lat="45.94545" lon="4.7911">
        <ele>256</ele>
        <time>2016-08-29T15:28:31Z</time>
      </trkpt>
      <trkpt lat="45.94541" lon="4.79103">
        <ele>256</ele>
        <time>2016-08-29T15:28:32Z</time>
      </trkpt>
      <trkpt lat="45.94537" lon="4.79095">
        <ele>256</ele>
        <time>2016-08-29T15:28:33Z</time>
      </trkpt>
      <trkpt lat="45.94534" lon="4.79085">
        <ele>256</ele>
        <time>2016-08-29T15:28:34Z</time>
      </trkpt>
      <trkpt lat="45.94531" lon="4.79076">
        <ele>255</ele>
        <time>2016-08-29T15:28:35Z</time>
      </trkpt>
      <trkpt lat="45.94528" lon="4.79065">
        <ele>255</ele>
        <time>2016-08-29T15:28:36Z</time>
      </trkpt>
      <trkpt lat="45.94525" lon="4.79055">
        <ele>255</ele>
        <time>2016-08-29T15:28:37Z</time>
      </trkpt>
      <trkpt lat="45.94522" lon="4.79048">
        <ele>255</ele>
        <time>2016-08-29T15:28:38Z</time>
      </trkpt>
      <trkpt lat="45.94519" lon="4.79041">
        <ele>255</ele>
        <time>2016-08-29T15:28:39Z</time>
      </trkpt>
      <trkpt lat="45.94515" lon="4.79034">
        <ele>255</ele>
        <time>2016-08-29T15:28:40Z</time>
      </trkpt>
      <trkpt lat="45.94512" lon="4.79027">
        <ele>255</ele>
        <time>2016-08-29T15:28:41Z</time>
      </trkpt>
      <trkpt lat="45.94508" lon="4.7902">
        <ele>255</ele>
        <time>2016-08-29T15:28:42Z</time>
      </trkpt>
      <trkpt lat="45.94504" lon="4.79013">
        <ele>255</ele>
        <time>2016-08-29T15:28:43Z</time>
      </trkpt>
      <trkpt lat="45.94501" lon="4.79005">
        <ele>254</ele>
        <time>2016-08-29T15:28:44Z</time>
      </trkpt>
      <trkpt lat="45.94497" lon="4.78997">
        <ele>254</ele>
        <time>2016-08-29T15:28:45Z</time>
      </trkpt>
      <trkpt lat="45.94493" lon="4.78987">
        <ele>254</ele>
        <time>2016-08-29T15:28:46Z</time>
      </trkpt>
      <trkpt lat="45.94489" lon="4.78979">
        <ele>254</ele>
        <time>2016-08-29T15:28:47Z</time>
      </trkpt>
      <trkpt lat="45.94484" lon="4.7897">
        <ele>254</ele>
        <time>2016-08-29T15:28:48Z</time>
      </trkpt>
      <trkpt lat="45.94479" lon="4.78961">
        <ele>254</ele>
        <time>2016-08-29T15:28:49Z</time>
      </trkpt>
      <trkpt lat="45.94475" lon="4.78952">
        <ele>254</ele>
        <time>2016-08-29T15:28:50Z</time>
      </trkpt>
      <trkpt lat="45.9447" lon="4.78942">
        <ele>254</ele>
        <time>2016-08-29T15:28:51Z</time>
      </trkpt>
      <trkpt lat="45.94466" lon="4.78932">
        <ele>254</ele>
        <time>2016-08-29T15:28:52Z</time>
      </trkpt>
      <trkpt lat="45.94464" lon="4.7892">
        <ele>254</ele>
        <time>2016-08-29T15:28:53Z</time>
      </trkpt>
      <trkpt lat="45.94461" lon="4.78909">
        <ele>253</ele>
        <time>2016-08-29T15:28:54Z</time>
      </trkpt>
      <trkpt lat="45.94461" lon="4.78896">
        <ele>253</ele>
        <time>2016-08-29T15:28:55Z</time>
      </trkpt>
      <trkpt lat="45.94461" lon="4.78883">
        <ele>253</ele>
        <time>2016-08-29T15:28:56Z</time>
      </trkpt>
      <trkpt lat="45.94461" lon="4.78868">
        <ele>253</ele>
        <time>2016-08-29T15:28:57Z</time>
      </trkpt>
      <trkpt lat="45.94463" lon="4.78854">
        <ele>253</ele>
        <time>2016-08-29T15:28:58Z</time>
      </trkpt>
      <trkpt lat="45.94466" lon="4.78839">
        <ele>253</ele>
        <time>2016-08-29T15:28:59Z</time>
      </trkpt>
      <trkpt lat="45.9447" lon="4.78825">
        <ele>251</ele>
        <time>2016-08-29T15:29:00Z</time>
      </trkpt>
      <trkpt lat="45.94474" lon="4.7881">
        <ele>251</ele>
        <time>2016-08-29T15:29:01Z</time>
      </trkpt>
      <trkpt lat="45.94478" lon="4.78796">
        <ele>250</ele>
        <time>2016-08-29T15:29:02Z</time>
      </trkpt>
      <trkpt lat="45.94481" lon="4.78782">
        <ele>250</ele>
        <time>2016-08-29T15:29:03Z</time>
      </trkpt>
      <trkpt lat="45.94484" lon="4.78767">
        <ele>249</ele>
        <time>2016-08-29T15:29:04Z</time>
      </trkpt>
      <trkpt lat="45.94486" lon="4.78752">
        <ele>248</ele>
        <time>2016-08-29T15:29:05Z</time>
      </trkpt>
      <trkpt lat="45.94486" lon="4.78736">
        <ele>246</ele>
        <time>2016-08-29T15:29:06Z</time>
      </trkpt>
      <trkpt lat="45.94485" lon="4.78719">
        <ele>245</ele>
        <time>2016-08-29T15:29:07Z</time>
      </trkpt>
      <trkpt lat="45.94482" lon="4.78703">
        <ele>245</ele>
        <time>2016-08-29T15:29:08Z</time>
      </trkpt>
      <trkpt lat="45.9448" lon="4.78686">
        <ele>244</ele>
        <time>2016-08-29T15:29:09Z</time>
      </trkpt>
      <trkpt lat="45.94477" lon="4.7867">
        <ele>243</ele>
        <time>2016-08-29T15:29:10Z</time>
      </trkpt>
      <trkpt lat="45.94474" lon="4.78654">
        <ele>241</ele>
        <time>2016-08-29T15:29:11Z</time>
      </trkpt>
      <trkpt lat="45.94472" lon="4.78637">
        <ele>241</ele>
        <time>2016-08-29T15:29:12Z</time>
      </trkpt>
      <trkpt lat="45.94468" lon="4.78622">
        <ele>241</ele>
        <time>2016-08-29T15:29:13Z</time>
      </trkpt>
      <trkpt lat="45.94464" lon="4.78606">
        <ele>241</ele>
        <time>2016-08-29T15:29:14Z</time>
      </trkpt>
      <trkpt lat="45.94458" lon="4.78591">
        <ele>240</ele>
        <time>2016-08-29T15:29:15Z</time>
      </trkpt>
      <trkpt lat="45.94451" lon="4.78577">
        <ele>239</ele>
        <time>2016-08-29T15:29:16Z</time>
      </trkpt>
      <trkpt lat="45.94444" lon="4.78564">
        <ele>239</ele>
        <time>2016-08-29T15:29:17Z</time>
      </trkpt>
      <trkpt lat="45.94436" lon="4.78551">
        <ele>239</ele>
        <time>2016-08-29T15:29:18Z</time>
      </trkpt>
      <trkpt lat="45.94428" lon="4.78538">
        <ele>238</ele>
        <time>2016-08-29T15:29:19Z</time>
      </trkpt>
      <trkpt lat="45.9442" lon="4.78526">
        <ele>237</ele>
        <time>2016-08-29T15:29:20Z</time>
      </trkpt>
      <trkpt lat="45.94411" lon="4.78514">
        <ele>236</ele>
        <time>2016-08-29T15:29:21Z</time>
      </trkpt>
      <trkpt lat="45.94402" lon="4.78504">
        <ele>236</ele>
        <time>2016-08-29T15:29:22Z</time>
      </trkpt>
      <trkpt lat="45.94392" lon="4.78494">
        <ele>235</ele>
        <time>2016-08-29T15:29:23Z</time>
      </trkpt>
      <trkpt lat="45.94383" lon="4.78484">
        <ele>236</ele>
        <time>2016-08-29T15:29:24Z</time>
      </trkpt>
      <trkpt lat="45.94374" lon="4.78473">
        <ele>236</ele>
        <time>2016-08-29T15:29:25Z</time>
      </trkpt>
      <trkpt lat="45.94365" lon="4.78461">
        <ele>236</ele>
        <time>2016-08-29T15:29:26Z</time>
      </trkpt>
      <trkpt lat="45.94356" lon="4.78448">
        <ele>235</ele>
        <time>2016-08-29T15:29:27Z</time>
      </trkpt>
      <trkpt lat="45.94348" lon="4.78436">
        <ele>234</ele>
        <time>2016-08-29T15:29:28Z</time>
      </trkpt>
      <trkpt lat="45.9434" lon="4.78424">
        <ele>231</ele>
        <time>2016-08-29T15:29:29Z</time>
      </trkpt>
      <trkpt lat="45.94333" lon="4.78411">
        <ele>229</ele>
        <time>2016-08-29T15:29:30Z</time>
      </trkpt>
      <trkpt lat="45.94326" lon="4.78397">
        <ele>230</ele>
        <time>2016-08-29T15:29:31Z</time>
      </trkpt>
      <trkpt lat="45.94319" lon="4.78384">
        <ele>230</ele>
        <time>2016-08-29T15:29:32Z</time>
      </trkpt>
      <trkpt lat="45.94312" lon="4.7837">
        <ele>229</ele>
        <time>2016-08-29T15:29:33Z</time>
      </trkpt>
      <trkpt lat="45.94305" lon="4.78357">
        <ele>229</ele>
        <time>2016-08-29T15:29:34Z</time>
      </trkpt>
      <trkpt lat="45.94297" lon="4.78344">
        <ele>228</ele>
        <time>2016-08-29T15:29:35Z</time>
      </trkpt>
      <trkpt lat="45.9429" lon="4.78332">
        <ele>228</ele>
        <time>2016-08-29T15:29:36Z</time>
      </trkpt>
      <trkpt lat="45.94281" lon="4.78322">
        <ele>228</ele>
        <time>2016-08-29T15:29:37Z</time>
      </trkpt>
      <trkpt lat="45.94271" lon="4.78313">
        <ele>227</ele>
        <time>2016-08-29T15:29:38Z</time>
      </trkpt>
      <trkpt lat="45.94262" lon="4.78305">
        <ele>227</ele>
        <time>2016-08-29T15:29:39Z</time>
      </trkpt>
      <trkpt lat="45.94252" lon="4.78298">
        <ele>228</ele>
        <time>2016-08-29T15:29:40Z</time>
      </trkpt>
      <trkpt lat="45.9424" lon="4.78295">
        <ele>222</ele>
        <time>2016-08-29T15:29:41Z</time>
      </trkpt>
      <trkpt lat="45.94228" lon="4.78292">
        <ele>222</ele>
        <time>2016-08-29T15:29:42Z</time>
      </trkpt>
      <trkpt lat="45.94217" lon="4.7829">
        <ele>222</ele>
        <time>2016-08-29T15:29:43Z</time>
      </trkpt>
      <trkpt lat="45.94206" lon="4.78289">
        <ele>221</ele>
        <time>2016-08-29T15:29:44Z</time>
      </trkpt>
      <trkpt lat="45.94195" lon="4.78287">
        <ele>221</ele>
        <time>2016-08-29T15:29:45Z</time>
      </trkpt>
      <trkpt lat="45.94185" lon="4.78282">
        <ele>221</ele>
        <time>2016-08-29T15:29:46Z</time>
      </trkpt>
      <trkpt lat="45.94176" lon="4.78277">
        <ele>221</ele>
        <time>2016-08-29T15:29:47Z</time>
      </trkpt>
      <trkpt lat="45.94167" lon="4.78271">
        <ele>216</ele>
        <time>2016-08-29T15:29:48Z</time>
      </trkpt>
      <trkpt lat="45.94158" lon="4.78265">
        <ele>216</ele>
        <time>2016-08-29T15:29:49Z</time>
      </trkpt>
      <trkpt lat="45.94149" lon="4.78259">
        <ele>216</ele>
        <time>2016-08-29T15:29:50Z</time>
      </trkpt>
      <trkpt lat="45.9414" lon="4.78253">
        <ele>215</ele>
        <time>2016-08-29T15:29:51Z</time>
      </trkpt>
      <trkpt lat="45.94131" lon="4.78247">
        <ele>215</ele>
        <time>2016-08-29T15:29:52Z</time>
      </trkpt>
      <trkpt lat="45.94122" lon="4.78241">
        <ele>215</ele>
        <time>2016-08-29T15:29:53Z</time>
      </trkpt>
      <trkpt lat="45.94113" lon="4.78236">
        <ele>214</ele>
        <time>2016-08-29T15:29:54Z</time>
      </trkpt>
      <trkpt lat="45.94104" lon="4.78231">
        <ele>213</ele>
        <time>2016-08-29T15:29:55Z</time>
      </trkpt>
      <trkpt lat="45.94094" lon="4.78226">
        <ele>213</ele>
        <time>2016-08-29T15:29:56Z</time>
      </trkpt>
      <trkpt lat="45.94085" lon="4.78221">
        <ele>213</ele>
        <time>2016-08-29T15:29:57Z</time>
      </trkpt>
      <trkpt lat="45.94076" lon="4.78215">
        <ele>206</ele>
        <time>2016-08-29T15:29:58Z</time>
      </trkpt>
      <trkpt lat="45.94067" lon="4.7821">
        <ele>206</ele>
        <time>2016-08-29T15:29:59Z</time>
      </trkpt>
      <trkpt lat="45.94057" lon="4.78204">
        <ele>206</ele>
        <time>2016-08-29T15:30:00Z</time>
      </trkpt>
      <trkpt lat="45.94048" lon="4.78198">
        <ele>205</ele>
        <time>2016-08-29T15:30:01Z</time>
      </trkpt>
      <trkpt lat="45.9404" lon="4.78192">
        <ele>205</ele>
        <time>2016-08-29T15:30:02Z</time>
      </trkpt>
      <trkpt lat="45.94031" lon="4.78187">
        <ele>204</ele>
        <time>2016-08-29T15:30:03Z</time>
      </trkpt>
      <trkpt lat="45.94023" lon="4.78182">
        <ele>204</ele>
        <time>2016-08-29T15:30:04Z</time>
      </trkpt>
      <trkpt lat="45.94016" lon="4.78176">
        <ele>203</ele>
        <time>2016-08-29T15:30:05Z</time>
      </trkpt>
      <trkpt lat="45.94011" lon="4.78173">
        <ele>203</ele>
        <time>2016-08-29T15:30:06Z</time>
      </trkpt>
      <trkpt lat="45.94006" lon="4.7817">
        <ele>202</ele>
        <time>2016-08-29T15:30:07Z</time>
      </trkpt>
      <trkpt lat="45.94001" lon="4.78162">
        <ele>202</ele>
        <time>2016-08-29T15:30:09Z</time>
      </trkpt>
      <trkpt lat="45.93998" lon="4.78157">
        <ele>199</ele>
        <time>2016-08-29T15:30:10Z</time>
      </trkpt>
      <trkpt lat="45.93995" lon="4.78152">
        <ele>199</ele>
        <time>2016-08-29T15:30:11Z</time>
      </trkpt>
      <trkpt lat="45.93993" lon="4.78145">
        <ele>198</ele>
        <time>2016-08-29T15:30:12Z</time>
      </trkpt>
      <trkpt lat="45.93992" lon="4.78138">
        <ele>198</ele>
        <time>2016-08-29T15:30:13Z</time>
      </trkpt>
      <trkpt lat="45.93993" lon="4.78132">
        <ele>197</ele>
        <time>2016-08-29T15:30:14Z</time>
      </trkpt>
      <trkpt lat="45.93994" lon="4.78125">
        <ele>197</ele>
        <time>2016-08-29T15:30:15Z</time>
      </trkpt>
      <trkpt lat="45.93995" lon="4.78119">
        <ele>197</ele>
        <time>2016-08-29T15:30:16Z</time>
      </trkpt>
      <trkpt lat="45.93996" lon="4.78111">
        <ele>197</ele>
        <time>2016-08-29T15:30:17Z</time>
      </trkpt>
      <trkpt lat="45.93997" lon="4.78103">
        <ele>197</ele>
        <time>2016-08-29T15:30:18Z</time>
      </trkpt>
      <trkpt lat="45.93998" lon="4.78095">
        <ele>198</ele>
        <time>2016-08-29T15:30:19Z</time>
      </trkpt>
      <trkpt lat="45.93999" lon="4.78087">
        <ele>199</ele>
        <time>2016-08-29T15:30:20Z</time>
      </trkpt>
      <trkpt lat="45.94" lon="4.78079">
        <ele>200</ele>
        <time>2016-08-29T15:30:21Z</time>
      </trkpt>
      <trkpt lat="45.94002" lon="4.78071">
        <ele>200</ele>
        <time>2016-08-29T15:30:22Z</time>
      </trkpt>
      <trkpt lat="45.94003" lon="4.78064">
        <ele>201</ele>
        <time>2016-08-29T15:30:23Z</time>
      </trkpt>
      <trkpt lat="45.94005" lon="4.78056">
        <ele>201</ele>
        <time>2016-08-29T15:30:24Z</time>
      </trkpt>
      <trkpt lat="45.94007" lon="4.78049">
        <ele>201</ele>
        <time>2016-08-29T15:30:25Z</time>
      </trkpt>
      <trkpt lat="45.94009" lon="4.78042">
        <ele>201</ele>
        <time>2016-08-29T15:30:26Z</time>
      </trkpt>
      <trkpt lat="45.9401" lon="4.78036">
        <ele>201</ele>
        <time>2016-08-29T15:30:27Z</time>
      </trkpt>
      <trkpt lat="45.94012" lon="4.78029">
        <ele>201</ele>
        <time>2016-08-29T15:30:28Z</time>
      </trkpt>
      <trkpt lat="45.94012" lon="4.78022">
        <ele>200</ele>
        <time>2016-08-29T15:30:29Z</time>
      </trkpt>
      <trkpt lat="45.94013" lon="4.78014">
        <ele>200</ele>
        <time>2016-08-29T15:30:30Z</time>
      </trkpt>
      <trkpt lat="45.94014" lon="4.78006">
        <ele>199</ele>
        <time>2016-08-29T15:30:31Z</time>
      </trkpt>
      <trkpt lat="45.94015" lon="4.77999">
        <ele>199</ele>
        <time>2016-08-29T15:30:32Z</time>
      </trkpt>
      <trkpt lat="45.94016" lon="4.77991">
        <ele>199</ele>
        <time>2016-08-29T15:30:33Z</time>
      </trkpt>
      <trkpt lat="45.94017" lon="4.77983">
        <ele>199</ele>
        <time>2016-08-29T15:30:34Z</time>
      </trkpt>
      <trkpt lat="45.94019" lon="4.77975">
        <ele>200</ele>
        <time>2016-08-29T15:30:35Z</time>
      </trkpt>
      <trkpt lat="45.9402" lon="4.77967">
        <ele>200</ele>
        <time>2016-08-29T15:30:36Z</time>
      </trkpt>
      <trkpt lat="45.94022" lon="4.77959">
        <ele>200</ele>
        <time>2016-08-29T15:30:37Z</time>
      </trkpt>
      <trkpt lat="45.94024" lon="4.77951">
        <ele>200</ele>
        <time>2016-08-29T15:30:38Z</time>
      </trkpt>
      <trkpt lat="45.94027" lon="4.77944">
        <ele>200</ele>
        <time>2016-08-29T15:30:39Z</time>
      </trkpt>
      <trkpt lat="45.94028" lon="4.77937">
        <ele>200</ele>
        <time>2016-08-29T15:30:40Z</time>
      </trkpt>
      <trkpt lat="45.94025" lon="4.77925">
        <ele>199</ele>
        <time>2016-08-29T15:30:42Z</time>
      </trkpt>
      <trkpt lat="45.9402" lon="4.77924">
        <ele>198</ele>
        <time>2016-08-29T15:30:43Z</time>
      </trkpt>
      <trkpt lat="45.94014" lon="4.77924">
        <ele>198</ele>
        <time>2016-08-29T15:30:44Z</time>
      </trkpt>
      <trkpt lat="45.94008" lon="4.77925">
        <ele>197</ele>
        <time>2016-08-29T15:30:45Z</time>
      </trkpt>
      <trkpt lat="45.94001" lon="4.77926">
        <ele>196</ele>
        <time>2016-08-29T15:30:46Z</time>
      </trkpt>
      <trkpt lat="45.93993" lon="4.77929">
        <ele>192</ele>
        <time>2016-08-29T15:30:47Z</time>
      </trkpt>
      <trkpt lat="45.93986" lon="4.77933">
        <ele>192</ele>
        <time>2016-08-29T15:30:48Z</time>
      </trkpt>
      <trkpt lat="45.93978" lon="4.77938">
        <ele>191</ele>
        <time>2016-08-29T15:30:49Z</time>
      </trkpt>
      <trkpt lat="45.93969" lon="4.77943">
        <ele>191</ele>
        <time>2016-08-29T15:30:50Z</time>
      </trkpt>
      <trkpt lat="45.93961" lon="4.7795">
        <ele>190</ele>
        <time>2016-08-29T15:30:51Z</time>
      </trkpt>
      <trkpt lat="45.93953" lon="4.77957">
        <ele>190</ele>
        <time>2016-08-29T15:30:52Z</time>
      </trkpt>
      <trkpt lat="45.93945" lon="4.77964">
        <ele>189</ele>
        <time>2016-08-29T15:30:53Z</time>
      </trkpt>
      <trkpt lat="45.93935" lon="4.77971">
        <ele>189</ele>
        <time>2016-08-29T15:30:54Z</time>
      </trkpt>
      <trkpt lat="45.93926" lon="4.77977">
        <ele>188</ele>
        <time>2016-08-29T15:30:55Z</time>
      </trkpt>
      <trkpt lat="45.93918" lon="4.77984">
        <ele>188</ele>
        <time>2016-08-29T15:30:56Z</time>
      </trkpt>
      <trkpt lat="45.93909" lon="4.7799">
        <ele>183</ele>
        <time>2016-08-29T15:30:57Z</time>
      </trkpt>
      <trkpt lat="45.93902" lon="4.77996">
        <ele>183</ele>
        <time>2016-08-29T15:30:58Z</time>
      </trkpt>
      <trkpt lat="45.93896" lon="4.78001">
        <ele>185</ele>
        <time>2016-08-29T15:30:59Z</time>
      </trkpt>
      <trkpt lat="45.93891" lon="4.78007">
        <ele>184</ele>
        <time>2016-08-29T15:31:00Z</time>
      </trkpt>
      <trkpt lat="45.93887" lon="4.78012">
        <ele>184</ele>
        <time>2016-08-29T15:31:01Z</time>
      </trkpt>
      <trkpt lat="45.93878" lon="4.78017">
        <ele>184</ele>
        <time>2016-08-29T15:31:03Z</time>
      </trkpt>
      <trkpt lat="45.93874" lon="4.78018">
        <ele>183</ele>
        <time>2016-08-29T15:31:04Z</time>
      </trkpt>
      <trkpt lat="45.93869" lon="4.78015">
        <ele>183</ele>
        <time>2016-08-29T15:31:05Z</time>
      </trkpt>
      <trkpt lat="45.93865" lon="4.7801">
        <ele>183</ele>
        <time>2016-08-29T15:31:06Z</time>
      </trkpt>
      <trkpt lat="45.93861" lon="4.78005">
        <ele>182</ele>
        <time>2016-08-29T15:31:07Z</time>
      </trkpt>
      <trkpt lat="45.93856" lon="4.78">
        <ele>182</ele>
        <time>2016-08-29T15:31:08Z</time>
      </trkpt>
      <trkpt lat="45.93851" lon="4.77996">
        <ele>179</ele>
        <time>2016-08-29T15:31:09Z</time>
      </trkpt>
      <trkpt lat="45.93846" lon="4.7799">
        <ele>179</ele>
        <time>2016-08-29T15:31:10Z</time>
      </trkpt>
      <trkpt lat="45.93842" lon="4.77984">
        <ele>178</ele>
        <time>2016-08-29T15:31:11Z</time>
      </trkpt>
      <trkpt lat="45.93838" lon="4.77977">
        <ele>178</ele>
        <time>2016-08-29T15:31:12Z</time>
      </trkpt>
      <trkpt lat="45.93833" lon="4.77971">
        <ele>172</ele>
        <time>2016-08-29T15:31:13Z</time>
      </trkpt>
      <trkpt lat="45.93829" lon="4.77966">
        <ele>171</ele>
        <time>2016-08-29T15:31:14Z</time>
      </trkpt>
      <trkpt lat="45.93824" lon="4.7796">
        <ele>170</ele>
        <time>2016-08-29T15:31:15Z</time>
      </trkpt>
      <trkpt lat="45.9382" lon="4.77954">
        <ele>170</ele>
        <time>2016-08-29T15:31:16Z</time>
      </trkpt>
      <trkpt lat="45.93815" lon="4.77949">
        <ele>169</ele>
        <time>2016-08-29T15:31:17Z</time>
      </trkpt>
      <trkpt lat="45.93811" lon="4.77942">
        <ele>169</ele>
        <time>2016-08-29T15:31:18Z</time>
      </trkpt>
      <trkpt lat="45.93807" lon="4.77936">
        <ele>169</ele>
        <time>2016-08-29T15:31:19Z</time>
      </trkpt>
      <trkpt lat="45.93803" lon="4.7793">
        <ele>168</ele>
        <time>2016-08-29T15:31:20Z</time>
      </trkpt>
      <trkpt lat="45.93799" lon="4.77924">
        <ele>168</ele>
        <time>2016-08-29T15:31:21Z</time>
      </trkpt>
      <trkpt lat="45.93795" lon="4.77919">
        <ele>168</ele>
        <time>2016-08-29T15:31:22Z</time>
      </trkpt>
      <trkpt lat="45.93791" lon="4.77914">
        <ele>166</ele>
        <time>2016-08-29T15:31:23Z</time>
      </trkpt>
      <trkpt lat="45.93787" lon="4.77909">
        <ele>166</ele>
        <time>2016-08-29T15:31:24Z</time>
      </trkpt>
      <trkpt lat="45.93784" lon="4.77903">
        <ele>166</ele>
        <time>2016-08-29T15:31:25Z</time>
      </trkpt>
      <trkpt lat="45.9378" lon="4.77898">
        <ele>166</ele>
        <time>2016-08-29T15:31:26Z</time>
      </trkpt>
      <trkpt lat="45.93775" lon="4.77892">
        <ele>166</ele>
        <time>2016-08-29T15:31:27Z</time>
      </trkpt>
      <trkpt lat="45.93771" lon="4.77886">
        <ele>166</ele>
        <time>2016-08-29T15:31:28Z</time>
      </trkpt>
      <trkpt lat="45.93767" lon="4.77881">
        <ele>166</ele>
        <time>2016-08-29T15:31:29Z</time>
      </trkpt>
      <trkpt lat="45.93762" lon="4.77875">
        <ele>166</ele>
        <time>2016-08-29T15:31:30Z</time>
      </trkpt>
      <trkpt lat="45.93759" lon="4.7787">
        <ele>166</ele>
        <time>2016-08-29T15:31:31Z</time>
      </trkpt>
      <trkpt lat="45.93754" lon="4.77864">
        <ele>166</ele>
        <time>2016-08-29T15:31:32Z</time>
      </trkpt>
      <trkpt lat="45.93751" lon="4.77858">
        <ele>166</ele>
        <time>2016-08-29T15:31:33Z</time>
      </trkpt>
      <trkpt lat="45.93747" lon="4.77853">
        <ele>167</ele>
        <time>2016-08-29T15:31:34Z</time>
      </trkpt>
      <trkpt lat="45.93743" lon="4.77847">
        <ele>167</ele>
        <time>2016-08-29T15:31:35Z</time>
      </trkpt>
      <trkpt lat="45.93739" lon="4.77842">
        <ele>167</ele>
        <time>2016-08-29T15:31:36Z</time>
      </trkpt>
      <trkpt lat="45.93734" lon="4.77837">
        <ele>167</ele>
        <time>2016-08-29T15:31:37Z</time>
      </trkpt>
      <trkpt lat="45.9373" lon="4.77831">
        <ele>168</ele>
        <time>2016-08-29T15:31:38Z</time>
      </trkpt>
      <trkpt lat="45.93726" lon="4.77826">
        <ele>168</ele>
        <time>2016-08-29T15:31:39Z</time>
      </trkpt>
      <trkpt lat="45.93722" lon="4.77821">
        <ele>168</ele>
        <time>2016-08-29T15:31:40Z</time>
      </trkpt>
      <trkpt lat="45.93717" lon="4.77815">
        <ele>169</ele>
        <time>2016-08-29T15:31:41Z</time>
      </trkpt>
      <trkpt lat="45.93712" lon="4.7781">
        <ele>169</ele>
        <time>2016-08-29T15:31:42Z</time>
      </trkpt>
      <trkpt lat="45.93708" lon="4.77805">
        <ele>169</ele>
        <time>2016-08-29T15:31:43Z</time>
      </trkpt>
      <trkpt lat="45.93704" lon="4.77799">
        <ele>169</ele>
        <time>2016-08-29T15:31:44Z</time>
      </trkpt>
      <trkpt lat="45.93699" lon="4.77792">
        <ele>169</ele>
        <time>2016-08-29T15:31:45Z</time>
      </trkpt>
      <trkpt lat="45.93695" lon="4.77786">
        <ele>170</ele>
        <time>2016-08-29T15:31:46Z</time>
      </trkpt>
      <trkpt lat="45.9369" lon="4.7778">
        <ele>170</ele>
        <time>2016-08-29T15:31:47Z</time>
      </trkpt>
      <trkpt lat="45.93685" lon="4.77773">
        <ele>170</ele>
        <time>2016-08-29T15:31:48Z</time>
      </trkpt>
      <trkpt lat="45.9368" lon="4.77767">
        <ele>170</ele>
        <time>2016-08-29T15:31:49Z</time>
      </trkpt>
      <trkpt lat="45.93676" lon="4.7776">
        <ele>170</ele>
        <time>2016-08-29T15:31:50Z</time>
      </trkpt>
      <trkpt lat="45.93671" lon="4.77753">
        <ele>171</ele>
        <time>2016-08-29T15:31:51Z</time>
      </trkpt>
      <trkpt lat="45.93666" lon="4.77746">
        <ele>171</ele>
        <time>2016-08-29T15:31:52Z</time>
      </trkpt>
      <trkpt lat="45.93661" lon="4.77738">
        <ele>170</ele>
        <time>2016-08-29T15:31:53Z</time>
      </trkpt>
      <trkpt lat="45.93656" lon="4.77729">
        <ele>170</ele>
        <time>2016-08-29T15:31:54Z</time>
      </trkpt>
      <trkpt lat="45.93651" lon="4.7772">
        <ele>170</ele>
        <time>2016-08-29T15:31:55Z</time>
      </trkpt>
      <trkpt lat="45.93646" lon="4.77711">
        <ele>170</ele>
        <time>2016-08-29T15:31:56Z</time>
      </trkpt>
      <trkpt lat="45.93641" lon="4.77702">
        <ele>170</ele>
        <time>2016-08-29T15:31:57Z</time>
      </trkpt>
      <trkpt lat="45.93636" lon="4.77692">
        <ele>169</ele>
        <time>2016-08-29T15:31:58Z</time>
      </trkpt>
      <trkpt lat="45.93631" lon="4.77682">
        <ele>169</ele>
        <time>2016-08-29T15:31:59Z</time>
      </trkpt>
      <trkpt lat="45.93626" lon="4.77673">
        <ele>169</ele>
        <time>2016-08-29T15:32:00Z</time>
      </trkpt>
      <trkpt lat="45.93622" lon="4.77663">
        <ele>169</ele>
        <time>2016-08-29T15:32:01Z</time>
      </trkpt>
      <trkpt lat="45.93617" lon="4.77653">
        <ele>169</ele>
        <time>2016-08-29T15:32:02Z</time>
      </trkpt>
      <trkpt lat="45.93613" lon="4.77643">
        <ele>169</ele>
        <time>2016-08-29T15:32:03Z</time>
      </trkpt>
      <trkpt lat="45.93609" lon="4.77633">
        <ele>169</ele>
        <time>2016-08-29T15:32:04Z</time>
      </trkpt>
      <trkpt lat="45.93605" lon="4.77623">
        <ele>170</ele>
        <time>2016-08-29T15:32:05Z</time>
      </trkpt>
      <trkpt lat="45.93601" lon="4.77614">
        <ele>170</ele>
        <time>2016-08-29T15:32:06Z</time>
      </trkpt>
      <trkpt lat="45.93598" lon="4.77605">
        <ele>170</ele>
        <time>2016-08-29T15:32:07Z</time>
      </trkpt>
      <trkpt lat="45.93594" lon="4.77596">
        <ele>170</ele>
        <time>2016-08-29T15:32:08Z</time>
      </trkpt>
      <trkpt lat="45.93592" lon="4.77587">
        <ele>170</ele>
        <time>2016-08-29T15:32:09Z</time>
      </trkpt>
      <trkpt lat="45.93589" lon="4.77578">
        <ele>170</ele>
        <time>2016-08-29T15:32:10Z</time>
      </trkpt>
      <trkpt lat="45.93587" lon="4.7757">
        <ele>170</ele>
        <time>2016-08-29T15:32:11Z</time>
      </trkpt>
      <trkpt lat="45.93585" lon="4.77561">
        <ele>170</ele>
        <time>2016-08-29T15:32:12Z</time>
      </trkpt>
      <trkpt lat="45.93582" lon="4.77554">
        <ele>169</ele>
        <time>2016-08-29T15:32:13Z</time>
      </trkpt>
      <trkpt lat="45.9358" lon="4.77546">
        <ele>169</ele>
        <time>2016-08-29T15:32:14Z</time>
      </trkpt>
      <trkpt lat="45.93578" lon="4.77538">
        <ele>169</ele>
        <time>2016-08-29T15:32:15Z</time>
      </trkpt>
      <trkpt lat="45.93577" lon="4.77529">
        <ele>169</ele>
        <time>2016-08-29T15:32:16Z</time>
      </trkpt>
      <trkpt lat="45.93575" lon="4.77521">
        <ele>169</ele>
        <time>2016-08-29T15:32:17Z</time>
      </trkpt>
      <trkpt lat="45.93573" lon="4.77513">
        <ele>169</ele>
        <time>2016-08-29T15:32:18Z</time>
      </trkpt>
      <trkpt lat="45.93571" lon="4.77504">
        <ele>169</ele>
        <time>2016-08-29T15:32:19Z</time>
      </trkpt>
      <trkpt lat="45.93569" lon="4.77496">
        <ele>169</ele>
        <time>2016-08-29T15:32:20Z</time>
      </trkpt>
      <trkpt lat="45.93566" lon="4.77488">
        <ele>169</ele>
        <time>2016-08-29T15:32:21Z</time>
      </trkpt>
      <trkpt lat="45.93564" lon="4.77479">
        <ele>169</ele>
        <time>2016-08-29T15:32:22Z</time>
      </trkpt>
      <trkpt lat="45.93562" lon="4.77471">
        <ele>169</ele>
        <time>2016-08-29T15:32:23Z</time>
      </trkpt>
      <trkpt lat="45.93561" lon="4.77463">
        <ele>169</ele>
        <time>2016-08-29T15:32:24Z</time>
      </trkpt>
      <trkpt lat="45.9356" lon="4.77456">
        <ele>169</ele>
        <time>2016-08-29T15:32:25Z</time>
      </trkpt>
      <trkpt lat="45.93558" lon="4.77448">
        <ele>169</ele>
        <time>2016-08-29T15:32:26Z</time>
      </trkpt>
      <trkpt lat="45.93557" lon="4.77442">
        <ele>169</ele>
        <time>2016-08-29T15:32:27Z</time>
      </trkpt>
      <trkpt lat="45.93555" lon="4.77434">
        <ele>169</ele>
        <time>2016-08-29T15:32:28Z</time>
      </trkpt>
      <trkpt lat="45.93553" lon="4.77427">
        <ele>170</ele>
        <time>2016-08-29T15:32:29Z</time>
      </trkpt>
      <trkpt lat="45.93551" lon="4.7742">
        <ele>170</ele>
        <time>2016-08-29T15:32:30Z</time>
      </trkpt>
      <trkpt lat="45.93549" lon="4.77412">
        <ele>170</ele>
        <time>2016-08-29T15:32:31Z</time>
      </trkpt>
      <trkpt lat="45.93548" lon="4.77405">
        <ele>170</ele>
        <time>2016-08-29T15:32:32Z</time>
      </trkpt>
      <trkpt lat="45.93546" lon="4.77397">
        <ele>170</ele>
        <time>2016-08-29T15:32:33Z</time>
      </trkpt>
      <trkpt lat="45.93544" lon="4.77389">
        <ele>170</ele>
        <time>2016-08-29T15:32:34Z</time>
      </trkpt>
      <trkpt lat="45.93542" lon="4.77381">
        <ele>170</ele>
        <time>2016-08-29T15:32:35Z</time>
      </trkpt>
      <trkpt lat="45.9354" lon="4.77372">
        <ele>170</ele>
        <time>2016-08-29T15:32:36Z</time>
      </trkpt>
      <trkpt lat="45.93539" lon="4.77364">
        <ele>170</ele>
        <time>2016-08-29T15:32:37Z</time>
      </trkpt>
      <trkpt lat="45.93537" lon="4.77356">
        <ele>170</ele>
        <time>2016-08-29T15:32:38Z</time>
      </trkpt>
      <trkpt lat="45.93535" lon="4.77349">
        <ele>170</ele>
        <time>2016-08-29T15:32:39Z</time>
      </trkpt>
      <trkpt lat="45.93534" lon="4.77341">
        <ele>170</ele>
        <time>2016-08-29T15:32:40Z</time>
      </trkpt>
      <trkpt lat="45.93532" lon="4.77334">
        <ele>170</ele>
        <time>2016-08-29T15:32:41Z</time>
      </trkpt>
      <trkpt lat="45.93531" lon="4.77326">
        <ele>170</ele>
        <time>2016-08-29T15:32:42Z</time>
      </trkpt>
      <trkpt lat="45.93529" lon="4.7732">
        <ele>170</ele>
        <time>2016-08-29T15:32:43Z</time>
      </trkpt>
      <trkpt lat="45.93527" lon="4.77313">
        <ele>170</ele>
        <time>2016-08-29T15:32:44Z</time>
      </trkpt>
      <trkpt lat="45.93526" lon="4.77306">
        <ele>170</ele>
        <time>2016-08-29T15:32:45Z</time>
      </trkpt>
      <trkpt lat="45.93524" lon="4.77298">
        <ele>170</ele>
        <time>2016-08-29T15:32:46Z</time>
      </trkpt>
      <trkpt lat="45.93523" lon="4.77291">
        <ele>170</ele>
        <time>2016-08-29T15:32:47Z</time>
      </trkpt>
      <trkpt lat="45.93521" lon="4.77284">
        <ele>170</ele>
        <time>2016-08-29T15:32:48Z</time>
      </trkpt>
      <trkpt lat="45.9352" lon="4.77277">
        <ele>170</ele>
        <time>2016-08-29T15:32:49Z</time>
      </trkpt>
      <trkpt lat="45.93518" lon="4.7727">
        <ele>170</ele>
        <time>2016-08-29T15:32:50Z</time>
      </trkpt>
      <trkpt lat="45.93516" lon="4.77262">
        <ele>170</ele>
        <time>2016-08-29T15:32:51Z</time>
      </trkpt>
      <trkpt lat="45.93515" lon="4.77255">
        <ele>170</ele>
        <time>2016-08-29T15:32:52Z</time>
      </trkpt>
      <trkpt lat="45.93513" lon="4.77247">
        <ele>169</ele>
        <time>2016-08-29T15:32:53Z</time>
      </trkpt>
      <trkpt lat="45.93511" lon="4.7724">
        <ele>169</ele>
        <time>2016-08-29T15:32:54Z</time>
      </trkpt>
      <trkpt lat="45.93509" lon="4.77232">
        <ele>169</ele>
        <time>2016-08-29T15:32:55Z</time>
      </trkpt>
      <trkpt lat="45.93508" lon="4.77224">
        <ele>169</ele>
        <time>2016-08-29T15:32:56Z</time>
      </trkpt>
      <trkpt lat="45.93506" lon="4.77217">
        <ele>169</ele>
        <time>2016-08-29T15:32:57Z</time>
      </trkpt>
      <trkpt lat="45.93505" lon="4.77211">
        <ele>169</ele>
        <time>2016-08-29T15:32:58Z</time>
      </trkpt>
      <trkpt lat="45.93504" lon="4.77205">
        <ele>169</ele>
        <time>2016-08-29T15:32:59Z</time>
      </trkpt>
      <trkpt lat="45.93502" lon="4.77198">
        <ele>169</ele>
        <time>2016-08-29T15:33:00Z</time>
      </trkpt>
      <trkpt lat="45.93501" lon="4.77191">
        <ele>169</ele>
        <time>2016-08-29T15:33:01Z</time>
      </trkpt>
      <trkpt lat="45.93499" lon="4.77184">
        <ele>169</ele>
        <time>2016-08-29T15:33:02Z</time>
      </trkpt>
      <trkpt lat="45.93497" lon="4.77176">
        <ele>169</ele>
        <time>2016-08-29T15:33:03Z</time>
      </trkpt>
      <trkpt lat="45.93496" lon="4.77168">
        <ele>169</ele>
        <time>2016-08-29T15:33:04Z</time>
      </trkpt>
      <trkpt lat="45.93494" lon="4.7716">
        <ele>169</ele>
        <time>2016-08-29T15:33:05Z</time>
      </trkpt>
      <trkpt lat="45.93492" lon="4.77152">
        <ele>169</ele>
        <time>2016-08-29T15:33:06Z</time>
      </trkpt>
      <trkpt lat="45.9349" lon="4.77144">
        <ele>169</ele>
        <time>2016-08-29T15:33:07Z</time>
      </trkpt>
      <trkpt lat="45.93488" lon="4.77135">
        <ele>169</ele>
        <time>2016-08-29T15:33:08Z</time>
      </trkpt>
      <trkpt lat="45.93487" lon="4.77127">
        <ele>169</ele>
        <time>2016-08-29T15:33:09Z</time>
      </trkpt>
      <trkpt lat="45.93485" lon="4.77119">
        <ele>169</ele>
        <time>2016-08-29T15:33:10Z</time>
      </trkpt>
      <trkpt lat="45.93484" lon="4.77112">
        <ele>169</ele>
        <time>2016-08-29T15:33:11Z</time>
      </trkpt>
      <trkpt lat="45.93482" lon="4.77104">
        <ele>169</ele>
        <time>2016-08-29T15:33:12Z</time>
      </trkpt>
      <trkpt lat="45.9348" lon="4.77098">
        <ele>169</ele>
        <time>2016-08-29T15:33:13Z</time>
      </trkpt>
      <trkpt lat="45.93479" lon="4.77091">
        <ele>169</ele>
        <time>2016-08-29T15:33:14Z</time>
      </trkpt>
      <trkpt lat="45.93478" lon="4.77083">
        <ele>170</ele>
        <time>2016-08-29T15:33:15Z</time>
      </trkpt>
      <trkpt lat="45.93477" lon="4.77076">
        <ele>170</ele>
        <time>2016-08-29T15:33:16Z</time>
      </trkpt>
      <trkpt lat="45.93476" lon="4.77069">
        <ele>170</ele>
        <time>2016-08-29T15:33:17Z</time>
      </trkpt>
      <trkpt lat="45.93474" lon="4.77061">
        <ele>170</ele>
        <time>2016-08-29T15:33:18Z</time>
      </trkpt>
      <trkpt lat="45.93473" lon="4.77053">
        <ele>170</ele>
        <time>2016-08-29T15:33:19Z</time>
      </trkpt>
      <trkpt lat="45.93472" lon="4.77045">
        <ele>170</ele>
        <time>2016-08-29T15:33:20Z</time>
      </trkpt>
      <trkpt lat="45.9347" lon="4.77036">
        <ele>170</ele>
        <time>2016-08-29T15:33:21Z</time>
      </trkpt>
      <trkpt lat="45.93468" lon="4.77027">
        <ele>170</ele>
        <time>2016-08-29T15:33:22Z</time>
      </trkpt>
      <trkpt lat="45.93467" lon="4.77019">
        <ele>170</ele>
        <time>2016-08-29T15:33:23Z</time>
      </trkpt>
      <trkpt lat="45.93466" lon="4.77011">
        <ele>170</ele>
        <time>2016-08-29T15:33:24Z</time>
      </trkpt>
      <trkpt lat="45.93464" lon="4.77003">
        <ele>170</ele>
        <time>2016-08-29T15:33:25Z</time>
      </trkpt>
      <trkpt lat="45.93464" lon="4.76995">
        <ele>170</ele>
        <time>2016-08-29T15:33:26Z</time>
      </trkpt>
      <trkpt lat="45.93463" lon="4.76987">
        <ele>170</ele>
        <time>2016-08-29T15:33:27Z</time>
      </trkpt>
      <trkpt lat="45.93463" lon="4.7698">
        <ele>170</ele>
        <time>2016-08-29T15:33:28Z</time>
      </trkpt>
      <trkpt lat="45.93462" lon="4.76972">
        <ele>170</ele>
        <time>2016-08-29T15:33:29Z</time>
      </trkpt>
      <trkpt lat="45.93461" lon="4.76965">
        <ele>170</ele>
        <time>2016-08-29T15:33:30Z</time>
      </trkpt>
      <trkpt lat="45.9346" lon="4.76958">
        <ele>170</ele>
        <time>2016-08-29T15:33:31Z</time>
      </trkpt>
      <trkpt lat="45.93458" lon="4.76951">
        <ele>170</ele>
        <time>2016-08-29T15:33:32Z</time>
      </trkpt>
      <trkpt lat="45.93457" lon="4.76943">
        <ele>170</ele>
        <time>2016-08-29T15:33:33Z</time>
      </trkpt>
      <trkpt lat="45.93456" lon="4.76935">
        <ele>170</ele>
        <time>2016-08-29T15:33:34Z</time>
      </trkpt>
      <trkpt lat="45.93454" lon="4.76927">
        <ele>170</ele>
        <time>2016-08-29T15:33:35Z</time>
      </trkpt>
      <trkpt lat="45.93452" lon="4.76918">
        <ele>170</ele>
        <time>2016-08-29T15:33:36Z</time>
      </trkpt>
      <trkpt lat="45.9345" lon="4.7691">
        <ele>170</ele>
        <time>2016-08-29T15:33:37Z</time>
      </trkpt>
      <trkpt lat="45.93448" lon="4.76902">
        <ele>170</ele>
        <time>2016-08-29T15:33:38Z</time>
      </trkpt>
      <trkpt lat="45.93446" lon="4.76895">
        <ele>170</ele>
        <time>2016-08-29T15:33:39Z</time>
      </trkpt>
      <trkpt lat="45.93444" lon="4.76887">
        <ele>170</ele>
        <time>2016-08-29T15:33:40Z</time>
      </trkpt>
      <trkpt lat="45.93442" lon="4.7688">
        <ele>170</ele>
        <time>2016-08-29T15:33:41Z</time>
      </trkpt>
      <trkpt lat="45.9344" lon="4.76873">
        <ele>171</ele>
        <time>2016-08-29T15:33:42Z</time>
      </trkpt>
      <trkpt lat="45.93437" lon="4.76866">
        <ele>171</ele>
        <time>2016-08-29T15:33:43Z</time>
      </trkpt>
      <trkpt lat="45.93434" lon="4.76859">
        <ele>171</ele>
        <time>2016-08-29T15:33:44Z</time>
      </trkpt>
      <trkpt lat="45.93431" lon="4.76853">
        <ele>171</ele>
        <time>2016-08-29T15:33:45Z</time>
      </trkpt>
      <trkpt lat="45.93428" lon="4.76846">
        <ele>171</ele>
        <time>2016-08-29T15:33:46Z</time>
      </trkpt>
      <trkpt lat="45.93425" lon="4.76839">
        <ele>171</ele>
        <time>2016-08-29T15:33:47Z</time>
      </trkpt>
      <trkpt lat="45.93421" lon="4.76833">
        <ele>172</ele>
        <time>2016-08-29T15:33:48Z</time>
      </trkpt>
      <trkpt lat="45.93418" lon="4.76826">
        <ele>172</ele>
        <time>2016-08-29T15:33:49Z</time>
      </trkpt>
      <trkpt lat="45.93414" lon="4.76819">
        <ele>172</ele>
        <time>2016-08-29T15:33:50Z</time>
      </trkpt>
      <trkpt lat="45.9341" lon="4.76812">
        <ele>172</ele>
        <time>2016-08-29T15:33:51Z</time>
      </trkpt>
      <trkpt lat="45.93405" lon="4.76806">
        <ele>172</ele>
        <time>2016-08-29T15:33:52Z</time>
      </trkpt>
      <trkpt lat="45.93401" lon="4.768">
        <ele>172</ele>
        <time>2016-08-29T15:33:53Z</time>
      </trkpt>
      <trkpt lat="45.93397" lon="4.76795">
        <ele>172</ele>
        <time>2016-08-29T15:33:54Z</time>
      </trkpt>
      <trkpt lat="45.93392" lon="4.7679">
        <ele>172</ele>
        <time>2016-08-29T15:33:55Z</time>
      </trkpt>
      <trkpt lat="45.93388" lon="4.76785">
        <ele>172</ele>
        <time>2016-08-29T15:33:56Z</time>
      </trkpt>
      <trkpt lat="45.93384" lon="4.7678">
        <ele>172</ele>
        <time>2016-08-29T15:33:57Z</time>
      </trkpt>
      <trkpt lat="45.9338" lon="4.76775">
        <ele>172</ele>
        <time>2016-08-29T15:33:58Z</time>
      </trkpt>
      <trkpt lat="45.93377" lon="4.76771">
        <ele>172</ele>
        <time>2016-08-29T15:33:59Z</time>
      </trkpt>
      <trkpt lat="45.93372" lon="4.76766">
        <ele>172</ele>
        <time>2016-08-29T15:34:00Z</time>
      </trkpt>
      <trkpt lat="45.93367" lon="4.76761">
        <ele>172</ele>
        <time>2016-08-29T15:34:01Z</time>
      </trkpt>
      <trkpt lat="45.93362" lon="4.76756">
        <ele>172</ele>
        <time>2016-08-29T15:34:02Z</time>
      </trkpt>
      <trkpt lat="45.93356" lon="4.76751">
        <ele>172</ele>
        <time>2016-08-29T15:34:03Z</time>
      </trkpt>
      <trkpt lat="45.93351" lon="4.76746">
        <ele>172</ele>
        <time>2016-08-29T15:34:04Z</time>
      </trkpt>
      <trkpt lat="45.93346" lon="4.76741">
        <ele>172</ele>
        <time>2016-08-29T15:34:05Z</time>
      </trkpt>
      <trkpt lat="45.93341" lon="4.76736">
        <ele>172</ele>
        <time>2016-08-29T15:34:06Z</time>
      </trkpt>
      <trkpt lat="45.93336" lon="4.76731">
        <ele>172</ele>
        <time>2016-08-29T15:34:07Z</time>
      </trkpt>
      <trkpt lat="45.93332" lon="4.76727">
        <ele>172</ele>
        <time>2016-08-29T15:34:08Z</time>
      </trkpt>
      <trkpt lat="45.93328" lon="4.76722">
        <ele>172</ele>
        <time>2016-08-29T15:34:09Z</time>
      </trkpt>
      <trkpt lat="45.93323" lon="4.76717">
        <ele>172</ele>
        <time>2016-08-29T15:34:10Z</time>
      </trkpt>
      <trkpt lat="45.93318" lon="4.76713">
        <ele>172</ele>
        <time>2016-08-29T15:34:11Z</time>
      </trkpt>
      <trkpt lat="45.93313" lon="4.76708">
        <ele>172</ele>
        <time>2016-08-29T15:34:12Z</time>
      </trkpt>
      <trkpt lat="45.93308" lon="4.76703">
        <ele>172</ele>
        <time>2016-08-29T15:34:13Z</time>
      </trkpt>
      <trkpt lat="45.93303" lon="4.76697">
        <ele>172</ele>
        <time>2016-08-29T15:34:14Z</time>
      </trkpt>
      <trkpt lat="45.93298" lon="4.76691">
        <ele>172</ele>
        <time>2016-08-29T15:34:15Z</time>
      </trkpt>
      <trkpt lat="45.93292" lon="4.76687">
        <ele>172</ele>
        <time>2016-08-29T15:34:16Z</time>
      </trkpt>
      <trkpt lat="45.93287" lon="4.76682">
        <ele>172</ele>
        <time>2016-08-29T15:34:17Z</time>
      </trkpt>
      <trkpt lat="45.93282" lon="4.76677">
        <ele>172</ele>
        <time>2016-08-29T15:34:18Z</time>
      </trkpt>
      <trkpt lat="45.93277" lon="4.76672">
        <ele>172</ele>
        <time>2016-08-29T15:34:19Z</time>
      </trkpt>
      <trkpt lat="45.93271" lon="4.76667">
        <ele>172</ele>
        <time>2016-08-29T15:34:20Z</time>
      </trkpt>
      <trkpt lat="45.93267" lon="4.76663">
        <ele>171</ele>
        <time>2016-08-29T15:34:21Z</time>
      </trkpt>
      <trkpt lat="45.93262" lon="4.76658">
        <ele>171</ele>
        <time>2016-08-29T15:34:22Z</time>
      </trkpt>
      <trkpt lat="45.93258" lon="4.76653">
        <ele>171</ele>
        <time>2016-08-29T15:34:23Z</time>
      </trkpt>
      <trkpt lat="45.93254" lon="4.76649">
        <ele>171</ele>
        <time>2016-08-29T15:34:24Z</time>
      </trkpt>
      <trkpt lat="45.93249" lon="4.76645">
        <ele>171</ele>
        <time>2016-08-29T15:34:25Z</time>
      </trkpt>
      <trkpt lat="45.93245" lon="4.76641">
        <ele>171</ele>
        <time>2016-08-29T15:34:26Z</time>
      </trkpt>
      <trkpt lat="45.9324" lon="4.76636">
        <ele>171</ele>
        <time>2016-08-29T15:34:27Z</time>
      </trkpt>
      <trkpt lat="45.93235" lon="4.76631">
        <ele>170</ele>
        <time>2016-08-29T15:34:28Z</time>
      </trkpt>
      <trkpt lat="45.93231" lon="4.76626">
        <ele>170</ele>
        <time>2016-08-29T15:34:29Z</time>
      </trkpt>
      <trkpt lat="45.93226" lon="4.76621">
        <ele>170</ele>
        <time>2016-08-29T15:34:30Z</time>
      </trkpt>
      <trkpt lat="45.93221" lon="4.76616">
        <ele>170</ele>
        <time>2016-08-29T15:34:31Z</time>
      </trkpt>
      <trkpt lat="45.93216" lon="4.76611">
        <ele>170</ele>
        <time>2016-08-29T15:34:32Z</time>
      </trkpt>
      <trkpt lat="45.93211" lon="4.76605">
        <ele>170</ele>
        <time>2016-08-29T15:34:33Z</time>
      </trkpt>
      <trkpt lat="45.93206" lon="4.766">
        <ele>170</ele>
        <time>2016-08-29T15:34:34Z</time>
      </trkpt>
      <trkpt lat="45.93201" lon="4.76595">
        <ele>170</ele>
        <time>2016-08-29T15:34:35Z</time>
      </trkpt>
      <trkpt lat="45.93196" lon="4.7659">
        <ele>170</ele>
        <time>2016-08-29T15:34:36Z</time>
      </trkpt>
      <trkpt lat="45.93191" lon="4.76586">
        <ele>170</ele>
        <time>2016-08-29T15:34:37Z</time>
      </trkpt>
      <trkpt lat="45.93186" lon="4.76581">
        <ele>170</ele>
        <time>2016-08-29T15:34:38Z</time>
      </trkpt>
      <trkpt lat="45.93181" lon="4.76577">
        <ele>170</ele>
        <time>2016-08-29T15:34:39Z</time>
      </trkpt>
      <trkpt lat="45.93176" lon="4.76572">
        <ele>170</ele>
        <time>2016-08-29T15:34:40Z</time>
      </trkpt>
      <trkpt lat="45.93171" lon="4.76567">
        <ele>170</ele>
        <time>2016-08-29T15:34:41Z</time>
      </trkpt>
      <trkpt lat="45.93166" lon="4.76562">
        <ele>170</ele>
        <time>2016-08-29T15:34:42Z</time>
      </trkpt>
      <trkpt lat="45.93162" lon="4.76557">
        <ele>170</ele>
        <time>2016-08-29T15:34:43Z</time>
      </trkpt>
      <trkpt lat="45.93158" lon="4.76551">
        <ele>170</ele>
        <time>2016-08-29T15:34:44Z</time>
      </trkpt>
      <trkpt lat="45.93153" lon="4.76546">
        <ele>170</ele>
        <time>2016-08-29T15:34:45Z</time>
      </trkpt>
      <trkpt lat="45.93149" lon="4.76543">
        <ele>170</ele>
        <time>2016-08-29T15:34:46Z</time>
      </trkpt>
      <trkpt lat="45.93144" lon="4.76539">
        <ele>170</ele>
        <time>2016-08-29T15:34:47Z</time>
      </trkpt>
      <trkpt lat="45.9314" lon="4.76535">
        <ele>170</ele>
        <time>2016-08-29T15:34:48Z</time>
      </trkpt>
      <trkpt lat="45.93136" lon="4.7653">
        <ele>170</ele>
        <time>2016-08-29T15:34:49Z</time>
      </trkpt>
      <trkpt lat="45.93131" lon="4.76526">
        <ele>170</ele>
        <time>2016-08-29T15:34:50Z</time>
      </trkpt>
      <trkpt lat="45.93127" lon="4.76521">
        <ele>170</ele>
        <time>2016-08-29T15:34:51Z</time>
      </trkpt>
      <trkpt lat="45.93122" lon="4.76517">
        <ele>170</ele>
        <time>2016-08-29T15:34:52Z</time>
      </trkpt>
      <trkpt lat="45.93116" lon="4.76512">
        <ele>170</ele>
        <time>2016-08-29T15:34:53Z</time>
      </trkpt>
      <trkpt lat="45.93111" lon="4.76507">
        <ele>170</ele>
        <time>2016-08-29T15:34:54Z</time>
      </trkpt>
      <trkpt lat="45.93106" lon="4.76503">
        <ele>170</ele>
        <time>2016-08-29T15:34:55Z</time>
      </trkpt>
      <trkpt lat="45.93101" lon="4.76498">
        <ele>170</ele>
        <time>2016-08-29T15:34:56Z</time>
      </trkpt>
      <trkpt lat="45.93097" lon="4.76494">
        <ele>170</ele>
        <time>2016-08-29T15:34:57Z</time>
      </trkpt>
      <trkpt lat="45.93092" lon="4.7649">
        <ele>170</ele>
        <time>2016-08-29T15:34:58Z</time>
      </trkpt>
      <trkpt lat="45.93087" lon="4.76486">
        <ele>170</ele>
        <time>2016-08-29T15:34:59Z</time>
      </trkpt>
      <trkpt lat="45.93083" lon="4.76481">
        <ele>169</ele>
        <time>2016-08-29T15:35:00Z</time>
      </trkpt>
      <trkpt lat="45.93078" lon="4.76476">
        <ele>169</ele>
        <time>2016-08-29T15:35:01Z</time>
      </trkpt>
      <trkpt lat="45.93074" lon="4.76472">
        <ele>169</ele>
        <time>2016-08-29T15:35:02Z</time>
      </trkpt>
      <trkpt lat="45.93069" lon="4.76467">
        <ele>169</ele>
        <time>2016-08-29T15:35:03Z</time>
      </trkpt>
      <trkpt lat="45.93065" lon="4.76463">
        <ele>169</ele>
        <time>2016-08-29T15:35:04Z</time>
      </trkpt>
      <trkpt lat="45.9306" lon="4.76458">
        <ele>169</ele>
        <time>2016-08-29T15:35:05Z</time>
      </trkpt>
      <trkpt lat="45.93055" lon="4.76454">
        <ele>169</ele>
        <time>2016-08-29T15:35:06Z</time>
      </trkpt>
      <trkpt lat="45.93051" lon="4.76449">
        <ele>169</ele>
        <time>2016-08-29T15:35:07Z</time>
      </trkpt>
      <trkpt lat="45.93046" lon="4.76444">
        <ele>169</ele>
        <time>2016-08-29T15:35:08Z</time>
      </trkpt>
      <trkpt lat="45.93041" lon="4.76439">
        <ele>169</ele>
        <time>2016-08-29T15:35:09Z</time>
      </trkpt>
      <trkpt lat="45.93036" lon="4.76435">
        <ele>169</ele>
        <time>2016-08-29T15:35:10Z</time>
      </trkpt>
      <trkpt lat="45.93031" lon="4.7643">
        <ele>169</ele>
        <time>2016-08-29T15:35:11Z</time>
      </trkpt>
      <trkpt lat="45.93026" lon="4.76425">
        <ele>169</ele>
        <time>2016-08-29T15:35:12Z</time>
      </trkpt>
      <trkpt lat="45.93022" lon="4.76421">
        <ele>169</ele>
        <time>2016-08-29T15:35:13Z</time>
      </trkpt>
      <trkpt lat="45.93018" lon="4.76416">
        <ele>169</ele>
        <time>2016-08-29T15:35:14Z</time>
      </trkpt>
      <trkpt lat="45.93014" lon="4.76412">
        <ele>169</ele>
        <time>2016-08-29T15:35:15Z</time>
      </trkpt>
      <trkpt lat="45.9301" lon="4.76408">
        <ele>169</ele>
        <time>2016-08-29T15:35:16Z</time>
      </trkpt>
      <trkpt lat="45.93005" lon="4.76404">
        <ele>169</ele>
        <time>2016-08-29T15:35:17Z</time>
      </trkpt>
      <trkpt lat="45.93" lon="4.76399">
        <ele>169</ele>
        <time>2016-08-29T15:35:18Z</time>
      </trkpt>
      <trkpt lat="45.92995" lon="4.76394">
        <ele>169</ele>
        <time>2016-08-29T15:35:19Z</time>
      </trkpt>
      <trkpt lat="45.9299" lon="4.76389">
        <ele>169</ele>
        <time>2016-08-29T15:35:20Z</time>
      </trkpt>
      <trkpt lat="45.92985" lon="4.76384">
        <ele>169</ele>
        <time>2016-08-29T15:35:21Z</time>
      </trkpt>
      <trkpt lat="45.9298" lon="4.7638">
        <ele>169</ele>
        <time>2016-08-29T15:35:22Z</time>
      </trkpt>
      <trkpt lat="45.92975" lon="4.76375">
        <ele>169</ele>
        <time>2016-08-29T15:35:23Z</time>
      </trkpt>
      <trkpt lat="45.92971" lon="4.76371">
        <ele>169</ele>
        <time>2016-08-29T15:35:24Z</time>
      </trkpt>
      <trkpt lat="45.92966" lon="4.76366">
        <ele>169</ele>
        <time>2016-08-29T15:35:25Z</time>
      </trkpt>
      <trkpt lat="45.92962" lon="4.76362">
        <ele>169</ele>
        <time>2016-08-29T15:35:26Z</time>
      </trkpt>
      <trkpt lat="45.92957" lon="4.76357">
        <ele>169</ele>
        <time>2016-08-29T15:35:27Z</time>
      </trkpt>
      <trkpt lat="45.92952" lon="4.76353">
        <ele>169</ele>
        <time>2016-08-29T15:35:28Z</time>
      </trkpt>
      <trkpt lat="45.92947" lon="4.76348">
        <ele>169</ele>
        <time>2016-08-29T15:35:29Z</time>
      </trkpt>
      <trkpt lat="45.92943" lon="4.76344">
        <ele>169</ele>
        <time>2016-08-29T15:35:30Z</time>
      </trkpt>
      <trkpt lat="45.92938" lon="4.7634">
        <ele>169</ele>
        <time>2016-08-29T15:35:31Z</time>
      </trkpt>
      <trkpt lat="45.92933" lon="4.76335">
        <ele>169</ele>
        <time>2016-08-29T15:35:32Z</time>
      </trkpt>
      <trkpt lat="45.92929" lon="4.7633">
        <ele>169</ele>
        <time>2016-08-29T15:35:33Z</time>
      </trkpt>
      <trkpt lat="45.92924" lon="4.76325">
        <ele>169</ele>
        <time>2016-08-29T15:35:34Z</time>
      </trkpt>
      <trkpt lat="45.92919" lon="4.7632">
        <ele>169</ele>
        <time>2016-08-29T15:35:35Z</time>
      </trkpt>
      <trkpt lat="45.92914" lon="4.76315">
        <ele>169</ele>
        <time>2016-08-29T15:35:36Z</time>
      </trkpt>
      <trkpt lat="45.92909" lon="4.76309">
        <ele>169</ele>
        <time>2016-08-29T15:35:37Z</time>
      </trkpt>
      <trkpt lat="45.92903" lon="4.76304">
        <ele>169</ele>
        <time>2016-08-29T15:35:38Z</time>
      </trkpt>
      <trkpt lat="45.92898" lon="4.76299">
        <ele>169</ele>
        <time>2016-08-29T15:35:39Z</time>
      </trkpt>
      <trkpt lat="45.92893" lon="4.76294">
        <ele>169</ele>
        <time>2016-08-29T15:35:40Z</time>
      </trkpt>
      <trkpt lat="45.92888" lon="4.76289">
        <ele>169</ele>
        <time>2016-08-29T15:35:41Z</time>
      </trkpt>
      <trkpt lat="45.92883" lon="4.76284">
        <ele>169</ele>
        <time>2016-08-29T15:35:42Z</time>
      </trkpt>
      <trkpt lat="45.92878" lon="4.76279">
        <ele>169</ele>
        <time>2016-08-29T15:35:43Z</time>
      </trkpt>
      <trkpt lat="45.92874" lon="4.76274">
        <ele>169</ele>
        <time>2016-08-29T15:35:44Z</time>
      </trkpt>
      <trkpt lat="45.92869" lon="4.7627">
        <ele>169</ele>
        <time>2016-08-29T15:35:45Z</time>
      </trkpt>
      <trkpt lat="45.92864" lon="4.76266">
        <ele>169</ele>
        <time>2016-08-29T15:35:46Z</time>
      </trkpt>
      <trkpt lat="45.9286" lon="4.76261">
        <ele>169</ele>
        <time>2016-08-29T15:35:47Z</time>
      </trkpt>
      <trkpt lat="45.92856" lon="4.76257">
        <ele>169</ele>
        <time>2016-08-29T15:35:48Z</time>
      </trkpt>
      <trkpt lat="45.92852" lon="4.76252">
        <ele>169</ele>
        <time>2016-08-29T15:35:49Z</time>
      </trkpt>
      <trkpt lat="45.92848" lon="4.76248">
        <ele>169</ele>
        <time>2016-08-29T15:35:50Z</time>
      </trkpt>
      <trkpt lat="45.92845" lon="4.76244">
        <ele>169</ele>
        <time>2016-08-29T15:35:51Z</time>
      </trkpt>
      <trkpt lat="45.9284" lon="4.7624">
        <ele>169</ele>
        <time>2016-08-29T15:35:52Z</time>
      </trkpt>
      <trkpt lat="45.92835" lon="4.76235">
        <ele>169</ele>
        <time>2016-08-29T15:35:53Z</time>
      </trkpt>
      <trkpt lat="45.9283" lon="4.7623">
        <ele>168</ele>
        <time>2016-08-29T15:35:54Z</time>
      </trkpt>
      <trkpt lat="45.92825" lon="4.76225">
        <ele>168</ele>
        <time>2016-08-29T15:35:55Z</time>
      </trkpt>
      <trkpt lat="45.9282" lon="4.7622">
        <ele>168</ele>
        <time>2016-08-29T15:35:56Z</time>
      </trkpt>
      <trkpt lat="45.92815" lon="4.76215">
        <ele>168</ele>
        <time>2016-08-29T15:35:57Z</time>
      </trkpt>
      <trkpt lat="45.92811" lon="4.76211">
        <ele>168</ele>
        <time>2016-08-29T15:35:58Z</time>
      </trkpt>
      <trkpt lat="45.92806" lon="4.76206">
        <ele>168</ele>
        <time>2016-08-29T15:35:59Z</time>
      </trkpt>
      <trkpt lat="45.92802" lon="4.76202">
        <ele>168</ele>
        <time>2016-08-29T15:36:00Z</time>
      </trkpt>
      <trkpt lat="45.92797" lon="4.76197">
        <ele>168</ele>
        <time>2016-08-29T15:36:01Z</time>
      </trkpt>
      <trkpt lat="45.92792" lon="4.76193">
        <ele>168</ele>
        <time>2016-08-29T15:36:02Z</time>
      </trkpt>
      <trkpt lat="45.92787" lon="4.76188">
        <ele>168</ele>
        <time>2016-08-29T15:36:03Z</time>
      </trkpt>
      <trkpt lat="45.92782" lon="4.76184">
        <ele>168</ele>
        <time>2016-08-29T15:36:04Z</time>
      </trkpt>
      <trkpt lat="45.92777" lon="4.76179">
        <ele>167</ele>
        <time>2016-08-29T15:36:05Z</time>
      </trkpt>
      <trkpt lat="45.92772" lon="4.76175">
        <ele>167</ele>
        <time>2016-08-29T15:36:06Z</time>
      </trkpt>
      <trkpt lat="45.92767" lon="4.7617">
        <ele>167</ele>
        <time>2016-08-29T15:36:07Z</time>
      </trkpt>
      <trkpt lat="45.92761" lon="4.76166">
        <ele>167</ele>
        <time>2016-08-29T15:36:08Z</time>
      </trkpt>
      <trkpt lat="45.92756" lon="4.76162">
        <ele>167</ele>
        <time>2016-08-29T15:36:09Z</time>
      </trkpt>
      <trkpt lat="45.92751" lon="4.76158">
        <ele>167</ele>
        <time>2016-08-29T15:36:10Z</time>
      </trkpt>
      <trkpt lat="45.92747" lon="4.76154">
        <ele>168</ele>
        <time>2016-08-29T15:36:11Z</time>
      </trkpt>
      <trkpt lat="45.92742" lon="4.7615">
        <ele>168</ele>
        <time>2016-08-29T15:36:12Z</time>
      </trkpt>
      <trkpt lat="45.92737" lon="4.76146">
        <ele>168</ele>
        <time>2016-08-29T15:36:13Z</time>
      </trkpt>
      <trkpt lat="45.92732" lon="4.76142">
        <ele>168</ele>
        <time>2016-08-29T15:36:14Z</time>
      </trkpt>
      <trkpt lat="45.92727" lon="4.76138">
        <ele>168</ele>
        <time>2016-08-29T15:36:15Z</time>
      </trkpt>
      <trkpt lat="45.92722" lon="4.76134">
        <ele>168</ele>
        <time>2016-08-29T15:36:16Z</time>
      </trkpt>
      <trkpt lat="45.92717" lon="4.7613">
        <ele>168</ele>
        <time>2016-08-29T15:36:17Z</time>
      </trkpt>
      <trkpt lat="45.92712" lon="4.76126">
        <ele>168</ele>
        <time>2016-08-29T15:36:18Z</time>
      </trkpt>
      <trkpt lat="45.92707" lon="4.76123">
        <ele>169</ele>
        <time>2016-08-29T15:36:19Z</time>
      </trkpt>
      <trkpt lat="45.92702" lon="4.7612">
        <ele>169</ele>
        <time>2016-08-29T15:36:20Z</time>
      </trkpt>
      <trkpt lat="45.92696" lon="4.76117">
        <ele>169</ele>
        <time>2016-08-29T15:36:21Z</time>
      </trkpt>
      <trkpt lat="45.92692" lon="4.76113">
        <ele>169</ele>
        <time>2016-08-29T15:36:22Z</time>
      </trkpt>
      <trkpt lat="45.92686" lon="4.76109">
        <ele>169</ele>
        <time>2016-08-29T15:36:23Z</time>
      </trkpt>
      <trkpt lat="45.92681" lon="4.76104">
        <ele>169</ele>
        <time>2016-08-29T15:36:24Z</time>
      </trkpt>
      <trkpt lat="45.92677" lon="4.76099">
        <ele>169</ele>
        <time>2016-08-29T15:36:25Z</time>
      </trkpt>
      <trkpt lat="45.92673" lon="4.76095">
        <ele>169</ele>
        <time>2016-08-29T15:36:26Z</time>
      </trkpt>
      <trkpt lat="45.92668" lon="4.76091">
        <ele>170</ele>
        <time>2016-08-29T15:36:27Z</time>
      </trkpt>
      <trkpt lat="45.92663" lon="4.76087">
        <ele>170</ele>
        <time>2016-08-29T15:36:28Z</time>
      </trkpt>
      <trkpt lat="45.92658" lon="4.76083">
        <ele>170</ele>
        <time>2016-08-29T15:36:29Z</time>
      </trkpt>
      <trkpt lat="45.92654" lon="4.7608">
        <ele>170</ele>
        <time>2016-08-29T15:36:30Z</time>
      </trkpt>
      <trkpt lat="45.92649" lon="4.76077">
        <ele>170</ele>
        <time>2016-08-29T15:36:31Z</time>
      </trkpt>
      <trkpt lat="45.92645" lon="4.76074">
        <ele>170</ele>
        <time>2016-08-29T15:36:32Z</time>
      </trkpt>
      <trkpt lat="45.9264" lon="4.76071">
        <ele>170</ele>
        <time>2016-08-29T15:36:33Z</time>
      </trkpt>
      <trkpt lat="45.92636" lon="4.76068">
        <ele>170</ele>
        <time>2016-08-29T15:36:34Z</time>
      </trkpt>
      <trkpt lat="45.92632" lon="4.76064">
        <ele>170</ele>
        <time>2016-08-29T15:36:35Z</time>
      </trkpt>
      <trkpt lat="45.92627" lon="4.7606">
        <ele>170</ele>
        <time>2016-08-29T15:36:36Z</time>
      </trkpt>
      <trkpt lat="45.92623" lon="4.76057">
        <ele>171</ele>
        <time>2016-08-29T15:36:37Z</time>
      </trkpt>
      <trkpt lat="45.92619" lon="4.76053">
        <ele>171</ele>
        <time>2016-08-29T15:36:38Z</time>
      </trkpt>
      <trkpt lat="45.92614" lon="4.76051">
        <ele>171</ele>
        <time>2016-08-29T15:36:39Z</time>
      </trkpt>
      <trkpt lat="45.9261" lon="4.76047">
        <ele>171</ele>
        <time>2016-08-29T15:36:40Z</time>
      </trkpt>
      <trkpt lat="45.92605" lon="4.76044">
        <ele>171</ele>
        <time>2016-08-29T15:36:41Z</time>
      </trkpt>
      <trkpt lat="45.926" lon="4.76041">
        <ele>171</ele>
        <time>2016-08-29T15:36:42Z</time>
      </trkpt>
      <trkpt lat="45.92596" lon="4.76039">
        <ele>171</ele>
        <time>2016-08-29T15:36:43Z</time>
      </trkpt>
      <trkpt lat="45.92591" lon="4.76036">
        <ele>171</ele>
        <time>2016-08-29T15:36:44Z</time>
      </trkpt>
      <trkpt lat="45.92587" lon="4.76033">
        <ele>171</ele>
        <time>2016-08-29T15:36:45Z</time>
      </trkpt>
      <trkpt lat="45.92582" lon="4.7603">
        <ele>172</ele>
        <time>2016-08-29T15:36:46Z</time>
      </trkpt>
      <trkpt lat="45.92575" lon="4.76025">
        <ele>172</ele>
        <time>2016-08-29T15:36:48Z</time>
      </trkpt>
      <trkpt lat="45.92571" lon="4.76022">
        <ele>172</ele>
        <time>2016-08-29T15:36:49Z</time>
      </trkpt>
      <trkpt lat="45.92564" lon="4.76016">
        <ele>172</ele>
        <time>2016-08-29T15:36:51Z</time>
      </trkpt>
      <trkpt lat="45.9256" lon="4.76013">
        <ele>172</ele>
        <time>2016-08-29T15:36:52Z</time>
      </trkpt>
      <trkpt lat="45.92555" lon="4.7601">
        <ele>172</ele>
        <time>2016-08-29T15:36:53Z</time>
      </trkpt>
      <trkpt lat="45.92551" lon="4.76007">
        <ele>172</ele>
        <time>2016-08-29T15:36:54Z</time>
      </trkpt>
      <trkpt lat="45.92547" lon="4.76004">
        <ele>172</ele>
        <time>2016-08-29T15:36:55Z</time>
      </trkpt>
      <trkpt lat="45.92543" lon="4.76001">
        <ele>172</ele>
        <time>2016-08-29T15:36:56Z</time>
      </trkpt>
      <trkpt lat="45.92535" lon="4.75996">
        <ele>172</ele>
        <time>2016-08-29T15:36:58Z</time>
      </trkpt>
      <trkpt lat="45.92531" lon="4.75993">
        <ele>172</ele>
        <time>2016-08-29T15:36:59Z</time>
      </trkpt>
      <trkpt lat="45.92524" lon="4.75987">
        <ele>172</ele>
        <time>2016-08-29T15:37:01Z</time>
      </trkpt>
      <trkpt lat="45.9252" lon="4.75983">
        <ele>172</ele>
        <time>2016-08-29T15:37:02Z</time>
      </trkpt>
      <trkpt lat="45.92515" lon="4.7598">
        <ele>172</ele>
        <time>2016-08-29T15:37:03Z</time>
      </trkpt>
      <trkpt lat="45.9251" lon="4.75977">
        <ele>172</ele>
        <time>2016-08-29T15:37:04Z</time>
      </trkpt>
      <trkpt lat="45.92505" lon="4.75974">
        <ele>172</ele>
        <time>2016-08-29T15:37:05Z</time>
      </trkpt>
      <trkpt lat="45.92501" lon="4.7597">
        <ele>172</ele>
        <time>2016-08-29T15:37:06Z</time>
      </trkpt>
      <trkpt lat="45.92496" lon="4.75967">
        <ele>172</ele>
        <time>2016-08-29T15:37:07Z</time>
      </trkpt>
      <trkpt lat="45.92491" lon="4.75963">
        <ele>172</ele>
        <time>2016-08-29T15:37:08Z</time>
      </trkpt>
      <trkpt lat="45.92486" lon="4.7596">
        <ele>172</ele>
        <time>2016-08-29T15:37:09Z</time>
      </trkpt>
      <trkpt lat="45.92481" lon="4.75957">
        <ele>172</ele>
        <time>2016-08-29T15:37:10Z</time>
      </trkpt>
      <trkpt lat="45.92477" lon="4.75953">
        <ele>172</ele>
        <time>2016-08-29T15:37:11Z</time>
      </trkpt>
      <trkpt lat="45.92472" lon="4.7595">
        <ele>172</ele>
        <time>2016-08-29T15:37:12Z</time>
      </trkpt>
      <trkpt lat="45.92467" lon="4.75946">
        <ele>172</ele>
        <time>2016-08-29T15:37:13Z</time>
      </trkpt>
      <trkpt lat="45.92462" lon="4.75943">
        <ele>172</ele>
        <time>2016-08-29T15:37:14Z</time>
      </trkpt>
      <trkpt lat="45.92456" lon="4.75939">
        <ele>172</ele>
        <time>2016-08-29T15:37:15Z</time>
      </trkpt>
      <trkpt lat="45.92451" lon="4.75936">
        <ele>172</ele>
        <time>2016-08-29T15:37:16Z</time>
      </trkpt>
      <trkpt lat="45.92445" lon="4.75932">
        <ele>172</ele>
        <time>2016-08-29T15:37:17Z</time>
      </trkpt>
      <trkpt lat="45.9244" lon="4.75929">
        <ele>172</ele>
        <time>2016-08-29T15:37:18Z</time>
      </trkpt>
      <trkpt lat="45.92434" lon="4.75925">
        <ele>172</ele>
        <time>2016-08-29T15:37:19Z</time>
      </trkpt>
      <trkpt lat="45.92428" lon="4.75921">
        <ele>172</ele>
        <time>2016-08-29T15:37:20Z</time>
      </trkpt>
      <trkpt lat="45.92422" lon="4.75916">
        <ele>172</ele>
        <time>2016-08-29T15:37:21Z</time>
      </trkpt>
      <trkpt lat="45.92417" lon="4.75912">
        <ele>172</ele>
        <time>2016-08-29T15:37:22Z</time>
      </trkpt>
      <trkpt lat="45.92411" lon="4.75907">
        <ele>172</ele>
        <time>2016-08-29T15:37:23Z</time>
      </trkpt>
      <trkpt lat="45.92405" lon="4.75903">
        <ele>173</ele>
        <time>2016-08-29T15:37:24Z</time>
      </trkpt>
      <trkpt lat="45.92399" lon="4.75899">
        <ele>173</ele>
        <time>2016-08-29T15:37:25Z</time>
      </trkpt>
      <trkpt lat="45.92392" lon="4.75894">
        <ele>173</ele>
        <time>2016-08-29T15:37:26Z</time>
      </trkpt>
      <trkpt lat="45.92386" lon="4.7589">
        <ele>173</ele>
        <time>2016-08-29T15:37:27Z</time>
      </trkpt>
      <trkpt lat="45.92381" lon="4.75886">
        <ele>173</ele>
        <time>2016-08-29T15:37:28Z</time>
      </trkpt>
      <trkpt lat="45.92375" lon="4.75881">
        <ele>173</ele>
        <time>2016-08-29T15:37:29Z</time>
      </trkpt>
      <trkpt lat="45.92369" lon="4.75877">
        <ele>173</ele>
        <time>2016-08-29T15:37:30Z</time>
      </trkpt>
      <trkpt lat="45.92363" lon="4.75874">
        <ele>173</ele>
        <time>2016-08-29T15:37:31Z</time>
      </trkpt>
      <trkpt lat="45.92358" lon="4.7587">
        <ele>173</ele>
        <time>2016-08-29T15:37:32Z</time>
      </trkpt>
      <trkpt lat="45.92352" lon="4.75866">
        <ele>173</ele>
        <time>2016-08-29T15:37:33Z</time>
      </trkpt>
      <trkpt lat="45.92346" lon="4.75863">
        <ele>173</ele>
        <time>2016-08-29T15:37:34Z</time>
      </trkpt>
      <trkpt lat="45.9234" lon="4.75859">
        <ele>173</ele>
        <time>2016-08-29T15:37:35Z</time>
      </trkpt>
      <trkpt lat="45.92335" lon="4.75856">
        <ele>173</ele>
        <time>2016-08-29T15:37:36Z</time>
      </trkpt>
      <trkpt lat="45.92329" lon="4.75852">
        <ele>174</ele>
        <time>2016-08-29T15:37:37Z</time>
      </trkpt>
      <trkpt lat="45.92323" lon="4.75849">
        <ele>174</ele>
        <time>2016-08-29T15:37:38Z</time>
      </trkpt>
      <trkpt lat="45.92318" lon="4.75846">
        <ele>174</ele>
        <time>2016-08-29T15:37:39Z</time>
      </trkpt>
      <trkpt lat="45.92312" lon="4.75842">
        <ele>174</ele>
        <time>2016-08-29T15:37:40Z</time>
      </trkpt>
      <trkpt lat="45.92306" lon="4.75838">
        <ele>173</ele>
        <time>2016-08-29T15:37:41Z</time>
      </trkpt>
      <trkpt lat="45.92301" lon="4.75835">
        <ele>173</ele>
        <time>2016-08-29T15:37:42Z</time>
      </trkpt>
      <trkpt lat="45.92295" lon="4.75832">
        <ele>174</ele>
        <time>2016-08-29T15:37:43Z</time>
      </trkpt>
      <trkpt lat="45.92289" lon="4.75828">
        <ele>174</ele>
        <time>2016-08-29T15:37:44Z</time>
      </trkpt>
      <trkpt lat="45.92283" lon="4.75824">
        <ele>174</ele>
        <time>2016-08-29T15:37:45Z</time>
      </trkpt>
      <trkpt lat="45.92278" lon="4.75819">
        <ele>174</ele>
        <time>2016-08-29T15:37:46Z</time>
      </trkpt>
      <trkpt lat="45.92272" lon="4.75814">
        <ele>174</ele>
        <time>2016-08-29T15:37:47Z</time>
      </trkpt>
      <trkpt lat="45.92268" lon="4.75809">
        <ele>174</ele>
        <time>2016-08-29T15:37:48Z</time>
      </trkpt>
      <trkpt lat="45.92265" lon="4.75803">
        <ele>174</ele>
        <time>2016-08-29T15:37:49Z</time>
      </trkpt>
      <trkpt lat="45.92262" lon="4.75796">
        <ele>174</ele>
        <time>2016-08-29T15:37:50Z</time>
      </trkpt>
      <trkpt lat="45.9226" lon="4.75789">
        <ele>174</ele>
        <time>2016-08-29T15:37:51Z</time>
      </trkpt>
      <trkpt lat="45.92259" lon="4.75782">
        <ele>174</ele>
        <time>2016-08-29T15:37:52Z</time>
      </trkpt>
      <trkpt lat="45.92257" lon="4.75774">
        <ele>174</ele>
        <time>2016-08-29T15:37:53Z</time>
      </trkpt>
      <trkpt lat="45.92255" lon="4.75767">
        <ele>174</ele>
        <time>2016-08-29T15:37:54Z</time>
      </trkpt>
      <trkpt lat="45.92254" lon="4.75758">
        <ele>174</ele>
        <time>2016-08-29T15:37:55Z</time>
      </trkpt>
      <trkpt lat="45.92253" lon="4.7575">
        <ele>174</ele>
        <time>2016-08-29T15:37:56Z</time>
      </trkpt>
      <trkpt lat="45.92251" lon="4.75742">
        <ele>174</ele>
        <time>2016-08-29T15:37:57Z</time>
      </trkpt>
      <trkpt lat="45.92249" lon="4.75734">
        <ele>174</ele>
        <time>2016-08-29T15:37:58Z</time>
      </trkpt>
      <trkpt lat="45.92247" lon="4.75727">
        <ele>174</ele>
        <time>2016-08-29T15:37:59Z</time>
      </trkpt>
      <trkpt lat="45.92244" lon="4.75719">
        <ele>174</ele>
        <time>2016-08-29T15:38:00Z</time>
      </trkpt>
      <trkpt lat="45.9224" lon="4.75712">
        <ele>174</ele>
        <time>2016-08-29T15:38:01Z</time>
      </trkpt>
      <trkpt lat="45.92237" lon="4.75706">
        <ele>174</ele>
        <time>2016-08-29T15:38:02Z</time>
      </trkpt>
      <trkpt lat="45.92233" lon="4.75699">
        <ele>174</ele>
        <time>2016-08-29T15:38:03Z</time>
      </trkpt>
      <trkpt lat="45.92229" lon="4.75694">
        <ele>174</ele>
        <time>2016-08-29T15:38:04Z</time>
      </trkpt>
      <trkpt lat="45.92224" lon="4.75689">
        <ele>174</ele>
        <time>2016-08-29T15:38:05Z</time>
      </trkpt>
      <trkpt lat="45.92219" lon="4.75684">
        <ele>174</ele>
        <time>2016-08-29T15:38:06Z</time>
      </trkpt>
      <trkpt lat="45.92215" lon="4.75679">
        <ele>174</ele>
        <time>2016-08-29T15:38:07Z</time>
      </trkpt>
      <trkpt lat="45.9221" lon="4.75674">
        <ele>174</ele>
        <time>2016-08-29T15:38:08Z</time>
      </trkpt>
      <trkpt lat="45.92206" lon="4.75669">
        <ele>174</ele>
        <time>2016-08-29T15:38:09Z</time>
      </trkpt>
      <trkpt lat="45.92201" lon="4.75665">
        <ele>174</ele>
        <time>2016-08-29T15:38:10Z</time>
      </trkpt>
      <trkpt lat="45.92196" lon="4.7566">
        <ele>174</ele>
        <time>2016-08-29T15:38:11Z</time>
      </trkpt>
      <trkpt lat="45.92191" lon="4.75655">
        <ele>174</ele>
        <time>2016-08-29T15:38:12Z</time>
      </trkpt>
      <trkpt lat="45.92186" lon="4.7565">
        <ele>174</ele>
        <time>2016-08-29T15:38:13Z</time>
      </trkpt>
      <trkpt lat="45.9218" lon="4.75645">
        <ele>174</ele>
        <time>2016-08-29T15:38:14Z</time>
      </trkpt>
      <trkpt lat="45.92175" lon="4.75639">
        <ele>174</ele>
        <time>2016-08-29T15:38:15Z</time>
      </trkpt>
      <trkpt lat="45.92169" lon="4.75634">
        <ele>174</ele>
        <time>2016-08-29T15:38:16Z</time>
      </trkpt>
      <trkpt lat="45.92164" lon="4.75628">
        <ele>174</ele>
        <time>2016-08-29T15:38:17Z</time>
      </trkpt>
      <trkpt lat="45.92159" lon="4.75623">
        <ele>174</ele>
        <time>2016-08-29T15:38:18Z</time>
      </trkpt>
      <trkpt lat="45.92154" lon="4.75618">
        <ele>174</ele>
        <time>2016-08-29T15:38:19Z</time>
      </trkpt>
      <trkpt lat="45.92149" lon="4.75613">
        <ele>174</ele>
        <time>2016-08-29T15:38:20Z</time>
      </trkpt>
      <trkpt lat="45.92144" lon="4.75608">
        <ele>174</ele>
        <time>2016-08-29T15:38:21Z</time>
      </trkpt>
      <trkpt lat="45.92139" lon="4.75602">
        <ele>174</ele>
        <time>2016-08-29T15:38:22Z</time>
      </trkpt>
      <trkpt lat="45.92135" lon="4.75598">
        <ele>174</ele>
        <time>2016-08-29T15:38:23Z</time>
      </trkpt>
      <trkpt lat="45.92131" lon="4.75593">
        <ele>174</ele>
        <time>2016-08-29T15:38:24Z</time>
      </trkpt>
      <trkpt lat="45.92127" lon="4.75587">
        <ele>174</ele>
        <time>2016-08-29T15:38:25Z</time>
      </trkpt>
      <trkpt lat="45.92123" lon="4.75583">
        <ele>174</ele>
        <time>2016-08-29T15:38:26Z</time>
      </trkpt>
      <trkpt lat="45.92118" lon="4.75575">
        <ele>174</ele>
        <time>2016-08-29T15:38:28Z</time>
      </trkpt>
      <trkpt lat="45.92118" lon="4.75571">
        <ele>174</ele>
        <time>2016-08-29T15:38:29Z</time>
      </trkpt>
      <trkpt lat="45.92119" lon="4.75561">
        <ele>174</ele>
        <time>2016-08-29T15:38:32Z</time>
      </trkpt>
      <trkpt lat="45.9212" lon="4.75558">
        <ele>174</ele>
        <time>2016-08-29T15:38:33Z</time>
      </trkpt>
      <trkpt lat="45.92125" lon="4.75548">
        <ele>174</ele>
        <time>2016-08-29T15:38:35Z</time>
      </trkpt>
      <trkpt lat="45.92128" lon="4.75543">
        <ele>174</ele>
        <time>2016-08-29T15:38:36Z</time>
      </trkpt>
      <trkpt lat="45.92131" lon="4.75539">
        <ele>174</ele>
        <time>2016-08-29T15:38:37Z</time>
      </trkpt>
      <trkpt lat="45.92134" lon="4.75533">
        <ele>174</ele>
        <time>2016-08-29T15:38:38Z</time>
      </trkpt>
      <trkpt lat="45.92137" lon="4.75527">
        <ele>174</ele>
        <time>2016-08-29T15:38:39Z</time>
      </trkpt>
      <trkpt lat="45.9214" lon="4.75521">
        <ele>174</ele>
        <time>2016-08-29T15:38:40Z</time>
      </trkpt>
      <trkpt lat="45.92143" lon="4.75515">
        <ele>174</ele>
        <time>2016-08-29T15:38:41Z</time>
      </trkpt>
      <trkpt lat="45.92146" lon="4.75509">
        <ele>175</ele>
        <time>2016-08-29T15:38:42Z</time>
      </trkpt>
      <trkpt lat="45.92148" lon="4.75502">
        <ele>175</ele>
        <time>2016-08-29T15:38:43Z</time>
      </trkpt>
      <trkpt lat="45.92151" lon="4.75495">
        <ele>175</ele>
        <time>2016-08-29T15:38:44Z</time>
      </trkpt>
      <trkpt lat="45.92154" lon="4.75488">
        <ele>176</ele>
        <time>2016-08-29T15:38:45Z</time>
      </trkpt>
      <trkpt lat="45.92156" lon="4.75482">
        <ele>176</ele>
        <time>2016-08-29T15:38:46Z</time>
      </trkpt>
      <trkpt lat="45.92159" lon="4.75475">
        <ele>176</ele>
        <time>2016-08-29T15:38:47Z</time>
      </trkpt>
      <trkpt lat="45.92161" lon="4.75469">
        <ele>176</ele>
        <time>2016-08-29T15:38:48Z</time>
      </trkpt>
      <trkpt lat="45.92164" lon="4.75462">
        <ele>176</ele>
        <time>2016-08-29T15:38:49Z</time>
      </trkpt>
      <trkpt lat="45.92166" lon="4.75455">
        <ele>176</ele>
        <time>2016-08-29T15:38:50Z</time>
      </trkpt>
      <trkpt lat="45.92169" lon="4.75448">
        <ele>176</ele>
        <time>2016-08-29T15:38:51Z</time>
      </trkpt>
      <trkpt lat="45.92172" lon="4.75442">
        <ele>177</ele>
        <time>2016-08-29T15:38:52Z</time>
      </trkpt>
      <trkpt lat="45.92174" lon="4.75435">
        <ele>177</ele>
        <time>2016-08-29T15:38:53Z</time>
      </trkpt>
      <trkpt lat="45.92177" lon="4.75428">
        <ele>177</ele>
        <time>2016-08-29T15:38:54Z</time>
      </trkpt>
      <trkpt lat="45.92179" lon="4.75421">
        <ele>177</ele>
        <time>2016-08-29T15:38:55Z</time>
      </trkpt>
      <trkpt lat="45.92182" lon="4.75415">
        <ele>177</ele>
        <time>2016-08-29T15:38:56Z</time>
      </trkpt>
      <trkpt lat="45.92185" lon="4.75407">
        <ele>177</ele>
        <time>2016-08-29T15:38:57Z</time>
      </trkpt>
      <trkpt lat="45.92188" lon="4.754">
        <ele>177</ele>
        <time>2016-08-29T15:38:58Z</time>
      </trkpt>
      <trkpt lat="45.9219" lon="4.75393">
        <ele>177</ele>
        <time>2016-08-29T15:38:59Z</time>
      </trkpt>
      <trkpt lat="45.92192" lon="4.75387">
        <ele>177</ele>
        <time>2016-08-29T15:39:00Z</time>
      </trkpt>
      <trkpt lat="45.92195" lon="4.7538">
        <ele>177</ele>
        <time>2016-08-29T15:39:01Z</time>
      </trkpt>
      <trkpt lat="45.92197" lon="4.75374">
        <ele>177</ele>
        <time>2016-08-29T15:39:02Z</time>
      </trkpt>
      <trkpt lat="45.92199" lon="4.75368">
        <ele>177</ele>
        <time>2016-08-29T15:39:03Z</time>
      </trkpt>
      <trkpt lat="45.922" lon="4.75362">
        <ele>177</ele>
        <time>2016-08-29T15:39:04Z</time>
      </trkpt>
      <trkpt lat="45.92202" lon="4.75355">
        <ele>177</ele>
        <time>2016-08-29T15:39:05Z</time>
      </trkpt>
      <trkpt lat="45.92204" lon="4.75349">
        <ele>177</ele>
        <time>2016-08-29T15:39:06Z</time>
      </trkpt>
      <trkpt lat="45.92205" lon="4.75342">
        <ele>177</ele>
        <time>2016-08-29T15:39:07Z</time>
      </trkpt>
      <trkpt lat="45.92207" lon="4.75335">
        <ele>177</ele>
        <time>2016-08-29T15:39:08Z</time>
      </trkpt>
      <trkpt lat="45.92209" lon="4.75326">
        <ele>176</ele>
        <time>2016-08-29T15:39:09Z</time>
      </trkpt>
      <trkpt lat="45.92211" lon="4.75318">
        <ele>176</ele>
        <time>2016-08-29T15:39:10Z</time>
      </trkpt>
      <trkpt lat="45.92212" lon="4.7531">
        <ele>176</ele>
        <time>2016-08-29T15:39:11Z</time>
      </trkpt>
      <trkpt lat="45.92213" lon="4.75301">
        <ele>176</ele>
        <time>2016-08-29T15:39:12Z</time>
      </trkpt>
      <trkpt lat="45.92213" lon="4.75293">
        <ele>176</ele>
        <time>2016-08-29T15:39:13Z</time>
      </trkpt>
      <trkpt lat="45.92214" lon="4.75285">
        <ele>176</ele>
        <time>2016-08-29T15:39:14Z</time>
      </trkpt>
      <trkpt lat="45.92214" lon="4.75277">
        <ele>176</ele>
        <time>2016-08-29T15:39:15Z</time>
      </trkpt>
      <trkpt lat="45.92215" lon="4.7527">
        <ele>176</ele>
        <time>2016-08-29T15:39:16Z</time>
      </trkpt>
      <trkpt lat="45.92215" lon="4.75261">
        <ele>176</ele>
        <time>2016-08-29T15:39:17Z</time>
      </trkpt>
      <trkpt lat="45.92215" lon="4.75254">
        <ele>175</ele>
        <time>2016-08-29T15:39:18Z</time>
      </trkpt>
      <trkpt lat="45.92215" lon="4.75245">
        <ele>175</ele>
        <time>2016-08-29T15:39:19Z</time>
      </trkpt>
      <trkpt lat="45.92216" lon="4.75236">
        <ele>175</ele>
        <time>2016-08-29T15:39:20Z</time>
      </trkpt>
      <trkpt lat="45.92216" lon="4.75226">
        <ele>175</ele>
        <time>2016-08-29T15:39:21Z</time>
      </trkpt>
      <trkpt lat="45.92218" lon="4.75217">
        <ele>175</ele>
        <time>2016-08-29T15:39:22Z</time>
      </trkpt>
      <trkpt lat="45.92219" lon="4.75208">
        <ele>175</ele>
        <time>2016-08-29T15:39:23Z</time>
      </trkpt>
      <trkpt lat="45.92221" lon="4.75199">
        <ele>175</ele>
        <time>2016-08-29T15:39:24Z</time>
      </trkpt>
      <trkpt lat="45.92224" lon="4.7519">
        <ele>175</ele>
        <time>2016-08-29T15:39:25Z</time>
      </trkpt>
      <trkpt lat="45.92226" lon="4.75181">
        <ele>175</ele>
        <time>2016-08-29T15:39:26Z</time>
      </trkpt>
      <trkpt lat="45.92229" lon="4.75171">
        <ele>175</ele>
        <time>2016-08-29T15:39:27Z</time>
      </trkpt>
      <trkpt lat="45.92232" lon="4.75163">
        <ele>174</ele>
        <time>2016-08-29T15:39:28Z</time>
      </trkpt>
      <trkpt lat="45.92236" lon="4.75155">
        <ele>174</ele>
        <time>2016-08-29T15:39:29Z</time>
      </trkpt>
      <trkpt lat="45.9224" lon="4.75148">
        <ele>174</ele>
        <time>2016-08-29T15:39:30Z</time>
      </trkpt>
      <trkpt lat="45.92244" lon="4.75141">
        <ele>174</ele>
        <time>2016-08-29T15:39:31Z</time>
      </trkpt>
      <trkpt lat="45.92248" lon="4.75134">
        <ele>174</ele>
        <time>2016-08-29T15:39:32Z</time>
      </trkpt>
      <trkpt lat="45.92253" lon="4.75128">
        <ele>174</ele>
        <time>2016-08-29T15:39:33Z</time>
      </trkpt>
      <trkpt lat="45.92258" lon="4.75122">
        <ele>174</ele>
        <time>2016-08-29T15:39:34Z</time>
      </trkpt>
      <trkpt lat="45.92263" lon="4.75117">
        <ele>174</ele>
        <time>2016-08-29T15:39:35Z</time>
      </trkpt>
      <trkpt lat="45.92269" lon="4.75111">
        <ele>174</ele>
        <time>2016-08-29T15:39:36Z</time>
      </trkpt>
      <trkpt lat="45.92274" lon="4.75105">
        <ele>174</ele>
        <time>2016-08-29T15:39:37Z</time>
      </trkpt>
      <trkpt lat="45.92279" lon="4.75099">
        <ele>173</ele>
        <time>2016-08-29T15:39:38Z</time>
      </trkpt>
      <trkpt lat="45.92285" lon="4.75093">
        <ele>173</ele>
        <time>2016-08-29T15:39:39Z</time>
      </trkpt>
      <trkpt lat="45.92289" lon="4.75088">
        <ele>173</ele>
        <time>2016-08-29T15:39:40Z</time>
      </trkpt>
      <trkpt lat="45.92295" lon="4.75082">
        <ele>172</ele>
        <time>2016-08-29T15:39:41Z</time>
      </trkpt>
      <trkpt lat="45.923" lon="4.75076">
        <ele>172</ele>
        <time>2016-08-29T15:39:42Z</time>
      </trkpt>
      <trkpt lat="45.92304" lon="4.75071">
        <ele>172</ele>
        <time>2016-08-29T15:39:43Z</time>
      </trkpt>
      <trkpt lat="45.92309" lon="4.75065">
        <ele>172</ele>
        <time>2016-08-29T15:39:44Z</time>
      </trkpt>
      <trkpt lat="45.92313" lon="4.75059">
        <ele>172</ele>
        <time>2016-08-29T15:39:45Z</time>
      </trkpt>
      <trkpt lat="45.92317" lon="4.75053">
        <ele>172</ele>
        <time>2016-08-29T15:39:46Z</time>
      </trkpt>
      <trkpt lat="45.92322" lon="4.75047">
        <ele>172</ele>
        <time>2016-08-29T15:39:47Z</time>
      </trkpt>
      <trkpt lat="45.92325" lon="4.75041">
        <ele>171</ele>
        <time>2016-08-29T15:39:48Z</time>
      </trkpt>
      <trkpt lat="45.92328" lon="4.75034">
        <ele>171</ele>
        <time>2016-08-29T15:39:49Z</time>
      </trkpt>
      <trkpt lat="45.92332" lon="4.75027">
        <ele>171</ele>
        <time>2016-08-29T15:39:50Z</time>
      </trkpt>
      <trkpt lat="45.92336" lon="4.75019">
        <ele>170</ele>
        <time>2016-08-29T15:39:51Z</time>
      </trkpt>
      <trkpt lat="45.92339" lon="4.75012">
        <ele>170</ele>
        <time>2016-08-29T15:39:52Z</time>
      </trkpt>
      <trkpt lat="45.92343" lon="4.75005">
        <ele>170</ele>
        <time>2016-08-29T15:39:53Z</time>
      </trkpt>
      <trkpt lat="45.92346" lon="4.74997">
        <ele>170</ele>
        <time>2016-08-29T15:39:54Z</time>
      </trkpt>
      <trkpt lat="45.92349" lon="4.7499">
        <ele>170</ele>
        <time>2016-08-29T15:39:55Z</time>
      </trkpt>
      <trkpt lat="45.92352" lon="4.74982">
        <ele>170</ele>
        <time>2016-08-29T15:39:56Z</time>
      </trkpt>
      <trkpt lat="45.92354" lon="4.74975">
        <ele>170</ele>
        <time>2016-08-29T15:39:57Z</time>
      </trkpt>
      <trkpt lat="45.92357" lon="4.74968">
        <ele>170</ele>
        <time>2016-08-29T15:39:58Z</time>
      </trkpt>
      <trkpt lat="45.9236" lon="4.74962">
        <ele>170</ele>
        <time>2016-08-29T15:39:59Z</time>
      </trkpt>
      <trkpt lat="45.92362" lon="4.74955">
        <ele>170</ele>
        <time>2016-08-29T15:40:00Z</time>
      </trkpt>
      <trkpt lat="45.92365" lon="4.74948">
        <ele>170</ele>
        <time>2016-08-29T15:40:01Z</time>
      </trkpt>
      <trkpt lat="45.92368" lon="4.74941">
        <ele>170</ele>
        <time>2016-08-29T15:40:02Z</time>
      </trkpt>
      <trkpt lat="45.9237" lon="4.74934">
        <ele>170</ele>
        <time>2016-08-29T15:40:03Z</time>
      </trkpt>
      <trkpt lat="45.92373" lon="4.74927">
        <ele>170</ele>
        <time>2016-08-29T15:40:04Z</time>
      </trkpt>
      <trkpt lat="45.92376" lon="4.74919">
        <ele>170</ele>
        <time>2016-08-29T15:40:05Z</time>
      </trkpt>
      <trkpt lat="45.92378" lon="4.74912">
        <ele>171</ele>
        <time>2016-08-29T15:40:06Z</time>
      </trkpt>
      <trkpt lat="45.92381" lon="4.74905">
        <ele>171</ele>
        <time>2016-08-29T15:40:07Z</time>
      </trkpt>
      <trkpt lat="45.92384" lon="4.74898">
        <ele>171</ele>
        <time>2016-08-29T15:40:08Z</time>
      </trkpt>
      <trkpt lat="45.92386" lon="4.74891">
        <ele>171</ele>
        <time>2016-08-29T15:40:09Z</time>
      </trkpt>
      <trkpt lat="45.92389" lon="4.74884">
        <ele>171</ele>
        <time>2016-08-29T15:40:10Z</time>
      </trkpt>
      <trkpt lat="45.92392" lon="4.74877">
        <ele>171</ele>
        <time>2016-08-29T15:40:11Z</time>
      </trkpt>
      <trkpt lat="45.92395" lon="4.74869">
        <ele>171</ele>
        <time>2016-08-29T15:40:12Z</time>
      </trkpt>
      <trkpt lat="45.92398" lon="4.74862">
        <ele>171</ele>
        <time>2016-08-29T15:40:13Z</time>
      </trkpt>
      <trkpt lat="45.924" lon="4.74854">
        <ele>171</ele>
        <time>2016-08-29T15:40:14Z</time>
      </trkpt>
      <trkpt lat="45.92403" lon="4.74847">
        <ele>171</ele>
        <time>2016-08-29T15:40:15Z</time>
      </trkpt>
      <trkpt lat="45.92405" lon="4.74839">
        <ele>171</ele>
        <time>2016-08-29T15:40:16Z</time>
      </trkpt>
      <trkpt lat="45.92405" lon="4.7483">
        <ele>171</ele>
        <time>2016-08-29T15:40:17Z</time>
      </trkpt>
      <trkpt lat="45.92406" lon="4.74823">
        <ele>171</ele>
        <time>2016-08-29T15:40:18Z</time>
      </trkpt>
      <trkpt lat="45.92408" lon="4.74816">
        <ele>171</ele>
        <time>2016-08-29T15:40:19Z</time>
      </trkpt>
      <trkpt lat="45.92409" lon="4.74808">
        <ele>171</ele>
        <time>2016-08-29T15:40:20Z</time>
      </trkpt>
      <trkpt lat="45.92411" lon="4.748">
        <ele>171</ele>
        <time>2016-08-29T15:40:21Z</time>
      </trkpt>
      <trkpt lat="45.92413" lon="4.74792">
        <ele>171</ele>
        <time>2016-08-29T15:40:22Z</time>
      </trkpt>
      <trkpt lat="45.92415" lon="4.74785">
        <ele>171</ele>
        <time>2016-08-29T15:40:23Z</time>
      </trkpt>
      <trkpt lat="45.92416" lon="4.74777">
        <ele>171</ele>
        <time>2016-08-29T15:40:24Z</time>
      </trkpt>
      <trkpt lat="45.92418" lon="4.7477">
        <ele>171</ele>
        <time>2016-08-29T15:40:25Z</time>
      </trkpt>
      <trkpt lat="45.9242" lon="4.74762">
        <ele>171</ele>
        <time>2016-08-29T15:40:26Z</time>
      </trkpt>
      <trkpt lat="45.92422" lon="4.74755">
        <ele>172</ele>
        <time>2016-08-29T15:40:27Z</time>
      </trkpt>
      <trkpt lat="45.92424" lon="4.74748">
        <ele>172</ele>
        <time>2016-08-29T15:40:28Z</time>
      </trkpt>
      <trkpt lat="45.92427" lon="4.74741">
        <ele>171</ele>
        <time>2016-08-29T15:40:29Z</time>
      </trkpt>
      <trkpt lat="45.92429" lon="4.74735">
        <ele>171</ele>
        <time>2016-08-29T15:40:30Z</time>
      </trkpt>
      <trkpt lat="45.92431" lon="4.74728">
        <ele>171</ele>
        <time>2016-08-29T15:40:31Z</time>
      </trkpt>
      <trkpt lat="45.92433" lon="4.74721">
        <ele>171</ele>
        <time>2016-08-29T15:40:32Z</time>
      </trkpt>
      <trkpt lat="45.92436" lon="4.74714">
        <ele>171</ele>
        <time>2016-08-29T15:40:33Z</time>
      </trkpt>
      <trkpt lat="45.92439" lon="4.74709">
        <ele>171</ele>
        <time>2016-08-29T15:40:34Z</time>
      </trkpt>
      <trkpt lat="45.92442" lon="4.74702">
        <ele>171</ele>
        <time>2016-08-29T15:40:35Z</time>
      </trkpt>
      <trkpt lat="45.92445" lon="4.74696">
        <ele>171</ele>
        <time>2016-08-29T15:40:36Z</time>
      </trkpt>
      <trkpt lat="45.92448" lon="4.74689">
        <ele>171</ele>
        <time>2016-08-29T15:40:37Z</time>
      </trkpt>
      <trkpt lat="45.92451" lon="4.74682">
        <ele>171</ele>
        <time>2016-08-29T15:40:38Z</time>
      </trkpt>
      <trkpt lat="45.92454" lon="4.74676">
        <ele>171</ele>
        <time>2016-08-29T15:40:39Z</time>
      </trkpt>
      <trkpt lat="45.92456" lon="4.7467">
        <ele>171</ele>
        <time>2016-08-29T15:40:40Z</time>
      </trkpt>
      <trkpt lat="45.92459" lon="4.74663">
        <ele>171</ele>
        <time>2016-08-29T15:40:41Z</time>
      </trkpt>
      <trkpt lat="45.92463" lon="4.74657">
        <ele>171</ele>
        <time>2016-08-29T15:40:42Z</time>
      </trkpt>
      <trkpt lat="45.92466" lon="4.74649">
        <ele>171</ele>
        <time>2016-08-29T15:40:43Z</time>
      </trkpt>
      <trkpt lat="45.9247" lon="4.74642">
        <ele>171</ele>
        <time>2016-08-29T15:40:44Z</time>
      </trkpt>
      <trkpt lat="45.92473" lon="4.74636">
        <ele>171</ele>
        <time>2016-08-29T15:40:45Z</time>
      </trkpt>
      <trkpt lat="45.92477" lon="4.74631">
        <ele>171</ele>
        <time>2016-08-29T15:40:46Z</time>
      </trkpt>
      <trkpt lat="45.9248" lon="4.74626">
        <ele>171</ele>
        <time>2016-08-29T15:40:47Z</time>
      </trkpt>
      <trkpt lat="45.92484" lon="4.74621">
        <ele>171</ele>
        <time>2016-08-29T15:40:48Z</time>
      </trkpt>
      <trkpt lat="45.92488" lon="4.74616">
        <ele>171</ele>
        <time>2016-08-29T15:40:49Z</time>
      </trkpt>
      <trkpt lat="45.92492" lon="4.74612">
        <ele>171</ele>
        <time>2016-08-29T15:40:50Z</time>
      </trkpt>
      <trkpt lat="45.92496" lon="4.74607">
        <ele>171</ele>
        <time>2016-08-29T15:40:51Z</time>
      </trkpt>
      <trkpt lat="45.925" lon="4.74602">
        <ele>171</ele>
        <time>2016-08-29T15:40:52Z</time>
      </trkpt>
      <trkpt lat="45.92505" lon="4.74597">
        <ele>171</ele>
        <time>2016-08-29T15:40:53Z</time>
      </trkpt>
      <trkpt lat="45.92509" lon="4.74593">
        <ele>171</ele>
        <time>2016-08-29T15:40:54Z</time>
      </trkpt>
      <trkpt lat="45.92513" lon="4.74588">
        <ele>171</ele>
        <time>2016-08-29T15:40:55Z</time>
      </trkpt>
      <trkpt lat="45.92517" lon="4.74583">
        <ele>171</ele>
        <time>2016-08-29T15:40:56Z</time>
      </trkpt>
      <trkpt lat="45.92522" lon="4.74577">
        <ele>171</ele>
        <time>2016-08-29T15:40:57Z</time>
      </trkpt>
      <trkpt lat="45.92526" lon="4.74572">
        <ele>171</ele>
        <time>2016-08-29T15:40:58Z</time>
      </trkpt>
      <trkpt lat="45.92531" lon="4.74567">
        <ele>171</ele>
        <time>2016-08-29T15:40:59Z</time>
      </trkpt>
      <trkpt lat="45.92535" lon="4.74562">
        <ele>171</ele>
        <time>2016-08-29T15:41:00Z</time>
      </trkpt>
      <trkpt lat="45.92539" lon="4.74556">
        <ele>171</ele>
        <time>2016-08-29T15:41:01Z</time>
      </trkpt>
      <trkpt lat="45.92542" lon="4.74551">
        <ele>170</ele>
        <time>2016-08-29T15:41:02Z</time>
      </trkpt>
      <trkpt lat="45.92546" lon="4.74545">
        <ele>170</ele>
        <time>2016-08-29T15:41:03Z</time>
      </trkpt>
      <trkpt lat="45.9255" lon="4.74539">
        <ele>170</ele>
        <time>2016-08-29T15:41:04Z</time>
      </trkpt>
      <trkpt lat="45.92553" lon="4.74532">
        <ele>170</ele>
        <time>2016-08-29T15:41:05Z</time>
      </trkpt>
      <trkpt lat="45.92557" lon="4.74526">
        <ele>170</ele>
        <time>2016-08-29T15:41:06Z</time>
      </trkpt>
      <trkpt lat="45.9256" lon="4.74521">
        <ele>170</ele>
        <time>2016-08-29T15:41:07Z</time>
      </trkpt>
      <trkpt lat="45.92563" lon="4.74514">
        <ele>170</ele>
        <time>2016-08-29T15:41:08Z</time>
      </trkpt>
      <trkpt lat="45.92567" lon="4.74508">
        <ele>170</ele>
        <time>2016-08-29T15:41:09Z</time>
      </trkpt>
      <trkpt lat="45.9257" lon="4.74502">
        <ele>170</ele>
        <time>2016-08-29T15:41:10Z</time>
      </trkpt>
      <trkpt lat="45.92573" lon="4.74496">
        <ele>170</ele>
        <time>2016-08-29T15:41:11Z</time>
      </trkpt>
      <trkpt lat="45.92577" lon="4.7449">
        <ele>170</ele>
        <time>2016-08-29T15:41:12Z</time>
      </trkpt>
      <trkpt lat="45.9258" lon="4.74484">
        <ele>170</ele>
        <time>2016-08-29T15:41:13Z</time>
      </trkpt>
      <trkpt lat="45.92583" lon="4.74478">
        <ele>170</ele>
        <time>2016-08-29T15:41:14Z</time>
      </trkpt>
      <trkpt lat="45.92587" lon="4.74472">
        <ele>170</ele>
        <time>2016-08-29T15:41:15Z</time>
      </trkpt>
      <trkpt lat="45.9259" lon="4.74466">
        <ele>170</ele>
        <time>2016-08-29T15:41:16Z</time>
      </trkpt>
      <trkpt lat="45.92593" lon="4.7446">
        <ele>170</ele>
        <time>2016-08-29T15:41:17Z</time>
      </trkpt>
      <trkpt lat="45.92596" lon="4.74455">
        <ele>170</ele>
        <time>2016-08-29T15:41:18Z</time>
      </trkpt>
      <trkpt lat="45.92599" lon="4.74449">
        <ele>170</ele>
        <time>2016-08-29T15:41:19Z</time>
      </trkpt>
      <trkpt lat="45.92602" lon="4.74444">
        <ele>170</ele>
        <time>2016-08-29T15:41:20Z</time>
      </trkpt>
      <trkpt lat="45.92605" lon="4.74439">
        <ele>170</ele>
        <time>2016-08-29T15:41:21Z</time>
      </trkpt>
      <trkpt lat="45.92608" lon="4.74434">
        <ele>170</ele>
        <time>2016-08-29T15:41:22Z</time>
      </trkpt>
      <trkpt lat="45.92611" lon="4.74428">
        <ele>170</ele>
        <time>2016-08-29T15:41:23Z</time>
      </trkpt>
      <trkpt lat="45.92613" lon="4.74422">
        <ele>170</ele>
        <time>2016-08-29T15:41:24Z</time>
      </trkpt>
      <trkpt lat="45.92616" lon="4.74416">
        <ele>170</ele>
        <time>2016-08-29T15:41:25Z</time>
      </trkpt>
      <trkpt lat="45.9262" lon="4.7441">
        <ele>170</ele>
        <time>2016-08-29T15:41:26Z</time>
      </trkpt>
      <trkpt lat="45.92623" lon="4.74404">
        <ele>170</ele>
        <time>2016-08-29T15:41:27Z</time>
      </trkpt>
      <trkpt lat="45.92627" lon="4.74397">
        <ele>170</ele>
        <time>2016-08-29T15:41:28Z</time>
      </trkpt>
      <trkpt lat="45.92631" lon="4.74391">
        <ele>170</ele>
        <time>2016-08-29T15:41:29Z</time>
      </trkpt>
      <trkpt lat="45.92634" lon="4.74385">
        <ele>170</ele>
        <time>2016-08-29T15:41:30Z</time>
      </trkpt>
      <trkpt lat="45.92638" lon="4.74379">
        <ele>170</ele>
        <time>2016-08-29T15:41:31Z</time>
      </trkpt>
      <trkpt lat="45.92641" lon="4.74372">
        <ele>171</ele>
        <time>2016-08-29T15:41:32Z</time>
      </trkpt>
      <trkpt lat="45.92645" lon="4.74365">
        <ele>171</ele>
        <time>2016-08-29T15:41:33Z</time>
      </trkpt>
      <trkpt lat="45.92648" lon="4.74359">
        <ele>171</ele>
        <time>2016-08-29T15:41:34Z</time>
      </trkpt>
      <trkpt lat="45.92653" lon="4.74349">
        <ele>171</ele>
        <time>2016-08-29T15:41:36Z</time>
      </trkpt>
      <trkpt lat="45.92655" lon="4.74344">
        <ele>171</ele>
        <time>2016-08-29T15:41:37Z</time>
      </trkpt>
      <trkpt lat="45.92659" lon="4.74338">
        <ele>171</ele>
        <time>2016-08-29T15:41:38Z</time>
      </trkpt>
      <trkpt lat="45.92662" lon="4.74333">
        <ele>171</ele>
        <time>2016-08-29T15:41:39Z</time>
      </trkpt>
      <trkpt lat="45.92665" lon="4.74327">
        <ele>171</ele>
        <time>2016-08-29T15:41:40Z</time>
      </trkpt>
      <trkpt lat="45.92668" lon="4.74321">
        <ele>171</ele>
        <time>2016-08-29T15:41:41Z</time>
      </trkpt>
      <trkpt lat="45.92671" lon="4.74316">
        <ele>171</ele>
        <time>2016-08-29T15:41:42Z</time>
      </trkpt>
      <trkpt lat="45.92674" lon="4.7431">
        <ele>171</ele>
        <time>2016-08-29T15:41:43Z</time>
      </trkpt>
      <trkpt lat="45.92677" lon="4.74305">
        <ele>171</ele>
        <time>2016-08-29T15:41:44Z</time>
      </trkpt>
      <trkpt lat="45.9268" lon="4.74299">
        <ele>171</ele>
        <time>2016-08-29T15:41:45Z</time>
      </trkpt>
      <trkpt lat="45.92683" lon="4.74293">
        <ele>171</ele>
        <time>2016-08-29T15:41:46Z</time>
      </trkpt>
      <trkpt lat="45.92686" lon="4.74287">
        <ele>171</ele>
        <time>2016-08-29T15:41:47Z</time>
      </trkpt>
      <trkpt lat="45.92689" lon="4.74282">
        <ele>171</ele>
        <time>2016-08-29T15:41:48Z</time>
      </trkpt>
      <trkpt lat="45.92693" lon="4.74276">
        <ele>171</ele>
        <time>2016-08-29T15:41:49Z</time>
      </trkpt>
      <trkpt lat="45.92696" lon="4.7427">
        <ele>171</ele>
        <time>2016-08-29T15:41:50Z</time>
      </trkpt>
      <trkpt lat="45.927" lon="4.74263">
        <ele>171</ele>
        <time>2016-08-29T15:41:51Z</time>
      </trkpt>
      <trkpt lat="45.92703" lon="4.74257">
        <ele>171</ele>
        <time>2016-08-29T15:41:52Z</time>
      </trkpt>
      <trkpt lat="45.92707" lon="4.74251">
        <ele>171</ele>
        <time>2016-08-29T15:41:53Z</time>
      </trkpt>
      <trkpt lat="45.92711" lon="4.74246">
        <ele>171</ele>
        <time>2016-08-29T15:41:54Z</time>
      </trkpt>
      <trkpt lat="45.92714" lon="4.7424">
        <ele>171</ele>
        <time>2016-08-29T15:41:55Z</time>
      </trkpt>
      <trkpt lat="45.92718" lon="4.74235">
        <ele>171</ele>
        <time>2016-08-29T15:41:56Z</time>
      </trkpt>
      <trkpt lat="45.92721" lon="4.74229">
        <ele>171</ele>
        <time>2016-08-29T15:41:57Z</time>
      </trkpt>
      <trkpt lat="45.92725" lon="4.74224">
        <ele>171</ele>
        <time>2016-08-29T15:41:58Z</time>
      </trkpt>
      <trkpt lat="45.92729" lon="4.74218">
        <ele>171</ele>
        <time>2016-08-29T15:41:59Z</time>
      </trkpt>
      <trkpt lat="45.92732" lon="4.74212">
        <ele>171</ele>
        <time>2016-08-29T15:42:00Z</time>
      </trkpt>
      <trkpt lat="45.92737" lon="4.74207">
        <ele>171</ele>
        <time>2016-08-29T15:42:01Z</time>
      </trkpt>
      <trkpt lat="45.9274" lon="4.74202">
        <ele>171</ele>
        <time>2016-08-29T15:42:02Z</time>
      </trkpt>
      <trkpt lat="45.92744" lon="4.74197">
        <ele>171</ele>
        <time>2016-08-29T15:42:03Z</time>
      </trkpt>
      <trkpt lat="45.92749" lon="4.74192">
        <ele>172</ele>
        <time>2016-08-29T15:42:04Z</time>
      </trkpt>
      <trkpt lat="45.92753" lon="4.74187">
        <ele>172</ele>
        <time>2016-08-29T15:42:05Z</time>
      </trkpt>
      <trkpt lat="45.92757" lon="4.74181">
        <ele>172</ele>
        <time>2016-08-29T15:42:06Z</time>
      </trkpt>
      <trkpt lat="45.92762" lon="4.74175">
        <ele>172</ele>
        <time>2016-08-29T15:42:07Z</time>
      </trkpt>
      <trkpt lat="45.92767" lon="4.7417">
        <ele>172</ele>
        <time>2016-08-29T15:42:08Z</time>
      </trkpt>
      <trkpt lat="45.92772" lon="4.74165">
        <ele>172</ele>
        <time>2016-08-29T15:42:09Z</time>
      </trkpt>
      <trkpt lat="45.92777" lon="4.7416">
        <ele>172</ele>
        <time>2016-08-29T15:42:10Z</time>
      </trkpt>
      <trkpt lat="45.92782" lon="4.74155">
        <ele>172</ele>
        <time>2016-08-29T15:42:11Z</time>
      </trkpt>
      <trkpt lat="45.92787" lon="4.7415">
        <ele>172</ele>
        <time>2016-08-29T15:42:12Z</time>
      </trkpt>
      <trkpt lat="45.92792" lon="4.74145">
        <ele>172</ele>
        <time>2016-08-29T15:42:13Z</time>
      </trkpt>
      <trkpt lat="45.92796" lon="4.7414">
        <ele>172</ele>
        <time>2016-08-29T15:42:14Z</time>
      </trkpt>
      <trkpt lat="45.928" lon="4.74135">
        <ele>172</ele>
        <time>2016-08-29T15:42:15Z</time>
      </trkpt>
      <trkpt lat="45.92805" lon="4.74131">
        <ele>172</ele>
        <time>2016-08-29T15:42:16Z</time>
      </trkpt>
      <trkpt lat="45.92809" lon="4.74127">
        <ele>172</ele>
        <time>2016-08-29T15:42:17Z</time>
      </trkpt>
      <trkpt lat="45.92813" lon="4.74122">
        <ele>172</ele>
        <time>2016-08-29T15:42:18Z</time>
      </trkpt>
      <trkpt lat="45.92817" lon="4.74118">
        <ele>172</ele>
        <time>2016-08-29T15:42:19Z</time>
      </trkpt>
      <trkpt lat="45.92821" lon="4.74114">
        <ele>172</ele>
        <time>2016-08-29T15:42:20Z</time>
      </trkpt>
      <trkpt lat="45.92825" lon="4.74109">
        <ele>171</ele>
        <time>2016-08-29T15:42:21Z</time>
      </trkpt>
      <trkpt lat="45.92829" lon="4.74105">
        <ele>171</ele>
        <time>2016-08-29T15:42:22Z</time>
      </trkpt>
      <trkpt lat="45.92833" lon="4.741">
        <ele>171</ele>
        <time>2016-08-29T15:42:23Z</time>
      </trkpt>
      <trkpt lat="45.92837" lon="4.74096">
        <ele>171</ele>
        <time>2016-08-29T15:42:24Z</time>
      </trkpt>
      <trkpt lat="45.92841" lon="4.74091">
        <ele>171</ele>
        <time>2016-08-29T15:42:25Z</time>
      </trkpt>
      <trkpt lat="45.92844" lon="4.74086">
        <ele>171</ele>
        <time>2016-08-29T15:42:26Z</time>
      </trkpt>
      <trkpt lat="45.92848" lon="4.74081">
        <ele>172</ele>
        <time>2016-08-29T15:42:27Z</time>
      </trkpt>
      <trkpt lat="45.92852" lon="4.74076">
        <ele>172</ele>
        <time>2016-08-29T15:42:28Z</time>
      </trkpt>
      <trkpt lat="45.92856" lon="4.74071">
        <ele>172</ele>
        <time>2016-08-29T15:42:29Z</time>
      </trkpt>
      <trkpt lat="45.9286" lon="4.74066">
        <ele>172</ele>
        <time>2016-08-29T15:42:30Z</time>
      </trkpt>
      <trkpt lat="45.92865" lon="4.74061">
        <ele>172</ele>
        <time>2016-08-29T15:42:31Z</time>
      </trkpt>
      <trkpt lat="45.92868" lon="4.74056">
        <ele>172</ele>
        <time>2016-08-29T15:42:32Z</time>
      </trkpt>
      <trkpt lat="45.92872" lon="4.74052">
        <ele>172</ele>
        <time>2016-08-29T15:42:33Z</time>
      </trkpt>
      <trkpt lat="45.92877" lon="4.74048">
        <ele>172</ele>
        <time>2016-08-29T15:42:34Z</time>
      </trkpt>
      <trkpt lat="45.92881" lon="4.74046">
        <ele>172</ele>
        <time>2016-08-29T15:42:35Z</time>
      </trkpt>
      <trkpt lat="45.92885" lon="4.74044">
        <ele>172</ele>
        <time>2016-08-29T15:42:36Z</time>
      </trkpt>
      <trkpt lat="45.9289" lon="4.74043">
        <ele>172</ele>
        <time>2016-08-29T15:42:37Z</time>
      </trkpt>
      <trkpt lat="45.92895" lon="4.74043">
        <ele>172</ele>
        <time>2016-08-29T15:42:38Z</time>
      </trkpt>
      <trkpt lat="45.929" lon="4.74044">
        <ele>172</ele>
        <time>2016-08-29T15:42:39Z</time>
      </trkpt>
      <trkpt lat="45.92905" lon="4.74043">
        <ele>172</ele>
        <time>2016-08-29T15:42:40Z</time>
      </trkpt>
      <trkpt lat="45.92909" lon="4.74041">
        <ele>172</ele>
        <time>2016-08-29T15:42:41Z</time>
      </trkpt>
      <trkpt lat="45.92913" lon="4.74037">
        <ele>172</ele>
        <time>2016-08-29T15:42:42Z</time>
      </trkpt>
      <trkpt lat="45.92917" lon="4.74033">
        <ele>172</ele>
        <time>2016-08-29T15:42:43Z</time>
      </trkpt>
      <trkpt lat="45.92919" lon="4.74027">
        <ele>172</ele>
        <time>2016-08-29T15:42:44Z</time>
      </trkpt>
      <trkpt lat="45.92921" lon="4.7402">
        <ele>172</ele>
        <time>2016-08-29T15:42:45Z</time>
      </trkpt>
      <trkpt lat="45.92921" lon="4.74013">
        <ele>172</ele>
        <time>2016-08-29T15:42:46Z</time>
      </trkpt>
      <trkpt lat="45.92921" lon="4.74005">
        <ele>172</ele>
        <time>2016-08-29T15:42:47Z</time>
      </trkpt>
      <trkpt lat="45.92918" lon="4.73998">
        <ele>172</ele>
        <time>2016-08-29T15:42:48Z</time>
      </trkpt>
      <trkpt lat="45.92914" lon="4.73992">
        <ele>172</ele>
        <time>2016-08-29T15:42:49Z</time>
      </trkpt>
      <trkpt lat="45.92909" lon="4.73986">
        <ele>172</ele>
        <time>2016-08-29T15:42:50Z</time>
      </trkpt>
      <trkpt lat="45.92904" lon="4.73982">
        <ele>172</ele>
        <time>2016-08-29T15:42:51Z</time>
      </trkpt>
      <trkpt lat="45.92899" lon="4.73977">
        <ele>172</ele>
        <time>2016-08-29T15:42:52Z</time>
      </trkpt>
      <trkpt lat="45.92895" lon="4.73971">
        <ele>172</ele>
        <time>2016-08-29T15:42:53Z</time>
      </trkpt>
      <trkpt lat="45.92892" lon="4.73965">
        <ele>172</ele>
        <time>2016-08-29T15:42:54Z</time>
      </trkpt>
      <trkpt lat="45.9289" lon="4.73957">
        <ele>172</ele>
        <time>2016-08-29T15:42:55Z</time>
      </trkpt>
      <trkpt lat="45.9289" lon="4.73948">
        <ele>172</ele>
        <time>2016-08-29T15:42:56Z</time>
      </trkpt>
      <trkpt lat="45.92889" lon="4.7394">
        <ele>172</ele>
        <time>2016-08-29T15:42:57Z</time>
      </trkpt>
      <trkpt lat="45.92889" lon="4.73931">
        <ele>172</ele>
        <time>2016-08-29T15:42:58Z</time>
      </trkpt>
      <trkpt lat="45.92889" lon="4.73922">
        <ele>172</ele>
        <time>2016-08-29T15:42:59Z</time>
      </trkpt>
      <trkpt lat="45.92888" lon="4.73914">
        <ele>173</ele>
        <time>2016-08-29T15:43:00Z</time>
      </trkpt>
      <trkpt lat="45.92887" lon="4.73906">
        <ele>173</ele>
        <time>2016-08-29T15:43:01Z</time>
      </trkpt>
      <trkpt lat="45.92885" lon="4.73897">
        <ele>173</ele>
        <time>2016-08-29T15:43:02Z</time>
      </trkpt>
      <trkpt lat="45.92883" lon="4.73889">
        <ele>173</ele>
        <time>2016-08-29T15:43:03Z</time>
      </trkpt>
      <trkpt lat="45.92881" lon="4.7388">
        <ele>173</ele>
        <time>2016-08-29T15:43:04Z</time>
      </trkpt>
      <trkpt lat="45.92876" lon="4.73873">
        <ele>173</ele>
        <time>2016-08-29T15:43:05Z</time>
      </trkpt>
      <trkpt lat="45.92874" lon="4.73865">
        <ele>173</ele>
        <time>2016-08-29T15:43:06Z</time>
      </trkpt>
      <trkpt lat="45.92872" lon="4.73855">
        <ele>173</ele>
        <time>2016-08-29T15:43:07Z</time>
      </trkpt>
      <trkpt lat="45.92869" lon="4.73842">
        <ele>173</ele>
        <time>2016-08-29T15:43:08Z</time>
      </trkpt>
      <trkpt lat="45.92871" lon="4.73836">
        <ele>173</ele>
        <time>2016-08-29T15:43:09Z</time>
      </trkpt>
      <trkpt lat="45.92869" lon="4.73828">
        <ele>173</ele>
        <time>2016-08-29T15:43:10Z</time>
      </trkpt>
      <trkpt lat="45.92867" lon="4.73822">
        <ele>173</ele>
        <time>2016-08-29T15:43:11Z</time>
      </trkpt>
      <trkpt lat="45.92865" lon="4.73817">
        <ele>173</ele>
        <time>2016-08-29T15:43:12Z</time>
      </trkpt>
      <trkpt lat="45.92862" lon="4.73811">
        <ele>173</ele>
        <time>2016-08-29T15:43:13Z</time>
      </trkpt>
      <trkpt lat="45.9286" lon="4.73804">
        <ele>173</ele>
        <time>2016-08-29T15:43:14Z</time>
      </trkpt>
      <trkpt lat="45.92857" lon="4.73799">
        <ele>173</ele>
        <time>2016-08-29T15:43:15Z</time>
      </trkpt>
      <trkpt lat="45.92853" lon="4.73794">
        <ele>173</ele>
        <time>2016-08-29T15:43:16Z</time>
      </trkpt>
      <trkpt lat="45.92848" lon="4.73789">
        <ele>173</ele>
        <time>2016-08-29T15:43:17Z</time>
      </trkpt>
      <trkpt lat="45.92844" lon="4.73785">
        <ele>173</ele>
        <time>2016-08-29T15:43:18Z</time>
      </trkpt>
      <trkpt lat="45.92839" lon="4.73781">
        <ele>173</ele>
        <time>2016-08-29T15:43:19Z</time>
      </trkpt>
      <trkpt lat="45.92834" lon="4.73777">
        <ele>172</ele>
        <time>2016-08-29T15:43:20Z</time>
      </trkpt>
      <trkpt lat="45.9283" lon="4.73774">
        <ele>173</ele>
        <time>2016-08-29T15:43:21Z</time>
      </trkpt>
      <trkpt lat="45.92825" lon="4.7377">
        <ele>173</ele>
        <time>2016-08-29T15:43:22Z</time>
      </trkpt>
      <trkpt lat="45.9282" lon="4.73768">
        <ele>173</ele>
        <time>2016-08-29T15:43:23Z</time>
      </trkpt>
      <trkpt lat="45.92815" lon="4.73766">
        <ele>173</ele>
        <time>2016-08-29T15:43:24Z</time>
      </trkpt>
      <trkpt lat="45.92811" lon="4.73763">
        <ele>173</ele>
        <time>2016-08-29T15:43:25Z</time>
      </trkpt>
      <trkpt lat="45.92807" lon="4.7376">
        <ele>173</ele>
        <time>2016-08-29T15:43:26Z</time>
      </trkpt>
      <trkpt lat="45.92799" lon="4.73755">
        <ele>173</ele>
        <time>2016-08-29T15:43:28Z</time>
      </trkpt>
      <trkpt lat="45.92796" lon="4.73753">
        <ele>173</ele>
        <time>2016-08-29T15:43:29Z</time>
      </trkpt>
      <trkpt lat="45.92788" lon="4.73748">
        <ele>172</ele>
        <time>2016-08-29T15:43:31Z</time>
      </trkpt>
      <trkpt lat="45.92785" lon="4.73745">
        <ele>172</ele>
        <time>2016-08-29T15:43:32Z</time>
      </trkpt>
      <trkpt lat="45.92782" lon="4.7374">
        <ele>172</ele>
        <time>2016-08-29T15:43:33Z</time>
      </trkpt>
      <trkpt lat="45.92778" lon="4.73735">
        <ele>172</ele>
        <time>2016-08-29T15:43:34Z</time>
      </trkpt>
      <trkpt lat="45.92771" lon="4.73727">
        <ele>172</ele>
        <time>2016-08-29T15:43:36Z</time>
      </trkpt>
      <trkpt lat="45.92767" lon="4.73726">
        <ele>172</ele>
        <time>2016-08-29T15:43:37Z</time>
      </trkpt>
      <trkpt lat="45.92761" lon="4.73724">
        <ele>172</ele>
        <time>2016-08-29T15:43:38Z</time>
      </trkpt>
      <trkpt lat="45.92757" lon="4.73723">
        <ele>172</ele>
        <time>2016-08-29T15:43:39Z</time>
      </trkpt>
      <trkpt lat="45.92751" lon="4.73722">
        <ele>172</ele>
        <time>2016-08-29T15:43:40Z</time>
      </trkpt>
      <trkpt lat="45.92746" lon="4.73721">
        <ele>173</ele>
        <time>2016-08-29T15:43:41Z</time>
      </trkpt>
      <trkpt lat="45.92741" lon="4.73719">
        <ele>173</ele>
        <time>2016-08-29T15:43:42Z</time>
      </trkpt>
      <trkpt lat="45.92736" lon="4.73719">
        <ele>173</ele>
        <time>2016-08-29T15:43:43Z</time>
      </trkpt>
      <trkpt lat="45.92731" lon="4.73718">
        <ele>173</ele>
        <time>2016-08-29T15:43:44Z</time>
      </trkpt>
      <trkpt lat="45.92727" lon="4.73716">
        <ele>173</ele>
        <time>2016-08-29T15:43:45Z</time>
      </trkpt>
      <trkpt lat="45.92718" lon="4.73714">
        <ele>173</ele>
        <time>2016-08-29T15:43:47Z</time>
      </trkpt>
      <trkpt lat="45.92713" lon="4.73713">
        <ele>173</ele>
        <time>2016-08-29T15:43:48Z</time>
      </trkpt>
      <trkpt lat="45.92709" lon="4.73712">
        <ele>173</ele>
        <time>2016-08-29T15:43:49Z</time>
      </trkpt>
      <trkpt lat="45.92704" lon="4.7371">
        <ele>173</ele>
        <time>2016-08-29T15:43:50Z</time>
      </trkpt>
      <trkpt lat="45.92698" lon="4.73709">
        <ele>173</ele>
        <time>2016-08-29T15:43:51Z</time>
      </trkpt>
      <trkpt lat="45.92692" lon="4.73708">
        <ele>173</ele>
        <time>2016-08-29T15:43:52Z</time>
      </trkpt>
      <trkpt lat="45.92686" lon="4.73706">
        <ele>173</ele>
        <time>2016-08-29T15:43:53Z</time>
      </trkpt>
      <trkpt lat="45.92681" lon="4.73705">
        <ele>173</ele>
        <time>2016-08-29T15:43:54Z</time>
      </trkpt>
      <trkpt lat="45.92676" lon="4.73703">
        <ele>174</ele>
        <time>2016-08-29T15:43:55Z</time>
      </trkpt>
      <trkpt lat="45.9267" lon="4.73701">
        <ele>174</ele>
        <time>2016-08-29T15:43:56Z</time>
      </trkpt>
      <trkpt lat="45.92666" lon="4.73697">
        <ele>173</ele>
        <time>2016-08-29T15:43:57Z</time>
      </trkpt>
      <trkpt lat="45.92662" lon="4.73692">
        <ele>173</ele>
        <time>2016-08-29T15:43:58Z</time>
      </trkpt>
      <trkpt lat="45.92657" lon="4.73689">
        <ele>173</ele>
        <time>2016-08-29T15:43:59Z</time>
      </trkpt>
      <trkpt lat="45.92653" lon="4.73685">
        <ele>173</ele>
        <time>2016-08-29T15:44:00Z</time>
      </trkpt>
      <trkpt lat="45.92647" lon="4.73678">
        <ele>173</ele>
        <time>2016-08-29T15:44:02Z</time>
      </trkpt>
      <trkpt lat="45.92643" lon="4.73673">
        <ele>173</ele>
        <time>2016-08-29T15:44:03Z</time>
      </trkpt>
      <trkpt lat="45.92639" lon="4.73669">
        <ele>173</ele>
        <time>2016-08-29T15:44:04Z</time>
      </trkpt>
      <trkpt lat="45.92635" lon="4.73664">
        <ele>173</ele>
        <time>2016-08-29T15:44:05Z</time>
      </trkpt>
      <trkpt lat="45.92632" lon="4.73658">
        <ele>173</ele>
        <time>2016-08-29T15:44:06Z</time>
      </trkpt>
      <trkpt lat="45.92629" lon="4.7365">
        <ele>173</ele>
        <time>2016-08-29T15:44:07Z</time>
      </trkpt>
      <trkpt lat="45.92627" lon="4.73644">
        <ele>173</ele>
        <time>2016-08-29T15:44:08Z</time>
      </trkpt>
      <trkpt lat="45.92624" lon="4.73637">
        <ele>173</ele>
        <time>2016-08-29T15:44:09Z</time>
      </trkpt>
      <trkpt lat="45.9262" lon="4.73632">
        <ele>173</ele>
        <time>2016-08-29T15:44:10Z</time>
      </trkpt>
      <trkpt lat="45.92616" lon="4.73627">
        <ele>173</ele>
        <time>2016-08-29T15:44:11Z</time>
      </trkpt>
      <trkpt lat="45.92611" lon="4.73623">
        <ele>173</ele>
        <time>2016-08-29T15:44:12Z</time>
      </trkpt>
      <trkpt lat="45.92606" lon="4.73621">
        <ele>173</ele>
        <time>2016-08-29T15:44:13Z</time>
      </trkpt>
      <trkpt lat="45.92601" lon="4.73619">
        <ele>173</ele>
        <time>2016-08-29T15:44:14Z</time>
      </trkpt>
      <trkpt lat="45.92595" lon="4.73619">
        <ele>173</ele>
        <time>2016-08-29T15:44:15Z</time>
      </trkpt>
      <trkpt lat="45.9259" lon="4.7362">
        <ele>173</ele>
        <time>2016-08-29T15:44:16Z</time>
      </trkpt>
      <trkpt lat="45.92584" lon="4.73622">
        <ele>173</ele>
        <time>2016-08-29T15:44:17Z</time>
      </trkpt>
      <trkpt lat="45.92578" lon="4.73624">
        <ele>173</ele>
        <time>2016-08-29T15:44:18Z</time>
      </trkpt>
      <trkpt lat="45.92573" lon="4.73626">
        <ele>173</ele>
        <time>2016-08-29T15:44:19Z</time>
      </trkpt>
      <trkpt lat="45.92567" lon="4.73628">
        <ele>173</ele>
        <time>2016-08-29T15:44:20Z</time>
      </trkpt>
      <trkpt lat="45.92562" lon="4.7363">
        <ele>173</ele>
        <time>2016-08-29T15:44:21Z</time>
      </trkpt>
      <trkpt lat="45.92554" lon="4.73631">
        <ele>173</ele>
        <time>2016-08-29T15:44:22Z</time>
      </trkpt>
      <trkpt lat="45.92548" lon="4.73633">
        <ele>173</ele>
        <time>2016-08-29T15:44:23Z</time>
      </trkpt>
      <trkpt lat="45.92541" lon="4.73634">
        <ele>173</ele>
        <time>2016-08-29T15:44:24Z</time>
      </trkpt>
      <trkpt lat="45.92535" lon="4.73635">
        <ele>173</ele>
        <time>2016-08-29T15:44:25Z</time>
      </trkpt>
      <trkpt lat="45.92529" lon="4.73636">
        <ele>173</ele>
        <time>2016-08-29T15:44:26Z</time>
      </trkpt>
      <trkpt lat="45.92523" lon="4.73637">
        <ele>173</ele>
        <time>2016-08-29T15:44:27Z</time>
      </trkpt>
      <trkpt lat="45.92517" lon="4.73637">
        <ele>173</ele>
        <time>2016-08-29T15:44:28Z</time>
      </trkpt>
      <trkpt lat="45.92511" lon="4.73638">
        <ele>174</ele>
        <time>2016-08-29T15:44:29Z</time>
      </trkpt>
      <trkpt lat="45.92506" lon="4.73638">
        <ele>174</ele>
        <time>2016-08-29T15:44:30Z</time>
      </trkpt>
      <trkpt lat="45.925" lon="4.73639">
        <ele>174</ele>
        <time>2016-08-29T15:44:31Z</time>
      </trkpt>
      <trkpt lat="45.92494" lon="4.73639">
        <ele>174</ele>
        <time>2016-08-29T15:44:32Z</time>
      </trkpt>
      <trkpt lat="45.92488" lon="4.73641">
        <ele>174</ele>
        <time>2016-08-29T15:44:33Z</time>
      </trkpt>
      <trkpt lat="45.9248" lon="4.73641">
        <ele>174</ele>
        <time>2016-08-29T15:44:35Z</time>
      </trkpt>
      <trkpt lat="45.92476" lon="4.73642">
        <ele>174</ele>
        <time>2016-08-29T15:44:36Z</time>
      </trkpt>
      <trkpt lat="45.92471" lon="4.73648">
        <ele>174</ele>
        <time>2016-08-29T15:44:38Z</time>
      </trkpt>
      <trkpt lat="45.9247" lon="4.73654">
        <ele>174</ele>
        <time>2016-08-29T15:44:39Z</time>
      </trkpt>
      <trkpt lat="45.9247" lon="4.7366">
        <ele>174</ele>
        <time>2016-08-29T15:44:40Z</time>
      </trkpt>
      <trkpt lat="45.92469" lon="4.73666">
        <ele>174</ele>
        <time>2016-08-29T15:44:41Z</time>
      </trkpt>
      <trkpt lat="45.92468" lon="4.73675">
        <ele>174</ele>
        <time>2016-08-29T15:44:43Z</time>
      </trkpt>
      <trkpt lat="45.92469" lon="4.73685">
        <ele>174</ele>
        <time>2016-08-29T15:44:44Z</time>
      </trkpt>
      <trkpt lat="45.92468" lon="4.73697">
        <ele>174</ele>
        <time>2016-08-29T15:44:46Z</time>
      </trkpt>
      <trkpt lat="45.92467" lon="4.73701">
        <ele>174</ele>
        <time>2016-08-29T15:44:47Z</time>
      </trkpt>
      <trkpt lat="45.92465" lon="4.73708">
        <ele>174</ele>
        <time>2016-08-29T15:45:20.738Z</time>
      </trkpt>
    </trkseg>
  </trk>
</gpx>